<?xml version="1.0" encoding="UTF-8" standalone="no" ?>
<gpx xmlns="http://www.topografix.com/GPX/1/1" xmlns:xsi="http://www.w3.org/2001/XMLSchema-instance" xsi:schemaLocation="http://www.topografix.com/GPX/1/1 http://www.topografix.com/GPX/1/1/gpx.xsd" version="1.1" creator="VisuGPX - https://www.visugpx.com">
  <metadata>
    <name>2021-04-25 Fort de Planoise Larnod Fontain</name>
  </metadata>
  <trk>
    <name><![CDATA[2021-04-25 Fort de Planoise Larnod Fontain_1]]></name>
    <trkseg>
      <trkpt lat="47.2466" lon="6.02484">
        <ele>269.4</ele>
        <time>2021-04-25T06:57:02Z</time>
      </trkpt>
      <trkpt lat="47.24668" lon="6.02491">
        <ele>270.8</ele>
        <time>2021-04-25T06:57:03Z</time>
      </trkpt>
      <trkpt lat="47.2467" lon="6.02493">
        <ele>268</ele>
        <time>2021-04-25T06:57:04Z</time>
      </trkpt>
      <trkpt lat="47.2467" lon="6.02492">
        <ele>269.6</ele>
        <time>2021-04-25T06:57:05Z</time>
      </trkpt>
      <trkpt lat="47.2467" lon="6.02492">
        <ele>271.4</ele>
        <time>2021-04-25T06:57:06Z</time>
      </trkpt>
      <trkpt lat="47.24671" lon="6.02493">
        <ele>272.4</ele>
        <time>2021-04-25T06:57:10Z</time>
      </trkpt>
      <trkpt lat="47.24666" lon="6.02494">
        <ele>272.4</ele>
        <time>2021-04-25T06:57:12Z</time>
      </trkpt>
      <trkpt lat="47.24665" lon="6.02494">
        <ele>272.2</ele>
        <time>2021-04-25T06:57:13Z</time>
      </trkpt>
      <trkpt lat="47.24664" lon="6.02492">
        <ele>272.2</ele>
        <time>2021-04-25T06:57:14Z</time>
      </trkpt>
      <trkpt lat="47.24665" lon="6.0249">
        <ele>272.2</ele>
        <time>2021-04-25T06:57:15Z</time>
      </trkpt>
      <trkpt lat="47.24666" lon="6.02489">
        <ele>272.4</ele>
        <time>2021-04-25T06:57:16Z</time>
      </trkpt>
      <trkpt lat="47.24667" lon="6.02487">
        <ele>272.4</ele>
        <time>2021-04-25T06:57:17Z</time>
      </trkpt>
      <trkpt lat="47.24669" lon="6.02485">
        <ele>272.4</ele>
        <time>2021-04-25T06:57:18Z</time>
      </trkpt>
      <trkpt lat="47.2467" lon="6.02484">
        <ele>272.4</ele>
        <time>2021-04-25T06:57:19Z</time>
      </trkpt>
      <trkpt lat="47.24671" lon="6.02482">
        <ele>272.6</ele>
        <time>2021-04-25T06:57:20Z</time>
      </trkpt>
      <trkpt lat="47.24673" lon="6.0248">
        <ele>272.6</ele>
        <time>2021-04-25T06:57:22Z</time>
      </trkpt>
      <trkpt lat="47.24674" lon="6.0248">
        <ele>272.6</ele>
        <time>2021-04-25T06:57:23Z</time>
      </trkpt>
      <trkpt lat="47.24675" lon="6.02479">
        <ele>272.8</ele>
        <time>2021-04-25T06:57:24Z</time>
      </trkpt>
      <trkpt lat="47.24677" lon="6.0248">
        <ele>273</ele>
        <time>2021-04-25T06:57:25Z</time>
      </trkpt>
      <trkpt lat="47.24679" lon="6.02481">
        <ele>273.4</ele>
        <time>2021-04-25T06:57:26Z</time>
      </trkpt>
      <trkpt lat="47.2468" lon="6.02482">
        <ele>273.6</ele>
        <time>2021-04-25T06:57:27Z</time>
      </trkpt>
      <trkpt lat="47.2468" lon="6.02482">
        <ele>273.8</ele>
        <time>2021-04-25T06:57:28Z</time>
      </trkpt>
      <trkpt lat="47.24682" lon="6.02481">
        <ele>274</ele>
        <time>2021-04-25T06:57:29Z</time>
      </trkpt>
      <trkpt lat="47.24683" lon="6.02481">
        <ele>274</ele>
        <time>2021-04-25T06:57:30Z</time>
      </trkpt>
      <trkpt lat="47.24684" lon="6.0248">
        <ele>274</ele>
        <time>2021-04-25T06:57:31Z</time>
      </trkpt>
      <trkpt lat="47.24688" lon="6.02479">
        <ele>274</ele>
        <time>2021-04-25T06:57:33Z</time>
      </trkpt>
      <trkpt lat="47.24694" lon="6.02477">
        <ele>274.2</ele>
        <time>2021-04-25T06:57:41Z</time>
      </trkpt>
      <trkpt lat="47.24696" lon="6.02477">
        <ele>274.2</ele>
        <time>2021-04-25T06:57:42Z</time>
      </trkpt>
      <trkpt lat="47.24698" lon="6.02477">
        <ele>274.2</ele>
        <time>2021-04-25T06:57:43Z</time>
      </trkpt>
      <trkpt lat="47.247" lon="6.02477">
        <ele>274.2</ele>
        <time>2021-04-25T06:57:45Z</time>
      </trkpt>
      <trkpt lat="47.24702" lon="6.02475">
        <ele>274.4</ele>
        <time>2021-04-25T06:57:49Z</time>
      </trkpt>
      <trkpt lat="47.24706" lon="6.02478">
        <ele>274.4</ele>
        <time>2021-04-25T06:57:56Z</time>
      </trkpt>
      <trkpt lat="47.24709" lon="6.0248">
        <ele>274.4</ele>
        <time>2021-04-25T06:57:59Z</time>
      </trkpt>
      <trkpt lat="47.2471" lon="6.02482">
        <ele>274.4</ele>
        <time>2021-04-25T06:58:00Z</time>
      </trkpt>
      <trkpt lat="47.24711" lon="6.02484">
        <ele>274.4</ele>
        <time>2021-04-25T06:58:01Z</time>
      </trkpt>
      <trkpt lat="47.24712" lon="6.02485">
        <ele>274.4</ele>
        <time>2021-04-25T06:58:02Z</time>
      </trkpt>
      <trkpt lat="47.24713" lon="6.02487">
        <ele>274.4</ele>
        <time>2021-04-25T06:58:03Z</time>
      </trkpt>
      <trkpt lat="47.24724" lon="6.025">
        <ele>274.6</ele>
        <time>2021-04-25T06:58:08Z</time>
      </trkpt>
      <trkpt lat="47.24734" lon="6.02519">
        <ele>274.6</ele>
        <time>2021-04-25T06:58:12Z</time>
      </trkpt>
      <trkpt lat="47.24736" lon="6.02521">
        <ele>274.6</ele>
        <time>2021-04-25T06:58:13Z</time>
      </trkpt>
      <trkpt lat="47.24737" lon="6.02522">
        <ele>274.6</ele>
        <time>2021-04-25T06:58:14Z</time>
      </trkpt>
      <trkpt lat="47.24739" lon="6.02523">
        <ele>274.4</ele>
        <time>2021-04-25T06:58:15Z</time>
      </trkpt>
      <trkpt lat="47.24742" lon="6.02521">
        <ele>274.4</ele>
        <time>2021-04-25T06:58:16Z</time>
      </trkpt>
      <trkpt lat="47.24744" lon="6.0252">
        <ele>274.4</ele>
        <time>2021-04-25T06:58:17Z</time>
      </trkpt>
      <trkpt lat="47.24749" lon="6.02515">
        <ele>274.2</ele>
        <time>2021-04-25T06:58:19Z</time>
      </trkpt>
      <trkpt lat="47.24751" lon="6.02512">
        <ele>274.2</ele>
        <time>2021-04-25T06:58:20Z</time>
      </trkpt>
      <trkpt lat="47.24761" lon="6.02501">
        <ele>274.2</ele>
        <time>2021-04-25T06:58:24Z</time>
      </trkpt>
      <trkpt lat="47.24775" lon="6.0249">
        <ele>274.2</ele>
        <time>2021-04-25T06:58:30Z</time>
      </trkpt>
      <trkpt lat="47.24775" lon="6.0249">
        <ele>274.4</ele>
        <time>2021-04-25T06:58:31Z</time>
      </trkpt>
      <trkpt lat="47.2478" lon="6.02495">
        <ele>274.4</ele>
        <time>2021-04-25T06:58:32Z</time>
      </trkpt>
      <trkpt lat="47.24783" lon="6.02503">
        <ele>274.6</ele>
        <time>2021-04-25T06:58:34Z</time>
      </trkpt>
      <trkpt lat="47.24793" lon="6.02533">
        <ele>274.6</ele>
        <time>2021-04-25T06:58:40Z</time>
      </trkpt>
      <trkpt lat="47.24802" lon="6.02559">
        <ele>273.6</ele>
        <time>2021-04-25T06:58:45Z</time>
      </trkpt>
      <trkpt lat="47.24805" lon="6.02571">
        <ele>273.6</ele>
        <time>2021-04-25T06:58:46Z</time>
      </trkpt>
      <trkpt lat="47.24807" lon="6.02578">
        <ele>273.4</ele>
        <time>2021-04-25T06:58:47Z</time>
      </trkpt>
      <trkpt lat="47.24813" lon="6.02598">
        <ele>273</ele>
        <time>2021-04-25T06:58:51Z</time>
      </trkpt>
      <trkpt lat="47.24816" lon="6.02611">
        <ele>273</ele>
        <time>2021-04-25T06:58:52Z</time>
      </trkpt>
      <trkpt lat="47.24817" lon="6.02617">
        <ele>273</ele>
        <time>2021-04-25T06:58:53Z</time>
      </trkpt>
      <trkpt lat="47.24818" lon="6.02624">
        <ele>273</ele>
        <time>2021-04-25T06:58:54Z</time>
      </trkpt>
      <trkpt lat="47.2482" lon="6.0263">
        <ele>273</ele>
        <time>2021-04-25T06:58:56Z</time>
      </trkpt>
      <trkpt lat="47.24826" lon="6.02654">
        <ele>273.2</ele>
        <time>2021-04-25T06:58:59Z</time>
      </trkpt>
      <trkpt lat="47.24827" lon="6.0266">
        <ele>273.2</ele>
        <time>2021-04-25T06:59:00Z</time>
      </trkpt>
      <trkpt lat="47.2483" lon="6.0267">
        <ele>273.4</ele>
        <time>2021-04-25T06:59:02Z</time>
      </trkpt>
      <trkpt lat="47.24831" lon="6.02675">
        <ele>273.6</ele>
        <time>2021-04-25T06:59:03Z</time>
      </trkpt>
      <trkpt lat="47.24835" lon="6.02691">
        <ele>273.8</ele>
        <time>2021-04-25T06:59:06Z</time>
      </trkpt>
      <trkpt lat="47.24837" lon="6.02694">
        <ele>273.8</ele>
        <time>2021-04-25T06:59:07Z</time>
      </trkpt>
      <trkpt lat="47.24841" lon="6.02696">
        <ele>273.8</ele>
        <time>2021-04-25T06:59:08Z</time>
      </trkpt>
      <trkpt lat="47.24851" lon="6.02694">
        <ele>274.2</ele>
        <time>2021-04-25T06:59:11Z</time>
      </trkpt>
      <trkpt lat="47.24855" lon="6.02693">
        <ele>274.4</ele>
        <time>2021-04-25T06:59:12Z</time>
      </trkpt>
      <trkpt lat="47.24858" lon="6.02692">
        <ele>274.6</ele>
        <time>2021-04-25T06:59:13Z</time>
      </trkpt>
      <trkpt lat="47.24861" lon="6.0269">
        <ele>274.8</ele>
        <time>2021-04-25T06:59:14Z</time>
      </trkpt>
      <trkpt lat="47.24864" lon="6.02689">
        <ele>274.8</ele>
        <time>2021-04-25T06:59:15Z</time>
      </trkpt>
      <trkpt lat="47.24867" lon="6.02688">
        <ele>275</ele>
        <time>2021-04-25T06:59:16Z</time>
      </trkpt>
      <trkpt lat="47.24867" lon="6.02688">
        <ele>275.2</ele>
        <time>2021-04-25T06:59:17Z</time>
      </trkpt>
      <trkpt lat="47.24873" lon="6.02686">
        <ele>275.6</ele>
        <time>2021-04-25T06:59:18Z</time>
      </trkpt>
      <trkpt lat="47.24876" lon="6.02685">
        <ele>276</ele>
        <time>2021-04-25T06:59:19Z</time>
      </trkpt>
      <trkpt lat="47.24879" lon="6.02685">
        <ele>276</ele>
        <time>2021-04-25T06:59:20Z</time>
      </trkpt>
      <trkpt lat="47.24889" lon="6.02682">
        <ele>276.8</ele>
        <time>2021-04-25T06:59:23Z</time>
      </trkpt>
      <trkpt lat="47.24893" lon="6.02681">
        <ele>276.8</ele>
        <time>2021-04-25T06:59:24Z</time>
      </trkpt>
      <trkpt lat="47.24896" lon="6.0268">
        <ele>277.2</ele>
        <time>2021-04-25T06:59:25Z</time>
      </trkpt>
      <trkpt lat="47.249" lon="6.0268">
        <ele>277.4</ele>
        <time>2021-04-25T06:59:26Z</time>
      </trkpt>
      <trkpt lat="47.24903" lon="6.02679">
        <ele>277.8</ele>
        <time>2021-04-25T06:59:27Z</time>
      </trkpt>
      <trkpt lat="47.24906" lon="6.02679">
        <ele>278</ele>
        <time>2021-04-25T06:59:28Z</time>
      </trkpt>
      <trkpt lat="47.2491" lon="6.02679">
        <ele>278</ele>
        <time>2021-04-25T06:59:29Z</time>
      </trkpt>
      <trkpt lat="47.24913" lon="6.02678">
        <ele>278.2</ele>
        <time>2021-04-25T06:59:30Z</time>
      </trkpt>
      <trkpt lat="47.24916" lon="6.02678">
        <ele>278.2</ele>
        <time>2021-04-25T06:59:31Z</time>
      </trkpt>
      <trkpt lat="47.24919" lon="6.02677">
        <ele>278.4</ele>
        <time>2021-04-25T06:59:32Z</time>
      </trkpt>
      <trkpt lat="47.24922" lon="6.02676">
        <ele>278.6</ele>
        <time>2021-04-25T06:59:33Z</time>
      </trkpt>
      <trkpt lat="47.24925" lon="6.02675">
        <ele>278.8</ele>
        <time>2021-04-25T06:59:34Z</time>
      </trkpt>
      <trkpt lat="47.24928" lon="6.02675">
        <ele>278.8</ele>
        <time>2021-04-25T06:59:35Z</time>
      </trkpt>
      <trkpt lat="47.24931" lon="6.02674">
        <ele>279</ele>
        <time>2021-04-25T06:59:36Z</time>
      </trkpt>
      <trkpt lat="47.24934" lon="6.02672">
        <ele>279.2</ele>
        <time>2021-04-25T06:59:37Z</time>
      </trkpt>
      <trkpt lat="47.24934" lon="6.02672">
        <ele>279.2</ele>
        <time>2021-04-25T06:59:38Z</time>
      </trkpt>
      <trkpt lat="47.24941" lon="6.0267">
        <ele>279.4</ele>
        <time>2021-04-25T06:59:39Z</time>
      </trkpt>
      <trkpt lat="47.24944" lon="6.02668">
        <ele>279.6</ele>
        <time>2021-04-25T06:59:40Z</time>
      </trkpt>
      <trkpt lat="47.24947" lon="6.02666">
        <ele>279.8</ele>
        <time>2021-04-25T06:59:41Z</time>
      </trkpt>
      <trkpt lat="47.2495" lon="6.02664">
        <ele>279.8</ele>
        <time>2021-04-25T06:59:42Z</time>
      </trkpt>
      <trkpt lat="47.2495" lon="6.02664">
        <ele>280</ele>
        <time>2021-04-25T06:59:43Z</time>
      </trkpt>
      <trkpt lat="47.24954" lon="6.02662">
        <ele>280</ele>
        <time>2021-04-25T06:59:44Z</time>
      </trkpt>
      <trkpt lat="47.2496" lon="6.02657">
        <ele>280</ele>
        <time>2021-04-25T06:59:45Z</time>
      </trkpt>
      <trkpt lat="47.24963" lon="6.02655">
        <ele>280.2</ele>
        <time>2021-04-25T06:59:46Z</time>
      </trkpt>
      <trkpt lat="47.24965" lon="6.0265">
        <ele>280.2</ele>
        <time>2021-04-25T06:59:47Z</time>
      </trkpt>
      <trkpt lat="47.24969" lon="6.02648">
        <ele>280.4</ele>
        <time>2021-04-25T06:59:48Z</time>
      </trkpt>
      <trkpt lat="47.24973" lon="6.02646">
        <ele>280.4</ele>
        <time>2021-04-25T06:59:49Z</time>
      </trkpt>
      <trkpt lat="47.24976" lon="6.02643">
        <ele>280.4</ele>
        <time>2021-04-25T06:59:50Z</time>
      </trkpt>
      <trkpt lat="47.24979" lon="6.0264">
        <ele>280.6</ele>
        <time>2021-04-25T06:59:51Z</time>
      </trkpt>
      <trkpt lat="47.24982" lon="6.02637">
        <ele>280.4</ele>
        <time>2021-04-25T06:59:52Z</time>
      </trkpt>
      <trkpt lat="47.24985" lon="6.02634">
        <ele>280.4</ele>
        <time>2021-04-25T06:59:53Z</time>
      </trkpt>
      <trkpt lat="47.24988" lon="6.02631">
        <ele>280.4</ele>
        <time>2021-04-25T06:59:54Z</time>
      </trkpt>
      <trkpt lat="47.24991" lon="6.02629">
        <ele>280.2</ele>
        <time>2021-04-25T06:59:55Z</time>
      </trkpt>
      <trkpt lat="47.24995" lon="6.02626">
        <ele>280.2</ele>
        <time>2021-04-25T06:59:56Z</time>
      </trkpt>
      <trkpt lat="47.24998" lon="6.02624">
        <ele>280.2</ele>
        <time>2021-04-25T06:59:57Z</time>
      </trkpt>
      <trkpt lat="47.25002" lon="6.02622">
        <ele>280.2</ele>
        <time>2021-04-25T06:59:58Z</time>
      </trkpt>
      <trkpt lat="47.25005" lon="6.02622">
        <ele>280</ele>
        <time>2021-04-25T06:59:59Z</time>
      </trkpt>
      <trkpt lat="47.25007" lon="6.02624">
        <ele>280</ele>
        <time>2021-04-25T07:00:00Z</time>
      </trkpt>
      <trkpt lat="47.25009" lon="6.02628">
        <ele>280</ele>
        <time>2021-04-25T07:00:01Z</time>
      </trkpt>
      <trkpt lat="47.25011" lon="6.02631">
        <ele>280</ele>
        <time>2021-04-25T07:00:02Z</time>
      </trkpt>
      <trkpt lat="47.25013" lon="6.02635">
        <ele>280</ele>
        <time>2021-04-25T07:00:03Z</time>
      </trkpt>
      <trkpt lat="47.25015" lon="6.02638">
        <ele>280</ele>
        <time>2021-04-25T07:00:04Z</time>
      </trkpt>
      <trkpt lat="47.25016" lon="6.02641">
        <ele>280</ele>
        <time>2021-04-25T07:00:05Z</time>
      </trkpt>
      <trkpt lat="47.25018" lon="6.02644">
        <ele>280.4</ele>
        <time>2021-04-25T07:00:06Z</time>
      </trkpt>
      <trkpt lat="47.2502" lon="6.02647">
        <ele>280.6</ele>
        <time>2021-04-25T07:00:07Z</time>
      </trkpt>
      <trkpt lat="47.25021" lon="6.02649">
        <ele>281</ele>
        <time>2021-04-25T07:00:08Z</time>
      </trkpt>
      <trkpt lat="47.25023" lon="6.02652">
        <ele>281.2</ele>
        <time>2021-04-25T07:00:09Z</time>
      </trkpt>
      <trkpt lat="47.25025" lon="6.02654">
        <ele>281.6</ele>
        <time>2021-04-25T07:00:10Z</time>
      </trkpt>
      <trkpt lat="47.25027" lon="6.02657">
        <ele>281.8</ele>
        <time>2021-04-25T07:00:11Z</time>
      </trkpt>
      <trkpt lat="47.25028" lon="6.02659">
        <ele>282.2</ele>
        <time>2021-04-25T07:00:12Z</time>
      </trkpt>
      <trkpt lat="47.2503" lon="6.0266">
        <ele>282.4</ele>
        <time>2021-04-25T07:00:13Z</time>
      </trkpt>
      <trkpt lat="47.25033" lon="6.02662">
        <ele>282.8</ele>
        <time>2021-04-25T07:00:14Z</time>
      </trkpt>
      <trkpt lat="47.25035" lon="6.02664">
        <ele>283</ele>
        <time>2021-04-25T07:00:15Z</time>
      </trkpt>
      <trkpt lat="47.25036" lon="6.02665">
        <ele>283.2</ele>
        <time>2021-04-25T07:00:16Z</time>
      </trkpt>
      <trkpt lat="47.25038" lon="6.02666">
        <ele>283.6</ele>
        <time>2021-04-25T07:00:17Z</time>
      </trkpt>
      <trkpt lat="47.2504" lon="6.02667">
        <ele>283.6</ele>
        <time>2021-04-25T07:00:18Z</time>
      </trkpt>
      <trkpt lat="47.2504" lon="6.02667">
        <ele>284</ele>
        <time>2021-04-25T07:00:19Z</time>
      </trkpt>
      <trkpt lat="47.25044" lon="6.02668">
        <ele>284.2</ele>
        <time>2021-04-25T07:00:20Z</time>
      </trkpt>
      <trkpt lat="47.25047" lon="6.02668">
        <ele>284.6</ele>
        <time>2021-04-25T07:00:21Z</time>
      </trkpt>
      <trkpt lat="47.25049" lon="6.02669">
        <ele>284.6</ele>
        <time>2021-04-25T07:00:22Z</time>
      </trkpt>
      <trkpt lat="47.25051" lon="6.02669">
        <ele>285</ele>
        <time>2021-04-25T07:00:23Z</time>
      </trkpt>
      <trkpt lat="47.25053" lon="6.02669">
        <ele>285.2</ele>
        <time>2021-04-25T07:00:24Z</time>
      </trkpt>
      <trkpt lat="47.25055" lon="6.02669">
        <ele>285.2</ele>
        <time>2021-04-25T07:00:25Z</time>
      </trkpt>
      <trkpt lat="47.25057" lon="6.0267">
        <ele>285.4</ele>
        <time>2021-04-25T07:00:26Z</time>
      </trkpt>
      <trkpt lat="47.2506" lon="6.02671">
        <ele>285.4</ele>
        <time>2021-04-25T07:00:27Z</time>
      </trkpt>
      <trkpt lat="47.25062" lon="6.02671">
        <ele>285.6</ele>
        <time>2021-04-25T07:00:28Z</time>
      </trkpt>
      <trkpt lat="47.25064" lon="6.02671">
        <ele>285.6</ele>
        <time>2021-04-25T07:00:29Z</time>
      </trkpt>
      <trkpt lat="47.25066" lon="6.02671">
        <ele>286</ele>
        <time>2021-04-25T07:00:30Z</time>
      </trkpt>
      <trkpt lat="47.25068" lon="6.02671">
        <ele>286</ele>
        <time>2021-04-25T07:00:31Z</time>
      </trkpt>
      <trkpt lat="47.2507" lon="6.02671">
        <ele>286.2</ele>
        <time>2021-04-25T07:00:32Z</time>
      </trkpt>
      <trkpt lat="47.25072" lon="6.02671">
        <ele>286.4</ele>
        <time>2021-04-25T07:00:33Z</time>
      </trkpt>
      <trkpt lat="47.25074" lon="6.02671">
        <ele>286.4</ele>
        <time>2021-04-25T07:00:34Z</time>
      </trkpt>
      <trkpt lat="47.25076" lon="6.02671">
        <ele>286.6</ele>
        <time>2021-04-25T07:00:35Z</time>
      </trkpt>
      <trkpt lat="47.25076" lon="6.02671">
        <ele>286.8</ele>
        <time>2021-04-25T07:00:36Z</time>
      </trkpt>
      <trkpt lat="47.2508" lon="6.02672">
        <ele>287</ele>
        <time>2021-04-25T07:00:37Z</time>
      </trkpt>
      <trkpt lat="47.25082" lon="6.02672">
        <ele>287</ele>
        <time>2021-04-25T07:00:38Z</time>
      </trkpt>
      <trkpt lat="47.25084" lon="6.02673">
        <ele>287.4</ele>
        <time>2021-04-25T07:00:39Z</time>
      </trkpt>
      <trkpt lat="47.25086" lon="6.02673">
        <ele>287.4</ele>
        <time>2021-04-25T07:00:40Z</time>
      </trkpt>
      <trkpt lat="47.25089" lon="6.02674">
        <ele>287.6</ele>
        <time>2021-04-25T07:00:41Z</time>
      </trkpt>
      <trkpt lat="47.25091" lon="6.02674">
        <ele>287.8</ele>
        <time>2021-04-25T07:00:42Z</time>
      </trkpt>
      <trkpt lat="47.25091" lon="6.02674">
        <ele>287.8</ele>
        <time>2021-04-25T07:00:43Z</time>
      </trkpt>
      <trkpt lat="47.25095" lon="6.02675">
        <ele>288</ele>
        <time>2021-04-25T07:00:44Z</time>
      </trkpt>
      <trkpt lat="47.25097" lon="6.02675">
        <ele>288</ele>
        <time>2021-04-25T07:00:45Z</time>
      </trkpt>
      <trkpt lat="47.25098" lon="6.02675">
        <ele>288.2</ele>
        <time>2021-04-25T07:00:46Z</time>
      </trkpt>
      <trkpt lat="47.251" lon="6.02676">
        <ele>288.2</ele>
        <time>2021-04-25T07:00:47Z</time>
      </trkpt>
      <trkpt lat="47.25102" lon="6.02676">
        <ele>288.4</ele>
        <time>2021-04-25T07:00:48Z</time>
      </trkpt>
      <trkpt lat="47.25104" lon="6.02676">
        <ele>288.6</ele>
        <time>2021-04-25T07:00:49Z</time>
      </trkpt>
      <trkpt lat="47.25104" lon="6.02676">
        <ele>288.8</ele>
        <time>2021-04-25T07:00:50Z</time>
      </trkpt>
      <trkpt lat="47.25109" lon="6.02677">
        <ele>288.8</ele>
        <time>2021-04-25T07:00:51Z</time>
      </trkpt>
      <trkpt lat="47.25111" lon="6.02677">
        <ele>289</ele>
        <time>2021-04-25T07:00:52Z</time>
      </trkpt>
      <trkpt lat="47.25113" lon="6.02678">
        <ele>289.2</ele>
        <time>2021-04-25T07:00:53Z</time>
      </trkpt>
      <trkpt lat="47.25115" lon="6.02678">
        <ele>289.2</ele>
        <time>2021-04-25T07:00:54Z</time>
      </trkpt>
      <trkpt lat="47.25117" lon="6.02679">
        <ele>289.4</ele>
        <time>2021-04-25T07:00:55Z</time>
      </trkpt>
      <trkpt lat="47.25117" lon="6.02679">
        <ele>289.6</ele>
        <time>2021-04-25T07:00:56Z</time>
      </trkpt>
      <trkpt lat="47.2512" lon="6.02679">
        <ele>289.6</ele>
        <time>2021-04-25T07:00:57Z</time>
      </trkpt>
      <trkpt lat="47.25124" lon="6.02681">
        <ele>289.8</ele>
        <time>2021-04-25T07:00:58Z</time>
      </trkpt>
      <trkpt lat="47.25126" lon="6.02683">
        <ele>290.2</ele>
        <time>2021-04-25T07:00:59Z</time>
      </trkpt>
      <trkpt lat="47.25128" lon="6.02685">
        <ele>290.2</ele>
        <time>2021-04-25T07:01:00Z</time>
      </trkpt>
      <trkpt lat="47.25131" lon="6.02686">
        <ele>290.4</ele>
        <time>2021-04-25T07:01:01Z</time>
      </trkpt>
      <trkpt lat="47.25133" lon="6.02687">
        <ele>290.6</ele>
        <time>2021-04-25T07:01:02Z</time>
      </trkpt>
      <trkpt lat="47.25135" lon="6.02688">
        <ele>290.6</ele>
        <time>2021-04-25T07:01:03Z</time>
      </trkpt>
      <trkpt lat="47.25138" lon="6.02688">
        <ele>290.6</ele>
        <time>2021-04-25T07:01:04Z</time>
      </trkpt>
      <trkpt lat="47.2514" lon="6.02688">
        <ele>290.8</ele>
        <time>2021-04-25T07:01:05Z</time>
      </trkpt>
      <trkpt lat="47.2514" lon="6.02688">
        <ele>290.8</ele>
        <time>2021-04-25T07:01:06Z</time>
      </trkpt>
      <trkpt lat="47.25144" lon="6.02688">
        <ele>291</ele>
        <time>2021-04-25T07:01:07Z</time>
      </trkpt>
      <trkpt lat="47.25146" lon="6.02688">
        <ele>291.2</ele>
        <time>2021-04-25T07:01:08Z</time>
      </trkpt>
      <trkpt lat="47.25148" lon="6.02688">
        <ele>291.2</ele>
        <time>2021-04-25T07:01:09Z</time>
      </trkpt>
      <trkpt lat="47.25151" lon="6.02688">
        <ele>291.4</ele>
        <time>2021-04-25T07:01:10Z</time>
      </trkpt>
      <trkpt lat="47.25153" lon="6.02689">
        <ele>291.6</ele>
        <time>2021-04-25T07:01:11Z</time>
      </trkpt>
      <trkpt lat="47.25155" lon="6.02689">
        <ele>291.8</ele>
        <time>2021-04-25T07:01:12Z</time>
      </trkpt>
      <trkpt lat="47.25158" lon="6.0269">
        <ele>291.8</ele>
        <time>2021-04-25T07:01:13Z</time>
      </trkpt>
      <trkpt lat="47.2516" lon="6.0269">
        <ele>292</ele>
        <time>2021-04-25T07:01:14Z</time>
      </trkpt>
      <trkpt lat="47.2516" lon="6.0269">
        <ele>292</ele>
        <time>2021-04-25T07:01:15Z</time>
      </trkpt>
      <trkpt lat="47.25164" lon="6.02691">
        <ele>292.2</ele>
        <time>2021-04-25T07:01:16Z</time>
      </trkpt>
      <trkpt lat="47.25167" lon="6.02691">
        <ele>292.4</ele>
        <time>2021-04-25T07:01:17Z</time>
      </trkpt>
      <trkpt lat="47.25169" lon="6.02692">
        <ele>292.6</ele>
        <time>2021-04-25T07:01:18Z</time>
      </trkpt>
      <trkpt lat="47.25171" lon="6.02692">
        <ele>292.6</ele>
        <time>2021-04-25T07:01:19Z</time>
      </trkpt>
      <trkpt lat="47.25174" lon="6.02694">
        <ele>292.8</ele>
        <time>2021-04-25T07:01:20Z</time>
      </trkpt>
      <trkpt lat="47.25174" lon="6.02694">
        <ele>292.8</ele>
        <time>2021-04-25T07:01:21Z</time>
      </trkpt>
      <trkpt lat="47.25178" lon="6.02694">
        <ele>293</ele>
        <time>2021-04-25T07:01:22Z</time>
      </trkpt>
      <trkpt lat="47.2518" lon="6.02693">
        <ele>293</ele>
        <time>2021-04-25T07:01:23Z</time>
      </trkpt>
      <trkpt lat="47.25183" lon="6.02693">
        <ele>293.2</ele>
        <time>2021-04-25T07:01:24Z</time>
      </trkpt>
      <trkpt lat="47.25185" lon="6.02692">
        <ele>293.2</ele>
        <time>2021-04-25T07:01:25Z</time>
      </trkpt>
      <trkpt lat="47.25187" lon="6.02691">
        <ele>293.4</ele>
        <time>2021-04-25T07:01:26Z</time>
      </trkpt>
      <trkpt lat="47.25189" lon="6.0269">
        <ele>293.4</ele>
        <time>2021-04-25T07:01:27Z</time>
      </trkpt>
      <trkpt lat="47.25192" lon="6.02688">
        <ele>293.6</ele>
        <time>2021-04-25T07:01:28Z</time>
      </trkpt>
      <trkpt lat="47.25194" lon="6.02687">
        <ele>293.6</ele>
        <time>2021-04-25T07:01:29Z</time>
      </trkpt>
      <trkpt lat="47.25197" lon="6.02686">
        <ele>293.6</ele>
        <time>2021-04-25T07:01:30Z</time>
      </trkpt>
      <trkpt lat="47.25199" lon="6.02684">
        <ele>293.8</ele>
        <time>2021-04-25T07:01:31Z</time>
      </trkpt>
      <trkpt lat="47.252" lon="6.02682">
        <ele>293.8</ele>
        <time>2021-04-25T07:01:32Z</time>
      </trkpt>
      <trkpt lat="47.25202" lon="6.02681">
        <ele>294</ele>
        <time>2021-04-25T07:01:33Z</time>
      </trkpt>
      <trkpt lat="47.25203" lon="6.02679">
        <ele>294</ele>
        <time>2021-04-25T07:01:34Z</time>
      </trkpt>
      <trkpt lat="47.25204" lon="6.02676">
        <ele>294</ele>
        <time>2021-04-25T07:01:35Z</time>
      </trkpt>
      <trkpt lat="47.25204" lon="6.02673">
        <ele>294.2</ele>
        <time>2021-04-25T07:01:36Z</time>
      </trkpt>
      <trkpt lat="47.25205" lon="6.0267">
        <ele>294.2</ele>
        <time>2021-04-25T07:01:37Z</time>
      </trkpt>
      <trkpt lat="47.25205" lon="6.02667">
        <ele>294.4</ele>
        <time>2021-04-25T07:01:38Z</time>
      </trkpt>
      <trkpt lat="47.25206" lon="6.02663">
        <ele>294.4</ele>
        <time>2021-04-25T07:01:39Z</time>
      </trkpt>
      <trkpt lat="47.25206" lon="6.0266">
        <ele>294.4</ele>
        <time>2021-04-25T07:01:40Z</time>
      </trkpt>
      <trkpt lat="47.25206" lon="6.0266">
        <ele>294.6</ele>
        <time>2021-04-25T07:01:41Z</time>
      </trkpt>
      <trkpt lat="47.25208" lon="6.0264">
        <ele>294.6</ele>
        <time>2021-04-25T07:01:46Z</time>
      </trkpt>
      <trkpt lat="47.25209" lon="6.02637">
        <ele>294.6</ele>
        <time>2021-04-25T07:01:47Z</time>
      </trkpt>
      <trkpt lat="47.25219" lon="6.02619">
        <ele>295</ele>
        <time>2021-04-25T07:01:54Z</time>
      </trkpt>
      <trkpt lat="47.25234" lon="6.02612">
        <ele>295.8</ele>
        <time>2021-04-25T07:02:01Z</time>
      </trkpt>
      <trkpt lat="47.25242" lon="6.0261">
        <ele>296.2</ele>
        <time>2021-04-25T07:02:04Z</time>
      </trkpt>
      <trkpt lat="47.25248" lon="6.02607">
        <ele>296.6</ele>
        <time>2021-04-25T07:02:07Z</time>
      </trkpt>
      <trkpt lat="47.25254" lon="6.02605">
        <ele>296.8</ele>
        <time>2021-04-25T07:02:10Z</time>
      </trkpt>
      <trkpt lat="47.25259" lon="6.02604">
        <ele>297</ele>
        <time>2021-04-25T07:02:12Z</time>
      </trkpt>
      <trkpt lat="47.25261" lon="6.02603">
        <ele>297</ele>
        <time>2021-04-25T07:02:13Z</time>
      </trkpt>
      <trkpt lat="47.25263" lon="6.02602">
        <ele>297.2</ele>
        <time>2021-04-25T07:02:14Z</time>
      </trkpt>
      <trkpt lat="47.25263" lon="6.02602">
        <ele>297.2</ele>
        <time>2021-04-25T07:02:15Z</time>
      </trkpt>
      <trkpt lat="47.25285" lon="6.02595">
        <ele>297.8</ele>
        <time>2021-04-25T07:02:25Z</time>
      </trkpt>
      <trkpt lat="47.25306" lon="6.0259">
        <ele>298</ele>
        <time>2021-04-25T07:02:33Z</time>
      </trkpt>
      <trkpt lat="47.25318" lon="6.02587">
        <ele>298.2</ele>
        <time>2021-04-25T07:02:38Z</time>
      </trkpt>
      <trkpt lat="47.25323" lon="6.02586">
        <ele>298.4</ele>
        <time>2021-04-25T07:02:41Z</time>
      </trkpt>
      <trkpt lat="47.25337" lon="6.02578">
        <ele>298.8</ele>
        <time>2021-04-25T07:02:46Z</time>
      </trkpt>
      <trkpt lat="47.25345" lon="6.02569">
        <ele>299.2</ele>
        <time>2021-04-25T07:02:50Z</time>
      </trkpt>
      <trkpt lat="47.25347" lon="6.02566">
        <ele>299.4</ele>
        <time>2021-04-25T07:02:51Z</time>
      </trkpt>
      <trkpt lat="47.25351" lon="6.02558">
        <ele>299.8</ele>
        <time>2021-04-25T07:02:54Z</time>
      </trkpt>
      <trkpt lat="47.25353" lon="6.02552">
        <ele>300</ele>
        <time>2021-04-25T07:02:56Z</time>
      </trkpt>
      <trkpt lat="47.25355" lon="6.02549">
        <ele>300</ele>
        <time>2021-04-25T07:02:57Z</time>
      </trkpt>
      <trkpt lat="47.25356" lon="6.02546">
        <ele>300.2</ele>
        <time>2021-04-25T07:02:58Z</time>
      </trkpt>
      <trkpt lat="47.25357" lon="6.02543">
        <ele>300.2</ele>
        <time>2021-04-25T07:02:59Z</time>
      </trkpt>
      <trkpt lat="47.25358" lon="6.0254">
        <ele>300.4</ele>
        <time>2021-04-25T07:03:00Z</time>
      </trkpt>
      <trkpt lat="47.25363" lon="6.02533">
        <ele>300.4</ele>
        <time>2021-04-25T07:03:03Z</time>
      </trkpt>
      <trkpt lat="47.25364" lon="6.0253">
        <ele>300.4</ele>
        <time>2021-04-25T07:03:04Z</time>
      </trkpt>
      <trkpt lat="47.25365" lon="6.02527">
        <ele>300.6</ele>
        <time>2021-04-25T07:03:05Z</time>
      </trkpt>
      <trkpt lat="47.25367" lon="6.02525">
        <ele>300.6</ele>
        <time>2021-04-25T07:03:06Z</time>
      </trkpt>
      <trkpt lat="47.25368" lon="6.02523">
        <ele>300.6</ele>
        <time>2021-04-25T07:03:07Z</time>
      </trkpt>
      <trkpt lat="47.25372" lon="6.02519">
        <ele>301</ele>
        <time>2021-04-25T07:03:09Z</time>
      </trkpt>
      <trkpt lat="47.2538" lon="6.02511">
        <ele>301.2</ele>
        <time>2021-04-25T07:03:13Z</time>
      </trkpt>
      <trkpt lat="47.25388" lon="6.02504">
        <ele>301.4</ele>
        <time>2021-04-25T07:03:17Z</time>
      </trkpt>
      <trkpt lat="47.25394" lon="6.02499">
        <ele>301.8</ele>
        <time>2021-04-25T07:03:20Z</time>
      </trkpt>
      <trkpt lat="47.25396" lon="6.02498">
        <ele>302</ele>
        <time>2021-04-25T07:03:21Z</time>
      </trkpt>
      <trkpt lat="47.25401" lon="6.02497">
        <ele>302.2</ele>
        <time>2021-04-25T07:03:23Z</time>
      </trkpt>
      <trkpt lat="47.25408" lon="6.02492">
        <ele>302.4</ele>
        <time>2021-04-25T07:03:26Z</time>
      </trkpt>
      <trkpt lat="47.2542" lon="6.02481">
        <ele>303</ele>
        <time>2021-04-25T07:03:32Z</time>
      </trkpt>
      <trkpt lat="47.25431" lon="6.02467">
        <ele>303.6</ele>
        <time>2021-04-25T07:03:38Z</time>
      </trkpt>
      <trkpt lat="47.25434" lon="6.02463">
        <ele>303.8</ele>
        <time>2021-04-25T07:03:40Z</time>
      </trkpt>
      <trkpt lat="47.25436" lon="6.0246">
        <ele>303.8</ele>
        <time>2021-04-25T07:03:42Z</time>
      </trkpt>
      <trkpt lat="47.25459" lon="6.02427">
        <ele>304.4</ele>
        <time>2021-04-25T07:03:54Z</time>
      </trkpt>
      <trkpt lat="47.2546" lon="6.02424">
        <ele>304.6</ele>
        <time>2021-04-25T07:03:55Z</time>
      </trkpt>
      <trkpt lat="47.25466" lon="6.02416">
        <ele>304.8</ele>
        <time>2021-04-25T07:03:58Z</time>
      </trkpt>
      <trkpt lat="47.25474" lon="6.02403">
        <ele>305.4</ele>
        <time>2021-04-25T07:04:03Z</time>
      </trkpt>
      <trkpt lat="47.2548" lon="6.02395">
        <ele>305.6</ele>
        <time>2021-04-25T07:04:06Z</time>
      </trkpt>
      <trkpt lat="47.25491" lon="6.02382">
        <ele>306</ele>
        <time>2021-04-25T07:04:11Z</time>
      </trkpt>
      <trkpt lat="47.25503" lon="6.02362">
        <ele>306.6</ele>
        <time>2021-04-25T07:04:18Z</time>
      </trkpt>
      <trkpt lat="47.25504" lon="6.02358">
        <ele>306.6</ele>
        <time>2021-04-25T07:04:19Z</time>
      </trkpt>
      <trkpt lat="47.25508" lon="6.02348">
        <ele>306.8</ele>
        <time>2021-04-25T07:04:22Z</time>
      </trkpt>
      <trkpt lat="47.25514" lon="6.02331">
        <ele>307</ele>
        <time>2021-04-25T07:04:27Z</time>
      </trkpt>
      <trkpt lat="47.25522" lon="6.02306">
        <ele>307.4</ele>
        <time>2021-04-25T07:04:34Z</time>
      </trkpt>
      <trkpt lat="47.25532" lon="6.02275">
        <ele>307.2</ele>
        <time>2021-04-25T07:04:42Z</time>
      </trkpt>
      <trkpt lat="47.25537" lon="6.0226">
        <ele>307.2</ele>
        <time>2021-04-25T07:04:46Z</time>
      </trkpt>
      <trkpt lat="47.25538" lon="6.02257">
        <ele>307.2</ele>
        <time>2021-04-25T07:04:47Z</time>
      </trkpt>
      <trkpt lat="47.25539" lon="6.02253">
        <ele>307.4</ele>
        <time>2021-04-25T07:04:48Z</time>
      </trkpt>
      <trkpt lat="47.25541" lon="6.02249">
        <ele>307.4</ele>
        <time>2021-04-25T07:04:49Z</time>
      </trkpt>
      <trkpt lat="47.25542" lon="6.02246">
        <ele>307.6</ele>
        <time>2021-04-25T07:04:50Z</time>
      </trkpt>
      <trkpt lat="47.25543" lon="6.02243">
        <ele>307.8</ele>
        <time>2021-04-25T07:04:51Z</time>
      </trkpt>
      <trkpt lat="47.25543" lon="6.02239">
        <ele>308</ele>
        <time>2021-04-25T07:04:52Z</time>
      </trkpt>
      <trkpt lat="47.25544" lon="6.02236">
        <ele>308</ele>
        <time>2021-04-25T07:04:53Z</time>
      </trkpt>
      <trkpt lat="47.25546" lon="6.0223">
        <ele>308.6</ele>
        <time>2021-04-25T07:04:55Z</time>
      </trkpt>
      <trkpt lat="47.25547" lon="6.02227">
        <ele>308.6</ele>
        <time>2021-04-25T07:04:56Z</time>
      </trkpt>
      <trkpt lat="47.25548" lon="6.02224">
        <ele>308.8</ele>
        <time>2021-04-25T07:04:57Z</time>
      </trkpt>
      <trkpt lat="47.25549" lon="6.02222">
        <ele>309</ele>
        <time>2021-04-25T07:04:58Z</time>
      </trkpt>
      <trkpt lat="47.2555" lon="6.02219">
        <ele>309.2</ele>
        <time>2021-04-25T07:04:59Z</time>
      </trkpt>
      <trkpt lat="47.2555" lon="6.02217">
        <ele>309.4</ele>
        <time>2021-04-25T07:05:00Z</time>
      </trkpt>
      <trkpt lat="47.2555" lon="6.02217">
        <ele>309.6</ele>
        <time>2021-04-25T07:05:01Z</time>
      </trkpt>
      <trkpt lat="47.25552" lon="6.02214">
        <ele>310</ele>
        <time>2021-04-25T07:05:02Z</time>
      </trkpt>
      <trkpt lat="47.25553" lon="6.02209">
        <ele>310.6</ele>
        <time>2021-04-25T07:05:04Z</time>
      </trkpt>
      <trkpt lat="47.25554" lon="6.02207">
        <ele>310.6</ele>
        <time>2021-04-25T07:05:05Z</time>
      </trkpt>
      <trkpt lat="47.25554" lon="6.02207">
        <ele>311</ele>
        <time>2021-04-25T07:05:06Z</time>
      </trkpt>
      <trkpt lat="47.25556" lon="6.02202">
        <ele>311.2</ele>
        <time>2021-04-25T07:05:07Z</time>
      </trkpt>
      <trkpt lat="47.25556" lon="6.02202">
        <ele>311.6</ele>
        <time>2021-04-25T07:05:08Z</time>
      </trkpt>
      <trkpt lat="47.25558" lon="6.02197">
        <ele>311.8</ele>
        <time>2021-04-25T07:05:09Z</time>
      </trkpt>
      <trkpt lat="47.25559" lon="6.02194">
        <ele>311.8</ele>
        <time>2021-04-25T07:05:10Z</time>
      </trkpt>
      <trkpt lat="47.2556" lon="6.02192">
        <ele>312</ele>
        <time>2021-04-25T07:05:11Z</time>
      </trkpt>
      <trkpt lat="47.2556" lon="6.02189">
        <ele>312</ele>
        <time>2021-04-25T07:05:12Z</time>
      </trkpt>
      <trkpt lat="47.25561" lon="6.02187">
        <ele>312.2</ele>
        <time>2021-04-25T07:05:13Z</time>
      </trkpt>
      <trkpt lat="47.25562" lon="6.02185">
        <ele>312.2</ele>
        <time>2021-04-25T07:05:14Z</time>
      </trkpt>
      <trkpt lat="47.25563" lon="6.02184">
        <ele>312.4</ele>
        <time>2021-04-25T07:05:15Z</time>
      </trkpt>
      <trkpt lat="47.25564" lon="6.02181">
        <ele>312.6</ele>
        <time>2021-04-25T07:05:16Z</time>
      </trkpt>
      <trkpt lat="47.25565" lon="6.02178">
        <ele>312.8</ele>
        <time>2021-04-25T07:05:17Z</time>
      </trkpt>
      <trkpt lat="47.25566" lon="6.02176">
        <ele>312.8</ele>
        <time>2021-04-25T07:05:18Z</time>
      </trkpt>
      <trkpt lat="47.25566" lon="6.02173">
        <ele>313</ele>
        <time>2021-04-25T07:05:19Z</time>
      </trkpt>
      <trkpt lat="47.25567" lon="6.0217">
        <ele>313.2</ele>
        <time>2021-04-25T07:05:20Z</time>
      </trkpt>
      <trkpt lat="47.25567" lon="6.02167">
        <ele>313.2</ele>
        <time>2021-04-25T07:05:21Z</time>
      </trkpt>
      <trkpt lat="47.25568" lon="6.02165">
        <ele>313.4</ele>
        <time>2021-04-25T07:05:22Z</time>
      </trkpt>
      <trkpt lat="47.25568" lon="6.02162">
        <ele>313.4</ele>
        <time>2021-04-25T07:05:23Z</time>
      </trkpt>
      <trkpt lat="47.25569" lon="6.02159">
        <ele>313.6</ele>
        <time>2021-04-25T07:05:24Z</time>
      </trkpt>
      <trkpt lat="47.2557" lon="6.02156">
        <ele>313.6</ele>
        <time>2021-04-25T07:05:25Z</time>
      </trkpt>
      <trkpt lat="47.25571" lon="6.02154">
        <ele>313.6</ele>
        <time>2021-04-25T07:05:26Z</time>
      </trkpt>
      <trkpt lat="47.25572" lon="6.02151">
        <ele>313.6</ele>
        <time>2021-04-25T07:05:27Z</time>
      </trkpt>
      <trkpt lat="47.25573" lon="6.02149">
        <ele>313.8</ele>
        <time>2021-04-25T07:05:28Z</time>
      </trkpt>
      <trkpt lat="47.25574" lon="6.02146">
        <ele>313.8</ele>
        <time>2021-04-25T07:05:29Z</time>
      </trkpt>
      <trkpt lat="47.25574" lon="6.02144">
        <ele>313.8</ele>
        <time>2021-04-25T07:05:30Z</time>
      </trkpt>
      <trkpt lat="47.25575" lon="6.02141">
        <ele>314</ele>
        <time>2021-04-25T07:05:31Z</time>
      </trkpt>
      <trkpt lat="47.25576" lon="6.02138">
        <ele>314</ele>
        <time>2021-04-25T07:05:32Z</time>
      </trkpt>
      <trkpt lat="47.25577" lon="6.02136">
        <ele>314.2</ele>
        <time>2021-04-25T07:05:33Z</time>
      </trkpt>
      <trkpt lat="47.25577" lon="6.02133">
        <ele>314.2</ele>
        <time>2021-04-25T07:05:34Z</time>
      </trkpt>
      <trkpt lat="47.25578" lon="6.0213">
        <ele>314.4</ele>
        <time>2021-04-25T07:05:35Z</time>
      </trkpt>
      <trkpt lat="47.25579" lon="6.02128">
        <ele>314.4</ele>
        <time>2021-04-25T07:05:36Z</time>
      </trkpt>
      <trkpt lat="47.2558" lon="6.02126">
        <ele>314.6</ele>
        <time>2021-04-25T07:05:37Z</time>
      </trkpt>
      <trkpt lat="47.25581" lon="6.02123">
        <ele>314.6</ele>
        <time>2021-04-25T07:05:38Z</time>
      </trkpt>
      <trkpt lat="47.25582" lon="6.0212">
        <ele>314.6</ele>
        <time>2021-04-25T07:05:39Z</time>
      </trkpt>
      <trkpt lat="47.25583" lon="6.02118">
        <ele>314.8</ele>
        <time>2021-04-25T07:05:40Z</time>
      </trkpt>
      <trkpt lat="47.25584" lon="6.02115">
        <ele>315</ele>
        <time>2021-04-25T07:05:41Z</time>
      </trkpt>
      <trkpt lat="47.25585" lon="6.02113">
        <ele>315</ele>
        <time>2021-04-25T07:05:42Z</time>
      </trkpt>
      <trkpt lat="47.25585" lon="6.0211">
        <ele>315</ele>
        <time>2021-04-25T07:05:43Z</time>
      </trkpt>
      <trkpt lat="47.25586" lon="6.02107">
        <ele>315.2</ele>
        <time>2021-04-25T07:05:44Z</time>
      </trkpt>
      <trkpt lat="47.25587" lon="6.02104">
        <ele>315.2</ele>
        <time>2021-04-25T07:05:45Z</time>
      </trkpt>
      <trkpt lat="47.2559" lon="6.02095">
        <ele>315.4</ele>
        <time>2021-04-25T07:05:48Z</time>
      </trkpt>
      <trkpt lat="47.25598" lon="6.02065">
        <ele>316.4</ele>
        <time>2021-04-25T07:05:58Z</time>
      </trkpt>
      <trkpt lat="47.25599" lon="6.02062">
        <ele>316.4</ele>
        <time>2021-04-25T07:05:59Z</time>
      </trkpt>
      <trkpt lat="47.256" lon="6.0206">
        <ele>316.6</ele>
        <time>2021-04-25T07:06:00Z</time>
      </trkpt>
      <trkpt lat="47.25601" lon="6.02057">
        <ele>316.6</ele>
        <time>2021-04-25T07:06:01Z</time>
      </trkpt>
      <trkpt lat="47.25602" lon="6.02055">
        <ele>316.8</ele>
        <time>2021-04-25T07:06:02Z</time>
      </trkpt>
      <trkpt lat="47.25603" lon="6.02052">
        <ele>316.8</ele>
        <time>2021-04-25T07:06:03Z</time>
      </trkpt>
      <trkpt lat="47.25604" lon="6.0205">
        <ele>317</ele>
        <time>2021-04-25T07:06:04Z</time>
      </trkpt>
      <trkpt lat="47.25605" lon="6.02046">
        <ele>317.2</ele>
        <time>2021-04-25T07:06:06Z</time>
      </trkpt>
      <trkpt lat="47.25606" lon="6.02045">
        <ele>317.4</ele>
        <time>2021-04-25T07:06:07Z</time>
      </trkpt>
      <trkpt lat="47.25607" lon="6.02043">
        <ele>317.4</ele>
        <time>2021-04-25T07:06:08Z</time>
      </trkpt>
      <trkpt lat="47.25607" lon="6.02043">
        <ele>317.6</ele>
        <time>2021-04-25T07:06:09Z</time>
      </trkpt>
      <trkpt lat="47.25608" lon="6.02042">
        <ele>317.8</ele>
        <time>2021-04-25T07:06:10Z</time>
      </trkpt>
      <trkpt lat="47.25608" lon="6.02042">
        <ele>318</ele>
        <time>2021-04-25T07:06:11Z</time>
      </trkpt>
      <trkpt lat="47.25609" lon="6.02041">
        <ele>318.2</ele>
        <time>2021-04-25T07:06:12Z</time>
      </trkpt>
      <trkpt lat="47.2561" lon="6.0204">
        <ele>318.2</ele>
        <time>2021-04-25T07:06:13Z</time>
      </trkpt>
      <trkpt lat="47.2561" lon="6.0204">
        <ele>318.2</ele>
        <time>2021-04-25T07:06:14Z</time>
      </trkpt>
      <trkpt lat="47.2561" lon="6.02039">
        <ele>318.4</ele>
        <time>2021-04-25T07:06:15Z</time>
      </trkpt>
      <trkpt lat="47.2561" lon="6.02039">
        <ele>318.6</ele>
        <time>2021-04-25T07:06:26Z</time>
      </trkpt>
      <trkpt lat="47.25611" lon="6.02027">
        <ele>318.6</ele>
        <time>2021-04-25T07:06:29Z</time>
      </trkpt>
      <trkpt lat="47.25612" lon="6.02016">
        <ele>318.6</ele>
        <time>2021-04-25T07:06:32Z</time>
      </trkpt>
      <trkpt lat="47.25614" lon="6.02005">
        <ele>318.6</ele>
        <time>2021-04-25T07:06:35Z</time>
      </trkpt>
      <trkpt lat="47.25624" lon="6.01983">
        <ele>318.8</ele>
        <time>2021-04-25T07:06:42Z</time>
      </trkpt>
      <trkpt lat="47.25625" lon="6.0198">
        <ele>318.8</ele>
        <time>2021-04-25T07:06:43Z</time>
      </trkpt>
      <trkpt lat="47.25644" lon="6.0195">
        <ele>319.6</ele>
        <time>2021-04-25T07:06:54Z</time>
      </trkpt>
      <trkpt lat="47.25647" lon="6.01946">
        <ele>319.8</ele>
        <time>2021-04-25T07:06:56Z</time>
      </trkpt>
      <trkpt lat="47.25648" lon="6.01943">
        <ele>319.8</ele>
        <time>2021-04-25T07:06:57Z</time>
      </trkpt>
      <trkpt lat="47.2565" lon="6.01941">
        <ele>320</ele>
        <time>2021-04-25T07:06:58Z</time>
      </trkpt>
      <trkpt lat="47.25651" lon="6.01939">
        <ele>320.2</ele>
        <time>2021-04-25T07:06:59Z</time>
      </trkpt>
      <trkpt lat="47.25653" lon="6.01937">
        <ele>320.4</ele>
        <time>2021-04-25T07:07:00Z</time>
      </trkpt>
      <trkpt lat="47.25654" lon="6.01934">
        <ele>320.4</ele>
        <time>2021-04-25T07:07:01Z</time>
      </trkpt>
      <trkpt lat="47.25655" lon="6.01932">
        <ele>320.8</ele>
        <time>2021-04-25T07:07:02Z</time>
      </trkpt>
      <trkpt lat="47.25656" lon="6.0193">
        <ele>320.8</ele>
        <time>2021-04-25T07:07:03Z</time>
      </trkpt>
      <trkpt lat="47.25658" lon="6.01928">
        <ele>321</ele>
        <time>2021-04-25T07:07:04Z</time>
      </trkpt>
      <trkpt lat="47.25659" lon="6.01927">
        <ele>321.2</ele>
        <time>2021-04-25T07:07:05Z</time>
      </trkpt>
      <trkpt lat="47.25661" lon="6.01924">
        <ele>321.2</ele>
        <time>2021-04-25T07:07:06Z</time>
      </trkpt>
      <trkpt lat="47.25662" lon="6.01922">
        <ele>321.6</ele>
        <time>2021-04-25T07:07:07Z</time>
      </trkpt>
      <trkpt lat="47.25664" lon="6.0192">
        <ele>322</ele>
        <time>2021-04-25T07:07:08Z</time>
      </trkpt>
      <trkpt lat="47.25665" lon="6.01918">
        <ele>322.2</ele>
        <time>2021-04-25T07:07:09Z</time>
      </trkpt>
      <trkpt lat="47.25666" lon="6.01917">
        <ele>322.2</ele>
        <time>2021-04-25T07:07:10Z</time>
      </trkpt>
      <trkpt lat="47.25668" lon="6.01915">
        <ele>322.6</ele>
        <time>2021-04-25T07:07:11Z</time>
      </trkpt>
      <trkpt lat="47.25669" lon="6.01913">
        <ele>322.8</ele>
        <time>2021-04-25T07:07:12Z</time>
      </trkpt>
      <trkpt lat="47.2567" lon="6.01911">
        <ele>323.2</ele>
        <time>2021-04-25T07:07:13Z</time>
      </trkpt>
      <trkpt lat="47.25671" lon="6.0191">
        <ele>323.4</ele>
        <time>2021-04-25T07:07:14Z</time>
      </trkpt>
      <trkpt lat="47.25672" lon="6.01907">
        <ele>323.8</ele>
        <time>2021-04-25T07:07:15Z</time>
      </trkpt>
      <trkpt lat="47.25674" lon="6.01905">
        <ele>324</ele>
        <time>2021-04-25T07:07:16Z</time>
      </trkpt>
      <trkpt lat="47.25675" lon="6.01903">
        <ele>324.2</ele>
        <time>2021-04-25T07:07:17Z</time>
      </trkpt>
      <trkpt lat="47.25675" lon="6.01902">
        <ele>324.4</ele>
        <time>2021-04-25T07:07:18Z</time>
      </trkpt>
      <trkpt lat="47.25676" lon="6.019">
        <ele>324.6</ele>
        <time>2021-04-25T07:07:19Z</time>
      </trkpt>
      <trkpt lat="47.25677" lon="6.01898">
        <ele>324.8</ele>
        <time>2021-04-25T07:07:20Z</time>
      </trkpt>
      <trkpt lat="47.25678" lon="6.01897">
        <ele>325</ele>
        <time>2021-04-25T07:07:21Z</time>
      </trkpt>
      <trkpt lat="47.25679" lon="6.01896">
        <ele>325.4</ele>
        <time>2021-04-25T07:07:22Z</time>
      </trkpt>
      <trkpt lat="47.25679" lon="6.01895">
        <ele>325.6</ele>
        <time>2021-04-25T07:07:23Z</time>
      </trkpt>
      <trkpt lat="47.2568" lon="6.01895">
        <ele>326.4</ele>
        <time>2021-04-25T07:07:27Z</time>
      </trkpt>
      <trkpt lat="47.25681" lon="6.01893">
        <ele>326.6</ele>
        <time>2021-04-25T07:07:28Z</time>
      </trkpt>
      <trkpt lat="47.25682" lon="6.01892">
        <ele>326.8</ele>
        <time>2021-04-25T07:07:29Z</time>
      </trkpt>
      <trkpt lat="47.25683" lon="6.0189">
        <ele>326.8</ele>
        <time>2021-04-25T07:07:30Z</time>
      </trkpt>
      <trkpt lat="47.25684" lon="6.01888">
        <ele>327</ele>
        <time>2021-04-25T07:07:31Z</time>
      </trkpt>
      <trkpt lat="47.25685" lon="6.01886">
        <ele>327</ele>
        <time>2021-04-25T07:07:32Z</time>
      </trkpt>
      <trkpt lat="47.25686" lon="6.01883">
        <ele>327.2</ele>
        <time>2021-04-25T07:07:33Z</time>
      </trkpt>
      <trkpt lat="47.25687" lon="6.01881">
        <ele>327.2</ele>
        <time>2021-04-25T07:07:34Z</time>
      </trkpt>
      <trkpt lat="47.25689" lon="6.01878">
        <ele>327.2</ele>
        <time>2021-04-25T07:07:35Z</time>
      </trkpt>
      <trkpt lat="47.2569" lon="6.01876">
        <ele>327.2</ele>
        <time>2021-04-25T07:07:36Z</time>
      </trkpt>
      <trkpt lat="47.25691" lon="6.01874">
        <ele>327.4</ele>
        <time>2021-04-25T07:07:37Z</time>
      </trkpt>
      <trkpt lat="47.25692" lon="6.01872">
        <ele>327.4</ele>
        <time>2021-04-25T07:07:38Z</time>
      </trkpt>
      <trkpt lat="47.25694" lon="6.0187">
        <ele>327.4</ele>
        <time>2021-04-25T07:07:39Z</time>
      </trkpt>
      <trkpt lat="47.25695" lon="6.01869">
        <ele>327.8</ele>
        <time>2021-04-25T07:07:40Z</time>
      </trkpt>
      <trkpt lat="47.25697" lon="6.01868">
        <ele>328</ele>
        <time>2021-04-25T07:07:41Z</time>
      </trkpt>
      <trkpt lat="47.25698" lon="6.01867">
        <ele>328.2</ele>
        <time>2021-04-25T07:07:42Z</time>
      </trkpt>
      <trkpt lat="47.257" lon="6.01866">
        <ele>328.2</ele>
        <time>2021-04-25T07:07:43Z</time>
      </trkpt>
      <trkpt lat="47.257" lon="6.01866">
        <ele>328.6</ele>
        <time>2021-04-25T07:07:44Z</time>
      </trkpt>
      <trkpt lat="47.25702" lon="6.01862">
        <ele>328.6</ele>
        <time>2021-04-25T07:07:45Z</time>
      </trkpt>
      <trkpt lat="47.25703" lon="6.0186">
        <ele>328.8</ele>
        <time>2021-04-25T07:07:46Z</time>
      </trkpt>
      <trkpt lat="47.25704" lon="6.01858">
        <ele>328.8</ele>
        <time>2021-04-25T07:07:47Z</time>
      </trkpt>
      <trkpt lat="47.25704" lon="6.01858">
        <ele>329.2</ele>
        <time>2021-04-25T07:07:48Z</time>
      </trkpt>
      <trkpt lat="47.25707" lon="6.01854">
        <ele>329.4</ele>
        <time>2021-04-25T07:07:49Z</time>
      </trkpt>
      <trkpt lat="47.25707" lon="6.01854">
        <ele>329.4</ele>
        <time>2021-04-25T07:07:50Z</time>
      </trkpt>
      <trkpt lat="47.2571" lon="6.01851">
        <ele>329.8</ele>
        <time>2021-04-25T07:07:51Z</time>
      </trkpt>
      <trkpt lat="47.25711" lon="6.01849">
        <ele>329.8</ele>
        <time>2021-04-25T07:07:52Z</time>
      </trkpt>
      <trkpt lat="47.25712" lon="6.01848">
        <ele>330</ele>
        <time>2021-04-25T07:07:53Z</time>
      </trkpt>
      <trkpt lat="47.25713" lon="6.01846">
        <ele>330.2</ele>
        <time>2021-04-25T07:07:54Z</time>
      </trkpt>
      <trkpt lat="47.25714" lon="6.01844">
        <ele>330.2</ele>
        <time>2021-04-25T07:07:55Z</time>
      </trkpt>
      <trkpt lat="47.25716" lon="6.01843">
        <ele>330.4</ele>
        <time>2021-04-25T07:07:56Z</time>
      </trkpt>
      <trkpt lat="47.25717" lon="6.01841">
        <ele>330.6</ele>
        <time>2021-04-25T07:07:57Z</time>
      </trkpt>
      <trkpt lat="47.25718" lon="6.01839">
        <ele>330.6</ele>
        <time>2021-04-25T07:07:58Z</time>
      </trkpt>
      <trkpt lat="47.2572" lon="6.01837">
        <ele>330.8</ele>
        <time>2021-04-25T07:07:59Z</time>
      </trkpt>
      <trkpt lat="47.25721" lon="6.01836">
        <ele>330.8</ele>
        <time>2021-04-25T07:08:00Z</time>
      </trkpt>
      <trkpt lat="47.25722" lon="6.01834">
        <ele>330.8</ele>
        <time>2021-04-25T07:08:01Z</time>
      </trkpt>
      <trkpt lat="47.25724" lon="6.01833">
        <ele>331</ele>
        <time>2021-04-25T07:08:02Z</time>
      </trkpt>
      <trkpt lat="47.25725" lon="6.01831">
        <ele>331</ele>
        <time>2021-04-25T07:08:03Z</time>
      </trkpt>
      <trkpt lat="47.25726" lon="6.01829">
        <ele>331.2</ele>
        <time>2021-04-25T07:08:04Z</time>
      </trkpt>
      <trkpt lat="47.25727" lon="6.01828">
        <ele>331.4</ele>
        <time>2021-04-25T07:08:05Z</time>
      </trkpt>
      <trkpt lat="47.25728" lon="6.01827">
        <ele>331.4</ele>
        <time>2021-04-25T07:08:06Z</time>
      </trkpt>
      <trkpt lat="47.2573" lon="6.01825">
        <ele>331.6</ele>
        <time>2021-04-25T07:08:07Z</time>
      </trkpt>
      <trkpt lat="47.25731" lon="6.01824">
        <ele>331.8</ele>
        <time>2021-04-25T07:08:08Z</time>
      </trkpt>
      <trkpt lat="47.25732" lon="6.01822">
        <ele>332</ele>
        <time>2021-04-25T07:08:09Z</time>
      </trkpt>
      <trkpt lat="47.25733" lon="6.01821">
        <ele>332.2</ele>
        <time>2021-04-25T07:08:10Z</time>
      </trkpt>
      <trkpt lat="47.25735" lon="6.0182">
        <ele>332.2</ele>
        <time>2021-04-25T07:08:11Z</time>
      </trkpt>
      <trkpt lat="47.25736" lon="6.01818">
        <ele>332.4</ele>
        <time>2021-04-25T07:08:12Z</time>
      </trkpt>
      <trkpt lat="47.25737" lon="6.01817">
        <ele>332.6</ele>
        <time>2021-04-25T07:08:13Z</time>
      </trkpt>
      <trkpt lat="47.25739" lon="6.01815">
        <ele>332.6</ele>
        <time>2021-04-25T07:08:14Z</time>
      </trkpt>
      <trkpt lat="47.2574" lon="6.01813">
        <ele>332.8</ele>
        <time>2021-04-25T07:08:15Z</time>
      </trkpt>
      <trkpt lat="47.25742" lon="6.01811">
        <ele>332.8</ele>
        <time>2021-04-25T07:08:16Z</time>
      </trkpt>
      <trkpt lat="47.25743" lon="6.01809">
        <ele>333</ele>
        <time>2021-04-25T07:08:17Z</time>
      </trkpt>
      <trkpt lat="47.25744" lon="6.01808">
        <ele>333</ele>
        <time>2021-04-25T07:08:18Z</time>
      </trkpt>
      <trkpt lat="47.25746" lon="6.01805">
        <ele>333.2</ele>
        <time>2021-04-25T07:08:19Z</time>
      </trkpt>
      <trkpt lat="47.25747" lon="6.01803">
        <ele>333.2</ele>
        <time>2021-04-25T07:08:20Z</time>
      </trkpt>
      <trkpt lat="47.25748" lon="6.01801">
        <ele>333.4</ele>
        <time>2021-04-25T07:08:21Z</time>
      </trkpt>
      <trkpt lat="47.25749" lon="6.018">
        <ele>333.4</ele>
        <time>2021-04-25T07:08:22Z</time>
      </trkpt>
      <trkpt lat="47.2575" lon="6.01798">
        <ele>333.4</ele>
        <time>2021-04-25T07:08:23Z</time>
      </trkpt>
      <trkpt lat="47.25751" lon="6.01796">
        <ele>333.4</ele>
        <time>2021-04-25T07:08:24Z</time>
      </trkpt>
      <trkpt lat="47.25752" lon="6.01793">
        <ele>333.6</ele>
        <time>2021-04-25T07:08:25Z</time>
      </trkpt>
      <trkpt lat="47.25753" lon="6.0179">
        <ele>333.6</ele>
        <time>2021-04-25T07:08:26Z</time>
      </trkpt>
      <trkpt lat="47.25755" lon="6.01787">
        <ele>333.6</ele>
        <time>2021-04-25T07:08:27Z</time>
      </trkpt>
      <trkpt lat="47.25756" lon="6.01784">
        <ele>333.6</ele>
        <time>2021-04-25T07:08:28Z</time>
      </trkpt>
      <trkpt lat="47.25758" lon="6.01781">
        <ele>333.6</ele>
        <time>2021-04-25T07:08:29Z</time>
      </trkpt>
      <trkpt lat="47.2576" lon="6.01778">
        <ele>333.6</ele>
        <time>2021-04-25T07:08:30Z</time>
      </trkpt>
      <trkpt lat="47.25761" lon="6.01774">
        <ele>333.6</ele>
        <time>2021-04-25T07:08:31Z</time>
      </trkpt>
      <trkpt lat="47.25771" lon="6.01753">
        <ele>333.6</ele>
        <time>2021-04-25T07:08:35Z</time>
      </trkpt>
      <trkpt lat="47.2579" lon="6.01718">
        <ele>332.4</ele>
        <time>2021-04-25T07:08:41Z</time>
      </trkpt>
      <trkpt lat="47.25794" lon="6.01715">
        <ele>332</ele>
        <time>2021-04-25T07:08:42Z</time>
      </trkpt>
      <trkpt lat="47.25798" lon="6.01713">
        <ele>331.8</ele>
        <time>2021-04-25T07:08:43Z</time>
      </trkpt>
      <trkpt lat="47.25801" lon="6.01711">
        <ele>331.4</ele>
        <time>2021-04-25T07:08:44Z</time>
      </trkpt>
      <trkpt lat="47.25804" lon="6.0171">
        <ele>331.4</ele>
        <time>2021-04-25T07:08:45Z</time>
      </trkpt>
      <trkpt lat="47.25807" lon="6.01708">
        <ele>331.4</ele>
        <time>2021-04-25T07:08:46Z</time>
      </trkpt>
      <trkpt lat="47.25809" lon="6.01706">
        <ele>331.2</ele>
        <time>2021-04-25T07:08:47Z</time>
      </trkpt>
      <trkpt lat="47.25812" lon="6.01705">
        <ele>331.2</ele>
        <time>2021-04-25T07:08:48Z</time>
      </trkpt>
      <trkpt lat="47.25814" lon="6.01703">
        <ele>331.2</ele>
        <time>2021-04-25T07:08:49Z</time>
      </trkpt>
      <trkpt lat="47.25817" lon="6.01702">
        <ele>331.2</ele>
        <time>2021-04-25T07:08:50Z</time>
      </trkpt>
      <trkpt lat="47.2582" lon="6.01701">
        <ele>331.4</ele>
        <time>2021-04-25T07:08:51Z</time>
      </trkpt>
      <trkpt lat="47.25832" lon="6.01694">
        <ele>331.6</ele>
        <time>2021-04-25T07:08:56Z</time>
      </trkpt>
      <trkpt lat="47.25835" lon="6.01693">
        <ele>331.8</ele>
        <time>2021-04-25T07:08:57Z</time>
      </trkpt>
      <trkpt lat="47.25837" lon="6.01692">
        <ele>332</ele>
        <time>2021-04-25T07:08:58Z</time>
      </trkpt>
      <trkpt lat="47.25839" lon="6.01691">
        <ele>332.2</ele>
        <time>2021-04-25T07:08:59Z</time>
      </trkpt>
      <trkpt lat="47.2584" lon="6.0169">
        <ele>332.4</ele>
        <time>2021-04-25T07:09:00Z</time>
      </trkpt>
      <trkpt lat="47.25842" lon="6.01688">
        <ele>332.6</ele>
        <time>2021-04-25T07:09:01Z</time>
      </trkpt>
      <trkpt lat="47.25844" lon="6.01687">
        <ele>333</ele>
        <time>2021-04-25T07:09:02Z</time>
      </trkpt>
      <trkpt lat="47.25846" lon="6.01684">
        <ele>333.2</ele>
        <time>2021-04-25T07:09:03Z</time>
      </trkpt>
      <trkpt lat="47.25848" lon="6.01682">
        <ele>333.6</ele>
        <time>2021-04-25T07:09:04Z</time>
      </trkpt>
      <trkpt lat="47.2585" lon="6.0168">
        <ele>333.8</ele>
        <time>2021-04-25T07:09:05Z</time>
      </trkpt>
      <trkpt lat="47.25852" lon="6.01677">
        <ele>334</ele>
        <time>2021-04-25T07:09:06Z</time>
      </trkpt>
      <trkpt lat="47.25853" lon="6.01675">
        <ele>334.2</ele>
        <time>2021-04-25T07:09:07Z</time>
      </trkpt>
      <trkpt lat="47.25856" lon="6.01669">
        <ele>334.4</ele>
        <time>2021-04-25T07:09:09Z</time>
      </trkpt>
      <trkpt lat="47.25858" lon="6.01666">
        <ele>334.4</ele>
        <time>2021-04-25T07:09:10Z</time>
      </trkpt>
      <trkpt lat="47.25863" lon="6.01659">
        <ele>335</ele>
        <time>2021-04-25T07:09:13Z</time>
      </trkpt>
      <trkpt lat="47.25865" lon="6.01657">
        <ele>335.2</ele>
        <time>2021-04-25T07:09:14Z</time>
      </trkpt>
      <trkpt lat="47.25867" lon="6.01655">
        <ele>335.4</ele>
        <time>2021-04-25T07:09:15Z</time>
      </trkpt>
      <trkpt lat="47.25869" lon="6.01654">
        <ele>335.4</ele>
        <time>2021-04-25T07:09:16Z</time>
      </trkpt>
      <trkpt lat="47.2587" lon="6.01653">
        <ele>335.8</ele>
        <time>2021-04-25T07:09:17Z</time>
      </trkpt>
      <trkpt lat="47.25872" lon="6.01652">
        <ele>335.8</ele>
        <time>2021-04-25T07:09:18Z</time>
      </trkpt>
      <trkpt lat="47.25874" lon="6.0165">
        <ele>336</ele>
        <time>2021-04-25T07:09:19Z</time>
      </trkpt>
      <trkpt lat="47.25875" lon="6.01648">
        <ele>336.2</ele>
        <time>2021-04-25T07:09:20Z</time>
      </trkpt>
      <trkpt lat="47.25878" lon="6.01646">
        <ele>336.2</ele>
        <time>2021-04-25T07:09:21Z</time>
      </trkpt>
      <trkpt lat="47.2588" lon="6.01644">
        <ele>336.6</ele>
        <time>2021-04-25T07:09:22Z</time>
      </trkpt>
      <trkpt lat="47.25882" lon="6.01641">
        <ele>336.6</ele>
        <time>2021-04-25T07:09:23Z</time>
      </trkpt>
      <trkpt lat="47.25885" lon="6.01639">
        <ele>336.6</ele>
        <time>2021-04-25T07:09:24Z</time>
      </trkpt>
      <trkpt lat="47.25887" lon="6.01637">
        <ele>336.6</ele>
        <time>2021-04-25T07:09:25Z</time>
      </trkpt>
      <trkpt lat="47.2589" lon="6.01634">
        <ele>336.6</ele>
        <time>2021-04-25T07:09:26Z</time>
      </trkpt>
      <trkpt lat="47.25893" lon="6.01631">
        <ele>336.6</ele>
        <time>2021-04-25T07:09:27Z</time>
      </trkpt>
      <trkpt lat="47.25897" lon="6.01629">
        <ele>336.6</ele>
        <time>2021-04-25T07:09:28Z</time>
      </trkpt>
      <trkpt lat="47.259" lon="6.01626">
        <ele>336.4</ele>
        <time>2021-04-25T07:09:29Z</time>
      </trkpt>
      <trkpt lat="47.25904" lon="6.01624">
        <ele>336.4</ele>
        <time>2021-04-25T07:09:30Z</time>
      </trkpt>
      <trkpt lat="47.25908" lon="6.01621">
        <ele>336.2</ele>
        <time>2021-04-25T07:09:31Z</time>
      </trkpt>
      <trkpt lat="47.25913" lon="6.01619">
        <ele>336.2</ele>
        <time>2021-04-25T07:09:32Z</time>
      </trkpt>
      <trkpt lat="47.25918" lon="6.01617">
        <ele>336</ele>
        <time>2021-04-25T07:09:33Z</time>
      </trkpt>
      <trkpt lat="47.25922" lon="6.01614">
        <ele>335.8</ele>
        <time>2021-04-25T07:09:34Z</time>
      </trkpt>
      <trkpt lat="47.2593" lon="6.01604">
        <ele>335.4</ele>
        <time>2021-04-25T07:09:36Z</time>
      </trkpt>
      <trkpt lat="47.25946" lon="6.01586">
        <ele>334.2</ele>
        <time>2021-04-25T07:09:40Z</time>
      </trkpt>
      <trkpt lat="47.2595" lon="6.01582">
        <ele>334</ele>
        <time>2021-04-25T07:09:41Z</time>
      </trkpt>
      <trkpt lat="47.25957" lon="6.01575">
        <ele>333.6</ele>
        <time>2021-04-25T07:09:43Z</time>
      </trkpt>
      <trkpt lat="47.2596" lon="6.01572">
        <ele>333.4</ele>
        <time>2021-04-25T07:09:44Z</time>
      </trkpt>
      <trkpt lat="47.25963" lon="6.01569">
        <ele>333.2</ele>
        <time>2021-04-25T07:09:45Z</time>
      </trkpt>
      <trkpt lat="47.25965" lon="6.01567">
        <ele>333.2</ele>
        <time>2021-04-25T07:09:46Z</time>
      </trkpt>
      <trkpt lat="47.25965" lon="6.01567">
        <ele>333.2</ele>
        <time>2021-04-25T07:09:47Z</time>
      </trkpt>
      <trkpt lat="47.25971" lon="6.01562">
        <ele>333.2</ele>
        <time>2021-04-25T07:09:48Z</time>
      </trkpt>
      <trkpt lat="47.25974" lon="6.0156">
        <ele>333.2</ele>
        <time>2021-04-25T07:09:49Z</time>
      </trkpt>
      <trkpt lat="47.25979" lon="6.01556">
        <ele>333.4</ele>
        <time>2021-04-25T07:09:51Z</time>
      </trkpt>
      <trkpt lat="47.25982" lon="6.01554">
        <ele>333.4</ele>
        <time>2021-04-25T07:09:52Z</time>
      </trkpt>
      <trkpt lat="47.25985" lon="6.01552">
        <ele>333.6</ele>
        <time>2021-04-25T07:09:53Z</time>
      </trkpt>
      <trkpt lat="47.25988" lon="6.0155">
        <ele>333.6</ele>
        <time>2021-04-25T07:09:54Z</time>
      </trkpt>
      <trkpt lat="47.25997" lon="6.01545">
        <ele>334</ele>
        <time>2021-04-25T07:09:57Z</time>
      </trkpt>
      <trkpt lat="47.26005" lon="6.0154">
        <ele>334.4</ele>
        <time>2021-04-25T07:10:00Z</time>
      </trkpt>
      <trkpt lat="47.26006" lon="6.01539">
        <ele>334.4</ele>
        <time>2021-04-25T07:10:01Z</time>
      </trkpt>
      <trkpt lat="47.26009" lon="6.01538">
        <ele>334.6</ele>
        <time>2021-04-25T07:10:02Z</time>
      </trkpt>
      <trkpt lat="47.26025" lon="6.01523">
        <ele>335</ele>
        <time>2021-04-25T07:10:09Z</time>
      </trkpt>
      <trkpt lat="47.26028" lon="6.01522">
        <ele>335.2</ele>
        <time>2021-04-25T07:10:10Z</time>
      </trkpt>
      <trkpt lat="47.26028" lon="6.01522">
        <ele>335.4</ele>
        <time>2021-04-25T07:10:11Z</time>
      </trkpt>
      <trkpt lat="47.26033" lon="6.0152">
        <ele>335.6</ele>
        <time>2021-04-25T07:10:12Z</time>
      </trkpt>
      <trkpt lat="47.26035" lon="6.01519">
        <ele>335.8</ele>
        <time>2021-04-25T07:10:13Z</time>
      </trkpt>
      <trkpt lat="47.26038" lon="6.01518">
        <ele>335.8</ele>
        <time>2021-04-25T07:10:14Z</time>
      </trkpt>
      <trkpt lat="47.26039" lon="6.01517">
        <ele>336</ele>
        <time>2021-04-25T07:10:15Z</time>
      </trkpt>
      <trkpt lat="47.26039" lon="6.01517">
        <ele>336.2</ele>
        <time>2021-04-25T07:10:16Z</time>
      </trkpt>
      <trkpt lat="47.26044" lon="6.01513">
        <ele>336.2</ele>
        <time>2021-04-25T07:10:17Z</time>
      </trkpt>
      <trkpt lat="47.26047" lon="6.01511">
        <ele>336.4</ele>
        <time>2021-04-25T07:10:18Z</time>
      </trkpt>
      <trkpt lat="47.26057" lon="6.01506">
        <ele>337</ele>
        <time>2021-04-25T07:10:22Z</time>
      </trkpt>
      <trkpt lat="47.2606" lon="6.01503">
        <ele>337</ele>
        <time>2021-04-25T07:10:24Z</time>
      </trkpt>
      <trkpt lat="47.2606" lon="6.01503">
        <ele>337</ele>
        <time>2021-04-25T07:10:25Z</time>
      </trkpt>
      <trkpt lat="47.26065" lon="6.015">
        <ele>337.2</ele>
        <time>2021-04-25T07:10:26Z</time>
      </trkpt>
      <trkpt lat="47.26068" lon="6.01498">
        <ele>337.2</ele>
        <time>2021-04-25T07:10:27Z</time>
      </trkpt>
      <trkpt lat="47.2607" lon="6.01496">
        <ele>337.2</ele>
        <time>2021-04-25T07:10:28Z</time>
      </trkpt>
      <trkpt lat="47.26073" lon="6.01495">
        <ele>337.2</ele>
        <time>2021-04-25T07:10:29Z</time>
      </trkpt>
      <trkpt lat="47.26075" lon="6.01493">
        <ele>337.4</ele>
        <time>2021-04-25T07:10:30Z</time>
      </trkpt>
      <trkpt lat="47.26078" lon="6.01491">
        <ele>337.6</ele>
        <time>2021-04-25T07:10:31Z</time>
      </trkpt>
      <trkpt lat="47.2608" lon="6.01489">
        <ele>337.8</ele>
        <time>2021-04-25T07:10:32Z</time>
      </trkpt>
      <trkpt lat="47.26082" lon="6.01488">
        <ele>337.8</ele>
        <time>2021-04-25T07:10:33Z</time>
      </trkpt>
      <trkpt lat="47.26084" lon="6.01486">
        <ele>338</ele>
        <time>2021-04-25T07:10:34Z</time>
      </trkpt>
      <trkpt lat="47.26086" lon="6.01484">
        <ele>338</ele>
        <time>2021-04-25T07:10:35Z</time>
      </trkpt>
      <trkpt lat="47.26089" lon="6.01483">
        <ele>338.4</ele>
        <time>2021-04-25T07:10:36Z</time>
      </trkpt>
      <trkpt lat="47.26091" lon="6.01481">
        <ele>338.4</ele>
        <time>2021-04-25T07:10:37Z</time>
      </trkpt>
      <trkpt lat="47.26093" lon="6.01478">
        <ele>338.6</ele>
        <time>2021-04-25T07:10:38Z</time>
      </trkpt>
      <trkpt lat="47.26096" lon="6.01477">
        <ele>338.6</ele>
        <time>2021-04-25T07:10:39Z</time>
      </trkpt>
      <trkpt lat="47.26099" lon="6.01475">
        <ele>339</ele>
        <time>2021-04-25T07:10:40Z</time>
      </trkpt>
      <trkpt lat="47.26101" lon="6.01472">
        <ele>339.2</ele>
        <time>2021-04-25T07:10:41Z</time>
      </trkpt>
      <trkpt lat="47.26104" lon="6.0147">
        <ele>339.4</ele>
        <time>2021-04-25T07:10:42Z</time>
      </trkpt>
      <trkpt lat="47.26107" lon="6.01467">
        <ele>339.4</ele>
        <time>2021-04-25T07:10:43Z</time>
      </trkpt>
      <trkpt lat="47.2611" lon="6.01466">
        <ele>339.6</ele>
        <time>2021-04-25T07:10:44Z</time>
      </trkpt>
      <trkpt lat="47.26112" lon="6.01465">
        <ele>339.6</ele>
        <time>2021-04-25T07:10:45Z</time>
      </trkpt>
      <trkpt lat="47.26115" lon="6.01463">
        <ele>339.8</ele>
        <time>2021-04-25T07:10:46Z</time>
      </trkpt>
      <trkpt lat="47.26118" lon="6.01461">
        <ele>339.8</ele>
        <time>2021-04-25T07:10:47Z</time>
      </trkpt>
      <trkpt lat="47.2612" lon="6.0146">
        <ele>340</ele>
        <time>2021-04-25T07:10:48Z</time>
      </trkpt>
      <trkpt lat="47.26123" lon="6.01459">
        <ele>340.2</ele>
        <time>2021-04-25T07:10:49Z</time>
      </trkpt>
      <trkpt lat="47.26126" lon="6.01459">
        <ele>340.2</ele>
        <time>2021-04-25T07:10:50Z</time>
      </trkpt>
      <trkpt lat="47.26129" lon="6.01459">
        <ele>340.4</ele>
        <time>2021-04-25T07:10:51Z</time>
      </trkpt>
      <trkpt lat="47.26129" lon="6.01459">
        <ele>340.6</ele>
        <time>2021-04-25T07:10:52Z</time>
      </trkpt>
      <trkpt lat="47.26135" lon="6.0146">
        <ele>340.6</ele>
        <time>2021-04-25T07:10:53Z</time>
      </trkpt>
      <trkpt lat="47.26138" lon="6.01459">
        <ele>340.6</ele>
        <time>2021-04-25T07:10:54Z</time>
      </trkpt>
      <trkpt lat="47.26141" lon="6.01459">
        <ele>340.8</ele>
        <time>2021-04-25T07:10:55Z</time>
      </trkpt>
      <trkpt lat="47.26143" lon="6.01459">
        <ele>340.8</ele>
        <time>2021-04-25T07:10:56Z</time>
      </trkpt>
      <trkpt lat="47.26143" lon="6.01459">
        <ele>341</ele>
        <time>2021-04-25T07:10:57Z</time>
      </trkpt>
      <trkpt lat="47.26149" lon="6.0146">
        <ele>341</ele>
        <time>2021-04-25T07:10:58Z</time>
      </trkpt>
      <trkpt lat="47.26151" lon="6.01461">
        <ele>341</ele>
        <time>2021-04-25T07:10:59Z</time>
      </trkpt>
      <trkpt lat="47.26154" lon="6.01462">
        <ele>341.2</ele>
        <time>2021-04-25T07:11:00Z</time>
      </trkpt>
      <trkpt lat="47.26156" lon="6.01464">
        <ele>341.2</ele>
        <time>2021-04-25T07:11:01Z</time>
      </trkpt>
      <trkpt lat="47.26159" lon="6.01465">
        <ele>341.4</ele>
        <time>2021-04-25T07:11:02Z</time>
      </trkpt>
      <trkpt lat="47.26161" lon="6.01467">
        <ele>341.6</ele>
        <time>2021-04-25T07:11:03Z</time>
      </trkpt>
      <trkpt lat="47.26164" lon="6.01469">
        <ele>341.6</ele>
        <time>2021-04-25T07:11:04Z</time>
      </trkpt>
      <trkpt lat="47.26166" lon="6.0147">
        <ele>341.8</ele>
        <time>2021-04-25T07:11:05Z</time>
      </trkpt>
      <trkpt lat="47.26169" lon="6.01471">
        <ele>341.8</ele>
        <time>2021-04-25T07:11:06Z</time>
      </trkpt>
      <trkpt lat="47.26171" lon="6.01473">
        <ele>342</ele>
        <time>2021-04-25T07:11:07Z</time>
      </trkpt>
      <trkpt lat="47.26174" lon="6.01475">
        <ele>342.2</ele>
        <time>2021-04-25T07:11:08Z</time>
      </trkpt>
      <trkpt lat="47.26176" lon="6.01477">
        <ele>342.4</ele>
        <time>2021-04-25T07:11:09Z</time>
      </trkpt>
      <trkpt lat="47.26176" lon="6.01477">
        <ele>342.4</ele>
        <time>2021-04-25T07:11:10Z</time>
      </trkpt>
      <trkpt lat="47.26181" lon="6.0148">
        <ele>342.6</ele>
        <time>2021-04-25T07:11:11Z</time>
      </trkpt>
      <trkpt lat="47.26183" lon="6.01482">
        <ele>342.6</ele>
        <time>2021-04-25T07:11:12Z</time>
      </trkpt>
      <trkpt lat="47.26186" lon="6.01483">
        <ele>343</ele>
        <time>2021-04-25T07:11:13Z</time>
      </trkpt>
      <trkpt lat="47.26188" lon="6.01485">
        <ele>343.2</ele>
        <time>2021-04-25T07:11:14Z</time>
      </trkpt>
      <trkpt lat="47.2619" lon="6.01486">
        <ele>343.4</ele>
        <time>2021-04-25T07:11:15Z</time>
      </trkpt>
      <trkpt lat="47.26193" lon="6.01488">
        <ele>343.6</ele>
        <time>2021-04-25T07:11:16Z</time>
      </trkpt>
      <trkpt lat="47.26195" lon="6.0149">
        <ele>343.6</ele>
        <time>2021-04-25T07:11:17Z</time>
      </trkpt>
      <trkpt lat="47.26198" lon="6.01492">
        <ele>343.8</ele>
        <time>2021-04-25T07:11:18Z</time>
      </trkpt>
      <trkpt lat="47.26201" lon="6.01494">
        <ele>343.8</ele>
        <time>2021-04-25T07:11:19Z</time>
      </trkpt>
      <trkpt lat="47.26204" lon="6.01495">
        <ele>343.8</ele>
        <time>2021-04-25T07:11:20Z</time>
      </trkpt>
      <trkpt lat="47.26207" lon="6.01497">
        <ele>343.8</ele>
        <time>2021-04-25T07:11:21Z</time>
      </trkpt>
      <trkpt lat="47.26209" lon="6.01498">
        <ele>343.8</ele>
        <time>2021-04-25T07:11:22Z</time>
      </trkpt>
      <trkpt lat="47.26212" lon="6.015">
        <ele>344</ele>
        <time>2021-04-25T07:11:23Z</time>
      </trkpt>
      <trkpt lat="47.26214" lon="6.01502">
        <ele>344</ele>
        <time>2021-04-25T07:11:24Z</time>
      </trkpt>
      <trkpt lat="47.26216" lon="6.01504">
        <ele>344</ele>
        <time>2021-04-25T07:11:25Z</time>
      </trkpt>
      <trkpt lat="47.26219" lon="6.01506">
        <ele>344.2</ele>
        <time>2021-04-25T07:11:26Z</time>
      </trkpt>
      <trkpt lat="47.26222" lon="6.01507">
        <ele>344.4</ele>
        <time>2021-04-25T07:11:27Z</time>
      </trkpt>
      <trkpt lat="47.26224" lon="6.01509">
        <ele>344.4</ele>
        <time>2021-04-25T07:11:28Z</time>
      </trkpt>
      <trkpt lat="47.26227" lon="6.01511">
        <ele>344.6</ele>
        <time>2021-04-25T07:11:29Z</time>
      </trkpt>
      <trkpt lat="47.26229" lon="6.01513">
        <ele>344.6</ele>
        <time>2021-04-25T07:11:30Z</time>
      </trkpt>
      <trkpt lat="47.26232" lon="6.01514">
        <ele>344.8</ele>
        <time>2021-04-25T07:11:31Z</time>
      </trkpt>
      <trkpt lat="47.26234" lon="6.01516">
        <ele>344.8</ele>
        <time>2021-04-25T07:11:32Z</time>
      </trkpt>
      <trkpt lat="47.26234" lon="6.01516">
        <ele>344.8</ele>
        <time>2021-04-25T07:11:33Z</time>
      </trkpt>
      <trkpt lat="47.2624" lon="6.01519">
        <ele>344.8</ele>
        <time>2021-04-25T07:11:34Z</time>
      </trkpt>
      <trkpt lat="47.26242" lon="6.01521">
        <ele>345</ele>
        <time>2021-04-25T07:11:35Z</time>
      </trkpt>
      <trkpt lat="47.26245" lon="6.01522">
        <ele>345</ele>
        <time>2021-04-25T07:11:36Z</time>
      </trkpt>
      <trkpt lat="47.26247" lon="6.01523">
        <ele>345.2</ele>
        <time>2021-04-25T07:11:37Z</time>
      </trkpt>
      <trkpt lat="47.2625" lon="6.01525">
        <ele>345.4</ele>
        <time>2021-04-25T07:11:38Z</time>
      </trkpt>
      <trkpt lat="47.26257" lon="6.0153">
        <ele>345.6</ele>
        <time>2021-04-25T07:11:41Z</time>
      </trkpt>
      <trkpt lat="47.26259" lon="6.01531">
        <ele>345.6</ele>
        <time>2021-04-25T07:11:42Z</time>
      </trkpt>
      <trkpt lat="47.26262" lon="6.01533">
        <ele>345.6</ele>
        <time>2021-04-25T07:11:43Z</time>
      </trkpt>
      <trkpt lat="47.26267" lon="6.01536">
        <ele>346</ele>
        <time>2021-04-25T07:11:45Z</time>
      </trkpt>
      <trkpt lat="47.26269" lon="6.01537">
        <ele>346.2</ele>
        <time>2021-04-25T07:11:46Z</time>
      </trkpt>
      <trkpt lat="47.26274" lon="6.0154">
        <ele>346.6</ele>
        <time>2021-04-25T07:11:48Z</time>
      </trkpt>
      <trkpt lat="47.26279" lon="6.01543">
        <ele>346.6</ele>
        <time>2021-04-25T07:11:50Z</time>
      </trkpt>
      <trkpt lat="47.26282" lon="6.01544">
        <ele>346.8</ele>
        <time>2021-04-25T07:11:51Z</time>
      </trkpt>
      <trkpt lat="47.26285" lon="6.01546">
        <ele>346.8</ele>
        <time>2021-04-25T07:11:52Z</time>
      </trkpt>
      <trkpt lat="47.26287" lon="6.01547">
        <ele>347</ele>
        <time>2021-04-25T07:11:53Z</time>
      </trkpt>
      <trkpt lat="47.26289" lon="6.01548">
        <ele>347.2</ele>
        <time>2021-04-25T07:11:54Z</time>
      </trkpt>
      <trkpt lat="47.26291" lon="6.0155">
        <ele>347.4</ele>
        <time>2021-04-25T07:11:55Z</time>
      </trkpt>
      <trkpt lat="47.26294" lon="6.01552">
        <ele>347.4</ele>
        <time>2021-04-25T07:11:56Z</time>
      </trkpt>
      <trkpt lat="47.26296" lon="6.01554">
        <ele>347.6</ele>
        <time>2021-04-25T07:11:57Z</time>
      </trkpt>
      <trkpt lat="47.26298" lon="6.01555">
        <ele>347.6</ele>
        <time>2021-04-25T07:11:58Z</time>
      </trkpt>
      <trkpt lat="47.263" lon="6.01557">
        <ele>347.6</ele>
        <time>2021-04-25T07:11:59Z</time>
      </trkpt>
      <trkpt lat="47.26302" lon="6.01559">
        <ele>347.8</ele>
        <time>2021-04-25T07:12:00Z</time>
      </trkpt>
      <trkpt lat="47.26304" lon="6.01561">
        <ele>347.8</ele>
        <time>2021-04-25T07:12:01Z</time>
      </trkpt>
      <trkpt lat="47.26306" lon="6.01563">
        <ele>348</ele>
        <time>2021-04-25T07:12:02Z</time>
      </trkpt>
      <trkpt lat="47.26308" lon="6.01565">
        <ele>348</ele>
        <time>2021-04-25T07:12:03Z</time>
      </trkpt>
      <trkpt lat="47.26311" lon="6.01567">
        <ele>348</ele>
        <time>2021-04-25T07:12:04Z</time>
      </trkpt>
      <trkpt lat="47.26313" lon="6.0157">
        <ele>348.2</ele>
        <time>2021-04-25T07:12:05Z</time>
      </trkpt>
      <trkpt lat="47.26315" lon="6.01571">
        <ele>348.2</ele>
        <time>2021-04-25T07:12:06Z</time>
      </trkpt>
      <trkpt lat="47.26318" lon="6.01574">
        <ele>348.2</ele>
        <time>2021-04-25T07:12:07Z</time>
      </trkpt>
      <trkpt lat="47.2632" lon="6.01577">
        <ele>348.2</ele>
        <time>2021-04-25T07:12:08Z</time>
      </trkpt>
      <trkpt lat="47.26322" lon="6.01579">
        <ele>348.4</ele>
        <time>2021-04-25T07:12:09Z</time>
      </trkpt>
      <trkpt lat="47.26324" lon="6.01582">
        <ele>348.4</ele>
        <time>2021-04-25T07:12:10Z</time>
      </trkpt>
      <trkpt lat="47.26332" lon="6.01594">
        <ele>348.8</ele>
        <time>2021-04-25T07:12:15Z</time>
      </trkpt>
      <trkpt lat="47.26336" lon="6.016">
        <ele>349</ele>
        <time>2021-04-25T07:12:17Z</time>
      </trkpt>
      <trkpt lat="47.26353" lon="6.01623">
        <ele>349.8</ele>
        <time>2021-04-25T07:12:26Z</time>
      </trkpt>
      <trkpt lat="47.26354" lon="6.01625">
        <ele>349.8</ele>
        <time>2021-04-25T07:12:27Z</time>
      </trkpt>
      <trkpt lat="47.26356" lon="6.01628">
        <ele>350</ele>
        <time>2021-04-25T07:12:28Z</time>
      </trkpt>
      <trkpt lat="47.26358" lon="6.0163">
        <ele>350</ele>
        <time>2021-04-25T07:12:29Z</time>
      </trkpt>
      <trkpt lat="47.2637" lon="6.01646">
        <ele>351.2</ele>
        <time>2021-04-25T07:12:35Z</time>
      </trkpt>
      <trkpt lat="47.26371" lon="6.01649">
        <ele>351.6</ele>
        <time>2021-04-25T07:12:36Z</time>
      </trkpt>
      <trkpt lat="47.26375" lon="6.01654">
        <ele>351.8</ele>
        <time>2021-04-25T07:12:38Z</time>
      </trkpt>
      <trkpt lat="47.26376" lon="6.01657">
        <ele>351.8</ele>
        <time>2021-04-25T07:12:39Z</time>
      </trkpt>
      <trkpt lat="47.26378" lon="6.01659">
        <ele>351.8</ele>
        <time>2021-04-25T07:12:40Z</time>
      </trkpt>
      <trkpt lat="47.2638" lon="6.01662">
        <ele>352</ele>
        <time>2021-04-25T07:12:41Z</time>
      </trkpt>
      <trkpt lat="47.26381" lon="6.01665">
        <ele>352</ele>
        <time>2021-04-25T07:12:42Z</time>
      </trkpt>
      <trkpt lat="47.26383" lon="6.01667">
        <ele>352.2</ele>
        <time>2021-04-25T07:12:43Z</time>
      </trkpt>
      <trkpt lat="47.26385" lon="6.0167">
        <ele>352.2</ele>
        <time>2021-04-25T07:12:44Z</time>
      </trkpt>
      <trkpt lat="47.26387" lon="6.01672">
        <ele>352.4</ele>
        <time>2021-04-25T07:12:45Z</time>
      </trkpt>
      <trkpt lat="47.26388" lon="6.01675">
        <ele>352.4</ele>
        <time>2021-04-25T07:12:46Z</time>
      </trkpt>
      <trkpt lat="47.2639" lon="6.01677">
        <ele>352.6</ele>
        <time>2021-04-25T07:12:47Z</time>
      </trkpt>
      <trkpt lat="47.26392" lon="6.0168">
        <ele>352.6</ele>
        <time>2021-04-25T07:12:48Z</time>
      </trkpt>
      <trkpt lat="47.26394" lon="6.01682">
        <ele>352.8</ele>
        <time>2021-04-25T07:12:49Z</time>
      </trkpt>
      <trkpt lat="47.26395" lon="6.01685">
        <ele>352.8</ele>
        <time>2021-04-25T07:12:50Z</time>
      </trkpt>
      <trkpt lat="47.26397" lon="6.01687">
        <ele>353</ele>
        <time>2021-04-25T07:12:51Z</time>
      </trkpt>
      <trkpt lat="47.26399" lon="6.0169">
        <ele>353.2</ele>
        <time>2021-04-25T07:12:52Z</time>
      </trkpt>
      <trkpt lat="47.264" lon="6.01692">
        <ele>353.4</ele>
        <time>2021-04-25T07:12:53Z</time>
      </trkpt>
      <trkpt lat="47.26402" lon="6.01695">
        <ele>353.4</ele>
        <time>2021-04-25T07:12:54Z</time>
      </trkpt>
      <trkpt lat="47.26404" lon="6.01697">
        <ele>353.6</ele>
        <time>2021-04-25T07:12:55Z</time>
      </trkpt>
      <trkpt lat="47.26406" lon="6.01699">
        <ele>353.8</ele>
        <time>2021-04-25T07:12:56Z</time>
      </trkpt>
      <trkpt lat="47.26408" lon="6.01701">
        <ele>353.8</ele>
        <time>2021-04-25T07:12:57Z</time>
      </trkpt>
      <trkpt lat="47.26411" lon="6.01704">
        <ele>354.2</ele>
        <time>2021-04-25T07:12:58Z</time>
      </trkpt>
      <trkpt lat="47.26412" lon="6.01706">
        <ele>354.2</ele>
        <time>2021-04-25T07:12:59Z</time>
      </trkpt>
      <trkpt lat="47.26414" lon="6.01708">
        <ele>354.6</ele>
        <time>2021-04-25T07:13:00Z</time>
      </trkpt>
      <trkpt lat="47.26416" lon="6.01709">
        <ele>354.6</ele>
        <time>2021-04-25T07:13:01Z</time>
      </trkpt>
      <trkpt lat="47.26418" lon="6.01711">
        <ele>354.8</ele>
        <time>2021-04-25T07:13:02Z</time>
      </trkpt>
      <trkpt lat="47.2642" lon="6.01714">
        <ele>354.8</ele>
        <time>2021-04-25T07:13:03Z</time>
      </trkpt>
      <trkpt lat="47.26421" lon="6.01717">
        <ele>354.8</ele>
        <time>2021-04-25T07:13:04Z</time>
      </trkpt>
      <trkpt lat="47.26423" lon="6.01719">
        <ele>355</ele>
        <time>2021-04-25T07:13:05Z</time>
      </trkpt>
      <trkpt lat="47.26424" lon="6.01722">
        <ele>355</ele>
        <time>2021-04-25T07:13:06Z</time>
      </trkpt>
      <trkpt lat="47.26426" lon="6.01725">
        <ele>355.2</ele>
        <time>2021-04-25T07:13:07Z</time>
      </trkpt>
      <trkpt lat="47.26427" lon="6.01727">
        <ele>355.4</ele>
        <time>2021-04-25T07:13:08Z</time>
      </trkpt>
      <trkpt lat="47.26429" lon="6.0173">
        <ele>355.4</ele>
        <time>2021-04-25T07:13:09Z</time>
      </trkpt>
      <trkpt lat="47.2643" lon="6.01732">
        <ele>355.6</ele>
        <time>2021-04-25T07:13:10Z</time>
      </trkpt>
      <trkpt lat="47.26432" lon="6.01735">
        <ele>355.6</ele>
        <time>2021-04-25T07:13:11Z</time>
      </trkpt>
      <trkpt lat="47.26434" lon="6.01738">
        <ele>355.8</ele>
        <time>2021-04-25T07:13:12Z</time>
      </trkpt>
      <trkpt lat="47.26435" lon="6.0174">
        <ele>356</ele>
        <time>2021-04-25T07:13:13Z</time>
      </trkpt>
      <trkpt lat="47.26437" lon="6.01743">
        <ele>356</ele>
        <time>2021-04-25T07:13:14Z</time>
      </trkpt>
      <trkpt lat="47.26438" lon="6.01746">
        <ele>356.2</ele>
        <time>2021-04-25T07:13:15Z</time>
      </trkpt>
      <trkpt lat="47.26439" lon="6.01749">
        <ele>356.4</ele>
        <time>2021-04-25T07:13:16Z</time>
      </trkpt>
      <trkpt lat="47.26441" lon="6.01751">
        <ele>356.6</ele>
        <time>2021-04-25T07:13:17Z</time>
      </trkpt>
      <trkpt lat="47.26443" lon="6.01754">
        <ele>356.6</ele>
        <time>2021-04-25T07:13:18Z</time>
      </trkpt>
      <trkpt lat="47.26444" lon="6.01757">
        <ele>356.6</ele>
        <time>2021-04-25T07:13:19Z</time>
      </trkpt>
      <trkpt lat="47.26446" lon="6.0176">
        <ele>356.8</ele>
        <time>2021-04-25T07:13:20Z</time>
      </trkpt>
      <trkpt lat="47.26447" lon="6.01762">
        <ele>356.8</ele>
        <time>2021-04-25T07:13:21Z</time>
      </trkpt>
      <trkpt lat="47.26449" lon="6.01766">
        <ele>357</ele>
        <time>2021-04-25T07:13:22Z</time>
      </trkpt>
      <trkpt lat="47.2645" lon="6.01768">
        <ele>357</ele>
        <time>2021-04-25T07:13:23Z</time>
      </trkpt>
      <trkpt lat="47.26452" lon="6.0177">
        <ele>357</ele>
        <time>2021-04-25T07:13:24Z</time>
      </trkpt>
      <trkpt lat="47.26454" lon="6.01773">
        <ele>357.2</ele>
        <time>2021-04-25T07:13:25Z</time>
      </trkpt>
      <trkpt lat="47.26455" lon="6.01776">
        <ele>357.2</ele>
        <time>2021-04-25T07:13:26Z</time>
      </trkpt>
      <trkpt lat="47.26457" lon="6.01779">
        <ele>357.4</ele>
        <time>2021-04-25T07:13:27Z</time>
      </trkpt>
      <trkpt lat="47.26459" lon="6.01782">
        <ele>357.4</ele>
        <time>2021-04-25T07:13:28Z</time>
      </trkpt>
      <trkpt lat="47.2646" lon="6.01785">
        <ele>357.6</ele>
        <time>2021-04-25T07:13:29Z</time>
      </trkpt>
      <trkpt lat="47.26462" lon="6.01787">
        <ele>357.6</ele>
        <time>2021-04-25T07:13:30Z</time>
      </trkpt>
      <trkpt lat="47.26464" lon="6.0179">
        <ele>357.8</ele>
        <time>2021-04-25T07:13:31Z</time>
      </trkpt>
      <trkpt lat="47.26466" lon="6.01793">
        <ele>357.8</ele>
        <time>2021-04-25T07:13:32Z</time>
      </trkpt>
      <trkpt lat="47.26467" lon="6.01796">
        <ele>358</ele>
        <time>2021-04-25T07:13:33Z</time>
      </trkpt>
      <trkpt lat="47.26469" lon="6.01799">
        <ele>358</ele>
        <time>2021-04-25T07:13:34Z</time>
      </trkpt>
      <trkpt lat="47.2647" lon="6.01801">
        <ele>358</ele>
        <time>2021-04-25T07:13:35Z</time>
      </trkpt>
      <trkpt lat="47.26472" lon="6.01805">
        <ele>358.2</ele>
        <time>2021-04-25T07:13:36Z</time>
      </trkpt>
      <trkpt lat="47.26474" lon="6.01807">
        <ele>358.2</ele>
        <time>2021-04-25T07:13:37Z</time>
      </trkpt>
      <trkpt lat="47.26476" lon="6.0181">
        <ele>358.2</ele>
        <time>2021-04-25T07:13:38Z</time>
      </trkpt>
      <trkpt lat="47.26487" lon="6.01826">
        <ele>358.8</ele>
        <time>2021-04-25T07:13:44Z</time>
      </trkpt>
      <trkpt lat="47.26489" lon="6.01829">
        <ele>358.8</ele>
        <time>2021-04-25T07:13:45Z</time>
      </trkpt>
      <trkpt lat="47.2649" lon="6.01832">
        <ele>358.8</ele>
        <time>2021-04-25T07:13:46Z</time>
      </trkpt>
      <trkpt lat="47.26492" lon="6.01834">
        <ele>359</ele>
        <time>2021-04-25T07:13:47Z</time>
      </trkpt>
      <trkpt lat="47.26494" lon="6.01836">
        <ele>359</ele>
        <time>2021-04-25T07:13:48Z</time>
      </trkpt>
      <trkpt lat="47.26496" lon="6.01838">
        <ele>359</ele>
        <time>2021-04-25T07:13:49Z</time>
      </trkpt>
      <trkpt lat="47.26497" lon="6.01841">
        <ele>359</ele>
        <time>2021-04-25T07:13:50Z</time>
      </trkpt>
      <trkpt lat="47.26499" lon="6.01844">
        <ele>359.2</ele>
        <time>2021-04-25T07:13:51Z</time>
      </trkpt>
      <trkpt lat="47.26518" lon="6.01877">
        <ele>359.6</ele>
        <time>2021-04-25T07:14:02Z</time>
      </trkpt>
      <trkpt lat="47.26532" lon="6.01899">
        <ele>360</ele>
        <time>2021-04-25T07:14:10Z</time>
      </trkpt>
      <trkpt lat="47.26533" lon="6.01901">
        <ele>360</ele>
        <time>2021-04-25T07:14:11Z</time>
      </trkpt>
      <trkpt lat="47.26535" lon="6.01904">
        <ele>360</ele>
        <time>2021-04-25T07:14:12Z</time>
      </trkpt>
      <trkpt lat="47.26537" lon="6.01907">
        <ele>360</ele>
        <time>2021-04-25T07:14:13Z</time>
      </trkpt>
      <trkpt lat="47.26539" lon="6.01909">
        <ele>360</ele>
        <time>2021-04-25T07:14:14Z</time>
      </trkpt>
      <trkpt lat="47.2654" lon="6.01912">
        <ele>360</ele>
        <time>2021-04-25T07:14:15Z</time>
      </trkpt>
      <trkpt lat="47.26542" lon="6.01915">
        <ele>360</ele>
        <time>2021-04-25T07:14:16Z</time>
      </trkpt>
      <trkpt lat="47.26544" lon="6.01917">
        <ele>360</ele>
        <time>2021-04-25T07:14:17Z</time>
      </trkpt>
      <trkpt lat="47.26545" lon="6.0192">
        <ele>360.2</ele>
        <time>2021-04-25T07:14:18Z</time>
      </trkpt>
      <trkpt lat="47.26551" lon="6.01926">
        <ele>360.4</ele>
        <time>2021-04-25T07:14:21Z</time>
      </trkpt>
      <trkpt lat="47.26553" lon="6.01926">
        <ele>360.4</ele>
        <time>2021-04-25T07:14:22Z</time>
      </trkpt>
      <trkpt lat="47.26554" lon="6.01926">
        <ele>360.4</ele>
        <time>2021-04-25T07:14:23Z</time>
      </trkpt>
      <trkpt lat="47.26556" lon="6.01924">
        <ele>360.6</ele>
        <time>2021-04-25T07:14:24Z</time>
      </trkpt>
      <trkpt lat="47.26563" lon="6.0191">
        <ele>361</ele>
        <time>2021-04-25T07:14:30Z</time>
      </trkpt>
      <trkpt lat="47.26565" lon="6.01908">
        <ele>361.2</ele>
        <time>2021-04-25T07:14:31Z</time>
      </trkpt>
      <trkpt lat="47.26572" lon="6.01895">
        <ele>362.2</ele>
        <time>2021-04-25T07:14:36Z</time>
      </trkpt>
      <trkpt lat="47.26576" lon="6.01888">
        <ele>362.6</ele>
        <time>2021-04-25T07:14:39Z</time>
      </trkpt>
      <trkpt lat="47.26579" lon="6.01887">
        <ele>362.8</ele>
        <time>2021-04-25T07:14:41Z</time>
      </trkpt>
      <trkpt lat="47.2658" lon="6.01887">
        <ele>363</ele>
        <time>2021-04-25T07:14:42Z</time>
      </trkpt>
      <trkpt lat="47.26581" lon="6.01888">
        <ele>363</ele>
        <time>2021-04-25T07:14:43Z</time>
      </trkpt>
      <trkpt lat="47.26582" lon="6.01888">
        <ele>363</ele>
        <time>2021-04-25T07:14:44Z</time>
      </trkpt>
      <trkpt lat="47.26582" lon="6.01888">
        <ele>363</ele>
        <time>2021-04-25T07:14:50Z</time>
      </trkpt>
      <trkpt lat="47.26581" lon="6.01887">
        <ele>363</ele>
        <time>2021-04-25T07:14:51Z</time>
      </trkpt>
      <trkpt lat="47.26581" lon="6.01886">
        <ele>363</ele>
        <time>2021-04-25T07:14:55Z</time>
      </trkpt>
      <trkpt lat="47.26581" lon="6.01886">
        <ele>362.8</ele>
        <time>2021-04-25T07:15:40Z</time>
      </trkpt>
      <trkpt lat="47.26581" lon="6.01886">
        <ele>363.2</ele>
        <time>2021-04-25T07:16:19Z</time>
      </trkpt>
      <trkpt lat="47.26581" lon="6.01886">
        <ele>363.2</ele>
        <time>2021-04-25T07:16:20Z</time>
      </trkpt>
      <trkpt lat="47.26581" lon="6.01886">
        <ele>363.2</ele>
        <time>2021-04-25T07:17:01Z</time>
      </trkpt>
      <trkpt lat="47.26581" lon="6.01886">
        <ele>363.4</ele>
        <time>2021-04-25T07:17:43Z</time>
      </trkpt>
      <trkpt lat="47.26581" lon="6.01886">
        <ele>363</ele>
        <time>2021-04-25T07:18:39Z</time>
      </trkpt>
      <trkpt lat="47.26581" lon="6.01886">
        <ele>363.4</ele>
        <time>2021-04-25T07:19:20Z</time>
      </trkpt>
      <trkpt lat="47.26581" lon="6.01886">
        <ele>363.6</ele>
        <time>2021-04-25T07:20:03Z</time>
      </trkpt>
      <trkpt lat="47.26581" lon="6.01886">
        <ele>363.6</ele>
        <time>2021-04-25T07:21:04Z</time>
      </trkpt>
      <trkpt lat="47.26581" lon="6.01886">
        <ele>363.4</ele>
        <time>2021-04-25T07:22:03Z</time>
      </trkpt>
      <trkpt lat="47.26581" lon="6.01886">
        <ele>364</ele>
        <time>2021-04-25T07:23:20Z</time>
      </trkpt>
      <trkpt lat="47.26581" lon="6.01886">
        <ele>364.6</ele>
        <time>2021-04-25T07:24:42Z</time>
      </trkpt>
      <trkpt lat="47.26581" lon="6.01886">
        <ele>364.2</ele>
        <time>2021-04-25T07:26:02Z</time>
      </trkpt>
      <trkpt lat="47.26581" lon="6.01886">
        <ele>362.2</ele>
        <time>2021-04-25T07:27:05Z</time>
      </trkpt>
      <trkpt lat="47.26581" lon="6.01886">
        <ele>363.4</ele>
        <time>2021-04-25T07:27:51Z</time>
      </trkpt>
      <trkpt lat="47.26577" lon="6.01888">
        <ele>363.8</ele>
        <time>2021-04-25T07:29:05Z</time>
      </trkpt>
      <trkpt lat="47.26576" lon="6.0189">
        <ele>363.6</ele>
        <time>2021-04-25T07:29:06Z</time>
      </trkpt>
      <trkpt lat="47.26574" lon="6.01892">
        <ele>363.6</ele>
        <time>2021-04-25T07:29:07Z</time>
      </trkpt>
      <trkpt lat="47.26573" lon="6.01894">
        <ele>363.6</ele>
        <time>2021-04-25T07:29:08Z</time>
      </trkpt>
      <trkpt lat="47.26572" lon="6.01897">
        <ele>363.6</ele>
        <time>2021-04-25T07:29:09Z</time>
      </trkpt>
      <trkpt lat="47.26562" lon="6.01912">
        <ele>363.6</ele>
        <time>2021-04-25T07:29:14Z</time>
      </trkpt>
      <trkpt lat="47.26558" lon="6.01918">
        <ele>363.4</ele>
        <time>2021-04-25T07:29:16Z</time>
      </trkpt>
      <trkpt lat="47.26557" lon="6.01919">
        <ele>363.4</ele>
        <time>2021-04-25T07:29:17Z</time>
      </trkpt>
      <trkpt lat="47.26555" lon="6.01919">
        <ele>363</ele>
        <time>2021-04-25T07:29:18Z</time>
      </trkpt>
      <trkpt lat="47.26554" lon="6.01918">
        <ele>362.8</ele>
        <time>2021-04-25T07:29:19Z</time>
      </trkpt>
      <trkpt lat="47.26553" lon="6.01916">
        <ele>362.6</ele>
        <time>2021-04-25T07:29:20Z</time>
      </trkpt>
      <trkpt lat="47.26549" lon="6.01911">
        <ele>362.2</ele>
        <time>2021-04-25T07:29:22Z</time>
      </trkpt>
      <trkpt lat="47.26547" lon="6.01908">
        <ele>362</ele>
        <time>2021-04-25T07:29:23Z</time>
      </trkpt>
      <trkpt lat="47.26543" lon="6.01902">
        <ele>361.8</ele>
        <time>2021-04-25T07:29:25Z</time>
      </trkpt>
      <trkpt lat="47.26536" lon="6.01893">
        <ele>361.6</ele>
        <time>2021-04-25T07:29:28Z</time>
      </trkpt>
      <trkpt lat="47.26534" lon="6.01889">
        <ele>361.6</ele>
        <time>2021-04-25T07:29:29Z</time>
      </trkpt>
      <trkpt lat="47.26531" lon="6.01886">
        <ele>361.4</ele>
        <time>2021-04-25T07:29:30Z</time>
      </trkpt>
      <trkpt lat="47.26515" lon="6.0186">
        <ele>361</ele>
        <time>2021-04-25T07:29:37Z</time>
      </trkpt>
      <trkpt lat="47.26494" lon="6.01826">
        <ele>360.4</ele>
        <time>2021-04-25T07:29:45Z</time>
      </trkpt>
      <trkpt lat="47.26491" lon="6.01822">
        <ele>360.4</ele>
        <time>2021-04-25T07:29:46Z</time>
      </trkpt>
      <trkpt lat="47.26457" lon="6.01768">
        <ele>359.6</ele>
        <time>2021-04-25T07:29:57Z</time>
      </trkpt>
      <trkpt lat="47.26452" lon="6.01757">
        <ele>359.6</ele>
        <time>2021-04-25T07:29:59Z</time>
      </trkpt>
      <trkpt lat="47.26449" lon="6.0175">
        <ele>359.4</ele>
        <time>2021-04-25T07:30:00Z</time>
      </trkpt>
      <trkpt lat="47.26442" lon="6.01731">
        <ele>359.2</ele>
        <time>2021-04-25T07:30:03Z</time>
      </trkpt>
      <trkpt lat="47.2644" lon="6.01723">
        <ele>359</ele>
        <time>2021-04-25T07:30:04Z</time>
      </trkpt>
      <trkpt lat="47.26434" lon="6.01708">
        <ele>358.6</ele>
        <time>2021-04-25T07:30:06Z</time>
      </trkpt>
      <trkpt lat="47.26429" lon="6.01704">
        <ele>358.4</ele>
        <time>2021-04-25T07:30:07Z</time>
      </trkpt>
      <trkpt lat="47.26423" lon="6.017">
        <ele>358.2</ele>
        <time>2021-04-25T07:30:08Z</time>
      </trkpt>
      <trkpt lat="47.26417" lon="6.01697">
        <ele>358</ele>
        <time>2021-04-25T07:30:09Z</time>
      </trkpt>
      <trkpt lat="47.26411" lon="6.01692">
        <ele>357.8</ele>
        <time>2021-04-25T07:30:10Z</time>
      </trkpt>
      <trkpt lat="47.26394" lon="6.01674">
        <ele>357</ele>
        <time>2021-04-25T07:30:13Z</time>
      </trkpt>
      <trkpt lat="47.26383" lon="6.01657">
        <ele>356.4</ele>
        <time>2021-04-25T07:30:15Z</time>
      </trkpt>
      <trkpt lat="47.26371" lon="6.0164">
        <ele>355.8</ele>
        <time>2021-04-25T07:30:17Z</time>
      </trkpt>
      <trkpt lat="47.26351" lon="6.01611">
        <ele>354.6</ele>
        <time>2021-04-25T07:30:20Z</time>
      </trkpt>
      <trkpt lat="47.26346" lon="6.01604">
        <ele>353.8</ele>
        <time>2021-04-25T07:30:22Z</time>
      </trkpt>
      <trkpt lat="47.26333" lon="6.01585">
        <ele>353.2</ele>
        <time>2021-04-25T07:30:23Z</time>
      </trkpt>
      <trkpt lat="47.26305" lon="6.01552">
        <ele>351.4</ele>
        <time>2021-04-25T07:30:27Z</time>
      </trkpt>
      <trkpt lat="47.2627" lon="6.01528">
        <ele>350</ele>
        <time>2021-04-25T07:30:31Z</time>
      </trkpt>
      <trkpt lat="47.26243" lon="6.01512">
        <ele>349</ele>
        <time>2021-04-25T07:30:34Z</time>
      </trkpt>
      <trkpt lat="47.26226" lon="6.015">
        <ele>348.2</ele>
        <time>2021-04-25T07:30:36Z</time>
      </trkpt>
      <trkpt lat="47.26217" lon="6.01495">
        <ele>347.8</ele>
        <time>2021-04-25T07:30:37Z</time>
      </trkpt>
      <trkpt lat="47.26191" lon="6.01477">
        <ele>346.8</ele>
        <time>2021-04-25T07:30:40Z</time>
      </trkpt>
      <trkpt lat="47.26183" lon="6.01472">
        <ele>346</ele>
        <time>2021-04-25T07:30:41Z</time>
      </trkpt>
      <trkpt lat="47.26176" lon="6.01467">
        <ele>345.8</ele>
        <time>2021-04-25T07:30:42Z</time>
      </trkpt>
      <trkpt lat="47.26168" lon="6.01462">
        <ele>345.4</ele>
        <time>2021-04-25T07:30:43Z</time>
      </trkpt>
      <trkpt lat="47.26162" lon="6.01458">
        <ele>345.2</ele>
        <time>2021-04-25T07:30:44Z</time>
      </trkpt>
      <trkpt lat="47.26156" lon="6.01454">
        <ele>345</ele>
        <time>2021-04-25T07:30:45Z</time>
      </trkpt>
      <trkpt lat="47.26151" lon="6.01449">
        <ele>344.8</ele>
        <time>2021-04-25T07:30:46Z</time>
      </trkpt>
      <trkpt lat="47.26147" lon="6.01444">
        <ele>344.4</ele>
        <time>2021-04-25T07:30:47Z</time>
      </trkpt>
      <trkpt lat="47.26143" lon="6.01437">
        <ele>344</ele>
        <time>2021-04-25T07:30:48Z</time>
      </trkpt>
      <trkpt lat="47.2614" lon="6.01429">
        <ele>343.8</ele>
        <time>2021-04-25T07:30:49Z</time>
      </trkpt>
      <trkpt lat="47.26135" lon="6.01424">
        <ele>343.6</ele>
        <time>2021-04-25T07:30:50Z</time>
      </trkpt>
      <trkpt lat="47.2613" lon="6.0142">
        <ele>343.6</ele>
        <time>2021-04-25T07:30:51Z</time>
      </trkpt>
      <trkpt lat="47.26124" lon="6.01418">
        <ele>343.2</ele>
        <time>2021-04-25T07:30:52Z</time>
      </trkpt>
      <trkpt lat="47.2612" lon="6.01415">
        <ele>343</ele>
        <time>2021-04-25T07:30:53Z</time>
      </trkpt>
      <trkpt lat="47.26113" lon="6.01409">
        <ele>342.6</ele>
        <time>2021-04-25T07:30:54Z</time>
      </trkpt>
      <trkpt lat="47.26109" lon="6.01401">
        <ele>342.4</ele>
        <time>2021-04-25T07:30:55Z</time>
      </trkpt>
      <trkpt lat="47.26107" lon="6.01393">
        <ele>342.2</ele>
        <time>2021-04-25T07:30:56Z</time>
      </trkpt>
      <trkpt lat="47.26104" lon="6.01381">
        <ele>341.6</ele>
        <time>2021-04-25T07:30:57Z</time>
      </trkpt>
      <trkpt lat="47.26102" lon="6.01369">
        <ele>341.4</ele>
        <time>2021-04-25T07:30:58Z</time>
      </trkpt>
      <trkpt lat="47.26101" lon="6.01357">
        <ele>340.8</ele>
        <time>2021-04-25T07:30:59Z</time>
      </trkpt>
      <trkpt lat="47.26099" lon="6.01344">
        <ele>340.4</ele>
        <time>2021-04-25T07:31:00Z</time>
      </trkpt>
      <trkpt lat="47.26094" lon="6.01306">
        <ele>339</ele>
        <time>2021-04-25T07:31:03Z</time>
      </trkpt>
      <trkpt lat="47.2609" lon="6.01269">
        <ele>337.4</ele>
        <time>2021-04-25T07:31:06Z</time>
      </trkpt>
      <trkpt lat="47.26089" lon="6.01256">
        <ele>337.2</ele>
        <time>2021-04-25T07:31:07Z</time>
      </trkpt>
      <trkpt lat="47.26088" lon="6.01244">
        <ele>336.4</ele>
        <time>2021-04-25T07:31:08Z</time>
      </trkpt>
      <trkpt lat="47.26087" lon="6.01232">
        <ele>336</ele>
        <time>2021-04-25T07:31:09Z</time>
      </trkpt>
      <trkpt lat="47.26086" lon="6.01222">
        <ele>335.4</ele>
        <time>2021-04-25T07:31:10Z</time>
      </trkpt>
      <trkpt lat="47.26085" lon="6.0121">
        <ele>335.4</ele>
        <time>2021-04-25T07:31:11Z</time>
      </trkpt>
      <trkpt lat="47.26084" lon="6.01203">
        <ele>335.2</ele>
        <time>2021-04-25T07:31:12Z</time>
      </trkpt>
      <trkpt lat="47.26083" lon="6.01193">
        <ele>335.2</ele>
        <time>2021-04-25T07:31:13Z</time>
      </trkpt>
      <trkpt lat="47.26081" lon="6.01186">
        <ele>335.2</ele>
        <time>2021-04-25T07:31:14Z</time>
      </trkpt>
      <trkpt lat="47.26079" lon="6.0118">
        <ele>335.2</ele>
        <time>2021-04-25T07:31:15Z</time>
      </trkpt>
      <trkpt lat="47.26077" lon="6.01175">
        <ele>335.2</ele>
        <time>2021-04-25T07:31:16Z</time>
      </trkpt>
      <trkpt lat="47.26075" lon="6.0117">
        <ele>335.6</ele>
        <time>2021-04-25T07:31:17Z</time>
      </trkpt>
      <trkpt lat="47.26074" lon="6.01165">
        <ele>335.8</ele>
        <time>2021-04-25T07:31:18Z</time>
      </trkpt>
      <trkpt lat="47.26074" lon="6.0116">
        <ele>336</ele>
        <time>2021-04-25T07:31:19Z</time>
      </trkpt>
      <trkpt lat="47.26075" lon="6.01154">
        <ele>336.2</ele>
        <time>2021-04-25T07:31:20Z</time>
      </trkpt>
      <trkpt lat="47.26076" lon="6.0115">
        <ele>336.2</ele>
        <time>2021-04-25T07:31:21Z</time>
      </trkpt>
      <trkpt lat="47.26078" lon="6.01147">
        <ele>336.2</ele>
        <time>2021-04-25T07:31:22Z</time>
      </trkpt>
      <trkpt lat="47.26081" lon="6.01143">
        <ele>336.4</ele>
        <time>2021-04-25T07:31:23Z</time>
      </trkpt>
      <trkpt lat="47.26083" lon="6.01141">
        <ele>336.4</ele>
        <time>2021-04-25T07:31:24Z</time>
      </trkpt>
      <trkpt lat="47.26086" lon="6.01138">
        <ele>336.6</ele>
        <time>2021-04-25T07:31:25Z</time>
      </trkpt>
      <trkpt lat="47.26092" lon="6.01133">
        <ele>336.6</ele>
        <time>2021-04-25T07:31:27Z</time>
      </trkpt>
      <trkpt lat="47.26102" lon="6.0112">
        <ele>336.6</ele>
        <time>2021-04-25T07:31:30Z</time>
      </trkpt>
      <trkpt lat="47.2611" lon="6.01108">
        <ele>336.6</ele>
        <time>2021-04-25T07:31:32Z</time>
      </trkpt>
      <trkpt lat="47.2612" lon="6.01071">
        <ele>336.2</ele>
        <time>2021-04-25T07:31:36Z</time>
      </trkpt>
      <trkpt lat="47.26121" lon="6.01047">
        <ele>335.6</ele>
        <time>2021-04-25T07:31:38Z</time>
      </trkpt>
      <trkpt lat="47.2612" lon="6.01034">
        <ele>335.2</ele>
        <time>2021-04-25T07:31:39Z</time>
      </trkpt>
      <trkpt lat="47.26116" lon="6.01019">
        <ele>334.2</ele>
        <time>2021-04-25T07:31:40Z</time>
      </trkpt>
      <trkpt lat="47.26113" lon="6.0101">
        <ele>333.8</ele>
        <time>2021-04-25T07:31:41Z</time>
      </trkpt>
      <trkpt lat="47.26107" lon="6.01">
        <ele>333</ele>
        <time>2021-04-25T07:31:42Z</time>
      </trkpt>
      <trkpt lat="47.261" lon="6.00991">
        <ele>332.6</ele>
        <time>2021-04-25T07:31:43Z</time>
      </trkpt>
      <trkpt lat="47.26093" lon="6.00983">
        <ele>331.8</ele>
        <time>2021-04-25T07:31:44Z</time>
      </trkpt>
      <trkpt lat="47.26085" lon="6.00975">
        <ele>330.6</ele>
        <time>2021-04-25T07:31:45Z</time>
      </trkpt>
      <trkpt lat="47.26078" lon="6.00967">
        <ele>330.2</ele>
        <time>2021-04-25T07:31:46Z</time>
      </trkpt>
      <trkpt lat="47.26072" lon="6.0096">
        <ele>329.2</ele>
        <time>2021-04-25T07:31:47Z</time>
      </trkpt>
      <trkpt lat="47.26059" lon="6.00944">
        <ele>328.6</ele>
        <time>2021-04-25T07:31:49Z</time>
      </trkpt>
      <trkpt lat="47.26053" lon="6.00937">
        <ele>328.6</ele>
        <time>2021-04-25T07:31:50Z</time>
      </trkpt>
      <trkpt lat="47.26047" lon="6.0093">
        <ele>328.4</ele>
        <time>2021-04-25T07:31:51Z</time>
      </trkpt>
      <trkpt lat="47.26041" lon="6.00923">
        <ele>328.2</ele>
        <time>2021-04-25T07:31:52Z</time>
      </trkpt>
      <trkpt lat="47.26029" lon="6.00909">
        <ele>327.8</ele>
        <time>2021-04-25T07:31:54Z</time>
      </trkpt>
      <trkpt lat="47.26029" lon="6.00909">
        <ele>327.6</ele>
        <time>2021-04-25T07:31:55Z</time>
      </trkpt>
      <trkpt lat="47.26024" lon="6.00902">
        <ele>327.6</ele>
        <time>2021-04-25T07:31:56Z</time>
      </trkpt>
      <trkpt lat="47.26012" lon="6.00891">
        <ele>327.4</ele>
        <time>2021-04-25T07:31:57Z</time>
      </trkpt>
      <trkpt lat="47.26012" lon="6.00891">
        <ele>327.2</ele>
        <time>2021-04-25T07:31:58Z</time>
      </trkpt>
      <trkpt lat="47.26" lon="6.00885">
        <ele>327.2</ele>
        <time>2021-04-25T07:31:59Z</time>
      </trkpt>
      <trkpt lat="47.25996" lon="6.00882">
        <ele>327.2</ele>
        <time>2021-04-25T07:32:00Z</time>
      </trkpt>
      <trkpt lat="47.25993" lon="6.00879">
        <ele>327.2</ele>
        <time>2021-04-25T07:32:01Z</time>
      </trkpt>
      <trkpt lat="47.2599" lon="6.00874">
        <ele>327</ele>
        <time>2021-04-25T07:32:02Z</time>
      </trkpt>
      <trkpt lat="47.25988" lon="6.00869">
        <ele>327</ele>
        <time>2021-04-25T07:32:03Z</time>
      </trkpt>
      <trkpt lat="47.25985" lon="6.00863">
        <ele>327</ele>
        <time>2021-04-25T07:32:04Z</time>
      </trkpt>
      <trkpt lat="47.25983" lon="6.00857">
        <ele>327</ele>
        <time>2021-04-25T07:32:05Z</time>
      </trkpt>
      <trkpt lat="47.2598" lon="6.00853">
        <ele>327</ele>
        <time>2021-04-25T07:32:06Z</time>
      </trkpt>
      <trkpt lat="47.25976" lon="6.0085">
        <ele>327</ele>
        <time>2021-04-25T07:32:07Z</time>
      </trkpt>
      <trkpt lat="47.25976" lon="6.0085">
        <ele>327</ele>
        <time>2021-04-25T07:32:08Z</time>
      </trkpt>
      <trkpt lat="47.25967" lon="6.00846">
        <ele>327</ele>
        <time>2021-04-25T07:32:09Z</time>
      </trkpt>
      <trkpt lat="47.25963" lon="6.00846">
        <ele>327</ele>
        <time>2021-04-25T07:32:10Z</time>
      </trkpt>
      <trkpt lat="47.25959" lon="6.00844">
        <ele>327</ele>
        <time>2021-04-25T07:32:11Z</time>
      </trkpt>
      <trkpt lat="47.25955" lon="6.00843">
        <ele>327</ele>
        <time>2021-04-25T07:32:12Z</time>
      </trkpt>
      <trkpt lat="47.25952" lon="6.0084">
        <ele>327</ele>
        <time>2021-04-25T07:32:13Z</time>
      </trkpt>
      <trkpt lat="47.25949" lon="6.00838">
        <ele>327.2</ele>
        <time>2021-04-25T07:32:14Z</time>
      </trkpt>
      <trkpt lat="47.25947" lon="6.00836">
        <ele>327.4</ele>
        <time>2021-04-25T07:32:15Z</time>
      </trkpt>
      <trkpt lat="47.25947" lon="6.00836">
        <ele>327.6</ele>
        <time>2021-04-25T07:32:16Z</time>
      </trkpt>
      <trkpt lat="47.25941" lon="6.00831">
        <ele>328</ele>
        <time>2021-04-25T07:32:17Z</time>
      </trkpt>
      <trkpt lat="47.25939" lon="6.00829">
        <ele>328</ele>
        <time>2021-04-25T07:32:18Z</time>
      </trkpt>
      <trkpt lat="47.25937" lon="6.00827">
        <ele>328.4</ele>
        <time>2021-04-25T07:32:19Z</time>
      </trkpt>
      <trkpt lat="47.25935" lon="6.00825">
        <ele>328.4</ele>
        <time>2021-04-25T07:32:20Z</time>
      </trkpt>
      <trkpt lat="47.25932" lon="6.00823">
        <ele>329</ele>
        <time>2021-04-25T07:32:21Z</time>
      </trkpt>
      <trkpt lat="47.2593" lon="6.00821">
        <ele>329.2</ele>
        <time>2021-04-25T07:32:22Z</time>
      </trkpt>
      <trkpt lat="47.25928" lon="6.00819">
        <ele>329.4</ele>
        <time>2021-04-25T07:32:23Z</time>
      </trkpt>
      <trkpt lat="47.25926" lon="6.00817">
        <ele>329.6</ele>
        <time>2021-04-25T07:32:24Z</time>
      </trkpt>
      <trkpt lat="47.25924" lon="6.00815">
        <ele>329.8</ele>
        <time>2021-04-25T07:32:25Z</time>
      </trkpt>
      <trkpt lat="47.25922" lon="6.00812">
        <ele>330.2</ele>
        <time>2021-04-25T07:32:26Z</time>
      </trkpt>
      <trkpt lat="47.2592" lon="6.0081">
        <ele>330.4</ele>
        <time>2021-04-25T07:32:27Z</time>
      </trkpt>
      <trkpt lat="47.25918" lon="6.00808">
        <ele>330.6</ele>
        <time>2021-04-25T07:32:28Z</time>
      </trkpt>
      <trkpt lat="47.25916" lon="6.00805">
        <ele>330.8</ele>
        <time>2021-04-25T07:32:29Z</time>
      </trkpt>
      <trkpt lat="47.25914" lon="6.00803">
        <ele>331</ele>
        <time>2021-04-25T07:32:30Z</time>
      </trkpt>
      <trkpt lat="47.25912" lon="6.008">
        <ele>331.2</ele>
        <time>2021-04-25T07:32:31Z</time>
      </trkpt>
      <trkpt lat="47.25911" lon="6.00797">
        <ele>331.4</ele>
        <time>2021-04-25T07:32:32Z</time>
      </trkpt>
      <trkpt lat="47.25909" lon="6.00794">
        <ele>331.6</ele>
        <time>2021-04-25T07:32:33Z</time>
      </trkpt>
      <trkpt lat="47.25907" lon="6.00792">
        <ele>331.8</ele>
        <time>2021-04-25T07:32:34Z</time>
      </trkpt>
      <trkpt lat="47.25906" lon="6.00789">
        <ele>332.2</ele>
        <time>2021-04-25T07:32:35Z</time>
      </trkpt>
      <trkpt lat="47.25904" lon="6.00787">
        <ele>332.2</ele>
        <time>2021-04-25T07:32:36Z</time>
      </trkpt>
      <trkpt lat="47.25902" lon="6.00784">
        <ele>332.4</ele>
        <time>2021-04-25T07:32:37Z</time>
      </trkpt>
      <trkpt lat="47.25899" lon="6.00781">
        <ele>332.8</ele>
        <time>2021-04-25T07:32:38Z</time>
      </trkpt>
      <trkpt lat="47.25899" lon="6.00781">
        <ele>333.4</ele>
        <time>2021-04-25T07:32:39Z</time>
      </trkpt>
      <trkpt lat="47.25895" lon="6.00777">
        <ele>333.6</ele>
        <time>2021-04-25T07:32:40Z</time>
      </trkpt>
      <trkpt lat="47.25893" lon="6.00775">
        <ele>334</ele>
        <time>2021-04-25T07:32:41Z</time>
      </trkpt>
      <trkpt lat="47.25891" lon="6.00772">
        <ele>334.2</ele>
        <time>2021-04-25T07:32:42Z</time>
      </trkpt>
      <trkpt lat="47.25889" lon="6.00769">
        <ele>334.4</ele>
        <time>2021-04-25T07:32:43Z</time>
      </trkpt>
      <trkpt lat="47.25886" lon="6.00766">
        <ele>334.4</ele>
        <time>2021-04-25T07:32:44Z</time>
      </trkpt>
      <trkpt lat="47.25884" lon="6.00764">
        <ele>334.6</ele>
        <time>2021-04-25T07:32:45Z</time>
      </trkpt>
      <trkpt lat="47.25882" lon="6.00761">
        <ele>334.6</ele>
        <time>2021-04-25T07:32:46Z</time>
      </trkpt>
      <trkpt lat="47.25879" lon="6.00758">
        <ele>334.8</ele>
        <time>2021-04-25T07:32:47Z</time>
      </trkpt>
      <trkpt lat="47.25877" lon="6.00755">
        <ele>334.8</ele>
        <time>2021-04-25T07:32:48Z</time>
      </trkpt>
      <trkpt lat="47.25874" lon="6.00751">
        <ele>334.8</ele>
        <time>2021-04-25T07:32:49Z</time>
      </trkpt>
      <trkpt lat="47.25871" lon="6.00748">
        <ele>334.8</ele>
        <time>2021-04-25T07:32:50Z</time>
      </trkpt>
      <trkpt lat="47.25869" lon="6.00745">
        <ele>335</ele>
        <time>2021-04-25T07:32:51Z</time>
      </trkpt>
      <trkpt lat="47.25866" lon="6.00741">
        <ele>335</ele>
        <time>2021-04-25T07:32:52Z</time>
      </trkpt>
      <trkpt lat="47.25864" lon="6.00738">
        <ele>335</ele>
        <time>2021-04-25T07:32:53Z</time>
      </trkpt>
      <trkpt lat="47.25861" lon="6.00734">
        <ele>335</ele>
        <time>2021-04-25T07:32:54Z</time>
      </trkpt>
      <trkpt lat="47.25859" lon="6.00731">
        <ele>335.2</ele>
        <time>2021-04-25T07:32:55Z</time>
      </trkpt>
      <trkpt lat="47.25856" lon="6.00728">
        <ele>335.4</ele>
        <time>2021-04-25T07:32:56Z</time>
      </trkpt>
      <trkpt lat="47.25853" lon="6.00724">
        <ele>335.6</ele>
        <time>2021-04-25T07:32:57Z</time>
      </trkpt>
      <trkpt lat="47.25853" lon="6.00724">
        <ele>335.6</ele>
        <time>2021-04-25T07:32:58Z</time>
      </trkpt>
      <trkpt lat="47.25848" lon="6.00716">
        <ele>335.8</ele>
        <time>2021-04-25T07:32:59Z</time>
      </trkpt>
      <trkpt lat="47.25845" lon="6.00713">
        <ele>336</ele>
        <time>2021-04-25T07:33:00Z</time>
      </trkpt>
      <trkpt lat="47.25843" lon="6.00709">
        <ele>336</ele>
        <time>2021-04-25T07:33:01Z</time>
      </trkpt>
      <trkpt lat="47.2584" lon="6.00706">
        <ele>336.2</ele>
        <time>2021-04-25T07:33:02Z</time>
      </trkpt>
      <trkpt lat="47.2584" lon="6.00706">
        <ele>336.2</ele>
        <time>2021-04-25T07:33:03Z</time>
      </trkpt>
      <trkpt lat="47.25835" lon="6.00698">
        <ele>336.2</ele>
        <time>2021-04-25T07:33:04Z</time>
      </trkpt>
      <trkpt lat="47.25832" lon="6.00695">
        <ele>336.2</ele>
        <time>2021-04-25T07:33:05Z</time>
      </trkpt>
      <trkpt lat="47.2583" lon="6.00691">
        <ele>336.2</ele>
        <time>2021-04-25T07:33:06Z</time>
      </trkpt>
      <trkpt lat="47.25827" lon="6.00688">
        <ele>336.2</ele>
        <time>2021-04-25T07:33:07Z</time>
      </trkpt>
      <trkpt lat="47.25825" lon="6.00685">
        <ele>336.2</ele>
        <time>2021-04-25T07:33:08Z</time>
      </trkpt>
      <trkpt lat="47.25822" lon="6.00681">
        <ele>336</ele>
        <time>2021-04-25T07:33:09Z</time>
      </trkpt>
      <trkpt lat="47.25819" lon="6.00677">
        <ele>336</ele>
        <time>2021-04-25T07:33:10Z</time>
      </trkpt>
      <trkpt lat="47.25817" lon="6.00673">
        <ele>336</ele>
        <time>2021-04-25T07:33:11Z</time>
      </trkpt>
      <trkpt lat="47.25814" lon="6.00669">
        <ele>335.8</ele>
        <time>2021-04-25T07:33:12Z</time>
      </trkpt>
      <trkpt lat="47.25799" lon="6.00651">
        <ele>335.6</ele>
        <time>2021-04-25T07:33:16Z</time>
      </trkpt>
      <trkpt lat="47.25795" lon="6.00646">
        <ele>335.4</ele>
        <time>2021-04-25T07:33:17Z</time>
      </trkpt>
      <trkpt lat="47.25767" lon="6.00604">
        <ele>334.6</ele>
        <time>2021-04-25T07:33:23Z</time>
      </trkpt>
      <trkpt lat="47.25744" lon="6.00568">
        <ele>333.4</ele>
        <time>2021-04-25T07:33:27Z</time>
      </trkpt>
      <trkpt lat="47.25738" lon="6.00558">
        <ele>333.2</ele>
        <time>2021-04-25T07:33:28Z</time>
      </trkpt>
      <trkpt lat="47.25717" lon="6.00526">
        <ele>332</ele>
        <time>2021-04-25T07:33:31Z</time>
      </trkpt>
      <trkpt lat="47.25702" lon="6.00503">
        <ele>330.8</ele>
        <time>2021-04-25T07:33:33Z</time>
      </trkpt>
      <trkpt lat="47.25694" lon="6.00491">
        <ele>329.8</ele>
        <time>2021-04-25T07:33:34Z</time>
      </trkpt>
      <trkpt lat="47.25686" lon="6.00479">
        <ele>329.4</ele>
        <time>2021-04-25T07:33:35Z</time>
      </trkpt>
      <trkpt lat="47.25678" lon="6.00466">
        <ele>328.2</ele>
        <time>2021-04-25T07:33:36Z</time>
      </trkpt>
      <trkpt lat="47.25662" lon="6.00441">
        <ele>326.4</ele>
        <time>2021-04-25T07:33:38Z</time>
      </trkpt>
      <trkpt lat="47.25654" lon="6.00429">
        <ele>326</ele>
        <time>2021-04-25T07:33:39Z</time>
      </trkpt>
      <trkpt lat="47.25647" lon="6.00417">
        <ele>325</ele>
        <time>2021-04-25T07:33:40Z</time>
      </trkpt>
      <trkpt lat="47.25641" lon="6.00407">
        <ele>324.4</ele>
        <time>2021-04-25T07:33:41Z</time>
      </trkpt>
      <trkpt lat="47.25635" lon="6.00396">
        <ele>323</ele>
        <time>2021-04-25T07:33:42Z</time>
      </trkpt>
      <trkpt lat="47.2563" lon="6.00387">
        <ele>322</ele>
        <time>2021-04-25T07:33:43Z</time>
      </trkpt>
      <trkpt lat="47.25625" lon="6.00379">
        <ele>321.6</ele>
        <time>2021-04-25T07:33:44Z</time>
      </trkpt>
      <trkpt lat="47.25621" lon="6.00372">
        <ele>320.6</ele>
        <time>2021-04-25T07:33:45Z</time>
      </trkpt>
      <trkpt lat="47.25617" lon="6.00365">
        <ele>320.4</ele>
        <time>2021-04-25T07:33:46Z</time>
      </trkpt>
      <trkpt lat="47.25613" lon="6.00359">
        <ele>319.8</ele>
        <time>2021-04-25T07:33:47Z</time>
      </trkpt>
      <trkpt lat="47.25609" lon="6.00354">
        <ele>319.6</ele>
        <time>2021-04-25T07:33:48Z</time>
      </trkpt>
      <trkpt lat="47.25604" lon="6.00349">
        <ele>319.4</ele>
        <time>2021-04-25T07:33:49Z</time>
      </trkpt>
      <trkpt lat="47.25598" lon="6.00344">
        <ele>319.4</ele>
        <time>2021-04-25T07:33:50Z</time>
      </trkpt>
      <trkpt lat="47.25586" lon="6.00338">
        <ele>319.2</ele>
        <time>2021-04-25T07:33:52Z</time>
      </trkpt>
      <trkpt lat="47.25548" lon="6.00329">
        <ele>318.6</ele>
        <time>2021-04-25T07:33:57Z</time>
      </trkpt>
      <trkpt lat="47.25541" lon="6.00326">
        <ele>318.2</ele>
        <time>2021-04-25T07:33:58Z</time>
      </trkpt>
      <trkpt lat="47.25534" lon="6.00323">
        <ele>317.8</ele>
        <time>2021-04-25T07:33:59Z</time>
      </trkpt>
      <trkpt lat="47.25528" lon="6.0032">
        <ele>317.8</ele>
        <time>2021-04-25T07:34:00Z</time>
      </trkpt>
      <trkpt lat="47.25523" lon="6.00317">
        <ele>317.8</ele>
        <time>2021-04-25T07:34:01Z</time>
      </trkpt>
      <trkpt lat="47.25518" lon="6.00314">
        <ele>317.8</ele>
        <time>2021-04-25T07:34:02Z</time>
      </trkpt>
      <trkpt lat="47.25514" lon="6.0031">
        <ele>317.8</ele>
        <time>2021-04-25T07:34:03Z</time>
      </trkpt>
      <trkpt lat="47.25509" lon="6.00307">
        <ele>317.8</ele>
        <time>2021-04-25T07:34:04Z</time>
      </trkpt>
      <trkpt lat="47.25505" lon="6.00304">
        <ele>317.8</ele>
        <time>2021-04-25T07:34:05Z</time>
      </trkpt>
      <trkpt lat="47.25501" lon="6.003">
        <ele>318</ele>
        <time>2021-04-25T07:34:06Z</time>
      </trkpt>
      <trkpt lat="47.25487" lon="6.0029">
        <ele>318</ele>
        <time>2021-04-25T07:34:09Z</time>
      </trkpt>
      <trkpt lat="47.25487" lon="6.0029">
        <ele>318.2</ele>
        <time>2021-04-25T07:34:10Z</time>
      </trkpt>
      <trkpt lat="47.25474" lon="6.00278">
        <ele>318</ele>
        <time>2021-04-25T07:34:12Z</time>
      </trkpt>
      <trkpt lat="47.2547" lon="6.00275">
        <ele>318</ele>
        <time>2021-04-25T07:34:13Z</time>
      </trkpt>
      <trkpt lat="47.25465" lon="6.00271">
        <ele>317.6</ele>
        <time>2021-04-25T07:34:14Z</time>
      </trkpt>
      <trkpt lat="47.25456" lon="6.00265">
        <ele>317</ele>
        <time>2021-04-25T07:34:16Z</time>
      </trkpt>
      <trkpt lat="47.25452" lon="6.00261">
        <ele>316.4</ele>
        <time>2021-04-25T07:34:17Z</time>
      </trkpt>
      <trkpt lat="47.25447" lon="6.00256">
        <ele>316.2</ele>
        <time>2021-04-25T07:34:18Z</time>
      </trkpt>
      <trkpt lat="47.25442" lon="6.00251">
        <ele>315.6</ele>
        <time>2021-04-25T07:34:19Z</time>
      </trkpt>
      <trkpt lat="47.25425" lon="6.00232">
        <ele>315</ele>
        <time>2021-04-25T07:34:22Z</time>
      </trkpt>
      <trkpt lat="47.25419" lon="6.00225">
        <ele>314.2</ele>
        <time>2021-04-25T07:34:23Z</time>
      </trkpt>
      <trkpt lat="47.25408" lon="6.0021">
        <ele>312.8</ele>
        <time>2021-04-25T07:34:25Z</time>
      </trkpt>
      <trkpt lat="47.25397" lon="6.00193">
        <ele>311.4</ele>
        <time>2021-04-25T07:34:27Z</time>
      </trkpt>
      <trkpt lat="47.25392" lon="6.00185">
        <ele>310.6</ele>
        <time>2021-04-25T07:34:28Z</time>
      </trkpt>
      <trkpt lat="47.25387" lon="6.00177">
        <ele>310.2</ele>
        <time>2021-04-25T07:34:29Z</time>
      </trkpt>
      <trkpt lat="47.25377" lon="6.00159">
        <ele>309</ele>
        <time>2021-04-25T07:34:31Z</time>
      </trkpt>
      <trkpt lat="47.25367" lon="6.00141">
        <ele>307.6</ele>
        <time>2021-04-25T07:34:33Z</time>
      </trkpt>
      <trkpt lat="47.25357" lon="6.00124">
        <ele>307</ele>
        <time>2021-04-25T07:34:35Z</time>
      </trkpt>
      <trkpt lat="47.25353" lon="6.00116">
        <ele>306.6</ele>
        <time>2021-04-25T07:34:36Z</time>
      </trkpt>
      <trkpt lat="47.25348" lon="6.00107">
        <ele>306.2</ele>
        <time>2021-04-25T07:34:37Z</time>
      </trkpt>
      <trkpt lat="47.25344" lon="6.00099">
        <ele>306.2</ele>
        <time>2021-04-25T07:34:38Z</time>
      </trkpt>
      <trkpt lat="47.2534" lon="6.0009">
        <ele>306</ele>
        <time>2021-04-25T07:34:39Z</time>
      </trkpt>
      <trkpt lat="47.25337" lon="6.00081">
        <ele>305.8</ele>
        <time>2021-04-25T07:34:40Z</time>
      </trkpt>
      <trkpt lat="47.25333" lon="6.00073">
        <ele>305.6</ele>
        <time>2021-04-25T07:34:41Z</time>
      </trkpt>
      <trkpt lat="47.25324" lon="6.00057">
        <ele>305.4</ele>
        <time>2021-04-25T07:34:43Z</time>
      </trkpt>
      <trkpt lat="47.25319" lon="6.00049">
        <ele>305.4</ele>
        <time>2021-04-25T07:34:44Z</time>
      </trkpt>
      <trkpt lat="47.25315" lon="6.00041">
        <ele>305.2</ele>
        <time>2021-04-25T07:34:45Z</time>
      </trkpt>
      <trkpt lat="47.2531" lon="6.00034">
        <ele>305</ele>
        <time>2021-04-25T07:34:46Z</time>
      </trkpt>
      <trkpt lat="47.25305" lon="6.00027">
        <ele>305</ele>
        <time>2021-04-25T07:34:47Z</time>
      </trkpt>
      <trkpt lat="47.253" lon="6.00022">
        <ele>304.4</ele>
        <time>2021-04-25T07:34:48Z</time>
      </trkpt>
      <trkpt lat="47.25295" lon="6.00016">
        <ele>304.2</ele>
        <time>2021-04-25T07:34:49Z</time>
      </trkpt>
      <trkpt lat="47.25289" lon="6.0001">
        <ele>303.8</ele>
        <time>2021-04-25T07:34:50Z</time>
      </trkpt>
      <trkpt lat="47.25279" lon="5.99995">
        <ele>303.2</ele>
        <time>2021-04-25T07:34:52Z</time>
      </trkpt>
      <trkpt lat="47.25274" lon="5.99987">
        <ele>302.8</ele>
        <time>2021-04-25T07:34:53Z</time>
      </trkpt>
      <trkpt lat="47.25264" lon="5.9997">
        <ele>301.8</ele>
        <time>2021-04-25T07:34:55Z</time>
      </trkpt>
      <trkpt lat="47.25249" lon="5.99944">
        <ele>300.6</ele>
        <time>2021-04-25T07:34:58Z</time>
      </trkpt>
      <trkpt lat="47.25246" lon="5.99938">
        <ele>300.2</ele>
        <time>2021-04-25T07:34:59Z</time>
      </trkpt>
      <trkpt lat="47.25243" lon="5.9993">
        <ele>299.8</ele>
        <time>2021-04-25T07:35:00Z</time>
      </trkpt>
      <trkpt lat="47.25239" lon="5.99922">
        <ele>299.8</ele>
        <time>2021-04-25T07:35:01Z</time>
      </trkpt>
      <trkpt lat="47.25238" lon="5.99915">
        <ele>299.6</ele>
        <time>2021-04-25T07:35:02Z</time>
      </trkpt>
      <trkpt lat="47.25237" lon="5.99907">
        <ele>299.6</ele>
        <time>2021-04-25T07:35:03Z</time>
      </trkpt>
      <trkpt lat="47.25238" lon="5.99899">
        <ele>299.6</ele>
        <time>2021-04-25T07:35:04Z</time>
      </trkpt>
      <trkpt lat="47.25239" lon="5.99891">
        <ele>299.6</ele>
        <time>2021-04-25T07:35:05Z</time>
      </trkpt>
      <trkpt lat="47.25239" lon="5.99883">
        <ele>299.6</ele>
        <time>2021-04-25T07:35:06Z</time>
      </trkpt>
      <trkpt lat="47.25237" lon="5.99875">
        <ele>299.6</ele>
        <time>2021-04-25T07:35:07Z</time>
      </trkpt>
      <trkpt lat="47.25235" lon="5.99867">
        <ele>299.6</ele>
        <time>2021-04-25T07:35:08Z</time>
      </trkpt>
      <trkpt lat="47.25232" lon="5.9986">
        <ele>299.6</ele>
        <time>2021-04-25T07:35:09Z</time>
      </trkpt>
      <trkpt lat="47.25227" lon="5.99854">
        <ele>299.6</ele>
        <time>2021-04-25T07:35:10Z</time>
      </trkpt>
      <trkpt lat="47.25222" lon="5.9985">
        <ele>299.6</ele>
        <time>2021-04-25T07:35:11Z</time>
      </trkpt>
      <trkpt lat="47.25217" lon="5.99847">
        <ele>299.8</ele>
        <time>2021-04-25T07:35:12Z</time>
      </trkpt>
      <trkpt lat="47.25211" lon="5.99846">
        <ele>299.6</ele>
        <time>2021-04-25T07:35:13Z</time>
      </trkpt>
      <trkpt lat="47.25206" lon="5.99846">
        <ele>299.8</ele>
        <time>2021-04-25T07:35:14Z</time>
      </trkpt>
      <trkpt lat="47.252" lon="5.99845">
        <ele>299.6</ele>
        <time>2021-04-25T07:35:15Z</time>
      </trkpt>
      <trkpt lat="47.2519" lon="5.99839">
        <ele>299.6</ele>
        <time>2021-04-25T07:35:17Z</time>
      </trkpt>
      <trkpt lat="47.25186" lon="5.99834">
        <ele>299.4</ele>
        <time>2021-04-25T07:35:18Z</time>
      </trkpt>
      <trkpt lat="47.25182" lon="5.99829">
        <ele>299.4</ele>
        <time>2021-04-25T07:35:19Z</time>
      </trkpt>
      <trkpt lat="47.25176" lon="5.99821">
        <ele>299.4</ele>
        <time>2021-04-25T07:35:20Z</time>
      </trkpt>
      <trkpt lat="47.25168" lon="5.9981">
        <ele>299.4</ele>
        <time>2021-04-25T07:35:22Z</time>
      </trkpt>
      <trkpt lat="47.25147" lon="5.99773">
        <ele>298.6</ele>
        <time>2021-04-25T07:35:27Z</time>
      </trkpt>
      <trkpt lat="47.25124" lon="5.99736">
        <ele>297.6</ele>
        <time>2021-04-25T07:35:32Z</time>
      </trkpt>
      <trkpt lat="47.2511" lon="5.99713">
        <ele>296.6</ele>
        <time>2021-04-25T07:35:35Z</time>
      </trkpt>
      <trkpt lat="47.25105" lon="5.99704">
        <ele>296.4</ele>
        <time>2021-04-25T07:35:36Z</time>
      </trkpt>
      <trkpt lat="47.25091" lon="5.99669">
        <ele>296</ele>
        <time>2021-04-25T07:35:40Z</time>
      </trkpt>
      <trkpt lat="47.25086" lon="5.99652">
        <ele>296</ele>
        <time>2021-04-25T07:35:42Z</time>
      </trkpt>
      <trkpt lat="47.25084" lon="5.99644">
        <ele>296</ele>
        <time>2021-04-25T07:35:43Z</time>
      </trkpt>
      <trkpt lat="47.25082" lon="5.99634">
        <ele>296</ele>
        <time>2021-04-25T07:35:44Z</time>
      </trkpt>
      <trkpt lat="47.25081" lon="5.99627">
        <ele>296</ele>
        <time>2021-04-25T07:35:45Z</time>
      </trkpt>
      <trkpt lat="47.2508" lon="5.99619">
        <ele>296</ele>
        <time>2021-04-25T07:35:46Z</time>
      </trkpt>
      <trkpt lat="47.25079" lon="5.9961">
        <ele>296.2</ele>
        <time>2021-04-25T07:35:47Z</time>
      </trkpt>
      <trkpt lat="47.25074" lon="5.99571">
        <ele>297.2</ele>
        <time>2021-04-25T07:35:52Z</time>
      </trkpt>
      <trkpt lat="47.25073" lon="5.99564">
        <ele>297.4</ele>
        <time>2021-04-25T07:35:53Z</time>
      </trkpt>
      <trkpt lat="47.25071" lon="5.99557">
        <ele>297.6</ele>
        <time>2021-04-25T07:35:54Z</time>
      </trkpt>
      <trkpt lat="47.25068" lon="5.99542">
        <ele>298</ele>
        <time>2021-04-25T07:35:56Z</time>
      </trkpt>
      <trkpt lat="47.25066" lon="5.99536">
        <ele>298</ele>
        <time>2021-04-25T07:35:57Z</time>
      </trkpt>
      <trkpt lat="47.25065" lon="5.99529">
        <ele>298.2</ele>
        <time>2021-04-25T07:35:58Z</time>
      </trkpt>
      <trkpt lat="47.25062" lon="5.99524">
        <ele>298.4</ele>
        <time>2021-04-25T07:35:59Z</time>
      </trkpt>
      <trkpt lat="47.25058" lon="5.99511">
        <ele>298.6</ele>
        <time>2021-04-25T07:36:01Z</time>
      </trkpt>
      <trkpt lat="47.25046" lon="5.99486">
        <ele>299.2</ele>
        <time>2021-04-25T07:36:05Z</time>
      </trkpt>
      <trkpt lat="47.25031" lon="5.99463">
        <ele>299.6</ele>
        <time>2021-04-25T07:36:09Z</time>
      </trkpt>
      <trkpt lat="47.25028" lon="5.99457">
        <ele>299.8</ele>
        <time>2021-04-25T07:36:10Z</time>
      </trkpt>
      <trkpt lat="47.25025" lon="5.99452">
        <ele>299.8</ele>
        <time>2021-04-25T07:36:11Z</time>
      </trkpt>
      <trkpt lat="47.25021" lon="5.99446">
        <ele>300</ele>
        <time>2021-04-25T07:36:12Z</time>
      </trkpt>
      <trkpt lat="47.25018" lon="5.9944">
        <ele>300.2</ele>
        <time>2021-04-25T07:36:13Z</time>
      </trkpt>
      <trkpt lat="47.25014" lon="5.99435">
        <ele>300.4</ele>
        <time>2021-04-25T07:36:14Z</time>
      </trkpt>
      <trkpt lat="47.25011" lon="5.9943">
        <ele>300.4</ele>
        <time>2021-04-25T07:36:15Z</time>
      </trkpt>
      <trkpt lat="47.25008" lon="5.99424">
        <ele>300.4</ele>
        <time>2021-04-25T07:36:16Z</time>
      </trkpt>
      <trkpt lat="47.25005" lon="5.99419">
        <ele>300.6</ele>
        <time>2021-04-25T07:36:17Z</time>
      </trkpt>
      <trkpt lat="47.25002" lon="5.99414">
        <ele>300.8</ele>
        <time>2021-04-25T07:36:18Z</time>
      </trkpt>
      <trkpt lat="47.24999" lon="5.99409">
        <ele>301</ele>
        <time>2021-04-25T07:36:19Z</time>
      </trkpt>
      <trkpt lat="47.24995" lon="5.99405">
        <ele>301</ele>
        <time>2021-04-25T07:36:20Z</time>
      </trkpt>
      <trkpt lat="47.24995" lon="5.99405">
        <ele>301.2</ele>
        <time>2021-04-25T07:36:21Z</time>
      </trkpt>
      <trkpt lat="47.24989" lon="5.99396">
        <ele>301.2</ele>
        <time>2021-04-25T07:36:22Z</time>
      </trkpt>
      <trkpt lat="47.24986" lon="5.99392">
        <ele>301.2</ele>
        <time>2021-04-25T07:36:23Z</time>
      </trkpt>
      <trkpt lat="47.24982" lon="5.99389">
        <ele>301.4</ele>
        <time>2021-04-25T07:36:24Z</time>
      </trkpt>
      <trkpt lat="47.24979" lon="5.99385">
        <ele>301.4</ele>
        <time>2021-04-25T07:36:25Z</time>
      </trkpt>
      <trkpt lat="47.24976" lon="5.99382">
        <ele>301.6</ele>
        <time>2021-04-25T07:36:26Z</time>
      </trkpt>
      <trkpt lat="47.24976" lon="5.99382">
        <ele>301.8</ele>
        <time>2021-04-25T07:36:27Z</time>
      </trkpt>
      <trkpt lat="47.2497" lon="5.99375">
        <ele>302</ele>
        <time>2021-04-25T07:36:28Z</time>
      </trkpt>
      <trkpt lat="47.24967" lon="5.99371">
        <ele>302</ele>
        <time>2021-04-25T07:36:29Z</time>
      </trkpt>
      <trkpt lat="47.24964" lon="5.99367">
        <ele>302.2</ele>
        <time>2021-04-25T07:36:30Z</time>
      </trkpt>
      <trkpt lat="47.24961" lon="5.99363">
        <ele>302.4</ele>
        <time>2021-04-25T07:36:31Z</time>
      </trkpt>
      <trkpt lat="47.2496" lon="5.99358">
        <ele>302.6</ele>
        <time>2021-04-25T07:36:32Z</time>
      </trkpt>
      <trkpt lat="47.24959" lon="5.99352">
        <ele>302.6</ele>
        <time>2021-04-25T07:36:33Z</time>
      </trkpt>
      <trkpt lat="47.24959" lon="5.99352">
        <ele>302.8</ele>
        <time>2021-04-25T07:36:34Z</time>
      </trkpt>
      <trkpt lat="47.2496" lon="5.99341">
        <ele>302.8</ele>
        <time>2021-04-25T07:36:35Z</time>
      </trkpt>
      <trkpt lat="47.24961" lon="5.99335">
        <ele>303</ele>
        <time>2021-04-25T07:36:36Z</time>
      </trkpt>
      <trkpt lat="47.24961" lon="5.99335">
        <ele>303</ele>
        <time>2021-04-25T07:36:37Z</time>
      </trkpt>
      <trkpt lat="47.24967" lon="5.99325">
        <ele>303</ele>
        <time>2021-04-25T07:36:38Z</time>
      </trkpt>
      <trkpt lat="47.2497" lon="5.99321">
        <ele>303</ele>
        <time>2021-04-25T07:36:39Z</time>
      </trkpt>
      <trkpt lat="47.24974" lon="5.99317">
        <ele>303</ele>
        <time>2021-04-25T07:36:40Z</time>
      </trkpt>
      <trkpt lat="47.24977" lon="5.99313">
        <ele>303</ele>
        <time>2021-04-25T07:36:41Z</time>
      </trkpt>
      <trkpt lat="47.2498" lon="5.99309">
        <ele>303</ele>
        <time>2021-04-25T07:36:42Z</time>
      </trkpt>
      <trkpt lat="47.24984" lon="5.99304">
        <ele>303</ele>
        <time>2021-04-25T07:36:43Z</time>
      </trkpt>
      <trkpt lat="47.24987" lon="5.993">
        <ele>303</ele>
        <time>2021-04-25T07:36:44Z</time>
      </trkpt>
      <trkpt lat="47.24991" lon="5.99296">
        <ele>303</ele>
        <time>2021-04-25T07:36:45Z</time>
      </trkpt>
      <trkpt lat="47.24994" lon="5.99292">
        <ele>302.8</ele>
        <time>2021-04-25T07:36:46Z</time>
      </trkpt>
      <trkpt lat="47.25001" lon="5.99284">
        <ele>302.6</ele>
        <time>2021-04-25T07:36:48Z</time>
      </trkpt>
      <trkpt lat="47.25016" lon="5.9927">
        <ele>302</ele>
        <time>2021-04-25T07:36:52Z</time>
      </trkpt>
      <trkpt lat="47.25043" lon="5.99247">
        <ele>301.4</ele>
        <time>2021-04-25T07:36:59Z</time>
      </trkpt>
      <trkpt lat="47.25065" lon="5.99225">
        <ele>300.8</ele>
        <time>2021-04-25T07:37:04Z</time>
      </trkpt>
      <trkpt lat="47.25069" lon="5.99221">
        <ele>300.8</ele>
        <time>2021-04-25T07:37:05Z</time>
      </trkpt>
      <trkpt lat="47.25074" lon="5.99217">
        <ele>300.6</ele>
        <time>2021-04-25T07:37:06Z</time>
      </trkpt>
      <trkpt lat="47.25092" lon="5.992">
        <ele>299.8</ele>
        <time>2021-04-25T07:37:10Z</time>
      </trkpt>
      <trkpt lat="47.25119" lon="5.99175">
        <ele>299.2</ele>
        <time>2021-04-25T07:37:15Z</time>
      </trkpt>
      <trkpt lat="47.25148" lon="5.99147">
        <ele>298.8</ele>
        <time>2021-04-25T07:37:20Z</time>
      </trkpt>
      <trkpt lat="47.25155" lon="5.9914">
        <ele>298.6</ele>
        <time>2021-04-25T07:37:21Z</time>
      </trkpt>
      <trkpt lat="47.25168" lon="5.99126">
        <ele>297.4</ele>
        <time>2021-04-25T07:37:23Z</time>
      </trkpt>
      <trkpt lat="47.25186" lon="5.99099">
        <ele>296</ele>
        <time>2021-04-25T07:37:26Z</time>
      </trkpt>
      <trkpt lat="47.25206" lon="5.99068">
        <ele>294.6</ele>
        <time>2021-04-25T07:37:29Z</time>
      </trkpt>
      <trkpt lat="47.25218" lon="5.99044">
        <ele>293.2</ele>
        <time>2021-04-25T07:37:31Z</time>
      </trkpt>
      <trkpt lat="47.25224" lon="5.99033">
        <ele>292.8</ele>
        <time>2021-04-25T07:37:32Z</time>
      </trkpt>
      <trkpt lat="47.25231" lon="5.99021">
        <ele>292</ele>
        <time>2021-04-25T07:37:33Z</time>
      </trkpt>
      <trkpt lat="47.25237" lon="5.99009">
        <ele>291.6</ele>
        <time>2021-04-25T07:37:34Z</time>
      </trkpt>
      <trkpt lat="47.25243" lon="5.98998">
        <ele>290.6</ele>
        <time>2021-04-25T07:37:35Z</time>
      </trkpt>
      <trkpt lat="47.25253" lon="5.98976">
        <ele>289.2</ele>
        <time>2021-04-25T07:37:37Z</time>
      </trkpt>
      <trkpt lat="47.25257" lon="5.98965">
        <ele>288.4</ele>
        <time>2021-04-25T07:37:38Z</time>
      </trkpt>
      <trkpt lat="47.25259" lon="5.98954">
        <ele>288</ele>
        <time>2021-04-25T07:37:39Z</time>
      </trkpt>
      <trkpt lat="47.25261" lon="5.98943">
        <ele>287.8</ele>
        <time>2021-04-25T07:37:40Z</time>
      </trkpt>
      <trkpt lat="47.25261" lon="5.98932">
        <ele>287.6</ele>
        <time>2021-04-25T07:37:41Z</time>
      </trkpt>
      <trkpt lat="47.25259" lon="5.98921">
        <ele>287.6</ele>
        <time>2021-04-25T07:37:42Z</time>
      </trkpt>
      <trkpt lat="47.25258" lon="5.98912">
        <ele>287.4</ele>
        <time>2021-04-25T07:37:43Z</time>
      </trkpt>
      <trkpt lat="47.25255" lon="5.98902">
        <ele>287.4</ele>
        <time>2021-04-25T07:37:44Z</time>
      </trkpt>
      <trkpt lat="47.25253" lon="5.98892">
        <ele>287.4</ele>
        <time>2021-04-25T07:37:45Z</time>
      </trkpt>
      <trkpt lat="47.25247" lon="5.98874">
        <ele>287.4</ele>
        <time>2021-04-25T07:37:47Z</time>
      </trkpt>
      <trkpt lat="47.25236" lon="5.98846">
        <ele>287.4</ele>
        <time>2021-04-25T07:37:50Z</time>
      </trkpt>
      <trkpt lat="47.25226" lon="5.98828">
        <ele>287.2</ele>
        <time>2021-04-25T07:37:52Z</time>
      </trkpt>
      <trkpt lat="47.25216" lon="5.98811">
        <ele>287.2</ele>
        <time>2021-04-25T07:37:54Z</time>
      </trkpt>
      <trkpt lat="47.25211" lon="5.98803">
        <ele>287</ele>
        <time>2021-04-25T07:37:55Z</time>
      </trkpt>
      <trkpt lat="47.25206" lon="5.98795">
        <ele>286.8</ele>
        <time>2021-04-25T07:37:56Z</time>
      </trkpt>
      <trkpt lat="47.25188" lon="5.98763">
        <ele>286.6</ele>
        <time>2021-04-25T07:38:00Z</time>
      </trkpt>
      <trkpt lat="47.25183" lon="5.98754">
        <ele>286.6</ele>
        <time>2021-04-25T07:38:01Z</time>
      </trkpt>
      <trkpt lat="47.25176" lon="5.98741">
        <ele>286.6</ele>
        <time>2021-04-25T07:38:03Z</time>
      </trkpt>
      <trkpt lat="47.25172" lon="5.98734">
        <ele>286.6</ele>
        <time>2021-04-25T07:38:04Z</time>
      </trkpt>
      <trkpt lat="47.25168" lon="5.98727">
        <ele>286.8</ele>
        <time>2021-04-25T07:38:05Z</time>
      </trkpt>
      <trkpt lat="47.25164" lon="5.98721">
        <ele>286.8</ele>
        <time>2021-04-25T07:38:06Z</time>
      </trkpt>
      <trkpt lat="47.2516" lon="5.98715">
        <ele>287</ele>
        <time>2021-04-25T07:38:07Z</time>
      </trkpt>
      <trkpt lat="47.25157" lon="5.98708">
        <ele>287</ele>
        <time>2021-04-25T07:38:08Z</time>
      </trkpt>
      <trkpt lat="47.25153" lon="5.98702">
        <ele>287.2</ele>
        <time>2021-04-25T07:38:09Z</time>
      </trkpt>
      <trkpt lat="47.2515" lon="5.98696">
        <ele>287.2</ele>
        <time>2021-04-25T07:38:10Z</time>
      </trkpt>
      <trkpt lat="47.25146" lon="5.9869">
        <ele>287.4</ele>
        <time>2021-04-25T07:38:11Z</time>
      </trkpt>
      <trkpt lat="47.25143" lon="5.98684">
        <ele>287.4</ele>
        <time>2021-04-25T07:38:12Z</time>
      </trkpt>
      <trkpt lat="47.2514" lon="5.98678">
        <ele>287.4</ele>
        <time>2021-04-25T07:38:13Z</time>
      </trkpt>
      <trkpt lat="47.25137" lon="5.98673">
        <ele>287.6</ele>
        <time>2021-04-25T07:38:14Z</time>
      </trkpt>
      <trkpt lat="47.25134" lon="5.98668">
        <ele>287.6</ele>
        <time>2021-04-25T07:38:15Z</time>
      </trkpt>
      <trkpt lat="47.25131" lon="5.98663">
        <ele>287.8</ele>
        <time>2021-04-25T07:38:16Z</time>
      </trkpt>
      <trkpt lat="47.25128" lon="5.98658">
        <ele>287.8</ele>
        <time>2021-04-25T07:38:17Z</time>
      </trkpt>
      <trkpt lat="47.25125" lon="5.98653">
        <ele>288</ele>
        <time>2021-04-25T07:38:18Z</time>
      </trkpt>
      <trkpt lat="47.25122" lon="5.98648">
        <ele>288.2</ele>
        <time>2021-04-25T07:38:19Z</time>
      </trkpt>
      <trkpt lat="47.25119" lon="5.98644">
        <ele>288.2</ele>
        <time>2021-04-25T07:38:20Z</time>
      </trkpt>
      <trkpt lat="47.25116" lon="5.98638">
        <ele>288.4</ele>
        <time>2021-04-25T07:38:21Z</time>
      </trkpt>
      <trkpt lat="47.25114" lon="5.98634">
        <ele>288.6</ele>
        <time>2021-04-25T07:38:22Z</time>
      </trkpt>
      <trkpt lat="47.25111" lon="5.9863">
        <ele>289</ele>
        <time>2021-04-25T07:38:23Z</time>
      </trkpt>
      <trkpt lat="47.25108" lon="5.98625">
        <ele>289</ele>
        <time>2021-04-25T07:38:24Z</time>
      </trkpt>
      <trkpt lat="47.25106" lon="5.9862">
        <ele>289.2</ele>
        <time>2021-04-25T07:38:25Z</time>
      </trkpt>
      <trkpt lat="47.25079" lon="5.98588">
        <ele>289.6</ele>
        <time>2021-04-25T07:38:32Z</time>
      </trkpt>
      <trkpt lat="47.25049" lon="5.98556">
        <ele>289.4</ele>
        <time>2021-04-25T07:38:38Z</time>
      </trkpt>
      <trkpt lat="47.25044" lon="5.9855">
        <ele>289.4</ele>
        <time>2021-04-25T07:38:39Z</time>
      </trkpt>
      <trkpt lat="47.24998" lon="5.98501">
        <ele>288.8</ele>
        <time>2021-04-25T07:38:48Z</time>
      </trkpt>
      <trkpt lat="47.24988" lon="5.9849">
        <ele>288.6</ele>
        <time>2021-04-25T07:38:50Z</time>
      </trkpt>
      <trkpt lat="47.24984" lon="5.98485">
        <ele>288.4</ele>
        <time>2021-04-25T07:38:51Z</time>
      </trkpt>
      <trkpt lat="47.24979" lon="5.9848">
        <ele>288.2</ele>
        <time>2021-04-25T07:38:52Z</time>
      </trkpt>
      <trkpt lat="47.24974" lon="5.98476">
        <ele>288.2</ele>
        <time>2021-04-25T07:38:53Z</time>
      </trkpt>
      <trkpt lat="47.2497" lon="5.98472">
        <ele>288.2</ele>
        <time>2021-04-25T07:38:54Z</time>
      </trkpt>
      <trkpt lat="47.24964" lon="5.98469">
        <ele>288.2</ele>
        <time>2021-04-25T07:38:55Z</time>
      </trkpt>
      <trkpt lat="47.24959" lon="5.98466">
        <ele>288.2</ele>
        <time>2021-04-25T07:38:56Z</time>
      </trkpt>
      <trkpt lat="47.24954" lon="5.98464">
        <ele>288.2</ele>
        <time>2021-04-25T07:38:57Z</time>
      </trkpt>
      <trkpt lat="47.24949" lon="5.98463">
        <ele>288.2</ele>
        <time>2021-04-25T07:38:58Z</time>
      </trkpt>
      <trkpt lat="47.24944" lon="5.98462">
        <ele>288.2</ele>
        <time>2021-04-25T07:38:59Z</time>
      </trkpt>
      <trkpt lat="47.2494" lon="5.98462">
        <ele>288.4</ele>
        <time>2021-04-25T07:39:00Z</time>
      </trkpt>
      <trkpt lat="47.24936" lon="5.98462">
        <ele>288.6</ele>
        <time>2021-04-25T07:39:01Z</time>
      </trkpt>
      <trkpt lat="47.24932" lon="5.98461">
        <ele>288.8</ele>
        <time>2021-04-25T07:39:02Z</time>
      </trkpt>
      <trkpt lat="47.24929" lon="5.98459">
        <ele>289.2</ele>
        <time>2021-04-25T07:39:03Z</time>
      </trkpt>
      <trkpt lat="47.24925" lon="5.98456">
        <ele>289.4</ele>
        <time>2021-04-25T07:39:04Z</time>
      </trkpt>
      <trkpt lat="47.24922" lon="5.98453">
        <ele>290</ele>
        <time>2021-04-25T07:39:05Z</time>
      </trkpt>
      <trkpt lat="47.2492" lon="5.98448">
        <ele>290.2</ele>
        <time>2021-04-25T07:39:06Z</time>
      </trkpt>
      <trkpt lat="47.24919" lon="5.98442">
        <ele>290.4</ele>
        <time>2021-04-25T07:39:07Z</time>
      </trkpt>
      <trkpt lat="47.24917" lon="5.98437">
        <ele>290.6</ele>
        <time>2021-04-25T07:39:08Z</time>
      </trkpt>
      <trkpt lat="47.24915" lon="5.98432">
        <ele>290.8</ele>
        <time>2021-04-25T07:39:09Z</time>
      </trkpt>
      <trkpt lat="47.24911" lon="5.98428">
        <ele>290.8</ele>
        <time>2021-04-25T07:39:10Z</time>
      </trkpt>
      <trkpt lat="47.24908" lon="5.98426">
        <ele>291</ele>
        <time>2021-04-25T07:39:11Z</time>
      </trkpt>
      <trkpt lat="47.24904" lon="5.98425">
        <ele>291</ele>
        <time>2021-04-25T07:39:12Z</time>
      </trkpt>
      <trkpt lat="47.24897" lon="5.98428">
        <ele>291</ele>
        <time>2021-04-25T07:39:14Z</time>
      </trkpt>
      <trkpt lat="47.2489" lon="5.98444">
        <ele>291.2</ele>
        <time>2021-04-25T07:39:17Z</time>
      </trkpt>
      <trkpt lat="47.2489" lon="5.98448">
        <ele>291.2</ele>
        <time>2021-04-25T07:39:18Z</time>
      </trkpt>
      <trkpt lat="47.2489" lon="5.98455">
        <ele>291.2</ele>
        <time>2021-04-25T07:39:19Z</time>
      </trkpt>
      <trkpt lat="47.24889" lon="5.98461">
        <ele>291.2</ele>
        <time>2021-04-25T07:39:20Z</time>
      </trkpt>
      <trkpt lat="47.24888" lon="5.98467">
        <ele>291.2</ele>
        <time>2021-04-25T07:39:21Z</time>
      </trkpt>
      <trkpt lat="47.24885" lon="5.98473">
        <ele>291.2</ele>
        <time>2021-04-25T07:39:22Z</time>
      </trkpt>
      <trkpt lat="47.24883" lon="5.98477">
        <ele>291.2</ele>
        <time>2021-04-25T07:39:23Z</time>
      </trkpt>
      <trkpt lat="47.24879" lon="5.98481">
        <ele>291.2</ele>
        <time>2021-04-25T07:39:24Z</time>
      </trkpt>
      <trkpt lat="47.24876" lon="5.98484">
        <ele>291.2</ele>
        <time>2021-04-25T07:39:25Z</time>
      </trkpt>
      <trkpt lat="47.24872" lon="5.98486">
        <ele>291.2</ele>
        <time>2021-04-25T07:39:26Z</time>
      </trkpt>
      <trkpt lat="47.24868" lon="5.98487">
        <ele>291.2</ele>
        <time>2021-04-25T07:39:27Z</time>
      </trkpt>
      <trkpt lat="47.24861" lon="5.9849">
        <ele>291.2</ele>
        <time>2021-04-25T07:39:29Z</time>
      </trkpt>
      <trkpt lat="47.24857" lon="5.98492">
        <ele>291.2</ele>
        <time>2021-04-25T07:39:30Z</time>
      </trkpt>
      <trkpt lat="47.24853" lon="5.98494">
        <ele>291.2</ele>
        <time>2021-04-25T07:39:31Z</time>
      </trkpt>
      <trkpt lat="47.2485" lon="5.98495">
        <ele>291.2</ele>
        <time>2021-04-25T07:39:32Z</time>
      </trkpt>
      <trkpt lat="47.24846" lon="5.98496">
        <ele>291.2</ele>
        <time>2021-04-25T07:39:33Z</time>
      </trkpt>
      <trkpt lat="47.24843" lon="5.98498">
        <ele>291.4</ele>
        <time>2021-04-25T07:39:34Z</time>
      </trkpt>
      <trkpt lat="47.2484" lon="5.98499">
        <ele>291.6</ele>
        <time>2021-04-25T07:39:35Z</time>
      </trkpt>
      <trkpt lat="47.24836" lon="5.985">
        <ele>291.6</ele>
        <time>2021-04-25T07:39:36Z</time>
      </trkpt>
      <trkpt lat="47.24836" lon="5.985">
        <ele>291.8</ele>
        <time>2021-04-25T07:39:37Z</time>
      </trkpt>
      <trkpt lat="47.24829" lon="5.98502">
        <ele>291.8</ele>
        <time>2021-04-25T07:39:38Z</time>
      </trkpt>
      <trkpt lat="47.24809" lon="5.98507">
        <ele>292.8</ele>
        <time>2021-04-25T07:39:43Z</time>
      </trkpt>
      <trkpt lat="47.24801" lon="5.98508">
        <ele>293</ele>
        <time>2021-04-25T07:39:45Z</time>
      </trkpt>
      <trkpt lat="47.24768" lon="5.98513">
        <ele>293.8</ele>
        <time>2021-04-25T07:39:54Z</time>
      </trkpt>
      <trkpt lat="47.24745" lon="5.98517">
        <ele>293.6</ele>
        <time>2021-04-25T07:40:00Z</time>
      </trkpt>
      <trkpt lat="47.24735" lon="5.98517">
        <ele>293.6</ele>
        <time>2021-04-25T07:40:02Z</time>
      </trkpt>
      <trkpt lat="47.24721" lon="5.9852">
        <ele>293.4</ele>
        <time>2021-04-25T07:40:05Z</time>
      </trkpt>
      <trkpt lat="47.24717" lon="5.98521">
        <ele>293.2</ele>
        <time>2021-04-25T07:40:06Z</time>
      </trkpt>
      <trkpt lat="47.24713" lon="5.98522">
        <ele>293.2</ele>
        <time>2021-04-25T07:40:07Z</time>
      </trkpt>
      <trkpt lat="47.2471" lon="5.98523">
        <ele>293.2</ele>
        <time>2021-04-25T07:40:08Z</time>
      </trkpt>
      <trkpt lat="47.24707" lon="5.98523">
        <ele>293.2</ele>
        <time>2021-04-25T07:40:09Z</time>
      </trkpt>
      <trkpt lat="47.24704" lon="5.98523">
        <ele>293.2</ele>
        <time>2021-04-25T07:40:10Z</time>
      </trkpt>
      <trkpt lat="47.247" lon="5.98523">
        <ele>293.2</ele>
        <time>2021-04-25T07:40:11Z</time>
      </trkpt>
      <trkpt lat="47.24694" lon="5.98524">
        <ele>293.2</ele>
        <time>2021-04-25T07:40:13Z</time>
      </trkpt>
      <trkpt lat="47.24691" lon="5.98524">
        <ele>293.2</ele>
        <time>2021-04-25T07:40:14Z</time>
      </trkpt>
      <trkpt lat="47.24687" lon="5.98525">
        <ele>293.4</ele>
        <time>2021-04-25T07:40:15Z</time>
      </trkpt>
      <trkpt lat="47.24684" lon="5.98525">
        <ele>293.4</ele>
        <time>2021-04-25T07:40:16Z</time>
      </trkpt>
      <trkpt lat="47.24677" lon="5.98526">
        <ele>293.4</ele>
        <time>2021-04-25T07:40:18Z</time>
      </trkpt>
      <trkpt lat="47.2467" lon="5.98528">
        <ele>293.6</ele>
        <time>2021-04-25T07:40:20Z</time>
      </trkpt>
      <trkpt lat="47.24648" lon="5.98536">
        <ele>293.8</ele>
        <time>2021-04-25T07:40:26Z</time>
      </trkpt>
      <trkpt lat="47.24646" lon="5.9854">
        <ele>293.8</ele>
        <time>2021-04-25T07:40:27Z</time>
      </trkpt>
      <trkpt lat="47.24644" lon="5.98544">
        <ele>293.8</ele>
        <time>2021-04-25T07:40:28Z</time>
      </trkpt>
      <trkpt lat="47.24642" lon="5.98548">
        <ele>294</ele>
        <time>2021-04-25T07:40:29Z</time>
      </trkpt>
      <trkpt lat="47.24639" lon="5.9855">
        <ele>294</ele>
        <time>2021-04-25T07:40:30Z</time>
      </trkpt>
      <trkpt lat="47.24636" lon="5.98552">
        <ele>294</ele>
        <time>2021-04-25T07:40:31Z</time>
      </trkpt>
      <trkpt lat="47.24633" lon="5.98552">
        <ele>294</ele>
        <time>2021-04-25T07:40:32Z</time>
      </trkpt>
      <trkpt lat="47.24629" lon="5.98553">
        <ele>294.2</ele>
        <time>2021-04-25T07:40:33Z</time>
      </trkpt>
      <trkpt lat="47.24626" lon="5.98553">
        <ele>294.2</ele>
        <time>2021-04-25T07:40:34Z</time>
      </trkpt>
      <trkpt lat="47.246" lon="5.98555">
        <ele>294.8</ele>
        <time>2021-04-25T07:40:41Z</time>
      </trkpt>
      <trkpt lat="47.24597" lon="5.98556">
        <ele>294.8</ele>
        <time>2021-04-25T07:40:42Z</time>
      </trkpt>
      <trkpt lat="47.24582" lon="5.98559">
        <ele>295.2</ele>
        <time>2021-04-25T07:40:46Z</time>
      </trkpt>
      <trkpt lat="47.24575" lon="5.9856">
        <ele>295</ele>
        <time>2021-04-25T07:40:48Z</time>
      </trkpt>
      <trkpt lat="47.24568" lon="5.98561">
        <ele>295.4</ele>
        <time>2021-04-25T07:40:50Z</time>
      </trkpt>
      <trkpt lat="47.24565" lon="5.98561">
        <ele>295.4</ele>
        <time>2021-04-25T07:40:51Z</time>
      </trkpt>
      <trkpt lat="47.24562" lon="5.98562">
        <ele>295.2</ele>
        <time>2021-04-25T07:40:52Z</time>
      </trkpt>
      <trkpt lat="47.24556" lon="5.98568">
        <ele>295.4</ele>
        <time>2021-04-25T07:40:54Z</time>
      </trkpt>
      <trkpt lat="47.24554" lon="5.98572">
        <ele>295.2</ele>
        <time>2021-04-25T07:40:55Z</time>
      </trkpt>
      <trkpt lat="47.24552" lon="5.98576">
        <ele>295</ele>
        <time>2021-04-25T07:40:56Z</time>
      </trkpt>
      <trkpt lat="47.24549" lon="5.98579">
        <ele>295</ele>
        <time>2021-04-25T07:40:57Z</time>
      </trkpt>
      <trkpt lat="47.24547" lon="5.98582">
        <ele>295</ele>
        <time>2021-04-25T07:40:58Z</time>
      </trkpt>
      <trkpt lat="47.24544" lon="5.98583">
        <ele>295</ele>
        <time>2021-04-25T07:40:59Z</time>
      </trkpt>
      <trkpt lat="47.24541" lon="5.98584">
        <ele>295.4</ele>
        <time>2021-04-25T07:41:00Z</time>
      </trkpt>
      <trkpt lat="47.24541" lon="5.98584">
        <ele>295.4</ele>
        <time>2021-04-25T07:41:01Z</time>
      </trkpt>
      <trkpt lat="47.24535" lon="5.98584">
        <ele>295.4</ele>
        <time>2021-04-25T07:41:02Z</time>
      </trkpt>
      <trkpt lat="47.24532" lon="5.98583">
        <ele>295.2</ele>
        <time>2021-04-25T07:41:03Z</time>
      </trkpt>
      <trkpt lat="47.24528" lon="5.98581">
        <ele>295.2</ele>
        <time>2021-04-25T07:41:04Z</time>
      </trkpt>
      <trkpt lat="47.24522" lon="5.98579">
        <ele>295</ele>
        <time>2021-04-25T07:41:05Z</time>
      </trkpt>
      <trkpt lat="47.24498" lon="5.98571">
        <ele>294.4</ele>
        <time>2021-04-25T07:41:09Z</time>
      </trkpt>
      <trkpt lat="47.24493" lon="5.9857">
        <ele>294.2</ele>
        <time>2021-04-25T07:41:10Z</time>
      </trkpt>
      <trkpt lat="47.24487" lon="5.98571">
        <ele>293.4</ele>
        <time>2021-04-25T07:41:11Z</time>
      </trkpt>
      <trkpt lat="47.24474" lon="5.98574">
        <ele>292.4</ele>
        <time>2021-04-25T07:41:13Z</time>
      </trkpt>
      <trkpt lat="47.24468" lon="5.98575">
        <ele>291.6</ele>
        <time>2021-04-25T07:41:14Z</time>
      </trkpt>
      <trkpt lat="47.24457" lon="5.98574">
        <ele>290.8</ele>
        <time>2021-04-25T07:41:16Z</time>
      </trkpt>
      <trkpt lat="47.24452" lon="5.98574">
        <ele>290.6</ele>
        <time>2021-04-25T07:41:17Z</time>
      </trkpt>
      <trkpt lat="47.24448" lon="5.98573">
        <ele>290.2</ele>
        <time>2021-04-25T07:41:18Z</time>
      </trkpt>
      <trkpt lat="47.24444" lon="5.9857">
        <ele>290</ele>
        <time>2021-04-25T07:41:19Z</time>
      </trkpt>
      <trkpt lat="47.24441" lon="5.98566">
        <ele>289.6</ele>
        <time>2021-04-25T07:41:20Z</time>
      </trkpt>
      <trkpt lat="47.24441" lon="5.98566">
        <ele>289.2</ele>
        <time>2021-04-25T07:41:21Z</time>
      </trkpt>
      <trkpt lat="47.2444" lon="5.98554">
        <ele>288.6</ele>
        <time>2021-04-25T07:41:22Z</time>
      </trkpt>
      <trkpt lat="47.2444" lon="5.98549">
        <ele>288.2</ele>
        <time>2021-04-25T07:41:23Z</time>
      </trkpt>
      <trkpt lat="47.24439" lon="5.98545">
        <ele>288</ele>
        <time>2021-04-25T07:41:24Z</time>
      </trkpt>
      <trkpt lat="47.24437" lon="5.9854">
        <ele>287.6</ele>
        <time>2021-04-25T07:41:25Z</time>
      </trkpt>
      <trkpt lat="47.24432" lon="5.98532">
        <ele>287.4</ele>
        <time>2021-04-25T07:41:27Z</time>
      </trkpt>
      <trkpt lat="47.24428" lon="5.98528">
        <ele>287.2</ele>
        <time>2021-04-25T07:41:28Z</time>
      </trkpt>
      <trkpt lat="47.24424" lon="5.98524">
        <ele>287.2</ele>
        <time>2021-04-25T07:41:29Z</time>
      </trkpt>
      <trkpt lat="47.24421" lon="5.98522">
        <ele>287</ele>
        <time>2021-04-25T07:41:30Z</time>
      </trkpt>
      <trkpt lat="47.24419" lon="5.98521">
        <ele>287</ele>
        <time>2021-04-25T07:41:31Z</time>
      </trkpt>
      <trkpt lat="47.24417" lon="5.9852">
        <ele>286.8</ele>
        <time>2021-04-25T07:41:32Z</time>
      </trkpt>
      <trkpt lat="47.24416" lon="5.98519">
        <ele>286.6</ele>
        <time>2021-04-25T07:41:33Z</time>
      </trkpt>
      <trkpt lat="47.24416" lon="5.98519">
        <ele>286</ele>
        <time>2021-04-25T07:41:34Z</time>
      </trkpt>
      <trkpt lat="47.24414" lon="5.98518">
        <ele>285.8</ele>
        <time>2021-04-25T07:41:35Z</time>
      </trkpt>
      <trkpt lat="47.24405" lon="5.98514">
        <ele>285.2</ele>
        <time>2021-04-25T07:41:38Z</time>
      </trkpt>
      <trkpt lat="47.24396" lon="5.98514">
        <ele>285</ele>
        <time>2021-04-25T07:41:40Z</time>
      </trkpt>
      <trkpt lat="47.2439" lon="5.98516">
        <ele>284.8</ele>
        <time>2021-04-25T07:41:41Z</time>
      </trkpt>
      <trkpt lat="47.24385" lon="5.98519">
        <ele>284.8</ele>
        <time>2021-04-25T07:41:42Z</time>
      </trkpt>
      <trkpt lat="47.24379" lon="5.98522">
        <ele>284.6</ele>
        <time>2021-04-25T07:41:43Z</time>
      </trkpt>
      <trkpt lat="47.24373" lon="5.98526">
        <ele>284.6</ele>
        <time>2021-04-25T07:41:44Z</time>
      </trkpt>
      <trkpt lat="47.24353" lon="5.98535">
        <ele>284</ele>
        <time>2021-04-25T07:41:47Z</time>
      </trkpt>
      <trkpt lat="47.24314" lon="5.98549">
        <ele>283</ele>
        <time>2021-04-25T07:41:52Z</time>
      </trkpt>
      <trkpt lat="47.24305" lon="5.98552">
        <ele>282.6</ele>
        <time>2021-04-25T07:41:53Z</time>
      </trkpt>
      <trkpt lat="47.24287" lon="5.98558">
        <ele>281.8</ele>
        <time>2021-04-25T07:41:55Z</time>
      </trkpt>
      <trkpt lat="47.2427" lon="5.98565">
        <ele>281</ele>
        <time>2021-04-25T07:41:57Z</time>
      </trkpt>
      <trkpt lat="47.24261" lon="5.98569">
        <ele>280.4</ele>
        <time>2021-04-25T07:41:58Z</time>
      </trkpt>
      <trkpt lat="47.24244" lon="5.98576">
        <ele>279.8</ele>
        <time>2021-04-25T07:42:00Z</time>
      </trkpt>
      <trkpt lat="47.24235" lon="5.98579">
        <ele>279.2</ele>
        <time>2021-04-25T07:42:01Z</time>
      </trkpt>
      <trkpt lat="47.24209" lon="5.98591">
        <ele>278</ele>
        <time>2021-04-25T07:42:04Z</time>
      </trkpt>
      <trkpt lat="47.24201" lon="5.98594">
        <ele>277.8</ele>
        <time>2021-04-25T07:42:05Z</time>
      </trkpt>
      <trkpt lat="47.24193" lon="5.98597">
        <ele>277.4</ele>
        <time>2021-04-25T07:42:06Z</time>
      </trkpt>
      <trkpt lat="47.24186" lon="5.986">
        <ele>276.8</ele>
        <time>2021-04-25T07:42:07Z</time>
      </trkpt>
      <trkpt lat="47.24177" lon="5.98603">
        <ele>276.6</ele>
        <time>2021-04-25T07:42:08Z</time>
      </trkpt>
      <trkpt lat="47.24169" lon="5.98606">
        <ele>276.4</ele>
        <time>2021-04-25T07:42:09Z</time>
      </trkpt>
      <trkpt lat="47.24161" lon="5.98609">
        <ele>276</ele>
        <time>2021-04-25T07:42:10Z</time>
      </trkpt>
      <trkpt lat="47.24155" lon="5.98612">
        <ele>276</ele>
        <time>2021-04-25T07:42:11Z</time>
      </trkpt>
      <trkpt lat="47.24148" lon="5.98615">
        <ele>275.8</ele>
        <time>2021-04-25T07:42:12Z</time>
      </trkpt>
      <trkpt lat="47.24139" lon="5.98618">
        <ele>275.8</ele>
        <time>2021-04-25T07:42:13Z</time>
      </trkpt>
      <trkpt lat="47.24132" lon="5.98621">
        <ele>275.6</ele>
        <time>2021-04-25T07:42:14Z</time>
      </trkpt>
      <trkpt lat="47.24125" lon="5.98623">
        <ele>275.6</ele>
        <time>2021-04-25T07:42:15Z</time>
      </trkpt>
      <trkpt lat="47.24117" lon="5.98625">
        <ele>275.2</ele>
        <time>2021-04-25T07:42:16Z</time>
      </trkpt>
      <trkpt lat="47.2411" lon="5.98627">
        <ele>275.2</ele>
        <time>2021-04-25T07:42:17Z</time>
      </trkpt>
      <trkpt lat="47.24103" lon="5.9863">
        <ele>274.8</ele>
        <time>2021-04-25T07:42:18Z</time>
      </trkpt>
      <trkpt lat="47.24097" lon="5.98634">
        <ele>274.6</ele>
        <time>2021-04-25T07:42:19Z</time>
      </trkpt>
      <trkpt lat="47.2409" lon="5.98637">
        <ele>274.4</ele>
        <time>2021-04-25T07:42:20Z</time>
      </trkpt>
      <trkpt lat="47.24085" lon="5.9864">
        <ele>274.2</ele>
        <time>2021-04-25T07:42:21Z</time>
      </trkpt>
      <trkpt lat="47.24078" lon="5.98645">
        <ele>274.2</ele>
        <time>2021-04-25T07:42:22Z</time>
      </trkpt>
      <trkpt lat="47.24071" lon="5.98649">
        <ele>274</ele>
        <time>2021-04-25T07:42:23Z</time>
      </trkpt>
      <trkpt lat="47.24065" lon="5.98652">
        <ele>274</ele>
        <time>2021-04-25T07:42:24Z</time>
      </trkpt>
      <trkpt lat="47.24061" lon="5.98655">
        <ele>273.8</ele>
        <time>2021-04-25T07:42:25Z</time>
      </trkpt>
      <trkpt lat="47.24055" lon="5.98659">
        <ele>273.6</ele>
        <time>2021-04-25T07:42:26Z</time>
      </trkpt>
      <trkpt lat="47.24047" lon="5.98664">
        <ele>273.4</ele>
        <time>2021-04-25T07:42:27Z</time>
      </trkpt>
      <trkpt lat="47.24042" lon="5.98668">
        <ele>273.2</ele>
        <time>2021-04-25T07:42:28Z</time>
      </trkpt>
      <trkpt lat="47.24036" lon="5.98673">
        <ele>273.2</ele>
        <time>2021-04-25T07:42:29Z</time>
      </trkpt>
      <trkpt lat="47.2403" lon="5.98677">
        <ele>273.2</ele>
        <time>2021-04-25T07:42:30Z</time>
      </trkpt>
      <trkpt lat="47.24025" lon="5.9868">
        <ele>273.2</ele>
        <time>2021-04-25T07:42:31Z</time>
      </trkpt>
      <trkpt lat="47.24018" lon="5.98685">
        <ele>273</ele>
        <time>2021-04-25T07:42:32Z</time>
      </trkpt>
      <trkpt lat="47.24002" lon="5.98696">
        <ele>272.2</ele>
        <time>2021-04-25T07:42:35Z</time>
      </trkpt>
      <trkpt lat="47.23996" lon="5.98701">
        <ele>272</ele>
        <time>2021-04-25T07:42:36Z</time>
      </trkpt>
      <trkpt lat="47.23991" lon="5.98704">
        <ele>271.8</ele>
        <time>2021-04-25T07:42:37Z</time>
      </trkpt>
      <trkpt lat="47.23986" lon="5.98708">
        <ele>271.8</ele>
        <time>2021-04-25T07:42:38Z</time>
      </trkpt>
      <trkpt lat="47.23981" lon="5.98711">
        <ele>271.8</ele>
        <time>2021-04-25T07:42:39Z</time>
      </trkpt>
      <trkpt lat="47.23971" lon="5.98719">
        <ele>271.8</ele>
        <time>2021-04-25T07:42:41Z</time>
      </trkpt>
      <trkpt lat="47.23955" lon="5.9873">
        <ele>272.4</ele>
        <time>2021-04-25T07:42:44Z</time>
      </trkpt>
      <trkpt lat="47.2395" lon="5.98734">
        <ele>272.6</ele>
        <time>2021-04-25T07:42:45Z</time>
      </trkpt>
      <trkpt lat="47.23945" lon="5.98737">
        <ele>272.8</ele>
        <time>2021-04-25T07:42:46Z</time>
      </trkpt>
      <trkpt lat="47.23941" lon="5.9874">
        <ele>273</ele>
        <time>2021-04-25T07:42:47Z</time>
      </trkpt>
      <trkpt lat="47.23936" lon="5.98744">
        <ele>273.2</ele>
        <time>2021-04-25T07:42:48Z</time>
      </trkpt>
      <trkpt lat="47.23932" lon="5.98747">
        <ele>273.4</ele>
        <time>2021-04-25T07:42:49Z</time>
      </trkpt>
      <trkpt lat="47.23928" lon="5.98749">
        <ele>273.6</ele>
        <time>2021-04-25T07:42:50Z</time>
      </trkpt>
      <trkpt lat="47.23923" lon="5.98753">
        <ele>273.8</ele>
        <time>2021-04-25T07:42:51Z</time>
      </trkpt>
      <trkpt lat="47.23919" lon="5.98755">
        <ele>274.2</ele>
        <time>2021-04-25T07:42:52Z</time>
      </trkpt>
      <trkpt lat="47.23915" lon="5.98758">
        <ele>274.4</ele>
        <time>2021-04-25T07:42:53Z</time>
      </trkpt>
      <trkpt lat="47.23911" lon="5.98761">
        <ele>274.4</ele>
        <time>2021-04-25T07:42:54Z</time>
      </trkpt>
      <trkpt lat="47.23908" lon="5.98763">
        <ele>274.6</ele>
        <time>2021-04-25T07:42:55Z</time>
      </trkpt>
      <trkpt lat="47.23903" lon="5.98766">
        <ele>274.8</ele>
        <time>2021-04-25T07:42:56Z</time>
      </trkpt>
      <trkpt lat="47.23899" lon="5.98769">
        <ele>275.2</ele>
        <time>2021-04-25T07:42:57Z</time>
      </trkpt>
      <trkpt lat="47.23895" lon="5.98771">
        <ele>275.2</ele>
        <time>2021-04-25T07:42:58Z</time>
      </trkpt>
      <trkpt lat="47.23892" lon="5.98774">
        <ele>275.4</ele>
        <time>2021-04-25T07:42:59Z</time>
      </trkpt>
      <trkpt lat="47.23887" lon="5.98778">
        <ele>275.6</ele>
        <time>2021-04-25T07:43:00Z</time>
      </trkpt>
      <trkpt lat="47.23883" lon="5.9878">
        <ele>275.4</ele>
        <time>2021-04-25T07:43:01Z</time>
      </trkpt>
      <trkpt lat="47.23879" lon="5.98783">
        <ele>275.6</ele>
        <time>2021-04-25T07:43:02Z</time>
      </trkpt>
      <trkpt lat="47.23876" lon="5.98785">
        <ele>275.8</ele>
        <time>2021-04-25T07:43:03Z</time>
      </trkpt>
      <trkpt lat="47.23872" lon="5.98787">
        <ele>276</ele>
        <time>2021-04-25T07:43:04Z</time>
      </trkpt>
      <trkpt lat="47.23867" lon="5.98789">
        <ele>276</ele>
        <time>2021-04-25T07:43:05Z</time>
      </trkpt>
      <trkpt lat="47.23863" lon="5.9879">
        <ele>276.2</ele>
        <time>2021-04-25T07:43:06Z</time>
      </trkpt>
      <trkpt lat="47.23859" lon="5.98792">
        <ele>276.2</ele>
        <time>2021-04-25T07:43:07Z</time>
      </trkpt>
      <trkpt lat="47.23856" lon="5.98793">
        <ele>276.2</ele>
        <time>2021-04-25T07:43:08Z</time>
      </trkpt>
      <trkpt lat="47.23853" lon="5.98794">
        <ele>276.2</ele>
        <time>2021-04-25T07:43:09Z</time>
      </trkpt>
      <trkpt lat="47.23849" lon="5.98795">
        <ele>276.2</ele>
        <time>2021-04-25T07:43:10Z</time>
      </trkpt>
      <trkpt lat="47.23845" lon="5.98796">
        <ele>276.2</ele>
        <time>2021-04-25T07:43:11Z</time>
      </trkpt>
      <trkpt lat="47.23842" lon="5.98798">
        <ele>276</ele>
        <time>2021-04-25T07:43:12Z</time>
      </trkpt>
      <trkpt lat="47.23838" lon="5.98799">
        <ele>276</ele>
        <time>2021-04-25T07:43:13Z</time>
      </trkpt>
      <trkpt lat="47.23835" lon="5.988">
        <ele>276</ele>
        <time>2021-04-25T07:43:14Z</time>
      </trkpt>
      <trkpt lat="47.23832" lon="5.98801">
        <ele>276</ele>
        <time>2021-04-25T07:43:15Z</time>
      </trkpt>
      <trkpt lat="47.23828" lon="5.98801">
        <ele>276</ele>
        <time>2021-04-25T07:43:16Z</time>
      </trkpt>
      <trkpt lat="47.23825" lon="5.98802">
        <ele>275.8</ele>
        <time>2021-04-25T07:43:17Z</time>
      </trkpt>
      <trkpt lat="47.23821" lon="5.98803">
        <ele>275.8</ele>
        <time>2021-04-25T07:43:18Z</time>
      </trkpt>
      <trkpt lat="47.23795" lon="5.98813">
        <ele>275.8</ele>
        <time>2021-04-25T07:43:23Z</time>
      </trkpt>
      <trkpt lat="47.23767" lon="5.98825">
        <ele>275.6</ele>
        <time>2021-04-25T07:43:28Z</time>
      </trkpt>
      <trkpt lat="47.2376" lon="5.98827">
        <ele>275.4</ele>
        <time>2021-04-25T07:43:29Z</time>
      </trkpt>
      <trkpt lat="47.23754" lon="5.9883">
        <ele>274.8</ele>
        <time>2021-04-25T07:43:30Z</time>
      </trkpt>
      <trkpt lat="47.23749" lon="5.98832">
        <ele>274.4</ele>
        <time>2021-04-25T07:43:31Z</time>
      </trkpt>
      <trkpt lat="47.23703" lon="5.98847">
        <ele>273.4</ele>
        <time>2021-04-25T07:43:39Z</time>
      </trkpt>
      <trkpt lat="47.23697" lon="5.98849">
        <ele>273.2</ele>
        <time>2021-04-25T07:43:40Z</time>
      </trkpt>
      <trkpt lat="47.23646" lon="5.98865">
        <ele>272.2</ele>
        <time>2021-04-25T07:43:49Z</time>
      </trkpt>
      <trkpt lat="47.23629" lon="5.98872">
        <ele>272</ele>
        <time>2021-04-25T07:43:52Z</time>
      </trkpt>
      <trkpt lat="47.23585" lon="5.989">
        <ele>271.2</ele>
        <time>2021-04-25T07:43:59Z</time>
      </trkpt>
      <trkpt lat="47.2358" lon="5.98904">
        <ele>271</ele>
        <time>2021-04-25T07:44:00Z</time>
      </trkpt>
      <trkpt lat="47.23568" lon="5.98913">
        <ele>270.6</ele>
        <time>2021-04-25T07:44:02Z</time>
      </trkpt>
      <trkpt lat="47.23547" lon="5.98927">
        <ele>270.4</ele>
        <time>2021-04-25T07:44:05Z</time>
      </trkpt>
      <trkpt lat="47.23512" lon="5.98944">
        <ele>270.2</ele>
        <time>2021-04-25T07:44:10Z</time>
      </trkpt>
      <trkpt lat="47.23505" lon="5.98946">
        <ele>270</ele>
        <time>2021-04-25T07:44:11Z</time>
      </trkpt>
      <trkpt lat="47.23498" lon="5.98948">
        <ele>270</ele>
        <time>2021-04-25T07:44:12Z</time>
      </trkpt>
      <trkpt lat="47.23492" lon="5.98949">
        <ele>269.8</ele>
        <time>2021-04-25T07:44:13Z</time>
      </trkpt>
      <trkpt lat="47.2348" lon="5.9895">
        <ele>269.8</ele>
        <time>2021-04-25T07:44:15Z</time>
      </trkpt>
      <trkpt lat="47.23474" lon="5.9895">
        <ele>269.8</ele>
        <time>2021-04-25T07:44:16Z</time>
      </trkpt>
      <trkpt lat="47.23467" lon="5.9895">
        <ele>269.8</ele>
        <time>2021-04-25T07:44:17Z</time>
      </trkpt>
      <trkpt lat="47.23461" lon="5.98949">
        <ele>270</ele>
        <time>2021-04-25T07:44:18Z</time>
      </trkpt>
      <trkpt lat="47.23456" lon="5.98948">
        <ele>270</ele>
        <time>2021-04-25T07:44:19Z</time>
      </trkpt>
      <trkpt lat="47.23451" lon="5.98947">
        <ele>270.2</ele>
        <time>2021-04-25T07:44:20Z</time>
      </trkpt>
      <trkpt lat="47.23446" lon="5.98946">
        <ele>270.2</ele>
        <time>2021-04-25T07:44:21Z</time>
      </trkpt>
      <trkpt lat="47.2343" lon="5.98945">
        <ele>270.4</ele>
        <time>2021-04-25T07:44:24Z</time>
      </trkpt>
      <trkpt lat="47.23425" lon="5.98945">
        <ele>270.2</ele>
        <time>2021-04-25T07:44:25Z</time>
      </trkpt>
      <trkpt lat="47.2342" lon="5.98944">
        <ele>270.4</ele>
        <time>2021-04-25T07:44:26Z</time>
      </trkpt>
      <trkpt lat="47.23416" lon="5.98943">
        <ele>270.2</ele>
        <time>2021-04-25T07:44:27Z</time>
      </trkpt>
      <trkpt lat="47.23411" lon="5.98943">
        <ele>270.2</ele>
        <time>2021-04-25T07:44:28Z</time>
      </trkpt>
      <trkpt lat="47.23406" lon="5.98942">
        <ele>270.2</ele>
        <time>2021-04-25T07:44:29Z</time>
      </trkpt>
      <trkpt lat="47.23402" lon="5.98942">
        <ele>270.2</ele>
        <time>2021-04-25T07:44:30Z</time>
      </trkpt>
      <trkpt lat="47.23398" lon="5.98941">
        <ele>270.4</ele>
        <time>2021-04-25T07:44:31Z</time>
      </trkpt>
      <trkpt lat="47.23394" lon="5.9894">
        <ele>270.4</ele>
        <time>2021-04-25T07:44:32Z</time>
      </trkpt>
      <trkpt lat="47.23391" lon="5.98939">
        <ele>270.4</ele>
        <time>2021-04-25T07:44:33Z</time>
      </trkpt>
      <trkpt lat="47.23388" lon="5.98939">
        <ele>270.4</ele>
        <time>2021-04-25T07:44:34Z</time>
      </trkpt>
      <trkpt lat="47.23384" lon="5.98939">
        <ele>270.4</ele>
        <time>2021-04-25T07:44:35Z</time>
      </trkpt>
      <trkpt lat="47.23375" lon="5.98938">
        <ele>270.8</ele>
        <time>2021-04-25T07:44:38Z</time>
      </trkpt>
      <trkpt lat="47.23372" lon="5.98938">
        <ele>270.8</ele>
        <time>2021-04-25T07:44:39Z</time>
      </trkpt>
      <trkpt lat="47.23369" lon="5.98937">
        <ele>270.8</ele>
        <time>2021-04-25T07:44:40Z</time>
      </trkpt>
      <trkpt lat="47.23366" lon="5.98937">
        <ele>271</ele>
        <time>2021-04-25T07:44:41Z</time>
      </trkpt>
      <trkpt lat="47.23362" lon="5.98937">
        <ele>271</ele>
        <time>2021-04-25T07:44:42Z</time>
      </trkpt>
      <trkpt lat="47.23359" lon="5.98938">
        <ele>271</ele>
        <time>2021-04-25T07:44:43Z</time>
      </trkpt>
      <trkpt lat="47.23359" lon="5.98938">
        <ele>271.2</ele>
        <time>2021-04-25T07:44:44Z</time>
      </trkpt>
      <trkpt lat="47.23353" lon="5.98937">
        <ele>271.2</ele>
        <time>2021-04-25T07:44:45Z</time>
      </trkpt>
      <trkpt lat="47.23348" lon="5.98935">
        <ele>271.2</ele>
        <time>2021-04-25T07:44:46Z</time>
      </trkpt>
      <trkpt lat="47.23345" lon="5.98932">
        <ele>271.6</ele>
        <time>2021-04-25T07:44:47Z</time>
      </trkpt>
      <trkpt lat="47.23341" lon="5.98929">
        <ele>271.4</ele>
        <time>2021-04-25T07:44:48Z</time>
      </trkpt>
      <trkpt lat="47.23338" lon="5.98926">
        <ele>271.4</ele>
        <time>2021-04-25T07:44:49Z</time>
      </trkpt>
      <trkpt lat="47.23331" lon="5.98917">
        <ele>271.6</ele>
        <time>2021-04-25T07:44:51Z</time>
      </trkpt>
      <trkpt lat="47.23328" lon="5.98912">
        <ele>271.8</ele>
        <time>2021-04-25T07:44:52Z</time>
      </trkpt>
      <trkpt lat="47.23324" lon="5.98908">
        <ele>271.6</ele>
        <time>2021-04-25T07:44:53Z</time>
      </trkpt>
      <trkpt lat="47.23297" lon="5.98868">
        <ele>272</ele>
        <time>2021-04-25T07:45:01Z</time>
      </trkpt>
      <trkpt lat="47.2329" lon="5.9886">
        <ele>272.4</ele>
        <time>2021-04-25T07:45:03Z</time>
      </trkpt>
      <trkpt lat="47.23275" lon="5.98846">
        <ele>272.6</ele>
        <time>2021-04-25T07:45:06Z</time>
      </trkpt>
      <trkpt lat="47.2327" lon="5.98843">
        <ele>272.8</ele>
        <time>2021-04-25T07:45:07Z</time>
      </trkpt>
      <trkpt lat="47.23264" lon="5.98842">
        <ele>272.8</ele>
        <time>2021-04-25T07:45:08Z</time>
      </trkpt>
      <trkpt lat="47.23259" lon="5.98843">
        <ele>273</ele>
        <time>2021-04-25T07:45:09Z</time>
      </trkpt>
      <trkpt lat="47.23254" lon="5.98846">
        <ele>273</ele>
        <time>2021-04-25T07:45:10Z</time>
      </trkpt>
      <trkpt lat="47.2325" lon="5.9885">
        <ele>273</ele>
        <time>2021-04-25T07:45:11Z</time>
      </trkpt>
      <trkpt lat="47.23246" lon="5.98854">
        <ele>273.2</ele>
        <time>2021-04-25T07:45:12Z</time>
      </trkpt>
      <trkpt lat="47.23242" lon="5.98857">
        <ele>273.2</ele>
        <time>2021-04-25T07:45:13Z</time>
      </trkpt>
      <trkpt lat="47.23238" lon="5.98859">
        <ele>273.4</ele>
        <time>2021-04-25T07:45:14Z</time>
      </trkpt>
      <trkpt lat="47.23234" lon="5.98859">
        <ele>273.4</ele>
        <time>2021-04-25T07:45:15Z</time>
      </trkpt>
      <trkpt lat="47.2323" lon="5.98859">
        <ele>273.6</ele>
        <time>2021-04-25T07:45:16Z</time>
      </trkpt>
      <trkpt lat="47.23226" lon="5.98857">
        <ele>274</ele>
        <time>2021-04-25T07:45:17Z</time>
      </trkpt>
      <trkpt lat="47.23222" lon="5.98854">
        <ele>274.4</ele>
        <time>2021-04-25T07:45:18Z</time>
      </trkpt>
      <trkpt lat="47.23218" lon="5.98851">
        <ele>274.8</ele>
        <time>2021-04-25T07:45:19Z</time>
      </trkpt>
      <trkpt lat="47.23214" lon="5.98849">
        <ele>275.2</ele>
        <time>2021-04-25T07:45:20Z</time>
      </trkpt>
      <trkpt lat="47.23211" lon="5.98845">
        <ele>275.6</ele>
        <time>2021-04-25T07:45:21Z</time>
      </trkpt>
      <trkpt lat="47.23208" lon="5.98842">
        <ele>275.8</ele>
        <time>2021-04-25T07:45:22Z</time>
      </trkpt>
      <trkpt lat="47.23204" lon="5.98838">
        <ele>276</ele>
        <time>2021-04-25T07:45:23Z</time>
      </trkpt>
      <trkpt lat="47.23201" lon="5.98834">
        <ele>276</ele>
        <time>2021-04-25T07:45:24Z</time>
      </trkpt>
      <trkpt lat="47.23198" lon="5.9883">
        <ele>276.2</ele>
        <time>2021-04-25T07:45:25Z</time>
      </trkpt>
      <trkpt lat="47.23194" lon="5.98826">
        <ele>276.4</ele>
        <time>2021-04-25T07:45:26Z</time>
      </trkpt>
      <trkpt lat="47.23192" lon="5.98822">
        <ele>276.4</ele>
        <time>2021-04-25T07:45:27Z</time>
      </trkpt>
      <trkpt lat="47.23189" lon="5.98817">
        <ele>276.6</ele>
        <time>2021-04-25T07:45:28Z</time>
      </trkpt>
      <trkpt lat="47.23186" lon="5.98813">
        <ele>276.6</ele>
        <time>2021-04-25T07:45:29Z</time>
      </trkpt>
      <trkpt lat="47.23183" lon="5.98808">
        <ele>276.8</ele>
        <time>2021-04-25T07:45:30Z</time>
      </trkpt>
      <trkpt lat="47.2318" lon="5.98803">
        <ele>276.8</ele>
        <time>2021-04-25T07:45:31Z</time>
      </trkpt>
      <trkpt lat="47.23178" lon="5.98799">
        <ele>276.8</ele>
        <time>2021-04-25T07:45:32Z</time>
      </trkpt>
      <trkpt lat="47.23175" lon="5.98794">
        <ele>276.8</ele>
        <time>2021-04-25T07:45:33Z</time>
      </trkpt>
      <trkpt lat="47.23173" lon="5.98789">
        <ele>276.8</ele>
        <time>2021-04-25T07:45:34Z</time>
      </trkpt>
      <trkpt lat="47.23171" lon="5.98785">
        <ele>276.8</ele>
        <time>2021-04-25T07:45:35Z</time>
      </trkpt>
      <trkpt lat="47.23169" lon="5.9878">
        <ele>276.8</ele>
        <time>2021-04-25T07:45:36Z</time>
      </trkpt>
      <trkpt lat="47.23167" lon="5.98775">
        <ele>276.8</ele>
        <time>2021-04-25T07:45:37Z</time>
      </trkpt>
      <trkpt lat="47.23164" lon="5.9877">
        <ele>276.8</ele>
        <time>2021-04-25T07:45:38Z</time>
      </trkpt>
      <trkpt lat="47.23162" lon="5.98765">
        <ele>276.8</ele>
        <time>2021-04-25T07:45:39Z</time>
      </trkpt>
      <trkpt lat="47.2316" lon="5.98759">
        <ele>276.8</ele>
        <time>2021-04-25T07:45:40Z</time>
      </trkpt>
      <trkpt lat="47.23158" lon="5.98755">
        <ele>276.8</ele>
        <time>2021-04-25T07:45:41Z</time>
      </trkpt>
      <trkpt lat="47.23155" lon="5.98748">
        <ele>276.6</ele>
        <time>2021-04-25T07:45:42Z</time>
      </trkpt>
      <trkpt lat="47.23152" lon="5.98742">
        <ele>276.6</ele>
        <time>2021-04-25T07:45:43Z</time>
      </trkpt>
      <trkpt lat="47.23149" lon="5.98736">
        <ele>276.6</ele>
        <time>2021-04-25T07:45:44Z</time>
      </trkpt>
      <trkpt lat="47.23146" lon="5.98731">
        <ele>276.4</ele>
        <time>2021-04-25T07:45:45Z</time>
      </trkpt>
      <trkpt lat="47.2313" lon="5.98705">
        <ele>275.6</ele>
        <time>2021-04-25T07:45:50Z</time>
      </trkpt>
      <trkpt lat="47.23115" lon="5.98683">
        <ele>275.4</ele>
        <time>2021-04-25T07:45:54Z</time>
      </trkpt>
      <trkpt lat="47.23086" lon="5.98642">
        <ele>274.6</ele>
        <time>2021-04-25T07:46:01Z</time>
      </trkpt>
      <trkpt lat="47.23077" lon="5.9863">
        <ele>274.4</ele>
        <time>2021-04-25T07:46:03Z</time>
      </trkpt>
      <trkpt lat="47.23057" lon="5.98603">
        <ele>274.2</ele>
        <time>2021-04-25T07:46:08Z</time>
      </trkpt>
      <trkpt lat="47.23054" lon="5.98598">
        <ele>274.2</ele>
        <time>2021-04-25T07:46:09Z</time>
      </trkpt>
      <trkpt lat="47.23051" lon="5.98593">
        <ele>274.2</ele>
        <time>2021-04-25T07:46:10Z</time>
      </trkpt>
      <trkpt lat="47.23048" lon="5.98587">
        <ele>274.2</ele>
        <time>2021-04-25T07:46:11Z</time>
      </trkpt>
      <trkpt lat="47.23046" lon="5.98582">
        <ele>274.2</ele>
        <time>2021-04-25T07:46:12Z</time>
      </trkpt>
      <trkpt lat="47.23043" lon="5.98577">
        <ele>274.2</ele>
        <time>2021-04-25T07:46:13Z</time>
      </trkpt>
      <trkpt lat="47.23038" lon="5.98567">
        <ele>274.2</ele>
        <time>2021-04-25T07:46:15Z</time>
      </trkpt>
      <trkpt lat="47.23035" lon="5.98563">
        <ele>274.2</ele>
        <time>2021-04-25T07:46:16Z</time>
      </trkpt>
      <trkpt lat="47.23033" lon="5.98558">
        <ele>274.2</ele>
        <time>2021-04-25T07:46:17Z</time>
      </trkpt>
      <trkpt lat="47.2303" lon="5.98553">
        <ele>274.2</ele>
        <time>2021-04-25T07:46:18Z</time>
      </trkpt>
      <trkpt lat="47.23028" lon="5.98548">
        <ele>274.2</ele>
        <time>2021-04-25T07:46:19Z</time>
      </trkpt>
      <trkpt lat="47.23025" lon="5.98544">
        <ele>274.2</ele>
        <time>2021-04-25T07:46:20Z</time>
      </trkpt>
      <trkpt lat="47.23023" lon="5.9854">
        <ele>274.2</ele>
        <time>2021-04-25T07:46:21Z</time>
      </trkpt>
      <trkpt lat="47.2302" lon="5.98536">
        <ele>274.2</ele>
        <time>2021-04-25T07:46:22Z</time>
      </trkpt>
      <trkpt lat="47.23017" lon="5.98532">
        <ele>274.2</ele>
        <time>2021-04-25T07:46:23Z</time>
      </trkpt>
      <trkpt lat="47.23014" lon="5.9853">
        <ele>274</ele>
        <time>2021-04-25T07:46:24Z</time>
      </trkpt>
      <trkpt lat="47.23009" lon="5.98531">
        <ele>274</ele>
        <time>2021-04-25T07:46:25Z</time>
      </trkpt>
      <trkpt lat="47.23006" lon="5.98533">
        <ele>274</ele>
        <time>2021-04-25T07:46:26Z</time>
      </trkpt>
      <trkpt lat="47.23004" lon="5.98538">
        <ele>274</ele>
        <time>2021-04-25T07:46:27Z</time>
      </trkpt>
      <trkpt lat="47.23002" lon="5.98543">
        <ele>274</ele>
        <time>2021-04-25T07:46:28Z</time>
      </trkpt>
      <trkpt lat="47.23" lon="5.98548">
        <ele>274</ele>
        <time>2021-04-25T07:46:29Z</time>
      </trkpt>
      <trkpt lat="47.22998" lon="5.98552">
        <ele>273.8</ele>
        <time>2021-04-25T07:46:30Z</time>
      </trkpt>
      <trkpt lat="47.22996" lon="5.98557">
        <ele>273.8</ele>
        <time>2021-04-25T07:46:31Z</time>
      </trkpt>
      <trkpt lat="47.22995" lon="5.98561">
        <ele>273.8</ele>
        <time>2021-04-25T07:46:32Z</time>
      </trkpt>
      <trkpt lat="47.22993" lon="5.98566">
        <ele>273.8</ele>
        <time>2021-04-25T07:46:33Z</time>
      </trkpt>
      <trkpt lat="47.22991" lon="5.9857">
        <ele>273.8</ele>
        <time>2021-04-25T07:46:34Z</time>
      </trkpt>
      <trkpt lat="47.2299" lon="5.98574">
        <ele>274</ele>
        <time>2021-04-25T07:46:35Z</time>
      </trkpt>
      <trkpt lat="47.22988" lon="5.98578">
        <ele>274.2</ele>
        <time>2021-04-25T07:46:36Z</time>
      </trkpt>
      <trkpt lat="47.22987" lon="5.98581">
        <ele>274.4</ele>
        <time>2021-04-25T07:46:37Z</time>
      </trkpt>
      <trkpt lat="47.22985" lon="5.98584">
        <ele>274.6</ele>
        <time>2021-04-25T07:46:38Z</time>
      </trkpt>
      <trkpt lat="47.22982" lon="5.98587">
        <ele>274.8</ele>
        <time>2021-04-25T07:46:39Z</time>
      </trkpt>
      <trkpt lat="47.2298" lon="5.9859">
        <ele>275</ele>
        <time>2021-04-25T07:46:40Z</time>
      </trkpt>
      <trkpt lat="47.22977" lon="5.98592">
        <ele>275.2</ele>
        <time>2021-04-25T07:46:41Z</time>
      </trkpt>
      <trkpt lat="47.22975" lon="5.98595">
        <ele>275.2</ele>
        <time>2021-04-25T07:46:42Z</time>
      </trkpt>
      <trkpt lat="47.22973" lon="5.98598">
        <ele>275.4</ele>
        <time>2021-04-25T07:46:43Z</time>
      </trkpt>
      <trkpt lat="47.22971" lon="5.98601">
        <ele>275.8</ele>
        <time>2021-04-25T07:46:44Z</time>
      </trkpt>
      <trkpt lat="47.22968" lon="5.98603">
        <ele>276</ele>
        <time>2021-04-25T07:46:45Z</time>
      </trkpt>
      <trkpt lat="47.22966" lon="5.98605">
        <ele>276.2</ele>
        <time>2021-04-25T07:46:46Z</time>
      </trkpt>
      <trkpt lat="47.22964" lon="5.98608">
        <ele>276.4</ele>
        <time>2021-04-25T07:46:47Z</time>
      </trkpt>
      <trkpt lat="47.22961" lon="5.98611">
        <ele>276.4</ele>
        <time>2021-04-25T07:46:48Z</time>
      </trkpt>
      <trkpt lat="47.22957" lon="5.98616">
        <ele>277.2</ele>
        <time>2021-04-25T07:46:50Z</time>
      </trkpt>
      <trkpt lat="47.22953" lon="5.9862">
        <ele>277.6</ele>
        <time>2021-04-25T07:46:52Z</time>
      </trkpt>
      <trkpt lat="47.2295" lon="5.98623">
        <ele>278</ele>
        <time>2021-04-25T07:46:53Z</time>
      </trkpt>
      <trkpt lat="47.22947" lon="5.98626">
        <ele>278.2</ele>
        <time>2021-04-25T07:46:54Z</time>
      </trkpt>
      <trkpt lat="47.22945" lon="5.98629">
        <ele>278.4</ele>
        <time>2021-04-25T07:46:55Z</time>
      </trkpt>
      <trkpt lat="47.22943" lon="5.98631">
        <ele>278.6</ele>
        <time>2021-04-25T07:46:56Z</time>
      </trkpt>
      <trkpt lat="47.22941" lon="5.98634">
        <ele>278.8</ele>
        <time>2021-04-25T07:46:57Z</time>
      </trkpt>
      <trkpt lat="47.2294" lon="5.98637">
        <ele>278.8</ele>
        <time>2021-04-25T07:46:58Z</time>
      </trkpt>
      <trkpt lat="47.22938" lon="5.98639">
        <ele>279</ele>
        <time>2021-04-25T07:46:59Z</time>
      </trkpt>
      <trkpt lat="47.22936" lon="5.9864">
        <ele>279.2</ele>
        <time>2021-04-25T07:47:00Z</time>
      </trkpt>
      <trkpt lat="47.22935" lon="5.98641">
        <ele>279.4</ele>
        <time>2021-04-25T07:47:01Z</time>
      </trkpt>
      <trkpt lat="47.22933" lon="5.98643">
        <ele>279.4</ele>
        <time>2021-04-25T07:47:02Z</time>
      </trkpt>
      <trkpt lat="47.22931" lon="5.98644">
        <ele>279.6</ele>
        <time>2021-04-25T07:47:03Z</time>
      </trkpt>
      <trkpt lat="47.22928" lon="5.98644">
        <ele>279.6</ele>
        <time>2021-04-25T07:47:04Z</time>
      </trkpt>
      <trkpt lat="47.22925" lon="5.98643">
        <ele>279.6</ele>
        <time>2021-04-25T07:47:05Z</time>
      </trkpt>
      <trkpt lat="47.22923" lon="5.98643">
        <ele>279.6</ele>
        <time>2021-04-25T07:47:06Z</time>
      </trkpt>
      <trkpt lat="47.22919" lon="5.98642">
        <ele>279.6</ele>
        <time>2021-04-25T07:47:07Z</time>
      </trkpt>
      <trkpt lat="47.22916" lon="5.98641">
        <ele>279.6</ele>
        <time>2021-04-25T07:47:08Z</time>
      </trkpt>
      <trkpt lat="47.22913" lon="5.98639">
        <ele>279.6</ele>
        <time>2021-04-25T07:47:09Z</time>
      </trkpt>
      <trkpt lat="47.22911" lon="5.98637">
        <ele>279.6</ele>
        <time>2021-04-25T07:47:10Z</time>
      </trkpt>
      <trkpt lat="47.22908" lon="5.98636">
        <ele>279.6</ele>
        <time>2021-04-25T07:47:11Z</time>
      </trkpt>
      <trkpt lat="47.22904" lon="5.98635">
        <ele>279.6</ele>
        <time>2021-04-25T07:47:12Z</time>
      </trkpt>
      <trkpt lat="47.229" lon="5.98634">
        <ele>279.6</ele>
        <time>2021-04-25T07:47:13Z</time>
      </trkpt>
      <trkpt lat="47.22896" lon="5.98633">
        <ele>279.6</ele>
        <time>2021-04-25T07:47:14Z</time>
      </trkpt>
      <trkpt lat="47.22893" lon="5.98633">
        <ele>279.6</ele>
        <time>2021-04-25T07:47:15Z</time>
      </trkpt>
      <trkpt lat="47.22888" lon="5.98633">
        <ele>279.6</ele>
        <time>2021-04-25T07:47:16Z</time>
      </trkpt>
      <trkpt lat="47.22884" lon="5.98633">
        <ele>279.8</ele>
        <time>2021-04-25T07:47:17Z</time>
      </trkpt>
      <trkpt lat="47.2288" lon="5.98634">
        <ele>279.8</ele>
        <time>2021-04-25T07:47:18Z</time>
      </trkpt>
      <trkpt lat="47.22876" lon="5.98635">
        <ele>280</ele>
        <time>2021-04-25T07:47:19Z</time>
      </trkpt>
      <trkpt lat="47.22869" lon="5.98638">
        <ele>280</ele>
        <time>2021-04-25T07:47:21Z</time>
      </trkpt>
      <trkpt lat="47.22862" lon="5.98637">
        <ele>280</ele>
        <time>2021-04-25T07:47:23Z</time>
      </trkpt>
      <trkpt lat="47.2286" lon="5.98635">
        <ele>280</ele>
        <time>2021-04-25T07:47:24Z</time>
      </trkpt>
      <trkpt lat="47.22857" lon="5.98632">
        <ele>280</ele>
        <time>2021-04-25T07:47:25Z</time>
      </trkpt>
      <trkpt lat="47.22853" lon="5.98623">
        <ele>280.2</ele>
        <time>2021-04-25T07:47:27Z</time>
      </trkpt>
      <trkpt lat="47.22852" lon="5.98617">
        <ele>280</ele>
        <time>2021-04-25T07:47:28Z</time>
      </trkpt>
      <trkpt lat="47.2285" lon="5.98611">
        <ele>280</ele>
        <time>2021-04-25T07:47:29Z</time>
      </trkpt>
      <trkpt lat="47.22848" lon="5.98605">
        <ele>280</ele>
        <time>2021-04-25T07:47:30Z</time>
      </trkpt>
      <trkpt lat="47.22845" lon="5.98599">
        <ele>279.8</ele>
        <time>2021-04-25T07:47:31Z</time>
      </trkpt>
      <trkpt lat="47.22838" lon="5.98589">
        <ele>279.8</ele>
        <time>2021-04-25T07:47:33Z</time>
      </trkpt>
      <trkpt lat="47.22832" lon="5.98587">
        <ele>279.6</ele>
        <time>2021-04-25T07:47:34Z</time>
      </trkpt>
      <trkpt lat="47.22827" lon="5.98587">
        <ele>279.6</ele>
        <time>2021-04-25T07:47:35Z</time>
      </trkpt>
      <trkpt lat="47.22814" lon="5.98587">
        <ele>279.4</ele>
        <time>2021-04-25T07:47:37Z</time>
      </trkpt>
      <trkpt lat="47.22802" lon="5.98587">
        <ele>279</ele>
        <time>2021-04-25T07:47:39Z</time>
      </trkpt>
      <trkpt lat="47.22772" lon="5.98585">
        <ele>278.4</ele>
        <time>2021-04-25T07:47:44Z</time>
      </trkpt>
      <trkpt lat="47.22752" lon="5.98584">
        <ele>277.4</ele>
        <time>2021-04-25T07:47:47Z</time>
      </trkpt>
      <trkpt lat="47.22739" lon="5.98582">
        <ele>276.6</ele>
        <time>2021-04-25T07:47:49Z</time>
      </trkpt>
      <trkpt lat="47.22728" lon="5.98575">
        <ele>276.4</ele>
        <time>2021-04-25T07:47:51Z</time>
      </trkpt>
      <trkpt lat="47.22718" lon="5.98567">
        <ele>276.2</ele>
        <time>2021-04-25T07:47:53Z</time>
      </trkpt>
      <trkpt lat="47.22695" lon="5.98543">
        <ele>275.6</ele>
        <time>2021-04-25T07:47:57Z</time>
      </trkpt>
      <trkpt lat="47.22685" lon="5.98529">
        <ele>275</ele>
        <time>2021-04-25T07:47:59Z</time>
      </trkpt>
      <trkpt lat="47.22668" lon="5.98497">
        <ele>274</ele>
        <time>2021-04-25T07:48:03Z</time>
      </trkpt>
      <trkpt lat="47.2265" lon="5.98468">
        <ele>272.8</ele>
        <time>2021-04-25T07:48:07Z</time>
      </trkpt>
      <trkpt lat="47.22646" lon="5.98461">
        <ele>272.6</ele>
        <time>2021-04-25T07:48:08Z</time>
      </trkpt>
      <trkpt lat="47.22642" lon="5.98454">
        <ele>272.6</ele>
        <time>2021-04-25T07:48:09Z</time>
      </trkpt>
      <trkpt lat="47.22633" lon="5.98443">
        <ele>272.4</ele>
        <time>2021-04-25T07:48:11Z</time>
      </trkpt>
      <trkpt lat="47.2263" lon="5.98438">
        <ele>272.4</ele>
        <time>2021-04-25T07:48:12Z</time>
      </trkpt>
      <trkpt lat="47.22626" lon="5.98433">
        <ele>272.4</ele>
        <time>2021-04-25T07:48:13Z</time>
      </trkpt>
      <trkpt lat="47.22622" lon="5.98428">
        <ele>272.4</ele>
        <time>2021-04-25T07:48:14Z</time>
      </trkpt>
      <trkpt lat="47.22617" lon="5.98423">
        <ele>272.4</ele>
        <time>2021-04-25T07:48:15Z</time>
      </trkpt>
      <trkpt lat="47.22613" lon="5.98418">
        <ele>272.4</ele>
        <time>2021-04-25T07:48:16Z</time>
      </trkpt>
      <trkpt lat="47.22601" lon="5.98406">
        <ele>272.2</ele>
        <time>2021-04-25T07:48:19Z</time>
      </trkpt>
      <trkpt lat="47.22596" lon="5.98402">
        <ele>272</ele>
        <time>2021-04-25T07:48:20Z</time>
      </trkpt>
      <trkpt lat="47.22592" lon="5.98398">
        <ele>272</ele>
        <time>2021-04-25T07:48:21Z</time>
      </trkpt>
      <trkpt lat="47.22578" lon="5.98386">
        <ele>271.8</ele>
        <time>2021-04-25T07:48:24Z</time>
      </trkpt>
      <trkpt lat="47.22562" lon="5.98376">
        <ele>271.4</ele>
        <time>2021-04-25T07:48:27Z</time>
      </trkpt>
      <trkpt lat="47.22556" lon="5.98373">
        <ele>271.4</ele>
        <time>2021-04-25T07:48:28Z</time>
      </trkpt>
      <trkpt lat="47.2252" lon="5.98354">
        <ele>271</ele>
        <time>2021-04-25T07:48:34Z</time>
      </trkpt>
      <trkpt lat="47.22508" lon="5.98349">
        <ele>270.6</ele>
        <time>2021-04-25T07:48:36Z</time>
      </trkpt>
      <trkpt lat="47.22464" lon="5.98334">
        <ele>269.8</ele>
        <time>2021-04-25T07:48:43Z</time>
      </trkpt>
      <trkpt lat="47.22451" lon="5.98336">
        <ele>269.6</ele>
        <time>2021-04-25T07:48:45Z</time>
      </trkpt>
      <trkpt lat="47.22445" lon="5.9834">
        <ele>269.4</ele>
        <time>2021-04-25T07:48:46Z</time>
      </trkpt>
      <trkpt lat="47.22439" lon="5.98344">
        <ele>269.2</ele>
        <time>2021-04-25T07:48:47Z</time>
      </trkpt>
      <trkpt lat="47.22433" lon="5.98348">
        <ele>269</ele>
        <time>2021-04-25T07:48:48Z</time>
      </trkpt>
      <trkpt lat="47.22427" lon="5.98352">
        <ele>268.6</ele>
        <time>2021-04-25T07:48:49Z</time>
      </trkpt>
      <trkpt lat="47.22421" lon="5.98354">
        <ele>268.2</ele>
        <time>2021-04-25T07:48:50Z</time>
      </trkpt>
      <trkpt lat="47.22414" lon="5.98354">
        <ele>267.8</ele>
        <time>2021-04-25T07:48:51Z</time>
      </trkpt>
      <trkpt lat="47.22409" lon="5.98352">
        <ele>267.4</ele>
        <time>2021-04-25T07:48:52Z</time>
      </trkpt>
      <trkpt lat="47.22402" lon="5.98347">
        <ele>267.2</ele>
        <time>2021-04-25T07:48:53Z</time>
      </trkpt>
      <trkpt lat="47.22394" lon="5.98338">
        <ele>266.6</ele>
        <time>2021-04-25T07:48:54Z</time>
      </trkpt>
      <trkpt lat="47.22388" lon="5.98328">
        <ele>266.4</ele>
        <time>2021-04-25T07:48:55Z</time>
      </trkpt>
      <trkpt lat="47.22383" lon="5.9832">
        <ele>265.6</ele>
        <time>2021-04-25T07:48:56Z</time>
      </trkpt>
      <trkpt lat="47.22369" lon="5.98299">
        <ele>264.6</ele>
        <time>2021-04-25T07:48:58Z</time>
      </trkpt>
      <trkpt lat="47.2236" lon="5.98286">
        <ele>263.2</ele>
        <time>2021-04-25T07:48:59Z</time>
      </trkpt>
      <trkpt lat="47.22342" lon="5.98264">
        <ele>261.8</ele>
        <time>2021-04-25T07:49:01Z</time>
      </trkpt>
      <trkpt lat="47.22323" lon="5.98246">
        <ele>259.2</ele>
        <time>2021-04-25T07:49:03Z</time>
      </trkpt>
      <trkpt lat="47.22304" lon="5.98228">
        <ele>257.8</ele>
        <time>2021-04-25T07:49:05Z</time>
      </trkpt>
      <trkpt lat="47.22295" lon="5.98221">
        <ele>257.2</ele>
        <time>2021-04-25T07:49:06Z</time>
      </trkpt>
      <trkpt lat="47.22286" lon="5.98215">
        <ele>255.6</ele>
        <time>2021-04-25T07:49:07Z</time>
      </trkpt>
      <trkpt lat="47.22278" lon="5.98211">
        <ele>254.4</ele>
        <time>2021-04-25T07:49:08Z</time>
      </trkpt>
      <trkpt lat="47.22269" lon="5.98211">
        <ele>253.8</ele>
        <time>2021-04-25T07:49:09Z</time>
      </trkpt>
      <trkpt lat="47.2226" lon="5.98212">
        <ele>252.8</ele>
        <time>2021-04-25T07:49:10Z</time>
      </trkpt>
      <trkpt lat="47.22253" lon="5.98217">
        <ele>252.4</ele>
        <time>2021-04-25T07:49:11Z</time>
      </trkpt>
      <trkpt lat="47.22222" lon="5.98242">
        <ele>249.4</ele>
        <time>2021-04-25T07:49:16Z</time>
      </trkpt>
      <trkpt lat="47.22217" lon="5.98244">
        <ele>249.2</ele>
        <time>2021-04-25T07:49:17Z</time>
      </trkpt>
      <trkpt lat="47.22212" lon="5.98246">
        <ele>249.2</ele>
        <time>2021-04-25T07:49:18Z</time>
      </trkpt>
      <trkpt lat="47.22209" lon="5.98247">
        <ele>249</ele>
        <time>2021-04-25T07:49:19Z</time>
      </trkpt>
      <trkpt lat="47.22207" lon="5.98245">
        <ele>249</ele>
        <time>2021-04-25T07:49:20Z</time>
      </trkpt>
      <trkpt lat="47.22205" lon="5.98244">
        <ele>249</ele>
        <time>2021-04-25T07:49:21Z</time>
      </trkpt>
      <trkpt lat="47.22205" lon="5.98239">
        <ele>249</ele>
        <time>2021-04-25T07:49:22Z</time>
      </trkpt>
      <trkpt lat="47.22205" lon="5.98235">
        <ele>249</ele>
        <time>2021-04-25T07:49:23Z</time>
      </trkpt>
      <trkpt lat="47.22204" lon="5.9823">
        <ele>249</ele>
        <time>2021-04-25T07:49:24Z</time>
      </trkpt>
      <trkpt lat="47.22202" lon="5.98227">
        <ele>249</ele>
        <time>2021-04-25T07:49:25Z</time>
      </trkpt>
      <trkpt lat="47.222" lon="5.98223">
        <ele>249.2</ele>
        <time>2021-04-25T07:49:26Z</time>
      </trkpt>
      <trkpt lat="47.22197" lon="5.98221">
        <ele>249.2</ele>
        <time>2021-04-25T07:49:27Z</time>
      </trkpt>
      <trkpt lat="47.22193" lon="5.98218">
        <ele>249.2</ele>
        <time>2021-04-25T07:49:28Z</time>
      </trkpt>
      <trkpt lat="47.2219" lon="5.98216">
        <ele>249.2</ele>
        <time>2021-04-25T07:49:29Z</time>
      </trkpt>
      <trkpt lat="47.22186" lon="5.98215">
        <ele>249.2</ele>
        <time>2021-04-25T07:49:30Z</time>
      </trkpt>
      <trkpt lat="47.22178" lon="5.98212">
        <ele>249.2</ele>
        <time>2021-04-25T07:49:32Z</time>
      </trkpt>
      <trkpt lat="47.22175" lon="5.98211">
        <ele>249.2</ele>
        <time>2021-04-25T07:49:33Z</time>
      </trkpt>
      <trkpt lat="47.22172" lon="5.9821">
        <ele>249.2</ele>
        <time>2021-04-25T07:49:34Z</time>
      </trkpt>
      <trkpt lat="47.22169" lon="5.98209">
        <ele>249.2</ele>
        <time>2021-04-25T07:49:35Z</time>
      </trkpt>
      <trkpt lat="47.22166" lon="5.98208">
        <ele>249.2</ele>
        <time>2021-04-25T07:49:36Z</time>
      </trkpt>
      <trkpt lat="47.22163" lon="5.98207">
        <ele>249.2</ele>
        <time>2021-04-25T07:49:37Z</time>
      </trkpt>
      <trkpt lat="47.22139" lon="5.98199">
        <ele>249.4</ele>
        <time>2021-04-25T07:49:45Z</time>
      </trkpt>
      <trkpt lat="47.22118" lon="5.98204">
        <ele>249.8</ele>
        <time>2021-04-25T07:49:51Z</time>
      </trkpt>
      <trkpt lat="47.22089" lon="5.98208">
        <ele>250</ele>
        <time>2021-04-25T07:49:59Z</time>
      </trkpt>
      <trkpt lat="47.22054" lon="5.98213">
        <ele>250.2</ele>
        <time>2021-04-25T07:50:08Z</time>
      </trkpt>
      <trkpt lat="47.2202" lon="5.98219">
        <ele>250.2</ele>
        <time>2021-04-25T07:50:16Z</time>
      </trkpt>
      <trkpt lat="47.22015" lon="5.98221">
        <ele>250.2</ele>
        <time>2021-04-25T07:50:17Z</time>
      </trkpt>
      <trkpt lat="47.21993" lon="5.98233">
        <ele>250.2</ele>
        <time>2021-04-25T07:50:22Z</time>
      </trkpt>
      <trkpt lat="47.21984" lon="5.98238">
        <ele>250.2</ele>
        <time>2021-04-25T07:50:24Z</time>
      </trkpt>
      <trkpt lat="47.21976" lon="5.98244">
        <ele>250.2</ele>
        <time>2021-04-25T07:50:26Z</time>
      </trkpt>
      <trkpt lat="47.21958" lon="5.98261">
        <ele>249.8</ele>
        <time>2021-04-25T07:50:30Z</time>
      </trkpt>
      <trkpt lat="47.21931" lon="5.98293">
        <ele>249.8</ele>
        <time>2021-04-25T07:50:37Z</time>
      </trkpt>
      <trkpt lat="47.21927" lon="5.98297">
        <ele>249.8</ele>
        <time>2021-04-25T07:50:38Z</time>
      </trkpt>
      <trkpt lat="47.21924" lon="5.98301">
        <ele>249.8</ele>
        <time>2021-04-25T07:50:39Z</time>
      </trkpt>
      <trkpt lat="47.2192" lon="5.98306">
        <ele>250</ele>
        <time>2021-04-25T07:50:40Z</time>
      </trkpt>
      <trkpt lat="47.21913" lon="5.98316">
        <ele>250</ele>
        <time>2021-04-25T07:50:42Z</time>
      </trkpt>
      <trkpt lat="47.21909" lon="5.98321">
        <ele>250</ele>
        <time>2021-04-25T07:50:43Z</time>
      </trkpt>
      <trkpt lat="47.21906" lon="5.98326">
        <ele>250</ele>
        <time>2021-04-25T07:50:44Z</time>
      </trkpt>
      <trkpt lat="47.21902" lon="5.98331">
        <ele>250</ele>
        <time>2021-04-25T07:50:45Z</time>
      </trkpt>
      <trkpt lat="47.21899" lon="5.98335">
        <ele>250</ele>
        <time>2021-04-25T07:50:46Z</time>
      </trkpt>
      <trkpt lat="47.21893" lon="5.98344">
        <ele>250</ele>
        <time>2021-04-25T07:50:48Z</time>
      </trkpt>
      <trkpt lat="47.2189" lon="5.98348">
        <ele>250</ele>
        <time>2021-04-25T07:50:49Z</time>
      </trkpt>
      <trkpt lat="47.21887" lon="5.98352">
        <ele>250</ele>
        <time>2021-04-25T07:50:50Z</time>
      </trkpt>
      <trkpt lat="47.21884" lon="5.98356">
        <ele>250</ele>
        <time>2021-04-25T07:50:51Z</time>
      </trkpt>
      <trkpt lat="47.2188" lon="5.9836">
        <ele>250</ele>
        <time>2021-04-25T07:50:52Z</time>
      </trkpt>
      <trkpt lat="47.21877" lon="5.98364">
        <ele>250</ele>
        <time>2021-04-25T07:50:53Z</time>
      </trkpt>
      <trkpt lat="47.21874" lon="5.98369">
        <ele>250</ele>
        <time>2021-04-25T07:50:54Z</time>
      </trkpt>
      <trkpt lat="47.2187" lon="5.98374">
        <ele>250.2</ele>
        <time>2021-04-25T07:50:55Z</time>
      </trkpt>
      <trkpt lat="47.21867" lon="5.98378">
        <ele>250.2</ele>
        <time>2021-04-25T07:50:56Z</time>
      </trkpt>
      <trkpt lat="47.21837" lon="5.98424">
        <ele>250.2</ele>
        <time>2021-04-25T07:51:05Z</time>
      </trkpt>
      <trkpt lat="47.21827" lon="5.98441">
        <ele>250.4</ele>
        <time>2021-04-25T07:51:08Z</time>
      </trkpt>
      <trkpt lat="47.21824" lon="5.98446">
        <ele>250.4</ele>
        <time>2021-04-25T07:51:09Z</time>
      </trkpt>
      <trkpt lat="47.21821" lon="5.98451">
        <ele>250.4</ele>
        <time>2021-04-25T07:51:10Z</time>
      </trkpt>
      <trkpt lat="47.21818" lon="5.98455">
        <ele>250.4</ele>
        <time>2021-04-25T07:51:11Z</time>
      </trkpt>
      <trkpt lat="47.21815" lon="5.9846">
        <ele>250.4</ele>
        <time>2021-04-25T07:51:12Z</time>
      </trkpt>
      <trkpt lat="47.21813" lon="5.98464">
        <ele>250.4</ele>
        <time>2021-04-25T07:51:13Z</time>
      </trkpt>
      <trkpt lat="47.21811" lon="5.98469">
        <ele>250.4</ele>
        <time>2021-04-25T07:51:14Z</time>
      </trkpt>
      <trkpt lat="47.21808" lon="5.98474">
        <ele>250.4</ele>
        <time>2021-04-25T07:51:15Z</time>
      </trkpt>
      <trkpt lat="47.21806" lon="5.98479">
        <ele>250.6</ele>
        <time>2021-04-25T07:51:16Z</time>
      </trkpt>
      <trkpt lat="47.21803" lon="5.98485">
        <ele>250.6</ele>
        <time>2021-04-25T07:51:17Z</time>
      </trkpt>
      <trkpt lat="47.21801" lon="5.9849">
        <ele>250.6</ele>
        <time>2021-04-25T07:51:18Z</time>
      </trkpt>
      <trkpt lat="47.21798" lon="5.98494">
        <ele>250.8</ele>
        <time>2021-04-25T07:51:19Z</time>
      </trkpt>
      <trkpt lat="47.21796" lon="5.985">
        <ele>251</ele>
        <time>2021-04-25T07:51:20Z</time>
      </trkpt>
      <trkpt lat="47.21793" lon="5.98505">
        <ele>251.2</ele>
        <time>2021-04-25T07:51:21Z</time>
      </trkpt>
      <trkpt lat="47.2178" lon="5.98537">
        <ele>251.4</ele>
        <time>2021-04-25T07:51:27Z</time>
      </trkpt>
      <trkpt lat="47.21777" lon="5.98541">
        <ele>251.4</ele>
        <time>2021-04-25T07:51:28Z</time>
      </trkpt>
      <trkpt lat="47.21775" lon="5.98546">
        <ele>251.4</ele>
        <time>2021-04-25T07:51:29Z</time>
      </trkpt>
      <trkpt lat="47.21759" lon="5.98576">
        <ele>251.6</ele>
        <time>2021-04-25T07:51:35Z</time>
      </trkpt>
      <trkpt lat="47.21757" lon="5.98581">
        <ele>251.6</ele>
        <time>2021-04-25T07:51:36Z</time>
      </trkpt>
      <trkpt lat="47.21754" lon="5.98586">
        <ele>251.6</ele>
        <time>2021-04-25T07:51:37Z</time>
      </trkpt>
      <trkpt lat="47.2175" lon="5.98595">
        <ele>251.6</ele>
        <time>2021-04-25T07:51:39Z</time>
      </trkpt>
      <trkpt lat="47.21747" lon="5.986">
        <ele>251.8</ele>
        <time>2021-04-25T07:51:40Z</time>
      </trkpt>
      <trkpt lat="47.21745" lon="5.98604">
        <ele>251.8</ele>
        <time>2021-04-25T07:51:41Z</time>
      </trkpt>
      <trkpt lat="47.21742" lon="5.98608">
        <ele>251.8</ele>
        <time>2021-04-25T07:51:42Z</time>
      </trkpt>
      <trkpt lat="47.21739" lon="5.98612">
        <ele>252</ele>
        <time>2021-04-25T07:51:43Z</time>
      </trkpt>
      <trkpt lat="47.21736" lon="5.98617">
        <ele>252</ele>
        <time>2021-04-25T07:51:44Z</time>
      </trkpt>
      <trkpt lat="47.21733" lon="5.98621">
        <ele>252</ele>
        <time>2021-04-25T07:51:45Z</time>
      </trkpt>
      <trkpt lat="47.21726" lon="5.98629">
        <ele>252.2</ele>
        <time>2021-04-25T07:51:47Z</time>
      </trkpt>
      <trkpt lat="47.21723" lon="5.98632">
        <ele>252.2</ele>
        <time>2021-04-25T07:51:48Z</time>
      </trkpt>
      <trkpt lat="47.21709" lon="5.98648">
        <ele>252.4</ele>
        <time>2021-04-25T07:51:52Z</time>
      </trkpt>
      <trkpt lat="47.21682" lon="5.9867">
        <ele>253.2</ele>
        <time>2021-04-25T07:51:59Z</time>
      </trkpt>
      <trkpt lat="47.21676" lon="5.98675">
        <ele>253.2</ele>
        <time>2021-04-25T07:52:01Z</time>
      </trkpt>
      <trkpt lat="47.21673" lon="5.98677">
        <ele>253.4</ele>
        <time>2021-04-25T07:52:02Z</time>
      </trkpt>
      <trkpt lat="47.2167" lon="5.9868">
        <ele>253.4</ele>
        <time>2021-04-25T07:52:03Z</time>
      </trkpt>
      <trkpt lat="47.21667" lon="5.98681">
        <ele>253.6</ele>
        <time>2021-04-25T07:52:04Z</time>
      </trkpt>
      <trkpt lat="47.21665" lon="5.98683">
        <ele>253.6</ele>
        <time>2021-04-25T07:52:05Z</time>
      </trkpt>
      <trkpt lat="47.21663" lon="5.98685">
        <ele>253.6</ele>
        <time>2021-04-25T07:52:06Z</time>
      </trkpt>
      <trkpt lat="47.21661" lon="5.98687">
        <ele>253.6</ele>
        <time>2021-04-25T07:52:07Z</time>
      </trkpt>
      <trkpt lat="47.21658" lon="5.98689">
        <ele>253.8</ele>
        <time>2021-04-25T07:52:08Z</time>
      </trkpt>
      <trkpt lat="47.21648" lon="5.98697">
        <ele>254</ele>
        <time>2021-04-25T07:52:12Z</time>
      </trkpt>
      <trkpt lat="47.21646" lon="5.98697">
        <ele>254</ele>
        <time>2021-04-25T07:52:13Z</time>
      </trkpt>
      <trkpt lat="47.21644" lon="5.98698">
        <ele>254.2</ele>
        <time>2021-04-25T07:52:14Z</time>
      </trkpt>
      <trkpt lat="47.21643" lon="5.98699">
        <ele>254.2</ele>
        <time>2021-04-25T07:52:15Z</time>
      </trkpt>
      <trkpt lat="47.21641" lon="5.987">
        <ele>254.2</ele>
        <time>2021-04-25T07:52:16Z</time>
      </trkpt>
      <trkpt lat="47.21639" lon="5.98701">
        <ele>254.2</ele>
        <time>2021-04-25T07:52:17Z</time>
      </trkpt>
      <trkpt lat="47.21639" lon="5.98703">
        <ele>254.2</ele>
        <time>2021-04-25T07:52:18Z</time>
      </trkpt>
      <trkpt lat="47.21638" lon="5.98705">
        <ele>254.4</ele>
        <time>2021-04-25T07:52:19Z</time>
      </trkpt>
      <trkpt lat="47.21637" lon="5.98708">
        <ele>254.4</ele>
        <time>2021-04-25T07:52:20Z</time>
      </trkpt>
      <trkpt lat="47.21633" lon="5.9871">
        <ele>254.4</ele>
        <time>2021-04-25T07:52:22Z</time>
      </trkpt>
      <trkpt lat="47.21631" lon="5.98709">
        <ele>254.4</ele>
        <time>2021-04-25T07:52:23Z</time>
      </trkpt>
      <trkpt lat="47.21631" lon="5.98706">
        <ele>254.4</ele>
        <time>2021-04-25T07:52:24Z</time>
      </trkpt>
      <trkpt lat="47.21631" lon="5.98704">
        <ele>254.6</ele>
        <time>2021-04-25T07:52:25Z</time>
      </trkpt>
      <trkpt lat="47.21631" lon="5.98703">
        <ele>254.6</ele>
        <time>2021-04-25T07:52:26Z</time>
      </trkpt>
      <trkpt lat="47.21631" lon="5.98699">
        <ele>254.6</ele>
        <time>2021-04-25T07:52:27Z</time>
      </trkpt>
      <trkpt lat="47.21632" lon="5.98695">
        <ele>254.6</ele>
        <time>2021-04-25T07:52:28Z</time>
      </trkpt>
      <trkpt lat="47.21632" lon="5.98693">
        <ele>254.8</ele>
        <time>2021-04-25T07:52:29Z</time>
      </trkpt>
      <trkpt lat="47.21632" lon="5.98692">
        <ele>254.8</ele>
        <time>2021-04-25T07:52:30Z</time>
      </trkpt>
      <trkpt lat="47.21632" lon="5.98691">
        <ele>255</ele>
        <time>2021-04-25T07:52:31Z</time>
      </trkpt>
      <trkpt lat="47.21632" lon="5.98691">
        <ele>255.4</ele>
        <time>2021-04-25T07:52:34Z</time>
      </trkpt>
      <trkpt lat="47.21632" lon="5.98691">
        <ele>255.6</ele>
        <time>2021-04-25T07:52:58Z</time>
      </trkpt>
      <trkpt lat="47.21632" lon="5.98691">
        <ele>255.6</ele>
        <time>2021-04-25T07:53:27Z</time>
      </trkpt>
      <trkpt lat="47.21632" lon="5.98691">
        <ele>256</ele>
        <time>2021-04-25T07:53:42Z</time>
      </trkpt>
      <trkpt lat="47.21632" lon="5.98691">
        <ele>256</ele>
        <time>2021-04-25T07:54:08Z</time>
      </trkpt>
      <trkpt lat="47.21632" lon="5.98691">
        <ele>256.2</ele>
        <time>2021-04-25T07:54:21Z</time>
      </trkpt>
      <trkpt lat="47.21631" lon="5.98687">
        <ele>256.2</ele>
        <time>2021-04-25T07:54:24Z</time>
      </trkpt>
      <trkpt lat="47.2163" lon="5.98683">
        <ele>256.4</ele>
        <time>2021-04-25T07:54:27Z</time>
      </trkpt>
      <trkpt lat="47.21626" lon="5.98675">
        <ele>256.8</ele>
        <time>2021-04-25T07:54:30Z</time>
      </trkpt>
      <trkpt lat="47.21625" lon="5.98674">
        <ele>257</ele>
        <time>2021-04-25T07:54:31Z</time>
      </trkpt>
      <trkpt lat="47.21624" lon="5.98673">
        <ele>257.2</ele>
        <time>2021-04-25T07:54:32Z</time>
      </trkpt>
      <trkpt lat="47.21623" lon="5.9867">
        <ele>257.4</ele>
        <time>2021-04-25T07:54:33Z</time>
      </trkpt>
      <trkpt lat="47.21621" lon="5.98666">
        <ele>257.4</ele>
        <time>2021-04-25T07:54:34Z</time>
      </trkpt>
      <trkpt lat="47.21617" lon="5.98659">
        <ele>257.8</ele>
        <time>2021-04-25T07:54:36Z</time>
      </trkpt>
      <trkpt lat="47.21615" lon="5.98657">
        <ele>258</ele>
        <time>2021-04-25T07:54:37Z</time>
      </trkpt>
      <trkpt lat="47.2161" lon="5.98652">
        <ele>258.2</ele>
        <time>2021-04-25T07:54:39Z</time>
      </trkpt>
      <trkpt lat="47.21602" lon="5.98648">
        <ele>259.2</ele>
        <time>2021-04-25T07:54:42Z</time>
      </trkpt>
      <trkpt lat="47.21599" lon="5.98647">
        <ele>259.4</ele>
        <time>2021-04-25T07:54:43Z</time>
      </trkpt>
      <trkpt lat="47.21597" lon="5.98646">
        <ele>259.6</ele>
        <time>2021-04-25T07:54:44Z</time>
      </trkpt>
      <trkpt lat="47.21594" lon="5.98643">
        <ele>259.8</ele>
        <time>2021-04-25T07:54:45Z</time>
      </trkpt>
      <trkpt lat="47.21592" lon="5.98641">
        <ele>259.8</ele>
        <time>2021-04-25T07:54:46Z</time>
      </trkpt>
      <trkpt lat="47.2159" lon="5.98639">
        <ele>260</ele>
        <time>2021-04-25T07:54:47Z</time>
      </trkpt>
      <trkpt lat="47.21587" lon="5.98638">
        <ele>260</ele>
        <time>2021-04-25T07:54:48Z</time>
      </trkpt>
      <trkpt lat="47.21585" lon="5.98636">
        <ele>260</ele>
        <time>2021-04-25T07:54:49Z</time>
      </trkpt>
      <trkpt lat="47.21584" lon="5.98634">
        <ele>260.2</ele>
        <time>2021-04-25T07:54:50Z</time>
      </trkpt>
      <trkpt lat="47.21582" lon="5.98633">
        <ele>260.4</ele>
        <time>2021-04-25T07:54:51Z</time>
      </trkpt>
      <trkpt lat="47.21579" lon="5.98631">
        <ele>260.4</ele>
        <time>2021-04-25T07:54:52Z</time>
      </trkpt>
      <trkpt lat="47.21577" lon="5.98631">
        <ele>260.6</ele>
        <time>2021-04-25T07:54:53Z</time>
      </trkpt>
      <trkpt lat="47.21575" lon="5.98631">
        <ele>260.8</ele>
        <time>2021-04-25T07:54:54Z</time>
      </trkpt>
      <trkpt lat="47.21573" lon="5.9863">
        <ele>261</ele>
        <time>2021-04-25T07:54:55Z</time>
      </trkpt>
      <trkpt lat="47.21571" lon="5.9863">
        <ele>261</ele>
        <time>2021-04-25T07:54:56Z</time>
      </trkpt>
      <trkpt lat="47.21569" lon="5.98629">
        <ele>261.2</ele>
        <time>2021-04-25T07:54:57Z</time>
      </trkpt>
      <trkpt lat="47.21567" lon="5.98628">
        <ele>261.2</ele>
        <time>2021-04-25T07:54:58Z</time>
      </trkpt>
      <trkpt lat="47.21565" lon="5.98627">
        <ele>261.4</ele>
        <time>2021-04-25T07:54:59Z</time>
      </trkpt>
      <trkpt lat="47.21563" lon="5.98626">
        <ele>261.6</ele>
        <time>2021-04-25T07:55:00Z</time>
      </trkpt>
      <trkpt lat="47.21561" lon="5.98624">
        <ele>261.8</ele>
        <time>2021-04-25T07:55:01Z</time>
      </trkpt>
      <trkpt lat="47.21559" lon="5.98623">
        <ele>262</ele>
        <time>2021-04-25T07:55:02Z</time>
      </trkpt>
      <trkpt lat="47.21557" lon="5.98622">
        <ele>262</ele>
        <time>2021-04-25T07:55:03Z</time>
      </trkpt>
      <trkpt lat="47.21556" lon="5.98621">
        <ele>262</ele>
        <time>2021-04-25T07:55:04Z</time>
      </trkpt>
      <trkpt lat="47.21554" lon="5.9862">
        <ele>262.2</ele>
        <time>2021-04-25T07:55:05Z</time>
      </trkpt>
      <trkpt lat="47.21551" lon="5.9862">
        <ele>262.4</ele>
        <time>2021-04-25T07:55:06Z</time>
      </trkpt>
      <trkpt lat="47.21549" lon="5.98619">
        <ele>262.4</ele>
        <time>2021-04-25T07:55:07Z</time>
      </trkpt>
      <trkpt lat="47.21547" lon="5.98618">
        <ele>262.6</ele>
        <time>2021-04-25T07:55:08Z</time>
      </trkpt>
      <trkpt lat="47.21545" lon="5.98617">
        <ele>262.8</ele>
        <time>2021-04-25T07:55:09Z</time>
      </trkpt>
      <trkpt lat="47.21543" lon="5.98616">
        <ele>262.8</ele>
        <time>2021-04-25T07:55:10Z</time>
      </trkpt>
      <trkpt lat="47.2154" lon="5.98616">
        <ele>263</ele>
        <time>2021-04-25T07:55:11Z</time>
      </trkpt>
      <trkpt lat="47.21538" lon="5.98616">
        <ele>263.2</ele>
        <time>2021-04-25T07:55:12Z</time>
      </trkpt>
      <trkpt lat="47.21536" lon="5.98615">
        <ele>263.4</ele>
        <time>2021-04-25T07:55:13Z</time>
      </trkpt>
      <trkpt lat="47.21533" lon="5.98615">
        <ele>263.4</ele>
        <time>2021-04-25T07:55:14Z</time>
      </trkpt>
      <trkpt lat="47.21531" lon="5.98614">
        <ele>263.6</ele>
        <time>2021-04-25T07:55:15Z</time>
      </trkpt>
      <trkpt lat="47.21529" lon="5.98613">
        <ele>263.8</ele>
        <time>2021-04-25T07:55:16Z</time>
      </trkpt>
      <trkpt lat="47.21527" lon="5.98613">
        <ele>264</ele>
        <time>2021-04-25T07:55:17Z</time>
      </trkpt>
      <trkpt lat="47.21524" lon="5.98612">
        <ele>264.2</ele>
        <time>2021-04-25T07:55:18Z</time>
      </trkpt>
      <trkpt lat="47.21522" lon="5.98611">
        <ele>264.2</ele>
        <time>2021-04-25T07:55:19Z</time>
      </trkpt>
      <trkpt lat="47.2152" lon="5.98611">
        <ele>264.4</ele>
        <time>2021-04-25T07:55:20Z</time>
      </trkpt>
      <trkpt lat="47.21518" lon="5.9861">
        <ele>264.6</ele>
        <time>2021-04-25T07:55:21Z</time>
      </trkpt>
      <trkpt lat="47.21515" lon="5.9861">
        <ele>264.6</ele>
        <time>2021-04-25T07:55:22Z</time>
      </trkpt>
      <trkpt lat="47.21513" lon="5.98609">
        <ele>264.8</ele>
        <time>2021-04-25T07:55:23Z</time>
      </trkpt>
      <trkpt lat="47.21511" lon="5.98608">
        <ele>265</ele>
        <time>2021-04-25T07:55:24Z</time>
      </trkpt>
      <trkpt lat="47.21509" lon="5.98607">
        <ele>265.2</ele>
        <time>2021-04-25T07:55:25Z</time>
      </trkpt>
      <trkpt lat="47.21507" lon="5.98607">
        <ele>265.2</ele>
        <time>2021-04-25T07:55:26Z</time>
      </trkpt>
      <trkpt lat="47.21505" lon="5.98606">
        <ele>265.4</ele>
        <time>2021-04-25T07:55:27Z</time>
      </trkpt>
      <trkpt lat="47.21503" lon="5.98605">
        <ele>265.6</ele>
        <time>2021-04-25T07:55:28Z</time>
      </trkpt>
      <trkpt lat="47.21501" lon="5.98604">
        <ele>265.8</ele>
        <time>2021-04-25T07:55:29Z</time>
      </trkpt>
      <trkpt lat="47.21499" lon="5.98603">
        <ele>265.8</ele>
        <time>2021-04-25T07:55:30Z</time>
      </trkpt>
      <trkpt lat="47.21497" lon="5.98602">
        <ele>266</ele>
        <time>2021-04-25T07:55:31Z</time>
      </trkpt>
      <trkpt lat="47.21495" lon="5.98601">
        <ele>266</ele>
        <time>2021-04-25T07:55:32Z</time>
      </trkpt>
      <trkpt lat="47.21493" lon="5.98601">
        <ele>266.4</ele>
        <time>2021-04-25T07:55:33Z</time>
      </trkpt>
      <trkpt lat="47.21491" lon="5.986">
        <ele>266.6</ele>
        <time>2021-04-25T07:55:34Z</time>
      </trkpt>
      <trkpt lat="47.21489" lon="5.986">
        <ele>266.6</ele>
        <time>2021-04-25T07:55:35Z</time>
      </trkpt>
      <trkpt lat="47.21487" lon="5.98599">
        <ele>266.8</ele>
        <time>2021-04-25T07:55:36Z</time>
      </trkpt>
      <trkpt lat="47.21485" lon="5.98598">
        <ele>266.8</ele>
        <time>2021-04-25T07:55:37Z</time>
      </trkpt>
      <trkpt lat="47.21483" lon="5.98597">
        <ele>267</ele>
        <time>2021-04-25T07:55:38Z</time>
      </trkpt>
      <trkpt lat="47.21481" lon="5.98596">
        <ele>267.2</ele>
        <time>2021-04-25T07:55:39Z</time>
      </trkpt>
      <trkpt lat="47.21479" lon="5.98595">
        <ele>267.2</ele>
        <time>2021-04-25T07:55:40Z</time>
      </trkpt>
      <trkpt lat="47.21477" lon="5.98595">
        <ele>267.6</ele>
        <time>2021-04-25T07:55:41Z</time>
      </trkpt>
      <trkpt lat="47.21475" lon="5.98594">
        <ele>267.6</ele>
        <time>2021-04-25T07:55:42Z</time>
      </trkpt>
      <trkpt lat="47.21472" lon="5.98593">
        <ele>267.6</ele>
        <time>2021-04-25T07:55:43Z</time>
      </trkpt>
      <trkpt lat="47.2147" lon="5.98593">
        <ele>267.8</ele>
        <time>2021-04-25T07:55:44Z</time>
      </trkpt>
      <trkpt lat="47.21468" lon="5.98592">
        <ele>267.8</ele>
        <time>2021-04-25T07:55:45Z</time>
      </trkpt>
      <trkpt lat="47.21466" lon="5.98592">
        <ele>267.8</ele>
        <time>2021-04-25T07:55:46Z</time>
      </trkpt>
      <trkpt lat="47.21464" lon="5.98591">
        <ele>268.6</ele>
        <time>2021-04-25T07:55:47Z</time>
      </trkpt>
      <trkpt lat="47.21462" lon="5.98591">
        <ele>268.6</ele>
        <time>2021-04-25T07:55:48Z</time>
      </trkpt>
      <trkpt lat="47.21461" lon="5.9859">
        <ele>268.8</ele>
        <time>2021-04-25T07:55:49Z</time>
      </trkpt>
      <trkpt lat="47.21459" lon="5.98589">
        <ele>269</ele>
        <time>2021-04-25T07:55:50Z</time>
      </trkpt>
      <trkpt lat="47.21457" lon="5.98588">
        <ele>269.2</ele>
        <time>2021-04-25T07:55:51Z</time>
      </trkpt>
      <trkpt lat="47.21455" lon="5.98587">
        <ele>269.4</ele>
        <time>2021-04-25T07:55:52Z</time>
      </trkpt>
      <trkpt lat="47.21453" lon="5.98587">
        <ele>269.4</ele>
        <time>2021-04-25T07:55:53Z</time>
      </trkpt>
      <trkpt lat="47.21451" lon="5.98586">
        <ele>269.6</ele>
        <time>2021-04-25T07:55:54Z</time>
      </trkpt>
      <trkpt lat="47.21449" lon="5.98586">
        <ele>269.6</ele>
        <time>2021-04-25T07:55:55Z</time>
      </trkpt>
      <trkpt lat="47.21448" lon="5.98585">
        <ele>270</ele>
        <time>2021-04-25T07:55:56Z</time>
      </trkpt>
      <trkpt lat="47.21446" lon="5.98585">
        <ele>270.2</ele>
        <time>2021-04-25T07:55:57Z</time>
      </trkpt>
      <trkpt lat="47.21444" lon="5.98584">
        <ele>270.6</ele>
        <time>2021-04-25T07:55:58Z</time>
      </trkpt>
      <trkpt lat="47.21442" lon="5.98583">
        <ele>270.6</ele>
        <time>2021-04-25T07:55:59Z</time>
      </trkpt>
      <trkpt lat="47.2144" lon="5.98583">
        <ele>270.8</ele>
        <time>2021-04-25T07:56:00Z</time>
      </trkpt>
      <trkpt lat="47.21439" lon="5.98582">
        <ele>271</ele>
        <time>2021-04-25T07:56:01Z</time>
      </trkpt>
      <trkpt lat="47.21437" lon="5.98582">
        <ele>271.4</ele>
        <time>2021-04-25T07:56:02Z</time>
      </trkpt>
      <trkpt lat="47.21435" lon="5.98582">
        <ele>271.6</ele>
        <time>2021-04-25T07:56:03Z</time>
      </trkpt>
      <trkpt lat="47.21434" lon="5.98581">
        <ele>271.8</ele>
        <time>2021-04-25T07:56:04Z</time>
      </trkpt>
      <trkpt lat="47.21432" lon="5.98581">
        <ele>272</ele>
        <time>2021-04-25T07:56:05Z</time>
      </trkpt>
      <trkpt lat="47.21431" lon="5.98581">
        <ele>272</ele>
        <time>2021-04-25T07:56:06Z</time>
      </trkpt>
      <trkpt lat="47.21429" lon="5.9858">
        <ele>272.4</ele>
        <time>2021-04-25T07:56:07Z</time>
      </trkpt>
      <trkpt lat="47.21427" lon="5.9858">
        <ele>272.6</ele>
        <time>2021-04-25T07:56:08Z</time>
      </trkpt>
      <trkpt lat="47.21425" lon="5.98581">
        <ele>272.6</ele>
        <time>2021-04-25T07:56:09Z</time>
      </trkpt>
      <trkpt lat="47.21423" lon="5.9858">
        <ele>272.8</ele>
        <time>2021-04-25T07:56:10Z</time>
      </trkpt>
      <trkpt lat="47.21422" lon="5.9858">
        <ele>273</ele>
        <time>2021-04-25T07:56:11Z</time>
      </trkpt>
      <trkpt lat="47.2142" lon="5.9858">
        <ele>273</ele>
        <time>2021-04-25T07:56:12Z</time>
      </trkpt>
      <trkpt lat="47.21418" lon="5.98579">
        <ele>273.2</ele>
        <time>2021-04-25T07:56:13Z</time>
      </trkpt>
      <trkpt lat="47.21417" lon="5.98579">
        <ele>273.4</ele>
        <time>2021-04-25T07:56:14Z</time>
      </trkpt>
      <trkpt lat="47.21415" lon="5.98579">
        <ele>273.8</ele>
        <time>2021-04-25T07:56:15Z</time>
      </trkpt>
      <trkpt lat="47.21414" lon="5.98579">
        <ele>274</ele>
        <time>2021-04-25T07:56:16Z</time>
      </trkpt>
      <trkpt lat="47.21412" lon="5.98579">
        <ele>274.4</ele>
        <time>2021-04-25T07:56:17Z</time>
      </trkpt>
      <trkpt lat="47.2141" lon="5.98579">
        <ele>274.4</ele>
        <time>2021-04-25T07:56:18Z</time>
      </trkpt>
      <trkpt lat="47.21409" lon="5.98579">
        <ele>274.6</ele>
        <time>2021-04-25T07:56:19Z</time>
      </trkpt>
      <trkpt lat="47.21407" lon="5.98579">
        <ele>274.8</ele>
        <time>2021-04-25T07:56:20Z</time>
      </trkpt>
      <trkpt lat="47.21405" lon="5.98579">
        <ele>275</ele>
        <time>2021-04-25T07:56:21Z</time>
      </trkpt>
      <trkpt lat="47.21404" lon="5.98578">
        <ele>275</ele>
        <time>2021-04-25T07:56:22Z</time>
      </trkpt>
      <trkpt lat="47.21402" lon="5.98578">
        <ele>275.2</ele>
        <time>2021-04-25T07:56:23Z</time>
      </trkpt>
      <trkpt lat="47.21401" lon="5.98578">
        <ele>275.4</ele>
        <time>2021-04-25T07:56:24Z</time>
      </trkpt>
      <trkpt lat="47.21399" lon="5.98578">
        <ele>275.6</ele>
        <time>2021-04-25T07:56:25Z</time>
      </trkpt>
      <trkpt lat="47.21397" lon="5.98578">
        <ele>275.8</ele>
        <time>2021-04-25T07:56:26Z</time>
      </trkpt>
      <trkpt lat="47.21396" lon="5.98579">
        <ele>275.8</ele>
        <time>2021-04-25T07:56:27Z</time>
      </trkpt>
      <trkpt lat="47.21394" lon="5.98579">
        <ele>276</ele>
        <time>2021-04-25T07:56:28Z</time>
      </trkpt>
      <trkpt lat="47.21393" lon="5.98579">
        <ele>276.2</ele>
        <time>2021-04-25T07:56:29Z</time>
      </trkpt>
      <trkpt lat="47.21391" lon="5.98579">
        <ele>276.4</ele>
        <time>2021-04-25T07:56:30Z</time>
      </trkpt>
      <trkpt lat="47.21389" lon="5.98579">
        <ele>276.6</ele>
        <time>2021-04-25T07:56:31Z</time>
      </trkpt>
      <trkpt lat="47.21388" lon="5.9858">
        <ele>276.6</ele>
        <time>2021-04-25T07:56:32Z</time>
      </trkpt>
      <trkpt lat="47.21386" lon="5.9858">
        <ele>276.8</ele>
        <time>2021-04-25T07:56:33Z</time>
      </trkpt>
      <trkpt lat="47.21384" lon="5.9858">
        <ele>277</ele>
        <time>2021-04-25T07:56:34Z</time>
      </trkpt>
      <trkpt lat="47.21382" lon="5.9858">
        <ele>277.2</ele>
        <time>2021-04-25T07:56:35Z</time>
      </trkpt>
      <trkpt lat="47.21381" lon="5.98581">
        <ele>277.4</ele>
        <time>2021-04-25T07:56:36Z</time>
      </trkpt>
      <trkpt lat="47.21379" lon="5.98581">
        <ele>277.4</ele>
        <time>2021-04-25T07:56:37Z</time>
      </trkpt>
      <trkpt lat="47.21377" lon="5.98581">
        <ele>277.6</ele>
        <time>2021-04-25T07:56:38Z</time>
      </trkpt>
      <trkpt lat="47.21375" lon="5.98581">
        <ele>277.6</ele>
        <time>2021-04-25T07:56:39Z</time>
      </trkpt>
      <trkpt lat="47.21374" lon="5.98582">
        <ele>277.8</ele>
        <time>2021-04-25T07:56:40Z</time>
      </trkpt>
      <trkpt lat="47.21372" lon="5.98582">
        <ele>278</ele>
        <time>2021-04-25T07:56:41Z</time>
      </trkpt>
      <trkpt lat="47.2137" lon="5.98583">
        <ele>278.2</ele>
        <time>2021-04-25T07:56:42Z</time>
      </trkpt>
      <trkpt lat="47.21368" lon="5.98583">
        <ele>278.2</ele>
        <time>2021-04-25T07:56:43Z</time>
      </trkpt>
      <trkpt lat="47.21366" lon="5.98583">
        <ele>278.6</ele>
        <time>2021-04-25T07:56:44Z</time>
      </trkpt>
      <trkpt lat="47.21364" lon="5.98583">
        <ele>278.6</ele>
        <time>2021-04-25T07:56:45Z</time>
      </trkpt>
      <trkpt lat="47.21362" lon="5.98584">
        <ele>279</ele>
        <time>2021-04-25T07:56:46Z</time>
      </trkpt>
      <trkpt lat="47.21361" lon="5.98584">
        <ele>279</ele>
        <time>2021-04-25T07:56:47Z</time>
      </trkpt>
      <trkpt lat="47.21359" lon="5.98585">
        <ele>279.2</ele>
        <time>2021-04-25T07:56:48Z</time>
      </trkpt>
      <trkpt lat="47.21357" lon="5.98585">
        <ele>279.4</ele>
        <time>2021-04-25T07:56:49Z</time>
      </trkpt>
      <trkpt lat="47.21355" lon="5.98585">
        <ele>279.4</ele>
        <time>2021-04-25T07:56:50Z</time>
      </trkpt>
      <trkpt lat="47.21354" lon="5.98586">
        <ele>279.6</ele>
        <time>2021-04-25T07:56:51Z</time>
      </trkpt>
      <trkpt lat="47.21352" lon="5.98586">
        <ele>279.8</ele>
        <time>2021-04-25T07:56:52Z</time>
      </trkpt>
      <trkpt lat="47.2135" lon="5.98587">
        <ele>280</ele>
        <time>2021-04-25T07:56:53Z</time>
      </trkpt>
      <trkpt lat="47.21348" lon="5.98588">
        <ele>280</ele>
        <time>2021-04-25T07:56:54Z</time>
      </trkpt>
      <trkpt lat="47.21346" lon="5.98589">
        <ele>280.2</ele>
        <time>2021-04-25T07:56:55Z</time>
      </trkpt>
      <trkpt lat="47.21345" lon="5.9859">
        <ele>280.4</ele>
        <time>2021-04-25T07:56:56Z</time>
      </trkpt>
      <trkpt lat="47.21343" lon="5.9859">
        <ele>280.6</ele>
        <time>2021-04-25T07:56:57Z</time>
      </trkpt>
      <trkpt lat="47.21342" lon="5.98591">
        <ele>280.8</ele>
        <time>2021-04-25T07:56:58Z</time>
      </trkpt>
      <trkpt lat="47.2134" lon="5.98592">
        <ele>280.8</ele>
        <time>2021-04-25T07:56:59Z</time>
      </trkpt>
      <trkpt lat="47.21338" lon="5.98592">
        <ele>281.2</ele>
        <time>2021-04-25T07:57:00Z</time>
      </trkpt>
      <trkpt lat="47.21336" lon="5.98592">
        <ele>281.4</ele>
        <time>2021-04-25T07:57:01Z</time>
      </trkpt>
      <trkpt lat="47.21335" lon="5.98593">
        <ele>281.6</ele>
        <time>2021-04-25T07:57:02Z</time>
      </trkpt>
      <trkpt lat="47.21333" lon="5.98593">
        <ele>281.6</ele>
        <time>2021-04-25T07:57:03Z</time>
      </trkpt>
      <trkpt lat="47.21331" lon="5.98594">
        <ele>281.8</ele>
        <time>2021-04-25T07:57:04Z</time>
      </trkpt>
      <trkpt lat="47.2133" lon="5.98594">
        <ele>282</ele>
        <time>2021-04-25T07:57:05Z</time>
      </trkpt>
      <trkpt lat="47.21327" lon="5.98594">
        <ele>282.2</ele>
        <time>2021-04-25T07:57:06Z</time>
      </trkpt>
      <trkpt lat="47.21325" lon="5.98595">
        <ele>282.6</ele>
        <time>2021-04-25T07:57:07Z</time>
      </trkpt>
      <trkpt lat="47.21324" lon="5.98595">
        <ele>282.6</ele>
        <time>2021-04-25T07:57:08Z</time>
      </trkpt>
      <trkpt lat="47.21323" lon="5.98594">
        <ele>282.6</ele>
        <time>2021-04-25T07:57:09Z</time>
      </trkpt>
      <trkpt lat="47.2132" lon="5.98594">
        <ele>282.8</ele>
        <time>2021-04-25T07:57:10Z</time>
      </trkpt>
      <trkpt lat="47.21319" lon="5.98594">
        <ele>283</ele>
        <time>2021-04-25T07:57:11Z</time>
      </trkpt>
      <trkpt lat="47.21317" lon="5.98594">
        <ele>283.2</ele>
        <time>2021-04-25T07:57:12Z</time>
      </trkpt>
      <trkpt lat="47.21316" lon="5.98594">
        <ele>283.4</ele>
        <time>2021-04-25T07:57:13Z</time>
      </trkpt>
      <trkpt lat="47.21314" lon="5.98595">
        <ele>283.6</ele>
        <time>2021-04-25T07:57:14Z</time>
      </trkpt>
      <trkpt lat="47.21313" lon="5.98595">
        <ele>283.8</ele>
        <time>2021-04-25T07:57:15Z</time>
      </trkpt>
      <trkpt lat="47.21311" lon="5.98595">
        <ele>284</ele>
        <time>2021-04-25T07:57:16Z</time>
      </trkpt>
      <trkpt lat="47.21309" lon="5.98595">
        <ele>284</ele>
        <time>2021-04-25T07:57:17Z</time>
      </trkpt>
      <trkpt lat="47.21308" lon="5.98595">
        <ele>284.2</ele>
        <time>2021-04-25T07:57:18Z</time>
      </trkpt>
      <trkpt lat="47.21306" lon="5.98596">
        <ele>284.4</ele>
        <time>2021-04-25T07:57:19Z</time>
      </trkpt>
      <trkpt lat="47.21304" lon="5.98596">
        <ele>284.6</ele>
        <time>2021-04-25T07:57:20Z</time>
      </trkpt>
      <trkpt lat="47.21302" lon="5.98596">
        <ele>284.8</ele>
        <time>2021-04-25T07:57:21Z</time>
      </trkpt>
      <trkpt lat="47.21301" lon="5.98596">
        <ele>284.8</ele>
        <time>2021-04-25T07:57:22Z</time>
      </trkpt>
      <trkpt lat="47.21299" lon="5.98596">
        <ele>285.2</ele>
        <time>2021-04-25T07:57:23Z</time>
      </trkpt>
      <trkpt lat="47.21298" lon="5.98596">
        <ele>285.2</ele>
        <time>2021-04-25T07:57:24Z</time>
      </trkpt>
      <trkpt lat="47.21296" lon="5.98596">
        <ele>285.4</ele>
        <time>2021-04-25T07:57:25Z</time>
      </trkpt>
      <trkpt lat="47.21294" lon="5.98596">
        <ele>285.4</ele>
        <time>2021-04-25T07:57:26Z</time>
      </trkpt>
      <trkpt lat="47.21292" lon="5.98597">
        <ele>285.6</ele>
        <time>2021-04-25T07:57:27Z</time>
      </trkpt>
      <trkpt lat="47.2129" lon="5.98597">
        <ele>285.8</ele>
        <time>2021-04-25T07:57:28Z</time>
      </trkpt>
      <trkpt lat="47.21289" lon="5.98597">
        <ele>286</ele>
        <time>2021-04-25T07:57:29Z</time>
      </trkpt>
      <trkpt lat="47.21287" lon="5.98596">
        <ele>286.2</ele>
        <time>2021-04-25T07:57:30Z</time>
      </trkpt>
      <trkpt lat="47.21286" lon="5.98596">
        <ele>286.2</ele>
        <time>2021-04-25T07:57:31Z</time>
      </trkpt>
      <trkpt lat="47.21284" lon="5.98596">
        <ele>286.4</ele>
        <time>2021-04-25T07:57:32Z</time>
      </trkpt>
      <trkpt lat="47.21283" lon="5.98596">
        <ele>286.4</ele>
        <time>2021-04-25T07:57:33Z</time>
      </trkpt>
      <trkpt lat="47.21281" lon="5.98596">
        <ele>286.4</ele>
        <time>2021-04-25T07:57:34Z</time>
      </trkpt>
      <trkpt lat="47.21279" lon="5.98596">
        <ele>286.6</ele>
        <time>2021-04-25T07:57:35Z</time>
      </trkpt>
      <trkpt lat="47.21277" lon="5.98596">
        <ele>286.8</ele>
        <time>2021-04-25T07:57:36Z</time>
      </trkpt>
      <trkpt lat="47.21276" lon="5.98596">
        <ele>287</ele>
        <time>2021-04-25T07:57:37Z</time>
      </trkpt>
      <trkpt lat="47.21274" lon="5.98597">
        <ele>287.2</ele>
        <time>2021-04-25T07:57:38Z</time>
      </trkpt>
      <trkpt lat="47.21273" lon="5.98597">
        <ele>287.4</ele>
        <time>2021-04-25T07:57:39Z</time>
      </trkpt>
      <trkpt lat="47.21272" lon="5.98596">
        <ele>287.4</ele>
        <time>2021-04-25T07:57:40Z</time>
      </trkpt>
      <trkpt lat="47.2127" lon="5.98597">
        <ele>287.6</ele>
        <time>2021-04-25T07:57:41Z</time>
      </trkpt>
      <trkpt lat="47.21269" lon="5.98597">
        <ele>287.6</ele>
        <time>2021-04-25T07:57:42Z</time>
      </trkpt>
      <trkpt lat="47.21267" lon="5.98597">
        <ele>288</ele>
        <time>2021-04-25T07:57:43Z</time>
      </trkpt>
      <trkpt lat="47.21266" lon="5.98598">
        <ele>288.2</ele>
        <time>2021-04-25T07:57:44Z</time>
      </trkpt>
      <trkpt lat="47.21265" lon="5.98597">
        <ele>288.4</ele>
        <time>2021-04-25T07:57:45Z</time>
      </trkpt>
      <trkpt lat="47.21263" lon="5.98597">
        <ele>288.6</ele>
        <time>2021-04-25T07:57:46Z</time>
      </trkpt>
      <trkpt lat="47.21262" lon="5.98598">
        <ele>288.6</ele>
        <time>2021-04-25T07:57:47Z</time>
      </trkpt>
      <trkpt lat="47.2126" lon="5.98598">
        <ele>288.8</ele>
        <time>2021-04-25T07:57:48Z</time>
      </trkpt>
      <trkpt lat="47.21258" lon="5.98598">
        <ele>288.8</ele>
        <time>2021-04-25T07:57:49Z</time>
      </trkpt>
      <trkpt lat="47.21255" lon="5.98599">
        <ele>289</ele>
        <time>2021-04-25T07:57:50Z</time>
      </trkpt>
      <trkpt lat="47.21253" lon="5.98599">
        <ele>289</ele>
        <time>2021-04-25T07:57:51Z</time>
      </trkpt>
      <trkpt lat="47.21252" lon="5.986">
        <ele>289.2</ele>
        <time>2021-04-25T07:57:52Z</time>
      </trkpt>
      <trkpt lat="47.2125" lon="5.986">
        <ele>289.6</ele>
        <time>2021-04-25T07:57:53Z</time>
      </trkpt>
      <trkpt lat="47.21248" lon="5.986">
        <ele>289.8</ele>
        <time>2021-04-25T07:57:54Z</time>
      </trkpt>
      <trkpt lat="47.21246" lon="5.98601">
        <ele>290</ele>
        <time>2021-04-25T07:57:55Z</time>
      </trkpt>
      <trkpt lat="47.21245" lon="5.98602">
        <ele>290</ele>
        <time>2021-04-25T07:57:56Z</time>
      </trkpt>
      <trkpt lat="47.21243" lon="5.98602">
        <ele>290.2</ele>
        <time>2021-04-25T07:57:57Z</time>
      </trkpt>
      <trkpt lat="47.21242" lon="5.98602">
        <ele>290.4</ele>
        <time>2021-04-25T07:57:58Z</time>
      </trkpt>
      <trkpt lat="47.2124" lon="5.98602">
        <ele>290.4</ele>
        <time>2021-04-25T07:57:59Z</time>
      </trkpt>
      <trkpt lat="47.21238" lon="5.98603">
        <ele>290.6</ele>
        <time>2021-04-25T07:58:00Z</time>
      </trkpt>
      <trkpt lat="47.21236" lon="5.98602">
        <ele>290.8</ele>
        <time>2021-04-25T07:58:01Z</time>
      </trkpt>
      <trkpt lat="47.21235" lon="5.98603">
        <ele>291</ele>
        <time>2021-04-25T07:58:02Z</time>
      </trkpt>
      <trkpt lat="47.21233" lon="5.98604">
        <ele>291</ele>
        <time>2021-04-25T07:58:03Z</time>
      </trkpt>
      <trkpt lat="47.21231" lon="5.98605">
        <ele>291.4</ele>
        <time>2021-04-25T07:58:04Z</time>
      </trkpt>
      <trkpt lat="47.21229" lon="5.98605">
        <ele>291.4</ele>
        <time>2021-04-25T07:58:05Z</time>
      </trkpt>
      <trkpt lat="47.21227" lon="5.98606">
        <ele>291.8</ele>
        <time>2021-04-25T07:58:06Z</time>
      </trkpt>
      <trkpt lat="47.21226" lon="5.98606">
        <ele>291.8</ele>
        <time>2021-04-25T07:58:07Z</time>
      </trkpt>
      <trkpt lat="47.21225" lon="5.98606">
        <ele>292.2</ele>
        <time>2021-04-25T07:58:08Z</time>
      </trkpt>
      <trkpt lat="47.21223" lon="5.98606">
        <ele>292.2</ele>
        <time>2021-04-25T07:58:09Z</time>
      </trkpt>
      <trkpt lat="47.21221" lon="5.98607">
        <ele>292.4</ele>
        <time>2021-04-25T07:58:10Z</time>
      </trkpt>
      <trkpt lat="47.2122" lon="5.98606">
        <ele>292.6</ele>
        <time>2021-04-25T07:58:11Z</time>
      </trkpt>
      <trkpt lat="47.21218" lon="5.98606">
        <ele>292.6</ele>
        <time>2021-04-25T07:58:12Z</time>
      </trkpt>
      <trkpt lat="47.21216" lon="5.98607">
        <ele>292.8</ele>
        <time>2021-04-25T07:58:13Z</time>
      </trkpt>
      <trkpt lat="47.21214" lon="5.98607">
        <ele>292.8</ele>
        <time>2021-04-25T07:58:14Z</time>
      </trkpt>
      <trkpt lat="47.21211" lon="5.98607">
        <ele>293</ele>
        <time>2021-04-25T07:58:15Z</time>
      </trkpt>
      <trkpt lat="47.21209" lon="5.98609">
        <ele>293.2</ele>
        <time>2021-04-25T07:58:16Z</time>
      </trkpt>
      <trkpt lat="47.21207" lon="5.98609">
        <ele>293.4</ele>
        <time>2021-04-25T07:58:17Z</time>
      </trkpt>
      <trkpt lat="47.21206" lon="5.9861">
        <ele>293.8</ele>
        <time>2021-04-25T07:58:18Z</time>
      </trkpt>
      <trkpt lat="47.21204" lon="5.9861">
        <ele>293.8</ele>
        <time>2021-04-25T07:58:19Z</time>
      </trkpt>
      <trkpt lat="47.21202" lon="5.98611">
        <ele>294</ele>
        <time>2021-04-25T07:58:20Z</time>
      </trkpt>
      <trkpt lat="47.21201" lon="5.98612">
        <ele>294.2</ele>
        <time>2021-04-25T07:58:21Z</time>
      </trkpt>
      <trkpt lat="47.212" lon="5.98612">
        <ele>294.2</ele>
        <time>2021-04-25T07:58:22Z</time>
      </trkpt>
      <trkpt lat="47.21199" lon="5.98612">
        <ele>294.2</ele>
        <time>2021-04-25T07:58:23Z</time>
      </trkpt>
      <trkpt lat="47.21198" lon="5.98613">
        <ele>294.6</ele>
        <time>2021-04-25T07:58:24Z</time>
      </trkpt>
      <trkpt lat="47.21196" lon="5.98613">
        <ele>294.6</ele>
        <time>2021-04-25T07:58:25Z</time>
      </trkpt>
      <trkpt lat="47.21194" lon="5.98614">
        <ele>294.8</ele>
        <time>2021-04-25T07:58:26Z</time>
      </trkpt>
      <trkpt lat="47.21193" lon="5.98613">
        <ele>295</ele>
        <time>2021-04-25T07:58:27Z</time>
      </trkpt>
      <trkpt lat="47.21191" lon="5.98614">
        <ele>295.2</ele>
        <time>2021-04-25T07:58:28Z</time>
      </trkpt>
      <trkpt lat="47.21189" lon="5.98614">
        <ele>295.4</ele>
        <time>2021-04-25T07:58:29Z</time>
      </trkpt>
      <trkpt lat="47.21187" lon="5.98615">
        <ele>295.4</ele>
        <time>2021-04-25T07:58:30Z</time>
      </trkpt>
      <trkpt lat="47.21185" lon="5.98615">
        <ele>295.6</ele>
        <time>2021-04-25T07:58:31Z</time>
      </trkpt>
      <trkpt lat="47.21184" lon="5.98616">
        <ele>295.6</ele>
        <time>2021-04-25T07:58:32Z</time>
      </trkpt>
      <trkpt lat="47.21182" lon="5.98615">
        <ele>295.8</ele>
        <time>2021-04-25T07:58:33Z</time>
      </trkpt>
      <trkpt lat="47.21181" lon="5.98615">
        <ele>296</ele>
        <time>2021-04-25T07:58:34Z</time>
      </trkpt>
      <trkpt lat="47.2118" lon="5.98616">
        <ele>296.2</ele>
        <time>2021-04-25T07:58:35Z</time>
      </trkpt>
      <trkpt lat="47.21178" lon="5.98616">
        <ele>296.4</ele>
        <time>2021-04-25T07:58:36Z</time>
      </trkpt>
      <trkpt lat="47.21176" lon="5.98616">
        <ele>296.6</ele>
        <time>2021-04-25T07:58:37Z</time>
      </trkpt>
      <trkpt lat="47.21175" lon="5.98616">
        <ele>296.8</ele>
        <time>2021-04-25T07:58:38Z</time>
      </trkpt>
      <trkpt lat="47.21173" lon="5.98617">
        <ele>296.8</ele>
        <time>2021-04-25T07:58:39Z</time>
      </trkpt>
      <trkpt lat="47.21171" lon="5.98617">
        <ele>297</ele>
        <time>2021-04-25T07:58:40Z</time>
      </trkpt>
      <trkpt lat="47.2117" lon="5.98618">
        <ele>297.2</ele>
        <time>2021-04-25T07:58:41Z</time>
      </trkpt>
      <trkpt lat="47.21169" lon="5.98617">
        <ele>297.4</ele>
        <time>2021-04-25T07:58:42Z</time>
      </trkpt>
      <trkpt lat="47.21167" lon="5.98618">
        <ele>297.6</ele>
        <time>2021-04-25T07:58:43Z</time>
      </trkpt>
      <trkpt lat="47.21164" lon="5.98618">
        <ele>297.8</ele>
        <time>2021-04-25T07:58:44Z</time>
      </trkpt>
      <trkpt lat="47.21162" lon="5.98619">
        <ele>297.8</ele>
        <time>2021-04-25T07:58:45Z</time>
      </trkpt>
      <trkpt lat="47.21161" lon="5.98619">
        <ele>298</ele>
        <time>2021-04-25T07:58:46Z</time>
      </trkpt>
      <trkpt lat="47.21159" lon="5.9862">
        <ele>298.2</ele>
        <time>2021-04-25T07:58:47Z</time>
      </trkpt>
      <trkpt lat="47.21157" lon="5.9862">
        <ele>298.4</ele>
        <time>2021-04-25T07:58:48Z</time>
      </trkpt>
      <trkpt lat="47.21155" lon="5.9862">
        <ele>298.6</ele>
        <time>2021-04-25T07:58:49Z</time>
      </trkpt>
      <trkpt lat="47.21153" lon="5.9862">
        <ele>298.8</ele>
        <time>2021-04-25T07:58:50Z</time>
      </trkpt>
      <trkpt lat="47.21151" lon="5.9862">
        <ele>298.8</ele>
        <time>2021-04-25T07:58:51Z</time>
      </trkpt>
      <trkpt lat="47.21149" lon="5.98621">
        <ele>299.2</ele>
        <time>2021-04-25T07:58:52Z</time>
      </trkpt>
      <trkpt lat="47.21147" lon="5.98622">
        <ele>299.4</ele>
        <time>2021-04-25T07:58:53Z</time>
      </trkpt>
      <trkpt lat="47.21145" lon="5.98623">
        <ele>299.6</ele>
        <time>2021-04-25T07:58:54Z</time>
      </trkpt>
      <trkpt lat="47.21144" lon="5.98622">
        <ele>299.6</ele>
        <time>2021-04-25T07:58:55Z</time>
      </trkpt>
      <trkpt lat="47.21142" lon="5.98622">
        <ele>299.8</ele>
        <time>2021-04-25T07:58:56Z</time>
      </trkpt>
      <trkpt lat="47.2114" lon="5.98622">
        <ele>300</ele>
        <time>2021-04-25T07:58:57Z</time>
      </trkpt>
      <trkpt lat="47.21138" lon="5.98622">
        <ele>300.2</ele>
        <time>2021-04-25T07:58:58Z</time>
      </trkpt>
      <trkpt lat="47.21136" lon="5.98622">
        <ele>300.6</ele>
        <time>2021-04-25T07:58:59Z</time>
      </trkpt>
      <trkpt lat="47.21134" lon="5.98622">
        <ele>300.6</ele>
        <time>2021-04-25T07:59:00Z</time>
      </trkpt>
      <trkpt lat="47.21132" lon="5.98623">
        <ele>301</ele>
        <time>2021-04-25T07:59:01Z</time>
      </trkpt>
      <trkpt lat="47.2113" lon="5.98623">
        <ele>301.2</ele>
        <time>2021-04-25T07:59:02Z</time>
      </trkpt>
      <trkpt lat="47.21128" lon="5.98623">
        <ele>301.4</ele>
        <time>2021-04-25T07:59:03Z</time>
      </trkpt>
      <trkpt lat="47.21126" lon="5.98623">
        <ele>301.4</ele>
        <time>2021-04-25T07:59:04Z</time>
      </trkpt>
      <trkpt lat="47.21124" lon="5.98624">
        <ele>301.6</ele>
        <time>2021-04-25T07:59:05Z</time>
      </trkpt>
      <trkpt lat="47.21122" lon="5.98625">
        <ele>301.6</ele>
        <time>2021-04-25T07:59:06Z</time>
      </trkpt>
      <trkpt lat="47.2112" lon="5.98625">
        <ele>301.8</ele>
        <time>2021-04-25T07:59:07Z</time>
      </trkpt>
      <trkpt lat="47.21118" lon="5.98626">
        <ele>302</ele>
        <time>2021-04-25T07:59:08Z</time>
      </trkpt>
      <trkpt lat="47.21116" lon="5.98626">
        <ele>302.2</ele>
        <time>2021-04-25T07:59:09Z</time>
      </trkpt>
      <trkpt lat="47.21115" lon="5.98625">
        <ele>302.6</ele>
        <time>2021-04-25T07:59:10Z</time>
      </trkpt>
      <trkpt lat="47.21115" lon="5.98624">
        <ele>302.6</ele>
        <time>2021-04-25T07:59:11Z</time>
      </trkpt>
      <trkpt lat="47.21113" lon="5.98623">
        <ele>302.8</ele>
        <time>2021-04-25T07:59:12Z</time>
      </trkpt>
      <trkpt lat="47.21111" lon="5.98625">
        <ele>302.8</ele>
        <time>2021-04-25T07:59:13Z</time>
      </trkpt>
      <trkpt lat="47.21109" lon="5.98625">
        <ele>303</ele>
        <time>2021-04-25T07:59:14Z</time>
      </trkpt>
      <trkpt lat="47.21107" lon="5.98626">
        <ele>303</ele>
        <time>2021-04-25T07:59:15Z</time>
      </trkpt>
      <trkpt lat="47.21105" lon="5.98626">
        <ele>303.2</ele>
        <time>2021-04-25T07:59:16Z</time>
      </trkpt>
      <trkpt lat="47.21104" lon="5.98626">
        <ele>303.2</ele>
        <time>2021-04-25T07:59:17Z</time>
      </trkpt>
      <trkpt lat="47.21102" lon="5.98626">
        <ele>303.4</ele>
        <time>2021-04-25T07:59:18Z</time>
      </trkpt>
      <trkpt lat="47.211" lon="5.98626">
        <ele>303.6</ele>
        <time>2021-04-25T07:59:19Z</time>
      </trkpt>
      <trkpt lat="47.21099" lon="5.98627">
        <ele>303.8</ele>
        <time>2021-04-25T07:59:20Z</time>
      </trkpt>
      <trkpt lat="47.21097" lon="5.98627">
        <ele>303.8</ele>
        <time>2021-04-25T07:59:21Z</time>
      </trkpt>
      <trkpt lat="47.21096" lon="5.98627">
        <ele>303.8</ele>
        <time>2021-04-25T07:59:22Z</time>
      </trkpt>
      <trkpt lat="47.21093" lon="5.98627">
        <ele>304.2</ele>
        <time>2021-04-25T07:59:23Z</time>
      </trkpt>
      <trkpt lat="47.21091" lon="5.98627">
        <ele>304.4</ele>
        <time>2021-04-25T07:59:24Z</time>
      </trkpt>
      <trkpt lat="47.2109" lon="5.98627">
        <ele>304.6</ele>
        <time>2021-04-25T07:59:25Z</time>
      </trkpt>
      <trkpt lat="47.21089" lon="5.98627">
        <ele>304.8</ele>
        <time>2021-04-25T07:59:26Z</time>
      </trkpt>
      <trkpt lat="47.21088" lon="5.98627">
        <ele>304.8</ele>
        <time>2021-04-25T07:59:27Z</time>
      </trkpt>
      <trkpt lat="47.21087" lon="5.98627">
        <ele>305</ele>
        <time>2021-04-25T07:59:28Z</time>
      </trkpt>
      <trkpt lat="47.21085" lon="5.98628">
        <ele>305.2</ele>
        <time>2021-04-25T07:59:29Z</time>
      </trkpt>
      <trkpt lat="47.21083" lon="5.98628">
        <ele>305.4</ele>
        <time>2021-04-25T07:59:30Z</time>
      </trkpt>
      <trkpt lat="47.21082" lon="5.98629">
        <ele>305.4</ele>
        <time>2021-04-25T07:59:31Z</time>
      </trkpt>
      <trkpt lat="47.2108" lon="5.98629">
        <ele>305.6</ele>
        <time>2021-04-25T07:59:32Z</time>
      </trkpt>
      <trkpt lat="47.21078" lon="5.98631">
        <ele>306</ele>
        <time>2021-04-25T07:59:33Z</time>
      </trkpt>
      <trkpt lat="47.21077" lon="5.98631">
        <ele>306</ele>
        <time>2021-04-25T07:59:34Z</time>
      </trkpt>
      <trkpt lat="47.21075" lon="5.98633">
        <ele>306.2</ele>
        <time>2021-04-25T07:59:35Z</time>
      </trkpt>
      <trkpt lat="47.21074" lon="5.98634">
        <ele>306.2</ele>
        <time>2021-04-25T07:59:36Z</time>
      </trkpt>
      <trkpt lat="47.21073" lon="5.98635">
        <ele>306.4</ele>
        <time>2021-04-25T07:59:37Z</time>
      </trkpt>
      <trkpt lat="47.21071" lon="5.98636">
        <ele>306.4</ele>
        <time>2021-04-25T07:59:38Z</time>
      </trkpt>
      <trkpt lat="47.2107" lon="5.98637">
        <ele>306.6</ele>
        <time>2021-04-25T07:59:39Z</time>
      </trkpt>
      <trkpt lat="47.21068" lon="5.98638">
        <ele>307</ele>
        <time>2021-04-25T07:59:40Z</time>
      </trkpt>
      <trkpt lat="47.21067" lon="5.98639">
        <ele>307</ele>
        <time>2021-04-25T07:59:41Z</time>
      </trkpt>
      <trkpt lat="47.21066" lon="5.9864">
        <ele>307.2</ele>
        <time>2021-04-25T07:59:42Z</time>
      </trkpt>
      <trkpt lat="47.21063" lon="5.98642">
        <ele>307.2</ele>
        <time>2021-04-25T07:59:43Z</time>
      </trkpt>
      <trkpt lat="47.21061" lon="5.98643">
        <ele>307.4</ele>
        <time>2021-04-25T07:59:44Z</time>
      </trkpt>
      <trkpt lat="47.2106" lon="5.98644">
        <ele>307.4</ele>
        <time>2021-04-25T07:59:45Z</time>
      </trkpt>
      <trkpt lat="47.21058" lon="5.98644">
        <ele>307.6</ele>
        <time>2021-04-25T07:59:46Z</time>
      </trkpt>
      <trkpt lat="47.21056" lon="5.98645">
        <ele>307.6</ele>
        <time>2021-04-25T07:59:47Z</time>
      </trkpt>
      <trkpt lat="47.21054" lon="5.98646">
        <ele>307.8</ele>
        <time>2021-04-25T07:59:48Z</time>
      </trkpt>
      <trkpt lat="47.21053" lon="5.98647">
        <ele>308</ele>
        <time>2021-04-25T07:59:49Z</time>
      </trkpt>
      <trkpt lat="47.21051" lon="5.98649">
        <ele>308</ele>
        <time>2021-04-25T07:59:50Z</time>
      </trkpt>
      <trkpt lat="47.2105" lon="5.9865">
        <ele>308.2</ele>
        <time>2021-04-25T07:59:51Z</time>
      </trkpt>
      <trkpt lat="47.21048" lon="5.98651">
        <ele>308.2</ele>
        <time>2021-04-25T07:59:52Z</time>
      </trkpt>
      <trkpt lat="47.21047" lon="5.98653">
        <ele>308.4</ele>
        <time>2021-04-25T07:59:53Z</time>
      </trkpt>
      <trkpt lat="47.21045" lon="5.98654">
        <ele>308.4</ele>
        <time>2021-04-25T07:59:54Z</time>
      </trkpt>
      <trkpt lat="47.21043" lon="5.98656">
        <ele>308.6</ele>
        <time>2021-04-25T07:59:55Z</time>
      </trkpt>
      <trkpt lat="47.21041" lon="5.98657">
        <ele>309</ele>
        <time>2021-04-25T07:59:56Z</time>
      </trkpt>
      <trkpt lat="47.2104" lon="5.98658">
        <ele>309</ele>
        <time>2021-04-25T07:59:57Z</time>
      </trkpt>
      <trkpt lat="47.21038" lon="5.9866">
        <ele>309.2</ele>
        <time>2021-04-25T07:59:58Z</time>
      </trkpt>
      <trkpt lat="47.21036" lon="5.98661">
        <ele>309.4</ele>
        <time>2021-04-25T07:59:59Z</time>
      </trkpt>
      <trkpt lat="47.21035" lon="5.98662">
        <ele>309.4</ele>
        <time>2021-04-25T08:00:00Z</time>
      </trkpt>
      <trkpt lat="47.21034" lon="5.98662">
        <ele>309.6</ele>
        <time>2021-04-25T08:00:01Z</time>
      </trkpt>
      <trkpt lat="47.21032" lon="5.98662">
        <ele>309.8</ele>
        <time>2021-04-25T08:00:02Z</time>
      </trkpt>
      <trkpt lat="47.2103" lon="5.98663">
        <ele>310</ele>
        <time>2021-04-25T08:00:03Z</time>
      </trkpt>
      <trkpt lat="47.21028" lon="5.98664">
        <ele>310.2</ele>
        <time>2021-04-25T08:00:04Z</time>
      </trkpt>
      <trkpt lat="47.21027" lon="5.98665">
        <ele>310.4</ele>
        <time>2021-04-25T08:00:05Z</time>
      </trkpt>
      <trkpt lat="47.21025" lon="5.98666">
        <ele>310.6</ele>
        <time>2021-04-25T08:00:06Z</time>
      </trkpt>
      <trkpt lat="47.21024" lon="5.98667">
        <ele>310.8</ele>
        <time>2021-04-25T08:00:07Z</time>
      </trkpt>
      <trkpt lat="47.21022" lon="5.98668">
        <ele>310.8</ele>
        <time>2021-04-25T08:00:08Z</time>
      </trkpt>
      <trkpt lat="47.21021" lon="5.98669">
        <ele>311</ele>
        <time>2021-04-25T08:00:09Z</time>
      </trkpt>
      <trkpt lat="47.21019" lon="5.98671">
        <ele>311</ele>
        <time>2021-04-25T08:00:10Z</time>
      </trkpt>
      <trkpt lat="47.21018" lon="5.98672">
        <ele>311.2</ele>
        <time>2021-04-25T08:00:11Z</time>
      </trkpt>
      <trkpt lat="47.21017" lon="5.98673">
        <ele>311.2</ele>
        <time>2021-04-25T08:00:12Z</time>
      </trkpt>
      <trkpt lat="47.21015" lon="5.98674">
        <ele>311.4</ele>
        <time>2021-04-25T08:00:13Z</time>
      </trkpt>
      <trkpt lat="47.21014" lon="5.98676">
        <ele>311.6</ele>
        <time>2021-04-25T08:00:14Z</time>
      </trkpt>
      <trkpt lat="47.21013" lon="5.98677">
        <ele>311.6</ele>
        <time>2021-04-25T08:00:15Z</time>
      </trkpt>
      <trkpt lat="47.21011" lon="5.98678">
        <ele>311.6</ele>
        <time>2021-04-25T08:00:16Z</time>
      </trkpt>
      <trkpt lat="47.2101" lon="5.98679">
        <ele>311.8</ele>
        <time>2021-04-25T08:00:17Z</time>
      </trkpt>
      <trkpt lat="47.21008" lon="5.9868">
        <ele>311.8</ele>
        <time>2021-04-25T08:00:18Z</time>
      </trkpt>
      <trkpt lat="47.21006" lon="5.98682">
        <ele>312</ele>
        <time>2021-04-25T08:00:19Z</time>
      </trkpt>
      <trkpt lat="47.21004" lon="5.98684">
        <ele>312.4</ele>
        <time>2021-04-25T08:00:20Z</time>
      </trkpt>
      <trkpt lat="47.21001" lon="5.98688">
        <ele>312.8</ele>
        <time>2021-04-25T08:00:21Z</time>
      </trkpt>
      <trkpt lat="47.20999" lon="5.98691">
        <ele>313</ele>
        <time>2021-04-25T08:00:22Z</time>
      </trkpt>
      <trkpt lat="47.20998" lon="5.98692">
        <ele>313.2</ele>
        <time>2021-04-25T08:00:23Z</time>
      </trkpt>
      <trkpt lat="47.20997" lon="5.98694">
        <ele>313.4</ele>
        <time>2021-04-25T08:00:24Z</time>
      </trkpt>
      <trkpt lat="47.20994" lon="5.98696">
        <ele>313.8</ele>
        <time>2021-04-25T08:00:25Z</time>
      </trkpt>
      <trkpt lat="47.20992" lon="5.98698">
        <ele>314</ele>
        <time>2021-04-25T08:00:26Z</time>
      </trkpt>
      <trkpt lat="47.20991" lon="5.987">
        <ele>314.2</ele>
        <time>2021-04-25T08:00:27Z</time>
      </trkpt>
      <trkpt lat="47.2099" lon="5.98702">
        <ele>314.4</ele>
        <time>2021-04-25T08:00:28Z</time>
      </trkpt>
      <trkpt lat="47.20988" lon="5.98705">
        <ele>314.6</ele>
        <time>2021-04-25T08:00:29Z</time>
      </trkpt>
      <trkpt lat="47.20986" lon="5.98706">
        <ele>314.6</ele>
        <time>2021-04-25T08:00:30Z</time>
      </trkpt>
      <trkpt lat="47.20985" lon="5.98707">
        <ele>314.8</ele>
        <time>2021-04-25T08:00:31Z</time>
      </trkpt>
      <trkpt lat="47.20984" lon="5.98707">
        <ele>314.8</ele>
        <time>2021-04-25T08:00:32Z</time>
      </trkpt>
      <trkpt lat="47.20984" lon="5.98707">
        <ele>315</ele>
        <time>2021-04-25T08:00:33Z</time>
      </trkpt>
      <trkpt lat="47.20982" lon="5.98709">
        <ele>315.2</ele>
        <time>2021-04-25T08:00:34Z</time>
      </trkpt>
      <trkpt lat="47.20981" lon="5.9871">
        <ele>315.4</ele>
        <time>2021-04-25T08:00:35Z</time>
      </trkpt>
      <trkpt lat="47.2098" lon="5.98711">
        <ele>315.6</ele>
        <time>2021-04-25T08:00:36Z</time>
      </trkpt>
      <trkpt lat="47.20979" lon="5.98712">
        <ele>315.8</ele>
        <time>2021-04-25T08:00:37Z</time>
      </trkpt>
      <trkpt lat="47.20978" lon="5.98713">
        <ele>316</ele>
        <time>2021-04-25T08:00:38Z</time>
      </trkpt>
      <trkpt lat="47.20977" lon="5.98713">
        <ele>316.2</ele>
        <time>2021-04-25T08:00:39Z</time>
      </trkpt>
      <trkpt lat="47.20976" lon="5.98714">
        <ele>316.4</ele>
        <time>2021-04-25T08:00:40Z</time>
      </trkpt>
      <trkpt lat="47.20975" lon="5.98715">
        <ele>316.6</ele>
        <time>2021-04-25T08:00:41Z</time>
      </trkpt>
      <trkpt lat="47.20974" lon="5.98716">
        <ele>316.8</ele>
        <time>2021-04-25T08:00:42Z</time>
      </trkpt>
      <trkpt lat="47.20973" lon="5.98718">
        <ele>317</ele>
        <time>2021-04-25T08:00:43Z</time>
      </trkpt>
      <trkpt lat="47.20972" lon="5.98719">
        <ele>317.2</ele>
        <time>2021-04-25T08:00:44Z</time>
      </trkpt>
      <trkpt lat="47.20971" lon="5.98719">
        <ele>317.2</ele>
        <time>2021-04-25T08:00:45Z</time>
      </trkpt>
      <trkpt lat="47.20971" lon="5.9872">
        <ele>317.4</ele>
        <time>2021-04-25T08:00:46Z</time>
      </trkpt>
      <trkpt lat="47.20971" lon="5.98721">
        <ele>317.6</ele>
        <time>2021-04-25T08:00:47Z</time>
      </trkpt>
      <trkpt lat="47.20971" lon="5.98722">
        <ele>318</ele>
        <time>2021-04-25T08:00:48Z</time>
      </trkpt>
      <trkpt lat="47.20972" lon="5.98723">
        <ele>318</ele>
        <time>2021-04-25T08:00:49Z</time>
      </trkpt>
      <trkpt lat="47.20971" lon="5.98723">
        <ele>318.2</ele>
        <time>2021-04-25T08:00:50Z</time>
      </trkpt>
      <trkpt lat="47.20971" lon="5.98723">
        <ele>318.4</ele>
        <time>2021-04-25T08:00:51Z</time>
      </trkpt>
      <trkpt lat="47.20972" lon="5.98724">
        <ele>318.4</ele>
        <time>2021-04-25T08:00:52Z</time>
      </trkpt>
      <trkpt lat="47.20973" lon="5.98724">
        <ele>318.6</ele>
        <time>2021-04-25T08:00:53Z</time>
      </trkpt>
      <trkpt lat="47.20973" lon="5.98725">
        <ele>318.8</ele>
        <time>2021-04-25T08:00:54Z</time>
      </trkpt>
      <trkpt lat="47.20973" lon="5.98727">
        <ele>318.8</ele>
        <time>2021-04-25T08:00:55Z</time>
      </trkpt>
      <trkpt lat="47.20974" lon="5.98729">
        <ele>319</ele>
        <time>2021-04-25T08:00:56Z</time>
      </trkpt>
      <trkpt lat="47.20974" lon="5.98731">
        <ele>319.2</ele>
        <time>2021-04-25T08:00:57Z</time>
      </trkpt>
      <trkpt lat="47.20974" lon="5.98733">
        <ele>319.2</ele>
        <time>2021-04-25T08:00:58Z</time>
      </trkpt>
      <trkpt lat="47.20973" lon="5.98735">
        <ele>319.4</ele>
        <time>2021-04-25T08:00:59Z</time>
      </trkpt>
      <trkpt lat="47.20971" lon="5.98737">
        <ele>319.4</ele>
        <time>2021-04-25T08:01:00Z</time>
      </trkpt>
      <trkpt lat="47.2097" lon="5.98741">
        <ele>319.6</ele>
        <time>2021-04-25T08:01:01Z</time>
      </trkpt>
      <trkpt lat="47.2097" lon="5.98744">
        <ele>319.8</ele>
        <time>2021-04-25T08:01:02Z</time>
      </trkpt>
      <trkpt lat="47.20969" lon="5.98747">
        <ele>320</ele>
        <time>2021-04-25T08:01:03Z</time>
      </trkpt>
      <trkpt lat="47.20968" lon="5.9875">
        <ele>320</ele>
        <time>2021-04-25T08:01:04Z</time>
      </trkpt>
      <trkpt lat="47.20966" lon="5.98754">
        <ele>320.2</ele>
        <time>2021-04-25T08:01:05Z</time>
      </trkpt>
      <trkpt lat="47.20967" lon="5.98756">
        <ele>320.4</ele>
        <time>2021-04-25T08:01:06Z</time>
      </trkpt>
      <trkpt lat="47.20966" lon="5.9876">
        <ele>320.4</ele>
        <time>2021-04-25T08:01:07Z</time>
      </trkpt>
      <trkpt lat="47.20963" lon="5.98765">
        <ele>320.6</ele>
        <time>2021-04-25T08:01:08Z</time>
      </trkpt>
      <trkpt lat="47.20963" lon="5.98767">
        <ele>320.6</ele>
        <time>2021-04-25T08:01:09Z</time>
      </trkpt>
      <trkpt lat="47.20962" lon="5.98769">
        <ele>321</ele>
        <time>2021-04-25T08:01:10Z</time>
      </trkpt>
      <trkpt lat="47.20963" lon="5.98773">
        <ele>321.2</ele>
        <time>2021-04-25T08:01:11Z</time>
      </trkpt>
      <trkpt lat="47.20962" lon="5.98777">
        <ele>321.2</ele>
        <time>2021-04-25T08:01:12Z</time>
      </trkpt>
      <trkpt lat="47.20962" lon="5.98781">
        <ele>321.4</ele>
        <time>2021-04-25T08:01:13Z</time>
      </trkpt>
      <trkpt lat="47.20962" lon="5.98786">
        <ele>321.6</ele>
        <time>2021-04-25T08:01:14Z</time>
      </trkpt>
      <trkpt lat="47.20963" lon="5.98789">
        <ele>321.8</ele>
        <time>2021-04-25T08:01:15Z</time>
      </trkpt>
      <trkpt lat="47.20964" lon="5.98792">
        <ele>321.8</ele>
        <time>2021-04-25T08:01:16Z</time>
      </trkpt>
      <trkpt lat="47.20967" lon="5.98794">
        <ele>322</ele>
        <time>2021-04-25T08:01:17Z</time>
      </trkpt>
      <trkpt lat="47.20968" lon="5.98796">
        <ele>322</ele>
        <time>2021-04-25T08:01:18Z</time>
      </trkpt>
      <trkpt lat="47.2097" lon="5.98797">
        <ele>322.2</ele>
        <time>2021-04-25T08:01:19Z</time>
      </trkpt>
      <trkpt lat="47.2097" lon="5.98799">
        <ele>322.4</ele>
        <time>2021-04-25T08:01:20Z</time>
      </trkpt>
      <trkpt lat="47.20969" lon="5.98801">
        <ele>322.4</ele>
        <time>2021-04-25T08:01:21Z</time>
      </trkpt>
      <trkpt lat="47.2097" lon="5.98804">
        <ele>322.4</ele>
        <time>2021-04-25T08:01:22Z</time>
      </trkpt>
      <trkpt lat="47.2097" lon="5.98807">
        <ele>322.6</ele>
        <time>2021-04-25T08:01:23Z</time>
      </trkpt>
      <trkpt lat="47.20971" lon="5.9881">
        <ele>322.8</ele>
        <time>2021-04-25T08:01:24Z</time>
      </trkpt>
      <trkpt lat="47.20971" lon="5.98812">
        <ele>323</ele>
        <time>2021-04-25T08:01:25Z</time>
      </trkpt>
      <trkpt lat="47.20971" lon="5.98813">
        <ele>323</ele>
        <time>2021-04-25T08:01:26Z</time>
      </trkpt>
      <trkpt lat="47.20971" lon="5.98815">
        <ele>323.2</ele>
        <time>2021-04-25T08:01:27Z</time>
      </trkpt>
      <trkpt lat="47.20971" lon="5.98817">
        <ele>323.2</ele>
        <time>2021-04-25T08:01:28Z</time>
      </trkpt>
      <trkpt lat="47.20971" lon="5.98819">
        <ele>323.4</ele>
        <time>2021-04-25T08:01:29Z</time>
      </trkpt>
      <trkpt lat="47.20972" lon="5.98821">
        <ele>323.6</ele>
        <time>2021-04-25T08:01:30Z</time>
      </trkpt>
      <trkpt lat="47.20972" lon="5.98822">
        <ele>323.8</ele>
        <time>2021-04-25T08:01:31Z</time>
      </trkpt>
      <trkpt lat="47.20973" lon="5.98824">
        <ele>324</ele>
        <time>2021-04-25T08:01:32Z</time>
      </trkpt>
      <trkpt lat="47.20974" lon="5.98828">
        <ele>324.2</ele>
        <time>2021-04-25T08:01:33Z</time>
      </trkpt>
      <trkpt lat="47.20974" lon="5.98831">
        <ele>324.2</ele>
        <time>2021-04-25T08:01:34Z</time>
      </trkpt>
      <trkpt lat="47.20973" lon="5.98833">
        <ele>324.4</ele>
        <time>2021-04-25T08:01:35Z</time>
      </trkpt>
      <trkpt lat="47.20972" lon="5.98836">
        <ele>324.6</ele>
        <time>2021-04-25T08:01:36Z</time>
      </trkpt>
      <trkpt lat="47.20971" lon="5.98839">
        <ele>324.6</ele>
        <time>2021-04-25T08:01:37Z</time>
      </trkpt>
      <trkpt lat="47.2097" lon="5.98841">
        <ele>324.8</ele>
        <time>2021-04-25T08:01:38Z</time>
      </trkpt>
      <trkpt lat="47.2097" lon="5.98844">
        <ele>325</ele>
        <time>2021-04-25T08:01:39Z</time>
      </trkpt>
      <trkpt lat="47.20971" lon="5.98847">
        <ele>325</ele>
        <time>2021-04-25T08:01:40Z</time>
      </trkpt>
      <trkpt lat="47.20971" lon="5.98849">
        <ele>325.2</ele>
        <time>2021-04-25T08:01:41Z</time>
      </trkpt>
      <trkpt lat="47.20972" lon="5.98853">
        <ele>325.2</ele>
        <time>2021-04-25T08:01:42Z</time>
      </trkpt>
      <trkpt lat="47.20972" lon="5.98855">
        <ele>325.4</ele>
        <time>2021-04-25T08:01:43Z</time>
      </trkpt>
      <trkpt lat="47.20973" lon="5.98857">
        <ele>325.6</ele>
        <time>2021-04-25T08:01:44Z</time>
      </trkpt>
      <trkpt lat="47.20973" lon="5.98858">
        <ele>325.8</ele>
        <time>2021-04-25T08:01:45Z</time>
      </trkpt>
      <trkpt lat="47.20974" lon="5.98861">
        <ele>325.8</ele>
        <time>2021-04-25T08:01:46Z</time>
      </trkpt>
      <trkpt lat="47.20974" lon="5.98863">
        <ele>326</ele>
        <time>2021-04-25T08:01:47Z</time>
      </trkpt>
      <trkpt lat="47.20975" lon="5.98865">
        <ele>326</ele>
        <time>2021-04-25T08:01:48Z</time>
      </trkpt>
      <trkpt lat="47.20975" lon="5.98867">
        <ele>326</ele>
        <time>2021-04-25T08:01:49Z</time>
      </trkpt>
      <trkpt lat="47.20974" lon="5.98869">
        <ele>326</ele>
        <time>2021-04-25T08:01:50Z</time>
      </trkpt>
      <trkpt lat="47.20974" lon="5.98871">
        <ele>326.2</ele>
        <time>2021-04-25T08:01:51Z</time>
      </trkpt>
      <trkpt lat="47.20974" lon="5.98873">
        <ele>326.4</ele>
        <time>2021-04-25T08:01:52Z</time>
      </trkpt>
      <trkpt lat="47.20975" lon="5.98876">
        <ele>326.6</ele>
        <time>2021-04-25T08:01:53Z</time>
      </trkpt>
      <trkpt lat="47.20975" lon="5.98878">
        <ele>326.6</ele>
        <time>2021-04-25T08:01:54Z</time>
      </trkpt>
      <trkpt lat="47.20975" lon="5.98881">
        <ele>326.8</ele>
        <time>2021-04-25T08:01:55Z</time>
      </trkpt>
      <trkpt lat="47.20975" lon="5.98883">
        <ele>326.8</ele>
        <time>2021-04-25T08:01:56Z</time>
      </trkpt>
      <trkpt lat="47.20975" lon="5.98886">
        <ele>327</ele>
        <time>2021-04-25T08:01:57Z</time>
      </trkpt>
      <trkpt lat="47.20975" lon="5.98888">
        <ele>327</ele>
        <time>2021-04-25T08:01:58Z</time>
      </trkpt>
      <trkpt lat="47.20977" lon="5.9889">
        <ele>327</ele>
        <time>2021-04-25T08:01:59Z</time>
      </trkpt>
      <trkpt lat="47.20981" lon="5.98892">
        <ele>327.2</ele>
        <time>2021-04-25T08:02:00Z</time>
      </trkpt>
      <trkpt lat="47.20982" lon="5.98895">
        <ele>327.4</ele>
        <time>2021-04-25T08:02:01Z</time>
      </trkpt>
      <trkpt lat="47.20983" lon="5.98898">
        <ele>327.6</ele>
        <time>2021-04-25T08:02:02Z</time>
      </trkpt>
      <trkpt lat="47.20983" lon="5.98899">
        <ele>327.8</ele>
        <time>2021-04-25T08:02:03Z</time>
      </trkpt>
      <trkpt lat="47.20983" lon="5.98902">
        <ele>328</ele>
        <time>2021-04-25T08:02:04Z</time>
      </trkpt>
      <trkpt lat="47.20983" lon="5.98905">
        <ele>328.2</ele>
        <time>2021-04-25T08:02:05Z</time>
      </trkpt>
      <trkpt lat="47.20985" lon="5.98907">
        <ele>328.2</ele>
        <time>2021-04-25T08:02:06Z</time>
      </trkpt>
      <trkpt lat="47.20986" lon="5.98908">
        <ele>328.6</ele>
        <time>2021-04-25T08:02:07Z</time>
      </trkpt>
      <trkpt lat="47.20986" lon="5.98912">
        <ele>328.6</ele>
        <time>2021-04-25T08:02:08Z</time>
      </trkpt>
      <trkpt lat="47.20986" lon="5.98915">
        <ele>328.8</ele>
        <time>2021-04-25T08:02:09Z</time>
      </trkpt>
      <trkpt lat="47.20987" lon="5.98917">
        <ele>329</ele>
        <time>2021-04-25T08:02:10Z</time>
      </trkpt>
      <trkpt lat="47.20987" lon="5.98919">
        <ele>329</ele>
        <time>2021-04-25T08:02:11Z</time>
      </trkpt>
      <trkpt lat="47.20987" lon="5.98922">
        <ele>329</ele>
        <time>2021-04-25T08:02:12Z</time>
      </trkpt>
      <trkpt lat="47.20988" lon="5.98923">
        <ele>329.2</ele>
        <time>2021-04-25T08:02:13Z</time>
      </trkpt>
      <trkpt lat="47.20988" lon="5.98926">
        <ele>329.4</ele>
        <time>2021-04-25T08:02:14Z</time>
      </trkpt>
      <trkpt lat="47.20989" lon="5.98928">
        <ele>329.4</ele>
        <time>2021-04-25T08:02:15Z</time>
      </trkpt>
      <trkpt lat="47.2099" lon="5.98931">
        <ele>329.4</ele>
        <time>2021-04-25T08:02:16Z</time>
      </trkpt>
      <trkpt lat="47.20991" lon="5.98934">
        <ele>329.6</ele>
        <time>2021-04-25T08:02:17Z</time>
      </trkpt>
      <trkpt lat="47.20991" lon="5.98936">
        <ele>329.6</ele>
        <time>2021-04-25T08:02:18Z</time>
      </trkpt>
      <trkpt lat="47.20992" lon="5.98939">
        <ele>330</ele>
        <time>2021-04-25T08:02:19Z</time>
      </trkpt>
      <trkpt lat="47.20993" lon="5.98942">
        <ele>330.2</ele>
        <time>2021-04-25T08:02:20Z</time>
      </trkpt>
      <trkpt lat="47.20994" lon="5.98944">
        <ele>330.4</ele>
        <time>2021-04-25T08:02:21Z</time>
      </trkpt>
      <trkpt lat="47.20995" lon="5.98947">
        <ele>330.4</ele>
        <time>2021-04-25T08:02:22Z</time>
      </trkpt>
      <trkpt lat="47.20996" lon="5.9895">
        <ele>330.6</ele>
        <time>2021-04-25T08:02:23Z</time>
      </trkpt>
      <trkpt lat="47.20996" lon="5.98953">
        <ele>330.6</ele>
        <time>2021-04-25T08:02:24Z</time>
      </trkpt>
      <trkpt lat="47.20997" lon="5.98956">
        <ele>330.8</ele>
        <time>2021-04-25T08:02:25Z</time>
      </trkpt>
      <trkpt lat="47.20997" lon="5.98958">
        <ele>331</ele>
        <time>2021-04-25T08:02:26Z</time>
      </trkpt>
      <trkpt lat="47.20998" lon="5.98961">
        <ele>331</ele>
        <time>2021-04-25T08:02:27Z</time>
      </trkpt>
      <trkpt lat="47.20999" lon="5.98963">
        <ele>331.2</ele>
        <time>2021-04-25T08:02:28Z</time>
      </trkpt>
      <trkpt lat="47.20999" lon="5.98966">
        <ele>331.4</ele>
        <time>2021-04-25T08:02:29Z</time>
      </trkpt>
      <trkpt lat="47.20999" lon="5.98969">
        <ele>331.6</ele>
        <time>2021-04-25T08:02:30Z</time>
      </trkpt>
      <trkpt lat="47.21" lon="5.98972">
        <ele>331.6</ele>
        <time>2021-04-25T08:02:31Z</time>
      </trkpt>
      <trkpt lat="47.21" lon="5.98975">
        <ele>331.8</ele>
        <time>2021-04-25T08:02:32Z</time>
      </trkpt>
      <trkpt lat="47.21" lon="5.98977">
        <ele>332</ele>
        <time>2021-04-25T08:02:33Z</time>
      </trkpt>
      <trkpt lat="47.21001" lon="5.9898">
        <ele>332.2</ele>
        <time>2021-04-25T08:02:34Z</time>
      </trkpt>
      <trkpt lat="47.21001" lon="5.98983">
        <ele>332.2</ele>
        <time>2021-04-25T08:02:35Z</time>
      </trkpt>
      <trkpt lat="47.21001" lon="5.98985">
        <ele>332.2</ele>
        <time>2021-04-25T08:02:36Z</time>
      </trkpt>
      <trkpt lat="47.21002" lon="5.98988">
        <ele>332.6</ele>
        <time>2021-04-25T08:02:37Z</time>
      </trkpt>
      <trkpt lat="47.21002" lon="5.98991">
        <ele>332.8</ele>
        <time>2021-04-25T08:02:38Z</time>
      </trkpt>
      <trkpt lat="47.21003" lon="5.98994">
        <ele>333</ele>
        <time>2021-04-25T08:02:39Z</time>
      </trkpt>
      <trkpt lat="47.21003" lon="5.98997">
        <ele>333</ele>
        <time>2021-04-25T08:02:40Z</time>
      </trkpt>
      <trkpt lat="47.21004" lon="5.98999">
        <ele>333.2</ele>
        <time>2021-04-25T08:02:41Z</time>
      </trkpt>
      <trkpt lat="47.21004" lon="5.99002">
        <ele>333.2</ele>
        <time>2021-04-25T08:02:42Z</time>
      </trkpt>
      <trkpt lat="47.21004" lon="5.99005">
        <ele>333.4</ele>
        <time>2021-04-25T08:02:43Z</time>
      </trkpt>
      <trkpt lat="47.21004" lon="5.99009">
        <ele>333.8</ele>
        <time>2021-04-25T08:02:44Z</time>
      </trkpt>
      <trkpt lat="47.21003" lon="5.99012">
        <ele>333.8</ele>
        <time>2021-04-25T08:02:45Z</time>
      </trkpt>
      <trkpt lat="47.21002" lon="5.99015">
        <ele>334</ele>
        <time>2021-04-25T08:02:46Z</time>
      </trkpt>
      <trkpt lat="47.21001" lon="5.99017">
        <ele>334</ele>
        <time>2021-04-25T08:02:47Z</time>
      </trkpt>
      <trkpt lat="47.21" lon="5.9902">
        <ele>334.2</ele>
        <time>2021-04-25T08:02:48Z</time>
      </trkpt>
      <trkpt lat="47.20998" lon="5.99023">
        <ele>334.4</ele>
        <time>2021-04-25T08:02:49Z</time>
      </trkpt>
      <trkpt lat="47.20997" lon="5.99024">
        <ele>334.4</ele>
        <time>2021-04-25T08:02:50Z</time>
      </trkpt>
      <trkpt lat="47.20995" lon="5.99025">
        <ele>334.4</ele>
        <time>2021-04-25T08:02:51Z</time>
      </trkpt>
      <trkpt lat="47.20994" lon="5.99025">
        <ele>334.6</ele>
        <time>2021-04-25T08:02:52Z</time>
      </trkpt>
      <trkpt lat="47.20993" lon="5.99025">
        <ele>334.8</ele>
        <time>2021-04-25T08:02:55Z</time>
      </trkpt>
      <trkpt lat="47.20993" lon="5.99026">
        <ele>334.8</ele>
        <time>2021-04-25T08:02:57Z</time>
      </trkpt>
      <trkpt lat="47.20993" lon="5.99027">
        <ele>334.8</ele>
        <time>2021-04-25T08:02:58Z</time>
      </trkpt>
      <trkpt lat="47.20994" lon="5.99028">
        <ele>334.8</ele>
        <time>2021-04-25T08:02:59Z</time>
      </trkpt>
      <trkpt lat="47.20994" lon="5.99029">
        <ele>334.6</ele>
        <time>2021-04-25T08:03:00Z</time>
      </trkpt>
      <trkpt lat="47.20995" lon="5.99029">
        <ele>334.6</ele>
        <time>2021-04-25T08:03:01Z</time>
      </trkpt>
      <trkpt lat="47.20995" lon="5.99029">
        <ele>334.6</ele>
        <time>2021-04-25T08:03:02Z</time>
      </trkpt>
      <trkpt lat="47.20995" lon="5.99029">
        <ele>334.4</ele>
        <time>2021-04-25T08:03:10Z</time>
      </trkpt>
      <trkpt lat="47.2099" lon="5.99026">
        <ele>334.2</ele>
        <time>2021-04-25T08:05:53Z</time>
      </trkpt>
      <trkpt lat="47.20988" lon="5.99025">
        <ele>334.2</ele>
        <time>2021-04-25T08:05:54Z</time>
      </trkpt>
      <trkpt lat="47.20976" lon="5.99013">
        <ele>334.6</ele>
        <time>2021-04-25T08:06:00Z</time>
      </trkpt>
      <trkpt lat="47.20964" lon="5.99002">
        <ele>335.6</ele>
        <time>2021-04-25T08:06:07Z</time>
      </trkpt>
      <trkpt lat="47.20962" lon="5.99001">
        <ele>335.6</ele>
        <time>2021-04-25T08:06:08Z</time>
      </trkpt>
      <trkpt lat="47.20961" lon="5.99">
        <ele>335.8</ele>
        <time>2021-04-25T08:06:09Z</time>
      </trkpt>
      <trkpt lat="47.20959" lon="5.98998">
        <ele>336</ele>
        <time>2021-04-25T08:06:10Z</time>
      </trkpt>
      <trkpt lat="47.20957" lon="5.98997">
        <ele>336</ele>
        <time>2021-04-25T08:06:11Z</time>
      </trkpt>
      <trkpt lat="47.20956" lon="5.98996">
        <ele>336.4</ele>
        <time>2021-04-25T08:06:12Z</time>
      </trkpt>
      <trkpt lat="47.20955" lon="5.98994">
        <ele>336.4</ele>
        <time>2021-04-25T08:06:13Z</time>
      </trkpt>
      <trkpt lat="47.20951" lon="5.9899">
        <ele>336.6</ele>
        <time>2021-04-25T08:06:15Z</time>
      </trkpt>
      <trkpt lat="47.20945" lon="5.98984">
        <ele>337</ele>
        <time>2021-04-25T08:06:19Z</time>
      </trkpt>
      <trkpt lat="47.20942" lon="5.98979">
        <ele>337.6</ele>
        <time>2021-04-25T08:06:21Z</time>
      </trkpt>
      <trkpt lat="47.2094" lon="5.98978">
        <ele>337.6</ele>
        <time>2021-04-25T08:06:22Z</time>
      </trkpt>
      <trkpt lat="47.20938" lon="5.98977">
        <ele>337.8</ele>
        <time>2021-04-25T08:06:23Z</time>
      </trkpt>
      <trkpt lat="47.20935" lon="5.98974">
        <ele>337.8</ele>
        <time>2021-04-25T08:06:24Z</time>
      </trkpt>
      <trkpt lat="47.20933" lon="5.9897">
        <ele>338.2</ele>
        <time>2021-04-25T08:06:25Z</time>
      </trkpt>
      <trkpt lat="47.20931" lon="5.98967">
        <ele>338.2</ele>
        <time>2021-04-25T08:06:26Z</time>
      </trkpt>
      <trkpt lat="47.2093" lon="5.98965">
        <ele>338.6</ele>
        <time>2021-04-25T08:06:27Z</time>
      </trkpt>
      <trkpt lat="47.20928" lon="5.98964">
        <ele>338.6</ele>
        <time>2021-04-25T08:06:28Z</time>
      </trkpt>
      <trkpt lat="47.20926" lon="5.98963">
        <ele>338.8</ele>
        <time>2021-04-25T08:06:29Z</time>
      </trkpt>
      <trkpt lat="47.20925" lon="5.98962">
        <ele>339.2</ele>
        <time>2021-04-25T08:06:30Z</time>
      </trkpt>
      <trkpt lat="47.20923" lon="5.9896">
        <ele>339.4</ele>
        <time>2021-04-25T08:06:31Z</time>
      </trkpt>
      <trkpt lat="47.20922" lon="5.98959">
        <ele>339.4</ele>
        <time>2021-04-25T08:06:32Z</time>
      </trkpt>
      <trkpt lat="47.20921" lon="5.98958">
        <ele>339.6</ele>
        <time>2021-04-25T08:06:33Z</time>
      </trkpt>
      <trkpt lat="47.2092" lon="5.98956">
        <ele>339.8</ele>
        <time>2021-04-25T08:06:34Z</time>
      </trkpt>
      <trkpt lat="47.20918" lon="5.98953">
        <ele>340</ele>
        <time>2021-04-25T08:06:35Z</time>
      </trkpt>
      <trkpt lat="47.20917" lon="5.98951">
        <ele>340.2</ele>
        <time>2021-04-25T08:06:36Z</time>
      </trkpt>
      <trkpt lat="47.20915" lon="5.9895">
        <ele>340.4</ele>
        <time>2021-04-25T08:06:37Z</time>
      </trkpt>
      <trkpt lat="47.20914" lon="5.98948">
        <ele>340.6</ele>
        <time>2021-04-25T08:06:38Z</time>
      </trkpt>
      <trkpt lat="47.20913" lon="5.98947">
        <ele>341</ele>
        <time>2021-04-25T08:06:39Z</time>
      </trkpt>
      <trkpt lat="47.20911" lon="5.98945">
        <ele>341.2</ele>
        <time>2021-04-25T08:06:40Z</time>
      </trkpt>
      <trkpt lat="47.2091" lon="5.98943">
        <ele>341.4</ele>
        <time>2021-04-25T08:06:41Z</time>
      </trkpt>
      <trkpt lat="47.20908" lon="5.98941">
        <ele>341.4</ele>
        <time>2021-04-25T08:06:42Z</time>
      </trkpt>
      <trkpt lat="47.20907" lon="5.9894">
        <ele>341.6</ele>
        <time>2021-04-25T08:06:43Z</time>
      </trkpt>
      <trkpt lat="47.20905" lon="5.98939">
        <ele>341.6</ele>
        <time>2021-04-25T08:06:44Z</time>
      </trkpt>
      <trkpt lat="47.20904" lon="5.98937">
        <ele>342</ele>
        <time>2021-04-25T08:06:45Z</time>
      </trkpt>
      <trkpt lat="47.20901" lon="5.98936">
        <ele>342</ele>
        <time>2021-04-25T08:06:46Z</time>
      </trkpt>
      <trkpt lat="47.209" lon="5.98935">
        <ele>342.4</ele>
        <time>2021-04-25T08:06:47Z</time>
      </trkpt>
      <trkpt lat="47.20899" lon="5.98934">
        <ele>342.6</ele>
        <time>2021-04-25T08:06:48Z</time>
      </trkpt>
      <trkpt lat="47.20897" lon="5.98932">
        <ele>342.8</ele>
        <time>2021-04-25T08:06:49Z</time>
      </trkpt>
      <trkpt lat="47.20896" lon="5.9893">
        <ele>343</ele>
        <time>2021-04-25T08:06:50Z</time>
      </trkpt>
      <trkpt lat="47.20895" lon="5.98927">
        <ele>343.2</ele>
        <time>2021-04-25T08:06:51Z</time>
      </trkpt>
      <trkpt lat="47.20894" lon="5.98924">
        <ele>343.4</ele>
        <time>2021-04-25T08:06:52Z</time>
      </trkpt>
      <trkpt lat="47.20892" lon="5.98922">
        <ele>343.4</ele>
        <time>2021-04-25T08:06:53Z</time>
      </trkpt>
      <trkpt lat="47.2089" lon="5.98921">
        <ele>343.8</ele>
        <time>2021-04-25T08:06:54Z</time>
      </trkpt>
      <trkpt lat="47.20888" lon="5.98918">
        <ele>344</ele>
        <time>2021-04-25T08:06:55Z</time>
      </trkpt>
      <trkpt lat="47.20886" lon="5.98917">
        <ele>344.2</ele>
        <time>2021-04-25T08:06:56Z</time>
      </trkpt>
      <trkpt lat="47.20883" lon="5.98913">
        <ele>344.4</ele>
        <time>2021-04-25T08:06:57Z</time>
      </trkpt>
      <trkpt lat="47.2088" lon="5.9891">
        <ele>344.4</ele>
        <time>2021-04-25T08:06:58Z</time>
      </trkpt>
      <trkpt lat="47.20878" lon="5.98907">
        <ele>344.6</ele>
        <time>2021-04-25T08:06:59Z</time>
      </trkpt>
      <trkpt lat="47.20876" lon="5.98906">
        <ele>344.6</ele>
        <time>2021-04-25T08:07:00Z</time>
      </trkpt>
      <trkpt lat="47.20875" lon="5.98904">
        <ele>344.8</ele>
        <time>2021-04-25T08:07:01Z</time>
      </trkpt>
      <trkpt lat="47.20873" lon="5.98902">
        <ele>345</ele>
        <time>2021-04-25T08:07:02Z</time>
      </trkpt>
      <trkpt lat="47.20872" lon="5.989">
        <ele>345.2</ele>
        <time>2021-04-25T08:07:03Z</time>
      </trkpt>
      <trkpt lat="47.20871" lon="5.98897">
        <ele>345.2</ele>
        <time>2021-04-25T08:07:04Z</time>
      </trkpt>
      <trkpt lat="47.2087" lon="5.98894">
        <ele>345.4</ele>
        <time>2021-04-25T08:07:05Z</time>
      </trkpt>
      <trkpt lat="47.20868" lon="5.98891">
        <ele>345.6</ele>
        <time>2021-04-25T08:07:06Z</time>
      </trkpt>
      <trkpt lat="47.20866" lon="5.98888">
        <ele>345.8</ele>
        <time>2021-04-25T08:07:07Z</time>
      </trkpt>
      <trkpt lat="47.20864" lon="5.98886">
        <ele>346</ele>
        <time>2021-04-25T08:07:08Z</time>
      </trkpt>
      <trkpt lat="47.20863" lon="5.98883">
        <ele>346</ele>
        <time>2021-04-25T08:07:09Z</time>
      </trkpt>
      <trkpt lat="47.20861" lon="5.98879">
        <ele>346</ele>
        <time>2021-04-25T08:07:10Z</time>
      </trkpt>
      <trkpt lat="47.20858" lon="5.98877">
        <ele>346.2</ele>
        <time>2021-04-25T08:07:11Z</time>
      </trkpt>
      <trkpt lat="47.20856" lon="5.98875">
        <ele>346.6</ele>
        <time>2021-04-25T08:07:12Z</time>
      </trkpt>
      <trkpt lat="47.20854" lon="5.98873">
        <ele>346.8</ele>
        <time>2021-04-25T08:07:13Z</time>
      </trkpt>
      <trkpt lat="47.20853" lon="5.98872">
        <ele>347</ele>
        <time>2021-04-25T08:07:14Z</time>
      </trkpt>
      <trkpt lat="47.20852" lon="5.98869">
        <ele>347.2</ele>
        <time>2021-04-25T08:07:15Z</time>
      </trkpt>
      <trkpt lat="47.20851" lon="5.98867">
        <ele>347.4</ele>
        <time>2021-04-25T08:07:16Z</time>
      </trkpt>
      <trkpt lat="47.2085" lon="5.98866">
        <ele>347.6</ele>
        <time>2021-04-25T08:07:17Z</time>
      </trkpt>
      <trkpt lat="47.20848" lon="5.98866">
        <ele>347.6</ele>
        <time>2021-04-25T08:07:18Z</time>
      </trkpt>
      <trkpt lat="47.20846" lon="5.98864">
        <ele>347.8</ele>
        <time>2021-04-25T08:07:19Z</time>
      </trkpt>
      <trkpt lat="47.20843" lon="5.98861">
        <ele>348</ele>
        <time>2021-04-25T08:07:20Z</time>
      </trkpt>
      <trkpt lat="47.2084" lon="5.98858">
        <ele>348.2</ele>
        <time>2021-04-25T08:07:21Z</time>
      </trkpt>
      <trkpt lat="47.20838" lon="5.98854">
        <ele>348.2</ele>
        <time>2021-04-25T08:07:22Z</time>
      </trkpt>
      <trkpt lat="47.20836" lon="5.98851">
        <ele>348.4</ele>
        <time>2021-04-25T08:07:23Z</time>
      </trkpt>
      <trkpt lat="47.20835" lon="5.98848">
        <ele>348.6</ele>
        <time>2021-04-25T08:07:24Z</time>
      </trkpt>
      <trkpt lat="47.20833" lon="5.98847">
        <ele>348.8</ele>
        <time>2021-04-25T08:07:25Z</time>
      </trkpt>
      <trkpt lat="47.20832" lon="5.98844">
        <ele>349</ele>
        <time>2021-04-25T08:07:26Z</time>
      </trkpt>
      <trkpt lat="47.20831" lon="5.98842">
        <ele>349.2</ele>
        <time>2021-04-25T08:07:27Z</time>
      </trkpt>
      <trkpt lat="47.2083" lon="5.98841">
        <ele>349.4</ele>
        <time>2021-04-25T08:07:28Z</time>
      </trkpt>
      <trkpt lat="47.20829" lon="5.9884">
        <ele>349.6</ele>
        <time>2021-04-25T08:07:29Z</time>
      </trkpt>
      <trkpt lat="47.20828" lon="5.98838">
        <ele>349.8</ele>
        <time>2021-04-25T08:07:30Z</time>
      </trkpt>
      <trkpt lat="47.20827" lon="5.98836">
        <ele>349.8</ele>
        <time>2021-04-25T08:07:31Z</time>
      </trkpt>
      <trkpt lat="47.20826" lon="5.98834">
        <ele>350.2</ele>
        <time>2021-04-25T08:07:32Z</time>
      </trkpt>
      <trkpt lat="47.20824" lon="5.98832">
        <ele>350.6</ele>
        <time>2021-04-25T08:07:33Z</time>
      </trkpt>
      <trkpt lat="47.20822" lon="5.9883">
        <ele>350.6</ele>
        <time>2021-04-25T08:07:34Z</time>
      </trkpt>
      <trkpt lat="47.20821" lon="5.98829">
        <ele>350.8</ele>
        <time>2021-04-25T08:07:35Z</time>
      </trkpt>
      <trkpt lat="47.20819" lon="5.98828">
        <ele>350.8</ele>
        <time>2021-04-25T08:07:36Z</time>
      </trkpt>
      <trkpt lat="47.20817" lon="5.98827">
        <ele>351.2</ele>
        <time>2021-04-25T08:07:37Z</time>
      </trkpt>
      <trkpt lat="47.20816" lon="5.98825">
        <ele>351.2</ele>
        <time>2021-04-25T08:07:38Z</time>
      </trkpt>
      <trkpt lat="47.20814" lon="5.98823">
        <ele>351.4</ele>
        <time>2021-04-25T08:07:39Z</time>
      </trkpt>
      <trkpt lat="47.20812" lon="5.98821">
        <ele>351.4</ele>
        <time>2021-04-25T08:07:40Z</time>
      </trkpt>
      <trkpt lat="47.20811" lon="5.9882">
        <ele>351.6</ele>
        <time>2021-04-25T08:07:41Z</time>
      </trkpt>
      <trkpt lat="47.2081" lon="5.98817">
        <ele>351.8</ele>
        <time>2021-04-25T08:07:42Z</time>
      </trkpt>
      <trkpt lat="47.20808" lon="5.98816">
        <ele>352</ele>
        <time>2021-04-25T08:07:43Z</time>
      </trkpt>
      <trkpt lat="47.20807" lon="5.98814">
        <ele>352</ele>
        <time>2021-04-25T08:07:44Z</time>
      </trkpt>
      <trkpt lat="47.20806" lon="5.98812">
        <ele>352.2</ele>
        <time>2021-04-25T08:07:45Z</time>
      </trkpt>
      <trkpt lat="47.20804" lon="5.98809">
        <ele>352.6</ele>
        <time>2021-04-25T08:07:46Z</time>
      </trkpt>
      <trkpt lat="47.20803" lon="5.98808">
        <ele>352.6</ele>
        <time>2021-04-25T08:07:47Z</time>
      </trkpt>
      <trkpt lat="47.20802" lon="5.98806">
        <ele>352.8</ele>
        <time>2021-04-25T08:07:48Z</time>
      </trkpt>
      <trkpt lat="47.20801" lon="5.98804">
        <ele>353.2</ele>
        <time>2021-04-25T08:07:49Z</time>
      </trkpt>
      <trkpt lat="47.208" lon="5.98802">
        <ele>353.2</ele>
        <time>2021-04-25T08:07:50Z</time>
      </trkpt>
      <trkpt lat="47.20799" lon="5.98801">
        <ele>353.4</ele>
        <time>2021-04-25T08:07:51Z</time>
      </trkpt>
      <trkpt lat="47.20797" lon="5.988">
        <ele>353.6</ele>
        <time>2021-04-25T08:07:52Z</time>
      </trkpt>
      <trkpt lat="47.20796" lon="5.98799">
        <ele>353.6</ele>
        <time>2021-04-25T08:07:53Z</time>
      </trkpt>
      <trkpt lat="47.20794" lon="5.98797">
        <ele>353.8</ele>
        <time>2021-04-25T08:07:54Z</time>
      </trkpt>
      <trkpt lat="47.20793" lon="5.98795">
        <ele>354</ele>
        <time>2021-04-25T08:07:55Z</time>
      </trkpt>
      <trkpt lat="47.20792" lon="5.98793">
        <ele>354</ele>
        <time>2021-04-25T08:07:56Z</time>
      </trkpt>
      <trkpt lat="47.2079" lon="5.98791">
        <ele>354.2</ele>
        <time>2021-04-25T08:07:57Z</time>
      </trkpt>
      <trkpt lat="47.20789" lon="5.98788">
        <ele>354.4</ele>
        <time>2021-04-25T08:07:58Z</time>
      </trkpt>
      <trkpt lat="47.20788" lon="5.98786">
        <ele>354.6</ele>
        <time>2021-04-25T08:07:59Z</time>
      </trkpt>
      <trkpt lat="47.20787" lon="5.98785">
        <ele>354.8</ele>
        <time>2021-04-25T08:08:00Z</time>
      </trkpt>
      <trkpt lat="47.20786" lon="5.98783">
        <ele>355</ele>
        <time>2021-04-25T08:08:01Z</time>
      </trkpt>
      <trkpt lat="47.20785" lon="5.98782">
        <ele>355.2</ele>
        <time>2021-04-25T08:08:02Z</time>
      </trkpt>
      <trkpt lat="47.20785" lon="5.98781">
        <ele>355.4</ele>
        <time>2021-04-25T08:08:03Z</time>
      </trkpt>
      <trkpt lat="47.20784" lon="5.98779">
        <ele>355.6</ele>
        <time>2021-04-25T08:08:04Z</time>
      </trkpt>
      <trkpt lat="47.20782" lon="5.98778">
        <ele>355.6</ele>
        <time>2021-04-25T08:08:05Z</time>
      </trkpt>
      <trkpt lat="47.20781" lon="5.98776">
        <ele>356</ele>
        <time>2021-04-25T08:08:06Z</time>
      </trkpt>
      <trkpt lat="47.2078" lon="5.98773">
        <ele>356.2</ele>
        <time>2021-04-25T08:08:07Z</time>
      </trkpt>
      <trkpt lat="47.2078" lon="5.9877">
        <ele>356.2</ele>
        <time>2021-04-25T08:08:08Z</time>
      </trkpt>
      <trkpt lat="47.20779" lon="5.98768">
        <ele>356.6</ele>
        <time>2021-04-25T08:08:09Z</time>
      </trkpt>
      <trkpt lat="47.20778" lon="5.98766">
        <ele>356.8</ele>
        <time>2021-04-25T08:08:10Z</time>
      </trkpt>
      <trkpt lat="47.20777" lon="5.98764">
        <ele>357</ele>
        <time>2021-04-25T08:08:11Z</time>
      </trkpt>
      <trkpt lat="47.20776" lon="5.98761">
        <ele>357</ele>
        <time>2021-04-25T08:08:12Z</time>
      </trkpt>
      <trkpt lat="47.20773" lon="5.98759">
        <ele>357.2</ele>
        <time>2021-04-25T08:08:13Z</time>
      </trkpt>
      <trkpt lat="47.20771" lon="5.98756">
        <ele>357.2</ele>
        <time>2021-04-25T08:08:14Z</time>
      </trkpt>
      <trkpt lat="47.20769" lon="5.98753">
        <ele>357.4</ele>
        <time>2021-04-25T08:08:15Z</time>
      </trkpt>
      <trkpt lat="47.20767" lon="5.9875">
        <ele>357.6</ele>
        <time>2021-04-25T08:08:16Z</time>
      </trkpt>
      <trkpt lat="47.20765" lon="5.98749">
        <ele>357.6</ele>
        <time>2021-04-25T08:08:17Z</time>
      </trkpt>
      <trkpt lat="47.20763" lon="5.98747">
        <ele>357.6</ele>
        <time>2021-04-25T08:08:18Z</time>
      </trkpt>
      <trkpt lat="47.2076" lon="5.98745">
        <ele>357.8</ele>
        <time>2021-04-25T08:08:19Z</time>
      </trkpt>
      <trkpt lat="47.20759" lon="5.98743">
        <ele>358</ele>
        <time>2021-04-25T08:08:20Z</time>
      </trkpt>
      <trkpt lat="47.20758" lon="5.98742">
        <ele>358</ele>
        <time>2021-04-25T08:08:21Z</time>
      </trkpt>
      <trkpt lat="47.20756" lon="5.9874">
        <ele>358.2</ele>
        <time>2021-04-25T08:08:22Z</time>
      </trkpt>
      <trkpt lat="47.20755" lon="5.98736">
        <ele>358.4</ele>
        <time>2021-04-25T08:08:23Z</time>
      </trkpt>
      <trkpt lat="47.20755" lon="5.98731">
        <ele>358.6</ele>
        <time>2021-04-25T08:08:24Z</time>
      </trkpt>
      <trkpt lat="47.20753" lon="5.98728">
        <ele>359</ele>
        <time>2021-04-25T08:08:25Z</time>
      </trkpt>
      <trkpt lat="47.20751" lon="5.98726">
        <ele>359</ele>
        <time>2021-04-25T08:08:26Z</time>
      </trkpt>
      <trkpt lat="47.20749" lon="5.98722">
        <ele>359.4</ele>
        <time>2021-04-25T08:08:27Z</time>
      </trkpt>
      <trkpt lat="47.20749" lon="5.98721">
        <ele>359.6</ele>
        <time>2021-04-25T08:08:28Z</time>
      </trkpt>
      <trkpt lat="47.20748" lon="5.98719">
        <ele>359.8</ele>
        <time>2021-04-25T08:08:29Z</time>
      </trkpt>
      <trkpt lat="47.20747" lon="5.98717">
        <ele>359.8</ele>
        <time>2021-04-25T08:08:30Z</time>
      </trkpt>
      <trkpt lat="47.20745" lon="5.98715">
        <ele>360</ele>
        <time>2021-04-25T08:08:31Z</time>
      </trkpt>
      <trkpt lat="47.20745" lon="5.98712">
        <ele>360.2</ele>
        <time>2021-04-25T08:08:32Z</time>
      </trkpt>
      <trkpt lat="47.20744" lon="5.98709">
        <ele>360.4</ele>
        <time>2021-04-25T08:08:33Z</time>
      </trkpt>
      <trkpt lat="47.20743" lon="5.98707">
        <ele>360.4</ele>
        <time>2021-04-25T08:08:34Z</time>
      </trkpt>
      <trkpt lat="47.20741" lon="5.98706">
        <ele>360.6</ele>
        <time>2021-04-25T08:08:35Z</time>
      </trkpt>
      <trkpt lat="47.2074" lon="5.98704">
        <ele>360.8</ele>
        <time>2021-04-25T08:08:36Z</time>
      </trkpt>
      <trkpt lat="47.20739" lon="5.98701">
        <ele>361</ele>
        <time>2021-04-25T08:08:37Z</time>
      </trkpt>
      <trkpt lat="47.20738" lon="5.98699">
        <ele>361.2</ele>
        <time>2021-04-25T08:08:38Z</time>
      </trkpt>
      <trkpt lat="47.20737" lon="5.98697">
        <ele>361.4</ele>
        <time>2021-04-25T08:08:39Z</time>
      </trkpt>
      <trkpt lat="47.20736" lon="5.98695">
        <ele>361.6</ele>
        <time>2021-04-25T08:08:40Z</time>
      </trkpt>
      <trkpt lat="47.20735" lon="5.98693">
        <ele>361.8</ele>
        <time>2021-04-25T08:08:41Z</time>
      </trkpt>
      <trkpt lat="47.20734" lon="5.98691">
        <ele>362</ele>
        <time>2021-04-25T08:08:42Z</time>
      </trkpt>
      <trkpt lat="47.20734" lon="5.98689">
        <ele>362</ele>
        <time>2021-04-25T08:08:43Z</time>
      </trkpt>
      <trkpt lat="47.20732" lon="5.98688">
        <ele>362.2</ele>
        <time>2021-04-25T08:08:44Z</time>
      </trkpt>
      <trkpt lat="47.20731" lon="5.98686">
        <ele>362.4</ele>
        <time>2021-04-25T08:08:45Z</time>
      </trkpt>
      <trkpt lat="47.2073" lon="5.98684">
        <ele>362.6</ele>
        <time>2021-04-25T08:08:46Z</time>
      </trkpt>
      <trkpt lat="47.20729" lon="5.98682">
        <ele>362.8</ele>
        <time>2021-04-25T08:08:47Z</time>
      </trkpt>
      <trkpt lat="47.20728" lon="5.9868">
        <ele>363</ele>
        <time>2021-04-25T08:08:48Z</time>
      </trkpt>
      <trkpt lat="47.20727" lon="5.98677">
        <ele>363.2</ele>
        <time>2021-04-25T08:08:49Z</time>
      </trkpt>
      <trkpt lat="47.20726" lon="5.98675">
        <ele>363.4</ele>
        <time>2021-04-25T08:08:50Z</time>
      </trkpt>
      <trkpt lat="47.20725" lon="5.98673">
        <ele>363.4</ele>
        <time>2021-04-25T08:08:51Z</time>
      </trkpt>
      <trkpt lat="47.20723" lon="5.98671">
        <ele>363.8</ele>
        <time>2021-04-25T08:08:52Z</time>
      </trkpt>
      <trkpt lat="47.20722" lon="5.98668">
        <ele>363.8</ele>
        <time>2021-04-25T08:08:53Z</time>
      </trkpt>
      <trkpt lat="47.2072" lon="5.98666">
        <ele>364</ele>
        <time>2021-04-25T08:08:54Z</time>
      </trkpt>
      <trkpt lat="47.20719" lon="5.98664">
        <ele>364.2</ele>
        <time>2021-04-25T08:08:55Z</time>
      </trkpt>
      <trkpt lat="47.20717" lon="5.98663">
        <ele>364.4</ele>
        <time>2021-04-25T08:08:56Z</time>
      </trkpt>
      <trkpt lat="47.20716" lon="5.98663">
        <ele>364.4</ele>
        <time>2021-04-25T08:08:57Z</time>
      </trkpt>
      <trkpt lat="47.20714" lon="5.98661">
        <ele>364.6</ele>
        <time>2021-04-25T08:08:58Z</time>
      </trkpt>
      <trkpt lat="47.20714" lon="5.98659">
        <ele>365</ele>
        <time>2021-04-25T08:08:59Z</time>
      </trkpt>
      <trkpt lat="47.20713" lon="5.98656">
        <ele>365</ele>
        <time>2021-04-25T08:09:00Z</time>
      </trkpt>
      <trkpt lat="47.20712" lon="5.98654">
        <ele>365.2</ele>
        <time>2021-04-25T08:09:01Z</time>
      </trkpt>
      <trkpt lat="47.20711" lon="5.98651">
        <ele>365.6</ele>
        <time>2021-04-25T08:09:02Z</time>
      </trkpt>
      <trkpt lat="47.20711" lon="5.98649">
        <ele>365.8</ele>
        <time>2021-04-25T08:09:03Z</time>
      </trkpt>
      <trkpt lat="47.20709" lon="5.98647">
        <ele>366</ele>
        <time>2021-04-25T08:09:04Z</time>
      </trkpt>
      <trkpt lat="47.20707" lon="5.98645">
        <ele>366.2</ele>
        <time>2021-04-25T08:09:05Z</time>
      </trkpt>
      <trkpt lat="47.20706" lon="5.98642">
        <ele>366.2</ele>
        <time>2021-04-25T08:09:06Z</time>
      </trkpt>
      <trkpt lat="47.20705" lon="5.9864">
        <ele>366.4</ele>
        <time>2021-04-25T08:09:07Z</time>
      </trkpt>
      <trkpt lat="47.20704" lon="5.98636">
        <ele>366.6</ele>
        <time>2021-04-25T08:09:08Z</time>
      </trkpt>
      <trkpt lat="47.20702" lon="5.98634">
        <ele>366.6</ele>
        <time>2021-04-25T08:09:09Z</time>
      </trkpt>
      <trkpt lat="47.20701" lon="5.98631">
        <ele>367</ele>
        <time>2021-04-25T08:09:10Z</time>
      </trkpt>
      <trkpt lat="47.207" lon="5.98629">
        <ele>367</ele>
        <time>2021-04-25T08:09:11Z</time>
      </trkpt>
      <trkpt lat="47.20699" lon="5.98626">
        <ele>367.2</ele>
        <time>2021-04-25T08:09:12Z</time>
      </trkpt>
      <trkpt lat="47.20698" lon="5.98624">
        <ele>367.2</ele>
        <time>2021-04-25T08:09:13Z</time>
      </trkpt>
      <trkpt lat="47.20697" lon="5.98622">
        <ele>367.6</ele>
        <time>2021-04-25T08:09:14Z</time>
      </trkpt>
      <trkpt lat="47.20696" lon="5.9862">
        <ele>367.8</ele>
        <time>2021-04-25T08:09:15Z</time>
      </trkpt>
      <trkpt lat="47.20694" lon="5.98619">
        <ele>367.8</ele>
        <time>2021-04-25T08:09:16Z</time>
      </trkpt>
      <trkpt lat="47.20694" lon="5.98617">
        <ele>368.4</ele>
        <time>2021-04-25T08:09:17Z</time>
      </trkpt>
      <trkpt lat="47.20692" lon="5.98615">
        <ele>368.4</ele>
        <time>2021-04-25T08:09:18Z</time>
      </trkpt>
      <trkpt lat="47.20691" lon="5.98612">
        <ele>368.8</ele>
        <time>2021-04-25T08:09:19Z</time>
      </trkpt>
      <trkpt lat="47.2069" lon="5.9861">
        <ele>369</ele>
        <time>2021-04-25T08:09:20Z</time>
      </trkpt>
      <trkpt lat="47.20689" lon="5.98608">
        <ele>369.2</ele>
        <time>2021-04-25T08:09:21Z</time>
      </trkpt>
      <trkpt lat="47.20687" lon="5.98604">
        <ele>369.4</ele>
        <time>2021-04-25T08:09:22Z</time>
      </trkpt>
      <trkpt lat="47.20687" lon="5.98602">
        <ele>369.6</ele>
        <time>2021-04-25T08:09:23Z</time>
      </trkpt>
      <trkpt lat="47.20686" lon="5.986">
        <ele>369.8</ele>
        <time>2021-04-25T08:09:24Z</time>
      </trkpt>
      <trkpt lat="47.20684" lon="5.98598">
        <ele>369.8</ele>
        <time>2021-04-25T08:09:25Z</time>
      </trkpt>
      <trkpt lat="47.20683" lon="5.98596">
        <ele>370</ele>
        <time>2021-04-25T08:09:26Z</time>
      </trkpt>
      <trkpt lat="47.20682" lon="5.98594">
        <ele>370</ele>
        <time>2021-04-25T08:09:27Z</time>
      </trkpt>
      <trkpt lat="47.2068" lon="5.98592">
        <ele>370.2</ele>
        <time>2021-04-25T08:09:28Z</time>
      </trkpt>
      <trkpt lat="47.20678" lon="5.9859">
        <ele>370.4</ele>
        <time>2021-04-25T08:09:29Z</time>
      </trkpt>
      <trkpt lat="47.20678" lon="5.98587">
        <ele>370.8</ele>
        <time>2021-04-25T08:09:30Z</time>
      </trkpt>
      <trkpt lat="47.20677" lon="5.98586">
        <ele>371</ele>
        <time>2021-04-25T08:09:31Z</time>
      </trkpt>
      <trkpt lat="47.20676" lon="5.98584">
        <ele>371.2</ele>
        <time>2021-04-25T08:09:32Z</time>
      </trkpt>
      <trkpt lat="47.20674" lon="5.98581">
        <ele>371.6</ele>
        <time>2021-04-25T08:09:33Z</time>
      </trkpt>
      <trkpt lat="47.20673" lon="5.98579">
        <ele>371.8</ele>
        <time>2021-04-25T08:09:34Z</time>
      </trkpt>
      <trkpt lat="47.20672" lon="5.98577">
        <ele>372.2</ele>
        <time>2021-04-25T08:09:35Z</time>
      </trkpt>
      <trkpt lat="47.20671" lon="5.98575">
        <ele>372.2</ele>
        <time>2021-04-25T08:09:36Z</time>
      </trkpt>
      <trkpt lat="47.2067" lon="5.98573">
        <ele>372.2</ele>
        <time>2021-04-25T08:09:37Z</time>
      </trkpt>
      <trkpt lat="47.2067" lon="5.98571">
        <ele>372.2</ele>
        <time>2021-04-25T08:09:38Z</time>
      </trkpt>
      <trkpt lat="47.20669" lon="5.98568">
        <ele>372.6</ele>
        <time>2021-04-25T08:09:39Z</time>
      </trkpt>
      <trkpt lat="47.20669" lon="5.98566">
        <ele>372.8</ele>
        <time>2021-04-25T08:09:40Z</time>
      </trkpt>
      <trkpt lat="47.20669" lon="5.98564">
        <ele>373</ele>
        <time>2021-04-25T08:09:41Z</time>
      </trkpt>
      <trkpt lat="47.20668" lon="5.98562">
        <ele>373</ele>
        <time>2021-04-25T08:09:42Z</time>
      </trkpt>
      <trkpt lat="47.20668" lon="5.98559">
        <ele>373.2</ele>
        <time>2021-04-25T08:09:43Z</time>
      </trkpt>
      <trkpt lat="47.20668" lon="5.98555">
        <ele>373.4</ele>
        <time>2021-04-25T08:09:44Z</time>
      </trkpt>
      <trkpt lat="47.20667" lon="5.98553">
        <ele>373.6</ele>
        <time>2021-04-25T08:09:45Z</time>
      </trkpt>
      <trkpt lat="47.20666" lon="5.98552">
        <ele>374</ele>
        <time>2021-04-25T08:09:46Z</time>
      </trkpt>
      <trkpt lat="47.20665" lon="5.98551">
        <ele>374.2</ele>
        <time>2021-04-25T08:09:47Z</time>
      </trkpt>
      <trkpt lat="47.20665" lon="5.98548">
        <ele>374.4</ele>
        <time>2021-04-25T08:09:48Z</time>
      </trkpt>
      <trkpt lat="47.20664" lon="5.98546">
        <ele>374.6</ele>
        <time>2021-04-25T08:09:49Z</time>
      </trkpt>
      <trkpt lat="47.20663" lon="5.98543">
        <ele>374.8</ele>
        <time>2021-04-25T08:09:50Z</time>
      </trkpt>
      <trkpt lat="47.20662" lon="5.98541">
        <ele>375</ele>
        <time>2021-04-25T08:09:51Z</time>
      </trkpt>
      <trkpt lat="47.20661" lon="5.98538">
        <ele>375</ele>
        <time>2021-04-25T08:09:52Z</time>
      </trkpt>
      <trkpt lat="47.2066" lon="5.98536">
        <ele>375.4</ele>
        <time>2021-04-25T08:09:53Z</time>
      </trkpt>
      <trkpt lat="47.20659" lon="5.98532">
        <ele>375.4</ele>
        <time>2021-04-25T08:09:54Z</time>
      </trkpt>
      <trkpt lat="47.20658" lon="5.98529">
        <ele>375.6</ele>
        <time>2021-04-25T08:09:55Z</time>
      </trkpt>
      <trkpt lat="47.20657" lon="5.98525">
        <ele>376</ele>
        <time>2021-04-25T08:09:56Z</time>
      </trkpt>
      <trkpt lat="47.20657" lon="5.98522">
        <ele>376</ele>
        <time>2021-04-25T08:09:57Z</time>
      </trkpt>
      <trkpt lat="47.20655" lon="5.98517">
        <ele>376.2</ele>
        <time>2021-04-25T08:09:58Z</time>
      </trkpt>
      <trkpt lat="47.20655" lon="5.98514">
        <ele>376.2</ele>
        <time>2021-04-25T08:09:59Z</time>
      </trkpt>
      <trkpt lat="47.20654" lon="5.98511">
        <ele>376.4</ele>
        <time>2021-04-25T08:10:00Z</time>
      </trkpt>
      <trkpt lat="47.20651" lon="5.98509">
        <ele>376.6</ele>
        <time>2021-04-25T08:10:01Z</time>
      </trkpt>
      <trkpt lat="47.20649" lon="5.98507">
        <ele>376.8</ele>
        <time>2021-04-25T08:10:02Z</time>
      </trkpt>
      <trkpt lat="47.20647" lon="5.98505">
        <ele>376.8</ele>
        <time>2021-04-25T08:10:03Z</time>
      </trkpt>
      <trkpt lat="47.20645" lon="5.98503">
        <ele>377</ele>
        <time>2021-04-25T08:10:04Z</time>
      </trkpt>
      <trkpt lat="47.20642" lon="5.98502">
        <ele>377.2</ele>
        <time>2021-04-25T08:10:05Z</time>
      </trkpt>
      <trkpt lat="47.2064" lon="5.985">
        <ele>377.4</ele>
        <time>2021-04-25T08:10:06Z</time>
      </trkpt>
      <trkpt lat="47.20638" lon="5.98499">
        <ele>377.6</ele>
        <time>2021-04-25T08:10:07Z</time>
      </trkpt>
      <trkpt lat="47.20637" lon="5.98497">
        <ele>377.6</ele>
        <time>2021-04-25T08:10:08Z</time>
      </trkpt>
      <trkpt lat="47.20637" lon="5.98493">
        <ele>378</ele>
        <time>2021-04-25T08:10:09Z</time>
      </trkpt>
      <trkpt lat="47.20635" lon="5.9849">
        <ele>378.2</ele>
        <time>2021-04-25T08:10:10Z</time>
      </trkpt>
      <trkpt lat="47.20633" lon="5.98486">
        <ele>378.4</ele>
        <time>2021-04-25T08:10:11Z</time>
      </trkpt>
      <trkpt lat="47.20632" lon="5.98485">
        <ele>378.4</ele>
        <time>2021-04-25T08:10:12Z</time>
      </trkpt>
      <trkpt lat="47.2063" lon="5.98483">
        <ele>378.8</ele>
        <time>2021-04-25T08:10:13Z</time>
      </trkpt>
      <trkpt lat="47.20629" lon="5.98479">
        <ele>379</ele>
        <time>2021-04-25T08:10:14Z</time>
      </trkpt>
      <trkpt lat="47.20627" lon="5.98477">
        <ele>379</ele>
        <time>2021-04-25T08:10:15Z</time>
      </trkpt>
      <trkpt lat="47.20625" lon="5.98473">
        <ele>379.2</ele>
        <time>2021-04-25T08:10:16Z</time>
      </trkpt>
      <trkpt lat="47.20623" lon="5.98471">
        <ele>379.4</ele>
        <time>2021-04-25T08:10:17Z</time>
      </trkpt>
      <trkpt lat="47.20622" lon="5.98469">
        <ele>379.6</ele>
        <time>2021-04-25T08:10:18Z</time>
      </trkpt>
      <trkpt lat="47.20622" lon="5.98468">
        <ele>379.6</ele>
        <time>2021-04-25T08:10:19Z</time>
      </trkpt>
      <trkpt lat="47.20621" lon="5.98465">
        <ele>379.8</ele>
        <time>2021-04-25T08:10:20Z</time>
      </trkpt>
      <trkpt lat="47.2062" lon="5.98463">
        <ele>379.8</ele>
        <time>2021-04-25T08:10:21Z</time>
      </trkpt>
      <trkpt lat="47.20619" lon="5.98461">
        <ele>380.2</ele>
        <time>2021-04-25T08:10:22Z</time>
      </trkpt>
      <trkpt lat="47.20618" lon="5.98459">
        <ele>380.6</ele>
        <time>2021-04-25T08:10:23Z</time>
      </trkpt>
      <trkpt lat="47.20617" lon="5.98457">
        <ele>380.6</ele>
        <time>2021-04-25T08:10:24Z</time>
      </trkpt>
      <trkpt lat="47.20616" lon="5.98455">
        <ele>381</ele>
        <time>2021-04-25T08:10:25Z</time>
      </trkpt>
      <trkpt lat="47.20614" lon="5.98453">
        <ele>381</ele>
        <time>2021-04-25T08:10:26Z</time>
      </trkpt>
      <trkpt lat="47.20613" lon="5.98452">
        <ele>381.2</ele>
        <time>2021-04-25T08:10:27Z</time>
      </trkpt>
      <trkpt lat="47.20612" lon="5.98451">
        <ele>381.4</ele>
        <time>2021-04-25T08:10:28Z</time>
      </trkpt>
      <trkpt lat="47.20611" lon="5.98448">
        <ele>381.6</ele>
        <time>2021-04-25T08:10:29Z</time>
      </trkpt>
      <trkpt lat="47.2061" lon="5.98445">
        <ele>381.8</ele>
        <time>2021-04-25T08:10:30Z</time>
      </trkpt>
      <trkpt lat="47.20609" lon="5.98444">
        <ele>381.8</ele>
        <time>2021-04-25T08:10:31Z</time>
      </trkpt>
      <trkpt lat="47.20607" lon="5.98442">
        <ele>382</ele>
        <time>2021-04-25T08:10:32Z</time>
      </trkpt>
      <trkpt lat="47.20606" lon="5.9844">
        <ele>382</ele>
        <time>2021-04-25T08:10:33Z</time>
      </trkpt>
      <trkpt lat="47.20606" lon="5.98438">
        <ele>382.2</ele>
        <time>2021-04-25T08:10:34Z</time>
      </trkpt>
      <trkpt lat="47.20605" lon="5.98436">
        <ele>382.4</ele>
        <time>2021-04-25T08:10:35Z</time>
      </trkpt>
      <trkpt lat="47.20603" lon="5.98433">
        <ele>382.6</ele>
        <time>2021-04-25T08:10:36Z</time>
      </trkpt>
      <trkpt lat="47.20602" lon="5.98431">
        <ele>382.8</ele>
        <time>2021-04-25T08:10:37Z</time>
      </trkpt>
      <trkpt lat="47.20601" lon="5.9843">
        <ele>383</ele>
        <time>2021-04-25T08:10:38Z</time>
      </trkpt>
      <trkpt lat="47.20599" lon="5.98428">
        <ele>383</ele>
        <time>2021-04-25T08:10:39Z</time>
      </trkpt>
      <trkpt lat="47.20598" lon="5.98426">
        <ele>383</ele>
        <time>2021-04-25T08:10:40Z</time>
      </trkpt>
      <trkpt lat="47.20596" lon="5.98424">
        <ele>383.4</ele>
        <time>2021-04-25T08:10:41Z</time>
      </trkpt>
      <trkpt lat="47.20595" lon="5.98422">
        <ele>383.4</ele>
        <time>2021-04-25T08:10:42Z</time>
      </trkpt>
      <trkpt lat="47.20594" lon="5.9842">
        <ele>383.8</ele>
        <time>2021-04-25T08:10:43Z</time>
      </trkpt>
      <trkpt lat="47.20593" lon="5.98417">
        <ele>383.8</ele>
        <time>2021-04-25T08:10:44Z</time>
      </trkpt>
      <trkpt lat="47.20592" lon="5.98415">
        <ele>384.2</ele>
        <time>2021-04-25T08:10:45Z</time>
      </trkpt>
      <trkpt lat="47.20591" lon="5.98414">
        <ele>384.4</ele>
        <time>2021-04-25T08:10:46Z</time>
      </trkpt>
      <trkpt lat="47.20589" lon="5.98412">
        <ele>384.6</ele>
        <time>2021-04-25T08:10:47Z</time>
      </trkpt>
      <trkpt lat="47.20589" lon="5.9841">
        <ele>384.8</ele>
        <time>2021-04-25T08:10:48Z</time>
      </trkpt>
      <trkpt lat="47.20588" lon="5.98408">
        <ele>384.8</ele>
        <time>2021-04-25T08:10:49Z</time>
      </trkpt>
      <trkpt lat="47.20587" lon="5.98405">
        <ele>385</ele>
        <time>2021-04-25T08:10:50Z</time>
      </trkpt>
      <trkpt lat="47.20586" lon="5.98402">
        <ele>385.2</ele>
        <time>2021-04-25T08:10:51Z</time>
      </trkpt>
      <trkpt lat="47.20586" lon="5.984">
        <ele>385.2</ele>
        <time>2021-04-25T08:10:52Z</time>
      </trkpt>
      <trkpt lat="47.20584" lon="5.98398">
        <ele>385.4</ele>
        <time>2021-04-25T08:10:53Z</time>
      </trkpt>
      <trkpt lat="47.20582" lon="5.98396">
        <ele>385.6</ele>
        <time>2021-04-25T08:10:54Z</time>
      </trkpt>
      <trkpt lat="47.20581" lon="5.98394">
        <ele>385.8</ele>
        <time>2021-04-25T08:10:55Z</time>
      </trkpt>
      <trkpt lat="47.2058" lon="5.98392">
        <ele>385.8</ele>
        <time>2021-04-25T08:10:56Z</time>
      </trkpt>
      <trkpt lat="47.20578" lon="5.9839">
        <ele>386</ele>
        <time>2021-04-25T08:10:57Z</time>
      </trkpt>
      <trkpt lat="47.20577" lon="5.98389">
        <ele>386</ele>
        <time>2021-04-25T08:10:58Z</time>
      </trkpt>
      <trkpt lat="47.20576" lon="5.98388">
        <ele>386.2</ele>
        <time>2021-04-25T08:10:59Z</time>
      </trkpt>
      <trkpt lat="47.20574" lon="5.98388">
        <ele>386.2</ele>
        <time>2021-04-25T08:11:00Z</time>
      </trkpt>
      <trkpt lat="47.20572" lon="5.98386">
        <ele>386.4</ele>
        <time>2021-04-25T08:11:01Z</time>
      </trkpt>
      <trkpt lat="47.20572" lon="5.98384">
        <ele>386.6</ele>
        <time>2021-04-25T08:11:02Z</time>
      </trkpt>
      <trkpt lat="47.20571" lon="5.98382">
        <ele>386.8</ele>
        <time>2021-04-25T08:11:03Z</time>
      </trkpt>
      <trkpt lat="47.2057" lon="5.9838">
        <ele>387</ele>
        <time>2021-04-25T08:11:04Z</time>
      </trkpt>
      <trkpt lat="47.20569" lon="5.98379">
        <ele>387</ele>
        <time>2021-04-25T08:11:05Z</time>
      </trkpt>
      <trkpt lat="47.20568" lon="5.98378">
        <ele>387.4</ele>
        <time>2021-04-25T08:11:06Z</time>
      </trkpt>
      <trkpt lat="47.20567" lon="5.98376">
        <ele>387.4</ele>
        <time>2021-04-25T08:11:07Z</time>
      </trkpt>
      <trkpt lat="47.20566" lon="5.98374">
        <ele>387.6</ele>
        <time>2021-04-25T08:11:08Z</time>
      </trkpt>
      <trkpt lat="47.20566" lon="5.98372">
        <ele>387.6</ele>
        <time>2021-04-25T08:11:09Z</time>
      </trkpt>
      <trkpt lat="47.20565" lon="5.98371">
        <ele>387.8</ele>
        <time>2021-04-25T08:11:10Z</time>
      </trkpt>
      <trkpt lat="47.20564" lon="5.98369">
        <ele>388</ele>
        <time>2021-04-25T08:11:11Z</time>
      </trkpt>
      <trkpt lat="47.20563" lon="5.98368">
        <ele>388.2</ele>
        <time>2021-04-25T08:11:12Z</time>
      </trkpt>
      <trkpt lat="47.20563" lon="5.98367">
        <ele>388.4</ele>
        <time>2021-04-25T08:11:13Z</time>
      </trkpt>
      <trkpt lat="47.20561" lon="5.98365">
        <ele>388.6</ele>
        <time>2021-04-25T08:11:14Z</time>
      </trkpt>
      <trkpt lat="47.2056" lon="5.98364">
        <ele>388.6</ele>
        <time>2021-04-25T08:11:15Z</time>
      </trkpt>
      <trkpt lat="47.20559" lon="5.98362">
        <ele>388.8</ele>
        <time>2021-04-25T08:11:16Z</time>
      </trkpt>
      <trkpt lat="47.20558" lon="5.9836">
        <ele>389</ele>
        <time>2021-04-25T08:11:17Z</time>
      </trkpt>
      <trkpt lat="47.20556" lon="5.98358">
        <ele>389.2</ele>
        <time>2021-04-25T08:11:18Z</time>
      </trkpt>
      <trkpt lat="47.20555" lon="5.98355">
        <ele>389.2</ele>
        <time>2021-04-25T08:11:19Z</time>
      </trkpt>
      <trkpt lat="47.20554" lon="5.98353">
        <ele>389.4</ele>
        <time>2021-04-25T08:11:20Z</time>
      </trkpt>
      <trkpt lat="47.20553" lon="5.98351">
        <ele>389.6</ele>
        <time>2021-04-25T08:11:21Z</time>
      </trkpt>
      <trkpt lat="47.20552" lon="5.98349">
        <ele>389.8</ele>
        <time>2021-04-25T08:11:22Z</time>
      </trkpt>
      <trkpt lat="47.20551" lon="5.98347">
        <ele>389.8</ele>
        <time>2021-04-25T08:11:23Z</time>
      </trkpt>
      <trkpt lat="47.20551" lon="5.98345">
        <ele>390</ele>
        <time>2021-04-25T08:11:24Z</time>
      </trkpt>
      <trkpt lat="47.2055" lon="5.98343">
        <ele>390.2</ele>
        <time>2021-04-25T08:11:25Z</time>
      </trkpt>
      <trkpt lat="47.20548" lon="5.98341">
        <ele>390.4</ele>
        <time>2021-04-25T08:11:26Z</time>
      </trkpt>
      <trkpt lat="47.20548" lon="5.98339">
        <ele>390.4</ele>
        <time>2021-04-25T08:11:27Z</time>
      </trkpt>
      <trkpt lat="47.20546" lon="5.98338">
        <ele>390.6</ele>
        <time>2021-04-25T08:11:28Z</time>
      </trkpt>
      <trkpt lat="47.20544" lon="5.98336">
        <ele>390.8</ele>
        <time>2021-04-25T08:11:29Z</time>
      </trkpt>
      <trkpt lat="47.20543" lon="5.98335">
        <ele>391</ele>
        <time>2021-04-25T08:11:30Z</time>
      </trkpt>
      <trkpt lat="47.20542" lon="5.98333">
        <ele>391.2</ele>
        <time>2021-04-25T08:11:31Z</time>
      </trkpt>
      <trkpt lat="47.20541" lon="5.98331">
        <ele>391.4</ele>
        <time>2021-04-25T08:11:32Z</time>
      </trkpt>
      <trkpt lat="47.2054" lon="5.98328">
        <ele>391.6</ele>
        <time>2021-04-25T08:11:33Z</time>
      </trkpt>
      <trkpt lat="47.20536" lon="5.98325">
        <ele>391.6</ele>
        <time>2021-04-25T08:11:34Z</time>
      </trkpt>
      <trkpt lat="47.20535" lon="5.98322">
        <ele>391.8</ele>
        <time>2021-04-25T08:11:35Z</time>
      </trkpt>
      <trkpt lat="47.20535" lon="5.98319">
        <ele>392</ele>
        <time>2021-04-25T08:11:36Z</time>
      </trkpt>
      <trkpt lat="47.20532" lon="5.98317">
        <ele>392</ele>
        <time>2021-04-25T08:11:37Z</time>
      </trkpt>
      <trkpt lat="47.20531" lon="5.98315">
        <ele>392.2</ele>
        <time>2021-04-25T08:11:38Z</time>
      </trkpt>
      <trkpt lat="47.2053" lon="5.98315">
        <ele>392.4</ele>
        <time>2021-04-25T08:11:39Z</time>
      </trkpt>
      <trkpt lat="47.20527" lon="5.98313">
        <ele>392.6</ele>
        <time>2021-04-25T08:11:40Z</time>
      </trkpt>
      <trkpt lat="47.20527" lon="5.9831">
        <ele>393</ele>
        <time>2021-04-25T08:11:41Z</time>
      </trkpt>
      <trkpt lat="47.20525" lon="5.98306">
        <ele>393.2</ele>
        <time>2021-04-25T08:11:42Z</time>
      </trkpt>
      <trkpt lat="47.20525" lon="5.98303">
        <ele>393.2</ele>
        <time>2021-04-25T08:11:43Z</time>
      </trkpt>
      <trkpt lat="47.20523" lon="5.983">
        <ele>393.4</ele>
        <time>2021-04-25T08:11:44Z</time>
      </trkpt>
      <trkpt lat="47.20522" lon="5.98298">
        <ele>393.6</ele>
        <time>2021-04-25T08:11:45Z</time>
      </trkpt>
      <trkpt lat="47.20521" lon="5.98294">
        <ele>393.6</ele>
        <time>2021-04-25T08:11:46Z</time>
      </trkpt>
      <trkpt lat="47.20519" lon="5.98291">
        <ele>393.8</ele>
        <time>2021-04-25T08:11:47Z</time>
      </trkpt>
      <trkpt lat="47.20519" lon="5.9829">
        <ele>394</ele>
        <time>2021-04-25T08:11:48Z</time>
      </trkpt>
      <trkpt lat="47.20519" lon="5.98288">
        <ele>394.4</ele>
        <time>2021-04-25T08:11:49Z</time>
      </trkpt>
      <trkpt lat="47.20519" lon="5.98286">
        <ele>394.4</ele>
        <time>2021-04-25T08:11:50Z</time>
      </trkpt>
      <trkpt lat="47.20519" lon="5.98283">
        <ele>394.8</ele>
        <time>2021-04-25T08:11:51Z</time>
      </trkpt>
      <trkpt lat="47.20519" lon="5.98281">
        <ele>395.2</ele>
        <time>2021-04-25T08:11:52Z</time>
      </trkpt>
      <trkpt lat="47.20518" lon="5.98279">
        <ele>395.2</ele>
        <time>2021-04-25T08:11:53Z</time>
      </trkpt>
      <trkpt lat="47.20517" lon="5.98277">
        <ele>395.4</ele>
        <time>2021-04-25T08:11:54Z</time>
      </trkpt>
      <trkpt lat="47.20516" lon="5.98276">
        <ele>395.6</ele>
        <time>2021-04-25T08:11:55Z</time>
      </trkpt>
      <trkpt lat="47.20514" lon="5.98274">
        <ele>395.8</ele>
        <time>2021-04-25T08:11:56Z</time>
      </trkpt>
      <trkpt lat="47.20513" lon="5.98272">
        <ele>395.8</ele>
        <time>2021-04-25T08:11:57Z</time>
      </trkpt>
      <trkpt lat="47.20512" lon="5.9827">
        <ele>396</ele>
        <time>2021-04-25T08:11:58Z</time>
      </trkpt>
      <trkpt lat="47.20511" lon="5.98268">
        <ele>396.2</ele>
        <time>2021-04-25T08:11:59Z</time>
      </trkpt>
      <trkpt lat="47.20509" lon="5.98266">
        <ele>396.4</ele>
        <time>2021-04-25T08:12:00Z</time>
      </trkpt>
      <trkpt lat="47.20508" lon="5.98264">
        <ele>396.6</ele>
        <time>2021-04-25T08:12:01Z</time>
      </trkpt>
      <trkpt lat="47.20506" lon="5.98262">
        <ele>396.6</ele>
        <time>2021-04-25T08:12:02Z</time>
      </trkpt>
      <trkpt lat="47.20506" lon="5.9826">
        <ele>396.8</ele>
        <time>2021-04-25T08:12:03Z</time>
      </trkpt>
      <trkpt lat="47.20505" lon="5.98259">
        <ele>397</ele>
        <time>2021-04-25T08:12:04Z</time>
      </trkpt>
      <trkpt lat="47.20503" lon="5.98257">
        <ele>397.2</ele>
        <time>2021-04-25T08:12:05Z</time>
      </trkpt>
      <trkpt lat="47.20501" lon="5.98256">
        <ele>397.4</ele>
        <time>2021-04-25T08:12:06Z</time>
      </trkpt>
      <trkpt lat="47.205" lon="5.98255">
        <ele>397.8</ele>
        <time>2021-04-25T08:12:07Z</time>
      </trkpt>
      <trkpt lat="47.20499" lon="5.98253">
        <ele>398</ele>
        <time>2021-04-25T08:12:08Z</time>
      </trkpt>
      <trkpt lat="47.20498" lon="5.9825">
        <ele>398</ele>
        <time>2021-04-25T08:12:09Z</time>
      </trkpt>
      <trkpt lat="47.20498" lon="5.98247">
        <ele>398</ele>
        <time>2021-04-25T08:12:10Z</time>
      </trkpt>
      <trkpt lat="47.20497" lon="5.98244">
        <ele>398.2</ele>
        <time>2021-04-25T08:12:11Z</time>
      </trkpt>
      <trkpt lat="47.20496" lon="5.98242">
        <ele>398.4</ele>
        <time>2021-04-25T08:12:12Z</time>
      </trkpt>
      <trkpt lat="47.20494" lon="5.9824">
        <ele>398.6</ele>
        <time>2021-04-25T08:12:13Z</time>
      </trkpt>
      <trkpt lat="47.20492" lon="5.98237">
        <ele>398.6</ele>
        <time>2021-04-25T08:12:14Z</time>
      </trkpt>
      <trkpt lat="47.20491" lon="5.98234">
        <ele>398.8</ele>
        <time>2021-04-25T08:12:15Z</time>
      </trkpt>
      <trkpt lat="47.2049" lon="5.98233">
        <ele>398.8</ele>
        <time>2021-04-25T08:12:16Z</time>
      </trkpt>
      <trkpt lat="47.2049" lon="5.9823">
        <ele>399.4</ele>
        <time>2021-04-25T08:12:17Z</time>
      </trkpt>
      <trkpt lat="47.20488" lon="5.98226">
        <ele>399.4</ele>
        <time>2021-04-25T08:12:18Z</time>
      </trkpt>
      <trkpt lat="47.20487" lon="5.98223">
        <ele>399.6</ele>
        <time>2021-04-25T08:12:19Z</time>
      </trkpt>
      <trkpt lat="47.20486" lon="5.98222">
        <ele>399.6</ele>
        <time>2021-04-25T08:12:20Z</time>
      </trkpt>
      <trkpt lat="47.20484" lon="5.98219">
        <ele>399.8</ele>
        <time>2021-04-25T08:12:21Z</time>
      </trkpt>
      <trkpt lat="47.20483" lon="5.98217">
        <ele>400</ele>
        <time>2021-04-25T08:12:22Z</time>
      </trkpt>
      <trkpt lat="47.20479" lon="5.98214">
        <ele>400.2</ele>
        <time>2021-04-25T08:12:23Z</time>
      </trkpt>
      <trkpt lat="47.20477" lon="5.98209">
        <ele>400.4</ele>
        <time>2021-04-25T08:12:24Z</time>
      </trkpt>
      <trkpt lat="47.20477" lon="5.98205">
        <ele>400.4</ele>
        <time>2021-04-25T08:12:25Z</time>
      </trkpt>
      <trkpt lat="47.20477" lon="5.98203">
        <ele>400.6</ele>
        <time>2021-04-25T08:12:26Z</time>
      </trkpt>
      <trkpt lat="47.20476" lon="5.982">
        <ele>400.6</ele>
        <time>2021-04-25T08:12:27Z</time>
      </trkpt>
      <trkpt lat="47.20473" lon="5.98199">
        <ele>401</ele>
        <time>2021-04-25T08:12:28Z</time>
      </trkpt>
      <trkpt lat="47.20472" lon="5.98198">
        <ele>401</ele>
        <time>2021-04-25T08:12:29Z</time>
      </trkpt>
      <trkpt lat="47.20471" lon="5.98197">
        <ele>401.2</ele>
        <time>2021-04-25T08:12:30Z</time>
      </trkpt>
      <trkpt lat="47.2047" lon="5.98194">
        <ele>401.4</ele>
        <time>2021-04-25T08:12:31Z</time>
      </trkpt>
      <trkpt lat="47.20467" lon="5.98191">
        <ele>401.6</ele>
        <time>2021-04-25T08:12:32Z</time>
      </trkpt>
      <trkpt lat="47.20466" lon="5.98188">
        <ele>401.8</ele>
        <time>2021-04-25T08:12:33Z</time>
      </trkpt>
      <trkpt lat="47.20465" lon="5.98185">
        <ele>402</ele>
        <time>2021-04-25T08:12:34Z</time>
      </trkpt>
      <trkpt lat="47.20464" lon="5.98183">
        <ele>402</ele>
        <time>2021-04-25T08:12:35Z</time>
      </trkpt>
      <trkpt lat="47.20464" lon="5.98179">
        <ele>402.2</ele>
        <time>2021-04-25T08:12:36Z</time>
      </trkpt>
      <trkpt lat="47.20464" lon="5.98177">
        <ele>402.6</ele>
        <time>2021-04-25T08:12:37Z</time>
      </trkpt>
      <trkpt lat="47.2046" lon="5.98177">
        <ele>402.8</ele>
        <time>2021-04-25T08:12:38Z</time>
      </trkpt>
      <trkpt lat="47.20459" lon="5.98174">
        <ele>403</ele>
        <time>2021-04-25T08:12:39Z</time>
      </trkpt>
      <trkpt lat="47.20457" lon="5.98172">
        <ele>403.2</ele>
        <time>2021-04-25T08:12:40Z</time>
      </trkpt>
      <trkpt lat="47.20456" lon="5.98172">
        <ele>403.2</ele>
        <time>2021-04-25T08:12:41Z</time>
      </trkpt>
      <trkpt lat="47.20454" lon="5.9817">
        <ele>403.4</ele>
        <time>2021-04-25T08:12:42Z</time>
      </trkpt>
      <trkpt lat="47.20453" lon="5.98167">
        <ele>403.4</ele>
        <time>2021-04-25T08:12:43Z</time>
      </trkpt>
      <trkpt lat="47.20452" lon="5.98165">
        <ele>403.8</ele>
        <time>2021-04-25T08:12:44Z</time>
      </trkpt>
      <trkpt lat="47.20451" lon="5.98163">
        <ele>403.8</ele>
        <time>2021-04-25T08:12:45Z</time>
      </trkpt>
      <trkpt lat="47.20451" lon="5.98161">
        <ele>404.2</ele>
        <time>2021-04-25T08:12:46Z</time>
      </trkpt>
      <trkpt lat="47.20449" lon="5.9816">
        <ele>404.2</ele>
        <time>2021-04-25T08:12:47Z</time>
      </trkpt>
      <trkpt lat="47.20449" lon="5.98158">
        <ele>404.4</ele>
        <time>2021-04-25T08:12:48Z</time>
      </trkpt>
      <trkpt lat="47.20448" lon="5.98156">
        <ele>404.6</ele>
        <time>2021-04-25T08:12:49Z</time>
      </trkpt>
      <trkpt lat="47.20448" lon="5.98155">
        <ele>404.8</ele>
        <time>2021-04-25T08:12:50Z</time>
      </trkpt>
      <trkpt lat="47.20447" lon="5.98153">
        <ele>404.8</ele>
        <time>2021-04-25T08:12:51Z</time>
      </trkpt>
      <trkpt lat="47.20447" lon="5.98151">
        <ele>404.8</ele>
        <time>2021-04-25T08:12:52Z</time>
      </trkpt>
      <trkpt lat="47.20446" lon="5.98149">
        <ele>405.2</ele>
        <time>2021-04-25T08:12:53Z</time>
      </trkpt>
      <trkpt lat="47.20445" lon="5.98147">
        <ele>405.4</ele>
        <time>2021-04-25T08:12:54Z</time>
      </trkpt>
      <trkpt lat="47.20444" lon="5.98145">
        <ele>405.6</ele>
        <time>2021-04-25T08:12:55Z</time>
      </trkpt>
      <trkpt lat="47.20443" lon="5.98143">
        <ele>405.8</ele>
        <time>2021-04-25T08:12:56Z</time>
      </trkpt>
      <trkpt lat="47.20441" lon="5.98141">
        <ele>405.8</ele>
        <time>2021-04-25T08:12:57Z</time>
      </trkpt>
      <trkpt lat="47.2044" lon="5.98138">
        <ele>406</ele>
        <time>2021-04-25T08:12:58Z</time>
      </trkpt>
      <trkpt lat="47.20438" lon="5.98136">
        <ele>406.2</ele>
        <time>2021-04-25T08:12:59Z</time>
      </trkpt>
      <trkpt lat="47.20437" lon="5.98134">
        <ele>406.2</ele>
        <time>2021-04-25T08:13:00Z</time>
      </trkpt>
      <trkpt lat="47.20435" lon="5.98131">
        <ele>406.4</ele>
        <time>2021-04-25T08:13:01Z</time>
      </trkpt>
      <trkpt lat="47.20434" lon="5.98131">
        <ele>406.6</ele>
        <time>2021-04-25T08:13:02Z</time>
      </trkpt>
      <trkpt lat="47.20434" lon="5.9813">
        <ele>406.4</ele>
        <time>2021-04-25T08:13:03Z</time>
      </trkpt>
      <trkpt lat="47.20433" lon="5.98128">
        <ele>406.6</ele>
        <time>2021-04-25T08:13:04Z</time>
      </trkpt>
      <trkpt lat="47.20432" lon="5.98125">
        <ele>407.2</ele>
        <time>2021-04-25T08:13:05Z</time>
      </trkpt>
      <trkpt lat="47.2043" lon="5.98122">
        <ele>407</ele>
        <time>2021-04-25T08:13:06Z</time>
      </trkpt>
      <trkpt lat="47.20429" lon="5.98119">
        <ele>407.6</ele>
        <time>2021-04-25T08:13:07Z</time>
      </trkpt>
      <trkpt lat="47.20429" lon="5.98117">
        <ele>407.4</ele>
        <time>2021-04-25T08:13:08Z</time>
      </trkpt>
      <trkpt lat="47.20426" lon="5.98116">
        <ele>407.6</ele>
        <time>2021-04-25T08:13:09Z</time>
      </trkpt>
      <trkpt lat="47.20424" lon="5.98114">
        <ele>407.8</ele>
        <time>2021-04-25T08:13:10Z</time>
      </trkpt>
      <trkpt lat="47.20422" lon="5.98112">
        <ele>407.8</ele>
        <time>2021-04-25T08:13:11Z</time>
      </trkpt>
      <trkpt lat="47.2042" lon="5.98109">
        <ele>408</ele>
        <time>2021-04-25T08:13:12Z</time>
      </trkpt>
      <trkpt lat="47.20418" lon="5.98106">
        <ele>408.4</ele>
        <time>2021-04-25T08:13:13Z</time>
      </trkpt>
      <trkpt lat="47.20416" lon="5.98103">
        <ele>408.4</ele>
        <time>2021-04-25T08:13:14Z</time>
      </trkpt>
      <trkpt lat="47.20415" lon="5.98099">
        <ele>408.6</ele>
        <time>2021-04-25T08:13:15Z</time>
      </trkpt>
      <trkpt lat="47.20414" lon="5.98095">
        <ele>408.8</ele>
        <time>2021-04-25T08:13:16Z</time>
      </trkpt>
      <trkpt lat="47.20413" lon="5.98091">
        <ele>409</ele>
        <time>2021-04-25T08:13:17Z</time>
      </trkpt>
      <trkpt lat="47.20412" lon="5.98091">
        <ele>409.2</ele>
        <time>2021-04-25T08:13:18Z</time>
      </trkpt>
      <trkpt lat="47.20411" lon="5.98089">
        <ele>409.2</ele>
        <time>2021-04-25T08:13:19Z</time>
      </trkpt>
      <trkpt lat="47.2041" lon="5.98088">
        <ele>409.4</ele>
        <time>2021-04-25T08:13:20Z</time>
      </trkpt>
      <trkpt lat="47.20409" lon="5.98085">
        <ele>409.8</ele>
        <time>2021-04-25T08:13:21Z</time>
      </trkpt>
      <trkpt lat="47.20406" lon="5.9808">
        <ele>410</ele>
        <time>2021-04-25T08:13:22Z</time>
      </trkpt>
      <trkpt lat="47.20404" lon="5.98076">
        <ele>410.2</ele>
        <time>2021-04-25T08:13:23Z</time>
      </trkpt>
      <trkpt lat="47.20404" lon="5.98072">
        <ele>410.4</ele>
        <time>2021-04-25T08:13:24Z</time>
      </trkpt>
      <trkpt lat="47.20402" lon="5.98068">
        <ele>410.8</ele>
        <time>2021-04-25T08:13:25Z</time>
      </trkpt>
      <trkpt lat="47.20401" lon="5.98065">
        <ele>410.8</ele>
        <time>2021-04-25T08:13:26Z</time>
      </trkpt>
      <trkpt lat="47.20399" lon="5.98063">
        <ele>411</ele>
        <time>2021-04-25T08:13:27Z</time>
      </trkpt>
      <trkpt lat="47.20397" lon="5.98062">
        <ele>411</ele>
        <time>2021-04-25T08:13:28Z</time>
      </trkpt>
      <trkpt lat="47.20395" lon="5.98061">
        <ele>411.4</ele>
        <time>2021-04-25T08:13:29Z</time>
      </trkpt>
      <trkpt lat="47.20394" lon="5.9806">
        <ele>411.6</ele>
        <time>2021-04-25T08:13:30Z</time>
      </trkpt>
      <trkpt lat="47.20393" lon="5.98059">
        <ele>411.8</ele>
        <time>2021-04-25T08:13:31Z</time>
      </trkpt>
      <trkpt lat="47.20392" lon="5.98057">
        <ele>412</ele>
        <time>2021-04-25T08:13:32Z</time>
      </trkpt>
      <trkpt lat="47.20392" lon="5.98055">
        <ele>412.2</ele>
        <time>2021-04-25T08:13:33Z</time>
      </trkpt>
      <trkpt lat="47.20391" lon="5.98054">
        <ele>412.2</ele>
        <time>2021-04-25T08:13:34Z</time>
      </trkpt>
      <trkpt lat="47.20391" lon="5.98053">
        <ele>412.4</ele>
        <time>2021-04-25T08:13:35Z</time>
      </trkpt>
      <trkpt lat="47.20389" lon="5.98051">
        <ele>412.4</ele>
        <time>2021-04-25T08:13:36Z</time>
      </trkpt>
      <trkpt lat="47.20388" lon="5.98049">
        <ele>412.6</ele>
        <time>2021-04-25T08:13:37Z</time>
      </trkpt>
      <trkpt lat="47.20387" lon="5.98046">
        <ele>412.8</ele>
        <time>2021-04-25T08:13:38Z</time>
      </trkpt>
      <trkpt lat="47.20386" lon="5.98044">
        <ele>413</ele>
        <time>2021-04-25T08:13:39Z</time>
      </trkpt>
      <trkpt lat="47.20386" lon="5.98042">
        <ele>413</ele>
        <time>2021-04-25T08:13:40Z</time>
      </trkpt>
      <trkpt lat="47.20385" lon="5.98039">
        <ele>413.2</ele>
        <time>2021-04-25T08:13:41Z</time>
      </trkpt>
      <trkpt lat="47.20384" lon="5.98037">
        <ele>413.4</ele>
        <time>2021-04-25T08:13:42Z</time>
      </trkpt>
      <trkpt lat="47.20383" lon="5.98035">
        <ele>413.8</ele>
        <time>2021-04-25T08:13:43Z</time>
      </trkpt>
      <trkpt lat="47.20381" lon="5.98032">
        <ele>414</ele>
        <time>2021-04-25T08:13:44Z</time>
      </trkpt>
      <trkpt lat="47.20379" lon="5.98029">
        <ele>414</ele>
        <time>2021-04-25T08:13:45Z</time>
      </trkpt>
      <trkpt lat="47.20378" lon="5.98027">
        <ele>414.2</ele>
        <time>2021-04-25T08:13:46Z</time>
      </trkpt>
      <trkpt lat="47.20376" lon="5.98024">
        <ele>414.4</ele>
        <time>2021-04-25T08:13:47Z</time>
      </trkpt>
      <trkpt lat="47.20375" lon="5.98022">
        <ele>414.6</ele>
        <time>2021-04-25T08:13:48Z</time>
      </trkpt>
      <trkpt lat="47.20373" lon="5.98019">
        <ele>414.6</ele>
        <time>2021-04-25T08:13:49Z</time>
      </trkpt>
      <trkpt lat="47.20371" lon="5.98015">
        <ele>414.8</ele>
        <time>2021-04-25T08:13:50Z</time>
      </trkpt>
      <trkpt lat="47.20369" lon="5.98011">
        <ele>414.8</ele>
        <time>2021-04-25T08:13:51Z</time>
      </trkpt>
      <trkpt lat="47.20368" lon="5.98008">
        <ele>415.2</ele>
        <time>2021-04-25T08:13:52Z</time>
      </trkpt>
      <trkpt lat="47.20366" lon="5.98004">
        <ele>415.4</ele>
        <time>2021-04-25T08:13:53Z</time>
      </trkpt>
      <trkpt lat="47.20365" lon="5.98002">
        <ele>415.6</ele>
        <time>2021-04-25T08:13:54Z</time>
      </trkpt>
      <trkpt lat="47.20363" lon="5.97999">
        <ele>415.8</ele>
        <time>2021-04-25T08:13:55Z</time>
      </trkpt>
      <trkpt lat="47.2036" lon="5.97998">
        <ele>416</ele>
        <time>2021-04-25T08:13:56Z</time>
      </trkpt>
      <trkpt lat="47.20357" lon="5.97996">
        <ele>416</ele>
        <time>2021-04-25T08:13:57Z</time>
      </trkpt>
      <trkpt lat="47.20355" lon="5.97993">
        <ele>416.2</ele>
        <time>2021-04-25T08:13:58Z</time>
      </trkpt>
      <trkpt lat="47.20354" lon="5.97991">
        <ele>416.4</ele>
        <time>2021-04-25T08:13:59Z</time>
      </trkpt>
      <trkpt lat="47.20352" lon="5.97989">
        <ele>416.4</ele>
        <time>2021-04-25T08:14:00Z</time>
      </trkpt>
      <trkpt lat="47.2035" lon="5.97985">
        <ele>416.6</ele>
        <time>2021-04-25T08:14:01Z</time>
      </trkpt>
      <trkpt lat="47.20347" lon="5.97982">
        <ele>416.8</ele>
        <time>2021-04-25T08:14:02Z</time>
      </trkpt>
      <trkpt lat="47.20347" lon="5.97981">
        <ele>417</ele>
        <time>2021-04-25T08:14:03Z</time>
      </trkpt>
      <trkpt lat="47.20345" lon="5.97977">
        <ele>417.2</ele>
        <time>2021-04-25T08:14:04Z</time>
      </trkpt>
      <trkpt lat="47.20343" lon="5.97973">
        <ele>417.2</ele>
        <time>2021-04-25T08:14:05Z</time>
      </trkpt>
      <trkpt lat="47.20341" lon="5.97969">
        <ele>417.4</ele>
        <time>2021-04-25T08:14:06Z</time>
      </trkpt>
      <trkpt lat="47.20339" lon="5.97968">
        <ele>417.6</ele>
        <time>2021-04-25T08:14:07Z</time>
      </trkpt>
      <trkpt lat="47.20338" lon="5.97965">
        <ele>417.8</ele>
        <time>2021-04-25T08:14:08Z</time>
      </trkpt>
      <trkpt lat="47.20336" lon="5.97963">
        <ele>418</ele>
        <time>2021-04-25T08:14:09Z</time>
      </trkpt>
      <trkpt lat="47.20334" lon="5.9796">
        <ele>418</ele>
        <time>2021-04-25T08:14:10Z</time>
      </trkpt>
      <trkpt lat="47.20333" lon="5.97958">
        <ele>418.4</ele>
        <time>2021-04-25T08:14:11Z</time>
      </trkpt>
      <trkpt lat="47.20331" lon="5.97956">
        <ele>418.4</ele>
        <time>2021-04-25T08:14:12Z</time>
      </trkpt>
      <trkpt lat="47.20329" lon="5.97954">
        <ele>418.6</ele>
        <time>2021-04-25T08:14:13Z</time>
      </trkpt>
      <trkpt lat="47.20325" lon="5.97951">
        <ele>418.6</ele>
        <time>2021-04-25T08:14:14Z</time>
      </trkpt>
      <trkpt lat="47.20323" lon="5.97949">
        <ele>418.8</ele>
        <time>2021-04-25T08:14:15Z</time>
      </trkpt>
      <trkpt lat="47.20322" lon="5.97947">
        <ele>419</ele>
        <time>2021-04-25T08:14:16Z</time>
      </trkpt>
      <trkpt lat="47.2032" lon="5.97945">
        <ele>419.2</ele>
        <time>2021-04-25T08:14:17Z</time>
      </trkpt>
      <trkpt lat="47.20318" lon="5.97943">
        <ele>419.2</ele>
        <time>2021-04-25T08:14:18Z</time>
      </trkpt>
      <trkpt lat="47.20316" lon="5.97941">
        <ele>419.4</ele>
        <time>2021-04-25T08:14:19Z</time>
      </trkpt>
      <trkpt lat="47.20315" lon="5.97939">
        <ele>419.4</ele>
        <time>2021-04-25T08:14:20Z</time>
      </trkpt>
      <trkpt lat="47.20313" lon="5.97936">
        <ele>419.6</ele>
        <time>2021-04-25T08:14:21Z</time>
      </trkpt>
      <trkpt lat="47.20311" lon="5.97934">
        <ele>419.8</ele>
        <time>2021-04-25T08:14:22Z</time>
      </trkpt>
      <trkpt lat="47.2031" lon="5.97932">
        <ele>420</ele>
        <time>2021-04-25T08:14:23Z</time>
      </trkpt>
      <trkpt lat="47.20308" lon="5.9793">
        <ele>420.2</ele>
        <time>2021-04-25T08:14:24Z</time>
      </trkpt>
      <trkpt lat="47.20307" lon="5.97928">
        <ele>420.4</ele>
        <time>2021-04-25T08:14:25Z</time>
      </trkpt>
      <trkpt lat="47.20306" lon="5.97926">
        <ele>420.4</ele>
        <time>2021-04-25T08:14:26Z</time>
      </trkpt>
      <trkpt lat="47.20305" lon="5.97924">
        <ele>420.6</ele>
        <time>2021-04-25T08:14:27Z</time>
      </trkpt>
      <trkpt lat="47.20304" lon="5.97922">
        <ele>420.8</ele>
        <time>2021-04-25T08:14:28Z</time>
      </trkpt>
      <trkpt lat="47.20303" lon="5.9792">
        <ele>420.8</ele>
        <time>2021-04-25T08:14:29Z</time>
      </trkpt>
      <trkpt lat="47.20303" lon="5.97918">
        <ele>420.8</ele>
        <time>2021-04-25T08:14:30Z</time>
      </trkpt>
      <trkpt lat="47.20302" lon="5.97915">
        <ele>421</ele>
        <time>2021-04-25T08:14:31Z</time>
      </trkpt>
      <trkpt lat="47.20301" lon="5.97912">
        <ele>421.2</ele>
        <time>2021-04-25T08:14:32Z</time>
      </trkpt>
      <trkpt lat="47.203" lon="5.97909">
        <ele>421.4</ele>
        <time>2021-04-25T08:14:33Z</time>
      </trkpt>
      <trkpt lat="47.20299" lon="5.97906">
        <ele>421.6</ele>
        <time>2021-04-25T08:14:34Z</time>
      </trkpt>
      <trkpt lat="47.20298" lon="5.97903">
        <ele>421.8</ele>
        <time>2021-04-25T08:14:35Z</time>
      </trkpt>
      <trkpt lat="47.20297" lon="5.979">
        <ele>421.8</ele>
        <time>2021-04-25T08:14:36Z</time>
      </trkpt>
      <trkpt lat="47.20297" lon="5.97897">
        <ele>421.8</ele>
        <time>2021-04-25T08:14:37Z</time>
      </trkpt>
      <trkpt lat="47.20296" lon="5.97893">
        <ele>422</ele>
        <time>2021-04-25T08:14:38Z</time>
      </trkpt>
      <trkpt lat="47.20296" lon="5.97889">
        <ele>422</ele>
        <time>2021-04-25T08:14:39Z</time>
      </trkpt>
      <trkpt lat="47.20295" lon="5.97886">
        <ele>422.2</ele>
        <time>2021-04-25T08:14:40Z</time>
      </trkpt>
      <trkpt lat="47.20295" lon="5.97883">
        <ele>422.4</ele>
        <time>2021-04-25T08:14:41Z</time>
      </trkpt>
      <trkpt lat="47.20295" lon="5.9788">
        <ele>422.4</ele>
        <time>2021-04-25T08:14:42Z</time>
      </trkpt>
      <trkpt lat="47.20296" lon="5.97878">
        <ele>422.4</ele>
        <time>2021-04-25T08:14:43Z</time>
      </trkpt>
      <trkpt lat="47.20296" lon="5.97874">
        <ele>422.6</ele>
        <time>2021-04-25T08:14:44Z</time>
      </trkpt>
      <trkpt lat="47.20297" lon="5.97872">
        <ele>422.6</ele>
        <time>2021-04-25T08:14:45Z</time>
      </trkpt>
      <trkpt lat="47.20297" lon="5.9787">
        <ele>422.8</ele>
        <time>2021-04-25T08:14:46Z</time>
      </trkpt>
      <trkpt lat="47.20297" lon="5.97869">
        <ele>422.8</ele>
        <time>2021-04-25T08:14:47Z</time>
      </trkpt>
      <trkpt lat="47.20298" lon="5.97867">
        <ele>422.8</ele>
        <time>2021-04-25T08:14:48Z</time>
      </trkpt>
      <trkpt lat="47.20299" lon="5.97866">
        <ele>423</ele>
        <time>2021-04-25T08:14:49Z</time>
      </trkpt>
      <trkpt lat="47.203" lon="5.97865">
        <ele>423</ele>
        <time>2021-04-25T08:14:50Z</time>
      </trkpt>
      <trkpt lat="47.20301" lon="5.97864">
        <ele>423</ele>
        <time>2021-04-25T08:14:51Z</time>
      </trkpt>
      <trkpt lat="47.20301" lon="5.97864">
        <ele>423</ele>
        <time>2021-04-25T08:14:52Z</time>
      </trkpt>
      <trkpt lat="47.20301" lon="5.97864">
        <ele>423</ele>
        <time>2021-04-25T08:14:56Z</time>
      </trkpt>
      <trkpt lat="47.20301" lon="5.97863">
        <ele>422.8</ele>
        <time>2021-04-25T08:16:55Z</time>
      </trkpt>
      <trkpt lat="47.20301" lon="5.97863">
        <ele>422.6</ele>
        <time>2021-04-25T08:17:13Z</time>
      </trkpt>
      <trkpt lat="47.20305" lon="5.97863">
        <ele>422.6</ele>
        <time>2021-04-25T08:17:16Z</time>
      </trkpt>
      <trkpt lat="47.20306" lon="5.97864">
        <ele>422.6</ele>
        <time>2021-04-25T08:17:17Z</time>
      </trkpt>
      <trkpt lat="47.20313" lon="5.97871">
        <ele>423</ele>
        <time>2021-04-25T08:17:22Z</time>
      </trkpt>
      <trkpt lat="47.20314" lon="5.97874">
        <ele>423.2</ele>
        <time>2021-04-25T08:17:23Z</time>
      </trkpt>
      <trkpt lat="47.20314" lon="5.97877">
        <ele>423.4</ele>
        <time>2021-04-25T08:17:24Z</time>
      </trkpt>
      <trkpt lat="47.20315" lon="5.9788">
        <ele>423.4</ele>
        <time>2021-04-25T08:17:25Z</time>
      </trkpt>
      <trkpt lat="47.20316" lon="5.97882">
        <ele>423.6</ele>
        <time>2021-04-25T08:17:26Z</time>
      </trkpt>
      <trkpt lat="47.20317" lon="5.97884">
        <ele>423.6</ele>
        <time>2021-04-25T08:17:27Z</time>
      </trkpt>
      <trkpt lat="47.20319" lon="5.97887">
        <ele>423.8</ele>
        <time>2021-04-25T08:17:28Z</time>
      </trkpt>
      <trkpt lat="47.20329" lon="5.979">
        <ele>424.6</ele>
        <time>2021-04-25T08:17:33Z</time>
      </trkpt>
      <trkpt lat="47.2033" lon="5.97903">
        <ele>424.6</ele>
        <time>2021-04-25T08:17:34Z</time>
      </trkpt>
      <trkpt lat="47.20332" lon="5.97905">
        <ele>424.8</ele>
        <time>2021-04-25T08:17:35Z</time>
      </trkpt>
      <trkpt lat="47.20334" lon="5.97907">
        <ele>425</ele>
        <time>2021-04-25T08:17:36Z</time>
      </trkpt>
      <trkpt lat="47.20337" lon="5.97911">
        <ele>425.6</ele>
        <time>2021-04-25T08:17:38Z</time>
      </trkpt>
      <trkpt lat="47.2034" lon="5.97917">
        <ele>425.8</ele>
        <time>2021-04-25T08:17:40Z</time>
      </trkpt>
      <trkpt lat="47.20341" lon="5.97919">
        <ele>426</ele>
        <time>2021-04-25T08:17:41Z</time>
      </trkpt>
      <trkpt lat="47.20343" lon="5.97921">
        <ele>426</ele>
        <time>2021-04-25T08:17:42Z</time>
      </trkpt>
      <trkpt lat="47.20345" lon="5.97924">
        <ele>426</ele>
        <time>2021-04-25T08:17:43Z</time>
      </trkpt>
      <trkpt lat="47.20346" lon="5.97927">
        <ele>426</ele>
        <time>2021-04-25T08:17:44Z</time>
      </trkpt>
      <trkpt lat="47.20348" lon="5.9793">
        <ele>426.2</ele>
        <time>2021-04-25T08:17:45Z</time>
      </trkpt>
      <trkpt lat="47.20349" lon="5.97933">
        <ele>426.2</ele>
        <time>2021-04-25T08:17:46Z</time>
      </trkpt>
      <trkpt lat="47.20351" lon="5.97935">
        <ele>426.4</ele>
        <time>2021-04-25T08:17:47Z</time>
      </trkpt>
      <trkpt lat="47.20352" lon="5.97939">
        <ele>426.4</ele>
        <time>2021-04-25T08:17:48Z</time>
      </trkpt>
      <trkpt lat="47.20353" lon="5.97943">
        <ele>426.6</ele>
        <time>2021-04-25T08:17:49Z</time>
      </trkpt>
      <trkpt lat="47.20353" lon="5.97945">
        <ele>426.6</ele>
        <time>2021-04-25T08:17:50Z</time>
      </trkpt>
      <trkpt lat="47.20354" lon="5.97949">
        <ele>426.8</ele>
        <time>2021-04-25T08:17:51Z</time>
      </trkpt>
      <trkpt lat="47.20355" lon="5.97952">
        <ele>427</ele>
        <time>2021-04-25T08:17:52Z</time>
      </trkpt>
      <trkpt lat="47.20357" lon="5.97954">
        <ele>427.4</ele>
        <time>2021-04-25T08:17:53Z</time>
      </trkpt>
      <trkpt lat="47.20358" lon="5.97956">
        <ele>427.6</ele>
        <time>2021-04-25T08:17:54Z</time>
      </trkpt>
      <trkpt lat="47.2036" lon="5.97958">
        <ele>427.6</ele>
        <time>2021-04-25T08:17:55Z</time>
      </trkpt>
      <trkpt lat="47.20361" lon="5.97961">
        <ele>427.8</ele>
        <time>2021-04-25T08:17:56Z</time>
      </trkpt>
      <trkpt lat="47.20362" lon="5.97963">
        <ele>428</ele>
        <time>2021-04-25T08:17:57Z</time>
      </trkpt>
      <trkpt lat="47.20363" lon="5.97966">
        <ele>428.2</ele>
        <time>2021-04-25T08:17:58Z</time>
      </trkpt>
      <trkpt lat="47.20364" lon="5.97969">
        <ele>428.2</ele>
        <time>2021-04-25T08:17:59Z</time>
      </trkpt>
      <trkpt lat="47.20365" lon="5.97971">
        <ele>428.4</ele>
        <time>2021-04-25T08:18:00Z</time>
      </trkpt>
      <trkpt lat="47.20367" lon="5.97973">
        <ele>428.4</ele>
        <time>2021-04-25T08:18:01Z</time>
      </trkpt>
      <trkpt lat="47.20368" lon="5.97974">
        <ele>428.6</ele>
        <time>2021-04-25T08:18:02Z</time>
      </trkpt>
      <trkpt lat="47.2037" lon="5.97977">
        <ele>428.6</ele>
        <time>2021-04-25T08:18:03Z</time>
      </trkpt>
      <trkpt lat="47.20371" lon="5.97979">
        <ele>428.8</ele>
        <time>2021-04-25T08:18:04Z</time>
      </trkpt>
      <trkpt lat="47.20373" lon="5.9798">
        <ele>428.8</ele>
        <time>2021-04-25T08:18:05Z</time>
      </trkpt>
      <trkpt lat="47.20375" lon="5.97982">
        <ele>429</ele>
        <time>2021-04-25T08:18:06Z</time>
      </trkpt>
      <trkpt lat="47.20377" lon="5.97983">
        <ele>429</ele>
        <time>2021-04-25T08:18:07Z</time>
      </trkpt>
      <trkpt lat="47.20379" lon="5.97985">
        <ele>429.2</ele>
        <time>2021-04-25T08:18:08Z</time>
      </trkpt>
      <trkpt lat="47.20382" lon="5.97987">
        <ele>429.4</ele>
        <time>2021-04-25T08:18:09Z</time>
      </trkpt>
      <trkpt lat="47.20384" lon="5.9799">
        <ele>429.4</ele>
        <time>2021-04-25T08:18:10Z</time>
      </trkpt>
      <trkpt lat="47.20386" lon="5.97992">
        <ele>429.6</ele>
        <time>2021-04-25T08:18:11Z</time>
      </trkpt>
      <trkpt lat="47.20387" lon="5.97993">
        <ele>429.6</ele>
        <time>2021-04-25T08:18:12Z</time>
      </trkpt>
      <trkpt lat="47.20388" lon="5.97994">
        <ele>429.6</ele>
        <time>2021-04-25T08:18:13Z</time>
      </trkpt>
      <trkpt lat="47.20389" lon="5.97995">
        <ele>429.8</ele>
        <time>2021-04-25T08:18:14Z</time>
      </trkpt>
      <trkpt lat="47.20391" lon="5.97996">
        <ele>429.8</ele>
        <time>2021-04-25T08:18:15Z</time>
      </trkpt>
      <trkpt lat="47.20393" lon="5.97998">
        <ele>430</ele>
        <time>2021-04-25T08:18:16Z</time>
      </trkpt>
      <trkpt lat="47.20396" lon="5.98">
        <ele>430</ele>
        <time>2021-04-25T08:18:17Z</time>
      </trkpt>
      <trkpt lat="47.20398" lon="5.98001">
        <ele>430.2</ele>
        <time>2021-04-25T08:18:18Z</time>
      </trkpt>
      <trkpt lat="47.20399" lon="5.98002">
        <ele>430.2</ele>
        <time>2021-04-25T08:18:19Z</time>
      </trkpt>
      <trkpt lat="47.20401" lon="5.98003">
        <ele>430.4</ele>
        <time>2021-04-25T08:18:20Z</time>
      </trkpt>
      <trkpt lat="47.20402" lon="5.98005">
        <ele>430.6</ele>
        <time>2021-04-25T08:18:21Z</time>
      </trkpt>
      <trkpt lat="47.20404" lon="5.98007">
        <ele>430.8</ele>
        <time>2021-04-25T08:18:22Z</time>
      </trkpt>
      <trkpt lat="47.20405" lon="5.98008">
        <ele>431</ele>
        <time>2021-04-25T08:18:23Z</time>
      </trkpt>
      <trkpt lat="47.20408" lon="5.98011">
        <ele>431</ele>
        <time>2021-04-25T08:18:24Z</time>
      </trkpt>
      <trkpt lat="47.2041" lon="5.98011">
        <ele>431.2</ele>
        <time>2021-04-25T08:18:25Z</time>
      </trkpt>
      <trkpt lat="47.2041" lon="5.98013">
        <ele>431.2</ele>
        <time>2021-04-25T08:18:26Z</time>
      </trkpt>
      <trkpt lat="47.20411" lon="5.98014">
        <ele>431.4</ele>
        <time>2021-04-25T08:18:27Z</time>
      </trkpt>
      <trkpt lat="47.20412" lon="5.98015">
        <ele>431.6</ele>
        <time>2021-04-25T08:18:28Z</time>
      </trkpt>
      <trkpt lat="47.20415" lon="5.98017">
        <ele>431.6</ele>
        <time>2021-04-25T08:18:29Z</time>
      </trkpt>
      <trkpt lat="47.20417" lon="5.9802">
        <ele>431.8</ele>
        <time>2021-04-25T08:18:30Z</time>
      </trkpt>
      <trkpt lat="47.20421" lon="5.98021">
        <ele>432</ele>
        <time>2021-04-25T08:18:31Z</time>
      </trkpt>
      <trkpt lat="47.20423" lon="5.98022">
        <ele>432</ele>
        <time>2021-04-25T08:18:32Z</time>
      </trkpt>
      <trkpt lat="47.20424" lon="5.98023">
        <ele>432.2</ele>
        <time>2021-04-25T08:18:33Z</time>
      </trkpt>
      <trkpt lat="47.20426" lon="5.98025">
        <ele>432.2</ele>
        <time>2021-04-25T08:18:34Z</time>
      </trkpt>
      <trkpt lat="47.20428" lon="5.98026">
        <ele>432.4</ele>
        <time>2021-04-25T08:18:35Z</time>
      </trkpt>
      <trkpt lat="47.20429" lon="5.98027">
        <ele>432.4</ele>
        <time>2021-04-25T08:18:36Z</time>
      </trkpt>
      <trkpt lat="47.20431" lon="5.98029">
        <ele>432.6</ele>
        <time>2021-04-25T08:18:37Z</time>
      </trkpt>
      <trkpt lat="47.20432" lon="5.98031">
        <ele>432.6</ele>
        <time>2021-04-25T08:18:38Z</time>
      </trkpt>
      <trkpt lat="47.20434" lon="5.98032">
        <ele>432.8</ele>
        <time>2021-04-25T08:18:39Z</time>
      </trkpt>
      <trkpt lat="47.20434" lon="5.98033">
        <ele>432.8</ele>
        <time>2021-04-25T08:18:40Z</time>
      </trkpt>
      <trkpt lat="47.20436" lon="5.98036">
        <ele>432.8</ele>
        <time>2021-04-25T08:18:41Z</time>
      </trkpt>
      <trkpt lat="47.20439" lon="5.98039">
        <ele>433</ele>
        <time>2021-04-25T08:18:42Z</time>
      </trkpt>
      <trkpt lat="47.20441" lon="5.9804">
        <ele>433</ele>
        <time>2021-04-25T08:18:43Z</time>
      </trkpt>
      <trkpt lat="47.20442" lon="5.9804">
        <ele>433.2</ele>
        <time>2021-04-25T08:18:44Z</time>
      </trkpt>
      <trkpt lat="47.20444" lon="5.98042">
        <ele>433.4</ele>
        <time>2021-04-25T08:18:45Z</time>
      </trkpt>
      <trkpt lat="47.20447" lon="5.98045">
        <ele>433.6</ele>
        <time>2021-04-25T08:18:46Z</time>
      </trkpt>
      <trkpt lat="47.2045" lon="5.98047">
        <ele>433.6</ele>
        <time>2021-04-25T08:18:47Z</time>
      </trkpt>
      <trkpt lat="47.20451" lon="5.98049">
        <ele>434</ele>
        <time>2021-04-25T08:18:48Z</time>
      </trkpt>
      <trkpt lat="47.20454" lon="5.98049">
        <ele>434</ele>
        <time>2021-04-25T08:18:49Z</time>
      </trkpt>
      <trkpt lat="47.20456" lon="5.98051">
        <ele>434.2</ele>
        <time>2021-04-25T08:18:50Z</time>
      </trkpt>
      <trkpt lat="47.2046" lon="5.98053">
        <ele>434.2</ele>
        <time>2021-04-25T08:18:51Z</time>
      </trkpt>
      <trkpt lat="47.20461" lon="5.98055">
        <ele>434.4</ele>
        <time>2021-04-25T08:18:52Z</time>
      </trkpt>
      <trkpt lat="47.20462" lon="5.98055">
        <ele>434.6</ele>
        <time>2021-04-25T08:18:53Z</time>
      </trkpt>
      <trkpt lat="47.20464" lon="5.98057">
        <ele>434.8</ele>
        <time>2021-04-25T08:18:54Z</time>
      </trkpt>
      <trkpt lat="47.20467" lon="5.9806">
        <ele>435.2</ele>
        <time>2021-04-25T08:18:55Z</time>
      </trkpt>
      <trkpt lat="47.20467" lon="5.98062">
        <ele>435.4</ele>
        <time>2021-04-25T08:18:56Z</time>
      </trkpt>
      <trkpt lat="47.20468" lon="5.98063">
        <ele>435.6</ele>
        <time>2021-04-25T08:18:57Z</time>
      </trkpt>
      <trkpt lat="47.2047" lon="5.98064">
        <ele>435.6</ele>
        <time>2021-04-25T08:18:58Z</time>
      </trkpt>
      <trkpt lat="47.2047" lon="5.98064">
        <ele>435.8</ele>
        <time>2021-04-25T08:18:59Z</time>
      </trkpt>
      <trkpt lat="47.20471" lon="5.98066">
        <ele>435.8</ele>
        <time>2021-04-25T08:19:00Z</time>
      </trkpt>
      <trkpt lat="47.20473" lon="5.98068">
        <ele>435.8</ele>
        <time>2021-04-25T08:19:01Z</time>
      </trkpt>
      <trkpt lat="47.20474" lon="5.98069">
        <ele>436</ele>
        <time>2021-04-25T08:19:02Z</time>
      </trkpt>
      <trkpt lat="47.20475" lon="5.98071">
        <ele>436</ele>
        <time>2021-04-25T08:19:03Z</time>
      </trkpt>
      <trkpt lat="47.20477" lon="5.98073">
        <ele>436.2</ele>
        <time>2021-04-25T08:19:04Z</time>
      </trkpt>
      <trkpt lat="47.20478" lon="5.98074">
        <ele>436.4</ele>
        <time>2021-04-25T08:19:05Z</time>
      </trkpt>
      <trkpt lat="47.2048" lon="5.98076">
        <ele>436.6</ele>
        <time>2021-04-25T08:19:06Z</time>
      </trkpt>
      <trkpt lat="47.20481" lon="5.98077">
        <ele>436.6</ele>
        <time>2021-04-25T08:19:07Z</time>
      </trkpt>
      <trkpt lat="47.20482" lon="5.98079">
        <ele>436.8</ele>
        <time>2021-04-25T08:19:08Z</time>
      </trkpt>
      <trkpt lat="47.20484" lon="5.9808">
        <ele>437</ele>
        <time>2021-04-25T08:19:09Z</time>
      </trkpt>
      <trkpt lat="47.20485" lon="5.98082">
        <ele>437.2</ele>
        <time>2021-04-25T08:19:10Z</time>
      </trkpt>
      <trkpt lat="47.20487" lon="5.98084">
        <ele>437.6</ele>
        <time>2021-04-25T08:19:11Z</time>
      </trkpt>
      <trkpt lat="47.20488" lon="5.98086">
        <ele>437.6</ele>
        <time>2021-04-25T08:19:12Z</time>
      </trkpt>
      <trkpt lat="47.2049" lon="5.98088">
        <ele>437.8</ele>
        <time>2021-04-25T08:19:13Z</time>
      </trkpt>
      <trkpt lat="47.20491" lon="5.9809">
        <ele>438</ele>
        <time>2021-04-25T08:19:14Z</time>
      </trkpt>
      <trkpt lat="47.20493" lon="5.98092">
        <ele>438.2</ele>
        <time>2021-04-25T08:19:15Z</time>
      </trkpt>
      <trkpt lat="47.20494" lon="5.98094">
        <ele>438.2</ele>
        <time>2021-04-25T08:19:16Z</time>
      </trkpt>
      <trkpt lat="47.20495" lon="5.98097">
        <ele>438.6</ele>
        <time>2021-04-25T08:19:17Z</time>
      </trkpt>
      <trkpt lat="47.20496" lon="5.98099">
        <ele>438.8</ele>
        <time>2021-04-25T08:19:18Z</time>
      </trkpt>
      <trkpt lat="47.20498" lon="5.98101">
        <ele>438.8</ele>
        <time>2021-04-25T08:19:19Z</time>
      </trkpt>
      <trkpt lat="47.20499" lon="5.98104">
        <ele>439.2</ele>
        <time>2021-04-25T08:19:20Z</time>
      </trkpt>
      <trkpt lat="47.20501" lon="5.98107">
        <ele>439.2</ele>
        <time>2021-04-25T08:19:21Z</time>
      </trkpt>
      <trkpt lat="47.20502" lon="5.98109">
        <ele>439.4</ele>
        <time>2021-04-25T08:19:22Z</time>
      </trkpt>
      <trkpt lat="47.20504" lon="5.98111">
        <ele>439.2</ele>
        <time>2021-04-25T08:19:23Z</time>
      </trkpt>
      <trkpt lat="47.20506" lon="5.98113">
        <ele>439.4</ele>
        <time>2021-04-25T08:19:24Z</time>
      </trkpt>
      <trkpt lat="47.20508" lon="5.98115">
        <ele>439.6</ele>
        <time>2021-04-25T08:19:25Z</time>
      </trkpt>
      <trkpt lat="47.2051" lon="5.98117">
        <ele>439.8</ele>
        <time>2021-04-25T08:19:26Z</time>
      </trkpt>
      <trkpt lat="47.20512" lon="5.98118">
        <ele>439.8</ele>
        <time>2021-04-25T08:19:27Z</time>
      </trkpt>
      <trkpt lat="47.20514" lon="5.9812">
        <ele>440</ele>
        <time>2021-04-25T08:19:28Z</time>
      </trkpt>
      <trkpt lat="47.20515" lon="5.98122">
        <ele>440.4</ele>
        <time>2021-04-25T08:19:29Z</time>
      </trkpt>
      <trkpt lat="47.20517" lon="5.98124">
        <ele>440.4</ele>
        <time>2021-04-25T08:19:30Z</time>
      </trkpt>
      <trkpt lat="47.20519" lon="5.98126">
        <ele>440.6</ele>
        <time>2021-04-25T08:19:31Z</time>
      </trkpt>
      <trkpt lat="47.2052" lon="5.98129">
        <ele>440.8</ele>
        <time>2021-04-25T08:19:32Z</time>
      </trkpt>
      <trkpt lat="47.20521" lon="5.9813">
        <ele>441</ele>
        <time>2021-04-25T08:19:33Z</time>
      </trkpt>
      <trkpt lat="47.20522" lon="5.98133">
        <ele>441</ele>
        <time>2021-04-25T08:19:34Z</time>
      </trkpt>
      <trkpt lat="47.20524" lon="5.98135">
        <ele>441.2</ele>
        <time>2021-04-25T08:19:35Z</time>
      </trkpt>
      <trkpt lat="47.20526" lon="5.98137">
        <ele>441.4</ele>
        <time>2021-04-25T08:19:36Z</time>
      </trkpt>
      <trkpt lat="47.20526" lon="5.98137">
        <ele>441.6</ele>
        <time>2021-04-25T08:19:37Z</time>
      </trkpt>
      <trkpt lat="47.20529" lon="5.98139">
        <ele>441.8</ele>
        <time>2021-04-25T08:19:38Z</time>
      </trkpt>
      <trkpt lat="47.2053" lon="5.98142">
        <ele>441.8</ele>
        <time>2021-04-25T08:19:39Z</time>
      </trkpt>
      <trkpt lat="47.20532" lon="5.98144">
        <ele>442</ele>
        <time>2021-04-25T08:19:40Z</time>
      </trkpt>
      <trkpt lat="47.20534" lon="5.98146">
        <ele>442.2</ele>
        <time>2021-04-25T08:19:41Z</time>
      </trkpt>
      <trkpt lat="47.20535" lon="5.98148">
        <ele>442.6</ele>
        <time>2021-04-25T08:19:42Z</time>
      </trkpt>
      <trkpt lat="47.20537" lon="5.9815">
        <ele>442.6</ele>
        <time>2021-04-25T08:19:43Z</time>
      </trkpt>
      <trkpt lat="47.20538" lon="5.98152">
        <ele>443</ele>
        <time>2021-04-25T08:19:44Z</time>
      </trkpt>
      <trkpt lat="47.2054" lon="5.98154">
        <ele>443.2</ele>
        <time>2021-04-25T08:19:45Z</time>
      </trkpt>
      <trkpt lat="47.20541" lon="5.98155">
        <ele>443.4</ele>
        <time>2021-04-25T08:19:46Z</time>
      </trkpt>
      <trkpt lat="47.20543" lon="5.98157">
        <ele>443.8</ele>
        <time>2021-04-25T08:19:47Z</time>
      </trkpt>
      <trkpt lat="47.20544" lon="5.98158">
        <ele>443.8</ele>
        <time>2021-04-25T08:19:48Z</time>
      </trkpt>
      <trkpt lat="47.20546" lon="5.9816">
        <ele>444.2</ele>
        <time>2021-04-25T08:19:49Z</time>
      </trkpt>
      <trkpt lat="47.20548" lon="5.98161">
        <ele>444.4</ele>
        <time>2021-04-25T08:19:50Z</time>
      </trkpt>
      <trkpt lat="47.2055" lon="5.98163">
        <ele>444.6</ele>
        <time>2021-04-25T08:19:51Z</time>
      </trkpt>
      <trkpt lat="47.20552" lon="5.98166">
        <ele>444.6</ele>
        <time>2021-04-25T08:19:52Z</time>
      </trkpt>
      <trkpt lat="47.20553" lon="5.98168">
        <ele>444.8</ele>
        <time>2021-04-25T08:19:53Z</time>
      </trkpt>
      <trkpt lat="47.20555" lon="5.9817">
        <ele>445</ele>
        <time>2021-04-25T08:19:54Z</time>
      </trkpt>
      <trkpt lat="47.20556" lon="5.98172">
        <ele>445.2</ele>
        <time>2021-04-25T08:19:55Z</time>
      </trkpt>
      <trkpt lat="47.20558" lon="5.98174">
        <ele>445.4</ele>
        <time>2021-04-25T08:19:56Z</time>
      </trkpt>
      <trkpt lat="47.20559" lon="5.98176">
        <ele>445.4</ele>
        <time>2021-04-25T08:19:57Z</time>
      </trkpt>
      <trkpt lat="47.20561" lon="5.98178">
        <ele>445.6</ele>
        <time>2021-04-25T08:19:58Z</time>
      </trkpt>
      <trkpt lat="47.20563" lon="5.9818">
        <ele>445.6</ele>
        <time>2021-04-25T08:19:59Z</time>
      </trkpt>
      <trkpt lat="47.20564" lon="5.98181">
        <ele>445.8</ele>
        <time>2021-04-25T08:20:00Z</time>
      </trkpt>
      <trkpt lat="47.20566" lon="5.98183">
        <ele>445.8</ele>
        <time>2021-04-25T08:20:01Z</time>
      </trkpt>
      <trkpt lat="47.20568" lon="5.98185">
        <ele>445.8</ele>
        <time>2021-04-25T08:20:02Z</time>
      </trkpt>
      <trkpt lat="47.2057" lon="5.98187">
        <ele>446</ele>
        <time>2021-04-25T08:20:03Z</time>
      </trkpt>
      <trkpt lat="47.20573" lon="5.98189">
        <ele>446</ele>
        <time>2021-04-25T08:20:04Z</time>
      </trkpt>
      <trkpt lat="47.20574" lon="5.98191">
        <ele>446.4</ele>
        <time>2021-04-25T08:20:05Z</time>
      </trkpt>
      <trkpt lat="47.20577" lon="5.98193">
        <ele>446.4</ele>
        <time>2021-04-25T08:20:06Z</time>
      </trkpt>
      <trkpt lat="47.20579" lon="5.98194">
        <ele>446.8</ele>
        <time>2021-04-25T08:20:07Z</time>
      </trkpt>
      <trkpt lat="47.2058" lon="5.98196">
        <ele>447</ele>
        <time>2021-04-25T08:20:08Z</time>
      </trkpt>
      <trkpt lat="47.20583" lon="5.98198">
        <ele>447.2</ele>
        <time>2021-04-25T08:20:09Z</time>
      </trkpt>
      <trkpt lat="47.20584" lon="5.98199">
        <ele>447.4</ele>
        <time>2021-04-25T08:20:10Z</time>
      </trkpt>
      <trkpt lat="47.20586" lon="5.982">
        <ele>447.4</ele>
        <time>2021-04-25T08:20:11Z</time>
      </trkpt>
      <trkpt lat="47.20588" lon="5.98202">
        <ele>447.6</ele>
        <time>2021-04-25T08:20:12Z</time>
      </trkpt>
      <trkpt lat="47.20589" lon="5.98203">
        <ele>447.6</ele>
        <time>2021-04-25T08:20:13Z</time>
      </trkpt>
      <trkpt lat="47.20592" lon="5.98205">
        <ele>448</ele>
        <time>2021-04-25T08:20:14Z</time>
      </trkpt>
      <trkpt lat="47.20595" lon="5.98205">
        <ele>448</ele>
        <time>2021-04-25T08:20:15Z</time>
      </trkpt>
      <trkpt lat="47.20598" lon="5.98206">
        <ele>448.2</ele>
        <time>2021-04-25T08:20:16Z</time>
      </trkpt>
      <trkpt lat="47.20599" lon="5.98207">
        <ele>448.4</ele>
        <time>2021-04-25T08:20:17Z</time>
      </trkpt>
      <trkpt lat="47.206" lon="5.98209">
        <ele>448.6</ele>
        <time>2021-04-25T08:20:18Z</time>
      </trkpt>
      <trkpt lat="47.20602" lon="5.98211">
        <ele>448.8</ele>
        <time>2021-04-25T08:20:19Z</time>
      </trkpt>
      <trkpt lat="47.20603" lon="5.98213">
        <ele>449</ele>
        <time>2021-04-25T08:20:20Z</time>
      </trkpt>
      <trkpt lat="47.20604" lon="5.98215">
        <ele>449.2</ele>
        <time>2021-04-25T08:20:21Z</time>
      </trkpt>
      <trkpt lat="47.20606" lon="5.98216">
        <ele>449.4</ele>
        <time>2021-04-25T08:20:22Z</time>
      </trkpt>
      <trkpt lat="47.20608" lon="5.98218">
        <ele>449.6</ele>
        <time>2021-04-25T08:20:23Z</time>
      </trkpt>
      <trkpt lat="47.20609" lon="5.98219">
        <ele>449.6</ele>
        <time>2021-04-25T08:20:24Z</time>
      </trkpt>
      <trkpt lat="47.20612" lon="5.9822">
        <ele>449.8</ele>
        <time>2021-04-25T08:20:25Z</time>
      </trkpt>
      <trkpt lat="47.20614" lon="5.98222">
        <ele>450</ele>
        <time>2021-04-25T08:20:26Z</time>
      </trkpt>
      <trkpt lat="47.20616" lon="5.98223">
        <ele>450.2</ele>
        <time>2021-04-25T08:20:27Z</time>
      </trkpt>
      <trkpt lat="47.20618" lon="5.98225">
        <ele>450.4</ele>
        <time>2021-04-25T08:20:28Z</time>
      </trkpt>
      <trkpt lat="47.20619" lon="5.98226">
        <ele>450.4</ele>
        <time>2021-04-25T08:20:29Z</time>
      </trkpt>
      <trkpt lat="47.20621" lon="5.98228">
        <ele>450.6</ele>
        <time>2021-04-25T08:20:30Z</time>
      </trkpt>
      <trkpt lat="47.20622" lon="5.98229">
        <ele>450.8</ele>
        <time>2021-04-25T08:20:31Z</time>
      </trkpt>
      <trkpt lat="47.20624" lon="5.9823">
        <ele>451</ele>
        <time>2021-04-25T08:20:32Z</time>
      </trkpt>
      <trkpt lat="47.20626" lon="5.98231">
        <ele>451.2</ele>
        <time>2021-04-25T08:20:33Z</time>
      </trkpt>
      <trkpt lat="47.20628" lon="5.98233">
        <ele>451.4</ele>
        <time>2021-04-25T08:20:34Z</time>
      </trkpt>
      <trkpt lat="47.2063" lon="5.98234">
        <ele>451.8</ele>
        <time>2021-04-25T08:20:35Z</time>
      </trkpt>
      <trkpt lat="47.20631" lon="5.98235">
        <ele>451.8</ele>
        <time>2021-04-25T08:20:36Z</time>
      </trkpt>
      <trkpt lat="47.20633" lon="5.98237">
        <ele>452</ele>
        <time>2021-04-25T08:20:37Z</time>
      </trkpt>
      <trkpt lat="47.20635" lon="5.98239">
        <ele>452</ele>
        <time>2021-04-25T08:20:38Z</time>
      </trkpt>
      <trkpt lat="47.20637" lon="5.98239">
        <ele>452</ele>
        <time>2021-04-25T08:20:39Z</time>
      </trkpt>
      <trkpt lat="47.20639" lon="5.9824">
        <ele>452.2</ele>
        <time>2021-04-25T08:20:40Z</time>
      </trkpt>
      <trkpt lat="47.20642" lon="5.98241">
        <ele>452.2</ele>
        <time>2021-04-25T08:20:41Z</time>
      </trkpt>
      <trkpt lat="47.20644" lon="5.98242">
        <ele>452.4</ele>
        <time>2021-04-25T08:20:42Z</time>
      </trkpt>
      <trkpt lat="47.20645" lon="5.98244">
        <ele>452.8</ele>
        <time>2021-04-25T08:20:43Z</time>
      </trkpt>
      <trkpt lat="47.20647" lon="5.98245">
        <ele>453</ele>
        <time>2021-04-25T08:20:44Z</time>
      </trkpt>
      <trkpt lat="47.20648" lon="5.98246">
        <ele>453.2</ele>
        <time>2021-04-25T08:20:45Z</time>
      </trkpt>
      <trkpt lat="47.2065" lon="5.98246">
        <ele>453.4</ele>
        <time>2021-04-25T08:20:46Z</time>
      </trkpt>
      <trkpt lat="47.20652" lon="5.98247">
        <ele>453.4</ele>
        <time>2021-04-25T08:20:47Z</time>
      </trkpt>
      <trkpt lat="47.20653" lon="5.98248">
        <ele>453.6</ele>
        <time>2021-04-25T08:20:48Z</time>
      </trkpt>
      <trkpt lat="47.20654" lon="5.98249">
        <ele>453.6</ele>
        <time>2021-04-25T08:20:49Z</time>
      </trkpt>
      <trkpt lat="47.20655" lon="5.98249">
        <ele>453.8</ele>
        <time>2021-04-25T08:20:50Z</time>
      </trkpt>
      <trkpt lat="47.20656" lon="5.9825">
        <ele>454</ele>
        <time>2021-04-25T08:20:51Z</time>
      </trkpt>
      <trkpt lat="47.20658" lon="5.98251">
        <ele>454.2</ele>
        <time>2021-04-25T08:20:52Z</time>
      </trkpt>
      <trkpt lat="47.2066" lon="5.98253">
        <ele>454.6</ele>
        <time>2021-04-25T08:20:53Z</time>
      </trkpt>
      <trkpt lat="47.20662" lon="5.98255">
        <ele>454.6</ele>
        <time>2021-04-25T08:20:54Z</time>
      </trkpt>
      <trkpt lat="47.20663" lon="5.98256">
        <ele>455</ele>
        <time>2021-04-25T08:20:55Z</time>
      </trkpt>
      <trkpt lat="47.20665" lon="5.98257">
        <ele>455</ele>
        <time>2021-04-25T08:20:56Z</time>
      </trkpt>
      <trkpt lat="47.20666" lon="5.98259">
        <ele>455.2</ele>
        <time>2021-04-25T08:20:57Z</time>
      </trkpt>
      <trkpt lat="47.20668" lon="5.9826">
        <ele>455.4</ele>
        <time>2021-04-25T08:20:58Z</time>
      </trkpt>
      <trkpt lat="47.20669" lon="5.98262">
        <ele>455.4</ele>
        <time>2021-04-25T08:20:59Z</time>
      </trkpt>
      <trkpt lat="47.20671" lon="5.98263">
        <ele>455.6</ele>
        <time>2021-04-25T08:21:00Z</time>
      </trkpt>
      <trkpt lat="47.20672" lon="5.98264">
        <ele>455.6</ele>
        <time>2021-04-25T08:21:01Z</time>
      </trkpt>
      <trkpt lat="47.20675" lon="5.98265">
        <ele>455.8</ele>
        <time>2021-04-25T08:21:02Z</time>
      </trkpt>
      <trkpt lat="47.20676" lon="5.98266">
        <ele>455.8</ele>
        <time>2021-04-25T08:21:03Z</time>
      </trkpt>
      <trkpt lat="47.20678" lon="5.98268">
        <ele>456</ele>
        <time>2021-04-25T08:21:04Z</time>
      </trkpt>
      <trkpt lat="47.20679" lon="5.98269">
        <ele>456.2</ele>
        <time>2021-04-25T08:21:05Z</time>
      </trkpt>
      <trkpt lat="47.20681" lon="5.9827">
        <ele>456.4</ele>
        <time>2021-04-25T08:21:06Z</time>
      </trkpt>
      <trkpt lat="47.20682" lon="5.98271">
        <ele>456.4</ele>
        <time>2021-04-25T08:21:07Z</time>
      </trkpt>
      <trkpt lat="47.20684" lon="5.98273">
        <ele>456.6</ele>
        <time>2021-04-25T08:21:08Z</time>
      </trkpt>
      <trkpt lat="47.20685" lon="5.98274">
        <ele>456.8</ele>
        <time>2021-04-25T08:21:09Z</time>
      </trkpt>
      <trkpt lat="47.20687" lon="5.98275">
        <ele>457</ele>
        <time>2021-04-25T08:21:10Z</time>
      </trkpt>
      <trkpt lat="47.20689" lon="5.98276">
        <ele>457.2</ele>
        <time>2021-04-25T08:21:11Z</time>
      </trkpt>
      <trkpt lat="47.2069" lon="5.98278">
        <ele>457.4</ele>
        <time>2021-04-25T08:21:12Z</time>
      </trkpt>
      <trkpt lat="47.20692" lon="5.9828">
        <ele>457.6</ele>
        <time>2021-04-25T08:21:13Z</time>
      </trkpt>
      <trkpt lat="47.20695" lon="5.98282">
        <ele>457.6</ele>
        <time>2021-04-25T08:21:14Z</time>
      </trkpt>
      <trkpt lat="47.20697" lon="5.98282">
        <ele>457.8</ele>
        <time>2021-04-25T08:21:15Z</time>
      </trkpt>
      <trkpt lat="47.20699" lon="5.98284">
        <ele>458</ele>
        <time>2021-04-25T08:21:16Z</time>
      </trkpt>
      <trkpt lat="47.207" lon="5.98285">
        <ele>458</ele>
        <time>2021-04-25T08:21:17Z</time>
      </trkpt>
      <trkpt lat="47.20702" lon="5.98286">
        <ele>458.2</ele>
        <time>2021-04-25T08:21:18Z</time>
      </trkpt>
      <trkpt lat="47.20704" lon="5.98287">
        <ele>458.4</ele>
        <time>2021-04-25T08:21:19Z</time>
      </trkpt>
      <trkpt lat="47.20706" lon="5.98289">
        <ele>458.6</ele>
        <time>2021-04-25T08:21:20Z</time>
      </trkpt>
      <trkpt lat="47.20708" lon="5.9829">
        <ele>458.6</ele>
        <time>2021-04-25T08:21:21Z</time>
      </trkpt>
      <trkpt lat="47.2071" lon="5.98291">
        <ele>459</ele>
        <time>2021-04-25T08:21:22Z</time>
      </trkpt>
      <trkpt lat="47.20712" lon="5.98292">
        <ele>459.2</ele>
        <time>2021-04-25T08:21:23Z</time>
      </trkpt>
      <trkpt lat="47.20714" lon="5.98294">
        <ele>459.4</ele>
        <time>2021-04-25T08:21:24Z</time>
      </trkpt>
      <trkpt lat="47.20716" lon="5.98296">
        <ele>459.6</ele>
        <time>2021-04-25T08:21:25Z</time>
      </trkpt>
      <trkpt lat="47.20718" lon="5.98297">
        <ele>459.8</ele>
        <time>2021-04-25T08:21:26Z</time>
      </trkpt>
      <trkpt lat="47.2072" lon="5.98299">
        <ele>460</ele>
        <time>2021-04-25T08:21:27Z</time>
      </trkpt>
      <trkpt lat="47.20722" lon="5.983">
        <ele>460.2</ele>
        <time>2021-04-25T08:21:28Z</time>
      </trkpt>
      <trkpt lat="47.20724" lon="5.98302">
        <ele>460.6</ele>
        <time>2021-04-25T08:21:29Z</time>
      </trkpt>
      <trkpt lat="47.20727" lon="5.98304">
        <ele>460.6</ele>
        <time>2021-04-25T08:21:30Z</time>
      </trkpt>
      <trkpt lat="47.20729" lon="5.98306">
        <ele>460.8</ele>
        <time>2021-04-25T08:21:31Z</time>
      </trkpt>
      <trkpt lat="47.2073" lon="5.98308">
        <ele>461</ele>
        <time>2021-04-25T08:21:32Z</time>
      </trkpt>
      <trkpt lat="47.20733" lon="5.9831">
        <ele>461.2</ele>
        <time>2021-04-25T08:21:33Z</time>
      </trkpt>
      <trkpt lat="47.20735" lon="5.98312">
        <ele>461.2</ele>
        <time>2021-04-25T08:21:34Z</time>
      </trkpt>
      <trkpt lat="47.20738" lon="5.98311">
        <ele>461.4</ele>
        <time>2021-04-25T08:21:35Z</time>
      </trkpt>
      <trkpt lat="47.2074" lon="5.98311">
        <ele>461.6</ele>
        <time>2021-04-25T08:21:36Z</time>
      </trkpt>
      <trkpt lat="47.20742" lon="5.98311">
        <ele>461.6</ele>
        <time>2021-04-25T08:21:37Z</time>
      </trkpt>
      <trkpt lat="47.20743" lon="5.98311">
        <ele>461.8</ele>
        <time>2021-04-25T08:21:38Z</time>
      </trkpt>
      <trkpt lat="47.20745" lon="5.98312">
        <ele>461.8</ele>
        <time>2021-04-25T08:21:39Z</time>
      </trkpt>
      <trkpt lat="47.20747" lon="5.98313">
        <ele>462.2</ele>
        <time>2021-04-25T08:21:40Z</time>
      </trkpt>
      <trkpt lat="47.20749" lon="5.98313">
        <ele>462.4</ele>
        <time>2021-04-25T08:21:41Z</time>
      </trkpt>
      <trkpt lat="47.2075" lon="5.98313">
        <ele>462.4</ele>
        <time>2021-04-25T08:21:42Z</time>
      </trkpt>
      <trkpt lat="47.20752" lon="5.98313">
        <ele>462.6</ele>
        <time>2021-04-25T08:21:43Z</time>
      </trkpt>
      <trkpt lat="47.20755" lon="5.98313">
        <ele>462.8</ele>
        <time>2021-04-25T08:21:44Z</time>
      </trkpt>
      <trkpt lat="47.20756" lon="5.98312">
        <ele>463</ele>
        <time>2021-04-25T08:21:45Z</time>
      </trkpt>
      <trkpt lat="47.20758" lon="5.98312">
        <ele>463</ele>
        <time>2021-04-25T08:21:46Z</time>
      </trkpt>
      <trkpt lat="47.20759" lon="5.98311">
        <ele>463.2</ele>
        <time>2021-04-25T08:21:47Z</time>
      </trkpt>
      <trkpt lat="47.20761" lon="5.9831">
        <ele>463.4</ele>
        <time>2021-04-25T08:21:48Z</time>
      </trkpt>
      <trkpt lat="47.20763" lon="5.98308">
        <ele>463.6</ele>
        <time>2021-04-25T08:21:49Z</time>
      </trkpt>
      <trkpt lat="47.20764" lon="5.98307">
        <ele>464</ele>
        <time>2021-04-25T08:21:50Z</time>
      </trkpt>
      <trkpt lat="47.20765" lon="5.98307">
        <ele>464.2</ele>
        <time>2021-04-25T08:21:51Z</time>
      </trkpt>
      <trkpt lat="47.20766" lon="5.98305">
        <ele>464.4</ele>
        <time>2021-04-25T08:21:52Z</time>
      </trkpt>
      <trkpt lat="47.20767" lon="5.98303">
        <ele>464.6</ele>
        <time>2021-04-25T08:21:53Z</time>
      </trkpt>
      <trkpt lat="47.20768" lon="5.98301">
        <ele>464.6</ele>
        <time>2021-04-25T08:21:54Z</time>
      </trkpt>
      <trkpt lat="47.20768" lon="5.98299">
        <ele>464.8</ele>
        <time>2021-04-25T08:21:55Z</time>
      </trkpt>
      <trkpt lat="47.20768" lon="5.98297">
        <ele>464.8</ele>
        <time>2021-04-25T08:21:56Z</time>
      </trkpt>
      <trkpt lat="47.20768" lon="5.98295">
        <ele>465</ele>
        <time>2021-04-25T08:21:57Z</time>
      </trkpt>
      <trkpt lat="47.20769" lon="5.98292">
        <ele>465</ele>
        <time>2021-04-25T08:21:58Z</time>
      </trkpt>
      <trkpt lat="47.20769" lon="5.98289">
        <ele>465</ele>
        <time>2021-04-25T08:21:59Z</time>
      </trkpt>
      <trkpt lat="47.20769" lon="5.98286">
        <ele>465</ele>
        <time>2021-04-25T08:22:00Z</time>
      </trkpt>
      <trkpt lat="47.20769" lon="5.98283">
        <ele>465</ele>
        <time>2021-04-25T08:22:01Z</time>
      </trkpt>
      <trkpt lat="47.20769" lon="5.9828">
        <ele>465</ele>
        <time>2021-04-25T08:22:02Z</time>
      </trkpt>
      <trkpt lat="47.20769" lon="5.98278">
        <ele>465.2</ele>
        <time>2021-04-25T08:22:03Z</time>
      </trkpt>
      <trkpt lat="47.20767" lon="5.98275">
        <ele>465.2</ele>
        <time>2021-04-25T08:22:04Z</time>
      </trkpt>
      <trkpt lat="47.20766" lon="5.98273">
        <ele>465.2</ele>
        <time>2021-04-25T08:22:05Z</time>
      </trkpt>
      <trkpt lat="47.20764" lon="5.98272">
        <ele>465.4</ele>
        <time>2021-04-25T08:22:06Z</time>
      </trkpt>
      <trkpt lat="47.20763" lon="5.98269">
        <ele>465.4</ele>
        <time>2021-04-25T08:22:07Z</time>
      </trkpt>
      <trkpt lat="47.20762" lon="5.98267">
        <ele>465.6</ele>
        <time>2021-04-25T08:22:08Z</time>
      </trkpt>
      <trkpt lat="47.2076" lon="5.98265">
        <ele>465.6</ele>
        <time>2021-04-25T08:22:09Z</time>
      </trkpt>
      <trkpt lat="47.20759" lon="5.98263">
        <ele>465.8</ele>
        <time>2021-04-25T08:22:10Z</time>
      </trkpt>
      <trkpt lat="47.20758" lon="5.98261">
        <ele>465.8</ele>
        <time>2021-04-25T08:22:11Z</time>
      </trkpt>
      <trkpt lat="47.20758" lon="5.98259">
        <ele>466</ele>
        <time>2021-04-25T08:22:12Z</time>
      </trkpt>
      <trkpt lat="47.20757" lon="5.98258">
        <ele>466</ele>
        <time>2021-04-25T08:22:13Z</time>
      </trkpt>
      <trkpt lat="47.20757" lon="5.98258">
        <ele>466.2</ele>
        <time>2021-04-25T08:22:14Z</time>
      </trkpt>
      <trkpt lat="47.20757" lon="5.98258">
        <ele>466.4</ele>
        <time>2021-04-25T08:22:32Z</time>
      </trkpt>
      <trkpt lat="47.20754" lon="5.9825">
        <ele>466.6</ele>
        <time>2021-04-25T08:22:51Z</time>
      </trkpt>
      <trkpt lat="47.20754" lon="5.98244">
        <ele>466.6</ele>
        <time>2021-04-25T08:22:53Z</time>
      </trkpt>
      <trkpt lat="47.20755" lon="5.98241">
        <ele>466.6</ele>
        <time>2021-04-25T08:22:54Z</time>
      </trkpt>
      <trkpt lat="47.20758" lon="5.98236">
        <ele>466.6</ele>
        <time>2021-04-25T08:22:56Z</time>
      </trkpt>
      <trkpt lat="47.20768" lon="5.98216">
        <ele>466.8</ele>
        <time>2021-04-25T08:23:02Z</time>
      </trkpt>
      <trkpt lat="47.20769" lon="5.98212">
        <ele>466.8</ele>
        <time>2021-04-25T08:23:03Z</time>
      </trkpt>
      <trkpt lat="47.2077" lon="5.98208">
        <ele>466.8</ele>
        <time>2021-04-25T08:23:04Z</time>
      </trkpt>
      <trkpt lat="47.20771" lon="5.98205">
        <ele>466.8</ele>
        <time>2021-04-25T08:23:05Z</time>
      </trkpt>
      <trkpt lat="47.20774" lon="5.98189">
        <ele>466.8</ele>
        <time>2021-04-25T08:23:09Z</time>
      </trkpt>
      <trkpt lat="47.20778" lon="5.98159">
        <ele>467</ele>
        <time>2021-04-25T08:23:16Z</time>
      </trkpt>
      <trkpt lat="47.20778" lon="5.98157">
        <ele>467.2</ele>
        <time>2021-04-25T08:23:17Z</time>
      </trkpt>
      <trkpt lat="47.20776" lon="5.98155">
        <ele>467.2</ele>
        <time>2021-04-25T08:23:18Z</time>
      </trkpt>
      <trkpt lat="47.20774" lon="5.98153">
        <ele>467.2</ele>
        <time>2021-04-25T08:23:19Z</time>
      </trkpt>
      <trkpt lat="47.20772" lon="5.98151">
        <ele>467.2</ele>
        <time>2021-04-25T08:23:20Z</time>
      </trkpt>
      <trkpt lat="47.2077" lon="5.98149">
        <ele>467.2</ele>
        <time>2021-04-25T08:23:21Z</time>
      </trkpt>
      <trkpt lat="47.20761" lon="5.98138">
        <ele>467.6</ele>
        <time>2021-04-25T08:23:26Z</time>
      </trkpt>
      <trkpt lat="47.20759" lon="5.98136">
        <ele>467.6</ele>
        <time>2021-04-25T08:23:27Z</time>
      </trkpt>
      <trkpt lat="47.20758" lon="5.98134">
        <ele>467.8</ele>
        <time>2021-04-25T08:23:28Z</time>
      </trkpt>
      <trkpt lat="47.20748" lon="5.98122">
        <ele>468.4</ele>
        <time>2021-04-25T08:23:33Z</time>
      </trkpt>
      <trkpt lat="47.20746" lon="5.9812">
        <ele>468.4</ele>
        <time>2021-04-25T08:23:34Z</time>
      </trkpt>
      <trkpt lat="47.20744" lon="5.98118">
        <ele>468.6</ele>
        <time>2021-04-25T08:23:35Z</time>
      </trkpt>
      <trkpt lat="47.2074" lon="5.98115">
        <ele>468.8</ele>
        <time>2021-04-25T08:23:38Z</time>
      </trkpt>
      <trkpt lat="47.20739" lon="5.98114">
        <ele>469</ele>
        <time>2021-04-25T08:23:39Z</time>
      </trkpt>
      <trkpt lat="47.20738" lon="5.98113">
        <ele>469</ele>
        <time>2021-04-25T08:23:40Z</time>
      </trkpt>
      <trkpt lat="47.20737" lon="5.98113">
        <ele>469</ele>
        <time>2021-04-25T08:23:41Z</time>
      </trkpt>
      <trkpt lat="47.20734" lon="5.98114">
        <ele>469.2</ele>
        <time>2021-04-25T08:23:43Z</time>
      </trkpt>
      <trkpt lat="47.20734" lon="5.98115">
        <ele>469.2</ele>
        <time>2021-04-25T08:23:44Z</time>
      </trkpt>
      <trkpt lat="47.20733" lon="5.98116">
        <ele>469.2</ele>
        <time>2021-04-25T08:23:45Z</time>
      </trkpt>
      <trkpt lat="47.20732" lon="5.98116">
        <ele>469.2</ele>
        <time>2021-04-25T08:23:46Z</time>
      </trkpt>
      <trkpt lat="47.20732" lon="5.98116">
        <ele>469.4</ele>
        <time>2021-04-25T08:23:47Z</time>
      </trkpt>
      <trkpt lat="47.2073" lon="5.98114">
        <ele>469.6</ele>
        <time>2021-04-25T08:23:48Z</time>
      </trkpt>
      <trkpt lat="47.2072" lon="5.981">
        <ele>470.2</ele>
        <time>2021-04-25T08:23:54Z</time>
      </trkpt>
      <trkpt lat="47.20718" lon="5.98099">
        <ele>470.4</ele>
        <time>2021-04-25T08:23:55Z</time>
      </trkpt>
      <trkpt lat="47.20716" lon="5.98098">
        <ele>470.6</ele>
        <time>2021-04-25T08:23:56Z</time>
      </trkpt>
      <trkpt lat="47.20714" lon="5.98098">
        <ele>470.6</ele>
        <time>2021-04-25T08:23:57Z</time>
      </trkpt>
      <trkpt lat="47.20712" lon="5.98097">
        <ele>470.8</ele>
        <time>2021-04-25T08:23:58Z</time>
      </trkpt>
      <trkpt lat="47.20709" lon="5.98097">
        <ele>471</ele>
        <time>2021-04-25T08:24:00Z</time>
      </trkpt>
      <trkpt lat="47.20707" lon="5.98095">
        <ele>471</ele>
        <time>2021-04-25T08:24:01Z</time>
      </trkpt>
      <trkpt lat="47.20706" lon="5.98092">
        <ele>471</ele>
        <time>2021-04-25T08:24:02Z</time>
      </trkpt>
      <trkpt lat="47.20706" lon="5.98091">
        <ele>471</ele>
        <time>2021-04-25T08:24:03Z</time>
      </trkpt>
      <trkpt lat="47.20704" lon="5.98088">
        <ele>471.2</ele>
        <time>2021-04-25T08:24:04Z</time>
      </trkpt>
      <trkpt lat="47.20703" lon="5.98086">
        <ele>471.4</ele>
        <time>2021-04-25T08:24:05Z</time>
      </trkpt>
      <trkpt lat="47.20701" lon="5.98083">
        <ele>471.4</ele>
        <time>2021-04-25T08:24:06Z</time>
      </trkpt>
      <trkpt lat="47.207" lon="5.98081">
        <ele>471.6</ele>
        <time>2021-04-25T08:24:07Z</time>
      </trkpt>
      <trkpt lat="47.20695" lon="5.98075">
        <ele>471.8</ele>
        <time>2021-04-25T08:24:09Z</time>
      </trkpt>
      <trkpt lat="47.20691" lon="5.9807">
        <ele>471.8</ele>
        <time>2021-04-25T08:24:11Z</time>
      </trkpt>
      <trkpt lat="47.2068" lon="5.98053">
        <ele>472.4</ele>
        <time>2021-04-25T08:24:16Z</time>
      </trkpt>
      <trkpt lat="47.20675" lon="5.98047">
        <ele>472.8</ele>
        <time>2021-04-25T08:24:19Z</time>
      </trkpt>
      <trkpt lat="47.20672" lon="5.9804">
        <ele>472.8</ele>
        <time>2021-04-25T08:24:21Z</time>
      </trkpt>
      <trkpt lat="47.20671" lon="5.98038">
        <ele>473</ele>
        <time>2021-04-25T08:24:22Z</time>
      </trkpt>
      <trkpt lat="47.20664" lon="5.98028">
        <ele>473.4</ele>
        <time>2021-04-25T08:24:26Z</time>
      </trkpt>
      <trkpt lat="47.2066" lon="5.98023">
        <ele>473.8</ele>
        <time>2021-04-25T08:24:28Z</time>
      </trkpt>
      <trkpt lat="47.2066" lon="5.9802">
        <ele>473.8</ele>
        <time>2021-04-25T08:24:29Z</time>
      </trkpt>
      <trkpt lat="47.2066" lon="5.98019">
        <ele>474</ele>
        <time>2021-04-25T08:24:30Z</time>
      </trkpt>
      <trkpt lat="47.20659" lon="5.98017">
        <ele>474.2</ele>
        <time>2021-04-25T08:24:31Z</time>
      </trkpt>
      <trkpt lat="47.20658" lon="5.98015">
        <ele>474.2</ele>
        <time>2021-04-25T08:24:32Z</time>
      </trkpt>
      <trkpt lat="47.20656" lon="5.98012">
        <ele>474.2</ele>
        <time>2021-04-25T08:24:33Z</time>
      </trkpt>
      <trkpt lat="47.20653" lon="5.98007">
        <ele>474.6</ele>
        <time>2021-04-25T08:24:34Z</time>
      </trkpt>
      <trkpt lat="47.20652" lon="5.98005">
        <ele>474.6</ele>
        <time>2021-04-25T08:24:35Z</time>
      </trkpt>
      <trkpt lat="47.2065" lon="5.98002">
        <ele>475</ele>
        <time>2021-04-25T08:24:36Z</time>
      </trkpt>
      <trkpt lat="47.20648" lon="5.98">
        <ele>475</ele>
        <time>2021-04-25T08:24:37Z</time>
      </trkpt>
      <trkpt lat="47.20647" lon="5.97997">
        <ele>475.2</ele>
        <time>2021-04-25T08:24:38Z</time>
      </trkpt>
      <trkpt lat="47.20646" lon="5.97995">
        <ele>475.2</ele>
        <time>2021-04-25T08:24:39Z</time>
      </trkpt>
      <trkpt lat="47.20645" lon="5.97993">
        <ele>475.2</ele>
        <time>2021-04-25T08:24:40Z</time>
      </trkpt>
      <trkpt lat="47.20643" lon="5.97991">
        <ele>475.4</ele>
        <time>2021-04-25T08:24:41Z</time>
      </trkpt>
      <trkpt lat="47.20641" lon="5.97988">
        <ele>475.4</ele>
        <time>2021-04-25T08:24:42Z</time>
      </trkpt>
      <trkpt lat="47.20639" lon="5.97985">
        <ele>475.6</ele>
        <time>2021-04-25T08:24:43Z</time>
      </trkpt>
      <trkpt lat="47.20637" lon="5.97982">
        <ele>475.6</ele>
        <time>2021-04-25T08:24:44Z</time>
      </trkpt>
      <trkpt lat="47.20635" lon="5.97978">
        <ele>475.8</ele>
        <time>2021-04-25T08:24:45Z</time>
      </trkpt>
      <trkpt lat="47.20634" lon="5.97975">
        <ele>475.8</ele>
        <time>2021-04-25T08:24:46Z</time>
      </trkpt>
      <trkpt lat="47.20631" lon="5.97971">
        <ele>475.8</ele>
        <time>2021-04-25T08:24:47Z</time>
      </trkpt>
      <trkpt lat="47.2063" lon="5.97968">
        <ele>476</ele>
        <time>2021-04-25T08:24:48Z</time>
      </trkpt>
      <trkpt lat="47.20629" lon="5.97965">
        <ele>476</ele>
        <time>2021-04-25T08:24:49Z</time>
      </trkpt>
      <trkpt lat="47.20628" lon="5.97962">
        <ele>476</ele>
        <time>2021-04-25T08:24:50Z</time>
      </trkpt>
      <trkpt lat="47.20627" lon="5.97957">
        <ele>476</ele>
        <time>2021-04-25T08:24:51Z</time>
      </trkpt>
      <trkpt lat="47.20625" lon="5.97954">
        <ele>476</ele>
        <time>2021-04-25T08:24:52Z</time>
      </trkpt>
      <trkpt lat="47.20623" lon="5.9795">
        <ele>476</ele>
        <time>2021-04-25T08:24:53Z</time>
      </trkpt>
      <trkpt lat="47.20621" lon="5.97946">
        <ele>476.2</ele>
        <time>2021-04-25T08:24:54Z</time>
      </trkpt>
      <trkpt lat="47.20618" lon="5.97943">
        <ele>476.2</ele>
        <time>2021-04-25T08:24:55Z</time>
      </trkpt>
      <trkpt lat="47.20618" lon="5.9794">
        <ele>476.2</ele>
        <time>2021-04-25T08:24:56Z</time>
      </trkpt>
      <trkpt lat="47.20617" lon="5.97937">
        <ele>476.2</ele>
        <time>2021-04-25T08:24:57Z</time>
      </trkpt>
      <trkpt lat="47.20616" lon="5.97933">
        <ele>476.2</ele>
        <time>2021-04-25T08:24:58Z</time>
      </trkpt>
      <trkpt lat="47.20615" lon="5.97931">
        <ele>476.4</ele>
        <time>2021-04-25T08:24:59Z</time>
      </trkpt>
      <trkpt lat="47.20614" lon="5.97928">
        <ele>476.4</ele>
        <time>2021-04-25T08:25:00Z</time>
      </trkpt>
      <trkpt lat="47.20609" lon="5.97917">
        <ele>476.4</ele>
        <time>2021-04-25T08:25:03Z</time>
      </trkpt>
      <trkpt lat="47.20608" lon="5.97915">
        <ele>476.6</ele>
        <time>2021-04-25T08:25:04Z</time>
      </trkpt>
      <trkpt lat="47.20606" lon="5.97912">
        <ele>476.6</ele>
        <time>2021-04-25T08:25:05Z</time>
      </trkpt>
      <trkpt lat="47.20596" lon="5.97898">
        <ele>477</ele>
        <time>2021-04-25T08:25:09Z</time>
      </trkpt>
      <trkpt lat="47.20594" lon="5.97894">
        <ele>477</ele>
        <time>2021-04-25T08:25:10Z</time>
      </trkpt>
      <trkpt lat="47.20591" lon="5.9789">
        <ele>477</ele>
        <time>2021-04-25T08:25:11Z</time>
      </trkpt>
      <trkpt lat="47.20592" lon="5.97887">
        <ele>477</ele>
        <time>2021-04-25T08:25:12Z</time>
      </trkpt>
      <trkpt lat="47.2059" lon="5.97882">
        <ele>477.2</ele>
        <time>2021-04-25T08:25:13Z</time>
      </trkpt>
      <trkpt lat="47.20588" lon="5.97879">
        <ele>477.4</ele>
        <time>2021-04-25T08:25:14Z</time>
      </trkpt>
      <trkpt lat="47.20585" lon="5.97874">
        <ele>477.6</ele>
        <time>2021-04-25T08:25:16Z</time>
      </trkpt>
      <trkpt lat="47.20584" lon="5.97872">
        <ele>477.6</ele>
        <time>2021-04-25T08:25:17Z</time>
      </trkpt>
      <trkpt lat="47.20581" lon="5.97868">
        <ele>477.8</ele>
        <time>2021-04-25T08:25:19Z</time>
      </trkpt>
      <trkpt lat="47.2058" lon="5.97865">
        <ele>477.8</ele>
        <time>2021-04-25T08:25:20Z</time>
      </trkpt>
      <trkpt lat="47.20579" lon="5.97862">
        <ele>478</ele>
        <time>2021-04-25T08:25:21Z</time>
      </trkpt>
      <trkpt lat="47.20575" lon="5.97856">
        <ele>478</ele>
        <time>2021-04-25T08:25:23Z</time>
      </trkpt>
      <trkpt lat="47.20573" lon="5.97853">
        <ele>478</ele>
        <time>2021-04-25T08:25:24Z</time>
      </trkpt>
      <trkpt lat="47.20568" lon="5.97846">
        <ele>478.4</ele>
        <time>2021-04-25T08:25:27Z</time>
      </trkpt>
      <trkpt lat="47.20561" lon="5.97835">
        <ele>478.8</ele>
        <time>2021-04-25T08:25:31Z</time>
      </trkpt>
      <trkpt lat="47.20561" lon="5.97835">
        <ele>478.8</ele>
        <time>2021-04-25T08:25:32Z</time>
      </trkpt>
      <trkpt lat="47.20554" lon="5.9783">
        <ele>479</ele>
        <time>2021-04-25T08:25:33Z</time>
      </trkpt>
      <trkpt lat="47.20553" lon="5.97829">
        <ele>479</ele>
        <time>2021-04-25T08:25:34Z</time>
      </trkpt>
      <trkpt lat="47.20553" lon="5.97827">
        <ele>479</ele>
        <time>2021-04-25T08:25:35Z</time>
      </trkpt>
      <trkpt lat="47.20552" lon="5.97825">
        <ele>479.2</ele>
        <time>2021-04-25T08:25:36Z</time>
      </trkpt>
      <trkpt lat="47.20542" lon="5.97813">
        <ele>480</ele>
        <time>2021-04-25T08:25:41Z</time>
      </trkpt>
      <trkpt lat="47.20538" lon="5.97809">
        <ele>480.6</ele>
        <time>2021-04-25T08:25:43Z</time>
      </trkpt>
      <trkpt lat="47.20536" lon="5.97806">
        <ele>480.8</ele>
        <time>2021-04-25T08:25:44Z</time>
      </trkpt>
      <trkpt lat="47.20534" lon="5.97803">
        <ele>481.2</ele>
        <time>2021-04-25T08:25:45Z</time>
      </trkpt>
      <trkpt lat="47.20532" lon="5.97801">
        <ele>481.4</ele>
        <time>2021-04-25T08:25:46Z</time>
      </trkpt>
      <trkpt lat="47.2053" lon="5.97799">
        <ele>481.8</ele>
        <time>2021-04-25T08:25:47Z</time>
      </trkpt>
      <trkpt lat="47.20529" lon="5.97796">
        <ele>482</ele>
        <time>2021-04-25T08:25:48Z</time>
      </trkpt>
      <trkpt lat="47.20527" lon="5.97794">
        <ele>482.2</ele>
        <time>2021-04-25T08:25:49Z</time>
      </trkpt>
      <trkpt lat="47.20527" lon="5.97792">
        <ele>482.6</ele>
        <time>2021-04-25T08:25:50Z</time>
      </trkpt>
      <trkpt lat="47.20522" lon="5.97789">
        <ele>482.8</ele>
        <time>2021-04-25T08:25:51Z</time>
      </trkpt>
      <trkpt lat="47.20519" lon="5.97786">
        <ele>483.2</ele>
        <time>2021-04-25T08:25:52Z</time>
      </trkpt>
      <trkpt lat="47.20517" lon="5.97785">
        <ele>483.2</ele>
        <time>2021-04-25T08:25:53Z</time>
      </trkpt>
      <trkpt lat="47.20515" lon="5.97783">
        <ele>483.4</ele>
        <time>2021-04-25T08:25:54Z</time>
      </trkpt>
      <trkpt lat="47.20513" lon="5.97782">
        <ele>483.6</ele>
        <time>2021-04-25T08:25:55Z</time>
      </trkpt>
      <trkpt lat="47.20512" lon="5.97781">
        <ele>483.8</ele>
        <time>2021-04-25T08:25:56Z</time>
      </trkpt>
      <trkpt lat="47.2051" lon="5.9778">
        <ele>484.2</ele>
        <time>2021-04-25T08:25:57Z</time>
      </trkpt>
      <trkpt lat="47.20509" lon="5.97779">
        <ele>484.4</ele>
        <time>2021-04-25T08:25:58Z</time>
      </trkpt>
      <trkpt lat="47.20507" lon="5.97779">
        <ele>484.6</ele>
        <time>2021-04-25T08:25:59Z</time>
      </trkpt>
      <trkpt lat="47.20504" lon="5.97779">
        <ele>484.8</ele>
        <time>2021-04-25T08:26:00Z</time>
      </trkpt>
      <trkpt lat="47.20502" lon="5.97779">
        <ele>485</ele>
        <time>2021-04-25T08:26:01Z</time>
      </trkpt>
      <trkpt lat="47.205" lon="5.97779">
        <ele>485</ele>
        <time>2021-04-25T08:26:02Z</time>
      </trkpt>
      <trkpt lat="47.20498" lon="5.97779">
        <ele>485.4</ele>
        <time>2021-04-25T08:26:03Z</time>
      </trkpt>
      <trkpt lat="47.20497" lon="5.97779">
        <ele>485.8</ele>
        <time>2021-04-25T08:26:04Z</time>
      </trkpt>
      <trkpt lat="47.20495" lon="5.97779">
        <ele>486.4</ele>
        <time>2021-04-25T08:26:05Z</time>
      </trkpt>
      <trkpt lat="47.20493" lon="5.97778">
        <ele>486.6</ele>
        <time>2021-04-25T08:26:06Z</time>
      </trkpt>
      <trkpt lat="47.20491" lon="5.97777">
        <ele>486.8</ele>
        <time>2021-04-25T08:26:07Z</time>
      </trkpt>
      <trkpt lat="47.2049" lon="5.97777">
        <ele>487</ele>
        <time>2021-04-25T08:26:08Z</time>
      </trkpt>
      <trkpt lat="47.20488" lon="5.97777">
        <ele>487.2</ele>
        <time>2021-04-25T08:26:09Z</time>
      </trkpt>
      <trkpt lat="47.20486" lon="5.97776">
        <ele>487.4</ele>
        <time>2021-04-25T08:26:10Z</time>
      </trkpt>
      <trkpt lat="47.20484" lon="5.97775">
        <ele>487.4</ele>
        <time>2021-04-25T08:26:11Z</time>
      </trkpt>
      <trkpt lat="47.20482" lon="5.97774">
        <ele>487.8</ele>
        <time>2021-04-25T08:26:12Z</time>
      </trkpt>
      <trkpt lat="47.20481" lon="5.97772">
        <ele>488</ele>
        <time>2021-04-25T08:26:13Z</time>
      </trkpt>
      <trkpt lat="47.20479" lon="5.97771">
        <ele>488.2</ele>
        <time>2021-04-25T08:26:14Z</time>
      </trkpt>
      <trkpt lat="47.20477" lon="5.97769">
        <ele>488.6</ele>
        <time>2021-04-25T08:26:15Z</time>
      </trkpt>
      <trkpt lat="47.20475" lon="5.97767">
        <ele>488.8</ele>
        <time>2021-04-25T08:26:16Z</time>
      </trkpt>
      <trkpt lat="47.20474" lon="5.97765">
        <ele>489.2</ele>
        <time>2021-04-25T08:26:17Z</time>
      </trkpt>
      <trkpt lat="47.20473" lon="5.97763">
        <ele>489.4</ele>
        <time>2021-04-25T08:26:18Z</time>
      </trkpt>
      <trkpt lat="47.20472" lon="5.97761">
        <ele>489.8</ele>
        <time>2021-04-25T08:26:19Z</time>
      </trkpt>
      <trkpt lat="47.2047" lon="5.97758">
        <ele>490</ele>
        <time>2021-04-25T08:26:20Z</time>
      </trkpt>
      <trkpt lat="47.20468" lon="5.97756">
        <ele>490.4</ele>
        <time>2021-04-25T08:26:21Z</time>
      </trkpt>
      <trkpt lat="47.20467" lon="5.97755">
        <ele>490.8</ele>
        <time>2021-04-25T08:26:22Z</time>
      </trkpt>
      <trkpt lat="47.20466" lon="5.97754">
        <ele>491</ele>
        <time>2021-04-25T08:26:23Z</time>
      </trkpt>
      <trkpt lat="47.20464" lon="5.97754">
        <ele>491</ele>
        <time>2021-04-25T08:26:24Z</time>
      </trkpt>
      <trkpt lat="47.20462" lon="5.97754">
        <ele>491.2</ele>
        <time>2021-04-25T08:26:25Z</time>
      </trkpt>
      <trkpt lat="47.2046" lon="5.97755">
        <ele>491.2</ele>
        <time>2021-04-25T08:26:26Z</time>
      </trkpt>
      <trkpt lat="47.20458" lon="5.97756">
        <ele>491.2</ele>
        <time>2021-04-25T08:26:27Z</time>
      </trkpt>
      <trkpt lat="47.20456" lon="5.97757">
        <ele>491.2</ele>
        <time>2021-04-25T08:26:28Z</time>
      </trkpt>
      <trkpt lat="47.20456" lon="5.97758">
        <ele>491.2</ele>
        <time>2021-04-25T08:26:29Z</time>
      </trkpt>
      <trkpt lat="47.20456" lon="5.97758">
        <ele>491.2</ele>
        <time>2021-04-25T08:26:30Z</time>
      </trkpt>
      <trkpt lat="47.20456" lon="5.97758">
        <ele>491</ele>
        <time>2021-04-25T08:26:37Z</time>
      </trkpt>
      <trkpt lat="47.20456" lon="5.97758">
        <ele>490.4</ele>
        <time>2021-04-25T08:27:36Z</time>
      </trkpt>
      <trkpt lat="47.20456" lon="5.97758">
        <ele>490.2</ele>
        <time>2021-04-25T08:28:03Z</time>
      </trkpt>
      <trkpt lat="47.20456" lon="5.97758">
        <ele>490.2</ele>
        <time>2021-04-25T08:28:16Z</time>
      </trkpt>
      <trkpt lat="47.20456" lon="5.97758">
        <ele>490.4</ele>
        <time>2021-04-25T08:28:53Z</time>
      </trkpt>
      <trkpt lat="47.20456" lon="5.97758">
        <ele>490.2</ele>
        <time>2021-04-25T08:29:32Z</time>
      </trkpt>
      <trkpt lat="47.20456" lon="5.97758">
        <ele>490.4</ele>
        <time>2021-04-25T08:30:17Z</time>
      </trkpt>
      <trkpt lat="47.20456" lon="5.97758">
        <ele>490.2</ele>
        <time>2021-04-25T08:31:14Z</time>
      </trkpt>
      <trkpt lat="47.20456" lon="5.97758">
        <ele>490.6</ele>
        <time>2021-04-25T08:31:37Z</time>
      </trkpt>
      <trkpt lat="47.20459" lon="5.97757">
        <ele>490.8</ele>
        <time>2021-04-25T08:31:40Z</time>
      </trkpt>
      <trkpt lat="47.2046" lon="5.97756">
        <ele>490.8</ele>
        <time>2021-04-25T08:31:41Z</time>
      </trkpt>
      <trkpt lat="47.20461" lon="5.97755">
        <ele>491</ele>
        <time>2021-04-25T08:31:43Z</time>
      </trkpt>
      <trkpt lat="47.20461" lon="5.97755">
        <ele>491.2</ele>
        <time>2021-04-25T08:31:49Z</time>
      </trkpt>
      <trkpt lat="47.20462" lon="5.97755">
        <ele>491.2</ele>
        <time>2021-04-25T08:31:56Z</time>
      </trkpt>
      <trkpt lat="47.20465" lon="5.97758">
        <ele>491.2</ele>
        <time>2021-04-25T08:31:58Z</time>
      </trkpt>
      <trkpt lat="47.20466" lon="5.9776">
        <ele>491.2</ele>
        <time>2021-04-25T08:31:59Z</time>
      </trkpt>
      <trkpt lat="47.20468" lon="5.97764">
        <ele>491</ele>
        <time>2021-04-25T08:32:01Z</time>
      </trkpt>
      <trkpt lat="47.2047" lon="5.97766">
        <ele>491</ele>
        <time>2021-04-25T08:32:02Z</time>
      </trkpt>
      <trkpt lat="47.20471" lon="5.97768">
        <ele>491</ele>
        <time>2021-04-25T08:32:03Z</time>
      </trkpt>
      <trkpt lat="47.20473" lon="5.9777">
        <ele>491</ele>
        <time>2021-04-25T08:32:04Z</time>
      </trkpt>
      <trkpt lat="47.20475" lon="5.97773">
        <ele>490.8</ele>
        <time>2021-04-25T08:32:05Z</time>
      </trkpt>
      <trkpt lat="47.20481" lon="5.97776">
        <ele>489.8</ele>
        <time>2021-04-25T08:32:08Z</time>
      </trkpt>
      <trkpt lat="47.20485" lon="5.97776">
        <ele>489.8</ele>
        <time>2021-04-25T08:32:09Z</time>
      </trkpt>
      <trkpt lat="47.20488" lon="5.97776">
        <ele>489.4</ele>
        <time>2021-04-25T08:32:10Z</time>
      </trkpt>
      <trkpt lat="47.20491" lon="5.97777">
        <ele>489.2</ele>
        <time>2021-04-25T08:32:11Z</time>
      </trkpt>
      <trkpt lat="47.20493" lon="5.97778">
        <ele>488.8</ele>
        <time>2021-04-25T08:32:12Z</time>
      </trkpt>
      <trkpt lat="47.20495" lon="5.97778">
        <ele>488.6</ele>
        <time>2021-04-25T08:32:13Z</time>
      </trkpt>
      <trkpt lat="47.20498" lon="5.97779">
        <ele>488.2</ele>
        <time>2021-04-25T08:32:14Z</time>
      </trkpt>
      <trkpt lat="47.20499" lon="5.97779">
        <ele>487.8</ele>
        <time>2021-04-25T08:32:15Z</time>
      </trkpt>
      <trkpt lat="47.20503" lon="5.97778">
        <ele>487.4</ele>
        <time>2021-04-25T08:32:17Z</time>
      </trkpt>
      <trkpt lat="47.20504" lon="5.97778">
        <ele>487.4</ele>
        <time>2021-04-25T08:32:18Z</time>
      </trkpt>
      <trkpt lat="47.20506" lon="5.97778">
        <ele>487</ele>
        <time>2021-04-25T08:32:19Z</time>
      </trkpt>
      <trkpt lat="47.20508" lon="5.97779">
        <ele>486.8</ele>
        <time>2021-04-25T08:32:20Z</time>
      </trkpt>
      <trkpt lat="47.2051" lon="5.9778">
        <ele>486.4</ele>
        <time>2021-04-25T08:32:21Z</time>
      </trkpt>
      <trkpt lat="47.20513" lon="5.97783">
        <ele>486.4</ele>
        <time>2021-04-25T08:32:22Z</time>
      </trkpt>
      <trkpt lat="47.20515" lon="5.97785">
        <ele>486</ele>
        <time>2021-04-25T08:32:23Z</time>
      </trkpt>
      <trkpt lat="47.20517" lon="5.97787">
        <ele>485.6</ele>
        <time>2021-04-25T08:32:24Z</time>
      </trkpt>
      <trkpt lat="47.20519" lon="5.9779">
        <ele>485.4</ele>
        <time>2021-04-25T08:32:25Z</time>
      </trkpt>
      <trkpt lat="47.20522" lon="5.97793">
        <ele>485</ele>
        <time>2021-04-25T08:32:26Z</time>
      </trkpt>
      <trkpt lat="47.20523" lon="5.97796">
        <ele>484.6</ele>
        <time>2021-04-25T08:32:27Z</time>
      </trkpt>
      <trkpt lat="47.20525" lon="5.97799">
        <ele>484</ele>
        <time>2021-04-25T08:32:28Z</time>
      </trkpt>
      <trkpt lat="47.20533" lon="5.97808">
        <ele>483.6</ele>
        <time>2021-04-25T08:32:30Z</time>
      </trkpt>
      <trkpt lat="47.20537" lon="5.97813">
        <ele>483</ele>
        <time>2021-04-25T08:32:31Z</time>
      </trkpt>
      <trkpt lat="47.20541" lon="5.97818">
        <ele>482.4</ele>
        <time>2021-04-25T08:32:32Z</time>
      </trkpt>
      <trkpt lat="47.20548" lon="5.97829">
        <ele>481.8</ele>
        <time>2021-04-25T08:32:34Z</time>
      </trkpt>
      <trkpt lat="47.20552" lon="5.97835">
        <ele>481.2</ele>
        <time>2021-04-25T08:32:35Z</time>
      </trkpt>
      <trkpt lat="47.20557" lon="5.97842">
        <ele>481</ele>
        <time>2021-04-25T08:32:36Z</time>
      </trkpt>
      <trkpt lat="47.20561" lon="5.97848">
        <ele>480.4</ele>
        <time>2021-04-25T08:32:37Z</time>
      </trkpt>
      <trkpt lat="47.20568" lon="5.97856">
        <ele>480.2</ele>
        <time>2021-04-25T08:32:38Z</time>
      </trkpt>
      <trkpt lat="47.20578" lon="5.97872">
        <ele>480</ele>
        <time>2021-04-25T08:32:40Z</time>
      </trkpt>
      <trkpt lat="47.20588" lon="5.97885">
        <ele>479.6</ele>
        <time>2021-04-25T08:32:42Z</time>
      </trkpt>
      <trkpt lat="47.20591" lon="5.97891">
        <ele>479.6</ele>
        <time>2021-04-25T08:32:43Z</time>
      </trkpt>
      <trkpt lat="47.20594" lon="5.97899">
        <ele>479.2</ele>
        <time>2021-04-25T08:32:44Z</time>
      </trkpt>
      <trkpt lat="47.20598" lon="5.97904">
        <ele>479</ele>
        <time>2021-04-25T08:32:45Z</time>
      </trkpt>
      <trkpt lat="47.20601" lon="5.97909">
        <ele>478.8</ele>
        <time>2021-04-25T08:32:46Z</time>
      </trkpt>
      <trkpt lat="47.20604" lon="5.97913">
        <ele>478.6</ele>
        <time>2021-04-25T08:32:47Z</time>
      </trkpt>
      <trkpt lat="47.20611" lon="5.97922">
        <ele>478.2</ele>
        <time>2021-04-25T08:32:49Z</time>
      </trkpt>
      <trkpt lat="47.20614" lon="5.97927">
        <ele>478</ele>
        <time>2021-04-25T08:32:50Z</time>
      </trkpt>
      <trkpt lat="47.20617" lon="5.97931">
        <ele>477.6</ele>
        <time>2021-04-25T08:32:51Z</time>
      </trkpt>
      <trkpt lat="47.20619" lon="5.97936">
        <ele>477.4</ele>
        <time>2021-04-25T08:32:52Z</time>
      </trkpt>
      <trkpt lat="47.20622" lon="5.97941">
        <ele>477.4</ele>
        <time>2021-04-25T08:32:53Z</time>
      </trkpt>
      <trkpt lat="47.20624" lon="5.97946">
        <ele>477.2</ele>
        <time>2021-04-25T08:32:54Z</time>
      </trkpt>
      <trkpt lat="47.20626" lon="5.97952">
        <ele>477.2</ele>
        <time>2021-04-25T08:32:55Z</time>
      </trkpt>
      <trkpt lat="47.20627" lon="5.97958">
        <ele>477.2</ele>
        <time>2021-04-25T08:32:56Z</time>
      </trkpt>
      <trkpt lat="47.20627" lon="5.97963">
        <ele>477</ele>
        <time>2021-04-25T08:32:57Z</time>
      </trkpt>
      <trkpt lat="47.20629" lon="5.97967">
        <ele>477</ele>
        <time>2021-04-25T08:32:58Z</time>
      </trkpt>
      <trkpt lat="47.20631" lon="5.9797">
        <ele>477</ele>
        <time>2021-04-25T08:32:59Z</time>
      </trkpt>
      <trkpt lat="47.20638" lon="5.97978">
        <ele>476.8</ele>
        <time>2021-04-25T08:33:01Z</time>
      </trkpt>
      <trkpt lat="47.2064" lon="5.97983">
        <ele>476.8</ele>
        <time>2021-04-25T08:33:02Z</time>
      </trkpt>
      <trkpt lat="47.20641" lon="5.97987">
        <ele>476.8</ele>
        <time>2021-04-25T08:33:03Z</time>
      </trkpt>
      <trkpt lat="47.20642" lon="5.97991">
        <ele>476.8</ele>
        <time>2021-04-25T08:33:04Z</time>
      </trkpt>
      <trkpt lat="47.20657" lon="5.98016">
        <ele>476.4</ele>
        <time>2021-04-25T08:33:10Z</time>
      </trkpt>
      <trkpt lat="47.20659" lon="5.9802">
        <ele>476.4</ele>
        <time>2021-04-25T08:33:11Z</time>
      </trkpt>
      <trkpt lat="47.20662" lon="5.98024">
        <ele>476.2</ele>
        <time>2021-04-25T08:33:12Z</time>
      </trkpt>
      <trkpt lat="47.20664" lon="5.98029">
        <ele>476.2</ele>
        <time>2021-04-25T08:33:13Z</time>
      </trkpt>
      <trkpt lat="47.20667" lon="5.98035">
        <ele>475.8</ele>
        <time>2021-04-25T08:33:14Z</time>
      </trkpt>
      <trkpt lat="47.2067" lon="5.9804">
        <ele>475.6</ele>
        <time>2021-04-25T08:33:15Z</time>
      </trkpt>
      <trkpt lat="47.20679" lon="5.9806">
        <ele>474.4</ele>
        <time>2021-04-25T08:33:19Z</time>
      </trkpt>
      <trkpt lat="47.20686" lon="5.98071">
        <ele>473.8</ele>
        <time>2021-04-25T08:33:21Z</time>
      </trkpt>
      <trkpt lat="47.20694" lon="5.98083">
        <ele>473.4</ele>
        <time>2021-04-25T08:33:23Z</time>
      </trkpt>
      <trkpt lat="47.20698" lon="5.98086">
        <ele>473</ele>
        <time>2021-04-25T08:33:24Z</time>
      </trkpt>
      <trkpt lat="47.20702" lon="5.98089">
        <ele>473</ele>
        <time>2021-04-25T08:33:25Z</time>
      </trkpt>
      <trkpt lat="47.20705" lon="5.98091">
        <ele>472.8</ele>
        <time>2021-04-25T08:33:26Z</time>
      </trkpt>
      <trkpt lat="47.20708" lon="5.98093">
        <ele>472.8</ele>
        <time>2021-04-25T08:33:27Z</time>
      </trkpt>
      <trkpt lat="47.20711" lon="5.98095">
        <ele>472.2</ele>
        <time>2021-04-25T08:33:28Z</time>
      </trkpt>
      <trkpt lat="47.20714" lon="5.98099">
        <ele>472</ele>
        <time>2021-04-25T08:33:29Z</time>
      </trkpt>
      <trkpt lat="47.20717" lon="5.98102">
        <ele>471.8</ele>
        <time>2021-04-25T08:33:30Z</time>
      </trkpt>
      <trkpt lat="47.2072" lon="5.98105">
        <ele>471.8</ele>
        <time>2021-04-25T08:33:31Z</time>
      </trkpt>
      <trkpt lat="47.20722" lon="5.98108">
        <ele>471.4</ele>
        <time>2021-04-25T08:33:32Z</time>
      </trkpt>
      <trkpt lat="47.20726" lon="5.98111">
        <ele>471.4</ele>
        <time>2021-04-25T08:33:33Z</time>
      </trkpt>
      <trkpt lat="47.20728" lon="5.98111">
        <ele>471.2</ele>
        <time>2021-04-25T08:33:34Z</time>
      </trkpt>
      <trkpt lat="47.20729" lon="5.98111">
        <ele>471.2</ele>
        <time>2021-04-25T08:33:35Z</time>
      </trkpt>
      <trkpt lat="47.20731" lon="5.9811">
        <ele>471.2</ele>
        <time>2021-04-25T08:33:36Z</time>
      </trkpt>
      <trkpt lat="47.20733" lon="5.9811">
        <ele>471</ele>
        <time>2021-04-25T08:33:37Z</time>
      </trkpt>
      <trkpt lat="47.20734" lon="5.98109">
        <ele>470.8</ele>
        <time>2021-04-25T08:33:38Z</time>
      </trkpt>
      <trkpt lat="47.20735" lon="5.98107">
        <ele>470.8</ele>
        <time>2021-04-25T08:33:39Z</time>
      </trkpt>
      <trkpt lat="47.20738" lon="5.98102">
        <ele>470.6</ele>
        <time>2021-04-25T08:33:40Z</time>
      </trkpt>
      <trkpt lat="47.20739" lon="5.98098">
        <ele>470.4</ele>
        <time>2021-04-25T08:33:41Z</time>
      </trkpt>
      <trkpt lat="47.20741" lon="5.98094">
        <ele>470.2</ele>
        <time>2021-04-25T08:33:42Z</time>
      </trkpt>
      <trkpt lat="47.20742" lon="5.98092">
        <ele>470</ele>
        <time>2021-04-25T08:33:43Z</time>
      </trkpt>
      <trkpt lat="47.20743" lon="5.9809">
        <ele>469.6</ele>
        <time>2021-04-25T08:33:44Z</time>
      </trkpt>
      <trkpt lat="47.20744" lon="5.98088">
        <ele>469.6</ele>
        <time>2021-04-25T08:33:45Z</time>
      </trkpt>
      <trkpt lat="47.20744" lon="5.98088">
        <ele>469.4</ele>
        <time>2021-04-25T08:33:46Z</time>
      </trkpt>
      <trkpt lat="47.20744" lon="5.98088">
        <ele>469.2</ele>
        <time>2021-04-25T08:33:47Z</time>
      </trkpt>
      <trkpt lat="47.20744" lon="5.98088">
        <ele>469</ele>
        <time>2021-04-25T08:33:48Z</time>
      </trkpt>
      <trkpt lat="47.20744" lon="5.98088">
        <ele>468.8</ele>
        <time>2021-04-25T08:33:50Z</time>
      </trkpt>
      <trkpt lat="47.20744" lon="5.98088">
        <ele>468.4</ele>
        <time>2021-04-25T08:33:58Z</time>
      </trkpt>
      <trkpt lat="47.20745" lon="5.98079">
        <ele>468.2</ele>
        <time>2021-04-25T08:34:01Z</time>
      </trkpt>
      <trkpt lat="47.20746" lon="5.98073">
        <ele>468</ele>
        <time>2021-04-25T08:34:02Z</time>
      </trkpt>
      <trkpt lat="47.2075" lon="5.98058">
        <ele>467.2</ele>
        <time>2021-04-25T08:34:05Z</time>
      </trkpt>
      <trkpt lat="47.20751" lon="5.98053">
        <ele>467</ele>
        <time>2021-04-25T08:34:06Z</time>
      </trkpt>
      <trkpt lat="47.20753" lon="5.98049">
        <ele>466.6</ele>
        <time>2021-04-25T08:34:07Z</time>
      </trkpt>
      <trkpt lat="47.20757" lon="5.98043">
        <ele>465.6</ele>
        <time>2021-04-25T08:34:09Z</time>
      </trkpt>
      <trkpt lat="47.20761" lon="5.98036">
        <ele>464.6</ele>
        <time>2021-04-25T08:34:11Z</time>
      </trkpt>
      <trkpt lat="47.20761" lon="5.98032">
        <ele>464.2</ele>
        <time>2021-04-25T08:34:12Z</time>
      </trkpt>
      <trkpt lat="47.2076" lon="5.98028">
        <ele>464</ele>
        <time>2021-04-25T08:34:13Z</time>
      </trkpt>
      <trkpt lat="47.20759" lon="5.98025">
        <ele>463.4</ele>
        <time>2021-04-25T08:34:14Z</time>
      </trkpt>
      <trkpt lat="47.20757" lon="5.98023">
        <ele>463</ele>
        <time>2021-04-25T08:34:15Z</time>
      </trkpt>
      <trkpt lat="47.20755" lon="5.98021">
        <ele>462.6</ele>
        <time>2021-04-25T08:34:16Z</time>
      </trkpt>
      <trkpt lat="47.20754" lon="5.98018">
        <ele>462.4</ele>
        <time>2021-04-25T08:34:17Z</time>
      </trkpt>
      <trkpt lat="47.20753" lon="5.98015">
        <ele>462.4</ele>
        <time>2021-04-25T08:34:18Z</time>
      </trkpt>
      <trkpt lat="47.20753" lon="5.98012">
        <ele>462.2</ele>
        <time>2021-04-25T08:34:19Z</time>
      </trkpt>
      <trkpt lat="47.20752" lon="5.9801">
        <ele>462.2</ele>
        <time>2021-04-25T08:34:20Z</time>
      </trkpt>
      <trkpt lat="47.20749" lon="5.98004">
        <ele>462</ele>
        <time>2021-04-25T08:34:22Z</time>
      </trkpt>
      <trkpt lat="47.20748" lon="5.98002">
        <ele>462</ele>
        <time>2021-04-25T08:34:23Z</time>
      </trkpt>
      <trkpt lat="47.20747" lon="5.97999">
        <ele>462</ele>
        <time>2021-04-25T08:34:24Z</time>
      </trkpt>
      <trkpt lat="47.20746" lon="5.97997">
        <ele>462</ele>
        <time>2021-04-25T08:34:25Z</time>
      </trkpt>
      <trkpt lat="47.20745" lon="5.97995">
        <ele>462</ele>
        <time>2021-04-25T08:34:26Z</time>
      </trkpt>
      <trkpt lat="47.20744" lon="5.97992">
        <ele>462</ele>
        <time>2021-04-25T08:34:27Z</time>
      </trkpt>
      <trkpt lat="47.20743" lon="5.97989">
        <ele>462</ele>
        <time>2021-04-25T08:34:28Z</time>
      </trkpt>
      <trkpt lat="47.20744" lon="5.97987">
        <ele>462</ele>
        <time>2021-04-25T08:34:29Z</time>
      </trkpt>
      <trkpt lat="47.20743" lon="5.97984">
        <ele>462</ele>
        <time>2021-04-25T08:34:30Z</time>
      </trkpt>
      <trkpt lat="47.2074" lon="5.97981">
        <ele>462.2</ele>
        <time>2021-04-25T08:34:31Z</time>
      </trkpt>
      <trkpt lat="47.20737" lon="5.97978">
        <ele>462.2</ele>
        <time>2021-04-25T08:34:32Z</time>
      </trkpt>
      <trkpt lat="47.20737" lon="5.97975">
        <ele>462.2</ele>
        <time>2021-04-25T08:34:33Z</time>
      </trkpt>
      <trkpt lat="47.20731" lon="5.97967">
        <ele>462.2</ele>
        <time>2021-04-25T08:34:35Z</time>
      </trkpt>
      <trkpt lat="47.20722" lon="5.97957">
        <ele>462.2</ele>
        <time>2021-04-25T08:34:37Z</time>
      </trkpt>
      <trkpt lat="47.20713" lon="5.97947">
        <ele>462</ele>
        <time>2021-04-25T08:34:40Z</time>
      </trkpt>
      <trkpt lat="47.20712" lon="5.97945">
        <ele>462</ele>
        <time>2021-04-25T08:34:41Z</time>
      </trkpt>
      <trkpt lat="47.2071" lon="5.97944">
        <ele>462.2</ele>
        <time>2021-04-25T08:34:42Z</time>
      </trkpt>
      <trkpt lat="47.20708" lon="5.97943">
        <ele>462.2</ele>
        <time>2021-04-25T08:34:43Z</time>
      </trkpt>
      <trkpt lat="47.20708" lon="5.97943">
        <ele>462.4</ele>
        <time>2021-04-25T08:34:46Z</time>
      </trkpt>
      <trkpt lat="47.20709" lon="5.9794">
        <ele>463</ele>
        <time>2021-04-25T08:34:54Z</time>
      </trkpt>
      <trkpt lat="47.20708" lon="5.97938">
        <ele>463</ele>
        <time>2021-04-25T08:34:55Z</time>
      </trkpt>
      <trkpt lat="47.20706" lon="5.97936">
        <ele>463</ele>
        <time>2021-04-25T08:34:56Z</time>
      </trkpt>
      <trkpt lat="47.20705" lon="5.97935">
        <ele>463</ele>
        <time>2021-04-25T08:34:57Z</time>
      </trkpt>
      <trkpt lat="47.20704" lon="5.97933">
        <ele>463</ele>
        <time>2021-04-25T08:34:58Z</time>
      </trkpt>
      <trkpt lat="47.20703" lon="5.97932">
        <ele>463</ele>
        <time>2021-04-25T08:34:59Z</time>
      </trkpt>
      <trkpt lat="47.20702" lon="5.9793">
        <ele>462.8</ele>
        <time>2021-04-25T08:35:00Z</time>
      </trkpt>
      <trkpt lat="47.20702" lon="5.97927">
        <ele>462.8</ele>
        <time>2021-04-25T08:35:01Z</time>
      </trkpt>
      <trkpt lat="47.20701" lon="5.97924">
        <ele>462.8</ele>
        <time>2021-04-25T08:35:02Z</time>
      </trkpt>
      <trkpt lat="47.20699" lon="5.97922">
        <ele>462.8</ele>
        <time>2021-04-25T08:35:03Z</time>
      </trkpt>
      <trkpt lat="47.20697" lon="5.9792">
        <ele>462.8</ele>
        <time>2021-04-25T08:35:04Z</time>
      </trkpt>
      <trkpt lat="47.20696" lon="5.9792">
        <ele>462.6</ele>
        <time>2021-04-25T08:35:05Z</time>
      </trkpt>
      <trkpt lat="47.20696" lon="5.9792">
        <ele>462.6</ele>
        <time>2021-04-25T08:35:06Z</time>
      </trkpt>
      <trkpt lat="47.20692" lon="5.97915">
        <ele>462.4</ele>
        <time>2021-04-25T08:35:09Z</time>
      </trkpt>
      <trkpt lat="47.20689" lon="5.97913">
        <ele>462.6</ele>
        <time>2021-04-25T08:35:12Z</time>
      </trkpt>
      <trkpt lat="47.20689" lon="5.97912">
        <ele>462.8</ele>
        <time>2021-04-25T08:35:15Z</time>
      </trkpt>
      <trkpt lat="47.20687" lon="5.97911">
        <ele>462.6</ele>
        <time>2021-04-25T08:35:17Z</time>
      </trkpt>
      <trkpt lat="47.20687" lon="5.97911">
        <ele>462.8</ele>
        <time>2021-04-25T08:35:19Z</time>
      </trkpt>
      <trkpt lat="47.20686" lon="5.97911">
        <ele>462.8</ele>
        <time>2021-04-25T08:35:20Z</time>
      </trkpt>
      <trkpt lat="47.20686" lon="5.97911">
        <ele>463</ele>
        <time>2021-04-25T08:35:24Z</time>
      </trkpt>
      <trkpt lat="47.20686" lon="5.97911">
        <ele>463</ele>
        <time>2021-04-25T08:35:25Z</time>
      </trkpt>
      <trkpt lat="47.20685" lon="5.97911">
        <ele>463.2</ele>
        <time>2021-04-25T08:35:32Z</time>
      </trkpt>
      <trkpt lat="47.20686" lon="5.97906">
        <ele>463.2</ele>
        <time>2021-04-25T08:35:34Z</time>
      </trkpt>
      <trkpt lat="47.20686" lon="5.97904">
        <ele>463.2</ele>
        <time>2021-04-25T08:35:35Z</time>
      </trkpt>
      <trkpt lat="47.20686" lon="5.97901">
        <ele>463</ele>
        <time>2021-04-25T08:35:36Z</time>
      </trkpt>
      <trkpt lat="47.20686" lon="5.97899">
        <ele>463</ele>
        <time>2021-04-25T08:35:37Z</time>
      </trkpt>
      <trkpt lat="47.20686" lon="5.97896">
        <ele>462.8</ele>
        <time>2021-04-25T08:35:38Z</time>
      </trkpt>
      <trkpt lat="47.20687" lon="5.97894">
        <ele>462.8</ele>
        <time>2021-04-25T08:35:39Z</time>
      </trkpt>
      <trkpt lat="47.20688" lon="5.97891">
        <ele>462.4</ele>
        <time>2021-04-25T08:35:40Z</time>
      </trkpt>
      <trkpt lat="47.20689" lon="5.97886">
        <ele>462</ele>
        <time>2021-04-25T08:35:41Z</time>
      </trkpt>
      <trkpt lat="47.20689" lon="5.97883">
        <ele>461.6</ele>
        <time>2021-04-25T08:35:42Z</time>
      </trkpt>
      <trkpt lat="47.20691" lon="5.97878">
        <ele>461.2</ele>
        <time>2021-04-25T08:35:43Z</time>
      </trkpt>
      <trkpt lat="47.20694" lon="5.97869">
        <ele>460.4</ele>
        <time>2021-04-25T08:35:45Z</time>
      </trkpt>
      <trkpt lat="47.20697" lon="5.97859">
        <ele>458.8</ele>
        <time>2021-04-25T08:35:47Z</time>
      </trkpt>
      <trkpt lat="47.20699" lon="5.97853">
        <ele>457.6</ele>
        <time>2021-04-25T08:35:48Z</time>
      </trkpt>
      <trkpt lat="47.207" lon="5.97849">
        <ele>457.4</ele>
        <time>2021-04-25T08:35:49Z</time>
      </trkpt>
      <trkpt lat="47.207" lon="5.97845">
        <ele>456.8</ele>
        <time>2021-04-25T08:35:50Z</time>
      </trkpt>
      <trkpt lat="47.20702" lon="5.9784">
        <ele>456.4</ele>
        <time>2021-04-25T08:35:51Z</time>
      </trkpt>
      <trkpt lat="47.20704" lon="5.97836">
        <ele>455.4</ele>
        <time>2021-04-25T08:35:52Z</time>
      </trkpt>
      <trkpt lat="47.20707" lon="5.97829">
        <ele>455</ele>
        <time>2021-04-25T08:35:53Z</time>
      </trkpt>
      <trkpt lat="47.20712" lon="5.97811">
        <ele>453.2</ele>
        <time>2021-04-25T08:35:56Z</time>
      </trkpt>
      <trkpt lat="47.20712" lon="5.97807">
        <ele>452</ele>
        <time>2021-04-25T08:35:57Z</time>
      </trkpt>
      <trkpt lat="47.20712" lon="5.97802">
        <ele>451.4</ele>
        <time>2021-04-25T08:35:58Z</time>
      </trkpt>
      <trkpt lat="47.20713" lon="5.97798">
        <ele>450.6</ele>
        <time>2021-04-25T08:35:59Z</time>
      </trkpt>
      <trkpt lat="47.20715" lon="5.97794">
        <ele>449.8</ele>
        <time>2021-04-25T08:36:00Z</time>
      </trkpt>
      <trkpt lat="47.20715" lon="5.97789">
        <ele>448.4</ele>
        <time>2021-04-25T08:36:01Z</time>
      </trkpt>
      <trkpt lat="47.20714" lon="5.97783">
        <ele>447.8</ele>
        <time>2021-04-25T08:36:02Z</time>
      </trkpt>
      <trkpt lat="47.20713" lon="5.97778">
        <ele>447</ele>
        <time>2021-04-25T08:36:03Z</time>
      </trkpt>
      <trkpt lat="47.20711" lon="5.97772">
        <ele>446.2</ele>
        <time>2021-04-25T08:36:04Z</time>
      </trkpt>
      <trkpt lat="47.20707" lon="5.97766">
        <ele>446</ele>
        <time>2021-04-25T08:36:05Z</time>
      </trkpt>
      <trkpt lat="47.20705" lon="5.9776">
        <ele>445</ele>
        <time>2021-04-25T08:36:06Z</time>
      </trkpt>
      <trkpt lat="47.20703" lon="5.97745">
        <ele>443.8</ele>
        <time>2021-04-25T08:36:08Z</time>
      </trkpt>
      <trkpt lat="47.20702" lon="5.97734">
        <ele>443.6</ele>
        <time>2021-04-25T08:36:09Z</time>
      </trkpt>
      <trkpt lat="47.20701" lon="5.97726">
        <ele>443</ele>
        <time>2021-04-25T08:36:10Z</time>
      </trkpt>
      <trkpt lat="47.20695" lon="5.97711">
        <ele>442.4</ele>
        <time>2021-04-25T08:36:12Z</time>
      </trkpt>
      <trkpt lat="47.20694" lon="5.97703">
        <ele>441.6</ele>
        <time>2021-04-25T08:36:13Z</time>
      </trkpt>
      <trkpt lat="47.20692" lon="5.97695">
        <ele>441.4</ele>
        <time>2021-04-25T08:36:14Z</time>
      </trkpt>
      <trkpt lat="47.2069" lon="5.97688">
        <ele>440.6</ele>
        <time>2021-04-25T08:36:15Z</time>
      </trkpt>
      <trkpt lat="47.20688" lon="5.9768">
        <ele>440.2</ele>
        <time>2021-04-25T08:36:16Z</time>
      </trkpt>
      <trkpt lat="47.20687" lon="5.97676">
        <ele>439.6</ele>
        <time>2021-04-25T08:36:17Z</time>
      </trkpt>
      <trkpt lat="47.20686" lon="5.9767">
        <ele>439.2</ele>
        <time>2021-04-25T08:36:18Z</time>
      </trkpt>
      <trkpt lat="47.20685" lon="5.97664">
        <ele>438.6</ele>
        <time>2021-04-25T08:36:19Z</time>
      </trkpt>
      <trkpt lat="47.20683" lon="5.97659">
        <ele>438</ele>
        <time>2021-04-25T08:36:20Z</time>
      </trkpt>
      <trkpt lat="47.20682" lon="5.97655">
        <ele>437.8</ele>
        <time>2021-04-25T08:36:21Z</time>
      </trkpt>
      <trkpt lat="47.20682" lon="5.97651">
        <ele>437</ele>
        <time>2021-04-25T08:36:22Z</time>
      </trkpt>
      <trkpt lat="47.20681" lon="5.97646">
        <ele>436.6</ele>
        <time>2021-04-25T08:36:23Z</time>
      </trkpt>
      <trkpt lat="47.2068" lon="5.97642">
        <ele>435.8</ele>
        <time>2021-04-25T08:36:24Z</time>
      </trkpt>
      <trkpt lat="47.20681" lon="5.97639">
        <ele>435.2</ele>
        <time>2021-04-25T08:36:25Z</time>
      </trkpt>
      <trkpt lat="47.20682" lon="5.97636">
        <ele>434</ele>
        <time>2021-04-25T08:36:26Z</time>
      </trkpt>
      <trkpt lat="47.20682" lon="5.97633">
        <ele>433.4</ele>
        <time>2021-04-25T08:36:27Z</time>
      </trkpt>
      <trkpt lat="47.20681" lon="5.97628">
        <ele>432.6</ele>
        <time>2021-04-25T08:36:28Z</time>
      </trkpt>
      <trkpt lat="47.20677" lon="5.97609">
        <ele>431.4</ele>
        <time>2021-04-25T08:36:31Z</time>
      </trkpt>
      <trkpt lat="47.20673" lon="5.97597">
        <ele>430</ele>
        <time>2021-04-25T08:36:33Z</time>
      </trkpt>
      <trkpt lat="47.20672" lon="5.97593">
        <ele>429.4</ele>
        <time>2021-04-25T08:36:34Z</time>
      </trkpt>
      <trkpt lat="47.20672" lon="5.9759">
        <ele>428</ele>
        <time>2021-04-25T08:36:35Z</time>
      </trkpt>
      <trkpt lat="47.20671" lon="5.97586">
        <ele>427.4</ele>
        <time>2021-04-25T08:36:36Z</time>
      </trkpt>
      <trkpt lat="47.2067" lon="5.97583">
        <ele>426.4</ele>
        <time>2021-04-25T08:36:37Z</time>
      </trkpt>
      <trkpt lat="47.2067" lon="5.9758">
        <ele>425.8</ele>
        <time>2021-04-25T08:36:38Z</time>
      </trkpt>
      <trkpt lat="47.20669" lon="5.97579">
        <ele>425.6</ele>
        <time>2021-04-25T08:36:39Z</time>
      </trkpt>
      <trkpt lat="47.20667" lon="5.97576">
        <ele>425</ele>
        <time>2021-04-25T08:36:40Z</time>
      </trkpt>
      <trkpt lat="47.20665" lon="5.9757">
        <ele>425</ele>
        <time>2021-04-25T08:36:41Z</time>
      </trkpt>
      <trkpt lat="47.20664" lon="5.9756">
        <ele>423.8</ele>
        <time>2021-04-25T08:36:43Z</time>
      </trkpt>
      <trkpt lat="47.20663" lon="5.97555">
        <ele>423</ele>
        <time>2021-04-25T08:36:44Z</time>
      </trkpt>
      <trkpt lat="47.20663" lon="5.97551">
        <ele>422.4</ele>
        <time>2021-04-25T08:36:45Z</time>
      </trkpt>
      <trkpt lat="47.20661" lon="5.97545">
        <ele>422.2</ele>
        <time>2021-04-25T08:36:46Z</time>
      </trkpt>
      <trkpt lat="47.20657" lon="5.9754">
        <ele>421.2</ele>
        <time>2021-04-25T08:36:47Z</time>
      </trkpt>
      <trkpt lat="47.20655" lon="5.97535">
        <ele>420.8</ele>
        <time>2021-04-25T08:36:48Z</time>
      </trkpt>
      <trkpt lat="47.20656" lon="5.97527">
        <ele>420</ele>
        <time>2021-04-25T08:36:50Z</time>
      </trkpt>
      <trkpt lat="47.20657" lon="5.97516">
        <ele>419.6</ele>
        <time>2021-04-25T08:36:51Z</time>
      </trkpt>
      <trkpt lat="47.20655" lon="5.97502">
        <ele>418.6</ele>
        <time>2021-04-25T08:36:53Z</time>
      </trkpt>
      <trkpt lat="47.20654" lon="5.97487">
        <ele>417.6</ele>
        <time>2021-04-25T08:36:55Z</time>
      </trkpt>
      <trkpt lat="47.20653" lon="5.97478">
        <ele>415.6</ele>
        <time>2021-04-25T08:36:56Z</time>
      </trkpt>
      <trkpt lat="47.20652" lon="5.97469">
        <ele>414.6</ele>
        <time>2021-04-25T08:36:57Z</time>
      </trkpt>
      <trkpt lat="47.2065" lon="5.97462">
        <ele>412.6</ele>
        <time>2021-04-25T08:36:58Z</time>
      </trkpt>
      <trkpt lat="47.20648" lon="5.97457">
        <ele>412</ele>
        <time>2021-04-25T08:36:59Z</time>
      </trkpt>
      <trkpt lat="47.20647" lon="5.97454">
        <ele>410.2</ele>
        <time>2021-04-25T08:37:00Z</time>
      </trkpt>
      <trkpt lat="47.20646" lon="5.97453">
        <ele>409</ele>
        <time>2021-04-25T08:37:01Z</time>
      </trkpt>
      <trkpt lat="47.20646" lon="5.97453">
        <ele>408.4</ele>
        <time>2021-04-25T08:37:02Z</time>
      </trkpt>
      <trkpt lat="47.20645" lon="5.9745">
        <ele>407.6</ele>
        <time>2021-04-25T08:37:03Z</time>
      </trkpt>
      <trkpt lat="47.20644" lon="5.97448">
        <ele>407.2</ele>
        <time>2021-04-25T08:37:04Z</time>
      </trkpt>
      <trkpt lat="47.20642" lon="5.97446">
        <ele>406.2</ele>
        <time>2021-04-25T08:37:05Z</time>
      </trkpt>
      <trkpt lat="47.20636" lon="5.9743">
        <ele>405</ele>
        <time>2021-04-25T08:37:08Z</time>
      </trkpt>
      <trkpt lat="47.20634" lon="5.97425">
        <ele>404.8</ele>
        <time>2021-04-25T08:37:09Z</time>
      </trkpt>
      <trkpt lat="47.20622" lon="5.97408">
        <ele>403.6</ele>
        <time>2021-04-25T08:37:11Z</time>
      </trkpt>
      <trkpt lat="47.20616" lon="5.97398">
        <ele>402.4</ele>
        <time>2021-04-25T08:37:12Z</time>
      </trkpt>
      <trkpt lat="47.20611" lon="5.9739">
        <ele>402</ele>
        <time>2021-04-25T08:37:13Z</time>
      </trkpt>
      <trkpt lat="47.20602" lon="5.97369">
        <ele>400.8</ele>
        <time>2021-04-25T08:37:15Z</time>
      </trkpt>
      <trkpt lat="47.20595" lon="5.97351">
        <ele>399.4</ele>
        <time>2021-04-25T08:37:17Z</time>
      </trkpt>
      <trkpt lat="47.20592" lon="5.97344">
        <ele>398.4</ele>
        <time>2021-04-25T08:37:18Z</time>
      </trkpt>
      <trkpt lat="47.20587" lon="5.97336">
        <ele>397.4</ele>
        <time>2021-04-25T08:37:19Z</time>
      </trkpt>
      <trkpt lat="47.20583" lon="5.9733">
        <ele>396.4</ele>
        <time>2021-04-25T08:37:20Z</time>
      </trkpt>
      <trkpt lat="47.2058" lon="5.97326">
        <ele>395.4</ele>
        <time>2021-04-25T08:37:21Z</time>
      </trkpt>
      <trkpt lat="47.20578" lon="5.97323">
        <ele>395</ele>
        <time>2021-04-25T08:37:22Z</time>
      </trkpt>
      <trkpt lat="47.20577" lon="5.97319">
        <ele>394.4</ele>
        <time>2021-04-25T08:37:23Z</time>
      </trkpt>
      <trkpt lat="47.20576" lon="5.97315">
        <ele>394.2</ele>
        <time>2021-04-25T08:37:24Z</time>
      </trkpt>
      <trkpt lat="47.20574" lon="5.97311">
        <ele>393.4</ele>
        <time>2021-04-25T08:37:25Z</time>
      </trkpt>
      <trkpt lat="47.20574" lon="5.97308">
        <ele>392.8</ele>
        <time>2021-04-25T08:37:26Z</time>
      </trkpt>
      <trkpt lat="47.20574" lon="5.97305">
        <ele>392.6</ele>
        <time>2021-04-25T08:37:27Z</time>
      </trkpt>
      <trkpt lat="47.20575" lon="5.97304">
        <ele>391.8</ele>
        <time>2021-04-25T08:37:28Z</time>
      </trkpt>
      <trkpt lat="47.20576" lon="5.97302">
        <ele>391.4</ele>
        <time>2021-04-25T08:37:29Z</time>
      </trkpt>
      <trkpt lat="47.20576" lon="5.97299">
        <ele>390.8</ele>
        <time>2021-04-25T08:37:30Z</time>
      </trkpt>
      <trkpt lat="47.20576" lon="5.97297">
        <ele>390.4</ele>
        <time>2021-04-25T08:37:31Z</time>
      </trkpt>
      <trkpt lat="47.20576" lon="5.97294">
        <ele>390</ele>
        <time>2021-04-25T08:37:32Z</time>
      </trkpt>
      <trkpt lat="47.20575" lon="5.9729">
        <ele>389.8</ele>
        <time>2021-04-25T08:37:33Z</time>
      </trkpt>
      <trkpt lat="47.20572" lon="5.97286">
        <ele>389.2</ele>
        <time>2021-04-25T08:37:34Z</time>
      </trkpt>
      <trkpt lat="47.20569" lon="5.97282">
        <ele>388.6</ele>
        <time>2021-04-25T08:37:35Z</time>
      </trkpt>
      <trkpt lat="47.20566" lon="5.97278">
        <ele>388.2</ele>
        <time>2021-04-25T08:37:36Z</time>
      </trkpt>
      <trkpt lat="47.20563" lon="5.9727">
        <ele>387</ele>
        <time>2021-04-25T08:37:37Z</time>
      </trkpt>
      <trkpt lat="47.20557" lon="5.97257">
        <ele>385.6</ele>
        <time>2021-04-25T08:37:39Z</time>
      </trkpt>
      <trkpt lat="47.20555" lon="5.97251">
        <ele>385.2</ele>
        <time>2021-04-25T08:37:40Z</time>
      </trkpt>
      <trkpt lat="47.20553" lon="5.97246">
        <ele>383.6</ele>
        <time>2021-04-25T08:37:41Z</time>
      </trkpt>
      <trkpt lat="47.2055" lon="5.9724">
        <ele>383</ele>
        <time>2021-04-25T08:37:42Z</time>
      </trkpt>
      <trkpt lat="47.20548" lon="5.97235">
        <ele>382</ele>
        <time>2021-04-25T08:37:43Z</time>
      </trkpt>
      <trkpt lat="47.20548" lon="5.97231">
        <ele>381.4</ele>
        <time>2021-04-25T08:37:44Z</time>
      </trkpt>
      <trkpt lat="47.20546" lon="5.97227">
        <ele>380.8</ele>
        <time>2021-04-25T08:37:45Z</time>
      </trkpt>
      <trkpt lat="47.20544" lon="5.97222">
        <ele>379.4</ele>
        <time>2021-04-25T08:37:46Z</time>
      </trkpt>
      <trkpt lat="47.2054" lon="5.97216">
        <ele>378.4</ele>
        <time>2021-04-25T08:37:47Z</time>
      </trkpt>
      <trkpt lat="47.20538" lon="5.97209">
        <ele>376.8</ele>
        <time>2021-04-25T08:37:48Z</time>
      </trkpt>
      <trkpt lat="47.20534" lon="5.97197">
        <ele>374.8</ele>
        <time>2021-04-25T08:37:50Z</time>
      </trkpt>
      <trkpt lat="47.2053" lon="5.9719">
        <ele>373.2</ele>
        <time>2021-04-25T08:37:51Z</time>
      </trkpt>
      <trkpt lat="47.20523" lon="5.97176">
        <ele>371.4</ele>
        <time>2021-04-25T08:37:53Z</time>
      </trkpt>
      <trkpt lat="47.20519" lon="5.97163">
        <ele>369.6</ele>
        <time>2021-04-25T08:37:55Z</time>
      </trkpt>
      <trkpt lat="47.20517" lon="5.97159">
        <ele>368.4</ele>
        <time>2021-04-25T08:37:56Z</time>
      </trkpt>
      <trkpt lat="47.20514" lon="5.97152">
        <ele>366.8</ele>
        <time>2021-04-25T08:37:57Z</time>
      </trkpt>
      <trkpt lat="47.2051" lon="5.97146">
        <ele>366.2</ele>
        <time>2021-04-25T08:37:58Z</time>
      </trkpt>
      <trkpt lat="47.20507" lon="5.97139">
        <ele>364.8</ele>
        <time>2021-04-25T08:37:59Z</time>
      </trkpt>
      <trkpt lat="47.20504" lon="5.97133">
        <ele>363</ele>
        <time>2021-04-25T08:38:00Z</time>
      </trkpt>
      <trkpt lat="47.20495" lon="5.9712">
        <ele>360</ele>
        <time>2021-04-25T08:38:02Z</time>
      </trkpt>
      <trkpt lat="47.20494" lon="5.97114">
        <ele>359</ele>
        <time>2021-04-25T08:38:03Z</time>
      </trkpt>
      <trkpt lat="47.20492" lon="5.97109">
        <ele>357.8</ele>
        <time>2021-04-25T08:38:04Z</time>
      </trkpt>
      <trkpt lat="47.2049" lon="5.97106">
        <ele>357.2</ele>
        <time>2021-04-25T08:38:05Z</time>
      </trkpt>
      <trkpt lat="47.20487" lon="5.97101">
        <ele>356.2</ele>
        <time>2021-04-25T08:38:06Z</time>
      </trkpt>
      <trkpt lat="47.20483" lon="5.97095">
        <ele>355.2</ele>
        <time>2021-04-25T08:38:07Z</time>
      </trkpt>
      <trkpt lat="47.2048" lon="5.97091">
        <ele>354</ele>
        <time>2021-04-25T08:38:08Z</time>
      </trkpt>
      <trkpt lat="47.20477" lon="5.97086">
        <ele>353.2</ele>
        <time>2021-04-25T08:38:09Z</time>
      </trkpt>
      <trkpt lat="47.20475" lon="5.97082">
        <ele>352.8</ele>
        <time>2021-04-25T08:38:10Z</time>
      </trkpt>
      <trkpt lat="47.20472" lon="5.97078">
        <ele>351</ele>
        <time>2021-04-25T08:38:11Z</time>
      </trkpt>
      <trkpt lat="47.2047" lon="5.97075">
        <ele>350.2</ele>
        <time>2021-04-25T08:38:12Z</time>
      </trkpt>
      <trkpt lat="47.20468" lon="5.97071">
        <ele>349.2</ele>
        <time>2021-04-25T08:38:13Z</time>
      </trkpt>
      <trkpt lat="47.20466" lon="5.97069">
        <ele>348.6</ele>
        <time>2021-04-25T08:38:14Z</time>
      </trkpt>
      <trkpt lat="47.20465" lon="5.97065">
        <ele>347.4</ele>
        <time>2021-04-25T08:38:15Z</time>
      </trkpt>
      <trkpt lat="47.20461" lon="5.97061">
        <ele>346.8</ele>
        <time>2021-04-25T08:38:16Z</time>
      </trkpt>
      <trkpt lat="47.20458" lon="5.97057">
        <ele>346.2</ele>
        <time>2021-04-25T08:38:17Z</time>
      </trkpt>
      <trkpt lat="47.20454" lon="5.97052">
        <ele>345.2</ele>
        <time>2021-04-25T08:38:18Z</time>
      </trkpt>
      <trkpt lat="47.20451" lon="5.97049">
        <ele>344.8</ele>
        <time>2021-04-25T08:38:19Z</time>
      </trkpt>
      <trkpt lat="47.20448" lon="5.97047">
        <ele>343.4</ele>
        <time>2021-04-25T08:38:20Z</time>
      </trkpt>
      <trkpt lat="47.20445" lon="5.97045">
        <ele>342.6</ele>
        <time>2021-04-25T08:38:21Z</time>
      </trkpt>
      <trkpt lat="47.20442" lon="5.97042">
        <ele>341.2</ele>
        <time>2021-04-25T08:38:22Z</time>
      </trkpt>
      <trkpt lat="47.20439" lon="5.97039">
        <ele>340.6</ele>
        <time>2021-04-25T08:38:23Z</time>
      </trkpt>
      <trkpt lat="47.20436" lon="5.97038">
        <ele>339.6</ele>
        <time>2021-04-25T08:38:24Z</time>
      </trkpt>
      <trkpt lat="47.20431" lon="5.97034">
        <ele>338.2</ele>
        <time>2021-04-25T08:38:25Z</time>
      </trkpt>
      <trkpt lat="47.20428" lon="5.97031">
        <ele>337.8</ele>
        <time>2021-04-25T08:38:26Z</time>
      </trkpt>
      <trkpt lat="47.20427" lon="5.97029">
        <ele>336.8</ele>
        <time>2021-04-25T08:38:27Z</time>
      </trkpt>
      <trkpt lat="47.20426" lon="5.97028">
        <ele>336.6</ele>
        <time>2021-04-25T08:38:28Z</time>
      </trkpt>
      <trkpt lat="47.20425" lon="5.97028">
        <ele>336.2</ele>
        <time>2021-04-25T08:38:29Z</time>
      </trkpt>
      <trkpt lat="47.20425" lon="5.97028">
        <ele>335.8</ele>
        <time>2021-04-25T08:38:30Z</time>
      </trkpt>
      <trkpt lat="47.20425" lon="5.97028">
        <ele>334.4</ele>
        <time>2021-04-25T08:38:32Z</time>
      </trkpt>
      <trkpt lat="47.20425" lon="5.97028">
        <ele>333.4</ele>
        <time>2021-04-25T08:38:35Z</time>
      </trkpt>
      <trkpt lat="47.20425" lon="5.97028">
        <ele>333.2</ele>
        <time>2021-04-25T08:38:36Z</time>
      </trkpt>
      <trkpt lat="47.20425" lon="5.97028">
        <ele>333</ele>
        <time>2021-04-25T08:38:46Z</time>
      </trkpt>
      <trkpt lat="47.20421" lon="5.97023">
        <ele>333</ele>
        <time>2021-04-25T08:38:48Z</time>
      </trkpt>
      <trkpt lat="47.20409" lon="5.9701">
        <ele>332.4</ele>
        <time>2021-04-25T08:38:51Z</time>
      </trkpt>
      <trkpt lat="47.20401" lon="5.97003">
        <ele>332</ele>
        <time>2021-04-25T08:38:53Z</time>
      </trkpt>
      <trkpt lat="47.20398" lon="5.96999">
        <ele>331</ele>
        <time>2021-04-25T08:38:54Z</time>
      </trkpt>
      <trkpt lat="47.20395" lon="5.96996">
        <ele>330.8</ele>
        <time>2021-04-25T08:38:55Z</time>
      </trkpt>
      <trkpt lat="47.20387" lon="5.96986">
        <ele>329.6</ele>
        <time>2021-04-25T08:38:57Z</time>
      </trkpt>
      <trkpt lat="47.20379" lon="5.96977">
        <ele>328.6</ele>
        <time>2021-04-25T08:38:59Z</time>
      </trkpt>
      <trkpt lat="47.20375" lon="5.96974">
        <ele>327.2</ele>
        <time>2021-04-25T08:39:00Z</time>
      </trkpt>
      <trkpt lat="47.20372" lon="5.96972">
        <ele>326.2</ele>
        <time>2021-04-25T08:39:01Z</time>
      </trkpt>
      <trkpt lat="47.20368" lon="5.96968">
        <ele>325.6</ele>
        <time>2021-04-25T08:39:02Z</time>
      </trkpt>
      <trkpt lat="47.20363" lon="5.96963">
        <ele>324</ele>
        <time>2021-04-25T08:39:03Z</time>
      </trkpt>
      <trkpt lat="47.20358" lon="5.96957">
        <ele>322.4</ele>
        <time>2021-04-25T08:39:05Z</time>
      </trkpt>
      <trkpt lat="47.20357" lon="5.96956">
        <ele>321.6</ele>
        <time>2021-04-25T08:39:06Z</time>
      </trkpt>
      <trkpt lat="47.20356" lon="5.96954">
        <ele>320.4</ele>
        <time>2021-04-25T08:39:07Z</time>
      </trkpt>
      <trkpt lat="47.20355" lon="5.9695">
        <ele>319.2</ele>
        <time>2021-04-25T08:39:08Z</time>
      </trkpt>
      <trkpt lat="47.20349" lon="5.96938">
        <ele>317.2</ele>
        <time>2021-04-25T08:39:10Z</time>
      </trkpt>
      <trkpt lat="47.20346" lon="5.96932">
        <ele>316.6</ele>
        <time>2021-04-25T08:39:11Z</time>
      </trkpt>
      <trkpt lat="47.20343" lon="5.96926">
        <ele>315.6</ele>
        <time>2021-04-25T08:39:12Z</time>
      </trkpt>
      <trkpt lat="47.20338" lon="5.96917">
        <ele>313.6</ele>
        <time>2021-04-25T08:39:14Z</time>
      </trkpt>
      <trkpt lat="47.20336" lon="5.96909">
        <ele>311.6</ele>
        <time>2021-04-25T08:39:16Z</time>
      </trkpt>
      <trkpt lat="47.2033" lon="5.96898">
        <ele>310.2</ele>
        <time>2021-04-25T08:39:18Z</time>
      </trkpt>
      <trkpt lat="47.20325" lon="5.9689">
        <ele>309.2</ele>
        <time>2021-04-25T08:39:19Z</time>
      </trkpt>
      <trkpt lat="47.20317" lon="5.96877">
        <ele>307</ele>
        <time>2021-04-25T08:39:21Z</time>
      </trkpt>
      <trkpt lat="47.20315" lon="5.96872">
        <ele>306.6</ele>
        <time>2021-04-25T08:39:22Z</time>
      </trkpt>
      <trkpt lat="47.20313" lon="5.96867">
        <ele>305.4</ele>
        <time>2021-04-25T08:39:23Z</time>
      </trkpt>
      <trkpt lat="47.20313" lon="5.96862">
        <ele>304.6</ele>
        <time>2021-04-25T08:39:24Z</time>
      </trkpt>
      <trkpt lat="47.20313" lon="5.9686">
        <ele>303.4</ele>
        <time>2021-04-25T08:39:25Z</time>
      </trkpt>
      <trkpt lat="47.20312" lon="5.96855">
        <ele>301.2</ele>
        <time>2021-04-25T08:39:26Z</time>
      </trkpt>
      <trkpt lat="47.2031" lon="5.9685">
        <ele>300</ele>
        <time>2021-04-25T08:39:27Z</time>
      </trkpt>
      <trkpt lat="47.20309" lon="5.96844">
        <ele>298.8</ele>
        <time>2021-04-25T08:39:28Z</time>
      </trkpt>
      <trkpt lat="47.20308" lon="5.96839">
        <ele>298.4</ele>
        <time>2021-04-25T08:39:29Z</time>
      </trkpt>
      <trkpt lat="47.20306" lon="5.96834">
        <ele>297.2</ele>
        <time>2021-04-25T08:39:30Z</time>
      </trkpt>
      <trkpt lat="47.20302" lon="5.96828">
        <ele>296.6</ele>
        <time>2021-04-25T08:39:31Z</time>
      </trkpt>
      <trkpt lat="47.20299" lon="5.96823">
        <ele>295.8</ele>
        <time>2021-04-25T08:39:32Z</time>
      </trkpt>
      <trkpt lat="47.20296" lon="5.96818">
        <ele>295.6</ele>
        <time>2021-04-25T08:39:33Z</time>
      </trkpt>
      <trkpt lat="47.20294" lon="5.96813">
        <ele>293.8</ele>
        <time>2021-04-25T08:39:34Z</time>
      </trkpt>
      <trkpt lat="47.20292" lon="5.96808">
        <ele>292.2</ele>
        <time>2021-04-25T08:39:35Z</time>
      </trkpt>
      <trkpt lat="47.2029" lon="5.96802">
        <ele>291.6</ele>
        <time>2021-04-25T08:39:36Z</time>
      </trkpt>
      <trkpt lat="47.20289" lon="5.96796">
        <ele>290.8</ele>
        <time>2021-04-25T08:39:37Z</time>
      </trkpt>
      <trkpt lat="47.20289" lon="5.96791">
        <ele>290.2</ele>
        <time>2021-04-25T08:39:38Z</time>
      </trkpt>
      <trkpt lat="47.20289" lon="5.96785">
        <ele>289.4</ele>
        <time>2021-04-25T08:39:39Z</time>
      </trkpt>
      <trkpt lat="47.20286" lon="5.9677">
        <ele>288</ele>
        <time>2021-04-25T08:39:41Z</time>
      </trkpt>
      <trkpt lat="47.20283" lon="5.96757">
        <ele>286.8</ele>
        <time>2021-04-25T08:39:43Z</time>
      </trkpt>
      <trkpt lat="47.20282" lon="5.96747">
        <ele>285.2</ele>
        <time>2021-04-25T08:39:44Z</time>
      </trkpt>
      <trkpt lat="47.2028" lon="5.96738">
        <ele>284.8</ele>
        <time>2021-04-25T08:39:45Z</time>
      </trkpt>
      <trkpt lat="47.20279" lon="5.96731">
        <ele>284</ele>
        <time>2021-04-25T08:39:46Z</time>
      </trkpt>
      <trkpt lat="47.20277" lon="5.96726">
        <ele>283.8</ele>
        <time>2021-04-25T08:39:47Z</time>
      </trkpt>
      <trkpt lat="47.20276" lon="5.96717">
        <ele>282.6</ele>
        <time>2021-04-25T08:39:48Z</time>
      </trkpt>
      <trkpt lat="47.20275" lon="5.96712">
        <ele>281.4</ele>
        <time>2021-04-25T08:39:49Z</time>
      </trkpt>
      <trkpt lat="47.20274" lon="5.96708">
        <ele>280</ele>
        <time>2021-04-25T08:39:50Z</time>
      </trkpt>
      <trkpt lat="47.20273" lon="5.96704">
        <ele>278.8</ele>
        <time>2021-04-25T08:39:51Z</time>
      </trkpt>
      <trkpt lat="47.20273" lon="5.967">
        <ele>277.6</ele>
        <time>2021-04-25T08:39:52Z</time>
      </trkpt>
      <trkpt lat="47.20272" lon="5.96696">
        <ele>276.8</ele>
        <time>2021-04-25T08:39:53Z</time>
      </trkpt>
      <trkpt lat="47.20272" lon="5.96692">
        <ele>276.4</ele>
        <time>2021-04-25T08:39:54Z</time>
      </trkpt>
      <trkpt lat="47.20271" lon="5.96687">
        <ele>276</ele>
        <time>2021-04-25T08:39:55Z</time>
      </trkpt>
      <trkpt lat="47.2027" lon="5.9668">
        <ele>274.6</ele>
        <time>2021-04-25T08:39:57Z</time>
      </trkpt>
      <trkpt lat="47.20268" lon="5.96671">
        <ele>273.6</ele>
        <time>2021-04-25T08:39:59Z</time>
      </trkpt>
      <trkpt lat="47.20267" lon="5.96667">
        <ele>273.2</ele>
        <time>2021-04-25T08:40:00Z</time>
      </trkpt>
      <trkpt lat="47.20266" lon="5.96664">
        <ele>272.4</ele>
        <time>2021-04-25T08:40:01Z</time>
      </trkpt>
      <trkpt lat="47.20265" lon="5.96661">
        <ele>271.4</ele>
        <time>2021-04-25T08:40:02Z</time>
      </trkpt>
      <trkpt lat="47.20264" lon="5.96656">
        <ele>271</ele>
        <time>2021-04-25T08:40:03Z</time>
      </trkpt>
      <trkpt lat="47.20263" lon="5.96653">
        <ele>270.4</ele>
        <time>2021-04-25T08:40:04Z</time>
      </trkpt>
      <trkpt lat="47.20263" lon="5.96653">
        <ele>270</ele>
        <time>2021-04-25T08:40:05Z</time>
      </trkpt>
      <trkpt lat="47.20263" lon="5.96652">
        <ele>269.4</ele>
        <time>2021-04-25T08:40:06Z</time>
      </trkpt>
      <trkpt lat="47.20263" lon="5.96652">
        <ele>269.2</ele>
        <time>2021-04-25T08:40:07Z</time>
      </trkpt>
      <trkpt lat="47.20263" lon="5.96652">
        <ele>268.2</ele>
        <time>2021-04-25T08:40:09Z</time>
      </trkpt>
      <trkpt lat="47.20263" lon="5.96652">
        <ele>267.6</ele>
        <time>2021-04-25T08:40:13Z</time>
      </trkpt>
      <trkpt lat="47.20263" lon="5.9664">
        <ele>267.4</ele>
        <time>2021-04-25T08:40:38Z</time>
      </trkpt>
      <trkpt lat="47.20264" lon="5.96624">
        <ele>267.2</ele>
        <time>2021-04-25T08:40:40Z</time>
      </trkpt>
      <trkpt lat="47.20263" lon="5.96615">
        <ele>267.2</ele>
        <time>2021-04-25T08:40:41Z</time>
      </trkpt>
      <trkpt lat="47.20262" lon="5.96606">
        <ele>267</ele>
        <time>2021-04-25T08:40:42Z</time>
      </trkpt>
      <trkpt lat="47.20259" lon="5.96597">
        <ele>266.8</ele>
        <time>2021-04-25T08:40:43Z</time>
      </trkpt>
      <trkpt lat="47.20255" lon="5.96589">
        <ele>265.8</ele>
        <time>2021-04-25T08:40:44Z</time>
      </trkpt>
      <trkpt lat="47.2025" lon="5.96582">
        <ele>265.4</ele>
        <time>2021-04-25T08:40:45Z</time>
      </trkpt>
      <trkpt lat="47.20245" lon="5.96576">
        <ele>264</ele>
        <time>2021-04-25T08:40:46Z</time>
      </trkpt>
      <trkpt lat="47.2024" lon="5.9657">
        <ele>262.6</ele>
        <time>2021-04-25T08:40:47Z</time>
      </trkpt>
      <trkpt lat="47.20232" lon="5.96558">
        <ele>261</ele>
        <time>2021-04-25T08:40:49Z</time>
      </trkpt>
      <trkpt lat="47.20223" lon="5.96548">
        <ele>259.2</ele>
        <time>2021-04-25T08:40:51Z</time>
      </trkpt>
      <trkpt lat="47.20219" lon="5.96544">
        <ele>258.4</ele>
        <time>2021-04-25T08:40:52Z</time>
      </trkpt>
      <trkpt lat="47.20216" lon="5.9654">
        <ele>257.2</ele>
        <time>2021-04-25T08:40:53Z</time>
      </trkpt>
      <trkpt lat="47.20213" lon="5.96533">
        <ele>256.4</ele>
        <time>2021-04-25T08:40:54Z</time>
      </trkpt>
      <trkpt lat="47.20211" lon="5.96526">
        <ele>255</ele>
        <time>2021-04-25T08:40:55Z</time>
      </trkpt>
      <trkpt lat="47.20211" lon="5.96519">
        <ele>254</ele>
        <time>2021-04-25T08:40:56Z</time>
      </trkpt>
      <trkpt lat="47.20211" lon="5.96512">
        <ele>253.6</ele>
        <time>2021-04-25T08:40:57Z</time>
      </trkpt>
      <trkpt lat="47.20211" lon="5.96505">
        <ele>252.8</ele>
        <time>2021-04-25T08:40:58Z</time>
      </trkpt>
      <trkpt lat="47.20212" lon="5.96499">
        <ele>252.4</ele>
        <time>2021-04-25T08:40:59Z</time>
      </trkpt>
      <trkpt lat="47.20213" lon="5.96494">
        <ele>251.8</ele>
        <time>2021-04-25T08:41:00Z</time>
      </trkpt>
      <trkpt lat="47.20214" lon="5.96491">
        <ele>251.4</ele>
        <time>2021-04-25T08:41:01Z</time>
      </trkpt>
      <trkpt lat="47.20215" lon="5.96488">
        <ele>251</ele>
        <time>2021-04-25T08:41:02Z</time>
      </trkpt>
      <trkpt lat="47.20215" lon="5.96487">
        <ele>250.8</ele>
        <time>2021-04-25T08:41:03Z</time>
      </trkpt>
      <trkpt lat="47.20215" lon="5.96487">
        <ele>250.6</ele>
        <time>2021-04-25T08:41:04Z</time>
      </trkpt>
      <trkpt lat="47.20215" lon="5.96487">
        <ele>250</ele>
        <time>2021-04-25T08:41:07Z</time>
      </trkpt>
      <trkpt lat="47.20215" lon="5.96487">
        <ele>249.4</ele>
        <time>2021-04-25T08:41:12Z</time>
      </trkpt>
      <trkpt lat="47.20213" lon="5.9648">
        <ele>249.4</ele>
        <time>2021-04-25T08:41:18Z</time>
      </trkpt>
      <trkpt lat="47.20211" lon="5.96478">
        <ele>249.4</ele>
        <time>2021-04-25T08:41:19Z</time>
      </trkpt>
      <trkpt lat="47.20205" lon="5.96473">
        <ele>249.4</ele>
        <time>2021-04-25T08:41:21Z</time>
      </trkpt>
      <trkpt lat="47.20202" lon="5.9647">
        <ele>249.2</ele>
        <time>2021-04-25T08:41:22Z</time>
      </trkpt>
      <trkpt lat="47.20195" lon="5.96465">
        <ele>249</ele>
        <time>2021-04-25T08:41:24Z</time>
      </trkpt>
      <trkpt lat="47.20186" lon="5.9646">
        <ele>248.8</ele>
        <time>2021-04-25T08:41:26Z</time>
      </trkpt>
      <trkpt lat="47.20173" lon="5.96452">
        <ele>248.2</ele>
        <time>2021-04-25T08:41:29Z</time>
      </trkpt>
      <trkpt lat="47.20152" lon="5.96443">
        <ele>247.8</ele>
        <time>2021-04-25T08:41:33Z</time>
      </trkpt>
      <trkpt lat="47.2014" lon="5.96435">
        <ele>247.2</ele>
        <time>2021-04-25T08:41:35Z</time>
      </trkpt>
      <trkpt lat="47.20136" lon="5.9643">
        <ele>247</ele>
        <time>2021-04-25T08:41:36Z</time>
      </trkpt>
      <trkpt lat="47.20134" lon="5.96423">
        <ele>246.8</ele>
        <time>2021-04-25T08:41:37Z</time>
      </trkpt>
      <trkpt lat="47.20134" lon="5.96416">
        <ele>246.4</ele>
        <time>2021-04-25T08:41:38Z</time>
      </trkpt>
      <trkpt lat="47.20134" lon="5.96407">
        <ele>246.2</ele>
        <time>2021-04-25T08:41:39Z</time>
      </trkpt>
      <trkpt lat="47.20134" lon="5.96398">
        <ele>245.8</ele>
        <time>2021-04-25T08:41:40Z</time>
      </trkpt>
      <trkpt lat="47.20135" lon="5.96389">
        <ele>245.2</ele>
        <time>2021-04-25T08:41:41Z</time>
      </trkpt>
      <trkpt lat="47.20141" lon="5.96363">
        <ele>244.6</ele>
        <time>2021-04-25T08:41:44Z</time>
      </trkpt>
      <trkpt lat="47.20147" lon="5.96338">
        <ele>243.2</ele>
        <time>2021-04-25T08:41:47Z</time>
      </trkpt>
      <trkpt lat="47.20156" lon="5.96286">
        <ele>242.2</ele>
        <time>2021-04-25T08:41:53Z</time>
      </trkpt>
      <trkpt lat="47.20157" lon="5.96279">
        <ele>242</ele>
        <time>2021-04-25T08:41:54Z</time>
      </trkpt>
      <trkpt lat="47.20159" lon="5.96262">
        <ele>241.8</ele>
        <time>2021-04-25T08:41:56Z</time>
      </trkpt>
      <trkpt lat="47.20158" lon="5.96254">
        <ele>241.6</ele>
        <time>2021-04-25T08:41:57Z</time>
      </trkpt>
      <trkpt lat="47.20155" lon="5.9625">
        <ele>241.6</ele>
        <time>2021-04-25T08:41:58Z</time>
      </trkpt>
      <trkpt lat="47.20151" lon="5.96246">
        <ele>241.6</ele>
        <time>2021-04-25T08:41:59Z</time>
      </trkpt>
      <trkpt lat="47.20145" lon="5.96245">
        <ele>241.4</ele>
        <time>2021-04-25T08:42:00Z</time>
      </trkpt>
      <trkpt lat="47.2014" lon="5.96243">
        <ele>241.4</ele>
        <time>2021-04-25T08:42:01Z</time>
      </trkpt>
      <trkpt lat="47.20135" lon="5.96241">
        <ele>241.4</ele>
        <time>2021-04-25T08:42:02Z</time>
      </trkpt>
      <trkpt lat="47.2013" lon="5.96239">
        <ele>241.4</ele>
        <time>2021-04-25T08:42:03Z</time>
      </trkpt>
      <trkpt lat="47.20126" lon="5.96238">
        <ele>241.4</ele>
        <time>2021-04-25T08:42:04Z</time>
      </trkpt>
      <trkpt lat="47.20121" lon="5.96237">
        <ele>241.4</ele>
        <time>2021-04-25T08:42:05Z</time>
      </trkpt>
      <trkpt lat="47.2009" lon="5.96235">
        <ele>241.6</ele>
        <time>2021-04-25T08:42:11Z</time>
      </trkpt>
      <trkpt lat="47.20085" lon="5.96233">
        <ele>241.6</ele>
        <time>2021-04-25T08:42:12Z</time>
      </trkpt>
      <trkpt lat="47.2008" lon="5.96233">
        <ele>241.6</ele>
        <time>2021-04-25T08:42:13Z</time>
      </trkpt>
      <trkpt lat="47.2006" lon="5.96232">
        <ele>241.8</ele>
        <time>2021-04-25T08:42:17Z</time>
      </trkpt>
      <trkpt lat="47.20054" lon="5.96231">
        <ele>242</ele>
        <time>2021-04-25T08:42:18Z</time>
      </trkpt>
      <trkpt lat="47.20045" lon="5.96229">
        <ele>242</ele>
        <time>2021-04-25T08:42:20Z</time>
      </trkpt>
      <trkpt lat="47.20041" lon="5.96229">
        <ele>242</ele>
        <time>2021-04-25T08:42:21Z</time>
      </trkpt>
      <trkpt lat="47.20039" lon="5.96231">
        <ele>242</ele>
        <time>2021-04-25T08:42:22Z</time>
      </trkpt>
      <trkpt lat="47.20038" lon="5.96233">
        <ele>242</ele>
        <time>2021-04-25T08:42:23Z</time>
      </trkpt>
      <trkpt lat="47.20037" lon="5.96234">
        <ele>242</ele>
        <time>2021-04-25T08:42:24Z</time>
      </trkpt>
      <trkpt lat="47.20034" lon="5.96234">
        <ele>242.2</ele>
        <time>2021-04-25T08:42:25Z</time>
      </trkpt>
      <trkpt lat="47.20031" lon="5.96234">
        <ele>242.4</ele>
        <time>2021-04-25T08:42:26Z</time>
      </trkpt>
      <trkpt lat="47.20028" lon="5.96234">
        <ele>242.4</ele>
        <time>2021-04-25T08:42:27Z</time>
      </trkpt>
      <trkpt lat="47.20024" lon="5.96234">
        <ele>242.6</ele>
        <time>2021-04-25T08:42:28Z</time>
      </trkpt>
      <trkpt lat="47.20007" lon="5.96234">
        <ele>243</ele>
        <time>2021-04-25T08:42:32Z</time>
      </trkpt>
      <trkpt lat="47.19983" lon="5.96233">
        <ele>243.2</ele>
        <time>2021-04-25T08:42:37Z</time>
      </trkpt>
      <trkpt lat="47.19977" lon="5.96233">
        <ele>243.4</ele>
        <time>2021-04-25T08:42:38Z</time>
      </trkpt>
      <trkpt lat="47.19972" lon="5.96233">
        <ele>243.4</ele>
        <time>2021-04-25T08:42:39Z</time>
      </trkpt>
      <trkpt lat="47.19967" lon="5.96233">
        <ele>243.4</ele>
        <time>2021-04-25T08:42:40Z</time>
      </trkpt>
      <trkpt lat="47.19947" lon="5.96232">
        <ele>243.4</ele>
        <time>2021-04-25T08:42:44Z</time>
      </trkpt>
      <trkpt lat="47.19943" lon="5.9623">
        <ele>243.4</ele>
        <time>2021-04-25T08:42:45Z</time>
      </trkpt>
      <trkpt lat="47.1994" lon="5.96227">
        <ele>243.2</ele>
        <time>2021-04-25T08:42:46Z</time>
      </trkpt>
      <trkpt lat="47.19938" lon="5.96224">
        <ele>243.2</ele>
        <time>2021-04-25T08:42:47Z</time>
      </trkpt>
      <trkpt lat="47.19937" lon="5.96222">
        <ele>243.2</ele>
        <time>2021-04-25T08:42:48Z</time>
      </trkpt>
      <trkpt lat="47.19934" lon="5.96222">
        <ele>243.2</ele>
        <time>2021-04-25T08:42:49Z</time>
      </trkpt>
      <trkpt lat="47.19932" lon="5.96224">
        <ele>243.2</ele>
        <time>2021-04-25T08:42:50Z</time>
      </trkpt>
      <trkpt lat="47.19928" lon="5.9623">
        <ele>243</ele>
        <time>2021-04-25T08:42:52Z</time>
      </trkpt>
      <trkpt lat="47.19926" lon="5.96232">
        <ele>243</ele>
        <time>2021-04-25T08:42:53Z</time>
      </trkpt>
      <trkpt lat="47.19924" lon="5.96233">
        <ele>243</ele>
        <time>2021-04-25T08:42:54Z</time>
      </trkpt>
      <trkpt lat="47.1992" lon="5.96234">
        <ele>243</ele>
        <time>2021-04-25T08:42:55Z</time>
      </trkpt>
      <trkpt lat="47.19917" lon="5.96234">
        <ele>243</ele>
        <time>2021-04-25T08:42:56Z</time>
      </trkpt>
      <trkpt lat="47.19914" lon="5.96234">
        <ele>243.2</ele>
        <time>2021-04-25T08:42:57Z</time>
      </trkpt>
      <trkpt lat="47.1991" lon="5.96233">
        <ele>243.2</ele>
        <time>2021-04-25T08:42:58Z</time>
      </trkpt>
      <trkpt lat="47.19905" lon="5.96233">
        <ele>243.2</ele>
        <time>2021-04-25T08:42:59Z</time>
      </trkpt>
      <trkpt lat="47.19895" lon="5.96234">
        <ele>243.2</ele>
        <time>2021-04-25T08:43:01Z</time>
      </trkpt>
      <trkpt lat="47.19872" lon="5.96233">
        <ele>243</ele>
        <time>2021-04-25T08:43:05Z</time>
      </trkpt>
      <trkpt lat="47.19866" lon="5.9623">
        <ele>242.6</ele>
        <time>2021-04-25T08:43:06Z</time>
      </trkpt>
      <trkpt lat="47.1986" lon="5.96226">
        <ele>242.4</ele>
        <time>2021-04-25T08:43:07Z</time>
      </trkpt>
      <trkpt lat="47.19855" lon="5.96222">
        <ele>242</ele>
        <time>2021-04-25T08:43:08Z</time>
      </trkpt>
      <trkpt lat="47.19851" lon="5.96217">
        <ele>241.6</ele>
        <time>2021-04-25T08:43:09Z</time>
      </trkpt>
      <trkpt lat="47.19848" lon="5.96212">
        <ele>241.6</ele>
        <time>2021-04-25T08:43:10Z</time>
      </trkpt>
      <trkpt lat="47.19845" lon="5.96207">
        <ele>241.6</ele>
        <time>2021-04-25T08:43:11Z</time>
      </trkpt>
      <trkpt lat="47.19841" lon="5.96202">
        <ele>241.6</ele>
        <time>2021-04-25T08:43:12Z</time>
      </trkpt>
      <trkpt lat="47.19838" lon="5.96199">
        <ele>241.6</ele>
        <time>2021-04-25T08:43:13Z</time>
      </trkpt>
      <trkpt lat="47.19835" lon="5.96196">
        <ele>241.6</ele>
        <time>2021-04-25T08:43:14Z</time>
      </trkpt>
      <trkpt lat="47.19825" lon="5.96186">
        <ele>242</ele>
        <time>2021-04-25T08:43:17Z</time>
      </trkpt>
      <trkpt lat="47.19821" lon="5.96184">
        <ele>242.4</ele>
        <time>2021-04-25T08:43:18Z</time>
      </trkpt>
      <trkpt lat="47.19819" lon="5.96181">
        <ele>242.6</ele>
        <time>2021-04-25T08:43:19Z</time>
      </trkpt>
      <trkpt lat="47.19815" lon="5.96178">
        <ele>243</ele>
        <time>2021-04-25T08:43:20Z</time>
      </trkpt>
      <trkpt lat="47.19812" lon="5.96175">
        <ele>243</ele>
        <time>2021-04-25T08:43:21Z</time>
      </trkpt>
      <trkpt lat="47.19809" lon="5.96172">
        <ele>243.2</ele>
        <time>2021-04-25T08:43:22Z</time>
      </trkpt>
      <trkpt lat="47.19806" lon="5.9617">
        <ele>243.2</ele>
        <time>2021-04-25T08:43:23Z</time>
      </trkpt>
      <trkpt lat="47.19802" lon="5.96167">
        <ele>243.4</ele>
        <time>2021-04-25T08:43:24Z</time>
      </trkpt>
      <trkpt lat="47.19788" lon="5.96153">
        <ele>243.8</ele>
        <time>2021-04-25T08:43:28Z</time>
      </trkpt>
      <trkpt lat="47.19785" lon="5.96148">
        <ele>244</ele>
        <time>2021-04-25T08:43:29Z</time>
      </trkpt>
      <trkpt lat="47.19782" lon="5.96144">
        <ele>244</ele>
        <time>2021-04-25T08:43:30Z</time>
      </trkpt>
      <trkpt lat="47.19778" lon="5.96139">
        <ele>244</ele>
        <time>2021-04-25T08:43:31Z</time>
      </trkpt>
      <trkpt lat="47.19768" lon="5.96126">
        <ele>244.4</ele>
        <time>2021-04-25T08:43:34Z</time>
      </trkpt>
      <trkpt lat="47.19761" lon="5.96118">
        <ele>244.4</ele>
        <time>2021-04-25T08:43:36Z</time>
      </trkpt>
      <trkpt lat="47.19738" lon="5.96098">
        <ele>245</ele>
        <time>2021-04-25T08:43:42Z</time>
      </trkpt>
      <trkpt lat="47.19735" lon="5.96096">
        <ele>245.2</ele>
        <time>2021-04-25T08:43:43Z</time>
      </trkpt>
      <trkpt lat="47.19732" lon="5.96094">
        <ele>245.4</ele>
        <time>2021-04-25T08:43:44Z</time>
      </trkpt>
      <trkpt lat="47.19728" lon="5.96091">
        <ele>245.4</ele>
        <time>2021-04-25T08:43:45Z</time>
      </trkpt>
      <trkpt lat="47.19724" lon="5.96089">
        <ele>245.4</ele>
        <time>2021-04-25T08:43:46Z</time>
      </trkpt>
      <trkpt lat="47.19721" lon="5.96087">
        <ele>245.6</ele>
        <time>2021-04-25T08:43:47Z</time>
      </trkpt>
      <trkpt lat="47.19718" lon="5.96084">
        <ele>245.8</ele>
        <time>2021-04-25T08:43:48Z</time>
      </trkpt>
      <trkpt lat="47.19714" lon="5.96082">
        <ele>245.8</ele>
        <time>2021-04-25T08:43:49Z</time>
      </trkpt>
      <trkpt lat="47.19711" lon="5.96081">
        <ele>246</ele>
        <time>2021-04-25T08:43:50Z</time>
      </trkpt>
      <trkpt lat="47.19708" lon="5.96079">
        <ele>246.2</ele>
        <time>2021-04-25T08:43:51Z</time>
      </trkpt>
      <trkpt lat="47.19705" lon="5.96078">
        <ele>246.4</ele>
        <time>2021-04-25T08:43:52Z</time>
      </trkpt>
      <trkpt lat="47.19702" lon="5.96076">
        <ele>246.4</ele>
        <time>2021-04-25T08:43:53Z</time>
      </trkpt>
      <trkpt lat="47.19699" lon="5.96074">
        <ele>246.6</ele>
        <time>2021-04-25T08:43:54Z</time>
      </trkpt>
      <trkpt lat="47.19696" lon="5.96071">
        <ele>246.8</ele>
        <time>2021-04-25T08:43:55Z</time>
      </trkpt>
      <trkpt lat="47.19694" lon="5.96069">
        <ele>247</ele>
        <time>2021-04-25T08:43:56Z</time>
      </trkpt>
      <trkpt lat="47.19692" lon="5.96067">
        <ele>247</ele>
        <time>2021-04-25T08:43:57Z</time>
      </trkpt>
      <trkpt lat="47.19688" lon="5.96063">
        <ele>247.4</ele>
        <time>2021-04-25T08:43:58Z</time>
      </trkpt>
      <trkpt lat="47.19685" lon="5.9606">
        <ele>247.4</ele>
        <time>2021-04-25T08:43:59Z</time>
      </trkpt>
      <trkpt lat="47.19682" lon="5.96057">
        <ele>247.6</ele>
        <time>2021-04-25T08:44:00Z</time>
      </trkpt>
      <trkpt lat="47.1968" lon="5.96054">
        <ele>247.8</ele>
        <time>2021-04-25T08:44:01Z</time>
      </trkpt>
      <trkpt lat="47.19676" lon="5.96052">
        <ele>248</ele>
        <time>2021-04-25T08:44:02Z</time>
      </trkpt>
      <trkpt lat="47.19673" lon="5.9605">
        <ele>248</ele>
        <time>2021-04-25T08:44:03Z</time>
      </trkpt>
      <trkpt lat="47.19669" lon="5.96048">
        <ele>248</ele>
        <time>2021-04-25T08:44:04Z</time>
      </trkpt>
      <trkpt lat="47.19666" lon="5.96047">
        <ele>248.2</ele>
        <time>2021-04-25T08:44:05Z</time>
      </trkpt>
      <trkpt lat="47.19662" lon="5.96046">
        <ele>248.2</ele>
        <time>2021-04-25T08:44:06Z</time>
      </trkpt>
      <trkpt lat="47.19659" lon="5.96045">
        <ele>248.2</ele>
        <time>2021-04-25T08:44:07Z</time>
      </trkpt>
      <trkpt lat="47.19656" lon="5.96044">
        <ele>248.2</ele>
        <time>2021-04-25T08:44:08Z</time>
      </trkpt>
      <trkpt lat="47.19653" lon="5.96043">
        <ele>248.2</ele>
        <time>2021-04-25T08:44:09Z</time>
      </trkpt>
      <trkpt lat="47.1965" lon="5.96042">
        <ele>248.2</ele>
        <time>2021-04-25T08:44:10Z</time>
      </trkpt>
      <trkpt lat="47.19647" lon="5.96041">
        <ele>248.2</ele>
        <time>2021-04-25T08:44:11Z</time>
      </trkpt>
      <trkpt lat="47.19644" lon="5.9604">
        <ele>248.2</ele>
        <time>2021-04-25T08:44:12Z</time>
      </trkpt>
      <trkpt lat="47.19642" lon="5.96038">
        <ele>248.2</ele>
        <time>2021-04-25T08:44:13Z</time>
      </trkpt>
      <trkpt lat="47.19639" lon="5.96038">
        <ele>248.4</ele>
        <time>2021-04-25T08:44:14Z</time>
      </trkpt>
      <trkpt lat="47.19637" lon="5.96037">
        <ele>248.6</ele>
        <time>2021-04-25T08:44:15Z</time>
      </trkpt>
      <trkpt lat="47.19634" lon="5.96036">
        <ele>248.8</ele>
        <time>2021-04-25T08:44:16Z</time>
      </trkpt>
      <trkpt lat="47.19632" lon="5.96035">
        <ele>248.8</ele>
        <time>2021-04-25T08:44:17Z</time>
      </trkpt>
      <trkpt lat="47.19629" lon="5.96034">
        <ele>249</ele>
        <time>2021-04-25T08:44:18Z</time>
      </trkpt>
      <trkpt lat="47.19627" lon="5.96033">
        <ele>249.2</ele>
        <time>2021-04-25T08:44:19Z</time>
      </trkpt>
      <trkpt lat="47.19625" lon="5.96032">
        <ele>249.2</ele>
        <time>2021-04-25T08:44:20Z</time>
      </trkpt>
      <trkpt lat="47.19622" lon="5.96032">
        <ele>249.4</ele>
        <time>2021-04-25T08:44:21Z</time>
      </trkpt>
      <trkpt lat="47.1962" lon="5.96031">
        <ele>249.4</ele>
        <time>2021-04-25T08:44:22Z</time>
      </trkpt>
      <trkpt lat="47.19617" lon="5.9603">
        <ele>249.6</ele>
        <time>2021-04-25T08:44:23Z</time>
      </trkpt>
      <trkpt lat="47.19615" lon="5.96029">
        <ele>249.8</ele>
        <time>2021-04-25T08:44:24Z</time>
      </trkpt>
      <trkpt lat="47.19613" lon="5.96028">
        <ele>249.8</ele>
        <time>2021-04-25T08:44:25Z</time>
      </trkpt>
      <trkpt lat="47.19608" lon="5.96025">
        <ele>250.2</ele>
        <time>2021-04-25T08:44:27Z</time>
      </trkpt>
      <trkpt lat="47.19606" lon="5.96024">
        <ele>250.6</ele>
        <time>2021-04-25T08:44:28Z</time>
      </trkpt>
      <trkpt lat="47.19603" lon="5.96023">
        <ele>250.6</ele>
        <time>2021-04-25T08:44:29Z</time>
      </trkpt>
      <trkpt lat="47.19601" lon="5.96022">
        <ele>251</ele>
        <time>2021-04-25T08:44:30Z</time>
      </trkpt>
      <trkpt lat="47.19599" lon="5.96021">
        <ele>251.2</ele>
        <time>2021-04-25T08:44:31Z</time>
      </trkpt>
      <trkpt lat="47.19597" lon="5.96021">
        <ele>251.4</ele>
        <time>2021-04-25T08:44:32Z</time>
      </trkpt>
      <trkpt lat="47.19594" lon="5.9602">
        <ele>251.6</ele>
        <time>2021-04-25T08:44:33Z</time>
      </trkpt>
      <trkpt lat="47.19592" lon="5.96019">
        <ele>251.6</ele>
        <time>2021-04-25T08:44:34Z</time>
      </trkpt>
      <trkpt lat="47.1959" lon="5.96019">
        <ele>251.8</ele>
        <time>2021-04-25T08:44:35Z</time>
      </trkpt>
      <trkpt lat="47.19587" lon="5.96018">
        <ele>252</ele>
        <time>2021-04-25T08:44:36Z</time>
      </trkpt>
      <trkpt lat="47.19584" lon="5.96018">
        <ele>252.2</ele>
        <time>2021-04-25T08:44:37Z</time>
      </trkpt>
      <trkpt lat="47.19582" lon="5.96018">
        <ele>252.2</ele>
        <time>2021-04-25T08:44:38Z</time>
      </trkpt>
      <trkpt lat="47.1958" lon="5.96017">
        <ele>252.4</ele>
        <time>2021-04-25T08:44:39Z</time>
      </trkpt>
      <trkpt lat="47.19577" lon="5.96017">
        <ele>252.4</ele>
        <time>2021-04-25T08:44:40Z</time>
      </trkpt>
      <trkpt lat="47.19574" lon="5.96016">
        <ele>252.4</ele>
        <time>2021-04-25T08:44:41Z</time>
      </trkpt>
      <trkpt lat="47.19572" lon="5.96016">
        <ele>252.6</ele>
        <time>2021-04-25T08:44:42Z</time>
      </trkpt>
      <trkpt lat="47.1957" lon="5.96016">
        <ele>252.6</ele>
        <time>2021-04-25T08:44:43Z</time>
      </trkpt>
      <trkpt lat="47.19567" lon="5.96016">
        <ele>252.8</ele>
        <time>2021-04-25T08:44:44Z</time>
      </trkpt>
      <trkpt lat="47.19565" lon="5.96016">
        <ele>252.8</ele>
        <time>2021-04-25T08:44:45Z</time>
      </trkpt>
      <trkpt lat="47.19562" lon="5.96016">
        <ele>253</ele>
        <time>2021-04-25T08:44:46Z</time>
      </trkpt>
      <trkpt lat="47.1956" lon="5.96017">
        <ele>253</ele>
        <time>2021-04-25T08:44:47Z</time>
      </trkpt>
      <trkpt lat="47.19557" lon="5.96018">
        <ele>253.2</ele>
        <time>2021-04-25T08:44:48Z</time>
      </trkpt>
      <trkpt lat="47.19555" lon="5.96019">
        <ele>253.4</ele>
        <time>2021-04-25T08:44:49Z</time>
      </trkpt>
      <trkpt lat="47.19552" lon="5.9602">
        <ele>253.6</ele>
        <time>2021-04-25T08:44:50Z</time>
      </trkpt>
      <trkpt lat="47.19549" lon="5.96021">
        <ele>253.6</ele>
        <time>2021-04-25T08:44:51Z</time>
      </trkpt>
      <trkpt lat="47.19547" lon="5.96021">
        <ele>253.8</ele>
        <time>2021-04-25T08:44:52Z</time>
      </trkpt>
      <trkpt lat="47.19545" lon="5.96023">
        <ele>254</ele>
        <time>2021-04-25T08:44:53Z</time>
      </trkpt>
      <trkpt lat="47.19542" lon="5.96024">
        <ele>254.2</ele>
        <time>2021-04-25T08:44:54Z</time>
      </trkpt>
      <trkpt lat="47.1954" lon="5.96025">
        <ele>254.4</ele>
        <time>2021-04-25T08:44:55Z</time>
      </trkpt>
      <trkpt lat="47.19537" lon="5.96026">
        <ele>254.4</ele>
        <time>2021-04-25T08:44:56Z</time>
      </trkpt>
      <trkpt lat="47.19535" lon="5.96028">
        <ele>254.6</ele>
        <time>2021-04-25T08:44:57Z</time>
      </trkpt>
      <trkpt lat="47.19533" lon="5.96029">
        <ele>254.8</ele>
        <time>2021-04-25T08:44:58Z</time>
      </trkpt>
      <trkpt lat="47.19531" lon="5.96031">
        <ele>255</ele>
        <time>2021-04-25T08:44:59Z</time>
      </trkpt>
      <trkpt lat="47.19529" lon="5.96032">
        <ele>255</ele>
        <time>2021-04-25T08:45:00Z</time>
      </trkpt>
      <trkpt lat="47.19526" lon="5.96034">
        <ele>255.2</ele>
        <time>2021-04-25T08:45:01Z</time>
      </trkpt>
      <trkpt lat="47.19525" lon="5.96035">
        <ele>255.4</ele>
        <time>2021-04-25T08:45:02Z</time>
      </trkpt>
      <trkpt lat="47.19523" lon="5.96037">
        <ele>255.4</ele>
        <time>2021-04-25T08:45:03Z</time>
      </trkpt>
      <trkpt lat="47.1952" lon="5.96039">
        <ele>255.6</ele>
        <time>2021-04-25T08:45:04Z</time>
      </trkpt>
      <trkpt lat="47.19518" lon="5.96041">
        <ele>255.6</ele>
        <time>2021-04-25T08:45:05Z</time>
      </trkpt>
      <trkpt lat="47.19516" lon="5.96042">
        <ele>256</ele>
        <time>2021-04-25T08:45:06Z</time>
      </trkpt>
      <trkpt lat="47.19514" lon="5.96044">
        <ele>256</ele>
        <time>2021-04-25T08:45:07Z</time>
      </trkpt>
      <trkpt lat="47.19511" lon="5.96046">
        <ele>256.2</ele>
        <time>2021-04-25T08:45:08Z</time>
      </trkpt>
      <trkpt lat="47.19509" lon="5.96047">
        <ele>256.4</ele>
        <time>2021-04-25T08:45:09Z</time>
      </trkpt>
      <trkpt lat="47.19507" lon="5.96049">
        <ele>256.6</ele>
        <time>2021-04-25T08:45:10Z</time>
      </trkpt>
      <trkpt lat="47.19504" lon="5.96051">
        <ele>256.8</ele>
        <time>2021-04-25T08:45:11Z</time>
      </trkpt>
      <trkpt lat="47.19502" lon="5.96052">
        <ele>257</ele>
        <time>2021-04-25T08:45:12Z</time>
      </trkpt>
      <trkpt lat="47.195" lon="5.96054">
        <ele>257.2</ele>
        <time>2021-04-25T08:45:13Z</time>
      </trkpt>
      <trkpt lat="47.19498" lon="5.96055">
        <ele>257.2</ele>
        <time>2021-04-25T08:45:14Z</time>
      </trkpt>
      <trkpt lat="47.19496" lon="5.96057">
        <ele>257.4</ele>
        <time>2021-04-25T08:45:15Z</time>
      </trkpt>
      <trkpt lat="47.19494" lon="5.96059">
        <ele>257.6</ele>
        <time>2021-04-25T08:45:16Z</time>
      </trkpt>
      <trkpt lat="47.19491" lon="5.96061">
        <ele>257.8</ele>
        <time>2021-04-25T08:45:17Z</time>
      </trkpt>
      <trkpt lat="47.19489" lon="5.96062">
        <ele>257.8</ele>
        <time>2021-04-25T08:45:18Z</time>
      </trkpt>
      <trkpt lat="47.19487" lon="5.96064">
        <ele>258</ele>
        <time>2021-04-25T08:45:19Z</time>
      </trkpt>
      <trkpt lat="47.19485" lon="5.96066">
        <ele>258.2</ele>
        <time>2021-04-25T08:45:20Z</time>
      </trkpt>
      <trkpt lat="47.19482" lon="5.96068">
        <ele>258.2</ele>
        <time>2021-04-25T08:45:21Z</time>
      </trkpt>
      <trkpt lat="47.19481" lon="5.9607">
        <ele>258.4</ele>
        <time>2021-04-25T08:45:22Z</time>
      </trkpt>
      <trkpt lat="47.19479" lon="5.96072">
        <ele>258.6</ele>
        <time>2021-04-25T08:45:23Z</time>
      </trkpt>
      <trkpt lat="47.19477" lon="5.96073">
        <ele>258.8</ele>
        <time>2021-04-25T08:45:24Z</time>
      </trkpt>
      <trkpt lat="47.19474" lon="5.96075">
        <ele>258.8</ele>
        <time>2021-04-25T08:45:25Z</time>
      </trkpt>
      <trkpt lat="47.19472" lon="5.96076">
        <ele>259</ele>
        <time>2021-04-25T08:45:26Z</time>
      </trkpt>
      <trkpt lat="47.1947" lon="5.96077">
        <ele>259.2</ele>
        <time>2021-04-25T08:45:27Z</time>
      </trkpt>
      <trkpt lat="47.19468" lon="5.96079">
        <ele>259.2</ele>
        <time>2021-04-25T08:45:28Z</time>
      </trkpt>
      <trkpt lat="47.19466" lon="5.9608">
        <ele>259.4</ele>
        <time>2021-04-25T08:45:29Z</time>
      </trkpt>
      <trkpt lat="47.19464" lon="5.96083">
        <ele>259.4</ele>
        <time>2021-04-25T08:45:30Z</time>
      </trkpt>
      <trkpt lat="47.19462" lon="5.96085">
        <ele>259.6</ele>
        <time>2021-04-25T08:45:31Z</time>
      </trkpt>
      <trkpt lat="47.1946" lon="5.96087">
        <ele>259.6</ele>
        <time>2021-04-25T08:45:32Z</time>
      </trkpt>
      <trkpt lat="47.19459" lon="5.9609">
        <ele>259.8</ele>
        <time>2021-04-25T08:45:33Z</time>
      </trkpt>
      <trkpt lat="47.19457" lon="5.96093">
        <ele>260</ele>
        <time>2021-04-25T08:45:34Z</time>
      </trkpt>
      <trkpt lat="47.19455" lon="5.96096">
        <ele>260</ele>
        <time>2021-04-25T08:45:35Z</time>
      </trkpt>
      <trkpt lat="47.19454" lon="5.96099">
        <ele>260.2</ele>
        <time>2021-04-25T08:45:36Z</time>
      </trkpt>
      <trkpt lat="47.19453" lon="5.96102">
        <ele>260.4</ele>
        <time>2021-04-25T08:45:37Z</time>
      </trkpt>
      <trkpt lat="47.19452" lon="5.96105">
        <ele>260.6</ele>
        <time>2021-04-25T08:45:38Z</time>
      </trkpt>
      <trkpt lat="47.19452" lon="5.96108">
        <ele>261</ele>
        <time>2021-04-25T08:45:39Z</time>
      </trkpt>
      <trkpt lat="47.19451" lon="5.96111">
        <ele>261.2</ele>
        <time>2021-04-25T08:45:40Z</time>
      </trkpt>
      <trkpt lat="47.19451" lon="5.96115">
        <ele>261</ele>
        <time>2021-04-25T08:45:41Z</time>
      </trkpt>
      <trkpt lat="47.19451" lon="5.96118">
        <ele>261.2</ele>
        <time>2021-04-25T08:45:42Z</time>
      </trkpt>
      <trkpt lat="47.19451" lon="5.96121">
        <ele>261.4</ele>
        <time>2021-04-25T08:45:43Z</time>
      </trkpt>
      <trkpt lat="47.19452" lon="5.96124">
        <ele>261.6</ele>
        <time>2021-04-25T08:45:44Z</time>
      </trkpt>
      <trkpt lat="47.19452" lon="5.96127">
        <ele>261.8</ele>
        <time>2021-04-25T08:45:45Z</time>
      </trkpt>
      <trkpt lat="47.19453" lon="5.9613">
        <ele>261.8</ele>
        <time>2021-04-25T08:45:46Z</time>
      </trkpt>
      <trkpt lat="47.19454" lon="5.96133">
        <ele>262</ele>
        <time>2021-04-25T08:45:47Z</time>
      </trkpt>
      <trkpt lat="47.19454" lon="5.96133">
        <ele>262</ele>
        <time>2021-04-25T08:45:48Z</time>
      </trkpt>
      <trkpt lat="47.19455" lon="5.96138">
        <ele>262</ele>
        <time>2021-04-25T08:45:49Z</time>
      </trkpt>
      <trkpt lat="47.19457" lon="5.96141">
        <ele>262</ele>
        <time>2021-04-25T08:45:50Z</time>
      </trkpt>
      <trkpt lat="47.19458" lon="5.96143">
        <ele>262.2</ele>
        <time>2021-04-25T08:45:51Z</time>
      </trkpt>
      <trkpt lat="47.1946" lon="5.96145">
        <ele>262.4</ele>
        <time>2021-04-25T08:45:52Z</time>
      </trkpt>
      <trkpt lat="47.19461" lon="5.96147">
        <ele>262.4</ele>
        <time>2021-04-25T08:45:53Z</time>
      </trkpt>
      <trkpt lat="47.19463" lon="5.96149">
        <ele>262.8</ele>
        <time>2021-04-25T08:45:54Z</time>
      </trkpt>
      <trkpt lat="47.19464" lon="5.9615">
        <ele>262.8</ele>
        <time>2021-04-25T08:45:55Z</time>
      </trkpt>
      <trkpt lat="47.19466" lon="5.96152">
        <ele>263</ele>
        <time>2021-04-25T08:45:56Z</time>
      </trkpt>
      <trkpt lat="47.19468" lon="5.96153">
        <ele>263.2</ele>
        <time>2021-04-25T08:45:57Z</time>
      </trkpt>
      <trkpt lat="47.1947" lon="5.96155">
        <ele>263.4</ele>
        <time>2021-04-25T08:45:58Z</time>
      </trkpt>
      <trkpt lat="47.19472" lon="5.96156">
        <ele>263.6</ele>
        <time>2021-04-25T08:45:59Z</time>
      </trkpt>
      <trkpt lat="47.19474" lon="5.96158">
        <ele>263.6</ele>
        <time>2021-04-25T08:46:00Z</time>
      </trkpt>
      <trkpt lat="47.19476" lon="5.96159">
        <ele>263.8</ele>
        <time>2021-04-25T08:46:01Z</time>
      </trkpt>
      <trkpt lat="47.19478" lon="5.9616">
        <ele>264</ele>
        <time>2021-04-25T08:46:02Z</time>
      </trkpt>
      <trkpt lat="47.19481" lon="5.96162">
        <ele>264</ele>
        <time>2021-04-25T08:46:03Z</time>
      </trkpt>
      <trkpt lat="47.19483" lon="5.96163">
        <ele>264.2</ele>
        <time>2021-04-25T08:46:04Z</time>
      </trkpt>
      <trkpt lat="47.19486" lon="5.96164">
        <ele>264.4</ele>
        <time>2021-04-25T08:46:05Z</time>
      </trkpt>
      <trkpt lat="47.19487" lon="5.96165">
        <ele>264.6</ele>
        <time>2021-04-25T08:46:06Z</time>
      </trkpt>
      <trkpt lat="47.1949" lon="5.96166">
        <ele>264.8</ele>
        <time>2021-04-25T08:46:07Z</time>
      </trkpt>
      <trkpt lat="47.19492" lon="5.96167">
        <ele>265</ele>
        <time>2021-04-25T08:46:08Z</time>
      </trkpt>
      <trkpt lat="47.19494" lon="5.96169">
        <ele>265</ele>
        <time>2021-04-25T08:46:09Z</time>
      </trkpt>
      <trkpt lat="47.19497" lon="5.96171">
        <ele>265</ele>
        <time>2021-04-25T08:46:10Z</time>
      </trkpt>
      <trkpt lat="47.19499" lon="5.96172">
        <ele>265</ele>
        <time>2021-04-25T08:46:11Z</time>
      </trkpt>
      <trkpt lat="47.19501" lon="5.96173">
        <ele>265.2</ele>
        <time>2021-04-25T08:46:12Z</time>
      </trkpt>
      <trkpt lat="47.19503" lon="5.96175">
        <ele>265.4</ele>
        <time>2021-04-25T08:46:13Z</time>
      </trkpt>
      <trkpt lat="47.19506" lon="5.96176">
        <ele>265.4</ele>
        <time>2021-04-25T08:46:14Z</time>
      </trkpt>
      <trkpt lat="47.19508" lon="5.96177">
        <ele>265.4</ele>
        <time>2021-04-25T08:46:15Z</time>
      </trkpt>
      <trkpt lat="47.1951" lon="5.96179">
        <ele>265.6</ele>
        <time>2021-04-25T08:46:16Z</time>
      </trkpt>
      <trkpt lat="47.19512" lon="5.96181">
        <ele>265.8</ele>
        <time>2021-04-25T08:46:17Z</time>
      </trkpt>
      <trkpt lat="47.19514" lon="5.96182">
        <ele>266</ele>
        <time>2021-04-25T08:46:18Z</time>
      </trkpt>
      <trkpt lat="47.19516" lon="5.96184">
        <ele>266</ele>
        <time>2021-04-25T08:46:19Z</time>
      </trkpt>
      <trkpt lat="47.19518" lon="5.96186">
        <ele>266.2</ele>
        <time>2021-04-25T08:46:20Z</time>
      </trkpt>
      <trkpt lat="47.1952" lon="5.96187">
        <ele>266.2</ele>
        <time>2021-04-25T08:46:21Z</time>
      </trkpt>
      <trkpt lat="47.19521" lon="5.96189">
        <ele>266.2</ele>
        <time>2021-04-25T08:46:22Z</time>
      </trkpt>
      <trkpt lat="47.19523" lon="5.96191">
        <ele>266.4</ele>
        <time>2021-04-25T08:46:23Z</time>
      </trkpt>
      <trkpt lat="47.19525" lon="5.96192">
        <ele>266.4</ele>
        <time>2021-04-25T08:46:24Z</time>
      </trkpt>
      <trkpt lat="47.19527" lon="5.96195">
        <ele>266.6</ele>
        <time>2021-04-25T08:46:25Z</time>
      </trkpt>
      <trkpt lat="47.19528" lon="5.96196">
        <ele>266.6</ele>
        <time>2021-04-25T08:46:26Z</time>
      </trkpt>
      <trkpt lat="47.1953" lon="5.96199">
        <ele>266.8</ele>
        <time>2021-04-25T08:46:27Z</time>
      </trkpt>
      <trkpt lat="47.19531" lon="5.96201">
        <ele>267</ele>
        <time>2021-04-25T08:46:28Z</time>
      </trkpt>
      <trkpt lat="47.19533" lon="5.96203">
        <ele>267</ele>
        <time>2021-04-25T08:46:29Z</time>
      </trkpt>
      <trkpt lat="47.19535" lon="5.96206">
        <ele>267.2</ele>
        <time>2021-04-25T08:46:30Z</time>
      </trkpt>
      <trkpt lat="47.19536" lon="5.96208">
        <ele>267.4</ele>
        <time>2021-04-25T08:46:31Z</time>
      </trkpt>
      <trkpt lat="47.19538" lon="5.96211">
        <ele>267.4</ele>
        <time>2021-04-25T08:46:32Z</time>
      </trkpt>
      <trkpt lat="47.19539" lon="5.96212">
        <ele>267.6</ele>
        <time>2021-04-25T08:46:33Z</time>
      </trkpt>
      <trkpt lat="47.1954" lon="5.96215">
        <ele>267.8</ele>
        <time>2021-04-25T08:46:34Z</time>
      </trkpt>
      <trkpt lat="47.19542" lon="5.96218">
        <ele>268</ele>
        <time>2021-04-25T08:46:35Z</time>
      </trkpt>
      <trkpt lat="47.19543" lon="5.96221">
        <ele>268</ele>
        <time>2021-04-25T08:46:36Z</time>
      </trkpt>
      <trkpt lat="47.19544" lon="5.96223">
        <ele>268.2</ele>
        <time>2021-04-25T08:46:37Z</time>
      </trkpt>
      <trkpt lat="47.19545" lon="5.96225">
        <ele>268.2</ele>
        <time>2021-04-25T08:46:38Z</time>
      </trkpt>
      <trkpt lat="47.19546" lon="5.96228">
        <ele>268.4</ele>
        <time>2021-04-25T08:46:39Z</time>
      </trkpt>
      <trkpt lat="47.19547" lon="5.9623">
        <ele>268.6</ele>
        <time>2021-04-25T08:46:40Z</time>
      </trkpt>
      <trkpt lat="47.19549" lon="5.96234">
        <ele>268.6</ele>
        <time>2021-04-25T08:46:41Z</time>
      </trkpt>
      <trkpt lat="47.1955" lon="5.96237">
        <ele>268.8</ele>
        <time>2021-04-25T08:46:42Z</time>
      </trkpt>
      <trkpt lat="47.19551" lon="5.96239">
        <ele>268.8</ele>
        <time>2021-04-25T08:46:43Z</time>
      </trkpt>
      <trkpt lat="47.19552" lon="5.96242">
        <ele>269</ele>
        <time>2021-04-25T08:46:44Z</time>
      </trkpt>
      <trkpt lat="47.19553" lon="5.96245">
        <ele>269.2</ele>
        <time>2021-04-25T08:46:45Z</time>
      </trkpt>
      <trkpt lat="47.19554" lon="5.96248">
        <ele>269.4</ele>
        <time>2021-04-25T08:46:46Z</time>
      </trkpt>
      <trkpt lat="47.19555" lon="5.96251">
        <ele>269.6</ele>
        <time>2021-04-25T08:46:47Z</time>
      </trkpt>
      <trkpt lat="47.19555" lon="5.96253">
        <ele>269.6</ele>
        <time>2021-04-25T08:46:48Z</time>
      </trkpt>
      <trkpt lat="47.19556" lon="5.96256">
        <ele>269.8</ele>
        <time>2021-04-25T08:46:49Z</time>
      </trkpt>
      <trkpt lat="47.19556" lon="5.96259">
        <ele>270</ele>
        <time>2021-04-25T08:46:50Z</time>
      </trkpt>
      <trkpt lat="47.19557" lon="5.96262">
        <ele>270.2</ele>
        <time>2021-04-25T08:46:51Z</time>
      </trkpt>
      <trkpt lat="47.19558" lon="5.96265">
        <ele>270.4</ele>
        <time>2021-04-25T08:46:52Z</time>
      </trkpt>
      <trkpt lat="47.19558" lon="5.96268">
        <ele>270.4</ele>
        <time>2021-04-25T08:46:53Z</time>
      </trkpt>
      <trkpt lat="47.19559" lon="5.96271">
        <ele>270.6</ele>
        <time>2021-04-25T08:46:54Z</time>
      </trkpt>
      <trkpt lat="47.1956" lon="5.96274">
        <ele>270.8</ele>
        <time>2021-04-25T08:46:55Z</time>
      </trkpt>
      <trkpt lat="47.1956" lon="5.96278">
        <ele>271</ele>
        <time>2021-04-25T08:46:56Z</time>
      </trkpt>
      <trkpt lat="47.19561" lon="5.9628">
        <ele>271</ele>
        <time>2021-04-25T08:46:57Z</time>
      </trkpt>
      <trkpt lat="47.19561" lon="5.96283">
        <ele>271.2</ele>
        <time>2021-04-25T08:46:58Z</time>
      </trkpt>
      <trkpt lat="47.19561" lon="5.96286">
        <ele>271.4</ele>
        <time>2021-04-25T08:46:59Z</time>
      </trkpt>
      <trkpt lat="47.19562" lon="5.96289">
        <ele>271.4</ele>
        <time>2021-04-25T08:47:00Z</time>
      </trkpt>
      <trkpt lat="47.19561" lon="5.96292">
        <ele>271.6</ele>
        <time>2021-04-25T08:47:01Z</time>
      </trkpt>
      <trkpt lat="47.19561" lon="5.96295">
        <ele>271.6</ele>
        <time>2021-04-25T08:47:02Z</time>
      </trkpt>
      <trkpt lat="47.19561" lon="5.96298">
        <ele>271.8</ele>
        <time>2021-04-25T08:47:03Z</time>
      </trkpt>
      <trkpt lat="47.19561" lon="5.96301">
        <ele>272</ele>
        <time>2021-04-25T08:47:04Z</time>
      </trkpt>
      <trkpt lat="47.19561" lon="5.96304">
        <ele>272.2</ele>
        <time>2021-04-25T08:47:05Z</time>
      </trkpt>
      <trkpt lat="47.19561" lon="5.96307">
        <ele>272.2</ele>
        <time>2021-04-25T08:47:06Z</time>
      </trkpt>
      <trkpt lat="47.19562" lon="5.9631">
        <ele>272.4</ele>
        <time>2021-04-25T08:47:07Z</time>
      </trkpt>
      <trkpt lat="47.19563" lon="5.96312">
        <ele>272.4</ele>
        <time>2021-04-25T08:47:08Z</time>
      </trkpt>
      <trkpt lat="47.19563" lon="5.96316">
        <ele>272.6</ele>
        <time>2021-04-25T08:47:09Z</time>
      </trkpt>
      <trkpt lat="47.19563" lon="5.96319">
        <ele>272.8</ele>
        <time>2021-04-25T08:47:10Z</time>
      </trkpt>
      <trkpt lat="47.19563" lon="5.96322">
        <ele>273</ele>
        <time>2021-04-25T08:47:11Z</time>
      </trkpt>
      <trkpt lat="47.19564" lon="5.96326">
        <ele>273.2</ele>
        <time>2021-04-25T08:47:12Z</time>
      </trkpt>
      <trkpt lat="47.19564" lon="5.96329">
        <ele>273.4</ele>
        <time>2021-04-25T08:47:13Z</time>
      </trkpt>
      <trkpt lat="47.19564" lon="5.96332">
        <ele>273.4</ele>
        <time>2021-04-25T08:47:14Z</time>
      </trkpt>
      <trkpt lat="47.19565" lon="5.96335">
        <ele>273.6</ele>
        <time>2021-04-25T08:47:15Z</time>
      </trkpt>
      <trkpt lat="47.19565" lon="5.96339">
        <ele>274</ele>
        <time>2021-04-25T08:47:16Z</time>
      </trkpt>
      <trkpt lat="47.19566" lon="5.96342">
        <ele>274.2</ele>
        <time>2021-04-25T08:47:17Z</time>
      </trkpt>
      <trkpt lat="47.19566" lon="5.96345">
        <ele>274.4</ele>
        <time>2021-04-25T08:47:18Z</time>
      </trkpt>
      <trkpt lat="47.19566" lon="5.96348">
        <ele>274.4</ele>
        <time>2021-04-25T08:47:19Z</time>
      </trkpt>
      <trkpt lat="47.19566" lon="5.96351">
        <ele>274.6</ele>
        <time>2021-04-25T08:47:20Z</time>
      </trkpt>
      <trkpt lat="47.19567" lon="5.96355">
        <ele>275</ele>
        <time>2021-04-25T08:47:21Z</time>
      </trkpt>
      <trkpt lat="47.19567" lon="5.96358">
        <ele>275.2</ele>
        <time>2021-04-25T08:47:22Z</time>
      </trkpt>
      <trkpt lat="47.19567" lon="5.96361">
        <ele>275.4</ele>
        <time>2021-04-25T08:47:23Z</time>
      </trkpt>
      <trkpt lat="47.19568" lon="5.96364">
        <ele>275.4</ele>
        <time>2021-04-25T08:47:24Z</time>
      </trkpt>
      <trkpt lat="47.19568" lon="5.96367">
        <ele>275.6</ele>
        <time>2021-04-25T08:47:25Z</time>
      </trkpt>
      <trkpt lat="47.19569" lon="5.96371">
        <ele>275.8</ele>
        <time>2021-04-25T08:47:26Z</time>
      </trkpt>
      <trkpt lat="47.19569" lon="5.96374">
        <ele>276</ele>
        <time>2021-04-25T08:47:27Z</time>
      </trkpt>
      <trkpt lat="47.19569" lon="5.96377">
        <ele>276.2</ele>
        <time>2021-04-25T08:47:28Z</time>
      </trkpt>
      <trkpt lat="47.1957" lon="5.9638">
        <ele>276.2</ele>
        <time>2021-04-25T08:47:29Z</time>
      </trkpt>
      <trkpt lat="47.1957" lon="5.96383">
        <ele>276.4</ele>
        <time>2021-04-25T08:47:30Z</time>
      </trkpt>
      <trkpt lat="47.19571" lon="5.96386">
        <ele>276.4</ele>
        <time>2021-04-25T08:47:31Z</time>
      </trkpt>
      <trkpt lat="47.19571" lon="5.96389">
        <ele>276.8</ele>
        <time>2021-04-25T08:47:32Z</time>
      </trkpt>
      <trkpt lat="47.19572" lon="5.96393">
        <ele>277</ele>
        <time>2021-04-25T08:47:33Z</time>
      </trkpt>
      <trkpt lat="47.19572" lon="5.96396">
        <ele>277.4</ele>
        <time>2021-04-25T08:47:34Z</time>
      </trkpt>
      <trkpt lat="47.19573" lon="5.96399">
        <ele>277.6</ele>
        <time>2021-04-25T08:47:35Z</time>
      </trkpt>
      <trkpt lat="47.19573" lon="5.96402">
        <ele>277.8</ele>
        <time>2021-04-25T08:47:36Z</time>
      </trkpt>
      <trkpt lat="47.19574" lon="5.96406">
        <ele>278</ele>
        <time>2021-04-25T08:47:37Z</time>
      </trkpt>
      <trkpt lat="47.19574" lon="5.96409">
        <ele>278.2</ele>
        <time>2021-04-25T08:47:38Z</time>
      </trkpt>
      <trkpt lat="47.19575" lon="5.96412">
        <ele>278.2</ele>
        <time>2021-04-25T08:47:39Z</time>
      </trkpt>
      <trkpt lat="47.19575" lon="5.96414">
        <ele>278.4</ele>
        <time>2021-04-25T08:47:40Z</time>
      </trkpt>
      <trkpt lat="47.19576" lon="5.96417">
        <ele>278.6</ele>
        <time>2021-04-25T08:47:41Z</time>
      </trkpt>
      <trkpt lat="47.19577" lon="5.9642">
        <ele>278.8</ele>
        <time>2021-04-25T08:47:42Z</time>
      </trkpt>
      <trkpt lat="47.19578" lon="5.96424">
        <ele>278.8</ele>
        <time>2021-04-25T08:47:43Z</time>
      </trkpt>
      <trkpt lat="47.19578" lon="5.96426">
        <ele>279</ele>
        <time>2021-04-25T08:47:44Z</time>
      </trkpt>
      <trkpt lat="47.19579" lon="5.96429">
        <ele>279</ele>
        <time>2021-04-25T08:47:45Z</time>
      </trkpt>
      <trkpt lat="47.1958" lon="5.96433">
        <ele>279.2</ele>
        <time>2021-04-25T08:47:46Z</time>
      </trkpt>
      <trkpt lat="47.1958" lon="5.96436">
        <ele>279.2</ele>
        <time>2021-04-25T08:47:47Z</time>
      </trkpt>
      <trkpt lat="47.19581" lon="5.96439">
        <ele>279.4</ele>
        <time>2021-04-25T08:47:48Z</time>
      </trkpt>
      <trkpt lat="47.19583" lon="5.96442">
        <ele>279.4</ele>
        <time>2021-04-25T08:47:49Z</time>
      </trkpt>
      <trkpt lat="47.19584" lon="5.96445">
        <ele>279.6</ele>
        <time>2021-04-25T08:47:50Z</time>
      </trkpt>
      <trkpt lat="47.19585" lon="5.96448">
        <ele>279.6</ele>
        <time>2021-04-25T08:47:51Z</time>
      </trkpt>
      <trkpt lat="47.19586" lon="5.96451">
        <ele>279.6</ele>
        <time>2021-04-25T08:47:52Z</time>
      </trkpt>
      <trkpt lat="47.19587" lon="5.96454">
        <ele>279.8</ele>
        <time>2021-04-25T08:47:53Z</time>
      </trkpt>
      <trkpt lat="47.19588" lon="5.96457">
        <ele>280</ele>
        <time>2021-04-25T08:47:54Z</time>
      </trkpt>
      <trkpt lat="47.1959" lon="5.96461">
        <ele>280.2</ele>
        <time>2021-04-25T08:47:55Z</time>
      </trkpt>
      <trkpt lat="47.19591" lon="5.96464">
        <ele>280.2</ele>
        <time>2021-04-25T08:47:56Z</time>
      </trkpt>
      <trkpt lat="47.19592" lon="5.96467">
        <ele>280.4</ele>
        <time>2021-04-25T08:47:57Z</time>
      </trkpt>
      <trkpt lat="47.19594" lon="5.9647">
        <ele>280.6</ele>
        <time>2021-04-25T08:47:58Z</time>
      </trkpt>
      <trkpt lat="47.19595" lon="5.96473">
        <ele>280.6</ele>
        <time>2021-04-25T08:47:59Z</time>
      </trkpt>
      <trkpt lat="47.19597" lon="5.96476">
        <ele>280.8</ele>
        <time>2021-04-25T08:48:00Z</time>
      </trkpt>
      <trkpt lat="47.19598" lon="5.96479">
        <ele>280.8</ele>
        <time>2021-04-25T08:48:01Z</time>
      </trkpt>
      <trkpt lat="47.19599" lon="5.96482">
        <ele>281</ele>
        <time>2021-04-25T08:48:02Z</time>
      </trkpt>
      <trkpt lat="47.196" lon="5.96486">
        <ele>281</ele>
        <time>2021-04-25T08:48:03Z</time>
      </trkpt>
      <trkpt lat="47.19602" lon="5.96489">
        <ele>281.2</ele>
        <time>2021-04-25T08:48:04Z</time>
      </trkpt>
      <trkpt lat="47.19603" lon="5.96491">
        <ele>281.2</ele>
        <time>2021-04-25T08:48:05Z</time>
      </trkpt>
      <trkpt lat="47.19604" lon="5.96494">
        <ele>281.2</ele>
        <time>2021-04-25T08:48:06Z</time>
      </trkpt>
      <trkpt lat="47.19605" lon="5.96498">
        <ele>281.2</ele>
        <time>2021-04-25T08:48:07Z</time>
      </trkpt>
      <trkpt lat="47.19607" lon="5.96501">
        <ele>281.6</ele>
        <time>2021-04-25T08:48:08Z</time>
      </trkpt>
      <trkpt lat="47.19608" lon="5.96504">
        <ele>281.6</ele>
        <time>2021-04-25T08:48:09Z</time>
      </trkpt>
      <trkpt lat="47.19609" lon="5.96506">
        <ele>281.8</ele>
        <time>2021-04-25T08:48:10Z</time>
      </trkpt>
      <trkpt lat="47.1961" lon="5.9651">
        <ele>281.8</ele>
        <time>2021-04-25T08:48:11Z</time>
      </trkpt>
      <trkpt lat="47.19611" lon="5.96514">
        <ele>281.8</ele>
        <time>2021-04-25T08:48:12Z</time>
      </trkpt>
      <trkpt lat="47.19612" lon="5.96517">
        <ele>281.8</ele>
        <time>2021-04-25T08:48:13Z</time>
      </trkpt>
      <trkpt lat="47.19612" lon="5.96521">
        <ele>282.2</ele>
        <time>2021-04-25T08:48:14Z</time>
      </trkpt>
      <trkpt lat="47.19613" lon="5.96525">
        <ele>282.2</ele>
        <time>2021-04-25T08:48:15Z</time>
      </trkpt>
      <trkpt lat="47.19613" lon="5.96528">
        <ele>282.4</ele>
        <time>2021-04-25T08:48:16Z</time>
      </trkpt>
      <trkpt lat="47.19613" lon="5.96532">
        <ele>282.4</ele>
        <time>2021-04-25T08:48:17Z</time>
      </trkpt>
      <trkpt lat="47.19613" lon="5.96535">
        <ele>282.6</ele>
        <time>2021-04-25T08:48:18Z</time>
      </trkpt>
      <trkpt lat="47.19612" lon="5.96539">
        <ele>282.6</ele>
        <time>2021-04-25T08:48:19Z</time>
      </trkpt>
      <trkpt lat="47.19612" lon="5.96542">
        <ele>282.8</ele>
        <time>2021-04-25T08:48:20Z</time>
      </trkpt>
      <trkpt lat="47.19612" lon="5.96546">
        <ele>282.8</ele>
        <time>2021-04-25T08:48:21Z</time>
      </trkpt>
      <trkpt lat="47.19611" lon="5.9655">
        <ele>283</ele>
        <time>2021-04-25T08:48:22Z</time>
      </trkpt>
      <trkpt lat="47.19611" lon="5.96553">
        <ele>283</ele>
        <time>2021-04-25T08:48:23Z</time>
      </trkpt>
      <trkpt lat="47.1961" lon="5.96556">
        <ele>283.2</ele>
        <time>2021-04-25T08:48:24Z</time>
      </trkpt>
      <trkpt lat="47.19608" lon="5.96563">
        <ele>283.2</ele>
        <time>2021-04-25T08:48:26Z</time>
      </trkpt>
      <trkpt lat="47.19607" lon="5.96566">
        <ele>283.2</ele>
        <time>2021-04-25T08:48:27Z</time>
      </trkpt>
      <trkpt lat="47.19606" lon="5.96568">
        <ele>283.4</ele>
        <time>2021-04-25T08:48:28Z</time>
      </trkpt>
      <trkpt lat="47.19604" lon="5.96571">
        <ele>283.8</ele>
        <time>2021-04-25T08:48:29Z</time>
      </trkpt>
      <trkpt lat="47.19603" lon="5.96573">
        <ele>284</ele>
        <time>2021-04-25T08:48:30Z</time>
      </trkpt>
      <trkpt lat="47.19602" lon="5.96575">
        <ele>284.2</ele>
        <time>2021-04-25T08:48:31Z</time>
      </trkpt>
      <trkpt lat="47.19601" lon="5.96577">
        <ele>284.4</ele>
        <time>2021-04-25T08:48:32Z</time>
      </trkpt>
      <trkpt lat="47.196" lon="5.9658">
        <ele>284.6</ele>
        <time>2021-04-25T08:48:33Z</time>
      </trkpt>
      <trkpt lat="47.19599" lon="5.96582">
        <ele>284.8</ele>
        <time>2021-04-25T08:48:34Z</time>
      </trkpt>
      <trkpt lat="47.19598" lon="5.96584">
        <ele>285</ele>
        <time>2021-04-25T08:48:35Z</time>
      </trkpt>
      <trkpt lat="47.19597" lon="5.96587">
        <ele>285.2</ele>
        <time>2021-04-25T08:48:36Z</time>
      </trkpt>
      <trkpt lat="47.19596" lon="5.96589">
        <ele>285.4</ele>
        <time>2021-04-25T08:48:37Z</time>
      </trkpt>
      <trkpt lat="47.19595" lon="5.96591">
        <ele>285.6</ele>
        <time>2021-04-25T08:48:38Z</time>
      </trkpt>
      <trkpt lat="47.19594" lon="5.96594">
        <ele>285.8</ele>
        <time>2021-04-25T08:48:39Z</time>
      </trkpt>
      <trkpt lat="47.19593" lon="5.96596">
        <ele>286</ele>
        <time>2021-04-25T08:48:40Z</time>
      </trkpt>
      <trkpt lat="47.19592" lon="5.96599">
        <ele>286.4</ele>
        <time>2021-04-25T08:48:41Z</time>
      </trkpt>
      <trkpt lat="47.19591" lon="5.96601">
        <ele>286.4</ele>
        <time>2021-04-25T08:48:42Z</time>
      </trkpt>
      <trkpt lat="47.1959" lon="5.96604">
        <ele>286.8</ele>
        <time>2021-04-25T08:48:43Z</time>
      </trkpt>
      <trkpt lat="47.19589" lon="5.96607">
        <ele>287</ele>
        <time>2021-04-25T08:48:44Z</time>
      </trkpt>
      <trkpt lat="47.19588" lon="5.9661">
        <ele>287.2</ele>
        <time>2021-04-25T08:48:45Z</time>
      </trkpt>
      <trkpt lat="47.19587" lon="5.96612">
        <ele>287.4</ele>
        <time>2021-04-25T08:48:46Z</time>
      </trkpt>
      <trkpt lat="47.19586" lon="5.96615">
        <ele>288</ele>
        <time>2021-04-25T08:48:47Z</time>
      </trkpt>
      <trkpt lat="47.19585" lon="5.96617">
        <ele>288</ele>
        <time>2021-04-25T08:48:48Z</time>
      </trkpt>
      <trkpt lat="47.19585" lon="5.9662">
        <ele>288.4</ele>
        <time>2021-04-25T08:48:49Z</time>
      </trkpt>
      <trkpt lat="47.19585" lon="5.96623">
        <ele>288.8</ele>
        <time>2021-04-25T08:48:50Z</time>
      </trkpt>
      <trkpt lat="47.19584" lon="5.96625">
        <ele>289</ele>
        <time>2021-04-25T08:48:51Z</time>
      </trkpt>
      <trkpt lat="47.19582" lon="5.96628">
        <ele>289.4</ele>
        <time>2021-04-25T08:48:52Z</time>
      </trkpt>
      <trkpt lat="47.19581" lon="5.9663">
        <ele>289.4</ele>
        <time>2021-04-25T08:48:53Z</time>
      </trkpt>
      <trkpt lat="47.1958" lon="5.96631">
        <ele>289.6</ele>
        <time>2021-04-25T08:48:54Z</time>
      </trkpt>
      <trkpt lat="47.19578" lon="5.96632">
        <ele>289.8</ele>
        <time>2021-04-25T08:48:55Z</time>
      </trkpt>
      <trkpt lat="47.19577" lon="5.96634">
        <ele>290</ele>
        <time>2021-04-25T08:48:56Z</time>
      </trkpt>
      <trkpt lat="47.19576" lon="5.96636">
        <ele>290.2</ele>
        <time>2021-04-25T08:48:57Z</time>
      </trkpt>
      <trkpt lat="47.19576" lon="5.96638">
        <ele>290.4</ele>
        <time>2021-04-25T08:48:58Z</time>
      </trkpt>
      <trkpt lat="47.19575" lon="5.9664">
        <ele>290.8</ele>
        <time>2021-04-25T08:48:59Z</time>
      </trkpt>
      <trkpt lat="47.19574" lon="5.96642">
        <ele>291.2</ele>
        <time>2021-04-25T08:49:00Z</time>
      </trkpt>
      <trkpt lat="47.19574" lon="5.96644">
        <ele>291.6</ele>
        <time>2021-04-25T08:49:01Z</time>
      </trkpt>
      <trkpt lat="47.19573" lon="5.96646">
        <ele>291.8</ele>
        <time>2021-04-25T08:49:02Z</time>
      </trkpt>
      <trkpt lat="47.19572" lon="5.96648">
        <ele>292.2</ele>
        <time>2021-04-25T08:49:03Z</time>
      </trkpt>
      <trkpt lat="47.19572" lon="5.9665">
        <ele>292.4</ele>
        <time>2021-04-25T08:49:04Z</time>
      </trkpt>
      <trkpt lat="47.19572" lon="5.96652">
        <ele>292.6</ele>
        <time>2021-04-25T08:49:05Z</time>
      </trkpt>
      <trkpt lat="47.19571" lon="5.96654">
        <ele>292.8</ele>
        <time>2021-04-25T08:49:06Z</time>
      </trkpt>
      <trkpt lat="47.19571" lon="5.96656">
        <ele>293</ele>
        <time>2021-04-25T08:49:07Z</time>
      </trkpt>
      <trkpt lat="47.19571" lon="5.96658">
        <ele>293.2</ele>
        <time>2021-04-25T08:49:08Z</time>
      </trkpt>
      <trkpt lat="47.19571" lon="5.9666">
        <ele>293.4</ele>
        <time>2021-04-25T08:49:09Z</time>
      </trkpt>
      <trkpt lat="47.19572" lon="5.96663">
        <ele>293.8</ele>
        <time>2021-04-25T08:49:10Z</time>
      </trkpt>
      <trkpt lat="47.19572" lon="5.96665">
        <ele>293.8</ele>
        <time>2021-04-25T08:49:11Z</time>
      </trkpt>
      <trkpt lat="47.19571" lon="5.96667">
        <ele>293.8</ele>
        <time>2021-04-25T08:49:12Z</time>
      </trkpt>
      <trkpt lat="47.19571" lon="5.96669">
        <ele>294.2</ele>
        <time>2021-04-25T08:49:13Z</time>
      </trkpt>
      <trkpt lat="47.19571" lon="5.96671">
        <ele>294.4</ele>
        <time>2021-04-25T08:49:14Z</time>
      </trkpt>
      <trkpt lat="47.19571" lon="5.96673">
        <ele>294.6</ele>
        <time>2021-04-25T08:49:15Z</time>
      </trkpt>
      <trkpt lat="47.19571" lon="5.96675">
        <ele>294.8</ele>
        <time>2021-04-25T08:49:16Z</time>
      </trkpt>
      <trkpt lat="47.1957" lon="5.96677">
        <ele>295.2</ele>
        <time>2021-04-25T08:49:17Z</time>
      </trkpt>
      <trkpt lat="47.1957" lon="5.96679">
        <ele>295.2</ele>
        <time>2021-04-25T08:49:18Z</time>
      </trkpt>
      <trkpt lat="47.1957" lon="5.9668">
        <ele>295.6</ele>
        <time>2021-04-25T08:49:19Z</time>
      </trkpt>
      <trkpt lat="47.1957" lon="5.96682">
        <ele>295.8</ele>
        <time>2021-04-25T08:49:20Z</time>
      </trkpt>
      <trkpt lat="47.19571" lon="5.96683">
        <ele>296.2</ele>
        <time>2021-04-25T08:49:21Z</time>
      </trkpt>
      <trkpt lat="47.1957" lon="5.96684">
        <ele>296.4</ele>
        <time>2021-04-25T08:49:22Z</time>
      </trkpt>
      <trkpt lat="47.19569" lon="5.96686">
        <ele>296.6</ele>
        <time>2021-04-25T08:49:23Z</time>
      </trkpt>
      <trkpt lat="47.1957" lon="5.96688">
        <ele>296.8</ele>
        <time>2021-04-25T08:49:24Z</time>
      </trkpt>
      <trkpt lat="47.1957" lon="5.96689">
        <ele>297</ele>
        <time>2021-04-25T08:49:25Z</time>
      </trkpt>
      <trkpt lat="47.1957" lon="5.96691">
        <ele>297.4</ele>
        <time>2021-04-25T08:49:26Z</time>
      </trkpt>
      <trkpt lat="47.1957" lon="5.96693">
        <ele>297.6</ele>
        <time>2021-04-25T08:49:27Z</time>
      </trkpt>
      <trkpt lat="47.1957" lon="5.96695">
        <ele>298</ele>
        <time>2021-04-25T08:49:28Z</time>
      </trkpt>
      <trkpt lat="47.1957" lon="5.96698">
        <ele>298</ele>
        <time>2021-04-25T08:49:29Z</time>
      </trkpt>
      <trkpt lat="47.19569" lon="5.967">
        <ele>298.2</ele>
        <time>2021-04-25T08:49:30Z</time>
      </trkpt>
      <trkpt lat="47.19568" lon="5.96702">
        <ele>298.6</ele>
        <time>2021-04-25T08:49:31Z</time>
      </trkpt>
      <trkpt lat="47.19568" lon="5.96704">
        <ele>298.8</ele>
        <time>2021-04-25T08:49:32Z</time>
      </trkpt>
      <trkpt lat="47.19568" lon="5.96706">
        <ele>299</ele>
        <time>2021-04-25T08:49:33Z</time>
      </trkpt>
      <trkpt lat="47.19569" lon="5.96708">
        <ele>299.2</ele>
        <time>2021-04-25T08:49:34Z</time>
      </trkpt>
      <trkpt lat="47.19568" lon="5.9671">
        <ele>299.4</ele>
        <time>2021-04-25T08:49:35Z</time>
      </trkpt>
      <trkpt lat="47.19568" lon="5.96712">
        <ele>299.6</ele>
        <time>2021-04-25T08:49:36Z</time>
      </trkpt>
      <trkpt lat="47.19568" lon="5.96714">
        <ele>299.8</ele>
        <time>2021-04-25T08:49:37Z</time>
      </trkpt>
      <trkpt lat="47.19569" lon="5.96715">
        <ele>300</ele>
        <time>2021-04-25T08:49:38Z</time>
      </trkpt>
      <trkpt lat="47.1957" lon="5.96717">
        <ele>300.2</ele>
        <time>2021-04-25T08:49:39Z</time>
      </trkpt>
      <trkpt lat="47.19572" lon="5.96719">
        <ele>300.4</ele>
        <time>2021-04-25T08:49:40Z</time>
      </trkpt>
      <trkpt lat="47.19571" lon="5.96721">
        <ele>300.6</ele>
        <time>2021-04-25T08:49:41Z</time>
      </trkpt>
      <trkpt lat="47.19571" lon="5.96723">
        <ele>301</ele>
        <time>2021-04-25T08:49:42Z</time>
      </trkpt>
      <trkpt lat="47.19571" lon="5.96726">
        <ele>301.2</ele>
        <time>2021-04-25T08:49:43Z</time>
      </trkpt>
      <trkpt lat="47.1957" lon="5.96729">
        <ele>301.6</ele>
        <time>2021-04-25T08:49:44Z</time>
      </trkpt>
      <trkpt lat="47.19571" lon="5.96731">
        <ele>301.6</ele>
        <time>2021-04-25T08:49:45Z</time>
      </trkpt>
      <trkpt lat="47.19571" lon="5.96733">
        <ele>302</ele>
        <time>2021-04-25T08:49:46Z</time>
      </trkpt>
      <trkpt lat="47.19571" lon="5.96735">
        <ele>302</ele>
        <time>2021-04-25T08:49:47Z</time>
      </trkpt>
      <trkpt lat="47.19571" lon="5.96738">
        <ele>302.2</ele>
        <time>2021-04-25T08:49:48Z</time>
      </trkpt>
      <trkpt lat="47.19571" lon="5.9674">
        <ele>302.4</ele>
        <time>2021-04-25T08:49:49Z</time>
      </trkpt>
      <trkpt lat="47.19571" lon="5.96742">
        <ele>302.4</ele>
        <time>2021-04-25T08:49:50Z</time>
      </trkpt>
      <trkpt lat="47.19572" lon="5.96744">
        <ele>302.6</ele>
        <time>2021-04-25T08:49:51Z</time>
      </trkpt>
      <trkpt lat="47.19573" lon="5.96747">
        <ele>302.8</ele>
        <time>2021-04-25T08:49:52Z</time>
      </trkpt>
      <trkpt lat="47.19573" lon="5.96749">
        <ele>303.2</ele>
        <time>2021-04-25T08:49:53Z</time>
      </trkpt>
      <trkpt lat="47.19572" lon="5.9675">
        <ele>303.4</ele>
        <time>2021-04-25T08:49:54Z</time>
      </trkpt>
      <trkpt lat="47.19572" lon="5.96752">
        <ele>303.6</ele>
        <time>2021-04-25T08:49:55Z</time>
      </trkpt>
      <trkpt lat="47.19573" lon="5.96754">
        <ele>304</ele>
        <time>2021-04-25T08:49:56Z</time>
      </trkpt>
      <trkpt lat="47.19574" lon="5.96757">
        <ele>304.2</ele>
        <time>2021-04-25T08:49:57Z</time>
      </trkpt>
      <trkpt lat="47.19575" lon="5.96759">
        <ele>304.4</ele>
        <time>2021-04-25T08:49:58Z</time>
      </trkpt>
      <trkpt lat="47.19576" lon="5.96762">
        <ele>304.6</ele>
        <time>2021-04-25T08:49:59Z</time>
      </trkpt>
      <trkpt lat="47.19575" lon="5.96764">
        <ele>305</ele>
        <time>2021-04-25T08:50:00Z</time>
      </trkpt>
      <trkpt lat="47.19574" lon="5.96766">
        <ele>305.2</ele>
        <time>2021-04-25T08:50:01Z</time>
      </trkpt>
      <trkpt lat="47.19575" lon="5.96767">
        <ele>305.4</ele>
        <time>2021-04-25T08:50:02Z</time>
      </trkpt>
      <trkpt lat="47.19575" lon="5.96768">
        <ele>305.6</ele>
        <time>2021-04-25T08:50:03Z</time>
      </trkpt>
      <trkpt lat="47.19576" lon="5.9677">
        <ele>305.6</ele>
        <time>2021-04-25T08:50:04Z</time>
      </trkpt>
      <trkpt lat="47.19577" lon="5.96771">
        <ele>306</ele>
        <time>2021-04-25T08:50:05Z</time>
      </trkpt>
      <trkpt lat="47.19578" lon="5.96772">
        <ele>306</ele>
        <time>2021-04-25T08:50:06Z</time>
      </trkpt>
      <trkpt lat="47.19579" lon="5.96774">
        <ele>306.2</ele>
        <time>2021-04-25T08:50:07Z</time>
      </trkpt>
      <trkpt lat="47.19579" lon="5.96775">
        <ele>306.2</ele>
        <time>2021-04-25T08:50:08Z</time>
      </trkpt>
      <trkpt lat="47.1958" lon="5.96776">
        <ele>306.6</ele>
        <time>2021-04-25T08:50:09Z</time>
      </trkpt>
      <trkpt lat="47.19582" lon="5.96777">
        <ele>306.8</ele>
        <time>2021-04-25T08:50:10Z</time>
      </trkpt>
      <trkpt lat="47.19583" lon="5.96778">
        <ele>307</ele>
        <time>2021-04-25T08:50:11Z</time>
      </trkpt>
      <trkpt lat="47.19584" lon="5.96779">
        <ele>307.4</ele>
        <time>2021-04-25T08:50:12Z</time>
      </trkpt>
      <trkpt lat="47.19585" lon="5.9678">
        <ele>307.4</ele>
        <time>2021-04-25T08:50:13Z</time>
      </trkpt>
      <trkpt lat="47.19587" lon="5.96781">
        <ele>307.8</ele>
        <time>2021-04-25T08:50:14Z</time>
      </trkpt>
      <trkpt lat="47.19589" lon="5.96783">
        <ele>307.8</ele>
        <time>2021-04-25T08:50:15Z</time>
      </trkpt>
      <trkpt lat="47.1959" lon="5.96784">
        <ele>308.2</ele>
        <time>2021-04-25T08:50:16Z</time>
      </trkpt>
      <trkpt lat="47.19592" lon="5.96786">
        <ele>308.4</ele>
        <time>2021-04-25T08:50:17Z</time>
      </trkpt>
      <trkpt lat="47.19593" lon="5.96787">
        <ele>308.4</ele>
        <time>2021-04-25T08:50:18Z</time>
      </trkpt>
      <trkpt lat="47.19594" lon="5.96789">
        <ele>308.8</ele>
        <time>2021-04-25T08:50:19Z</time>
      </trkpt>
      <trkpt lat="47.19596" lon="5.9679">
        <ele>309</ele>
        <time>2021-04-25T08:50:20Z</time>
      </trkpt>
      <trkpt lat="47.19597" lon="5.96792">
        <ele>309.4</ele>
        <time>2021-04-25T08:50:21Z</time>
      </trkpt>
      <trkpt lat="47.19599" lon="5.96793">
        <ele>309.6</ele>
        <time>2021-04-25T08:50:22Z</time>
      </trkpt>
      <trkpt lat="47.196" lon="5.96795">
        <ele>309.8</ele>
        <time>2021-04-25T08:50:23Z</time>
      </trkpt>
      <trkpt lat="47.19602" lon="5.96796">
        <ele>310</ele>
        <time>2021-04-25T08:50:24Z</time>
      </trkpt>
      <trkpt lat="47.19603" lon="5.96798">
        <ele>310.2</ele>
        <time>2021-04-25T08:50:25Z</time>
      </trkpt>
      <trkpt lat="47.19605" lon="5.96799">
        <ele>310.6</ele>
        <time>2021-04-25T08:50:26Z</time>
      </trkpt>
      <trkpt lat="47.19606" lon="5.968">
        <ele>310.6</ele>
        <time>2021-04-25T08:50:27Z</time>
      </trkpt>
      <trkpt lat="47.19607" lon="5.96802">
        <ele>311</ele>
        <time>2021-04-25T08:50:28Z</time>
      </trkpt>
      <trkpt lat="47.19608" lon="5.96804">
        <ele>311</ele>
        <time>2021-04-25T08:50:29Z</time>
      </trkpt>
      <trkpt lat="47.19609" lon="5.96806">
        <ele>311.2</ele>
        <time>2021-04-25T08:50:30Z</time>
      </trkpt>
      <trkpt lat="47.1961" lon="5.96808">
        <ele>311.4</ele>
        <time>2021-04-25T08:50:31Z</time>
      </trkpt>
      <trkpt lat="47.19611" lon="5.96809">
        <ele>311.8</ele>
        <time>2021-04-25T08:50:32Z</time>
      </trkpt>
      <trkpt lat="47.19612" lon="5.96811">
        <ele>312</ele>
        <time>2021-04-25T08:50:33Z</time>
      </trkpt>
      <trkpt lat="47.19614" lon="5.96813">
        <ele>312.4</ele>
        <time>2021-04-25T08:50:34Z</time>
      </trkpt>
      <trkpt lat="47.19615" lon="5.96814">
        <ele>312.6</ele>
        <time>2021-04-25T08:50:35Z</time>
      </trkpt>
      <trkpt lat="47.19617" lon="5.96816">
        <ele>312.8</ele>
        <time>2021-04-25T08:50:36Z</time>
      </trkpt>
      <trkpt lat="47.19618" lon="5.96817">
        <ele>313</ele>
        <time>2021-04-25T08:50:37Z</time>
      </trkpt>
      <trkpt lat="47.1962" lon="5.96819">
        <ele>313.2</ele>
        <time>2021-04-25T08:50:38Z</time>
      </trkpt>
      <trkpt lat="47.19621" lon="5.9682">
        <ele>313.4</ele>
        <time>2021-04-25T08:50:39Z</time>
      </trkpt>
      <trkpt lat="47.19622" lon="5.96822">
        <ele>313.6</ele>
        <time>2021-04-25T08:50:40Z</time>
      </trkpt>
      <trkpt lat="47.19624" lon="5.96823">
        <ele>314</ele>
        <time>2021-04-25T08:50:41Z</time>
      </trkpt>
      <trkpt lat="47.19626" lon="5.96824">
        <ele>314.2</ele>
        <time>2021-04-25T08:50:42Z</time>
      </trkpt>
      <trkpt lat="47.19627" lon="5.96826">
        <ele>314.4</ele>
        <time>2021-04-25T08:50:43Z</time>
      </trkpt>
      <trkpt lat="47.19628" lon="5.96827">
        <ele>314.6</ele>
        <time>2021-04-25T08:50:44Z</time>
      </trkpt>
      <trkpt lat="47.19629" lon="5.96829">
        <ele>314.6</ele>
        <time>2021-04-25T08:50:45Z</time>
      </trkpt>
      <trkpt lat="47.1963" lon="5.9683">
        <ele>314.8</ele>
        <time>2021-04-25T08:50:46Z</time>
      </trkpt>
      <trkpt lat="47.19631" lon="5.96832">
        <ele>315</ele>
        <time>2021-04-25T08:50:47Z</time>
      </trkpt>
      <trkpt lat="47.19632" lon="5.96833">
        <ele>315.2</ele>
        <time>2021-04-25T08:50:48Z</time>
      </trkpt>
      <trkpt lat="47.19633" lon="5.96835">
        <ele>315.4</ele>
        <time>2021-04-25T08:50:49Z</time>
      </trkpt>
      <trkpt lat="47.19633" lon="5.96836">
        <ele>315.6</ele>
        <time>2021-04-25T08:50:50Z</time>
      </trkpt>
      <trkpt lat="47.19633" lon="5.96837">
        <ele>316</ele>
        <time>2021-04-25T08:50:51Z</time>
      </trkpt>
      <trkpt lat="47.19633" lon="5.96837">
        <ele>316.2</ele>
        <time>2021-04-25T08:50:52Z</time>
      </trkpt>
      <trkpt lat="47.19633" lon="5.96837">
        <ele>316.4</ele>
        <time>2021-04-25T08:50:53Z</time>
      </trkpt>
      <trkpt lat="47.19633" lon="5.96838">
        <ele>316.8</ele>
        <time>2021-04-25T08:51:01Z</time>
      </trkpt>
      <trkpt lat="47.19633" lon="5.96838">
        <ele>317.4</ele>
        <time>2021-04-25T08:51:19Z</time>
      </trkpt>
      <trkpt lat="47.19633" lon="5.96838">
        <ele>317.4</ele>
        <time>2021-04-25T08:51:31Z</time>
      </trkpt>
      <trkpt lat="47.19632" lon="5.96839">
        <ele>317.6</ele>
        <time>2021-04-25T08:53:39Z</time>
      </trkpt>
      <trkpt lat="47.19631" lon="5.96841">
        <ele>317.6</ele>
        <time>2021-04-25T08:53:40Z</time>
      </trkpt>
      <trkpt lat="47.1963" lon="5.96844">
        <ele>317.6</ele>
        <time>2021-04-25T08:53:41Z</time>
      </trkpt>
      <trkpt lat="47.19626" lon="5.96847">
        <ele>317.6</ele>
        <time>2021-04-25T08:53:43Z</time>
      </trkpt>
      <trkpt lat="47.19624" lon="5.96847">
        <ele>317.6</ele>
        <time>2021-04-25T08:53:44Z</time>
      </trkpt>
      <trkpt lat="47.19622" lon="5.96847">
        <ele>317.6</ele>
        <time>2021-04-25T08:53:45Z</time>
      </trkpt>
      <trkpt lat="47.1962" lon="5.96847">
        <ele>317.6</ele>
        <time>2021-04-25T08:53:46Z</time>
      </trkpt>
      <trkpt lat="47.19618" lon="5.96846">
        <ele>317.8</ele>
        <time>2021-04-25T08:53:47Z</time>
      </trkpt>
      <trkpt lat="47.19617" lon="5.96845">
        <ele>317.8</ele>
        <time>2021-04-25T08:53:48Z</time>
      </trkpt>
      <trkpt lat="47.1961" lon="5.96841">
        <ele>318.2</ele>
        <time>2021-04-25T08:53:52Z</time>
      </trkpt>
      <trkpt lat="47.19608" lon="5.96839">
        <ele>318.8</ele>
        <time>2021-04-25T08:53:53Z</time>
      </trkpt>
      <trkpt lat="47.19607" lon="5.96839">
        <ele>319</ele>
        <time>2021-04-25T08:53:54Z</time>
      </trkpt>
      <trkpt lat="47.19605" lon="5.96838">
        <ele>319.4</ele>
        <time>2021-04-25T08:53:55Z</time>
      </trkpt>
      <trkpt lat="47.19604" lon="5.96836">
        <ele>319.8</ele>
        <time>2021-04-25T08:53:56Z</time>
      </trkpt>
      <trkpt lat="47.19601" lon="5.96835">
        <ele>320.6</ele>
        <time>2021-04-25T08:53:58Z</time>
      </trkpt>
      <trkpt lat="47.196" lon="5.96834">
        <ele>320.8</ele>
        <time>2021-04-25T08:53:59Z</time>
      </trkpt>
      <trkpt lat="47.19598" lon="5.96833">
        <ele>321</ele>
        <time>2021-04-25T08:54:00Z</time>
      </trkpt>
      <trkpt lat="47.19597" lon="5.96831">
        <ele>321.2</ele>
        <time>2021-04-25T08:54:01Z</time>
      </trkpt>
      <trkpt lat="47.19596" lon="5.96831">
        <ele>321.6</ele>
        <time>2021-04-25T08:54:02Z</time>
      </trkpt>
      <trkpt lat="47.19595" lon="5.9683">
        <ele>321.8</ele>
        <time>2021-04-25T08:54:03Z</time>
      </trkpt>
      <trkpt lat="47.19594" lon="5.9683">
        <ele>321.8</ele>
        <time>2021-04-25T08:54:04Z</time>
      </trkpt>
      <trkpt lat="47.19592" lon="5.9683">
        <ele>322.2</ele>
        <time>2021-04-25T08:54:05Z</time>
      </trkpt>
      <trkpt lat="47.1959" lon="5.96832">
        <ele>322.2</ele>
        <time>2021-04-25T08:54:06Z</time>
      </trkpt>
      <trkpt lat="47.19588" lon="5.96834">
        <ele>322.4</ele>
        <time>2021-04-25T08:54:07Z</time>
      </trkpt>
      <trkpt lat="47.19587" lon="5.96835">
        <ele>322.6</ele>
        <time>2021-04-25T08:54:08Z</time>
      </trkpt>
      <trkpt lat="47.19585" lon="5.96836">
        <ele>323</ele>
        <time>2021-04-25T08:54:09Z</time>
      </trkpt>
      <trkpt lat="47.19583" lon="5.96837">
        <ele>323.2</ele>
        <time>2021-04-25T08:54:10Z</time>
      </trkpt>
      <trkpt lat="47.19581" lon="5.96838">
        <ele>323.4</ele>
        <time>2021-04-25T08:54:11Z</time>
      </trkpt>
      <trkpt lat="47.19579" lon="5.96839">
        <ele>323.6</ele>
        <time>2021-04-25T08:54:12Z</time>
      </trkpt>
      <trkpt lat="47.19578" lon="5.9684">
        <ele>323.6</ele>
        <time>2021-04-25T08:54:13Z</time>
      </trkpt>
      <trkpt lat="47.19576" lon="5.96841">
        <ele>324</ele>
        <time>2021-04-25T08:54:14Z</time>
      </trkpt>
      <trkpt lat="47.19575" lon="5.96842">
        <ele>324.2</ele>
        <time>2021-04-25T08:54:15Z</time>
      </trkpt>
      <trkpt lat="47.19574" lon="5.96844">
        <ele>324.6</ele>
        <time>2021-04-25T08:54:16Z</time>
      </trkpt>
      <trkpt lat="47.19573" lon="5.96845">
        <ele>324.8</ele>
        <time>2021-04-25T08:54:17Z</time>
      </trkpt>
      <trkpt lat="47.19572" lon="5.96846">
        <ele>325.6</ele>
        <time>2021-04-25T08:54:18Z</time>
      </trkpt>
      <trkpt lat="47.19571" lon="5.96845">
        <ele>325.8</ele>
        <time>2021-04-25T08:54:19Z</time>
      </trkpt>
      <trkpt lat="47.19569" lon="5.96846">
        <ele>326.4</ele>
        <time>2021-04-25T08:54:20Z</time>
      </trkpt>
      <trkpt lat="47.19568" lon="5.96846">
        <ele>326.6</ele>
        <time>2021-04-25T08:54:21Z</time>
      </trkpt>
      <trkpt lat="47.19567" lon="5.96846">
        <ele>326.8</ele>
        <time>2021-04-25T08:54:22Z</time>
      </trkpt>
      <trkpt lat="47.19566" lon="5.96846">
        <ele>327</ele>
        <time>2021-04-25T08:54:23Z</time>
      </trkpt>
      <trkpt lat="47.19565" lon="5.96847">
        <ele>327</ele>
        <time>2021-04-25T08:54:24Z</time>
      </trkpt>
      <trkpt lat="47.19564" lon="5.96848">
        <ele>327.2</ele>
        <time>2021-04-25T08:54:25Z</time>
      </trkpt>
      <trkpt lat="47.19562" lon="5.96848">
        <ele>327.4</ele>
        <time>2021-04-25T08:54:26Z</time>
      </trkpt>
      <trkpt lat="47.1956" lon="5.96849">
        <ele>327.6</ele>
        <time>2021-04-25T08:54:27Z</time>
      </trkpt>
      <trkpt lat="47.19559" lon="5.9685">
        <ele>327.8</ele>
        <time>2021-04-25T08:54:28Z</time>
      </trkpt>
      <trkpt lat="47.19557" lon="5.96851">
        <ele>328</ele>
        <time>2021-04-25T08:54:29Z</time>
      </trkpt>
      <trkpt lat="47.19556" lon="5.96852">
        <ele>328</ele>
        <time>2021-04-25T08:54:30Z</time>
      </trkpt>
      <trkpt lat="47.19555" lon="5.96852">
        <ele>328.2</ele>
        <time>2021-04-25T08:54:31Z</time>
      </trkpt>
      <trkpt lat="47.19554" lon="5.96854">
        <ele>328.6</ele>
        <time>2021-04-25T08:54:32Z</time>
      </trkpt>
      <trkpt lat="47.19553" lon="5.96855">
        <ele>328.6</ele>
        <time>2021-04-25T08:54:33Z</time>
      </trkpt>
      <trkpt lat="47.19552" lon="5.96856">
        <ele>329</ele>
        <time>2021-04-25T08:54:34Z</time>
      </trkpt>
      <trkpt lat="47.19549" lon="5.96857">
        <ele>329.2</ele>
        <time>2021-04-25T08:54:35Z</time>
      </trkpt>
      <trkpt lat="47.19549" lon="5.96857">
        <ele>329.6</ele>
        <time>2021-04-25T08:54:36Z</time>
      </trkpt>
      <trkpt lat="47.19548" lon="5.96858">
        <ele>329.8</ele>
        <time>2021-04-25T08:54:37Z</time>
      </trkpt>
      <trkpt lat="47.19548" lon="5.96858">
        <ele>330</ele>
        <time>2021-04-25T08:54:38Z</time>
      </trkpt>
      <trkpt lat="47.19547" lon="5.96858">
        <ele>330.4</ele>
        <time>2021-04-25T08:54:39Z</time>
      </trkpt>
      <trkpt lat="47.19547" lon="5.96858">
        <ele>331.2</ele>
        <time>2021-04-25T08:54:44Z</time>
      </trkpt>
      <trkpt lat="47.19547" lon="5.96858">
        <ele>331.4</ele>
        <time>2021-04-25T08:54:45Z</time>
      </trkpt>
      <trkpt lat="47.19547" lon="5.96858">
        <ele>331.8</ele>
        <time>2021-04-25T08:54:59Z</time>
      </trkpt>
      <trkpt lat="47.19547" lon="5.96858">
        <ele>331.8</ele>
        <time>2021-04-25T08:55:10Z</time>
      </trkpt>
      <trkpt lat="47.19544" lon="5.96861">
        <ele>331.8</ele>
        <time>2021-04-25T08:55:12Z</time>
      </trkpt>
      <trkpt lat="47.19542" lon="5.96863">
        <ele>331.8</ele>
        <time>2021-04-25T08:55:13Z</time>
      </trkpt>
      <trkpt lat="47.19539" lon="5.96865">
        <ele>331.8</ele>
        <time>2021-04-25T08:55:15Z</time>
      </trkpt>
      <trkpt lat="47.19538" lon="5.96866">
        <ele>332</ele>
        <time>2021-04-25T08:55:16Z</time>
      </trkpt>
      <trkpt lat="47.19534" lon="5.96869">
        <ele>332.4</ele>
        <time>2021-04-25T08:55:18Z</time>
      </trkpt>
      <trkpt lat="47.19532" lon="5.96871">
        <ele>332.8</ele>
        <time>2021-04-25T08:55:20Z</time>
      </trkpt>
      <trkpt lat="47.19529" lon="5.96873">
        <ele>333.4</ele>
        <time>2021-04-25T08:55:22Z</time>
      </trkpt>
      <trkpt lat="47.19522" lon="5.96877">
        <ele>334.2</ele>
        <time>2021-04-25T08:55:26Z</time>
      </trkpt>
      <trkpt lat="47.19521" lon="5.96877">
        <ele>334.4</ele>
        <time>2021-04-25T08:55:27Z</time>
      </trkpt>
      <trkpt lat="47.1952" lon="5.96877">
        <ele>334.6</ele>
        <time>2021-04-25T08:55:28Z</time>
      </trkpt>
      <trkpt lat="47.19519" lon="5.96878">
        <ele>335.2</ele>
        <time>2021-04-25T08:55:29Z</time>
      </trkpt>
      <trkpt lat="47.19518" lon="5.96879">
        <ele>335.4</ele>
        <time>2021-04-25T08:55:30Z</time>
      </trkpt>
      <trkpt lat="47.19517" lon="5.96881">
        <ele>335.6</ele>
        <time>2021-04-25T08:55:31Z</time>
      </trkpt>
      <trkpt lat="47.19516" lon="5.96883">
        <ele>335.8</ele>
        <time>2021-04-25T08:55:32Z</time>
      </trkpt>
      <trkpt lat="47.19515" lon="5.96885">
        <ele>336</ele>
        <time>2021-04-25T08:55:33Z</time>
      </trkpt>
      <trkpt lat="47.19513" lon="5.96887">
        <ele>336</ele>
        <time>2021-04-25T08:55:34Z</time>
      </trkpt>
      <trkpt lat="47.19513" lon="5.96889">
        <ele>336</ele>
        <time>2021-04-25T08:55:35Z</time>
      </trkpt>
      <trkpt lat="47.19513" lon="5.9689">
        <ele>336.2</ele>
        <time>2021-04-25T08:55:36Z</time>
      </trkpt>
      <trkpt lat="47.19511" lon="5.96891">
        <ele>336.4</ele>
        <time>2021-04-25T08:55:37Z</time>
      </trkpt>
      <trkpt lat="47.19509" lon="5.96892">
        <ele>336.6</ele>
        <time>2021-04-25T08:55:38Z</time>
      </trkpt>
      <trkpt lat="47.19509" lon="5.96893">
        <ele>336.8</ele>
        <time>2021-04-25T08:55:39Z</time>
      </trkpt>
      <trkpt lat="47.19506" lon="5.96897">
        <ele>337.4</ele>
        <time>2021-04-25T08:55:42Z</time>
      </trkpt>
      <trkpt lat="47.19503" lon="5.96899">
        <ele>337.6</ele>
        <time>2021-04-25T08:55:43Z</time>
      </trkpt>
      <trkpt lat="47.19501" lon="5.96901">
        <ele>337.8</ele>
        <time>2021-04-25T08:55:44Z</time>
      </trkpt>
      <trkpt lat="47.19501" lon="5.96903">
        <ele>338</ele>
        <time>2021-04-25T08:55:45Z</time>
      </trkpt>
      <trkpt lat="47.19501" lon="5.96905">
        <ele>338.2</ele>
        <time>2021-04-25T08:55:46Z</time>
      </trkpt>
      <trkpt lat="47.195" lon="5.96908">
        <ele>338.4</ele>
        <time>2021-04-25T08:55:47Z</time>
      </trkpt>
      <trkpt lat="47.195" lon="5.96909">
        <ele>338.6</ele>
        <time>2021-04-25T08:55:48Z</time>
      </trkpt>
      <trkpt lat="47.19499" lon="5.96911">
        <ele>338.8</ele>
        <time>2021-04-25T08:55:49Z</time>
      </trkpt>
      <trkpt lat="47.19498" lon="5.96915">
        <ele>339.2</ele>
        <time>2021-04-25T08:55:50Z</time>
      </trkpt>
      <trkpt lat="47.19497" lon="5.96917">
        <ele>339.2</ele>
        <time>2021-04-25T08:55:51Z</time>
      </trkpt>
      <trkpt lat="47.19496" lon="5.96919">
        <ele>339.4</ele>
        <time>2021-04-25T08:55:52Z</time>
      </trkpt>
      <trkpt lat="47.19496" lon="5.96922">
        <ele>339.4</ele>
        <time>2021-04-25T08:55:53Z</time>
      </trkpt>
      <trkpt lat="47.19496" lon="5.96924">
        <ele>339.8</ele>
        <time>2021-04-25T08:55:54Z</time>
      </trkpt>
      <trkpt lat="47.19495" lon="5.96926">
        <ele>340</ele>
        <time>2021-04-25T08:55:55Z</time>
      </trkpt>
      <trkpt lat="47.19493" lon="5.96928">
        <ele>340.4</ele>
        <time>2021-04-25T08:55:56Z</time>
      </trkpt>
      <trkpt lat="47.19493" lon="5.9693">
        <ele>340.6</ele>
        <time>2021-04-25T08:55:57Z</time>
      </trkpt>
      <trkpt lat="47.19493" lon="5.96931">
        <ele>340.6</ele>
        <time>2021-04-25T08:55:58Z</time>
      </trkpt>
      <trkpt lat="47.19493" lon="5.96932">
        <ele>340.8</ele>
        <time>2021-04-25T08:55:59Z</time>
      </trkpt>
      <trkpt lat="47.19493" lon="5.96933">
        <ele>340.8</ele>
        <time>2021-04-25T08:56:00Z</time>
      </trkpt>
      <trkpt lat="47.19493" lon="5.96935">
        <ele>341.2</ele>
        <time>2021-04-25T08:56:01Z</time>
      </trkpt>
      <trkpt lat="47.19493" lon="5.96938">
        <ele>341.4</ele>
        <time>2021-04-25T08:56:02Z</time>
      </trkpt>
      <trkpt lat="47.19491" lon="5.9694">
        <ele>341.6</ele>
        <time>2021-04-25T08:56:03Z</time>
      </trkpt>
      <trkpt lat="47.1949" lon="5.96943">
        <ele>341.6</ele>
        <time>2021-04-25T08:56:04Z</time>
      </trkpt>
      <trkpt lat="47.1949" lon="5.96944">
        <ele>341.8</ele>
        <time>2021-04-25T08:56:05Z</time>
      </trkpt>
      <trkpt lat="47.1949" lon="5.96945">
        <ele>341.8</ele>
        <time>2021-04-25T08:56:06Z</time>
      </trkpt>
      <trkpt lat="47.1949" lon="5.96945">
        <ele>342</ele>
        <time>2021-04-25T08:56:07Z</time>
      </trkpt>
      <trkpt lat="47.19489" lon="5.96947">
        <ele>342.2</ele>
        <time>2021-04-25T08:56:08Z</time>
      </trkpt>
      <trkpt lat="47.19488" lon="5.96949">
        <ele>342.2</ele>
        <time>2021-04-25T08:56:09Z</time>
      </trkpt>
      <trkpt lat="47.19488" lon="5.96951">
        <ele>342.6</ele>
        <time>2021-04-25T08:56:10Z</time>
      </trkpt>
      <trkpt lat="47.19488" lon="5.96953">
        <ele>342.6</ele>
        <time>2021-04-25T08:56:11Z</time>
      </trkpt>
      <trkpt lat="47.19488" lon="5.96954">
        <ele>343</ele>
        <time>2021-04-25T08:56:12Z</time>
      </trkpt>
      <trkpt lat="47.19488" lon="5.96955">
        <ele>343</ele>
        <time>2021-04-25T08:56:13Z</time>
      </trkpt>
      <trkpt lat="47.19488" lon="5.96956">
        <ele>343.2</ele>
        <time>2021-04-25T08:56:14Z</time>
      </trkpt>
      <trkpt lat="47.19487" lon="5.96958">
        <ele>343.2</ele>
        <time>2021-04-25T08:56:15Z</time>
      </trkpt>
      <trkpt lat="47.19487" lon="5.96961">
        <ele>343.4</ele>
        <time>2021-04-25T08:56:16Z</time>
      </trkpt>
      <trkpt lat="47.19487" lon="5.96963">
        <ele>343.4</ele>
        <time>2021-04-25T08:56:17Z</time>
      </trkpt>
      <trkpt lat="47.19486" lon="5.96964">
        <ele>343.4</ele>
        <time>2021-04-25T08:56:18Z</time>
      </trkpt>
      <trkpt lat="47.19486" lon="5.96965">
        <ele>343.6</ele>
        <time>2021-04-25T08:56:19Z</time>
      </trkpt>
      <trkpt lat="47.19486" lon="5.96966">
        <ele>343.6</ele>
        <time>2021-04-25T08:56:20Z</time>
      </trkpt>
      <trkpt lat="47.19485" lon="5.96968">
        <ele>343.6</ele>
        <time>2021-04-25T08:56:21Z</time>
      </trkpt>
      <trkpt lat="47.19485" lon="5.9697">
        <ele>344</ele>
        <time>2021-04-25T08:56:22Z</time>
      </trkpt>
      <trkpt lat="47.19484" lon="5.96972">
        <ele>343.8</ele>
        <time>2021-04-25T08:56:23Z</time>
      </trkpt>
      <trkpt lat="47.19483" lon="5.96974">
        <ele>344</ele>
        <time>2021-04-25T08:56:24Z</time>
      </trkpt>
      <trkpt lat="47.19482" lon="5.96975">
        <ele>344.2</ele>
        <time>2021-04-25T08:56:25Z</time>
      </trkpt>
      <trkpt lat="47.19481" lon="5.96977">
        <ele>344.4</ele>
        <time>2021-04-25T08:56:26Z</time>
      </trkpt>
      <trkpt lat="47.19481" lon="5.96979">
        <ele>344.4</ele>
        <time>2021-04-25T08:56:27Z</time>
      </trkpt>
      <trkpt lat="47.1948" lon="5.96981">
        <ele>344.6</ele>
        <time>2021-04-25T08:56:28Z</time>
      </trkpt>
      <trkpt lat="47.1948" lon="5.96984">
        <ele>344.6</ele>
        <time>2021-04-25T08:56:29Z</time>
      </trkpt>
      <trkpt lat="47.19477" lon="5.96987">
        <ele>344.8</ele>
        <time>2021-04-25T08:56:30Z</time>
      </trkpt>
      <trkpt lat="47.19477" lon="5.96989">
        <ele>344.8</ele>
        <time>2021-04-25T08:56:31Z</time>
      </trkpt>
      <trkpt lat="47.19476" lon="5.96992">
        <ele>345</ele>
        <time>2021-04-25T08:56:32Z</time>
      </trkpt>
      <trkpt lat="47.19475" lon="5.96994">
        <ele>345.2</ele>
        <time>2021-04-25T08:56:33Z</time>
      </trkpt>
      <trkpt lat="47.19474" lon="5.96996">
        <ele>345.4</ele>
        <time>2021-04-25T08:56:34Z</time>
      </trkpt>
      <trkpt lat="47.19473" lon="5.96997">
        <ele>345.4</ele>
        <time>2021-04-25T08:56:35Z</time>
      </trkpt>
      <trkpt lat="47.19473" lon="5.96999">
        <ele>345.6</ele>
        <time>2021-04-25T08:56:36Z</time>
      </trkpt>
      <trkpt lat="47.19473" lon="5.97">
        <ele>345.8</ele>
        <time>2021-04-25T08:56:37Z</time>
      </trkpt>
      <trkpt lat="47.19473" lon="5.97003">
        <ele>346</ele>
        <time>2021-04-25T08:56:38Z</time>
      </trkpt>
      <trkpt lat="47.19472" lon="5.97005">
        <ele>346</ele>
        <time>2021-04-25T08:56:39Z</time>
      </trkpt>
      <trkpt lat="47.19472" lon="5.97009">
        <ele>346</ele>
        <time>2021-04-25T08:56:40Z</time>
      </trkpt>
      <trkpt lat="47.1947" lon="5.97012">
        <ele>346.2</ele>
        <time>2021-04-25T08:56:41Z</time>
      </trkpt>
      <trkpt lat="47.19467" lon="5.97014">
        <ele>346.2</ele>
        <time>2021-04-25T08:56:42Z</time>
      </trkpt>
      <trkpt lat="47.19466" lon="5.97016">
        <ele>346.4</ele>
        <time>2021-04-25T08:56:43Z</time>
      </trkpt>
      <trkpt lat="47.19464" lon="5.97018">
        <ele>346.4</ele>
        <time>2021-04-25T08:56:44Z</time>
      </trkpt>
      <trkpt lat="47.19463" lon="5.97021">
        <ele>346.4</ele>
        <time>2021-04-25T08:56:45Z</time>
      </trkpt>
      <trkpt lat="47.19462" lon="5.97023">
        <ele>346.4</ele>
        <time>2021-04-25T08:56:46Z</time>
      </trkpt>
      <trkpt lat="47.19462" lon="5.97025">
        <ele>346.6</ele>
        <time>2021-04-25T08:56:47Z</time>
      </trkpt>
      <trkpt lat="47.19463" lon="5.97029">
        <ele>346.6</ele>
        <time>2021-04-25T08:56:48Z</time>
      </trkpt>
      <trkpt lat="47.19463" lon="5.97033">
        <ele>346.6</ele>
        <time>2021-04-25T08:56:49Z</time>
      </trkpt>
      <trkpt lat="47.19462" lon="5.97036">
        <ele>346.6</ele>
        <time>2021-04-25T08:56:50Z</time>
      </trkpt>
      <trkpt lat="47.19462" lon="5.97039">
        <ele>346.6</ele>
        <time>2021-04-25T08:56:51Z</time>
      </trkpt>
      <trkpt lat="47.19463" lon="5.97043">
        <ele>346.6</ele>
        <time>2021-04-25T08:56:52Z</time>
      </trkpt>
      <trkpt lat="47.19461" lon="5.97047">
        <ele>347</ele>
        <time>2021-04-25T08:56:53Z</time>
      </trkpt>
      <trkpt lat="47.1946" lon="5.97048">
        <ele>347</ele>
        <time>2021-04-25T08:56:54Z</time>
      </trkpt>
      <trkpt lat="47.19457" lon="5.97048">
        <ele>346.8</ele>
        <time>2021-04-25T08:56:55Z</time>
      </trkpt>
      <trkpt lat="47.19454" lon="5.97052">
        <ele>347</ele>
        <time>2021-04-25T08:56:57Z</time>
      </trkpt>
      <trkpt lat="47.19454" lon="5.97055">
        <ele>347.2</ele>
        <time>2021-04-25T08:56:58Z</time>
      </trkpt>
      <trkpt lat="47.19456" lon="5.9706">
        <ele>347.2</ele>
        <time>2021-04-25T08:56:59Z</time>
      </trkpt>
      <trkpt lat="47.19455" lon="5.97061">
        <ele>347.4</ele>
        <time>2021-04-25T08:57:00Z</time>
      </trkpt>
      <trkpt lat="47.19455" lon="5.97063">
        <ele>347.4</ele>
        <time>2021-04-25T08:57:01Z</time>
      </trkpt>
      <trkpt lat="47.19453" lon="5.97066">
        <ele>347.6</ele>
        <time>2021-04-25T08:57:02Z</time>
      </trkpt>
      <trkpt lat="47.1945" lon="5.97069">
        <ele>347.8</ele>
        <time>2021-04-25T08:57:03Z</time>
      </trkpt>
      <trkpt lat="47.19447" lon="5.9707">
        <ele>347.8</ele>
        <time>2021-04-25T08:57:04Z</time>
      </trkpt>
      <trkpt lat="47.19447" lon="5.97072">
        <ele>348</ele>
        <time>2021-04-25T08:57:05Z</time>
      </trkpt>
      <trkpt lat="47.19446" lon="5.97075">
        <ele>348.2</ele>
        <time>2021-04-25T08:57:06Z</time>
      </trkpt>
      <trkpt lat="47.19445" lon="5.97079">
        <ele>348.4</ele>
        <time>2021-04-25T08:57:07Z</time>
      </trkpt>
      <trkpt lat="47.19443" lon="5.97081">
        <ele>348.4</ele>
        <time>2021-04-25T08:57:08Z</time>
      </trkpt>
      <trkpt lat="47.19441" lon="5.97082">
        <ele>348.6</ele>
        <time>2021-04-25T08:57:09Z</time>
      </trkpt>
      <trkpt lat="47.1944" lon="5.97084">
        <ele>348.6</ele>
        <time>2021-04-25T08:57:10Z</time>
      </trkpt>
      <trkpt lat="47.19441" lon="5.97087">
        <ele>348.8</ele>
        <time>2021-04-25T08:57:11Z</time>
      </trkpt>
      <trkpt lat="47.19443" lon="5.97091">
        <ele>349</ele>
        <time>2021-04-25T08:57:12Z</time>
      </trkpt>
      <trkpt lat="47.19442" lon="5.97093">
        <ele>349</ele>
        <time>2021-04-25T08:57:13Z</time>
      </trkpt>
      <trkpt lat="47.19442" lon="5.97095">
        <ele>349.2</ele>
        <time>2021-04-25T08:57:14Z</time>
      </trkpt>
      <trkpt lat="47.19441" lon="5.97096">
        <ele>349.4</ele>
        <time>2021-04-25T08:57:15Z</time>
      </trkpt>
      <trkpt lat="47.1944" lon="5.97098">
        <ele>349.4</ele>
        <time>2021-04-25T08:57:16Z</time>
      </trkpt>
      <trkpt lat="47.19439" lon="5.971">
        <ele>349.6</ele>
        <time>2021-04-25T08:57:17Z</time>
      </trkpt>
      <trkpt lat="47.19439" lon="5.97102">
        <ele>349.8</ele>
        <time>2021-04-25T08:57:18Z</time>
      </trkpt>
      <trkpt lat="47.1944" lon="5.97105">
        <ele>350</ele>
        <time>2021-04-25T08:57:19Z</time>
      </trkpt>
      <trkpt lat="47.19441" lon="5.97108">
        <ele>350</ele>
        <time>2021-04-25T08:57:20Z</time>
      </trkpt>
      <trkpt lat="47.19442" lon="5.97111">
        <ele>350.2</ele>
        <time>2021-04-25T08:57:21Z</time>
      </trkpt>
      <trkpt lat="47.19442" lon="5.97114">
        <ele>350.2</ele>
        <time>2021-04-25T08:57:22Z</time>
      </trkpt>
      <trkpt lat="47.19443" lon="5.97115">
        <ele>350.2</ele>
        <time>2021-04-25T08:57:23Z</time>
      </trkpt>
      <trkpt lat="47.19443" lon="5.97117">
        <ele>350.2</ele>
        <time>2021-04-25T08:57:24Z</time>
      </trkpt>
      <trkpt lat="47.19443" lon="5.97119">
        <ele>350.4</ele>
        <time>2021-04-25T08:57:25Z</time>
      </trkpt>
      <trkpt lat="47.19443" lon="5.97121">
        <ele>350.4</ele>
        <time>2021-04-25T08:57:26Z</time>
      </trkpt>
      <trkpt lat="47.19444" lon="5.97124">
        <ele>350.4</ele>
        <time>2021-04-25T08:57:27Z</time>
      </trkpt>
      <trkpt lat="47.19445" lon="5.97128">
        <ele>350.6</ele>
        <time>2021-04-25T08:57:28Z</time>
      </trkpt>
      <trkpt lat="47.19446" lon="5.97132">
        <ele>350.6</ele>
        <time>2021-04-25T08:57:29Z</time>
      </trkpt>
      <trkpt lat="47.19448" lon="5.97135">
        <ele>350.6</ele>
        <time>2021-04-25T08:57:30Z</time>
      </trkpt>
      <trkpt lat="47.19449" lon="5.97139">
        <ele>350.6</ele>
        <time>2021-04-25T08:57:31Z</time>
      </trkpt>
      <trkpt lat="47.19449" lon="5.97144">
        <ele>350.4</ele>
        <time>2021-04-25T08:57:32Z</time>
      </trkpt>
      <trkpt lat="47.19449" lon="5.97148">
        <ele>350.4</ele>
        <time>2021-04-25T08:57:33Z</time>
      </trkpt>
      <trkpt lat="47.1945" lon="5.97152">
        <ele>350.4</ele>
        <time>2021-04-25T08:57:34Z</time>
      </trkpt>
      <trkpt lat="47.19451" lon="5.97161">
        <ele>350</ele>
        <time>2021-04-25T08:57:36Z</time>
      </trkpt>
      <trkpt lat="47.1945" lon="5.97176">
        <ele>349.6</ele>
        <time>2021-04-25T08:57:40Z</time>
      </trkpt>
      <trkpt lat="47.19449" lon="5.97182">
        <ele>349.4</ele>
        <time>2021-04-25T08:57:42Z</time>
      </trkpt>
      <trkpt lat="47.19446" lon="5.97186">
        <ele>349.4</ele>
        <time>2021-04-25T08:57:43Z</time>
      </trkpt>
      <trkpt lat="47.19446" lon="5.97192">
        <ele>349.6</ele>
        <time>2021-04-25T08:57:44Z</time>
      </trkpt>
      <trkpt lat="47.19445" lon="5.97195">
        <ele>349.8</ele>
        <time>2021-04-25T08:57:45Z</time>
      </trkpt>
      <trkpt lat="47.19445" lon="5.97198">
        <ele>350</ele>
        <time>2021-04-25T08:57:46Z</time>
      </trkpt>
      <trkpt lat="47.19444" lon="5.97201">
        <ele>350.2</ele>
        <time>2021-04-25T08:57:47Z</time>
      </trkpt>
      <trkpt lat="47.19443" lon="5.97204">
        <ele>350.4</ele>
        <time>2021-04-25T08:57:48Z</time>
      </trkpt>
      <trkpt lat="47.19442" lon="5.97207">
        <ele>350.8</ele>
        <time>2021-04-25T08:57:49Z</time>
      </trkpt>
      <trkpt lat="47.19442" lon="5.97211">
        <ele>351.2</ele>
        <time>2021-04-25T08:57:50Z</time>
      </trkpt>
      <trkpt lat="47.19441" lon="5.97215">
        <ele>351.4</ele>
        <time>2021-04-25T08:57:51Z</time>
      </trkpt>
      <trkpt lat="47.1944" lon="5.97223">
        <ele>351.6</ele>
        <time>2021-04-25T08:57:53Z</time>
      </trkpt>
      <trkpt lat="47.19442" lon="5.97233">
        <ele>351.6</ele>
        <time>2021-04-25T08:57:55Z</time>
      </trkpt>
      <trkpt lat="47.19442" lon="5.97237">
        <ele>351.6</ele>
        <time>2021-04-25T08:57:56Z</time>
      </trkpt>
      <trkpt lat="47.19445" lon="5.97248">
        <ele>351.8</ele>
        <time>2021-04-25T08:57:59Z</time>
      </trkpt>
      <trkpt lat="47.19446" lon="5.97255">
        <ele>351.8</ele>
        <time>2021-04-25T08:58:01Z</time>
      </trkpt>
      <trkpt lat="47.19449" lon="5.97266">
        <ele>352.2</ele>
        <time>2021-04-25T08:58:03Z</time>
      </trkpt>
      <trkpt lat="47.19453" lon="5.97275">
        <ele>352.2</ele>
        <time>2021-04-25T08:58:05Z</time>
      </trkpt>
      <trkpt lat="47.19456" lon="5.97281">
        <ele>352.4</ele>
        <time>2021-04-25T08:58:07Z</time>
      </trkpt>
      <trkpt lat="47.19461" lon="5.9729">
        <ele>352.6</ele>
        <time>2021-04-25T08:58:09Z</time>
      </trkpt>
      <trkpt lat="47.19463" lon="5.97294">
        <ele>352.6</ele>
        <time>2021-04-25T08:58:10Z</time>
      </trkpt>
      <trkpt lat="47.19465" lon="5.97297">
        <ele>352.6</ele>
        <time>2021-04-25T08:58:11Z</time>
      </trkpt>
      <trkpt lat="47.19467" lon="5.973">
        <ele>352.6</ele>
        <time>2021-04-25T08:58:12Z</time>
      </trkpt>
      <trkpt lat="47.19469" lon="5.97303">
        <ele>352.8</ele>
        <time>2021-04-25T08:58:13Z</time>
      </trkpt>
      <trkpt lat="47.19472" lon="5.97305">
        <ele>353.2</ele>
        <time>2021-04-25T08:58:14Z</time>
      </trkpt>
      <trkpt lat="47.19473" lon="5.97308">
        <ele>353.2</ele>
        <time>2021-04-25T08:58:15Z</time>
      </trkpt>
      <trkpt lat="47.19474" lon="5.97311">
        <ele>353.2</ele>
        <time>2021-04-25T08:58:16Z</time>
      </trkpt>
      <trkpt lat="47.19474" lon="5.97314">
        <ele>353.4</ele>
        <time>2021-04-25T08:58:17Z</time>
      </trkpt>
      <trkpt lat="47.19474" lon="5.97317">
        <ele>353.8</ele>
        <time>2021-04-25T08:58:18Z</time>
      </trkpt>
      <trkpt lat="47.19475" lon="5.97321">
        <ele>353.8</ele>
        <time>2021-04-25T08:58:19Z</time>
      </trkpt>
      <trkpt lat="47.19477" lon="5.97327">
        <ele>354.2</ele>
        <time>2021-04-25T08:58:21Z</time>
      </trkpt>
      <trkpt lat="47.19478" lon="5.97329">
        <ele>354.2</ele>
        <time>2021-04-25T08:58:22Z</time>
      </trkpt>
      <trkpt lat="47.19478" lon="5.97331">
        <ele>354.2</ele>
        <time>2021-04-25T08:58:23Z</time>
      </trkpt>
      <trkpt lat="47.19477" lon="5.97334">
        <ele>354.2</ele>
        <time>2021-04-25T08:58:24Z</time>
      </trkpt>
      <trkpt lat="47.19476" lon="5.97338">
        <ele>354.4</ele>
        <time>2021-04-25T08:58:25Z</time>
      </trkpt>
      <trkpt lat="47.19475" lon="5.97342">
        <ele>354.4</ele>
        <time>2021-04-25T08:58:26Z</time>
      </trkpt>
      <trkpt lat="47.19475" lon="5.97345">
        <ele>354.4</ele>
        <time>2021-04-25T08:58:27Z</time>
      </trkpt>
      <trkpt lat="47.19477" lon="5.97348">
        <ele>354.4</ele>
        <time>2021-04-25T08:58:28Z</time>
      </trkpt>
      <trkpt lat="47.1948" lon="5.97353">
        <ele>354.4</ele>
        <time>2021-04-25T08:58:29Z</time>
      </trkpt>
      <trkpt lat="47.19481" lon="5.97357">
        <ele>354.6</ele>
        <time>2021-04-25T08:58:30Z</time>
      </trkpt>
      <trkpt lat="47.19481" lon="5.9736">
        <ele>354.6</ele>
        <time>2021-04-25T08:58:31Z</time>
      </trkpt>
      <trkpt lat="47.19485" lon="5.97387">
        <ele>355.2</ele>
        <time>2021-04-25T08:58:38Z</time>
      </trkpt>
      <trkpt lat="47.19488" lon="5.97392">
        <ele>355.2</ele>
        <time>2021-04-25T08:58:40Z</time>
      </trkpt>
      <trkpt lat="47.1949" lon="5.97395">
        <ele>355.4</ele>
        <time>2021-04-25T08:58:41Z</time>
      </trkpt>
      <trkpt lat="47.1949" lon="5.97397">
        <ele>355.4</ele>
        <time>2021-04-25T08:58:42Z</time>
      </trkpt>
      <trkpt lat="47.19489" lon="5.97399">
        <ele>355.8</ele>
        <time>2021-04-25T08:58:43Z</time>
      </trkpt>
      <trkpt lat="47.1949" lon="5.97403">
        <ele>355.8</ele>
        <time>2021-04-25T08:58:44Z</time>
      </trkpt>
      <trkpt lat="47.1949" lon="5.97406">
        <ele>356.2</ele>
        <time>2021-04-25T08:58:45Z</time>
      </trkpt>
      <trkpt lat="47.19491" lon="5.97415">
        <ele>356.6</ele>
        <time>2021-04-25T08:58:48Z</time>
      </trkpt>
      <trkpt lat="47.19493" lon="5.97423">
        <ele>356.8</ele>
        <time>2021-04-25T08:58:50Z</time>
      </trkpt>
      <trkpt lat="47.19493" lon="5.97425">
        <ele>356.8</ele>
        <time>2021-04-25T08:58:51Z</time>
      </trkpt>
      <trkpt lat="47.19494" lon="5.97429">
        <ele>357</ele>
        <time>2021-04-25T08:58:52Z</time>
      </trkpt>
      <trkpt lat="47.19496" lon="5.97434">
        <ele>357</ele>
        <time>2021-04-25T08:58:53Z</time>
      </trkpt>
      <trkpt lat="47.19496" lon="5.97436">
        <ele>357.2</ele>
        <time>2021-04-25T08:58:54Z</time>
      </trkpt>
      <trkpt lat="47.19497" lon="5.97439">
        <ele>357.2</ele>
        <time>2021-04-25T08:58:55Z</time>
      </trkpt>
      <trkpt lat="47.19497" lon="5.97443">
        <ele>357.6</ele>
        <time>2021-04-25T08:58:56Z</time>
      </trkpt>
      <trkpt lat="47.19498" lon="5.97447">
        <ele>358</ele>
        <time>2021-04-25T08:58:57Z</time>
      </trkpt>
      <trkpt lat="47.19498" lon="5.97451">
        <ele>358</ele>
        <time>2021-04-25T08:58:58Z</time>
      </trkpt>
      <trkpt lat="47.19499" lon="5.97456">
        <ele>358.6</ele>
        <time>2021-04-25T08:58:59Z</time>
      </trkpt>
      <trkpt lat="47.19499" lon="5.97459">
        <ele>358.8</ele>
        <time>2021-04-25T08:59:00Z</time>
      </trkpt>
      <trkpt lat="47.19499" lon="5.97463">
        <ele>358.8</ele>
        <time>2021-04-25T08:59:01Z</time>
      </trkpt>
      <trkpt lat="47.19498" lon="5.97467">
        <ele>359</ele>
        <time>2021-04-25T08:59:02Z</time>
      </trkpt>
      <trkpt lat="47.19497" lon="5.97469">
        <ele>359</ele>
        <time>2021-04-25T08:59:03Z</time>
      </trkpt>
      <trkpt lat="47.19498" lon="5.97472">
        <ele>359.2</ele>
        <time>2021-04-25T08:59:04Z</time>
      </trkpt>
      <trkpt lat="47.19497" lon="5.97475">
        <ele>359.2</ele>
        <time>2021-04-25T08:59:05Z</time>
      </trkpt>
      <trkpt lat="47.19496" lon="5.97478">
        <ele>359.4</ele>
        <time>2021-04-25T08:59:06Z</time>
      </trkpt>
      <trkpt lat="47.19495" lon="5.97481">
        <ele>359.4</ele>
        <time>2021-04-25T08:59:07Z</time>
      </trkpt>
      <trkpt lat="47.19493" lon="5.97484">
        <ele>359.6</ele>
        <time>2021-04-25T08:59:08Z</time>
      </trkpt>
      <trkpt lat="47.19491" lon="5.97487">
        <ele>359.6</ele>
        <time>2021-04-25T08:59:09Z</time>
      </trkpt>
      <trkpt lat="47.19489" lon="5.97489">
        <ele>359.8</ele>
        <time>2021-04-25T08:59:10Z</time>
      </trkpt>
      <trkpt lat="47.19487" lon="5.97492">
        <ele>360</ele>
        <time>2021-04-25T08:59:11Z</time>
      </trkpt>
      <trkpt lat="47.19485" lon="5.97496">
        <ele>360.2</ele>
        <time>2021-04-25T08:59:12Z</time>
      </trkpt>
      <trkpt lat="47.19484" lon="5.97501">
        <ele>360.4</ele>
        <time>2021-04-25T08:59:13Z</time>
      </trkpt>
      <trkpt lat="47.19483" lon="5.97504">
        <ele>360.4</ele>
        <time>2021-04-25T08:59:14Z</time>
      </trkpt>
      <trkpt lat="47.19482" lon="5.97508">
        <ele>360.6</ele>
        <time>2021-04-25T08:59:15Z</time>
      </trkpt>
      <trkpt lat="47.19482" lon="5.97513">
        <ele>360.8</ele>
        <time>2021-04-25T08:59:16Z</time>
      </trkpt>
      <trkpt lat="47.19481" lon="5.97517">
        <ele>361</ele>
        <time>2021-04-25T08:59:17Z</time>
      </trkpt>
      <trkpt lat="47.1948" lon="5.97521">
        <ele>361</ele>
        <time>2021-04-25T08:59:18Z</time>
      </trkpt>
      <trkpt lat="47.19478" lon="5.97525">
        <ele>361.2</ele>
        <time>2021-04-25T08:59:19Z</time>
      </trkpt>
      <trkpt lat="47.19477" lon="5.97528">
        <ele>361.4</ele>
        <time>2021-04-25T08:59:20Z</time>
      </trkpt>
      <trkpt lat="47.19478" lon="5.97534">
        <ele>361.6</ele>
        <time>2021-04-25T08:59:21Z</time>
      </trkpt>
      <trkpt lat="47.19477" lon="5.97536">
        <ele>361.6</ele>
        <time>2021-04-25T08:59:22Z</time>
      </trkpt>
      <trkpt lat="47.19476" lon="5.9754">
        <ele>361.6</ele>
        <time>2021-04-25T08:59:23Z</time>
      </trkpt>
      <trkpt lat="47.19475" lon="5.97542">
        <ele>361.6</ele>
        <time>2021-04-25T08:59:24Z</time>
      </trkpt>
      <trkpt lat="47.19472" lon="5.97545">
        <ele>361.6</ele>
        <time>2021-04-25T08:59:25Z</time>
      </trkpt>
      <trkpt lat="47.19474" lon="5.9755">
        <ele>362</ele>
        <time>2021-04-25T08:59:26Z</time>
      </trkpt>
      <trkpt lat="47.19475" lon="5.97554">
        <ele>362</ele>
        <time>2021-04-25T08:59:27Z</time>
      </trkpt>
      <trkpt lat="47.19475" lon="5.97559">
        <ele>362.2</ele>
        <time>2021-04-25T08:59:28Z</time>
      </trkpt>
      <trkpt lat="47.19477" lon="5.97562">
        <ele>362.2</ele>
        <time>2021-04-25T08:59:29Z</time>
      </trkpt>
      <trkpt lat="47.19478" lon="5.97565">
        <ele>362.4</ele>
        <time>2021-04-25T08:59:30Z</time>
      </trkpt>
      <trkpt lat="47.19479" lon="5.97568">
        <ele>362.6</ele>
        <time>2021-04-25T08:59:31Z</time>
      </trkpt>
      <trkpt lat="47.19479" lon="5.97571">
        <ele>362.8</ele>
        <time>2021-04-25T08:59:32Z</time>
      </trkpt>
      <trkpt lat="47.1948" lon="5.97576">
        <ele>363</ele>
        <time>2021-04-25T08:59:33Z</time>
      </trkpt>
      <trkpt lat="47.1948" lon="5.97577">
        <ele>363</ele>
        <time>2021-04-25T08:59:34Z</time>
      </trkpt>
      <trkpt lat="47.1948" lon="5.97578">
        <ele>363.2</ele>
        <time>2021-04-25T08:59:35Z</time>
      </trkpt>
      <trkpt lat="47.19483" lon="5.97581">
        <ele>363.4</ele>
        <time>2021-04-25T08:59:36Z</time>
      </trkpt>
      <trkpt lat="47.19483" lon="5.97585">
        <ele>363.6</ele>
        <time>2021-04-25T08:59:37Z</time>
      </trkpt>
      <trkpt lat="47.19486" lon="5.9759">
        <ele>363.6</ele>
        <time>2021-04-25T08:59:38Z</time>
      </trkpt>
      <trkpt lat="47.19489" lon="5.97593">
        <ele>363.8</ele>
        <time>2021-04-25T08:59:39Z</time>
      </trkpt>
      <trkpt lat="47.19491" lon="5.97597">
        <ele>364</ele>
        <time>2021-04-25T08:59:40Z</time>
      </trkpt>
      <trkpt lat="47.19493" lon="5.97599">
        <ele>364.2</ele>
        <time>2021-04-25T08:59:41Z</time>
      </trkpt>
      <trkpt lat="47.19494" lon="5.97603">
        <ele>364.2</ele>
        <time>2021-04-25T08:59:42Z</time>
      </trkpt>
      <trkpt lat="47.19495" lon="5.97607">
        <ele>364.4</ele>
        <time>2021-04-25T08:59:43Z</time>
      </trkpt>
      <trkpt lat="47.19496" lon="5.97611">
        <ele>364.4</ele>
        <time>2021-04-25T08:59:44Z</time>
      </trkpt>
      <trkpt lat="47.19498" lon="5.97615">
        <ele>364.6</ele>
        <time>2021-04-25T08:59:45Z</time>
      </trkpt>
      <trkpt lat="47.19499" lon="5.97617">
        <ele>364.6</ele>
        <time>2021-04-25T08:59:46Z</time>
      </trkpt>
      <trkpt lat="47.19501" lon="5.97621">
        <ele>364.8</ele>
        <time>2021-04-25T08:59:47Z</time>
      </trkpt>
      <trkpt lat="47.19502" lon="5.97624">
        <ele>364.8</ele>
        <time>2021-04-25T08:59:48Z</time>
      </trkpt>
      <trkpt lat="47.19503" lon="5.97627">
        <ele>365</ele>
        <time>2021-04-25T08:59:49Z</time>
      </trkpt>
      <trkpt lat="47.19506" lon="5.97631">
        <ele>365</ele>
        <time>2021-04-25T08:59:50Z</time>
      </trkpt>
      <trkpt lat="47.19507" lon="5.97639">
        <ele>365</ele>
        <time>2021-04-25T08:59:51Z</time>
      </trkpt>
      <trkpt lat="47.19506" lon="5.97643">
        <ele>364.8</ele>
        <time>2021-04-25T08:59:52Z</time>
      </trkpt>
      <trkpt lat="47.19508" lon="5.97648">
        <ele>364.8</ele>
        <time>2021-04-25T08:59:53Z</time>
      </trkpt>
      <trkpt lat="47.19509" lon="5.97651">
        <ele>365.2</ele>
        <time>2021-04-25T08:59:54Z</time>
      </trkpt>
      <trkpt lat="47.19508" lon="5.97655">
        <ele>365.4</ele>
        <time>2021-04-25T08:59:55Z</time>
      </trkpt>
      <trkpt lat="47.19508" lon="5.97657">
        <ele>365.2</ele>
        <time>2021-04-25T08:59:56Z</time>
      </trkpt>
      <trkpt lat="47.19508" lon="5.97661">
        <ele>365.4</ele>
        <time>2021-04-25T08:59:57Z</time>
      </trkpt>
      <trkpt lat="47.19507" lon="5.97664">
        <ele>365.4</ele>
        <time>2021-04-25T08:59:58Z</time>
      </trkpt>
      <trkpt lat="47.19505" lon="5.97667">
        <ele>365.4</ele>
        <time>2021-04-25T08:59:59Z</time>
      </trkpt>
      <trkpt lat="47.19505" lon="5.9767">
        <ele>365.6</ele>
        <time>2021-04-25T09:00:00Z</time>
      </trkpt>
      <trkpt lat="47.19507" lon="5.97674">
        <ele>365.8</ele>
        <time>2021-04-25T09:00:01Z</time>
      </trkpt>
      <trkpt lat="47.19508" lon="5.97678">
        <ele>366</ele>
        <time>2021-04-25T09:00:02Z</time>
      </trkpt>
      <trkpt lat="47.19509" lon="5.97683">
        <ele>366</ele>
        <time>2021-04-25T09:00:03Z</time>
      </trkpt>
      <trkpt lat="47.1951" lon="5.97686">
        <ele>366.2</ele>
        <time>2021-04-25T09:00:04Z</time>
      </trkpt>
      <trkpt lat="47.19511" lon="5.97689">
        <ele>366.6</ele>
        <time>2021-04-25T09:00:05Z</time>
      </trkpt>
      <trkpt lat="47.19512" lon="5.97692">
        <ele>366.6</ele>
        <time>2021-04-25T09:00:06Z</time>
      </trkpt>
      <trkpt lat="47.19513" lon="5.97696">
        <ele>367</ele>
        <time>2021-04-25T09:00:07Z</time>
      </trkpt>
      <trkpt lat="47.19515" lon="5.97699">
        <ele>367.2</ele>
        <time>2021-04-25T09:00:08Z</time>
      </trkpt>
      <trkpt lat="47.19515" lon="5.97701">
        <ele>367.2</ele>
        <time>2021-04-25T09:00:09Z</time>
      </trkpt>
      <trkpt lat="47.19515" lon="5.97702">
        <ele>367.4</ele>
        <time>2021-04-25T09:00:10Z</time>
      </trkpt>
      <trkpt lat="47.19515" lon="5.97703">
        <ele>367.6</ele>
        <time>2021-04-25T09:00:11Z</time>
      </trkpt>
      <trkpt lat="47.19515" lon="5.97705">
        <ele>367.8</ele>
        <time>2021-04-25T09:00:12Z</time>
      </trkpt>
      <trkpt lat="47.19515" lon="5.97708">
        <ele>367.8</ele>
        <time>2021-04-25T09:00:13Z</time>
      </trkpt>
      <trkpt lat="47.19515" lon="5.97711">
        <ele>368</ele>
        <time>2021-04-25T09:00:14Z</time>
      </trkpt>
      <trkpt lat="47.19515" lon="5.97714">
        <ele>368</ele>
        <time>2021-04-25T09:00:15Z</time>
      </trkpt>
      <trkpt lat="47.19515" lon="5.97716">
        <ele>368.4</ele>
        <time>2021-04-25T09:00:16Z</time>
      </trkpt>
      <trkpt lat="47.19515" lon="5.9772">
        <ele>368.6</ele>
        <time>2021-04-25T09:00:17Z</time>
      </trkpt>
      <trkpt lat="47.19516" lon="5.97724">
        <ele>368.8</ele>
        <time>2021-04-25T09:00:18Z</time>
      </trkpt>
      <trkpt lat="47.19517" lon="5.97728">
        <ele>369</ele>
        <time>2021-04-25T09:00:19Z</time>
      </trkpt>
      <trkpt lat="47.1952" lon="5.97732">
        <ele>369.2</ele>
        <time>2021-04-25T09:00:20Z</time>
      </trkpt>
      <trkpt lat="47.1952" lon="5.97736">
        <ele>369.4</ele>
        <time>2021-04-25T09:00:21Z</time>
      </trkpt>
      <trkpt lat="47.19521" lon="5.9774">
        <ele>369.4</ele>
        <time>2021-04-25T09:00:22Z</time>
      </trkpt>
      <trkpt lat="47.19522" lon="5.97742">
        <ele>369.6</ele>
        <time>2021-04-25T09:00:23Z</time>
      </trkpt>
      <trkpt lat="47.19522" lon="5.97746">
        <ele>369.6</ele>
        <time>2021-04-25T09:00:24Z</time>
      </trkpt>
      <trkpt lat="47.19524" lon="5.9775">
        <ele>369.8</ele>
        <time>2021-04-25T09:00:25Z</time>
      </trkpt>
      <trkpt lat="47.19526" lon="5.97754">
        <ele>369.8</ele>
        <time>2021-04-25T09:00:26Z</time>
      </trkpt>
      <trkpt lat="47.19526" lon="5.97758">
        <ele>369.8</ele>
        <time>2021-04-25T09:00:27Z</time>
      </trkpt>
      <trkpt lat="47.19526" lon="5.97761">
        <ele>370</ele>
        <time>2021-04-25T09:00:28Z</time>
      </trkpt>
      <trkpt lat="47.19526" lon="5.97764">
        <ele>370.4</ele>
        <time>2021-04-25T09:00:29Z</time>
      </trkpt>
      <trkpt lat="47.19526" lon="5.97767">
        <ele>370.6</ele>
        <time>2021-04-25T09:00:30Z</time>
      </trkpt>
      <trkpt lat="47.19527" lon="5.97771">
        <ele>370.8</ele>
        <time>2021-04-25T09:00:31Z</time>
      </trkpt>
      <trkpt lat="47.1953" lon="5.97776">
        <ele>370.8</ele>
        <time>2021-04-25T09:00:32Z</time>
      </trkpt>
      <trkpt lat="47.1953" lon="5.97781">
        <ele>370.8</ele>
        <time>2021-04-25T09:00:33Z</time>
      </trkpt>
      <trkpt lat="47.1953" lon="5.97785">
        <ele>371</ele>
        <time>2021-04-25T09:00:34Z</time>
      </trkpt>
      <trkpt lat="47.1953" lon="5.97789">
        <ele>371</ele>
        <time>2021-04-25T09:00:35Z</time>
      </trkpt>
      <trkpt lat="47.19529" lon="5.97791">
        <ele>371.2</ele>
        <time>2021-04-25T09:00:36Z</time>
      </trkpt>
      <trkpt lat="47.19529" lon="5.97794">
        <ele>371.4</ele>
        <time>2021-04-25T09:00:37Z</time>
      </trkpt>
      <trkpt lat="47.19527" lon="5.97797">
        <ele>371.4</ele>
        <time>2021-04-25T09:00:38Z</time>
      </trkpt>
      <trkpt lat="47.19525" lon="5.97802">
        <ele>371.6</ele>
        <time>2021-04-25T09:00:39Z</time>
      </trkpt>
      <trkpt lat="47.19524" lon="5.97806">
        <ele>371.8</ele>
        <time>2021-04-25T09:00:40Z</time>
      </trkpt>
      <trkpt lat="47.19525" lon="5.97808">
        <ele>371.8</ele>
        <time>2021-04-25T09:00:41Z</time>
      </trkpt>
      <trkpt lat="47.19526" lon="5.97812">
        <ele>372</ele>
        <time>2021-04-25T09:00:42Z</time>
      </trkpt>
      <trkpt lat="47.19525" lon="5.97815">
        <ele>372.2</ele>
        <time>2021-04-25T09:00:43Z</time>
      </trkpt>
      <trkpt lat="47.19526" lon="5.97818">
        <ele>372.2</ele>
        <time>2021-04-25T09:00:44Z</time>
      </trkpt>
      <trkpt lat="47.19529" lon="5.97822">
        <ele>372.6</ele>
        <time>2021-04-25T09:00:45Z</time>
      </trkpt>
      <trkpt lat="47.19529" lon="5.97824">
        <ele>372.8</ele>
        <time>2021-04-25T09:00:46Z</time>
      </trkpt>
      <trkpt lat="47.1953" lon="5.97827">
        <ele>373</ele>
        <time>2021-04-25T09:00:47Z</time>
      </trkpt>
      <trkpt lat="47.1953" lon="5.97829">
        <ele>373.2</ele>
        <time>2021-04-25T09:00:48Z</time>
      </trkpt>
      <trkpt lat="47.19529" lon="5.97831">
        <ele>373.2</ele>
        <time>2021-04-25T09:00:49Z</time>
      </trkpt>
      <trkpt lat="47.19529" lon="5.97833">
        <ele>373.4</ele>
        <time>2021-04-25T09:00:50Z</time>
      </trkpt>
      <trkpt lat="47.19531" lon="5.97836">
        <ele>373.8</ele>
        <time>2021-04-25T09:00:51Z</time>
      </trkpt>
      <trkpt lat="47.19539" lon="5.97845">
        <ele>374.2</ele>
        <time>2021-04-25T09:00:52Z</time>
      </trkpt>
      <trkpt lat="47.19541" lon="5.97848">
        <ele>374.4</ele>
        <time>2021-04-25T09:00:53Z</time>
      </trkpt>
      <trkpt lat="47.19542" lon="5.9785">
        <ele>374.4</ele>
        <time>2021-04-25T09:00:54Z</time>
      </trkpt>
      <trkpt lat="47.19544" lon="5.97852">
        <ele>374.8</ele>
        <time>2021-04-25T09:00:55Z</time>
      </trkpt>
      <trkpt lat="47.19545" lon="5.97854">
        <ele>375</ele>
        <time>2021-04-25T09:00:56Z</time>
      </trkpt>
      <trkpt lat="47.19548" lon="5.97856">
        <ele>375.2</ele>
        <time>2021-04-25T09:00:57Z</time>
      </trkpt>
      <trkpt lat="47.19551" lon="5.97858">
        <ele>375.2</ele>
        <time>2021-04-25T09:00:58Z</time>
      </trkpt>
      <trkpt lat="47.1955" lon="5.97861">
        <ele>375.6</ele>
        <time>2021-04-25T09:00:59Z</time>
      </trkpt>
      <trkpt lat="47.19551" lon="5.97862">
        <ele>375.8</ele>
        <time>2021-04-25T09:01:00Z</time>
      </trkpt>
      <trkpt lat="47.19552" lon="5.97863">
        <ele>376</ele>
        <time>2021-04-25T09:01:01Z</time>
      </trkpt>
      <trkpt lat="47.19553" lon="5.97864">
        <ele>376</ele>
        <time>2021-04-25T09:01:02Z</time>
      </trkpt>
      <trkpt lat="47.19554" lon="5.97865">
        <ele>376.2</ele>
        <time>2021-04-25T09:01:03Z</time>
      </trkpt>
      <trkpt lat="47.19555" lon="5.97866">
        <ele>376.6</ele>
        <time>2021-04-25T09:01:04Z</time>
      </trkpt>
      <trkpt lat="47.19556" lon="5.97867">
        <ele>376.8</ele>
        <time>2021-04-25T09:01:05Z</time>
      </trkpt>
      <trkpt lat="47.19556" lon="5.97868">
        <ele>377</ele>
        <time>2021-04-25T09:01:06Z</time>
      </trkpt>
      <trkpt lat="47.19557" lon="5.9787">
        <ele>377</ele>
        <time>2021-04-25T09:01:07Z</time>
      </trkpt>
      <trkpt lat="47.19558" lon="5.97872">
        <ele>377.6</ele>
        <time>2021-04-25T09:01:08Z</time>
      </trkpt>
      <trkpt lat="47.19559" lon="5.97873">
        <ele>377.8</ele>
        <time>2021-04-25T09:01:09Z</time>
      </trkpt>
      <trkpt lat="47.19559" lon="5.97875">
        <ele>378</ele>
        <time>2021-04-25T09:01:10Z</time>
      </trkpt>
      <trkpt lat="47.19559" lon="5.97877">
        <ele>378</ele>
        <time>2021-04-25T09:01:11Z</time>
      </trkpt>
      <trkpt lat="47.19558" lon="5.97879">
        <ele>378</ele>
        <time>2021-04-25T09:01:12Z</time>
      </trkpt>
      <trkpt lat="47.19558" lon="5.9788">
        <ele>378.2</ele>
        <time>2021-04-25T09:01:13Z</time>
      </trkpt>
      <trkpt lat="47.19559" lon="5.97882">
        <ele>378.4</ele>
        <time>2021-04-25T09:01:14Z</time>
      </trkpt>
      <trkpt lat="47.1956" lon="5.97884">
        <ele>379</ele>
        <time>2021-04-25T09:01:15Z</time>
      </trkpt>
      <trkpt lat="47.1956" lon="5.97886">
        <ele>379.2</ele>
        <time>2021-04-25T09:01:16Z</time>
      </trkpt>
      <trkpt lat="47.1956" lon="5.97887">
        <ele>379.4</ele>
        <time>2021-04-25T09:01:17Z</time>
      </trkpt>
      <trkpt lat="47.1956" lon="5.97889">
        <ele>379.4</ele>
        <time>2021-04-25T09:01:18Z</time>
      </trkpt>
      <trkpt lat="47.1956" lon="5.9789">
        <ele>379.6</ele>
        <time>2021-04-25T09:01:19Z</time>
      </trkpt>
      <trkpt lat="47.1956" lon="5.97891">
        <ele>379.8</ele>
        <time>2021-04-25T09:01:20Z</time>
      </trkpt>
      <trkpt lat="47.1956" lon="5.97893">
        <ele>380</ele>
        <time>2021-04-25T09:01:21Z</time>
      </trkpt>
      <trkpt lat="47.1956" lon="5.97895">
        <ele>380.2</ele>
        <time>2021-04-25T09:01:22Z</time>
      </trkpt>
      <trkpt lat="47.1956" lon="5.97898">
        <ele>380.2</ele>
        <time>2021-04-25T09:01:23Z</time>
      </trkpt>
      <trkpt lat="47.19561" lon="5.97899">
        <ele>380.6</ele>
        <time>2021-04-25T09:01:24Z</time>
      </trkpt>
      <trkpt lat="47.1956" lon="5.97901">
        <ele>380.8</ele>
        <time>2021-04-25T09:01:25Z</time>
      </trkpt>
      <trkpt lat="47.1956" lon="5.97902">
        <ele>381</ele>
        <time>2021-04-25T09:01:26Z</time>
      </trkpt>
      <trkpt lat="47.1956" lon="5.97905">
        <ele>381</ele>
        <time>2021-04-25T09:01:27Z</time>
      </trkpt>
      <trkpt lat="47.1956" lon="5.97907">
        <ele>381.2</ele>
        <time>2021-04-25T09:01:28Z</time>
      </trkpt>
      <trkpt lat="47.1956" lon="5.97909">
        <ele>381.4</ele>
        <time>2021-04-25T09:01:29Z</time>
      </trkpt>
      <trkpt lat="47.19561" lon="5.97913">
        <ele>381.6</ele>
        <time>2021-04-25T09:01:30Z</time>
      </trkpt>
      <trkpt lat="47.19561" lon="5.97915">
        <ele>381.8</ele>
        <time>2021-04-25T09:01:31Z</time>
      </trkpt>
      <trkpt lat="47.19562" lon="5.97917">
        <ele>381.8</ele>
        <time>2021-04-25T09:01:32Z</time>
      </trkpt>
      <trkpt lat="47.19562" lon="5.97922">
        <ele>382</ele>
        <time>2021-04-25T09:01:33Z</time>
      </trkpt>
      <trkpt lat="47.19562" lon="5.97925">
        <ele>382.2</ele>
        <time>2021-04-25T09:01:34Z</time>
      </trkpt>
      <trkpt lat="47.19563" lon="5.97926">
        <ele>382.6</ele>
        <time>2021-04-25T09:01:35Z</time>
      </trkpt>
      <trkpt lat="47.19563" lon="5.97927">
        <ele>382.8</ele>
        <time>2021-04-25T09:01:36Z</time>
      </trkpt>
      <trkpt lat="47.19565" lon="5.97931">
        <ele>383</ele>
        <time>2021-04-25T09:01:37Z</time>
      </trkpt>
      <trkpt lat="47.19564" lon="5.97934">
        <ele>383.2</ele>
        <time>2021-04-25T09:01:38Z</time>
      </trkpt>
      <trkpt lat="47.19565" lon="5.97936">
        <ele>383.4</ele>
        <time>2021-04-25T09:01:39Z</time>
      </trkpt>
      <trkpt lat="47.19565" lon="5.97939">
        <ele>383.6</ele>
        <time>2021-04-25T09:01:40Z</time>
      </trkpt>
      <trkpt lat="47.19565" lon="5.97942">
        <ele>383.8</ele>
        <time>2021-04-25T09:01:41Z</time>
      </trkpt>
      <trkpt lat="47.19566" lon="5.97944">
        <ele>384</ele>
        <time>2021-04-25T09:01:42Z</time>
      </trkpt>
      <trkpt lat="47.19566" lon="5.97947">
        <ele>384</ele>
        <time>2021-04-25T09:01:43Z</time>
      </trkpt>
      <trkpt lat="47.19566" lon="5.97949">
        <ele>384.2</ele>
        <time>2021-04-25T09:01:44Z</time>
      </trkpt>
      <trkpt lat="47.19566" lon="5.97951">
        <ele>384.6</ele>
        <time>2021-04-25T09:01:45Z</time>
      </trkpt>
      <trkpt lat="47.19565" lon="5.97953">
        <ele>384.6</ele>
        <time>2021-04-25T09:01:46Z</time>
      </trkpt>
      <trkpt lat="47.19566" lon="5.97957">
        <ele>385</ele>
        <time>2021-04-25T09:01:47Z</time>
      </trkpt>
      <trkpt lat="47.19566" lon="5.9796">
        <ele>385.2</ele>
        <time>2021-04-25T09:01:48Z</time>
      </trkpt>
      <trkpt lat="47.19569" lon="5.97965">
        <ele>385.4</ele>
        <time>2021-04-25T09:01:49Z</time>
      </trkpt>
      <trkpt lat="47.19569" lon="5.97969">
        <ele>385.6</ele>
        <time>2021-04-25T09:01:50Z</time>
      </trkpt>
      <trkpt lat="47.19569" lon="5.97972">
        <ele>385.6</ele>
        <time>2021-04-25T09:01:51Z</time>
      </trkpt>
      <trkpt lat="47.19569" lon="5.97974">
        <ele>385.8</ele>
        <time>2021-04-25T09:01:52Z</time>
      </trkpt>
      <trkpt lat="47.19568" lon="5.97976">
        <ele>386.2</ele>
        <time>2021-04-25T09:01:53Z</time>
      </trkpt>
      <trkpt lat="47.19569" lon="5.97978">
        <ele>386.4</ele>
        <time>2021-04-25T09:01:54Z</time>
      </trkpt>
      <trkpt lat="47.19568" lon="5.9798">
        <ele>386.4</ele>
        <time>2021-04-25T09:01:55Z</time>
      </trkpt>
      <trkpt lat="47.19567" lon="5.97982">
        <ele>386.8</ele>
        <time>2021-04-25T09:01:56Z</time>
      </trkpt>
      <trkpt lat="47.19566" lon="5.97984">
        <ele>387</ele>
        <time>2021-04-25T09:01:57Z</time>
      </trkpt>
      <trkpt lat="47.19565" lon="5.97988">
        <ele>387.6</ele>
        <time>2021-04-25T09:01:58Z</time>
      </trkpt>
      <trkpt lat="47.19564" lon="5.9799">
        <ele>387.8</ele>
        <time>2021-04-25T09:01:59Z</time>
      </trkpt>
      <trkpt lat="47.19564" lon="5.97993">
        <ele>388.2</ele>
        <time>2021-04-25T09:02:00Z</time>
      </trkpt>
      <trkpt lat="47.19563" lon="5.97994">
        <ele>388.2</ele>
        <time>2021-04-25T09:02:01Z</time>
      </trkpt>
      <trkpt lat="47.19561" lon="5.97995">
        <ele>388.4</ele>
        <time>2021-04-25T09:02:02Z</time>
      </trkpt>
      <trkpt lat="47.19559" lon="5.97997">
        <ele>388.6</ele>
        <time>2021-04-25T09:02:03Z</time>
      </trkpt>
      <trkpt lat="47.19558" lon="5.97998">
        <ele>388.6</ele>
        <time>2021-04-25T09:02:04Z</time>
      </trkpt>
      <trkpt lat="47.19557" lon="5.98">
        <ele>388.8</ele>
        <time>2021-04-25T09:02:05Z</time>
      </trkpt>
      <trkpt lat="47.19556" lon="5.98003">
        <ele>389</ele>
        <time>2021-04-25T09:02:06Z</time>
      </trkpt>
      <trkpt lat="47.19555" lon="5.98005">
        <ele>389.4</ele>
        <time>2021-04-25T09:02:07Z</time>
      </trkpt>
      <trkpt lat="47.19555" lon="5.98007">
        <ele>389.4</ele>
        <time>2021-04-25T09:02:08Z</time>
      </trkpt>
      <trkpt lat="47.19557" lon="5.9801">
        <ele>389.6</ele>
        <time>2021-04-25T09:02:09Z</time>
      </trkpt>
      <trkpt lat="47.19557" lon="5.98013">
        <ele>389.8</ele>
        <time>2021-04-25T09:02:10Z</time>
      </trkpt>
      <trkpt lat="47.19555" lon="5.98015">
        <ele>390</ele>
        <time>2021-04-25T09:02:11Z</time>
      </trkpt>
      <trkpt lat="47.19555" lon="5.98015">
        <ele>390.4</ele>
        <time>2021-04-25T09:02:12Z</time>
      </trkpt>
      <trkpt lat="47.19555" lon="5.98016">
        <ele>390.4</ele>
        <time>2021-04-25T09:02:13Z</time>
      </trkpt>
      <trkpt lat="47.19555" lon="5.98017">
        <ele>390.6</ele>
        <time>2021-04-25T09:02:14Z</time>
      </trkpt>
      <trkpt lat="47.19556" lon="5.9802">
        <ele>390.8</ele>
        <time>2021-04-25T09:02:15Z</time>
      </trkpt>
      <trkpt lat="47.19556" lon="5.98022">
        <ele>390.8</ele>
        <time>2021-04-25T09:02:16Z</time>
      </trkpt>
      <trkpt lat="47.19555" lon="5.98024">
        <ele>390.8</ele>
        <time>2021-04-25T09:02:17Z</time>
      </trkpt>
      <trkpt lat="47.19553" lon="5.98025">
        <ele>391.2</ele>
        <time>2021-04-25T09:02:18Z</time>
      </trkpt>
      <trkpt lat="47.19552" lon="5.98026">
        <ele>391.4</ele>
        <time>2021-04-25T09:02:19Z</time>
      </trkpt>
      <trkpt lat="47.1955" lon="5.98027">
        <ele>391.4</ele>
        <time>2021-04-25T09:02:20Z</time>
      </trkpt>
      <trkpt lat="47.19549" lon="5.98029">
        <ele>391.4</ele>
        <time>2021-04-25T09:02:21Z</time>
      </trkpt>
      <trkpt lat="47.19548" lon="5.98033">
        <ele>391.4</ele>
        <time>2021-04-25T09:02:22Z</time>
      </trkpt>
      <trkpt lat="47.19547" lon="5.98035">
        <ele>391.6</ele>
        <time>2021-04-25T09:02:23Z</time>
      </trkpt>
      <trkpt lat="47.19546" lon="5.98036">
        <ele>391.6</ele>
        <time>2021-04-25T09:02:24Z</time>
      </trkpt>
      <trkpt lat="47.19545" lon="5.98038">
        <ele>391.6</ele>
        <time>2021-04-25T09:02:25Z</time>
      </trkpt>
      <trkpt lat="47.19545" lon="5.98041">
        <ele>391.6</ele>
        <time>2021-04-25T09:02:26Z</time>
      </trkpt>
      <trkpt lat="47.19544" lon="5.98045">
        <ele>391.6</ele>
        <time>2021-04-25T09:02:27Z</time>
      </trkpt>
      <trkpt lat="47.19543" lon="5.98047">
        <ele>391.6</ele>
        <time>2021-04-25T09:02:28Z</time>
      </trkpt>
      <trkpt lat="47.19542" lon="5.98047">
        <ele>391.6</ele>
        <time>2021-04-25T09:02:29Z</time>
      </trkpt>
      <trkpt lat="47.19542" lon="5.98047">
        <ele>391.4</ele>
        <time>2021-04-25T09:02:30Z</time>
      </trkpt>
      <trkpt lat="47.19542" lon="5.98047">
        <ele>391.4</ele>
        <time>2021-04-25T09:02:31Z</time>
      </trkpt>
      <trkpt lat="47.19542" lon="5.98047">
        <ele>391.6</ele>
        <time>2021-04-25T09:02:59Z</time>
      </trkpt>
      <trkpt lat="47.1954" lon="5.98049">
        <ele>391.8</ele>
        <time>2021-04-25T09:04:35Z</time>
      </trkpt>
      <trkpt lat="47.1954" lon="5.98052">
        <ele>391.8</ele>
        <time>2021-04-25T09:04:36Z</time>
      </trkpt>
      <trkpt lat="47.19539" lon="5.98056">
        <ele>391.8</ele>
        <time>2021-04-25T09:04:38Z</time>
      </trkpt>
      <trkpt lat="47.19539" lon="5.98056">
        <ele>391.8</ele>
        <time>2021-04-25T09:04:39Z</time>
      </trkpt>
      <trkpt lat="47.19538" lon="5.98056">
        <ele>391.8</ele>
        <time>2021-04-25T09:04:41Z</time>
      </trkpt>
      <trkpt lat="47.19535" lon="5.98059">
        <ele>391.8</ele>
        <time>2021-04-25T09:04:45Z</time>
      </trkpt>
      <trkpt lat="47.19525" lon="5.98068">
        <ele>391.8</ele>
        <time>2021-04-25T09:04:49Z</time>
      </trkpt>
      <trkpt lat="47.19523" lon="5.9807">
        <ele>391.6</ele>
        <time>2021-04-25T09:04:50Z</time>
      </trkpt>
      <trkpt lat="47.1952" lon="5.98072">
        <ele>391.6</ele>
        <time>2021-04-25T09:04:51Z</time>
      </trkpt>
      <trkpt lat="47.19519" lon="5.98077">
        <ele>391.6</ele>
        <time>2021-04-25T09:04:52Z</time>
      </trkpt>
      <trkpt lat="47.19518" lon="5.98079">
        <ele>391.6</ele>
        <time>2021-04-25T09:04:53Z</time>
      </trkpt>
      <trkpt lat="47.19516" lon="5.98083">
        <ele>391.6</ele>
        <time>2021-04-25T09:04:54Z</time>
      </trkpt>
      <trkpt lat="47.19514" lon="5.98086">
        <ele>391.6</ele>
        <time>2021-04-25T09:04:55Z</time>
      </trkpt>
      <trkpt lat="47.19509" lon="5.98092">
        <ele>391.6</ele>
        <time>2021-04-25T09:04:57Z</time>
      </trkpt>
      <trkpt lat="47.19507" lon="5.981">
        <ele>391.6</ele>
        <time>2021-04-25T09:04:59Z</time>
      </trkpt>
      <trkpt lat="47.19505" lon="5.98105">
        <ele>391.6</ele>
        <time>2021-04-25T09:05:00Z</time>
      </trkpt>
      <trkpt lat="47.19504" lon="5.98108">
        <ele>391.6</ele>
        <time>2021-04-25T09:05:01Z</time>
      </trkpt>
      <trkpt lat="47.19502" lon="5.98117">
        <ele>391.4</ele>
        <time>2021-04-25T09:05:04Z</time>
      </trkpt>
      <trkpt lat="47.195" lon="5.98123">
        <ele>391.4</ele>
        <time>2021-04-25T09:05:06Z</time>
      </trkpt>
      <trkpt lat="47.19499" lon="5.98129">
        <ele>391.4</ele>
        <time>2021-04-25T09:05:07Z</time>
      </trkpt>
      <trkpt lat="47.19496" lon="5.98132">
        <ele>391.4</ele>
        <time>2021-04-25T09:05:08Z</time>
      </trkpt>
      <trkpt lat="47.19487" lon="5.9814">
        <ele>391.4</ele>
        <time>2021-04-25T09:05:11Z</time>
      </trkpt>
      <trkpt lat="47.19485" lon="5.98142">
        <ele>391.4</ele>
        <time>2021-04-25T09:05:12Z</time>
      </trkpt>
      <trkpt lat="47.19484" lon="5.98145">
        <ele>391.4</ele>
        <time>2021-04-25T09:05:13Z</time>
      </trkpt>
      <trkpt lat="47.19483" lon="5.98147">
        <ele>391.4</ele>
        <time>2021-04-25T09:05:14Z</time>
      </trkpt>
      <trkpt lat="47.1948" lon="5.98149">
        <ele>391.4</ele>
        <time>2021-04-25T09:05:15Z</time>
      </trkpt>
      <trkpt lat="47.19477" lon="5.98153">
        <ele>391.4</ele>
        <time>2021-04-25T09:05:16Z</time>
      </trkpt>
      <trkpt lat="47.19478" lon="5.98158">
        <ele>391.4</ele>
        <time>2021-04-25T09:05:17Z</time>
      </trkpt>
      <trkpt lat="47.19476" lon="5.98163">
        <ele>391.4</ele>
        <time>2021-04-25T09:05:18Z</time>
      </trkpt>
      <trkpt lat="47.19472" lon="5.98179">
        <ele>391.8</ele>
        <time>2021-04-25T09:05:23Z</time>
      </trkpt>
      <trkpt lat="47.19469" lon="5.9818">
        <ele>392</ele>
        <time>2021-04-25T09:05:24Z</time>
      </trkpt>
      <trkpt lat="47.19466" lon="5.98183">
        <ele>392</ele>
        <time>2021-04-25T09:05:25Z</time>
      </trkpt>
      <trkpt lat="47.19466" lon="5.98184">
        <ele>392.2</ele>
        <time>2021-04-25T09:05:26Z</time>
      </trkpt>
      <trkpt lat="47.19465" lon="5.98186">
        <ele>392.2</ele>
        <time>2021-04-25T09:05:27Z</time>
      </trkpt>
      <trkpt lat="47.19464" lon="5.98188">
        <ele>392.4</ele>
        <time>2021-04-25T09:05:28Z</time>
      </trkpt>
      <trkpt lat="47.19464" lon="5.98188">
        <ele>392.4</ele>
        <time>2021-04-25T09:05:29Z</time>
      </trkpt>
      <trkpt lat="47.19461" lon="5.98189">
        <ele>392.6</ele>
        <time>2021-04-25T09:05:30Z</time>
      </trkpt>
      <trkpt lat="47.19456" lon="5.98194">
        <ele>393</ele>
        <time>2021-04-25T09:05:32Z</time>
      </trkpt>
      <trkpt lat="47.19454" lon="5.98196">
        <ele>393.4</ele>
        <time>2021-04-25T09:05:33Z</time>
      </trkpt>
      <trkpt lat="47.19452" lon="5.98198">
        <ele>393.4</ele>
        <time>2021-04-25T09:05:34Z</time>
      </trkpt>
      <trkpt lat="47.1944" lon="5.98209">
        <ele>394.4</ele>
        <time>2021-04-25T09:05:39Z</time>
      </trkpt>
      <trkpt lat="47.19438" lon="5.98211">
        <ele>394.6</ele>
        <time>2021-04-25T09:05:40Z</time>
      </trkpt>
      <trkpt lat="47.19438" lon="5.98213">
        <ele>394.8</ele>
        <time>2021-04-25T09:05:41Z</time>
      </trkpt>
      <trkpt lat="47.19437" lon="5.98216">
        <ele>395</ele>
        <time>2021-04-25T09:05:42Z</time>
      </trkpt>
      <trkpt lat="47.19435" lon="5.98217">
        <ele>395</ele>
        <time>2021-04-25T09:05:43Z</time>
      </trkpt>
      <trkpt lat="47.19433" lon="5.98219">
        <ele>395.2</ele>
        <time>2021-04-25T09:05:44Z</time>
      </trkpt>
      <trkpt lat="47.19432" lon="5.9822">
        <ele>395.6</ele>
        <time>2021-04-25T09:05:45Z</time>
      </trkpt>
      <trkpt lat="47.1943" lon="5.98222">
        <ele>395.6</ele>
        <time>2021-04-25T09:05:46Z</time>
      </trkpt>
      <trkpt lat="47.19428" lon="5.98223">
        <ele>395.8</ele>
        <time>2021-04-25T09:05:47Z</time>
      </trkpt>
      <trkpt lat="47.19425" lon="5.98225">
        <ele>395.8</ele>
        <time>2021-04-25T09:05:48Z</time>
      </trkpt>
      <trkpt lat="47.19424" lon="5.98226">
        <ele>396.2</ele>
        <time>2021-04-25T09:05:49Z</time>
      </trkpt>
      <trkpt lat="47.19422" lon="5.98227">
        <ele>396.2</ele>
        <time>2021-04-25T09:05:50Z</time>
      </trkpt>
      <trkpt lat="47.19421" lon="5.98229">
        <ele>396.4</ele>
        <time>2021-04-25T09:05:51Z</time>
      </trkpt>
      <trkpt lat="47.19421" lon="5.9823">
        <ele>396.6</ele>
        <time>2021-04-25T09:05:52Z</time>
      </trkpt>
      <trkpt lat="47.19421" lon="5.98232">
        <ele>397</ele>
        <time>2021-04-25T09:05:53Z</time>
      </trkpt>
      <trkpt lat="47.19421" lon="5.98234">
        <ele>397.2</ele>
        <time>2021-04-25T09:05:54Z</time>
      </trkpt>
      <trkpt lat="47.19421" lon="5.98236">
        <ele>397.2</ele>
        <time>2021-04-25T09:05:55Z</time>
      </trkpt>
      <trkpt lat="47.19421" lon="5.98238">
        <ele>397.4</ele>
        <time>2021-04-25T09:05:56Z</time>
      </trkpt>
      <trkpt lat="47.1942" lon="5.9824">
        <ele>397.6</ele>
        <time>2021-04-25T09:05:57Z</time>
      </trkpt>
      <trkpt lat="47.19421" lon="5.98243">
        <ele>397.8</ele>
        <time>2021-04-25T09:05:58Z</time>
      </trkpt>
      <trkpt lat="47.19421" lon="5.98245">
        <ele>397.8</ele>
        <time>2021-04-25T09:05:59Z</time>
      </trkpt>
      <trkpt lat="47.1942" lon="5.98247">
        <ele>397.8</ele>
        <time>2021-04-25T09:06:00Z</time>
      </trkpt>
      <trkpt lat="47.1942" lon="5.98249">
        <ele>398</ele>
        <time>2021-04-25T09:06:01Z</time>
      </trkpt>
      <trkpt lat="47.19419" lon="5.9825">
        <ele>398.4</ele>
        <time>2021-04-25T09:06:02Z</time>
      </trkpt>
      <trkpt lat="47.19418" lon="5.98251">
        <ele>398.8</ele>
        <time>2021-04-25T09:06:03Z</time>
      </trkpt>
      <trkpt lat="47.19416" lon="5.98254">
        <ele>398.8</ele>
        <time>2021-04-25T09:06:04Z</time>
      </trkpt>
      <trkpt lat="47.19415" lon="5.98256">
        <ele>399</ele>
        <time>2021-04-25T09:06:05Z</time>
      </trkpt>
      <trkpt lat="47.19414" lon="5.98259">
        <ele>399.2</ele>
        <time>2021-04-25T09:06:06Z</time>
      </trkpt>
      <trkpt lat="47.19414" lon="5.98261">
        <ele>399.2</ele>
        <time>2021-04-25T09:06:07Z</time>
      </trkpt>
      <trkpt lat="47.19414" lon="5.98264">
        <ele>399.2</ele>
        <time>2021-04-25T09:06:08Z</time>
      </trkpt>
      <trkpt lat="47.19413" lon="5.98265">
        <ele>399.4</ele>
        <time>2021-04-25T09:06:09Z</time>
      </trkpt>
      <trkpt lat="47.19413" lon="5.98267">
        <ele>399.4</ele>
        <time>2021-04-25T09:06:10Z</time>
      </trkpt>
      <trkpt lat="47.19412" lon="5.98268">
        <ele>399.6</ele>
        <time>2021-04-25T09:06:11Z</time>
      </trkpt>
      <trkpt lat="47.1941" lon="5.9827">
        <ele>399.6</ele>
        <time>2021-04-25T09:06:12Z</time>
      </trkpt>
      <trkpt lat="47.19407" lon="5.98271">
        <ele>399.6</ele>
        <time>2021-04-25T09:06:13Z</time>
      </trkpt>
      <trkpt lat="47.19405" lon="5.98274">
        <ele>399.8</ele>
        <time>2021-04-25T09:06:14Z</time>
      </trkpt>
      <trkpt lat="47.19403" lon="5.98276">
        <ele>399.8</ele>
        <time>2021-04-25T09:06:15Z</time>
      </trkpt>
      <trkpt lat="47.19402" lon="5.98276">
        <ele>400</ele>
        <time>2021-04-25T09:06:16Z</time>
      </trkpt>
      <trkpt lat="47.19401" lon="5.98278">
        <ele>400</ele>
        <time>2021-04-25T09:06:17Z</time>
      </trkpt>
      <trkpt lat="47.19399" lon="5.98279">
        <ele>400.2</ele>
        <time>2021-04-25T09:06:18Z</time>
      </trkpt>
      <trkpt lat="47.19396" lon="5.98281">
        <ele>400.4</ele>
        <time>2021-04-25T09:06:19Z</time>
      </trkpt>
      <trkpt lat="47.19393" lon="5.98282">
        <ele>400.4</ele>
        <time>2021-04-25T09:06:20Z</time>
      </trkpt>
      <trkpt lat="47.1939" lon="5.98283">
        <ele>400.6</ele>
        <time>2021-04-25T09:06:21Z</time>
      </trkpt>
      <trkpt lat="47.19388" lon="5.98283">
        <ele>400.6</ele>
        <time>2021-04-25T09:06:22Z</time>
      </trkpt>
      <trkpt lat="47.19387" lon="5.98284">
        <ele>400.6</ele>
        <time>2021-04-25T09:06:23Z</time>
      </trkpt>
      <trkpt lat="47.19385" lon="5.98285">
        <ele>400.8</ele>
        <time>2021-04-25T09:06:24Z</time>
      </trkpt>
      <trkpt lat="47.19385" lon="5.98285">
        <ele>400.8</ele>
        <time>2021-04-25T09:06:25Z</time>
      </trkpt>
      <trkpt lat="47.19385" lon="5.98286">
        <ele>400.8</ele>
        <time>2021-04-25T09:06:26Z</time>
      </trkpt>
      <trkpt lat="47.19385" lon="5.98287">
        <ele>401</ele>
        <time>2021-04-25T09:06:27Z</time>
      </trkpt>
      <trkpt lat="47.19385" lon="5.98289">
        <ele>401.2</ele>
        <time>2021-04-25T09:06:28Z</time>
      </trkpt>
      <trkpt lat="47.19385" lon="5.98289">
        <ele>401.2</ele>
        <time>2021-04-25T09:06:29Z</time>
      </trkpt>
      <trkpt lat="47.19385" lon="5.98289">
        <ele>401.6</ele>
        <time>2021-04-25T09:06:32Z</time>
      </trkpt>
      <trkpt lat="47.19385" lon="5.9829">
        <ele>401.6</ele>
        <time>2021-04-25T09:06:33Z</time>
      </trkpt>
      <trkpt lat="47.19385" lon="5.9829">
        <ele>401.8</ele>
        <time>2021-04-25T09:06:34Z</time>
      </trkpt>
      <trkpt lat="47.19384" lon="5.98289">
        <ele>401.2</ele>
        <time>2021-04-25T09:07:13Z</time>
      </trkpt>
      <trkpt lat="47.19382" lon="5.9829">
        <ele>401.4</ele>
        <time>2021-04-25T09:07:24Z</time>
      </trkpt>
      <trkpt lat="47.19382" lon="5.98291">
        <ele>401.6</ele>
        <time>2021-04-25T09:07:27Z</time>
      </trkpt>
      <trkpt lat="47.19381" lon="5.98291">
        <ele>402.4</ele>
        <time>2021-04-25T09:07:32Z</time>
      </trkpt>
      <trkpt lat="47.1938" lon="5.98291">
        <ele>402.4</ele>
        <time>2021-04-25T09:07:33Z</time>
      </trkpt>
      <trkpt lat="47.19379" lon="5.98293">
        <ele>402.4</ele>
        <time>2021-04-25T09:07:34Z</time>
      </trkpt>
      <trkpt lat="47.19378" lon="5.98294">
        <ele>402.6</ele>
        <time>2021-04-25T09:07:35Z</time>
      </trkpt>
      <trkpt lat="47.19377" lon="5.98295">
        <ele>402.6</ele>
        <time>2021-04-25T09:07:36Z</time>
      </trkpt>
      <trkpt lat="47.19375" lon="5.98296">
        <ele>402.6</ele>
        <time>2021-04-25T09:07:37Z</time>
      </trkpt>
      <trkpt lat="47.19374" lon="5.98297">
        <ele>402.8</ele>
        <time>2021-04-25T09:07:38Z</time>
      </trkpt>
      <trkpt lat="47.19372" lon="5.98299">
        <ele>402.8</ele>
        <time>2021-04-25T09:07:39Z</time>
      </trkpt>
      <trkpt lat="47.19363" lon="5.98304">
        <ele>404</ele>
        <time>2021-04-25T09:07:42Z</time>
      </trkpt>
      <trkpt lat="47.19359" lon="5.98307">
        <ele>404.2</ele>
        <time>2021-04-25T09:07:43Z</time>
      </trkpt>
      <trkpt lat="47.19357" lon="5.98309">
        <ele>404.4</ele>
        <time>2021-04-25T09:07:44Z</time>
      </trkpt>
      <trkpt lat="47.19356" lon="5.98311">
        <ele>405</ele>
        <time>2021-04-25T09:07:45Z</time>
      </trkpt>
      <trkpt lat="47.19354" lon="5.98313">
        <ele>405.2</ele>
        <time>2021-04-25T09:07:46Z</time>
      </trkpt>
      <trkpt lat="47.19351" lon="5.98315">
        <ele>405.6</ele>
        <time>2021-04-25T09:07:47Z</time>
      </trkpt>
      <trkpt lat="47.19349" lon="5.98317">
        <ele>405.8</ele>
        <time>2021-04-25T09:07:48Z</time>
      </trkpt>
      <trkpt lat="47.19345" lon="5.98319">
        <ele>406.4</ele>
        <time>2021-04-25T09:07:49Z</time>
      </trkpt>
      <trkpt lat="47.19343" lon="5.98322">
        <ele>406.6</ele>
        <time>2021-04-25T09:07:50Z</time>
      </trkpt>
      <trkpt lat="47.1934" lon="5.98325">
        <ele>407</ele>
        <time>2021-04-25T09:07:51Z</time>
      </trkpt>
      <trkpt lat="47.19339" lon="5.98328">
        <ele>407.6</ele>
        <time>2021-04-25T09:07:52Z</time>
      </trkpt>
      <trkpt lat="47.19337" lon="5.9833">
        <ele>407.8</ele>
        <time>2021-04-25T09:07:53Z</time>
      </trkpt>
      <trkpt lat="47.19334" lon="5.98333">
        <ele>408.2</ele>
        <time>2021-04-25T09:07:54Z</time>
      </trkpt>
      <trkpt lat="47.19332" lon="5.98335">
        <ele>408.2</ele>
        <time>2021-04-25T09:07:55Z</time>
      </trkpt>
      <trkpt lat="47.1933" lon="5.98338">
        <ele>408.4</ele>
        <time>2021-04-25T09:07:56Z</time>
      </trkpt>
      <trkpt lat="47.1933" lon="5.9834">
        <ele>408.6</ele>
        <time>2021-04-25T09:07:57Z</time>
      </trkpt>
      <trkpt lat="47.19329" lon="5.98341">
        <ele>408.8</ele>
        <time>2021-04-25T09:07:58Z</time>
      </trkpt>
      <trkpt lat="47.19327" lon="5.98343">
        <ele>408.8</ele>
        <time>2021-04-25T09:07:59Z</time>
      </trkpt>
      <trkpt lat="47.19326" lon="5.98345">
        <ele>409.2</ele>
        <time>2021-04-25T09:08:00Z</time>
      </trkpt>
      <trkpt lat="47.19324" lon="5.98347">
        <ele>409.4</ele>
        <time>2021-04-25T09:08:01Z</time>
      </trkpt>
      <trkpt lat="47.19322" lon="5.98347">
        <ele>409.6</ele>
        <time>2021-04-25T09:08:02Z</time>
      </trkpt>
      <trkpt lat="47.19321" lon="5.98348">
        <ele>409.8</ele>
        <time>2021-04-25T09:08:03Z</time>
      </trkpt>
      <trkpt lat="47.19321" lon="5.9835">
        <ele>409.8</ele>
        <time>2021-04-25T09:08:04Z</time>
      </trkpt>
      <trkpt lat="47.19321" lon="5.98351">
        <ele>410.2</ele>
        <time>2021-04-25T09:08:05Z</time>
      </trkpt>
      <trkpt lat="47.19322" lon="5.98352">
        <ele>410.2</ele>
        <time>2021-04-25T09:08:06Z</time>
      </trkpt>
      <trkpt lat="47.19323" lon="5.98353">
        <ele>410.2</ele>
        <time>2021-04-25T09:08:07Z</time>
      </trkpt>
      <trkpt lat="47.19323" lon="5.98354">
        <ele>410.4</ele>
        <time>2021-04-25T09:08:08Z</time>
      </trkpt>
      <trkpt lat="47.19324" lon="5.98355">
        <ele>410.4</ele>
        <time>2021-04-25T09:08:09Z</time>
      </trkpt>
      <trkpt lat="47.19325" lon="5.98357">
        <ele>410.6</ele>
        <time>2021-04-25T09:08:10Z</time>
      </trkpt>
      <trkpt lat="47.19326" lon="5.98358">
        <ele>410.6</ele>
        <time>2021-04-25T09:08:11Z</time>
      </trkpt>
      <trkpt lat="47.19327" lon="5.9836">
        <ele>410.6</ele>
        <time>2021-04-25T09:08:12Z</time>
      </trkpt>
      <trkpt lat="47.19327" lon="5.98361">
        <ele>410.6</ele>
        <time>2021-04-25T09:08:13Z</time>
      </trkpt>
      <trkpt lat="47.19327" lon="5.98363">
        <ele>410.6</ele>
        <time>2021-04-25T09:08:14Z</time>
      </trkpt>
      <trkpt lat="47.19328" lon="5.98365">
        <ele>410.4</ele>
        <time>2021-04-25T09:08:15Z</time>
      </trkpt>
      <trkpt lat="47.19328" lon="5.98367">
        <ele>410.6</ele>
        <time>2021-04-25T09:08:16Z</time>
      </trkpt>
      <trkpt lat="47.19329" lon="5.98369">
        <ele>410.6</ele>
        <time>2021-04-25T09:08:17Z</time>
      </trkpt>
      <trkpt lat="47.1933" lon="5.9837">
        <ele>410.6</ele>
        <time>2021-04-25T09:08:18Z</time>
      </trkpt>
      <trkpt lat="47.19331" lon="5.98372">
        <ele>410.6</ele>
        <time>2021-04-25T09:08:19Z</time>
      </trkpt>
      <trkpt lat="47.19331" lon="5.98374">
        <ele>410.6</ele>
        <time>2021-04-25T09:08:20Z</time>
      </trkpt>
      <trkpt lat="47.19332" lon="5.98376">
        <ele>410.6</ele>
        <time>2021-04-25T09:08:21Z</time>
      </trkpt>
      <trkpt lat="47.19333" lon="5.98378">
        <ele>410.6</ele>
        <time>2021-04-25T09:08:22Z</time>
      </trkpt>
      <trkpt lat="47.19334" lon="5.98379">
        <ele>410.6</ele>
        <time>2021-04-25T09:08:23Z</time>
      </trkpt>
      <trkpt lat="47.19335" lon="5.98382">
        <ele>410.6</ele>
        <time>2021-04-25T09:08:24Z</time>
      </trkpt>
      <trkpt lat="47.19336" lon="5.98384">
        <ele>410.6</ele>
        <time>2021-04-25T09:08:25Z</time>
      </trkpt>
      <trkpt lat="47.1934" lon="5.98394">
        <ele>410.6</ele>
        <time>2021-04-25T09:08:29Z</time>
      </trkpt>
      <trkpt lat="47.1934" lon="5.98397">
        <ele>410.6</ele>
        <time>2021-04-25T09:08:30Z</time>
      </trkpt>
      <trkpt lat="47.19342" lon="5.98402">
        <ele>410.6</ele>
        <time>2021-04-25T09:08:32Z</time>
      </trkpt>
      <trkpt lat="47.19343" lon="5.98404">
        <ele>410.6</ele>
        <time>2021-04-25T09:08:33Z</time>
      </trkpt>
      <trkpt lat="47.19344" lon="5.98406">
        <ele>410.6</ele>
        <time>2021-04-25T09:08:34Z</time>
      </trkpt>
      <trkpt lat="47.1935" lon="5.98419">
        <ele>410.8</ele>
        <time>2021-04-25T09:08:39Z</time>
      </trkpt>
      <trkpt lat="47.19356" lon="5.98435">
        <ele>411</ele>
        <time>2021-04-25T09:08:44Z</time>
      </trkpt>
      <trkpt lat="47.19357" lon="5.98446">
        <ele>410.8</ele>
        <time>2021-04-25T09:08:47Z</time>
      </trkpt>
      <trkpt lat="47.19356" lon="5.98448">
        <ele>410.8</ele>
        <time>2021-04-25T09:08:48Z</time>
      </trkpt>
      <trkpt lat="47.19354" lon="5.98451">
        <ele>410.8</ele>
        <time>2021-04-25T09:08:49Z</time>
      </trkpt>
      <trkpt lat="47.19353" lon="5.98453">
        <ele>411</ele>
        <time>2021-04-25T09:08:50Z</time>
      </trkpt>
      <trkpt lat="47.19352" lon="5.98455">
        <ele>411</ele>
        <time>2021-04-25T09:08:51Z</time>
      </trkpt>
      <trkpt lat="47.19351" lon="5.98457">
        <ele>411</ele>
        <time>2021-04-25T09:08:52Z</time>
      </trkpt>
      <trkpt lat="47.1935" lon="5.98458">
        <ele>411</ele>
        <time>2021-04-25T09:08:53Z</time>
      </trkpt>
      <trkpt lat="47.19348" lon="5.9846">
        <ele>411</ele>
        <time>2021-04-25T09:08:54Z</time>
      </trkpt>
      <trkpt lat="47.19346" lon="5.98461">
        <ele>411.4</ele>
        <time>2021-04-25T09:08:55Z</time>
      </trkpt>
      <trkpt lat="47.19345" lon="5.98462">
        <ele>411.4</ele>
        <time>2021-04-25T09:08:56Z</time>
      </trkpt>
      <trkpt lat="47.19343" lon="5.98463">
        <ele>411.6</ele>
        <time>2021-04-25T09:08:57Z</time>
      </trkpt>
      <trkpt lat="47.19342" lon="5.98465">
        <ele>411.8</ele>
        <time>2021-04-25T09:08:58Z</time>
      </trkpt>
      <trkpt lat="47.19341" lon="5.98466">
        <ele>412</ele>
        <time>2021-04-25T09:08:59Z</time>
      </trkpt>
      <trkpt lat="47.1934" lon="5.98467">
        <ele>412.2</ele>
        <time>2021-04-25T09:09:00Z</time>
      </trkpt>
      <trkpt lat="47.19339" lon="5.98468">
        <ele>412.4</ele>
        <time>2021-04-25T09:09:01Z</time>
      </trkpt>
      <trkpt lat="47.19338" lon="5.98469">
        <ele>412.6</ele>
        <time>2021-04-25T09:09:02Z</time>
      </trkpt>
      <trkpt lat="47.19337" lon="5.9847">
        <ele>412.8</ele>
        <time>2021-04-25T09:09:03Z</time>
      </trkpt>
      <trkpt lat="47.19335" lon="5.98471">
        <ele>413.2</ele>
        <time>2021-04-25T09:09:04Z</time>
      </trkpt>
      <trkpt lat="47.19333" lon="5.98473">
        <ele>413.2</ele>
        <time>2021-04-25T09:09:05Z</time>
      </trkpt>
      <trkpt lat="47.19332" lon="5.98474">
        <ele>413.4</ele>
        <time>2021-04-25T09:09:06Z</time>
      </trkpt>
      <trkpt lat="47.19329" lon="5.98476">
        <ele>413.8</ele>
        <time>2021-04-25T09:09:08Z</time>
      </trkpt>
      <trkpt lat="47.19327" lon="5.98477">
        <ele>414.2</ele>
        <time>2021-04-25T09:09:09Z</time>
      </trkpt>
      <trkpt lat="47.19326" lon="5.98479">
        <ele>414.2</ele>
        <time>2021-04-25T09:09:10Z</time>
      </trkpt>
      <trkpt lat="47.19324" lon="5.9848">
        <ele>414.4</ele>
        <time>2021-04-25T09:09:11Z</time>
      </trkpt>
      <trkpt lat="47.19322" lon="5.98482">
        <ele>414.4</ele>
        <time>2021-04-25T09:09:12Z</time>
      </trkpt>
      <trkpt lat="47.19321" lon="5.98483">
        <ele>414.6</ele>
        <time>2021-04-25T09:09:13Z</time>
      </trkpt>
      <trkpt lat="47.19319" lon="5.98484">
        <ele>414.8</ele>
        <time>2021-04-25T09:09:14Z</time>
      </trkpt>
      <trkpt lat="47.19317" lon="5.98485">
        <ele>415</ele>
        <time>2021-04-25T09:09:15Z</time>
      </trkpt>
      <trkpt lat="47.19315" lon="5.98486">
        <ele>415</ele>
        <time>2021-04-25T09:09:16Z</time>
      </trkpt>
      <trkpt lat="47.19313" lon="5.98487">
        <ele>415.4</ele>
        <time>2021-04-25T09:09:17Z</time>
      </trkpt>
      <trkpt lat="47.19312" lon="5.98488">
        <ele>415.6</ele>
        <time>2021-04-25T09:09:18Z</time>
      </trkpt>
      <trkpt lat="47.1931" lon="5.98489">
        <ele>415.6</ele>
        <time>2021-04-25T09:09:19Z</time>
      </trkpt>
      <trkpt lat="47.19308" lon="5.9849">
        <ele>415.8</ele>
        <time>2021-04-25T09:09:20Z</time>
      </trkpt>
      <trkpt lat="47.19307" lon="5.98491">
        <ele>416</ele>
        <time>2021-04-25T09:09:21Z</time>
      </trkpt>
      <trkpt lat="47.19306" lon="5.98491">
        <ele>416.4</ele>
        <time>2021-04-25T09:09:22Z</time>
      </trkpt>
      <trkpt lat="47.19305" lon="5.98492">
        <ele>416.6</ele>
        <time>2021-04-25T09:09:23Z</time>
      </trkpt>
      <trkpt lat="47.19303" lon="5.98493">
        <ele>416.8</ele>
        <time>2021-04-25T09:09:24Z</time>
      </trkpt>
      <trkpt lat="47.19301" lon="5.98495">
        <ele>417</ele>
        <time>2021-04-25T09:09:25Z</time>
      </trkpt>
      <trkpt lat="47.193" lon="5.98497">
        <ele>417.2</ele>
        <time>2021-04-25T09:09:26Z</time>
      </trkpt>
      <trkpt lat="47.19299" lon="5.98497">
        <ele>417.4</ele>
        <time>2021-04-25T09:09:27Z</time>
      </trkpt>
      <trkpt lat="47.19297" lon="5.98498">
        <ele>417.4</ele>
        <time>2021-04-25T09:09:28Z</time>
      </trkpt>
      <trkpt lat="47.19296" lon="5.98499">
        <ele>417.8</ele>
        <time>2021-04-25T09:09:29Z</time>
      </trkpt>
      <trkpt lat="47.19295" lon="5.985">
        <ele>417.8</ele>
        <time>2021-04-25T09:09:30Z</time>
      </trkpt>
      <trkpt lat="47.19293" lon="5.985">
        <ele>417.8</ele>
        <time>2021-04-25T09:09:31Z</time>
      </trkpt>
      <trkpt lat="47.19292" lon="5.98501">
        <ele>418</ele>
        <time>2021-04-25T09:09:32Z</time>
      </trkpt>
      <trkpt lat="47.1929" lon="5.98502">
        <ele>418.2</ele>
        <time>2021-04-25T09:09:33Z</time>
      </trkpt>
      <trkpt lat="47.19289" lon="5.98503">
        <ele>418.2</ele>
        <time>2021-04-25T09:09:34Z</time>
      </trkpt>
      <trkpt lat="47.19287" lon="5.98504">
        <ele>418.2</ele>
        <time>2021-04-25T09:09:35Z</time>
      </trkpt>
      <trkpt lat="47.19286" lon="5.98505">
        <ele>418.6</ele>
        <time>2021-04-25T09:09:36Z</time>
      </trkpt>
      <trkpt lat="47.19284" lon="5.98506">
        <ele>418.8</ele>
        <time>2021-04-25T09:09:37Z</time>
      </trkpt>
      <trkpt lat="47.19282" lon="5.98506">
        <ele>419</ele>
        <time>2021-04-25T09:09:38Z</time>
      </trkpt>
      <trkpt lat="47.1928" lon="5.98507">
        <ele>419.2</ele>
        <time>2021-04-25T09:09:39Z</time>
      </trkpt>
      <trkpt lat="47.19278" lon="5.98508">
        <ele>419.4</ele>
        <time>2021-04-25T09:09:40Z</time>
      </trkpt>
      <trkpt lat="47.19276" lon="5.98509">
        <ele>419.6</ele>
        <time>2021-04-25T09:09:41Z</time>
      </trkpt>
      <trkpt lat="47.19274" lon="5.9851">
        <ele>419.8</ele>
        <time>2021-04-25T09:09:42Z</time>
      </trkpt>
      <trkpt lat="47.19272" lon="5.98511">
        <ele>420</ele>
        <time>2021-04-25T09:09:43Z</time>
      </trkpt>
      <trkpt lat="47.19271" lon="5.98512">
        <ele>420</ele>
        <time>2021-04-25T09:09:44Z</time>
      </trkpt>
      <trkpt lat="47.19269" lon="5.98513">
        <ele>420.4</ele>
        <time>2021-04-25T09:09:45Z</time>
      </trkpt>
      <trkpt lat="47.19267" lon="5.98514">
        <ele>420.4</ele>
        <time>2021-04-25T09:09:46Z</time>
      </trkpt>
      <trkpt lat="47.19266" lon="5.98515">
        <ele>420.8</ele>
        <time>2021-04-25T09:09:47Z</time>
      </trkpt>
      <trkpt lat="47.19264" lon="5.98516">
        <ele>421</ele>
        <time>2021-04-25T09:09:48Z</time>
      </trkpt>
      <trkpt lat="47.19262" lon="5.98518">
        <ele>421</ele>
        <time>2021-04-25T09:09:49Z</time>
      </trkpt>
      <trkpt lat="47.1926" lon="5.98519">
        <ele>421.4</ele>
        <time>2021-04-25T09:09:50Z</time>
      </trkpt>
      <trkpt lat="47.19259" lon="5.98521">
        <ele>421.4</ele>
        <time>2021-04-25T09:09:51Z</time>
      </trkpt>
      <trkpt lat="47.19257" lon="5.98522">
        <ele>421.6</ele>
        <time>2021-04-25T09:09:52Z</time>
      </trkpt>
      <trkpt lat="47.19256" lon="5.98523">
        <ele>421.8</ele>
        <time>2021-04-25T09:09:53Z</time>
      </trkpt>
      <trkpt lat="47.19254" lon="5.98524">
        <ele>422</ele>
        <time>2021-04-25T09:09:54Z</time>
      </trkpt>
      <trkpt lat="47.19252" lon="5.98525">
        <ele>422</ele>
        <time>2021-04-25T09:09:55Z</time>
      </trkpt>
      <trkpt lat="47.19251" lon="5.98526">
        <ele>422.2</ele>
        <time>2021-04-25T09:09:56Z</time>
      </trkpt>
      <trkpt lat="47.19249" lon="5.98526">
        <ele>422.4</ele>
        <time>2021-04-25T09:09:57Z</time>
      </trkpt>
      <trkpt lat="47.19247" lon="5.98527">
        <ele>422.8</ele>
        <time>2021-04-25T09:09:58Z</time>
      </trkpt>
      <trkpt lat="47.19245" lon="5.98528">
        <ele>423</ele>
        <time>2021-04-25T09:09:59Z</time>
      </trkpt>
      <trkpt lat="47.19244" lon="5.9853">
        <ele>423.2</ele>
        <time>2021-04-25T09:10:00Z</time>
      </trkpt>
      <trkpt lat="47.19242" lon="5.98531">
        <ele>423.6</ele>
        <time>2021-04-25T09:10:01Z</time>
      </trkpt>
      <trkpt lat="47.19241" lon="5.98532">
        <ele>423.6</ele>
        <time>2021-04-25T09:10:02Z</time>
      </trkpt>
      <trkpt lat="47.19239" lon="5.98533">
        <ele>423.8</ele>
        <time>2021-04-25T09:10:03Z</time>
      </trkpt>
      <trkpt lat="47.19238" lon="5.98533">
        <ele>424</ele>
        <time>2021-04-25T09:10:04Z</time>
      </trkpt>
      <trkpt lat="47.19236" lon="5.98534">
        <ele>424.4</ele>
        <time>2021-04-25T09:10:05Z</time>
      </trkpt>
      <trkpt lat="47.19234" lon="5.98534">
        <ele>424.6</ele>
        <time>2021-04-25T09:10:06Z</time>
      </trkpt>
      <trkpt lat="47.19232" lon="5.98534">
        <ele>425</ele>
        <time>2021-04-25T09:10:07Z</time>
      </trkpt>
      <trkpt lat="47.1923" lon="5.98534">
        <ele>425.2</ele>
        <time>2021-04-25T09:10:08Z</time>
      </trkpt>
      <trkpt lat="47.19228" lon="5.98535">
        <ele>425.4</ele>
        <time>2021-04-25T09:10:09Z</time>
      </trkpt>
      <trkpt lat="47.19226" lon="5.98535">
        <ele>425.6</ele>
        <time>2021-04-25T09:10:10Z</time>
      </trkpt>
      <trkpt lat="47.19224" lon="5.98536">
        <ele>425.6</ele>
        <time>2021-04-25T09:10:11Z</time>
      </trkpt>
      <trkpt lat="47.19222" lon="5.98536">
        <ele>425.8</ele>
        <time>2021-04-25T09:10:12Z</time>
      </trkpt>
      <trkpt lat="47.1922" lon="5.98537">
        <ele>425.8</ele>
        <time>2021-04-25T09:10:13Z</time>
      </trkpt>
      <trkpt lat="47.19219" lon="5.98537">
        <ele>426</ele>
        <time>2021-04-25T09:10:14Z</time>
      </trkpt>
      <trkpt lat="47.19217" lon="5.98537">
        <ele>426.2</ele>
        <time>2021-04-25T09:10:15Z</time>
      </trkpt>
      <trkpt lat="47.19215" lon="5.98538">
        <ele>426.4</ele>
        <time>2021-04-25T09:10:16Z</time>
      </trkpt>
      <trkpt lat="47.19213" lon="5.98538">
        <ele>426.6</ele>
        <time>2021-04-25T09:10:17Z</time>
      </trkpt>
      <trkpt lat="47.19211" lon="5.98539">
        <ele>426.8</ele>
        <time>2021-04-25T09:10:18Z</time>
      </trkpt>
      <trkpt lat="47.19209" lon="5.98539">
        <ele>427</ele>
        <time>2021-04-25T09:10:19Z</time>
      </trkpt>
      <trkpt lat="47.19208" lon="5.98539">
        <ele>427.2</ele>
        <time>2021-04-25T09:10:20Z</time>
      </trkpt>
      <trkpt lat="47.19206" lon="5.98539">
        <ele>427.4</ele>
        <time>2021-04-25T09:10:21Z</time>
      </trkpt>
      <trkpt lat="47.19204" lon="5.98539">
        <ele>427.4</ele>
        <time>2021-04-25T09:10:22Z</time>
      </trkpt>
      <trkpt lat="47.19202" lon="5.98538">
        <ele>427.6</ele>
        <time>2021-04-25T09:10:23Z</time>
      </trkpt>
      <trkpt lat="47.192" lon="5.98538">
        <ele>427.8</ele>
        <time>2021-04-25T09:10:24Z</time>
      </trkpt>
      <trkpt lat="47.19198" lon="5.98538">
        <ele>428</ele>
        <time>2021-04-25T09:10:25Z</time>
      </trkpt>
      <trkpt lat="47.19197" lon="5.98537">
        <ele>428.2</ele>
        <time>2021-04-25T09:10:26Z</time>
      </trkpt>
      <trkpt lat="47.19195" lon="5.98536">
        <ele>428.4</ele>
        <time>2021-04-25T09:10:27Z</time>
      </trkpt>
      <trkpt lat="47.19193" lon="5.98536">
        <ele>428.6</ele>
        <time>2021-04-25T09:10:28Z</time>
      </trkpt>
      <trkpt lat="47.19192" lon="5.98535">
        <ele>428.6</ele>
        <time>2021-04-25T09:10:29Z</time>
      </trkpt>
      <trkpt lat="47.1919" lon="5.98535">
        <ele>428.8</ele>
        <time>2021-04-25T09:10:30Z</time>
      </trkpt>
      <trkpt lat="47.19189" lon="5.98534">
        <ele>429</ele>
        <time>2021-04-25T09:10:31Z</time>
      </trkpt>
      <trkpt lat="47.19187" lon="5.98533">
        <ele>429</ele>
        <time>2021-04-25T09:10:32Z</time>
      </trkpt>
      <trkpt lat="47.19185" lon="5.98532">
        <ele>429.2</ele>
        <time>2021-04-25T09:10:33Z</time>
      </trkpt>
      <trkpt lat="47.19183" lon="5.98532">
        <ele>429.2</ele>
        <time>2021-04-25T09:10:34Z</time>
      </trkpt>
      <trkpt lat="47.19182" lon="5.98531">
        <ele>429.4</ele>
        <time>2021-04-25T09:10:35Z</time>
      </trkpt>
      <trkpt lat="47.1918" lon="5.98531">
        <ele>429.4</ele>
        <time>2021-04-25T09:10:36Z</time>
      </trkpt>
      <trkpt lat="47.19178" lon="5.9853">
        <ele>429.8</ele>
        <time>2021-04-25T09:10:37Z</time>
      </trkpt>
      <trkpt lat="47.19176" lon="5.98529">
        <ele>429.8</ele>
        <time>2021-04-25T09:10:38Z</time>
      </trkpt>
      <trkpt lat="47.19175" lon="5.98529">
        <ele>430</ele>
        <time>2021-04-25T09:10:39Z</time>
      </trkpt>
      <trkpt lat="47.19173" lon="5.98528">
        <ele>430</ele>
        <time>2021-04-25T09:10:40Z</time>
      </trkpt>
      <trkpt lat="47.19171" lon="5.98527">
        <ele>430.2</ele>
        <time>2021-04-25T09:10:41Z</time>
      </trkpt>
      <trkpt lat="47.19169" lon="5.98526">
        <ele>430.4</ele>
        <time>2021-04-25T09:10:42Z</time>
      </trkpt>
      <trkpt lat="47.19168" lon="5.98526">
        <ele>430.6</ele>
        <time>2021-04-25T09:10:43Z</time>
      </trkpt>
      <trkpt lat="47.19166" lon="5.98525">
        <ele>430.8</ele>
        <time>2021-04-25T09:10:44Z</time>
      </trkpt>
      <trkpt lat="47.19165" lon="5.98524">
        <ele>431</ele>
        <time>2021-04-25T09:10:45Z</time>
      </trkpt>
      <trkpt lat="47.19163" lon="5.98523">
        <ele>431.2</ele>
        <time>2021-04-25T09:10:46Z</time>
      </trkpt>
      <trkpt lat="47.19162" lon="5.98523">
        <ele>431.2</ele>
        <time>2021-04-25T09:10:47Z</time>
      </trkpt>
      <trkpt lat="47.1916" lon="5.98522">
        <ele>431.4</ele>
        <time>2021-04-25T09:10:48Z</time>
      </trkpt>
      <trkpt lat="47.19158" lon="5.98522">
        <ele>431.6</ele>
        <time>2021-04-25T09:10:49Z</time>
      </trkpt>
      <trkpt lat="47.19157" lon="5.98521">
        <ele>431.6</ele>
        <time>2021-04-25T09:10:50Z</time>
      </trkpt>
      <trkpt lat="47.19155" lon="5.9852">
        <ele>431.8</ele>
        <time>2021-04-25T09:10:51Z</time>
      </trkpt>
      <trkpt lat="47.19153" lon="5.9852">
        <ele>431.8</ele>
        <time>2021-04-25T09:10:52Z</time>
      </trkpt>
      <trkpt lat="47.19152" lon="5.98519">
        <ele>432</ele>
        <time>2021-04-25T09:10:53Z</time>
      </trkpt>
      <trkpt lat="47.1915" lon="5.98518">
        <ele>432</ele>
        <time>2021-04-25T09:10:54Z</time>
      </trkpt>
      <trkpt lat="47.19148" lon="5.98518">
        <ele>432.2</ele>
        <time>2021-04-25T09:10:55Z</time>
      </trkpt>
      <trkpt lat="47.19146" lon="5.98517">
        <ele>432.4</ele>
        <time>2021-04-25T09:10:56Z</time>
      </trkpt>
      <trkpt lat="47.19144" lon="5.98516">
        <ele>432.8</ele>
        <time>2021-04-25T09:10:57Z</time>
      </trkpt>
      <trkpt lat="47.19142" lon="5.98514">
        <ele>433</ele>
        <time>2021-04-25T09:10:58Z</time>
      </trkpt>
      <trkpt lat="47.1914" lon="5.98513">
        <ele>433</ele>
        <time>2021-04-25T09:10:59Z</time>
      </trkpt>
      <trkpt lat="47.19138" lon="5.98512">
        <ele>433.4</ele>
        <time>2021-04-25T09:11:00Z</time>
      </trkpt>
      <trkpt lat="47.19136" lon="5.98511">
        <ele>433.4</ele>
        <time>2021-04-25T09:11:01Z</time>
      </trkpt>
      <trkpt lat="47.19134" lon="5.98511">
        <ele>433.6</ele>
        <time>2021-04-25T09:11:02Z</time>
      </trkpt>
      <trkpt lat="47.19132" lon="5.9851">
        <ele>433.6</ele>
        <time>2021-04-25T09:11:03Z</time>
      </trkpt>
      <trkpt lat="47.1913" lon="5.98509">
        <ele>434</ele>
        <time>2021-04-25T09:11:04Z</time>
      </trkpt>
      <trkpt lat="47.19128" lon="5.98508">
        <ele>434.2</ele>
        <time>2021-04-25T09:11:05Z</time>
      </trkpt>
      <trkpt lat="47.19127" lon="5.98507">
        <ele>434.2</ele>
        <time>2021-04-25T09:11:06Z</time>
      </trkpt>
      <trkpt lat="47.19125" lon="5.98506">
        <ele>434.4</ele>
        <time>2021-04-25T09:11:07Z</time>
      </trkpt>
      <trkpt lat="47.19123" lon="5.98504">
        <ele>434.4</ele>
        <time>2021-04-25T09:11:08Z</time>
      </trkpt>
      <trkpt lat="47.19121" lon="5.98504">
        <ele>434.6</ele>
        <time>2021-04-25T09:11:09Z</time>
      </trkpt>
      <trkpt lat="47.1912" lon="5.98503">
        <ele>434.6</ele>
        <time>2021-04-25T09:11:10Z</time>
      </trkpt>
      <trkpt lat="47.19118" lon="5.98502">
        <ele>434.6</ele>
        <time>2021-04-25T09:11:11Z</time>
      </trkpt>
      <trkpt lat="47.19116" lon="5.98502">
        <ele>434.8</ele>
        <time>2021-04-25T09:11:12Z</time>
      </trkpt>
      <trkpt lat="47.19114" lon="5.98501">
        <ele>435</ele>
        <time>2021-04-25T09:11:13Z</time>
      </trkpt>
      <trkpt lat="47.19112" lon="5.985">
        <ele>435.2</ele>
        <time>2021-04-25T09:11:14Z</time>
      </trkpt>
      <trkpt lat="47.1911" lon="5.98499">
        <ele>435.2</ele>
        <time>2021-04-25T09:11:15Z</time>
      </trkpt>
      <trkpt lat="47.19108" lon="5.98498">
        <ele>435.6</ele>
        <time>2021-04-25T09:11:16Z</time>
      </trkpt>
      <trkpt lat="47.19107" lon="5.98497">
        <ele>435.8</ele>
        <time>2021-04-25T09:11:17Z</time>
      </trkpt>
      <trkpt lat="47.19105" lon="5.98496">
        <ele>436</ele>
        <time>2021-04-25T09:11:18Z</time>
      </trkpt>
      <trkpt lat="47.19103" lon="5.98494">
        <ele>436</ele>
        <time>2021-04-25T09:11:19Z</time>
      </trkpt>
      <trkpt lat="47.19101" lon="5.98493">
        <ele>436.2</ele>
        <time>2021-04-25T09:11:20Z</time>
      </trkpt>
      <trkpt lat="47.19099" lon="5.98492">
        <ele>436.2</ele>
        <time>2021-04-25T09:11:21Z</time>
      </trkpt>
      <trkpt lat="47.19097" lon="5.98491">
        <ele>436.2</ele>
        <time>2021-04-25T09:11:22Z</time>
      </trkpt>
      <trkpt lat="47.19096" lon="5.9849">
        <ele>436.4</ele>
        <time>2021-04-25T09:11:23Z</time>
      </trkpt>
      <trkpt lat="47.19094" lon="5.98489">
        <ele>436.6</ele>
        <time>2021-04-25T09:11:24Z</time>
      </trkpt>
      <trkpt lat="47.19092" lon="5.98488">
        <ele>436.8</ele>
        <time>2021-04-25T09:11:25Z</time>
      </trkpt>
      <trkpt lat="47.1909" lon="5.98488">
        <ele>437</ele>
        <time>2021-04-25T09:11:26Z</time>
      </trkpt>
      <trkpt lat="47.19088" lon="5.98487">
        <ele>437.2</ele>
        <time>2021-04-25T09:11:27Z</time>
      </trkpt>
      <trkpt lat="47.19086" lon="5.98486">
        <ele>437.2</ele>
        <time>2021-04-25T09:11:28Z</time>
      </trkpt>
      <trkpt lat="47.19084" lon="5.98486">
        <ele>437.4</ele>
        <time>2021-04-25T09:11:29Z</time>
      </trkpt>
      <trkpt lat="47.19082" lon="5.98485">
        <ele>437.8</ele>
        <time>2021-04-25T09:11:30Z</time>
      </trkpt>
      <trkpt lat="47.19081" lon="5.98485">
        <ele>438</ele>
        <time>2021-04-25T09:11:31Z</time>
      </trkpt>
      <trkpt lat="47.19079" lon="5.98484">
        <ele>438.2</ele>
        <time>2021-04-25T09:11:32Z</time>
      </trkpt>
      <trkpt lat="47.19077" lon="5.98484">
        <ele>438.2</ele>
        <time>2021-04-25T09:11:33Z</time>
      </trkpt>
      <trkpt lat="47.19075" lon="5.98483">
        <ele>438.4</ele>
        <time>2021-04-25T09:11:34Z</time>
      </trkpt>
      <trkpt lat="47.19073" lon="5.98483">
        <ele>438.6</ele>
        <time>2021-04-25T09:11:35Z</time>
      </trkpt>
      <trkpt lat="47.19072" lon="5.98484">
        <ele>438.8</ele>
        <time>2021-04-25T09:11:36Z</time>
      </trkpt>
      <trkpt lat="47.1907" lon="5.98484">
        <ele>439</ele>
        <time>2021-04-25T09:11:37Z</time>
      </trkpt>
      <trkpt lat="47.19068" lon="5.98485">
        <ele>439.2</ele>
        <time>2021-04-25T09:11:38Z</time>
      </trkpt>
      <trkpt lat="47.19066" lon="5.98486">
        <ele>439.4</ele>
        <time>2021-04-25T09:11:39Z</time>
      </trkpt>
      <trkpt lat="47.19065" lon="5.98487">
        <ele>439.6</ele>
        <time>2021-04-25T09:11:40Z</time>
      </trkpt>
      <trkpt lat="47.19063" lon="5.98489">
        <ele>439.8</ele>
        <time>2021-04-25T09:11:41Z</time>
      </trkpt>
      <trkpt lat="47.19062" lon="5.98491">
        <ele>440</ele>
        <time>2021-04-25T09:11:42Z</time>
      </trkpt>
      <trkpt lat="47.19061" lon="5.98493">
        <ele>440</ele>
        <time>2021-04-25T09:11:43Z</time>
      </trkpt>
      <trkpt lat="47.1906" lon="5.98495">
        <ele>440.2</ele>
        <time>2021-04-25T09:11:44Z</time>
      </trkpt>
      <trkpt lat="47.19059" lon="5.98497">
        <ele>440.4</ele>
        <time>2021-04-25T09:11:45Z</time>
      </trkpt>
      <trkpt lat="47.19059" lon="5.985">
        <ele>440.8</ele>
        <time>2021-04-25T09:11:46Z</time>
      </trkpt>
      <trkpt lat="47.19058" lon="5.98503">
        <ele>440.8</ele>
        <time>2021-04-25T09:11:47Z</time>
      </trkpt>
      <trkpt lat="47.19058" lon="5.98506">
        <ele>441</ele>
        <time>2021-04-25T09:11:48Z</time>
      </trkpt>
      <trkpt lat="47.19058" lon="5.98509">
        <ele>441</ele>
        <time>2021-04-25T09:11:49Z</time>
      </trkpt>
      <trkpt lat="47.19058" lon="5.98512">
        <ele>441.4</ele>
        <time>2021-04-25T09:11:50Z</time>
      </trkpt>
      <trkpt lat="47.19059" lon="5.98515">
        <ele>441.4</ele>
        <time>2021-04-25T09:11:51Z</time>
      </trkpt>
      <trkpt lat="47.1906" lon="5.98518">
        <ele>441.6</ele>
        <time>2021-04-25T09:11:52Z</time>
      </trkpt>
      <trkpt lat="47.19061" lon="5.9852">
        <ele>441.8</ele>
        <time>2021-04-25T09:11:53Z</time>
      </trkpt>
      <trkpt lat="47.19062" lon="5.98523">
        <ele>442</ele>
        <time>2021-04-25T09:11:54Z</time>
      </trkpt>
      <trkpt lat="47.19063" lon="5.98526">
        <ele>442.2</ele>
        <time>2021-04-25T09:11:55Z</time>
      </trkpt>
      <trkpt lat="47.19064" lon="5.98528">
        <ele>442.4</ele>
        <time>2021-04-25T09:11:56Z</time>
      </trkpt>
      <trkpt lat="47.19065" lon="5.98531">
        <ele>442.8</ele>
        <time>2021-04-25T09:11:57Z</time>
      </trkpt>
      <trkpt lat="47.19066" lon="5.98534">
        <ele>442.8</ele>
        <time>2021-04-25T09:11:58Z</time>
      </trkpt>
      <trkpt lat="47.19067" lon="5.98536">
        <ele>443.4</ele>
        <time>2021-04-25T09:11:59Z</time>
      </trkpt>
      <trkpt lat="47.19068" lon="5.98539">
        <ele>443.6</ele>
        <time>2021-04-25T09:12:00Z</time>
      </trkpt>
      <trkpt lat="47.1907" lon="5.98541">
        <ele>443.8</ele>
        <time>2021-04-25T09:12:01Z</time>
      </trkpt>
      <trkpt lat="47.19071" lon="5.98544">
        <ele>444</ele>
        <time>2021-04-25T09:12:02Z</time>
      </trkpt>
      <trkpt lat="47.19072" lon="5.98546">
        <ele>444.2</ele>
        <time>2021-04-25T09:12:03Z</time>
      </trkpt>
      <trkpt lat="47.19073" lon="5.98549">
        <ele>444.4</ele>
        <time>2021-04-25T09:12:04Z</time>
      </trkpt>
      <trkpt lat="47.19074" lon="5.98552">
        <ele>444.6</ele>
        <time>2021-04-25T09:12:05Z</time>
      </trkpt>
      <trkpt lat="47.19076" lon="5.98554">
        <ele>444.8</ele>
        <time>2021-04-25T09:12:06Z</time>
      </trkpt>
      <trkpt lat="47.19076" lon="5.98557">
        <ele>444.8</ele>
        <time>2021-04-25T09:12:07Z</time>
      </trkpt>
      <trkpt lat="47.19077" lon="5.9856">
        <ele>445</ele>
        <time>2021-04-25T09:12:08Z</time>
      </trkpt>
      <trkpt lat="47.19078" lon="5.98563">
        <ele>445.2</ele>
        <time>2021-04-25T09:12:09Z</time>
      </trkpt>
      <trkpt lat="47.19079" lon="5.98566">
        <ele>445.4</ele>
        <time>2021-04-25T09:12:10Z</time>
      </trkpt>
      <trkpt lat="47.19079" lon="5.98569">
        <ele>445.6</ele>
        <time>2021-04-25T09:12:11Z</time>
      </trkpt>
      <trkpt lat="47.1908" lon="5.98572">
        <ele>445.6</ele>
        <time>2021-04-25T09:12:12Z</time>
      </trkpt>
      <trkpt lat="47.19081" lon="5.98574">
        <ele>446</ele>
        <time>2021-04-25T09:12:13Z</time>
      </trkpt>
      <trkpt lat="47.19082" lon="5.98577">
        <ele>446</ele>
        <time>2021-04-25T09:12:14Z</time>
      </trkpt>
      <trkpt lat="47.19083" lon="5.98579">
        <ele>446.4</ele>
        <time>2021-04-25T09:12:15Z</time>
      </trkpt>
      <trkpt lat="47.19083" lon="5.98582">
        <ele>446.6</ele>
        <time>2021-04-25T09:12:16Z</time>
      </trkpt>
      <trkpt lat="47.19084" lon="5.98584">
        <ele>446.8</ele>
        <time>2021-04-25T09:12:17Z</time>
      </trkpt>
      <trkpt lat="47.19085" lon="5.98586">
        <ele>447</ele>
        <time>2021-04-25T09:12:18Z</time>
      </trkpt>
      <trkpt lat="47.19085" lon="5.98589">
        <ele>447.4</ele>
        <time>2021-04-25T09:12:19Z</time>
      </trkpt>
      <trkpt lat="47.19085" lon="5.98591">
        <ele>447.8</ele>
        <time>2021-04-25T09:12:20Z</time>
      </trkpt>
      <trkpt lat="47.19086" lon="5.98594">
        <ele>448</ele>
        <time>2021-04-25T09:12:21Z</time>
      </trkpt>
      <trkpt lat="47.19087" lon="5.98596">
        <ele>448.2</ele>
        <time>2021-04-25T09:12:22Z</time>
      </trkpt>
      <trkpt lat="47.19088" lon="5.98598">
        <ele>448.2</ele>
        <time>2021-04-25T09:12:23Z</time>
      </trkpt>
      <trkpt lat="47.19088" lon="5.98601">
        <ele>448.4</ele>
        <time>2021-04-25T09:12:24Z</time>
      </trkpt>
      <trkpt lat="47.19089" lon="5.98603">
        <ele>448.4</ele>
        <time>2021-04-25T09:12:25Z</time>
      </trkpt>
      <trkpt lat="47.19089" lon="5.98605">
        <ele>448.6</ele>
        <time>2021-04-25T09:12:26Z</time>
      </trkpt>
      <trkpt lat="47.19089" lon="5.98608">
        <ele>449</ele>
        <time>2021-04-25T09:12:27Z</time>
      </trkpt>
      <trkpt lat="47.19089" lon="5.9861">
        <ele>449</ele>
        <time>2021-04-25T09:12:28Z</time>
      </trkpt>
      <trkpt lat="47.1909" lon="5.98613">
        <ele>449.2</ele>
        <time>2021-04-25T09:12:29Z</time>
      </trkpt>
      <trkpt lat="47.1909" lon="5.98615">
        <ele>449.4</ele>
        <time>2021-04-25T09:12:30Z</time>
      </trkpt>
      <trkpt lat="47.19091" lon="5.98618">
        <ele>449.6</ele>
        <time>2021-04-25T09:12:31Z</time>
      </trkpt>
      <trkpt lat="47.19091" lon="5.9862">
        <ele>449.8</ele>
        <time>2021-04-25T09:12:32Z</time>
      </trkpt>
      <trkpt lat="47.19092" lon="5.98622">
        <ele>450</ele>
        <time>2021-04-25T09:12:33Z</time>
      </trkpt>
      <trkpt lat="47.19093" lon="5.98625">
        <ele>450.2</ele>
        <time>2021-04-25T09:12:34Z</time>
      </trkpt>
      <trkpt lat="47.19093" lon="5.98627">
        <ele>450.4</ele>
        <time>2021-04-25T09:12:35Z</time>
      </trkpt>
      <trkpt lat="47.19094" lon="5.98629">
        <ele>450.6</ele>
        <time>2021-04-25T09:12:36Z</time>
      </trkpt>
      <trkpt lat="47.19095" lon="5.98632">
        <ele>450.8</ele>
        <time>2021-04-25T09:12:37Z</time>
      </trkpt>
      <trkpt lat="47.19095" lon="5.98634">
        <ele>451</ele>
        <time>2021-04-25T09:12:38Z</time>
      </trkpt>
      <trkpt lat="47.19095" lon="5.98637">
        <ele>451.2</ele>
        <time>2021-04-25T09:12:39Z</time>
      </trkpt>
      <trkpt lat="47.19096" lon="5.9864">
        <ele>451.4</ele>
        <time>2021-04-25T09:12:40Z</time>
      </trkpt>
      <trkpt lat="47.19096" lon="5.98642">
        <ele>451.4</ele>
        <time>2021-04-25T09:12:41Z</time>
      </trkpt>
      <trkpt lat="47.19097" lon="5.98645">
        <ele>451.6</ele>
        <time>2021-04-25T09:12:42Z</time>
      </trkpt>
      <trkpt lat="47.19097" lon="5.98647">
        <ele>451.8</ele>
        <time>2021-04-25T09:12:43Z</time>
      </trkpt>
      <trkpt lat="47.19098" lon="5.98649">
        <ele>451.8</ele>
        <time>2021-04-25T09:12:44Z</time>
      </trkpt>
      <trkpt lat="47.19098" lon="5.98652">
        <ele>452</ele>
        <time>2021-04-25T09:12:45Z</time>
      </trkpt>
      <trkpt lat="47.19099" lon="5.98654">
        <ele>452</ele>
        <time>2021-04-25T09:12:46Z</time>
      </trkpt>
      <trkpt lat="47.19099" lon="5.98656">
        <ele>452.2</ele>
        <time>2021-04-25T09:12:47Z</time>
      </trkpt>
      <trkpt lat="47.19099" lon="5.98659">
        <ele>452.4</ele>
        <time>2021-04-25T09:12:48Z</time>
      </trkpt>
      <trkpt lat="47.19099" lon="5.98661">
        <ele>452.6</ele>
        <time>2021-04-25T09:12:49Z</time>
      </trkpt>
      <trkpt lat="47.191" lon="5.98663">
        <ele>452.6</ele>
        <time>2021-04-25T09:12:50Z</time>
      </trkpt>
      <trkpt lat="47.191" lon="5.98664">
        <ele>452.8</ele>
        <time>2021-04-25T09:12:51Z</time>
      </trkpt>
      <trkpt lat="47.191" lon="5.98665">
        <ele>452.8</ele>
        <time>2021-04-25T09:12:52Z</time>
      </trkpt>
      <trkpt lat="47.191" lon="5.98665">
        <ele>453.4</ele>
        <time>2021-04-25T09:13:00Z</time>
      </trkpt>
      <trkpt lat="47.191" lon="5.98665">
        <ele>452.8</ele>
        <time>2021-04-25T09:14:28Z</time>
      </trkpt>
      <trkpt lat="47.19101" lon="5.98668">
        <ele>452.8</ele>
        <time>2021-04-25T09:14:32Z</time>
      </trkpt>
      <trkpt lat="47.19102" lon="5.98669">
        <ele>452.8</ele>
        <time>2021-04-25T09:15:47Z</time>
      </trkpt>
      <trkpt lat="47.19101" lon="5.98677">
        <ele>452.8</ele>
        <time>2021-04-25T09:15:50Z</time>
      </trkpt>
      <trkpt lat="47.191" lon="5.98679">
        <ele>452.8</ele>
        <time>2021-04-25T09:15:51Z</time>
      </trkpt>
      <trkpt lat="47.191" lon="5.98682">
        <ele>453</ele>
        <time>2021-04-25T09:15:52Z</time>
      </trkpt>
      <trkpt lat="47.19095" lon="5.98698">
        <ele>453</ele>
        <time>2021-04-25T09:15:58Z</time>
      </trkpt>
      <trkpt lat="47.19078" lon="5.98722">
        <ele>453</ele>
        <time>2021-04-25T09:16:07Z</time>
      </trkpt>
      <trkpt lat="47.19064" lon="5.98735">
        <ele>452.8</ele>
        <time>2021-04-25T09:16:11Z</time>
      </trkpt>
      <trkpt lat="47.1906" lon="5.98737">
        <ele>452.6</ele>
        <time>2021-04-25T09:16:12Z</time>
      </trkpt>
      <trkpt lat="47.19049" lon="5.98741">
        <ele>452.2</ele>
        <time>2021-04-25T09:16:14Z</time>
      </trkpt>
      <trkpt lat="47.19032" lon="5.98746">
        <ele>451</ele>
        <time>2021-04-25T09:16:17Z</time>
      </trkpt>
      <trkpt lat="47.19021" lon="5.98747">
        <ele>450</ele>
        <time>2021-04-25T09:16:19Z</time>
      </trkpt>
      <trkpt lat="47.19016" lon="5.98748">
        <ele>449.4</ele>
        <time>2021-04-25T09:16:20Z</time>
      </trkpt>
      <trkpt lat="47.19012" lon="5.98749">
        <ele>449</ele>
        <time>2021-04-25T09:16:21Z</time>
      </trkpt>
      <trkpt lat="47.19007" lon="5.98748">
        <ele>448.4</ele>
        <time>2021-04-25T09:16:22Z</time>
      </trkpt>
      <trkpt lat="47.19003" lon="5.98748">
        <ele>448</ele>
        <time>2021-04-25T09:16:23Z</time>
      </trkpt>
      <trkpt lat="47.18999" lon="5.98748">
        <ele>447.4</ele>
        <time>2021-04-25T09:16:24Z</time>
      </trkpt>
      <trkpt lat="47.18995" lon="5.98749">
        <ele>447</ele>
        <time>2021-04-25T09:16:25Z</time>
      </trkpt>
      <trkpt lat="47.1899" lon="5.98749">
        <ele>446.4</ele>
        <time>2021-04-25T09:16:26Z</time>
      </trkpt>
      <trkpt lat="47.18985" lon="5.98749">
        <ele>446</ele>
        <time>2021-04-25T09:16:27Z</time>
      </trkpt>
      <trkpt lat="47.18979" lon="5.98752">
        <ele>445.6</ele>
        <time>2021-04-25T09:16:28Z</time>
      </trkpt>
      <trkpt lat="47.18975" lon="5.98754">
        <ele>445</ele>
        <time>2021-04-25T09:16:29Z</time>
      </trkpt>
      <trkpt lat="47.18969" lon="5.98754">
        <ele>444.4</ele>
        <time>2021-04-25T09:16:30Z</time>
      </trkpt>
      <trkpt lat="47.18962" lon="5.98753">
        <ele>443.8</ele>
        <time>2021-04-25T09:16:31Z</time>
      </trkpt>
      <trkpt lat="47.18954" lon="5.98751">
        <ele>443.4</ele>
        <time>2021-04-25T09:16:32Z</time>
      </trkpt>
      <trkpt lat="47.18946" lon="5.98753">
        <ele>442.6</ele>
        <time>2021-04-25T09:16:33Z</time>
      </trkpt>
      <trkpt lat="47.1893" lon="5.98753">
        <ele>441.4</ele>
        <time>2021-04-25T09:16:35Z</time>
      </trkpt>
      <trkpt lat="47.18921" lon="5.9875">
        <ele>440.4</ele>
        <time>2021-04-25T09:16:36Z</time>
      </trkpt>
      <trkpt lat="47.18911" lon="5.98746">
        <ele>440.2</ele>
        <time>2021-04-25T09:16:37Z</time>
      </trkpt>
      <trkpt lat="47.18901" lon="5.98745">
        <ele>439</ele>
        <time>2021-04-25T09:16:38Z</time>
      </trkpt>
      <trkpt lat="47.1888" lon="5.98744">
        <ele>437.6</ele>
        <time>2021-04-25T09:16:40Z</time>
      </trkpt>
      <trkpt lat="47.18858" lon="5.98743">
        <ele>436</ele>
        <time>2021-04-25T09:16:42Z</time>
      </trkpt>
      <trkpt lat="47.18836" lon="5.98744">
        <ele>433.6</ele>
        <time>2021-04-25T09:16:44Z</time>
      </trkpt>
      <trkpt lat="47.18813" lon="5.98747">
        <ele>432.2</ele>
        <time>2021-04-25T09:16:46Z</time>
      </trkpt>
      <trkpt lat="47.18802" lon="5.9875">
        <ele>430.8</ele>
        <time>2021-04-25T09:16:47Z</time>
      </trkpt>
      <trkpt lat="47.18781" lon="5.98762">
        <ele>429.8</ele>
        <time>2021-04-25T09:16:49Z</time>
      </trkpt>
      <trkpt lat="47.1877" lon="5.9877">
        <ele>429.6</ele>
        <time>2021-04-25T09:16:50Z</time>
      </trkpt>
      <trkpt lat="47.18759" lon="5.98778">
        <ele>428.6</ele>
        <time>2021-04-25T09:16:51Z</time>
      </trkpt>
      <trkpt lat="47.18737" lon="5.988">
        <ele>427.2</ele>
        <time>2021-04-25T09:16:53Z</time>
      </trkpt>
      <trkpt lat="47.18729" lon="5.9881">
        <ele>426.2</ele>
        <time>2021-04-25T09:16:54Z</time>
      </trkpt>
      <trkpt lat="47.18722" lon="5.98825">
        <ele>425.4</ele>
        <time>2021-04-25T09:16:55Z</time>
      </trkpt>
      <trkpt lat="47.18715" lon="5.98841">
        <ele>424.8</ele>
        <time>2021-04-25T09:16:56Z</time>
      </trkpt>
      <trkpt lat="47.1871" lon="5.98857">
        <ele>424.2</ele>
        <time>2021-04-25T09:16:57Z</time>
      </trkpt>
      <trkpt lat="47.18705" lon="5.98874">
        <ele>422</ele>
        <time>2021-04-25T09:16:58Z</time>
      </trkpt>
      <trkpt lat="47.187" lon="5.98894">
        <ele>421.4</ele>
        <time>2021-04-25T09:16:59Z</time>
      </trkpt>
      <trkpt lat="47.18697" lon="5.98906">
        <ele>419.6</ele>
        <time>2021-04-25T09:17:00Z</time>
      </trkpt>
      <trkpt lat="47.18692" lon="5.98919">
        <ele>418.4</ele>
        <time>2021-04-25T09:17:01Z</time>
      </trkpt>
      <trkpt lat="47.18685" lon="5.98935">
        <ele>417.6</ele>
        <time>2021-04-25T09:17:02Z</time>
      </trkpt>
      <trkpt lat="47.18679" lon="5.98943">
        <ele>416</ele>
        <time>2021-04-25T09:17:03Z</time>
      </trkpt>
      <trkpt lat="47.1867" lon="5.98952">
        <ele>415.4</ele>
        <time>2021-04-25T09:17:04Z</time>
      </trkpt>
      <trkpt lat="47.18661" lon="5.98959">
        <ele>413.4</ele>
        <time>2021-04-25T09:17:05Z</time>
      </trkpt>
      <trkpt lat="47.18652" lon="5.98964">
        <ele>413</ele>
        <time>2021-04-25T09:17:06Z</time>
      </trkpt>
      <trkpt lat="47.18642" lon="5.98967">
        <ele>412.2</ele>
        <time>2021-04-25T09:17:07Z</time>
      </trkpt>
      <trkpt lat="47.18631" lon="5.98969">
        <ele>411.6</ele>
        <time>2021-04-25T09:17:08Z</time>
      </trkpt>
      <trkpt lat="47.18621" lon="5.9897">
        <ele>411.4</ele>
        <time>2021-04-25T09:17:09Z</time>
      </trkpt>
      <trkpt lat="47.18611" lon="5.98969">
        <ele>410.8</ele>
        <time>2021-04-25T09:17:10Z</time>
      </trkpt>
      <trkpt lat="47.18601" lon="5.98969">
        <ele>410.4</ele>
        <time>2021-04-25T09:17:11Z</time>
      </trkpt>
      <trkpt lat="47.1859" lon="5.98968">
        <ele>409.8</ele>
        <time>2021-04-25T09:17:12Z</time>
      </trkpt>
      <trkpt lat="47.18549" lon="5.98961">
        <ele>408.4</ele>
        <time>2021-04-25T09:17:16Z</time>
      </trkpt>
      <trkpt lat="47.18538" lon="5.98959">
        <ele>407.8</ele>
        <time>2021-04-25T09:17:17Z</time>
      </trkpt>
      <trkpt lat="47.18529" lon="5.98958">
        <ele>407.4</ele>
        <time>2021-04-25T09:17:18Z</time>
      </trkpt>
      <trkpt lat="47.18521" lon="5.98958">
        <ele>406.8</ele>
        <time>2021-04-25T09:17:19Z</time>
      </trkpt>
      <trkpt lat="47.18514" lon="5.98959">
        <ele>406.4</ele>
        <time>2021-04-25T09:17:20Z</time>
      </trkpt>
      <trkpt lat="47.18507" lon="5.98961">
        <ele>405.6</ele>
        <time>2021-04-25T09:17:21Z</time>
      </trkpt>
      <trkpt lat="47.18501" lon="5.98964">
        <ele>405.2</ele>
        <time>2021-04-25T09:17:22Z</time>
      </trkpt>
      <trkpt lat="47.18496" lon="5.98967">
        <ele>404.4</ele>
        <time>2021-04-25T09:17:23Z</time>
      </trkpt>
      <trkpt lat="47.18491" lon="5.9897">
        <ele>403.8</ele>
        <time>2021-04-25T09:17:24Z</time>
      </trkpt>
      <trkpt lat="47.18486" lon="5.98973">
        <ele>403.4</ele>
        <time>2021-04-25T09:17:25Z</time>
      </trkpt>
      <trkpt lat="47.18481" lon="5.98978">
        <ele>402.8</ele>
        <time>2021-04-25T09:17:26Z</time>
      </trkpt>
      <trkpt lat="47.18476" lon="5.98982">
        <ele>402.6</ele>
        <time>2021-04-25T09:17:27Z</time>
      </trkpt>
      <trkpt lat="47.1847" lon="5.98987">
        <ele>402</ele>
        <time>2021-04-25T09:17:28Z</time>
      </trkpt>
      <trkpt lat="47.18464" lon="5.98991">
        <ele>401.8</ele>
        <time>2021-04-25T09:17:29Z</time>
      </trkpt>
      <trkpt lat="47.18459" lon="5.98996">
        <ele>401.2</ele>
        <time>2021-04-25T09:17:30Z</time>
      </trkpt>
      <trkpt lat="47.18454" lon="5.99">
        <ele>400</ele>
        <time>2021-04-25T09:17:31Z</time>
      </trkpt>
      <trkpt lat="47.1845" lon="5.99006">
        <ele>399.6</ele>
        <time>2021-04-25T09:17:32Z</time>
      </trkpt>
      <trkpt lat="47.18447" lon="5.99013">
        <ele>398.6</ele>
        <time>2021-04-25T09:17:33Z</time>
      </trkpt>
      <trkpt lat="47.18446" lon="5.99022">
        <ele>398</ele>
        <time>2021-04-25T09:17:34Z</time>
      </trkpt>
      <trkpt lat="47.18445" lon="5.99031">
        <ele>397.2</ele>
        <time>2021-04-25T09:17:35Z</time>
      </trkpt>
      <trkpt lat="47.18445" lon="5.99042">
        <ele>396.6</ele>
        <time>2021-04-25T09:17:36Z</time>
      </trkpt>
      <trkpt lat="47.18444" lon="5.99052">
        <ele>395.4</ele>
        <time>2021-04-25T09:17:37Z</time>
      </trkpt>
      <trkpt lat="47.18442" lon="5.99074">
        <ele>394.6</ele>
        <time>2021-04-25T09:17:39Z</time>
      </trkpt>
      <trkpt lat="47.1844" lon="5.99084">
        <ele>394</ele>
        <time>2021-04-25T09:17:40Z</time>
      </trkpt>
      <trkpt lat="47.18438" lon="5.99093">
        <ele>393.6</ele>
        <time>2021-04-25T09:17:41Z</time>
      </trkpt>
      <trkpt lat="47.18435" lon="5.99099">
        <ele>393</ele>
        <time>2021-04-25T09:17:42Z</time>
      </trkpt>
      <trkpt lat="47.18434" lon="5.99104">
        <ele>392.6</ele>
        <time>2021-04-25T09:17:43Z</time>
      </trkpt>
      <trkpt lat="47.18433" lon="5.99108">
        <ele>391.8</ele>
        <time>2021-04-25T09:17:44Z</time>
      </trkpt>
      <trkpt lat="47.18432" lon="5.9911">
        <ele>391.6</ele>
        <time>2021-04-25T09:17:45Z</time>
      </trkpt>
      <trkpt lat="47.18431" lon="5.99113">
        <ele>391.2</ele>
        <time>2021-04-25T09:17:46Z</time>
      </trkpt>
      <trkpt lat="47.1843" lon="5.99116">
        <ele>390.8</ele>
        <time>2021-04-25T09:17:47Z</time>
      </trkpt>
      <trkpt lat="47.18429" lon="5.99118">
        <ele>390.8</ele>
        <time>2021-04-25T09:17:48Z</time>
      </trkpt>
      <trkpt lat="47.18428" lon="5.9912">
        <ele>390.6</ele>
        <time>2021-04-25T09:17:49Z</time>
      </trkpt>
      <trkpt lat="47.18427" lon="5.99122">
        <ele>390.4</ele>
        <time>2021-04-25T09:17:50Z</time>
      </trkpt>
      <trkpt lat="47.18426" lon="5.99122">
        <ele>390.2</ele>
        <time>2021-04-25T09:17:53Z</time>
      </trkpt>
      <trkpt lat="47.18426" lon="5.99122">
        <ele>390.2</ele>
        <time>2021-04-25T09:17:54Z</time>
      </trkpt>
      <trkpt lat="47.18426" lon="5.99124">
        <ele>389.8</ele>
        <time>2021-04-25T09:17:55Z</time>
      </trkpt>
      <trkpt lat="47.18417" lon="5.99128">
        <ele>389.4</ele>
        <time>2021-04-25T09:17:58Z</time>
      </trkpt>
      <trkpt lat="47.18413" lon="5.99129">
        <ele>389.4</ele>
        <time>2021-04-25T09:17:59Z</time>
      </trkpt>
      <trkpt lat="47.18409" lon="5.9913">
        <ele>389.4</ele>
        <time>2021-04-25T09:18:00Z</time>
      </trkpt>
      <trkpt lat="47.18404" lon="5.99132">
        <ele>389.2</ele>
        <time>2021-04-25T09:18:01Z</time>
      </trkpt>
      <trkpt lat="47.18393" lon="5.99135">
        <ele>389</ele>
        <time>2021-04-25T09:18:03Z</time>
      </trkpt>
      <trkpt lat="47.1836" lon="5.99138">
        <ele>387.6</ele>
        <time>2021-04-25T09:18:08Z</time>
      </trkpt>
      <trkpt lat="47.18354" lon="5.9914">
        <ele>387.2</ele>
        <time>2021-04-25T09:18:09Z</time>
      </trkpt>
      <trkpt lat="47.18348" lon="5.99141">
        <ele>386.8</ele>
        <time>2021-04-25T09:18:10Z</time>
      </trkpt>
      <trkpt lat="47.18342" lon="5.99141">
        <ele>386.4</ele>
        <time>2021-04-25T09:18:11Z</time>
      </trkpt>
      <trkpt lat="47.18331" lon="5.99141">
        <ele>385.8</ele>
        <time>2021-04-25T09:18:13Z</time>
      </trkpt>
      <trkpt lat="47.18328" lon="5.9914">
        <ele>385.4</ele>
        <time>2021-04-25T09:18:14Z</time>
      </trkpt>
      <trkpt lat="47.18326" lon="5.9914">
        <ele>385.2</ele>
        <time>2021-04-25T09:18:15Z</time>
      </trkpt>
      <trkpt lat="47.18323" lon="5.9914">
        <ele>384.6</ele>
        <time>2021-04-25T09:18:16Z</time>
      </trkpt>
      <trkpt lat="47.1832" lon="5.99141">
        <ele>384.6</ele>
        <time>2021-04-25T09:18:17Z</time>
      </trkpt>
      <trkpt lat="47.18316" lon="5.99142">
        <ele>384.4</ele>
        <time>2021-04-25T09:18:18Z</time>
      </trkpt>
      <trkpt lat="47.18301" lon="5.99143">
        <ele>383.8</ele>
        <time>2021-04-25T09:18:22Z</time>
      </trkpt>
      <trkpt lat="47.18273" lon="5.99147">
        <ele>383.8</ele>
        <time>2021-04-25T09:18:29Z</time>
      </trkpt>
      <trkpt lat="47.18246" lon="5.99159">
        <ele>384.6</ele>
        <time>2021-04-25T09:18:36Z</time>
      </trkpt>
      <trkpt lat="47.18225" lon="5.99173">
        <ele>385</ele>
        <time>2021-04-25T09:18:42Z</time>
      </trkpt>
      <trkpt lat="47.18213" lon="5.9918">
        <ele>385.4</ele>
        <time>2021-04-25T09:18:45Z</time>
      </trkpt>
      <trkpt lat="47.18209" lon="5.99183">
        <ele>385.6</ele>
        <time>2021-04-25T09:18:46Z</time>
      </trkpt>
      <trkpt lat="47.18202" lon="5.99187">
        <ele>385.8</ele>
        <time>2021-04-25T09:18:48Z</time>
      </trkpt>
      <trkpt lat="47.18198" lon="5.99189">
        <ele>386</ele>
        <time>2021-04-25T09:18:49Z</time>
      </trkpt>
      <trkpt lat="47.18179" lon="5.992">
        <ele>386</ele>
        <time>2021-04-25T09:18:54Z</time>
      </trkpt>
      <trkpt lat="47.18154" lon="5.9921">
        <ele>386</ele>
        <time>2021-04-25T09:18:59Z</time>
      </trkpt>
      <trkpt lat="47.18139" lon="5.99218">
        <ele>385.6</ele>
        <time>2021-04-25T09:19:02Z</time>
      </trkpt>
      <trkpt lat="47.181" lon="5.99239">
        <ele>385</ele>
        <time>2021-04-25T09:19:10Z</time>
      </trkpt>
      <trkpt lat="47.18085" lon="5.99247">
        <ele>384.6</ele>
        <time>2021-04-25T09:19:13Z</time>
      </trkpt>
      <trkpt lat="47.1806" lon="5.9926">
        <ele>383.6</ele>
        <time>2021-04-25T09:19:18Z</time>
      </trkpt>
      <trkpt lat="47.1805" lon="5.99265">
        <ele>383.4</ele>
        <time>2021-04-25T09:19:20Z</time>
      </trkpt>
      <trkpt lat="47.18045" lon="5.99267">
        <ele>383.4</ele>
        <time>2021-04-25T09:19:21Z</time>
      </trkpt>
      <trkpt lat="47.18041" lon="5.9927">
        <ele>383.4</ele>
        <time>2021-04-25T09:19:22Z</time>
      </trkpt>
      <trkpt lat="47.18015" lon="5.99279">
        <ele>383</ele>
        <time>2021-04-25T09:19:27Z</time>
      </trkpt>
      <trkpt lat="47.17989" lon="5.9929">
        <ele>382.2</ele>
        <time>2021-04-25T09:19:32Z</time>
      </trkpt>
      <trkpt lat="47.17979" lon="5.99296">
        <ele>381.8</ele>
        <time>2021-04-25T09:19:34Z</time>
      </trkpt>
      <trkpt lat="47.17961" lon="5.9931">
        <ele>381.6</ele>
        <time>2021-04-25T09:19:38Z</time>
      </trkpt>
      <trkpt lat="47.17946" lon="5.99325">
        <ele>381.2</ele>
        <time>2021-04-25T09:19:41Z</time>
      </trkpt>
      <trkpt lat="47.17936" lon="5.99336">
        <ele>381</ele>
        <time>2021-04-25T09:19:43Z</time>
      </trkpt>
      <trkpt lat="47.17926" lon="5.99349">
        <ele>380.6</ele>
        <time>2021-04-25T09:19:45Z</time>
      </trkpt>
      <trkpt lat="47.17912" lon="5.99367">
        <ele>380</ele>
        <time>2021-04-25T09:19:48Z</time>
      </trkpt>
      <trkpt lat="47.17907" lon="5.99374">
        <ele>380</ele>
        <time>2021-04-25T09:19:49Z</time>
      </trkpt>
      <trkpt lat="47.17882" lon="5.994">
        <ele>379.4</ele>
        <time>2021-04-25T09:19:54Z</time>
      </trkpt>
      <trkpt lat="47.17877" lon="5.99404">
        <ele>379.4</ele>
        <time>2021-04-25T09:19:55Z</time>
      </trkpt>
      <trkpt lat="47.17872" lon="5.99409">
        <ele>379.4</ele>
        <time>2021-04-25T09:19:56Z</time>
      </trkpt>
      <trkpt lat="47.17867" lon="5.99413">
        <ele>379.4</ele>
        <time>2021-04-25T09:19:57Z</time>
      </trkpt>
      <trkpt lat="47.17862" lon="5.99417">
        <ele>379.4</ele>
        <time>2021-04-25T09:19:58Z</time>
      </trkpt>
      <trkpt lat="47.17858" lon="5.99422">
        <ele>379.4</ele>
        <time>2021-04-25T09:19:59Z</time>
      </trkpt>
      <trkpt lat="47.17853" lon="5.99427">
        <ele>379.4</ele>
        <time>2021-04-25T09:20:00Z</time>
      </trkpt>
      <trkpt lat="47.17839" lon="5.99442">
        <ele>379.2</ele>
        <time>2021-04-25T09:20:03Z</time>
      </trkpt>
      <trkpt lat="47.17834" lon="5.99447">
        <ele>379</ele>
        <time>2021-04-25T09:20:04Z</time>
      </trkpt>
      <trkpt lat="47.17825" lon="5.99456">
        <ele>378.8</ele>
        <time>2021-04-25T09:20:06Z</time>
      </trkpt>
      <trkpt lat="47.1782" lon="5.99461">
        <ele>378.8</ele>
        <time>2021-04-25T09:20:07Z</time>
      </trkpt>
      <trkpt lat="47.17817" lon="5.99467">
        <ele>378.4</ele>
        <time>2021-04-25T09:20:08Z</time>
      </trkpt>
      <trkpt lat="47.17816" lon="5.99473">
        <ele>378.2</ele>
        <time>2021-04-25T09:20:09Z</time>
      </trkpt>
      <trkpt lat="47.17818" lon="5.9948">
        <ele>377.8</ele>
        <time>2021-04-25T09:20:10Z</time>
      </trkpt>
      <trkpt lat="47.1782" lon="5.99486">
        <ele>377.6</ele>
        <time>2021-04-25T09:20:11Z</time>
      </trkpt>
      <trkpt lat="47.17822" lon="5.99493">
        <ele>377.4</ele>
        <time>2021-04-25T09:20:12Z</time>
      </trkpt>
      <trkpt lat="47.17825" lon="5.99498">
        <ele>377.2</ele>
        <time>2021-04-25T09:20:13Z</time>
      </trkpt>
      <trkpt lat="47.17828" lon="5.99503">
        <ele>377.2</ele>
        <time>2021-04-25T09:20:14Z</time>
      </trkpt>
      <trkpt lat="47.17832" lon="5.99507">
        <ele>377.2</ele>
        <time>2021-04-25T09:20:15Z</time>
      </trkpt>
      <trkpt lat="47.17836" lon="5.9951">
        <ele>377</ele>
        <time>2021-04-25T09:20:16Z</time>
      </trkpt>
      <trkpt lat="47.1784" lon="5.99512">
        <ele>377</ele>
        <time>2021-04-25T09:20:17Z</time>
      </trkpt>
      <trkpt lat="47.17843" lon="5.99513">
        <ele>377</ele>
        <time>2021-04-25T09:20:18Z</time>
      </trkpt>
      <trkpt lat="47.17846" lon="5.99513">
        <ele>377</ele>
        <time>2021-04-25T09:20:19Z</time>
      </trkpt>
      <trkpt lat="47.17849" lon="5.99512">
        <ele>377.2</ele>
        <time>2021-04-25T09:20:20Z</time>
      </trkpt>
      <trkpt lat="47.17852" lon="5.99511">
        <ele>377.2</ele>
        <time>2021-04-25T09:20:21Z</time>
      </trkpt>
      <trkpt lat="47.17854" lon="5.9951">
        <ele>377.4</ele>
        <time>2021-04-25T09:20:22Z</time>
      </trkpt>
      <trkpt lat="47.17856" lon="5.99509">
        <ele>377.6</ele>
        <time>2021-04-25T09:20:23Z</time>
      </trkpt>
      <trkpt lat="47.17858" lon="5.99508">
        <ele>378.2</ele>
        <time>2021-04-25T09:20:24Z</time>
      </trkpt>
      <trkpt lat="47.17862" lon="5.99507">
        <ele>379.2</ele>
        <time>2021-04-25T09:20:26Z</time>
      </trkpt>
      <trkpt lat="47.17866" lon="5.99506">
        <ele>379.8</ele>
        <time>2021-04-25T09:20:28Z</time>
      </trkpt>
      <trkpt lat="47.17868" lon="5.99506">
        <ele>380.2</ele>
        <time>2021-04-25T09:20:29Z</time>
      </trkpt>
      <trkpt lat="47.1787" lon="5.99506">
        <ele>380.4</ele>
        <time>2021-04-25T09:20:30Z</time>
      </trkpt>
      <trkpt lat="47.17872" lon="5.99506">
        <ele>380.8</ele>
        <time>2021-04-25T09:20:31Z</time>
      </trkpt>
      <trkpt lat="47.17874" lon="5.99505">
        <ele>380.8</ele>
        <time>2021-04-25T09:20:32Z</time>
      </trkpt>
      <trkpt lat="47.17876" lon="5.99506">
        <ele>381</ele>
        <time>2021-04-25T09:20:33Z</time>
      </trkpt>
      <trkpt lat="47.17878" lon="5.99506">
        <ele>381.2</ele>
        <time>2021-04-25T09:20:34Z</time>
      </trkpt>
      <trkpt lat="47.1788" lon="5.99506">
        <ele>381.6</ele>
        <time>2021-04-25T09:20:35Z</time>
      </trkpt>
      <trkpt lat="47.17882" lon="5.99506">
        <ele>382</ele>
        <time>2021-04-25T09:20:36Z</time>
      </trkpt>
      <trkpt lat="47.17883" lon="5.99506">
        <ele>382</ele>
        <time>2021-04-25T09:20:37Z</time>
      </trkpt>
      <trkpt lat="47.17885" lon="5.99506">
        <ele>382.4</ele>
        <time>2021-04-25T09:20:38Z</time>
      </trkpt>
      <trkpt lat="47.17887" lon="5.99507">
        <ele>382.6</ele>
        <time>2021-04-25T09:20:39Z</time>
      </trkpt>
      <trkpt lat="47.17889" lon="5.99507">
        <ele>382.8</ele>
        <time>2021-04-25T09:20:40Z</time>
      </trkpt>
      <trkpt lat="47.17891" lon="5.99507">
        <ele>383</ele>
        <time>2021-04-25T09:20:41Z</time>
      </trkpt>
      <trkpt lat="47.17893" lon="5.99507">
        <ele>383.4</ele>
        <time>2021-04-25T09:20:42Z</time>
      </trkpt>
      <trkpt lat="47.17894" lon="5.99507">
        <ele>383.8</ele>
        <time>2021-04-25T09:20:43Z</time>
      </trkpt>
      <trkpt lat="47.17896" lon="5.99507">
        <ele>384</ele>
        <time>2021-04-25T09:20:44Z</time>
      </trkpt>
      <trkpt lat="47.17898" lon="5.99507">
        <ele>384.2</ele>
        <time>2021-04-25T09:20:45Z</time>
      </trkpt>
      <trkpt lat="47.179" lon="5.99507">
        <ele>384.4</ele>
        <time>2021-04-25T09:20:46Z</time>
      </trkpt>
      <trkpt lat="47.17902" lon="5.99507">
        <ele>384.6</ele>
        <time>2021-04-25T09:20:47Z</time>
      </trkpt>
      <trkpt lat="47.17903" lon="5.99507">
        <ele>384.8</ele>
        <time>2021-04-25T09:20:48Z</time>
      </trkpt>
      <trkpt lat="47.17904" lon="5.99507">
        <ele>385</ele>
        <time>2021-04-25T09:20:49Z</time>
      </trkpt>
      <trkpt lat="47.17906" lon="5.99508">
        <ele>385.2</ele>
        <time>2021-04-25T09:20:50Z</time>
      </trkpt>
      <trkpt lat="47.17907" lon="5.99508">
        <ele>385.4</ele>
        <time>2021-04-25T09:20:51Z</time>
      </trkpt>
      <trkpt lat="47.17909" lon="5.99508">
        <ele>385.6</ele>
        <time>2021-04-25T09:20:52Z</time>
      </trkpt>
      <trkpt lat="47.1791" lon="5.99508">
        <ele>385.6</ele>
        <time>2021-04-25T09:20:53Z</time>
      </trkpt>
      <trkpt lat="47.17911" lon="5.99508">
        <ele>386</ele>
        <time>2021-04-25T09:20:54Z</time>
      </trkpt>
      <trkpt lat="47.17913" lon="5.99508">
        <ele>386</ele>
        <time>2021-04-25T09:20:55Z</time>
      </trkpt>
      <trkpt lat="47.17914" lon="5.99509">
        <ele>386.2</ele>
        <time>2021-04-25T09:20:56Z</time>
      </trkpt>
      <trkpt lat="47.17916" lon="5.99509">
        <ele>386.4</ele>
        <time>2021-04-25T09:20:57Z</time>
      </trkpt>
      <trkpt lat="47.17917" lon="5.99509">
        <ele>386.6</ele>
        <time>2021-04-25T09:20:58Z</time>
      </trkpt>
      <trkpt lat="47.17918" lon="5.99509">
        <ele>386.8</ele>
        <time>2021-04-25T09:20:59Z</time>
      </trkpt>
      <trkpt lat="47.1792" lon="5.9951">
        <ele>386.8</ele>
        <time>2021-04-25T09:21:00Z</time>
      </trkpt>
      <trkpt lat="47.17921" lon="5.9951">
        <ele>387</ele>
        <time>2021-04-25T09:21:01Z</time>
      </trkpt>
      <trkpt lat="47.17922" lon="5.9951">
        <ele>387.2</ele>
        <time>2021-04-25T09:21:02Z</time>
      </trkpt>
      <trkpt lat="47.17923" lon="5.9951">
        <ele>387.2</ele>
        <time>2021-04-25T09:21:03Z</time>
      </trkpt>
      <trkpt lat="47.17924" lon="5.99511">
        <ele>387.2</ele>
        <time>2021-04-25T09:21:04Z</time>
      </trkpt>
      <trkpt lat="47.17926" lon="5.99512">
        <ele>387.4</ele>
        <time>2021-04-25T09:21:05Z</time>
      </trkpt>
      <trkpt lat="47.17927" lon="5.99512">
        <ele>387.6</ele>
        <time>2021-04-25T09:21:06Z</time>
      </trkpt>
      <trkpt lat="47.17928" lon="5.99514">
        <ele>387.8</ele>
        <time>2021-04-25T09:21:07Z</time>
      </trkpt>
      <trkpt lat="47.17929" lon="5.99514">
        <ele>388</ele>
        <time>2021-04-25T09:21:08Z</time>
      </trkpt>
      <trkpt lat="47.1793" lon="5.99514">
        <ele>388.2</ele>
        <time>2021-04-25T09:21:09Z</time>
      </trkpt>
      <trkpt lat="47.17932" lon="5.99515">
        <ele>388.4</ele>
        <time>2021-04-25T09:21:10Z</time>
      </trkpt>
      <trkpt lat="47.17933" lon="5.99516">
        <ele>388.4</ele>
        <time>2021-04-25T09:21:11Z</time>
      </trkpt>
      <trkpt lat="47.17934" lon="5.99516">
        <ele>388.6</ele>
        <time>2021-04-25T09:21:12Z</time>
      </trkpt>
      <trkpt lat="47.17936" lon="5.99517">
        <ele>388.8</ele>
        <time>2021-04-25T09:21:13Z</time>
      </trkpt>
      <trkpt lat="47.17937" lon="5.99518">
        <ele>389</ele>
        <time>2021-04-25T09:21:14Z</time>
      </trkpt>
      <trkpt lat="47.17939" lon="5.99519">
        <ele>389.2</ele>
        <time>2021-04-25T09:21:15Z</time>
      </trkpt>
      <trkpt lat="47.1794" lon="5.9952">
        <ele>389.2</ele>
        <time>2021-04-25T09:21:16Z</time>
      </trkpt>
      <trkpt lat="47.17941" lon="5.99521">
        <ele>389.6</ele>
        <time>2021-04-25T09:21:17Z</time>
      </trkpt>
      <trkpt lat="47.17943" lon="5.99523">
        <ele>389.8</ele>
        <time>2021-04-25T09:21:18Z</time>
      </trkpt>
      <trkpt lat="47.17945" lon="5.99524">
        <ele>390.2</ele>
        <time>2021-04-25T09:21:19Z</time>
      </trkpt>
      <trkpt lat="47.17946" lon="5.99525">
        <ele>390.2</ele>
        <time>2021-04-25T09:21:20Z</time>
      </trkpt>
      <trkpt lat="47.17948" lon="5.99526">
        <ele>390.4</ele>
        <time>2021-04-25T09:21:21Z</time>
      </trkpt>
      <trkpt lat="47.1795" lon="5.99528">
        <ele>390.6</ele>
        <time>2021-04-25T09:21:22Z</time>
      </trkpt>
      <trkpt lat="47.17952" lon="5.99528">
        <ele>390.8</ele>
        <time>2021-04-25T09:21:23Z</time>
      </trkpt>
      <trkpt lat="47.17953" lon="5.99529">
        <ele>390.8</ele>
        <time>2021-04-25T09:21:24Z</time>
      </trkpt>
      <trkpt lat="47.17954" lon="5.9953">
        <ele>391</ele>
        <time>2021-04-25T09:21:25Z</time>
      </trkpt>
      <trkpt lat="47.17956" lon="5.9953">
        <ele>391.2</ele>
        <time>2021-04-25T09:21:26Z</time>
      </trkpt>
      <trkpt lat="47.17958" lon="5.99531">
        <ele>391.2</ele>
        <time>2021-04-25T09:21:27Z</time>
      </trkpt>
      <trkpt lat="47.17959" lon="5.99532">
        <ele>391.6</ele>
        <time>2021-04-25T09:21:28Z</time>
      </trkpt>
      <trkpt lat="47.1796" lon="5.99533">
        <ele>391.6</ele>
        <time>2021-04-25T09:21:29Z</time>
      </trkpt>
      <trkpt lat="47.17961" lon="5.99534">
        <ele>392</ele>
        <time>2021-04-25T09:21:30Z</time>
      </trkpt>
      <trkpt lat="47.17963" lon="5.99534">
        <ele>392.2</ele>
        <time>2021-04-25T09:21:31Z</time>
      </trkpt>
      <trkpt lat="47.17964" lon="5.99535">
        <ele>392.2</ele>
        <time>2021-04-25T09:21:32Z</time>
      </trkpt>
      <trkpt lat="47.17965" lon="5.99536">
        <ele>392.4</ele>
        <time>2021-04-25T09:21:33Z</time>
      </trkpt>
      <trkpt lat="47.17966" lon="5.99536">
        <ele>392.6</ele>
        <time>2021-04-25T09:21:34Z</time>
      </trkpt>
      <trkpt lat="47.17968" lon="5.99537">
        <ele>392.8</ele>
        <time>2021-04-25T09:21:35Z</time>
      </trkpt>
      <trkpt lat="47.17969" lon="5.99538">
        <ele>392.8</ele>
        <time>2021-04-25T09:21:36Z</time>
      </trkpt>
      <trkpt lat="47.1797" lon="5.99538">
        <ele>393</ele>
        <time>2021-04-25T09:21:37Z</time>
      </trkpt>
      <trkpt lat="47.17971" lon="5.99539">
        <ele>393.4</ele>
        <time>2021-04-25T09:21:38Z</time>
      </trkpt>
      <trkpt lat="47.17972" lon="5.9954">
        <ele>393.6</ele>
        <time>2021-04-25T09:21:39Z</time>
      </trkpt>
      <trkpt lat="47.17974" lon="5.99541">
        <ele>393.6</ele>
        <time>2021-04-25T09:21:40Z</time>
      </trkpt>
      <trkpt lat="47.17975" lon="5.99541">
        <ele>393.6</ele>
        <time>2021-04-25T09:21:41Z</time>
      </trkpt>
      <trkpt lat="47.17976" lon="5.99542">
        <ele>394.2</ele>
        <time>2021-04-25T09:21:42Z</time>
      </trkpt>
      <trkpt lat="47.17978" lon="5.99543">
        <ele>394.2</ele>
        <time>2021-04-25T09:21:43Z</time>
      </trkpt>
      <trkpt lat="47.17979" lon="5.99544">
        <ele>394.4</ele>
        <time>2021-04-25T09:21:44Z</time>
      </trkpt>
      <trkpt lat="47.1798" lon="5.99545">
        <ele>394.6</ele>
        <time>2021-04-25T09:21:45Z</time>
      </trkpt>
      <trkpt lat="47.17981" lon="5.99546">
        <ele>394.6</ele>
        <time>2021-04-25T09:21:46Z</time>
      </trkpt>
      <trkpt lat="47.17983" lon="5.99547">
        <ele>394.8</ele>
        <time>2021-04-25T09:21:47Z</time>
      </trkpt>
      <trkpt lat="47.17984" lon="5.99548">
        <ele>395</ele>
        <time>2021-04-25T09:21:48Z</time>
      </trkpt>
      <trkpt lat="47.17986" lon="5.99548">
        <ele>395.2</ele>
        <time>2021-04-25T09:21:49Z</time>
      </trkpt>
      <trkpt lat="47.17987" lon="5.99549">
        <ele>395.4</ele>
        <time>2021-04-25T09:21:50Z</time>
      </trkpt>
      <trkpt lat="47.17988" lon="5.9955">
        <ele>395.6</ele>
        <time>2021-04-25T09:21:51Z</time>
      </trkpt>
      <trkpt lat="47.17989" lon="5.99551">
        <ele>395.8</ele>
        <time>2021-04-25T09:21:52Z</time>
      </trkpt>
      <trkpt lat="47.1799" lon="5.99552">
        <ele>395.8</ele>
        <time>2021-04-25T09:21:53Z</time>
      </trkpt>
      <trkpt lat="47.17992" lon="5.99553">
        <ele>396</ele>
        <time>2021-04-25T09:21:54Z</time>
      </trkpt>
      <trkpt lat="47.17993" lon="5.99553">
        <ele>396</ele>
        <time>2021-04-25T09:21:55Z</time>
      </trkpt>
      <trkpt lat="47.17994" lon="5.99554">
        <ele>396.2</ele>
        <time>2021-04-25T09:21:56Z</time>
      </trkpt>
      <trkpt lat="47.17995" lon="5.99555">
        <ele>396.2</ele>
        <time>2021-04-25T09:21:57Z</time>
      </trkpt>
      <trkpt lat="47.17997" lon="5.99556">
        <ele>396.4</ele>
        <time>2021-04-25T09:21:58Z</time>
      </trkpt>
      <trkpt lat="47.17998" lon="5.99557">
        <ele>396.6</ele>
        <time>2021-04-25T09:21:59Z</time>
      </trkpt>
      <trkpt lat="47.17999" lon="5.99558">
        <ele>396.8</ele>
        <time>2021-04-25T09:22:00Z</time>
      </trkpt>
      <trkpt lat="47.18" lon="5.99559">
        <ele>397</ele>
        <time>2021-04-25T09:22:01Z</time>
      </trkpt>
      <trkpt lat="47.18002" lon="5.99559">
        <ele>397.2</ele>
        <time>2021-04-25T09:22:02Z</time>
      </trkpt>
      <trkpt lat="47.18003" lon="5.9956">
        <ele>397.6</ele>
        <time>2021-04-25T09:22:03Z</time>
      </trkpt>
      <trkpt lat="47.18004" lon="5.99562">
        <ele>397.6</ele>
        <time>2021-04-25T09:22:04Z</time>
      </trkpt>
      <trkpt lat="47.18006" lon="5.99563">
        <ele>397.8</ele>
        <time>2021-04-25T09:22:05Z</time>
      </trkpt>
      <trkpt lat="47.18007" lon="5.99564">
        <ele>398</ele>
        <time>2021-04-25T09:22:06Z</time>
      </trkpt>
      <trkpt lat="47.18009" lon="5.99566">
        <ele>398.2</ele>
        <time>2021-04-25T09:22:07Z</time>
      </trkpt>
      <trkpt lat="47.1801" lon="5.99567">
        <ele>398.2</ele>
        <time>2021-04-25T09:22:08Z</time>
      </trkpt>
      <trkpt lat="47.18012" lon="5.99568">
        <ele>398.4</ele>
        <time>2021-04-25T09:22:09Z</time>
      </trkpt>
      <trkpt lat="47.18014" lon="5.99569">
        <ele>398.4</ele>
        <time>2021-04-25T09:22:10Z</time>
      </trkpt>
      <trkpt lat="47.18015" lon="5.9957">
        <ele>398.8</ele>
        <time>2021-04-25T09:22:11Z</time>
      </trkpt>
      <trkpt lat="47.18017" lon="5.9957">
        <ele>399</ele>
        <time>2021-04-25T09:22:12Z</time>
      </trkpt>
      <trkpt lat="47.18019" lon="5.99571">
        <ele>399.2</ele>
        <time>2021-04-25T09:22:13Z</time>
      </trkpt>
      <trkpt lat="47.18021" lon="5.99571">
        <ele>399.4</ele>
        <time>2021-04-25T09:22:14Z</time>
      </trkpt>
      <trkpt lat="47.18023" lon="5.9957">
        <ele>399.4</ele>
        <time>2021-04-25T09:22:15Z</time>
      </trkpt>
      <trkpt lat="47.18025" lon="5.99569">
        <ele>399.6</ele>
        <time>2021-04-25T09:22:16Z</time>
      </trkpt>
      <trkpt lat="47.18026" lon="5.99568">
        <ele>399.8</ele>
        <time>2021-04-25T09:22:17Z</time>
      </trkpt>
      <trkpt lat="47.18028" lon="5.99566">
        <ele>400</ele>
        <time>2021-04-25T09:22:18Z</time>
      </trkpt>
      <trkpt lat="47.18028" lon="5.99565">
        <ele>400.4</ele>
        <time>2021-04-25T09:22:19Z</time>
      </trkpt>
      <trkpt lat="47.18029" lon="5.99563">
        <ele>400.6</ele>
        <time>2021-04-25T09:22:20Z</time>
      </trkpt>
      <trkpt lat="47.1803" lon="5.99561">
        <ele>401</ele>
        <time>2021-04-25T09:22:21Z</time>
      </trkpt>
      <trkpt lat="47.18029" lon="5.99559">
        <ele>401</ele>
        <time>2021-04-25T09:22:22Z</time>
      </trkpt>
      <trkpt lat="47.18029" lon="5.99557">
        <ele>401.6</ele>
        <time>2021-04-25T09:22:23Z</time>
      </trkpt>
      <trkpt lat="47.18029" lon="5.99555">
        <ele>401.8</ele>
        <time>2021-04-25T09:22:24Z</time>
      </trkpt>
      <trkpt lat="47.18028" lon="5.99553">
        <ele>401.8</ele>
        <time>2021-04-25T09:22:25Z</time>
      </trkpt>
      <trkpt lat="47.18027" lon="5.99551">
        <ele>402</ele>
        <time>2021-04-25T09:22:26Z</time>
      </trkpt>
      <trkpt lat="47.18026" lon="5.99549">
        <ele>402.2</ele>
        <time>2021-04-25T09:22:27Z</time>
      </trkpt>
      <trkpt lat="47.18024" lon="5.99547">
        <ele>402.4</ele>
        <time>2021-04-25T09:22:28Z</time>
      </trkpt>
      <trkpt lat="47.18023" lon="5.99546">
        <ele>402.4</ele>
        <time>2021-04-25T09:22:29Z</time>
      </trkpt>
      <trkpt lat="47.18022" lon="5.99545">
        <ele>402.6</ele>
        <time>2021-04-25T09:22:30Z</time>
      </trkpt>
      <trkpt lat="47.18021" lon="5.99543">
        <ele>402.6</ele>
        <time>2021-04-25T09:22:31Z</time>
      </trkpt>
      <trkpt lat="47.1802" lon="5.99542">
        <ele>402.8</ele>
        <time>2021-04-25T09:22:32Z</time>
      </trkpt>
      <trkpt lat="47.18019" lon="5.9954">
        <ele>403</ele>
        <time>2021-04-25T09:22:33Z</time>
      </trkpt>
      <trkpt lat="47.18018" lon="5.99538">
        <ele>403</ele>
        <time>2021-04-25T09:22:34Z</time>
      </trkpt>
      <trkpt lat="47.18016" lon="5.99537">
        <ele>403.4</ele>
        <time>2021-04-25T09:22:35Z</time>
      </trkpt>
      <trkpt lat="47.18015" lon="5.99535">
        <ele>403.4</ele>
        <time>2021-04-25T09:22:36Z</time>
      </trkpt>
      <trkpt lat="47.18014" lon="5.99533">
        <ele>403.8</ele>
        <time>2021-04-25T09:22:37Z</time>
      </trkpt>
      <trkpt lat="47.18013" lon="5.99532">
        <ele>404</ele>
        <time>2021-04-25T09:22:38Z</time>
      </trkpt>
      <trkpt lat="47.18012" lon="5.9953">
        <ele>404.2</ele>
        <time>2021-04-25T09:22:39Z</time>
      </trkpt>
      <trkpt lat="47.18011" lon="5.99528">
        <ele>404.4</ele>
        <time>2021-04-25T09:22:40Z</time>
      </trkpt>
      <trkpt lat="47.1801" lon="5.99526">
        <ele>404.4</ele>
        <time>2021-04-25T09:22:41Z</time>
      </trkpt>
      <trkpt lat="47.18009" lon="5.99523">
        <ele>404.6</ele>
        <time>2021-04-25T09:22:42Z</time>
      </trkpt>
      <trkpt lat="47.18009" lon="5.99521">
        <ele>404.8</ele>
        <time>2021-04-25T09:22:43Z</time>
      </trkpt>
      <trkpt lat="47.18008" lon="5.99519">
        <ele>405</ele>
        <time>2021-04-25T09:22:44Z</time>
      </trkpt>
      <trkpt lat="47.18007" lon="5.99516">
        <ele>405.2</ele>
        <time>2021-04-25T09:22:45Z</time>
      </trkpt>
      <trkpt lat="47.18006" lon="5.99514">
        <ele>405.4</ele>
        <time>2021-04-25T09:22:46Z</time>
      </trkpt>
      <trkpt lat="47.18005" lon="5.99512">
        <ele>405.6</ele>
        <time>2021-04-25T09:22:47Z</time>
      </trkpt>
      <trkpt lat="47.18004" lon="5.99509">
        <ele>405.8</ele>
        <time>2021-04-25T09:22:48Z</time>
      </trkpt>
      <trkpt lat="47.18004" lon="5.99507">
        <ele>406</ele>
        <time>2021-04-25T09:22:49Z</time>
      </trkpt>
      <trkpt lat="47.18003" lon="5.99504">
        <ele>406</ele>
        <time>2021-04-25T09:22:50Z</time>
      </trkpt>
      <trkpt lat="47.18003" lon="5.99502">
        <ele>406.2</ele>
        <time>2021-04-25T09:22:51Z</time>
      </trkpt>
      <trkpt lat="47.18002" lon="5.99499">
        <ele>406.2</ele>
        <time>2021-04-25T09:22:52Z</time>
      </trkpt>
      <trkpt lat="47.18002" lon="5.99497">
        <ele>406.2</ele>
        <time>2021-04-25T09:22:53Z</time>
      </trkpt>
      <trkpt lat="47.18001" lon="5.99494">
        <ele>406.2</ele>
        <time>2021-04-25T09:22:54Z</time>
      </trkpt>
      <trkpt lat="47.18001" lon="5.99492">
        <ele>406.4</ele>
        <time>2021-04-25T09:22:55Z</time>
      </trkpt>
      <trkpt lat="47.18" lon="5.99489">
        <ele>406.4</ele>
        <time>2021-04-25T09:22:56Z</time>
      </trkpt>
      <trkpt lat="47.18" lon="5.99487">
        <ele>406.4</ele>
        <time>2021-04-25T09:22:57Z</time>
      </trkpt>
      <trkpt lat="47.17999" lon="5.99484">
        <ele>406.8</ele>
        <time>2021-04-25T09:22:58Z</time>
      </trkpt>
      <trkpt lat="47.17999" lon="5.99482">
        <ele>406.8</ele>
        <time>2021-04-25T09:22:59Z</time>
      </trkpt>
      <trkpt lat="47.17999" lon="5.9948">
        <ele>407</ele>
        <time>2021-04-25T09:23:00Z</time>
      </trkpt>
      <trkpt lat="47.17999" lon="5.99477">
        <ele>407</ele>
        <time>2021-04-25T09:23:01Z</time>
      </trkpt>
      <trkpt lat="47.18" lon="5.99475">
        <ele>407.2</ele>
        <time>2021-04-25T09:23:02Z</time>
      </trkpt>
      <trkpt lat="47.18" lon="5.99472">
        <ele>407.2</ele>
        <time>2021-04-25T09:23:03Z</time>
      </trkpt>
      <trkpt lat="47.18001" lon="5.9947">
        <ele>407.2</ele>
        <time>2021-04-25T09:23:04Z</time>
      </trkpt>
      <trkpt lat="47.18002" lon="5.99468">
        <ele>407.4</ele>
        <time>2021-04-25T09:23:05Z</time>
      </trkpt>
      <trkpt lat="47.18003" lon="5.99467">
        <ele>407.6</ele>
        <time>2021-04-25T09:23:06Z</time>
      </trkpt>
      <trkpt lat="47.18004" lon="5.99465">
        <ele>408</ele>
        <time>2021-04-25T09:23:07Z</time>
      </trkpt>
      <trkpt lat="47.18006" lon="5.99464">
        <ele>408</ele>
        <time>2021-04-25T09:23:08Z</time>
      </trkpt>
      <trkpt lat="47.18007" lon="5.99463">
        <ele>408.6</ele>
        <time>2021-04-25T09:23:09Z</time>
      </trkpt>
      <trkpt lat="47.18009" lon="5.99462">
        <ele>409</ele>
        <time>2021-04-25T09:23:10Z</time>
      </trkpt>
      <trkpt lat="47.18011" lon="5.99461">
        <ele>409.2</ele>
        <time>2021-04-25T09:23:11Z</time>
      </trkpt>
      <trkpt lat="47.18012" lon="5.99461">
        <ele>409.6</ele>
        <time>2021-04-25T09:23:12Z</time>
      </trkpt>
      <trkpt lat="47.18014" lon="5.99462">
        <ele>409.6</ele>
        <time>2021-04-25T09:23:13Z</time>
      </trkpt>
      <trkpt lat="47.18016" lon="5.99462">
        <ele>410</ele>
        <time>2021-04-25T09:23:14Z</time>
      </trkpt>
      <trkpt lat="47.18017" lon="5.99463">
        <ele>410.2</ele>
        <time>2021-04-25T09:23:15Z</time>
      </trkpt>
      <trkpt lat="47.18019" lon="5.99464">
        <ele>410.4</ele>
        <time>2021-04-25T09:23:16Z</time>
      </trkpt>
      <trkpt lat="47.1802" lon="5.99465">
        <ele>410.6</ele>
        <time>2021-04-25T09:23:17Z</time>
      </trkpt>
      <trkpt lat="47.18022" lon="5.99466">
        <ele>410.8</ele>
        <time>2021-04-25T09:23:18Z</time>
      </trkpt>
      <trkpt lat="47.18023" lon="5.99466">
        <ele>411</ele>
        <time>2021-04-25T09:23:19Z</time>
      </trkpt>
      <trkpt lat="47.18025" lon="5.99468">
        <ele>411.2</ele>
        <time>2021-04-25T09:23:20Z</time>
      </trkpt>
      <trkpt lat="47.18026" lon="5.99469">
        <ele>411.4</ele>
        <time>2021-04-25T09:23:21Z</time>
      </trkpt>
      <trkpt lat="47.18027" lon="5.9947">
        <ele>411.6</ele>
        <time>2021-04-25T09:23:22Z</time>
      </trkpt>
      <trkpt lat="47.18028" lon="5.99471">
        <ele>411.8</ele>
        <time>2021-04-25T09:23:23Z</time>
      </trkpt>
      <trkpt lat="47.18029" lon="5.99472">
        <ele>412</ele>
        <time>2021-04-25T09:23:24Z</time>
      </trkpt>
      <trkpt lat="47.18031" lon="5.99474">
        <ele>412.2</ele>
        <time>2021-04-25T09:23:25Z</time>
      </trkpt>
      <trkpt lat="47.18033" lon="5.99474">
        <ele>412.6</ele>
        <time>2021-04-25T09:23:26Z</time>
      </trkpt>
      <trkpt lat="47.18034" lon="5.99475">
        <ele>412.8</ele>
        <time>2021-04-25T09:23:27Z</time>
      </trkpt>
      <trkpt lat="47.18036" lon="5.99476">
        <ele>413</ele>
        <time>2021-04-25T09:23:28Z</time>
      </trkpt>
      <trkpt lat="47.18037" lon="5.99477">
        <ele>413</ele>
        <time>2021-04-25T09:23:29Z</time>
      </trkpt>
      <trkpt lat="47.18038" lon="5.99478">
        <ele>413.2</ele>
        <time>2021-04-25T09:23:30Z</time>
      </trkpt>
      <trkpt lat="47.1804" lon="5.99479">
        <ele>413.4</ele>
        <time>2021-04-25T09:23:31Z</time>
      </trkpt>
      <trkpt lat="47.18041" lon="5.99479">
        <ele>413.6</ele>
        <time>2021-04-25T09:23:32Z</time>
      </trkpt>
      <trkpt lat="47.18043" lon="5.9948">
        <ele>413.6</ele>
        <time>2021-04-25T09:23:33Z</time>
      </trkpt>
      <trkpt lat="47.18044" lon="5.99481">
        <ele>413.8</ele>
        <time>2021-04-25T09:23:34Z</time>
      </trkpt>
      <trkpt lat="47.18045" lon="5.99482">
        <ele>414</ele>
        <time>2021-04-25T09:23:35Z</time>
      </trkpt>
      <trkpt lat="47.18047" lon="5.99483">
        <ele>414.2</ele>
        <time>2021-04-25T09:23:36Z</time>
      </trkpt>
      <trkpt lat="47.18048" lon="5.99484">
        <ele>414.2</ele>
        <time>2021-04-25T09:23:37Z</time>
      </trkpt>
      <trkpt lat="47.1805" lon="5.99485">
        <ele>414.4</ele>
        <time>2021-04-25T09:23:38Z</time>
      </trkpt>
      <trkpt lat="47.18051" lon="5.99487">
        <ele>414.6</ele>
        <time>2021-04-25T09:23:39Z</time>
      </trkpt>
      <trkpt lat="47.18052" lon="5.99488">
        <ele>414.8</ele>
        <time>2021-04-25T09:23:40Z</time>
      </trkpt>
      <trkpt lat="47.18054" lon="5.99489">
        <ele>414.8</ele>
        <time>2021-04-25T09:23:41Z</time>
      </trkpt>
      <trkpt lat="47.18055" lon="5.9949">
        <ele>415</ele>
        <time>2021-04-25T09:23:42Z</time>
      </trkpt>
      <trkpt lat="47.18056" lon="5.99491">
        <ele>415</ele>
        <time>2021-04-25T09:23:43Z</time>
      </trkpt>
      <trkpt lat="47.18057" lon="5.99492">
        <ele>415.2</ele>
        <time>2021-04-25T09:23:44Z</time>
      </trkpt>
      <trkpt lat="47.18058" lon="5.99493">
        <ele>415.4</ele>
        <time>2021-04-25T09:23:45Z</time>
      </trkpt>
      <trkpt lat="47.18059" lon="5.99494">
        <ele>415.6</ele>
        <time>2021-04-25T09:23:46Z</time>
      </trkpt>
      <trkpt lat="47.18061" lon="5.99496">
        <ele>415.8</ele>
        <time>2021-04-25T09:23:47Z</time>
      </trkpt>
      <trkpt lat="47.18062" lon="5.99497">
        <ele>416.2</ele>
        <time>2021-04-25T09:23:48Z</time>
      </trkpt>
      <trkpt lat="47.18063" lon="5.99498">
        <ele>416.2</ele>
        <time>2021-04-25T09:23:49Z</time>
      </trkpt>
      <trkpt lat="47.18064" lon="5.995">
        <ele>416</ele>
        <time>2021-04-25T09:23:50Z</time>
      </trkpt>
      <trkpt lat="47.18066" lon="5.99501">
        <ele>416.4</ele>
        <time>2021-04-25T09:23:51Z</time>
      </trkpt>
      <trkpt lat="47.18067" lon="5.99502">
        <ele>416.4</ele>
        <time>2021-04-25T09:23:52Z</time>
      </trkpt>
      <trkpt lat="47.18068" lon="5.99503">
        <ele>416.6</ele>
        <time>2021-04-25T09:23:53Z</time>
      </trkpt>
      <trkpt lat="47.18069" lon="5.99505">
        <ele>416.6</ele>
        <time>2021-04-25T09:23:54Z</time>
      </trkpt>
      <trkpt lat="47.1807" lon="5.99506">
        <ele>416.8</ele>
        <time>2021-04-25T09:23:55Z</time>
      </trkpt>
      <trkpt lat="47.18071" lon="5.99507">
        <ele>416.8</ele>
        <time>2021-04-25T09:23:56Z</time>
      </trkpt>
      <trkpt lat="47.18073" lon="5.99509">
        <ele>417</ele>
        <time>2021-04-25T09:23:57Z</time>
      </trkpt>
      <trkpt lat="47.18074" lon="5.9951">
        <ele>417</ele>
        <time>2021-04-25T09:23:58Z</time>
      </trkpt>
      <trkpt lat="47.18075" lon="5.99511">
        <ele>417.2</ele>
        <time>2021-04-25T09:23:59Z</time>
      </trkpt>
      <trkpt lat="47.18077" lon="5.99512">
        <ele>417.4</ele>
        <time>2021-04-25T09:24:00Z</time>
      </trkpt>
      <trkpt lat="47.18078" lon="5.99513">
        <ele>417.6</ele>
        <time>2021-04-25T09:24:01Z</time>
      </trkpt>
      <trkpt lat="47.18079" lon="5.99514">
        <ele>417.8</ele>
        <time>2021-04-25T09:24:02Z</time>
      </trkpt>
      <trkpt lat="47.1808" lon="5.99516">
        <ele>418</ele>
        <time>2021-04-25T09:24:03Z</time>
      </trkpt>
      <trkpt lat="47.18082" lon="5.99517">
        <ele>418.2</ele>
        <time>2021-04-25T09:24:04Z</time>
      </trkpt>
      <trkpt lat="47.18083" lon="5.99518">
        <ele>418.6</ele>
        <time>2021-04-25T09:24:05Z</time>
      </trkpt>
      <trkpt lat="47.18084" lon="5.9952">
        <ele>418.6</ele>
        <time>2021-04-25T09:24:06Z</time>
      </trkpt>
      <trkpt lat="47.18085" lon="5.99521">
        <ele>418.8</ele>
        <time>2021-04-25T09:24:07Z</time>
      </trkpt>
      <trkpt lat="47.18086" lon="5.99522">
        <ele>419</ele>
        <time>2021-04-25T09:24:08Z</time>
      </trkpt>
      <trkpt lat="47.18088" lon="5.99523">
        <ele>419.2</ele>
        <time>2021-04-25T09:24:09Z</time>
      </trkpt>
      <trkpt lat="47.18089" lon="5.99524">
        <ele>419.2</ele>
        <time>2021-04-25T09:24:10Z</time>
      </trkpt>
      <trkpt lat="47.1809" lon="5.99525">
        <ele>419.4</ele>
        <time>2021-04-25T09:24:11Z</time>
      </trkpt>
      <trkpt lat="47.18092" lon="5.99527">
        <ele>419.6</ele>
        <time>2021-04-25T09:24:12Z</time>
      </trkpt>
      <trkpt lat="47.18093" lon="5.99528">
        <ele>419.6</ele>
        <time>2021-04-25T09:24:13Z</time>
      </trkpt>
      <trkpt lat="47.18095" lon="5.99529">
        <ele>420</ele>
        <time>2021-04-25T09:24:14Z</time>
      </trkpt>
      <trkpt lat="47.18096" lon="5.9953">
        <ele>420.2</ele>
        <time>2021-04-25T09:24:15Z</time>
      </trkpt>
      <trkpt lat="47.18097" lon="5.99531">
        <ele>420.4</ele>
        <time>2021-04-25T09:24:16Z</time>
      </trkpt>
      <trkpt lat="47.18098" lon="5.99533">
        <ele>420.6</ele>
        <time>2021-04-25T09:24:17Z</time>
      </trkpt>
      <trkpt lat="47.18099" lon="5.99534">
        <ele>420.8</ele>
        <time>2021-04-25T09:24:18Z</time>
      </trkpt>
      <trkpt lat="47.18101" lon="5.99535">
        <ele>421</ele>
        <time>2021-04-25T09:24:19Z</time>
      </trkpt>
      <trkpt lat="47.18102" lon="5.99536">
        <ele>421</ele>
        <time>2021-04-25T09:24:20Z</time>
      </trkpt>
      <trkpt lat="47.18103" lon="5.99537">
        <ele>421.2</ele>
        <time>2021-04-25T09:24:21Z</time>
      </trkpt>
      <trkpt lat="47.18105" lon="5.99538">
        <ele>421.4</ele>
        <time>2021-04-25T09:24:22Z</time>
      </trkpt>
      <trkpt lat="47.18106" lon="5.99539">
        <ele>421.6</ele>
        <time>2021-04-25T09:24:23Z</time>
      </trkpt>
      <trkpt lat="47.18107" lon="5.99541">
        <ele>421.8</ele>
        <time>2021-04-25T09:24:24Z</time>
      </trkpt>
      <trkpt lat="47.18108" lon="5.99542">
        <ele>421.8</ele>
        <time>2021-04-25T09:24:25Z</time>
      </trkpt>
      <trkpt lat="47.18109" lon="5.99543">
        <ele>422</ele>
        <time>2021-04-25T09:24:26Z</time>
      </trkpt>
      <trkpt lat="47.18111" lon="5.99544">
        <ele>422</ele>
        <time>2021-04-25T09:24:27Z</time>
      </trkpt>
      <trkpt lat="47.18112" lon="5.99545">
        <ele>422.6</ele>
        <time>2021-04-25T09:24:28Z</time>
      </trkpt>
      <trkpt lat="47.18113" lon="5.99546">
        <ele>422.8</ele>
        <time>2021-04-25T09:24:29Z</time>
      </trkpt>
      <trkpt lat="47.18114" lon="5.99547">
        <ele>423.2</ele>
        <time>2021-04-25T09:24:30Z</time>
      </trkpt>
      <trkpt lat="47.18115" lon="5.99549">
        <ele>423.2</ele>
        <time>2021-04-25T09:24:31Z</time>
      </trkpt>
      <trkpt lat="47.18117" lon="5.9955">
        <ele>423.4</ele>
        <time>2021-04-25T09:24:32Z</time>
      </trkpt>
      <trkpt lat="47.18118" lon="5.99551">
        <ele>423.6</ele>
        <time>2021-04-25T09:24:33Z</time>
      </trkpt>
      <trkpt lat="47.1812" lon="5.99552">
        <ele>423.6</ele>
        <time>2021-04-25T09:24:34Z</time>
      </trkpt>
      <trkpt lat="47.18121" lon="5.99553">
        <ele>423.8</ele>
        <time>2021-04-25T09:24:35Z</time>
      </trkpt>
      <trkpt lat="47.18122" lon="5.99555">
        <ele>423.8</ele>
        <time>2021-04-25T09:24:36Z</time>
      </trkpt>
      <trkpt lat="47.18124" lon="5.99556">
        <ele>424</ele>
        <time>2021-04-25T09:24:37Z</time>
      </trkpt>
      <trkpt lat="47.18126" lon="5.99557">
        <ele>424</ele>
        <time>2021-04-25T09:24:38Z</time>
      </trkpt>
      <trkpt lat="47.18127" lon="5.99558">
        <ele>424.2</ele>
        <time>2021-04-25T09:24:39Z</time>
      </trkpt>
      <trkpt lat="47.18129" lon="5.99559">
        <ele>424.4</ele>
        <time>2021-04-25T09:24:40Z</time>
      </trkpt>
      <trkpt lat="47.1813" lon="5.9956">
        <ele>424.6</ele>
        <time>2021-04-25T09:24:41Z</time>
      </trkpt>
      <trkpt lat="47.18132" lon="5.99561">
        <ele>424.8</ele>
        <time>2021-04-25T09:24:42Z</time>
      </trkpt>
      <trkpt lat="47.18133" lon="5.99562">
        <ele>424.8</ele>
        <time>2021-04-25T09:24:43Z</time>
      </trkpt>
      <trkpt lat="47.18135" lon="5.99563">
        <ele>425</ele>
        <time>2021-04-25T09:24:44Z</time>
      </trkpt>
      <trkpt lat="47.18136" lon="5.99564">
        <ele>425.2</ele>
        <time>2021-04-25T09:24:45Z</time>
      </trkpt>
      <trkpt lat="47.18137" lon="5.99565">
        <ele>425.4</ele>
        <time>2021-04-25T09:24:46Z</time>
      </trkpt>
      <trkpt lat="47.18138" lon="5.99566">
        <ele>425.4</ele>
        <time>2021-04-25T09:24:47Z</time>
      </trkpt>
      <trkpt lat="47.1814" lon="5.99568">
        <ele>425.6</ele>
        <time>2021-04-25T09:24:48Z</time>
      </trkpt>
      <trkpt lat="47.18141" lon="5.99569">
        <ele>425.8</ele>
        <time>2021-04-25T09:24:49Z</time>
      </trkpt>
      <trkpt lat="47.18142" lon="5.9957">
        <ele>425.8</ele>
        <time>2021-04-25T09:24:50Z</time>
      </trkpt>
      <trkpt lat="47.18144" lon="5.99572">
        <ele>426</ele>
        <time>2021-04-25T09:24:51Z</time>
      </trkpt>
      <trkpt lat="47.18145" lon="5.99573">
        <ele>426</ele>
        <time>2021-04-25T09:24:52Z</time>
      </trkpt>
      <trkpt lat="47.18146" lon="5.99575">
        <ele>426.2</ele>
        <time>2021-04-25T09:24:53Z</time>
      </trkpt>
      <trkpt lat="47.18147" lon="5.99576">
        <ele>426.2</ele>
        <time>2021-04-25T09:24:54Z</time>
      </trkpt>
      <trkpt lat="47.18149" lon="5.99577">
        <ele>426.2</ele>
        <time>2021-04-25T09:24:55Z</time>
      </trkpt>
      <trkpt lat="47.1815" lon="5.99579">
        <ele>426.4</ele>
        <time>2021-04-25T09:24:56Z</time>
      </trkpt>
      <trkpt lat="47.18151" lon="5.9958">
        <ele>426.4</ele>
        <time>2021-04-25T09:24:57Z</time>
      </trkpt>
      <trkpt lat="47.18152" lon="5.99582">
        <ele>426.6</ele>
        <time>2021-04-25T09:24:58Z</time>
      </trkpt>
      <trkpt lat="47.18154" lon="5.99583">
        <ele>426.6</ele>
        <time>2021-04-25T09:24:59Z</time>
      </trkpt>
      <trkpt lat="47.18155" lon="5.99584">
        <ele>426.8</ele>
        <time>2021-04-25T09:25:00Z</time>
      </trkpt>
      <trkpt lat="47.18157" lon="5.99585">
        <ele>427</ele>
        <time>2021-04-25T09:25:01Z</time>
      </trkpt>
      <trkpt lat="47.18158" lon="5.99587">
        <ele>427</ele>
        <time>2021-04-25T09:25:02Z</time>
      </trkpt>
      <trkpt lat="47.1816" lon="5.99587">
        <ele>427.2</ele>
        <time>2021-04-25T09:25:03Z</time>
      </trkpt>
      <trkpt lat="47.18161" lon="5.99589">
        <ele>427.4</ele>
        <time>2021-04-25T09:25:04Z</time>
      </trkpt>
      <trkpt lat="47.18162" lon="5.9959">
        <ele>427.6</ele>
        <time>2021-04-25T09:25:05Z</time>
      </trkpt>
      <trkpt lat="47.18163" lon="5.99591">
        <ele>427.6</ele>
        <time>2021-04-25T09:25:06Z</time>
      </trkpt>
      <trkpt lat="47.18165" lon="5.99592">
        <ele>427.8</ele>
        <time>2021-04-25T09:25:07Z</time>
      </trkpt>
      <trkpt lat="47.18166" lon="5.99594">
        <ele>427.8</ele>
        <time>2021-04-25T09:25:08Z</time>
      </trkpt>
      <trkpt lat="47.18168" lon="5.99595">
        <ele>428</ele>
        <time>2021-04-25T09:25:09Z</time>
      </trkpt>
      <trkpt lat="47.18169" lon="5.99596">
        <ele>428</ele>
        <time>2021-04-25T09:25:10Z</time>
      </trkpt>
      <trkpt lat="47.18171" lon="5.99597">
        <ele>428.2</ele>
        <time>2021-04-25T09:25:11Z</time>
      </trkpt>
      <trkpt lat="47.18172" lon="5.99599">
        <ele>428.4</ele>
        <time>2021-04-25T09:25:12Z</time>
      </trkpt>
      <trkpt lat="47.18174" lon="5.996">
        <ele>428.6</ele>
        <time>2021-04-25T09:25:13Z</time>
      </trkpt>
      <trkpt lat="47.18175" lon="5.99602">
        <ele>428.8</ele>
        <time>2021-04-25T09:25:14Z</time>
      </trkpt>
      <trkpt lat="47.18177" lon="5.99604">
        <ele>428.8</ele>
        <time>2021-04-25T09:25:15Z</time>
      </trkpt>
      <trkpt lat="47.18178" lon="5.99605">
        <ele>429</ele>
        <time>2021-04-25T09:25:16Z</time>
      </trkpt>
      <trkpt lat="47.18179" lon="5.99607">
        <ele>429.2</ele>
        <time>2021-04-25T09:25:17Z</time>
      </trkpt>
      <trkpt lat="47.1818" lon="5.99608">
        <ele>429.2</ele>
        <time>2021-04-25T09:25:18Z</time>
      </trkpt>
      <trkpt lat="47.18182" lon="5.9961">
        <ele>429.4</ele>
        <time>2021-04-25T09:25:19Z</time>
      </trkpt>
      <trkpt lat="47.18184" lon="5.99612">
        <ele>429.4</ele>
        <time>2021-04-25T09:25:20Z</time>
      </trkpt>
      <trkpt lat="47.18184" lon="5.99613">
        <ele>429.6</ele>
        <time>2021-04-25T09:25:21Z</time>
      </trkpt>
      <trkpt lat="47.18186" lon="5.99614">
        <ele>429.8</ele>
        <time>2021-04-25T09:25:22Z</time>
      </trkpt>
      <trkpt lat="47.18187" lon="5.99616">
        <ele>430</ele>
        <time>2021-04-25T09:25:23Z</time>
      </trkpt>
      <trkpt lat="47.18188" lon="5.99618">
        <ele>430.2</ele>
        <time>2021-04-25T09:25:24Z</time>
      </trkpt>
      <trkpt lat="47.1819" lon="5.99619">
        <ele>430.8</ele>
        <time>2021-04-25T09:25:25Z</time>
      </trkpt>
      <trkpt lat="47.18191" lon="5.9962">
        <ele>431.4</ele>
        <time>2021-04-25T09:25:26Z</time>
      </trkpt>
      <trkpt lat="47.18192" lon="5.99622">
        <ele>431.4</ele>
        <time>2021-04-25T09:25:27Z</time>
      </trkpt>
      <trkpt lat="47.18193" lon="5.99623">
        <ele>431.6</ele>
        <time>2021-04-25T09:25:28Z</time>
      </trkpt>
      <trkpt lat="47.18194" lon="5.99625">
        <ele>431.8</ele>
        <time>2021-04-25T09:25:29Z</time>
      </trkpt>
      <trkpt lat="47.18196" lon="5.99627">
        <ele>432.2</ele>
        <time>2021-04-25T09:25:30Z</time>
      </trkpt>
      <trkpt lat="47.18197" lon="5.99628">
        <ele>432.2</ele>
        <time>2021-04-25T09:25:31Z</time>
      </trkpt>
      <trkpt lat="47.18198" lon="5.99629">
        <ele>432.4</ele>
        <time>2021-04-25T09:25:32Z</time>
      </trkpt>
      <trkpt lat="47.182" lon="5.99631">
        <ele>432.6</ele>
        <time>2021-04-25T09:25:33Z</time>
      </trkpt>
      <trkpt lat="47.18201" lon="5.99632">
        <ele>432.6</ele>
        <time>2021-04-25T09:25:34Z</time>
      </trkpt>
      <trkpt lat="47.18202" lon="5.99634">
        <ele>432.6</ele>
        <time>2021-04-25T09:25:35Z</time>
      </trkpt>
      <trkpt lat="47.18203" lon="5.99635">
        <ele>432.6</ele>
        <time>2021-04-25T09:25:36Z</time>
      </trkpt>
      <trkpt lat="47.18204" lon="5.99636">
        <ele>432.8</ele>
        <time>2021-04-25T09:25:37Z</time>
      </trkpt>
      <trkpt lat="47.18206" lon="5.99638">
        <ele>432.8</ele>
        <time>2021-04-25T09:25:38Z</time>
      </trkpt>
      <trkpt lat="47.18207" lon="5.99639">
        <ele>433</ele>
        <time>2021-04-25T09:25:39Z</time>
      </trkpt>
      <trkpt lat="47.18209" lon="5.9964">
        <ele>433.4</ele>
        <time>2021-04-25T09:25:40Z</time>
      </trkpt>
      <trkpt lat="47.1821" lon="5.99641">
        <ele>433.6</ele>
        <time>2021-04-25T09:25:41Z</time>
      </trkpt>
      <trkpt lat="47.18211" lon="5.99642">
        <ele>433.8</ele>
        <time>2021-04-25T09:25:42Z</time>
      </trkpt>
      <trkpt lat="47.18213" lon="5.99644">
        <ele>434</ele>
        <time>2021-04-25T09:25:43Z</time>
      </trkpt>
      <trkpt lat="47.18214" lon="5.99645">
        <ele>434.4</ele>
        <time>2021-04-25T09:25:44Z</time>
      </trkpt>
      <trkpt lat="47.18216" lon="5.99646">
        <ele>434.6</ele>
        <time>2021-04-25T09:25:45Z</time>
      </trkpt>
      <trkpt lat="47.18217" lon="5.99646">
        <ele>434.8</ele>
        <time>2021-04-25T09:25:46Z</time>
      </trkpt>
      <trkpt lat="47.18218" lon="5.99648">
        <ele>435</ele>
        <time>2021-04-25T09:25:47Z</time>
      </trkpt>
      <trkpt lat="47.1822" lon="5.99649">
        <ele>435.2</ele>
        <time>2021-04-25T09:25:48Z</time>
      </trkpt>
      <trkpt lat="47.18222" lon="5.9965">
        <ele>435.2</ele>
        <time>2021-04-25T09:25:49Z</time>
      </trkpt>
      <trkpt lat="47.18224" lon="5.99651">
        <ele>435.4</ele>
        <time>2021-04-25T09:25:50Z</time>
      </trkpt>
      <trkpt lat="47.18225" lon="5.99652">
        <ele>435.6</ele>
        <time>2021-04-25T09:25:51Z</time>
      </trkpt>
      <trkpt lat="47.18227" lon="5.99653">
        <ele>435.6</ele>
        <time>2021-04-25T09:25:52Z</time>
      </trkpt>
      <trkpt lat="47.18229" lon="5.99655">
        <ele>435.8</ele>
        <time>2021-04-25T09:25:53Z</time>
      </trkpt>
      <trkpt lat="47.18231" lon="5.99656">
        <ele>436</ele>
        <time>2021-04-25T09:25:54Z</time>
      </trkpt>
      <trkpt lat="47.18232" lon="5.99657">
        <ele>436.2</ele>
        <time>2021-04-25T09:25:55Z</time>
      </trkpt>
      <trkpt lat="47.18234" lon="5.99657">
        <ele>436.4</ele>
        <time>2021-04-25T09:25:56Z</time>
      </trkpt>
      <trkpt lat="47.18235" lon="5.99659">
        <ele>436.4</ele>
        <time>2021-04-25T09:25:57Z</time>
      </trkpt>
      <trkpt lat="47.18237" lon="5.9966">
        <ele>436.6</ele>
        <time>2021-04-25T09:25:58Z</time>
      </trkpt>
      <trkpt lat="47.18239" lon="5.99661">
        <ele>436.8</ele>
        <time>2021-04-25T09:25:59Z</time>
      </trkpt>
      <trkpt lat="47.18241" lon="5.99662">
        <ele>437</ele>
        <time>2021-04-25T09:26:00Z</time>
      </trkpt>
      <trkpt lat="47.18242" lon="5.99662">
        <ele>437.2</ele>
        <time>2021-04-25T09:26:01Z</time>
      </trkpt>
      <trkpt lat="47.18244" lon="5.99663">
        <ele>437.4</ele>
        <time>2021-04-25T09:26:02Z</time>
      </trkpt>
      <trkpt lat="47.18246" lon="5.99664">
        <ele>437.6</ele>
        <time>2021-04-25T09:26:03Z</time>
      </trkpt>
      <trkpt lat="47.18248" lon="5.99665">
        <ele>437.6</ele>
        <time>2021-04-25T09:26:04Z</time>
      </trkpt>
      <trkpt lat="47.18249" lon="5.99666">
        <ele>437.8</ele>
        <time>2021-04-25T09:26:05Z</time>
      </trkpt>
      <trkpt lat="47.1825" lon="5.99667">
        <ele>437.8</ele>
        <time>2021-04-25T09:26:06Z</time>
      </trkpt>
      <trkpt lat="47.18252" lon="5.99668">
        <ele>438</ele>
        <time>2021-04-25T09:26:07Z</time>
      </trkpt>
      <trkpt lat="47.18254" lon="5.99669">
        <ele>438.2</ele>
        <time>2021-04-25T09:26:08Z</time>
      </trkpt>
      <trkpt lat="47.18255" lon="5.9967">
        <ele>438.4</ele>
        <time>2021-04-25T09:26:09Z</time>
      </trkpt>
      <trkpt lat="47.18257" lon="5.99671">
        <ele>438.8</ele>
        <time>2021-04-25T09:26:10Z</time>
      </trkpt>
      <trkpt lat="47.18258" lon="5.99672">
        <ele>439</ele>
        <time>2021-04-25T09:26:11Z</time>
      </trkpt>
      <trkpt lat="47.1826" lon="5.99673">
        <ele>439.4</ele>
        <time>2021-04-25T09:26:12Z</time>
      </trkpt>
      <trkpt lat="47.18262" lon="5.99674">
        <ele>439.6</ele>
        <time>2021-04-25T09:26:13Z</time>
      </trkpt>
      <trkpt lat="47.18263" lon="5.99675">
        <ele>440</ele>
        <time>2021-04-25T09:26:14Z</time>
      </trkpt>
      <trkpt lat="47.18265" lon="5.99676">
        <ele>440.2</ele>
        <time>2021-04-25T09:26:15Z</time>
      </trkpt>
      <trkpt lat="47.18266" lon="5.99677">
        <ele>440.4</ele>
        <time>2021-04-25T09:26:16Z</time>
      </trkpt>
      <trkpt lat="47.18268" lon="5.99678">
        <ele>440.6</ele>
        <time>2021-04-25T09:26:17Z</time>
      </trkpt>
      <trkpt lat="47.1827" lon="5.99679">
        <ele>440.8</ele>
        <time>2021-04-25T09:26:18Z</time>
      </trkpt>
      <trkpt lat="47.18272" lon="5.9968">
        <ele>440.8</ele>
        <time>2021-04-25T09:26:19Z</time>
      </trkpt>
      <trkpt lat="47.18274" lon="5.99681">
        <ele>440.8</ele>
        <time>2021-04-25T09:26:20Z</time>
      </trkpt>
      <trkpt lat="47.18275" lon="5.99682">
        <ele>441</ele>
        <time>2021-04-25T09:26:21Z</time>
      </trkpt>
      <trkpt lat="47.18277" lon="5.99683">
        <ele>441.4</ele>
        <time>2021-04-25T09:26:22Z</time>
      </trkpt>
      <trkpt lat="47.18279" lon="5.99684">
        <ele>441.8</ele>
        <time>2021-04-25T09:26:23Z</time>
      </trkpt>
      <trkpt lat="47.18281" lon="5.99684">
        <ele>442</ele>
        <time>2021-04-25T09:26:24Z</time>
      </trkpt>
      <trkpt lat="47.18282" lon="5.99684">
        <ele>442.2</ele>
        <time>2021-04-25T09:26:25Z</time>
      </trkpt>
      <trkpt lat="47.18284" lon="5.99685">
        <ele>442.2</ele>
        <time>2021-04-25T09:26:26Z</time>
      </trkpt>
      <trkpt lat="47.18285" lon="5.99685">
        <ele>442.2</ele>
        <time>2021-04-25T09:26:27Z</time>
      </trkpt>
      <trkpt lat="47.18287" lon="5.99686">
        <ele>442.8</ele>
        <time>2021-04-25T09:26:28Z</time>
      </trkpt>
      <trkpt lat="47.18288" lon="5.99686">
        <ele>442.8</ele>
        <time>2021-04-25T09:26:29Z</time>
      </trkpt>
      <trkpt lat="47.1829" lon="5.99687">
        <ele>443</ele>
        <time>2021-04-25T09:26:30Z</time>
      </trkpt>
      <trkpt lat="47.18291" lon="5.99688">
        <ele>443.2</ele>
        <time>2021-04-25T09:26:31Z</time>
      </trkpt>
      <trkpt lat="47.18292" lon="5.99688">
        <ele>443.2</ele>
        <time>2021-04-25T09:26:32Z</time>
      </trkpt>
      <trkpt lat="47.18293" lon="5.99689">
        <ele>443.4</ele>
        <time>2021-04-25T09:26:33Z</time>
      </trkpt>
      <trkpt lat="47.18294" lon="5.99689">
        <ele>443.4</ele>
        <time>2021-04-25T09:26:34Z</time>
      </trkpt>
      <trkpt lat="47.18295" lon="5.99689">
        <ele>443.8</ele>
        <time>2021-04-25T09:26:35Z</time>
      </trkpt>
      <trkpt lat="47.18296" lon="5.99689">
        <ele>444</ele>
        <time>2021-04-25T09:26:36Z</time>
      </trkpt>
      <trkpt lat="47.18297" lon="5.9969">
        <ele>444.2</ele>
        <time>2021-04-25T09:26:37Z</time>
      </trkpt>
      <trkpt lat="47.18298" lon="5.99691">
        <ele>444.4</ele>
        <time>2021-04-25T09:26:38Z</time>
      </trkpt>
      <trkpt lat="47.18299" lon="5.99691">
        <ele>444.4</ele>
        <time>2021-04-25T09:26:39Z</time>
      </trkpt>
      <trkpt lat="47.18299" lon="5.99691">
        <ele>444.6</ele>
        <time>2021-04-25T09:26:42Z</time>
      </trkpt>
      <trkpt lat="47.183" lon="5.99691">
        <ele>445</ele>
        <time>2021-04-25T09:26:50Z</time>
      </trkpt>
      <trkpt lat="47.183" lon="5.99691">
        <ele>445</ele>
        <time>2021-04-25T09:26:51Z</time>
      </trkpt>
      <trkpt lat="47.183" lon="5.99691">
        <ele>444.8</ele>
        <time>2021-04-25T09:27:14Z</time>
      </trkpt>
      <trkpt lat="47.183" lon="5.99691">
        <ele>444.8</ele>
        <time>2021-04-25T09:27:17Z</time>
      </trkpt>
      <trkpt lat="47.18304" lon="5.99692">
        <ele>444.8</ele>
        <time>2021-04-25T09:27:20Z</time>
      </trkpt>
      <trkpt lat="47.18309" lon="5.99694">
        <ele>445</ele>
        <time>2021-04-25T09:27:23Z</time>
      </trkpt>
      <trkpt lat="47.1831" lon="5.99695">
        <ele>445.2</ele>
        <time>2021-04-25T09:27:24Z</time>
      </trkpt>
      <trkpt lat="47.18311" lon="5.99695">
        <ele>445.2</ele>
        <time>2021-04-25T09:27:25Z</time>
      </trkpt>
      <trkpt lat="47.18312" lon="5.99696">
        <ele>445.4</ele>
        <time>2021-04-25T09:27:26Z</time>
      </trkpt>
      <trkpt lat="47.18312" lon="5.99696">
        <ele>445.6</ele>
        <time>2021-04-25T09:27:27Z</time>
      </trkpt>
      <trkpt lat="47.18312" lon="5.99696">
        <ele>445.8</ele>
        <time>2021-04-25T09:27:28Z</time>
      </trkpt>
      <trkpt lat="47.18312" lon="5.99696">
        <ele>446</ele>
        <time>2021-04-25T09:27:38Z</time>
      </trkpt>
      <trkpt lat="47.18312" lon="5.99696">
        <ele>446.4</ele>
        <time>2021-04-25T09:28:49Z</time>
      </trkpt>
      <trkpt lat="47.18313" lon="5.99697">
        <ele>446.2</ele>
        <time>2021-04-25T09:28:50Z</time>
      </trkpt>
      <trkpt lat="47.18315" lon="5.997">
        <ele>446.4</ele>
        <time>2021-04-25T09:28:51Z</time>
      </trkpt>
      <trkpt lat="47.18316" lon="5.99701">
        <ele>446.4</ele>
        <time>2021-04-25T09:28:52Z</time>
      </trkpt>
      <trkpt lat="47.18317" lon="5.99702">
        <ele>446.4</ele>
        <time>2021-04-25T09:28:53Z</time>
      </trkpt>
      <trkpt lat="47.18318" lon="5.99704">
        <ele>446.4</ele>
        <time>2021-04-25T09:28:54Z</time>
      </trkpt>
      <trkpt lat="47.18319" lon="5.99705">
        <ele>446.4</ele>
        <time>2021-04-25T09:28:55Z</time>
      </trkpt>
      <trkpt lat="47.18323" lon="5.9971">
        <ele>446.4</ele>
        <time>2021-04-25T09:28:58Z</time>
      </trkpt>
      <trkpt lat="47.18324" lon="5.99711">
        <ele>446.6</ele>
        <time>2021-04-25T09:28:59Z</time>
      </trkpt>
      <trkpt lat="47.18326" lon="5.99714">
        <ele>446.6</ele>
        <time>2021-04-25T09:29:01Z</time>
      </trkpt>
      <trkpt lat="47.18328" lon="5.99715">
        <ele>446.8</ele>
        <time>2021-04-25T09:29:02Z</time>
      </trkpt>
      <trkpt lat="47.18334" lon="5.99721">
        <ele>447.2</ele>
        <time>2021-04-25T09:29:06Z</time>
      </trkpt>
      <trkpt lat="47.1834" lon="5.9973">
        <ele>448.4</ele>
        <time>2021-04-25T09:29:11Z</time>
      </trkpt>
      <trkpt lat="47.18341" lon="5.99732">
        <ele>448.4</ele>
        <time>2021-04-25T09:29:12Z</time>
      </trkpt>
      <trkpt lat="47.18343" lon="5.99733">
        <ele>448.6</ele>
        <time>2021-04-25T09:29:13Z</time>
      </trkpt>
      <trkpt lat="47.18344" lon="5.99734">
        <ele>448.6</ele>
        <time>2021-04-25T09:29:14Z</time>
      </trkpt>
      <trkpt lat="47.18346" lon="5.99735">
        <ele>448.6</ele>
        <time>2021-04-25T09:29:15Z</time>
      </trkpt>
      <trkpt lat="47.18348" lon="5.99736">
        <ele>448.6</ele>
        <time>2021-04-25T09:29:16Z</time>
      </trkpt>
      <trkpt lat="47.18349" lon="5.99738">
        <ele>448.8</ele>
        <time>2021-04-25T09:29:17Z</time>
      </trkpt>
      <trkpt lat="47.1835" lon="5.9974">
        <ele>448.8</ele>
        <time>2021-04-25T09:29:18Z</time>
      </trkpt>
      <trkpt lat="47.18353" lon="5.99742">
        <ele>448.8</ele>
        <time>2021-04-25T09:29:19Z</time>
      </trkpt>
      <trkpt lat="47.18359" lon="5.99751">
        <ele>449.2</ele>
        <time>2021-04-25T09:29:23Z</time>
      </trkpt>
      <trkpt lat="47.1836" lon="5.99754">
        <ele>449.2</ele>
        <time>2021-04-25T09:29:24Z</time>
      </trkpt>
      <trkpt lat="47.1836" lon="5.99756">
        <ele>449.4</ele>
        <time>2021-04-25T09:29:25Z</time>
      </trkpt>
      <trkpt lat="47.18361" lon="5.99758">
        <ele>449.4</ele>
        <time>2021-04-25T09:29:26Z</time>
      </trkpt>
      <trkpt lat="47.18362" lon="5.9976">
        <ele>449.6</ele>
        <time>2021-04-25T09:29:27Z</time>
      </trkpt>
      <trkpt lat="47.18363" lon="5.99762">
        <ele>449.6</ele>
        <time>2021-04-25T09:29:28Z</time>
      </trkpt>
      <trkpt lat="47.18367" lon="5.9977">
        <ele>449.8</ele>
        <time>2021-04-25T09:29:31Z</time>
      </trkpt>
      <trkpt lat="47.18372" lon="5.99779">
        <ele>450.4</ele>
        <time>2021-04-25T09:29:35Z</time>
      </trkpt>
      <trkpt lat="47.18377" lon="5.99788">
        <ele>450.8</ele>
        <time>2021-04-25T09:29:39Z</time>
      </trkpt>
      <trkpt lat="47.18378" lon="5.99791">
        <ele>451</ele>
        <time>2021-04-25T09:29:40Z</time>
      </trkpt>
      <trkpt lat="47.18379" lon="5.99793">
        <ele>451.2</ele>
        <time>2021-04-25T09:29:41Z</time>
      </trkpt>
      <trkpt lat="47.18381" lon="5.99798">
        <ele>451.4</ele>
        <time>2021-04-25T09:29:43Z</time>
      </trkpt>
      <trkpt lat="47.18382" lon="5.998">
        <ele>451.6</ele>
        <time>2021-04-25T09:29:44Z</time>
      </trkpt>
      <trkpt lat="47.18383" lon="5.99803">
        <ele>451.8</ele>
        <time>2021-04-25T09:29:45Z</time>
      </trkpt>
      <trkpt lat="47.18384" lon="5.99805">
        <ele>452</ele>
        <time>2021-04-25T09:29:46Z</time>
      </trkpt>
      <trkpt lat="47.18385" lon="5.99807">
        <ele>452.2</ele>
        <time>2021-04-25T09:29:47Z</time>
      </trkpt>
      <trkpt lat="47.18386" lon="5.99809">
        <ele>452.4</ele>
        <time>2021-04-25T09:29:48Z</time>
      </trkpt>
      <trkpt lat="47.18387" lon="5.99811">
        <ele>452.4</ele>
        <time>2021-04-25T09:29:49Z</time>
      </trkpt>
      <trkpt lat="47.18389" lon="5.99814">
        <ele>452.6</ele>
        <time>2021-04-25T09:29:50Z</time>
      </trkpt>
      <trkpt lat="47.1839" lon="5.99816">
        <ele>453</ele>
        <time>2021-04-25T09:29:51Z</time>
      </trkpt>
      <trkpt lat="47.18391" lon="5.99819">
        <ele>453.2</ele>
        <time>2021-04-25T09:29:52Z</time>
      </trkpt>
      <trkpt lat="47.18392" lon="5.99821">
        <ele>453.4</ele>
        <time>2021-04-25T09:29:53Z</time>
      </trkpt>
      <trkpt lat="47.18393" lon="5.99823">
        <ele>453.4</ele>
        <time>2021-04-25T09:29:54Z</time>
      </trkpt>
      <trkpt lat="47.18395" lon="5.99826">
        <ele>453.6</ele>
        <time>2021-04-25T09:29:55Z</time>
      </trkpt>
      <trkpt lat="47.18396" lon="5.99828">
        <ele>453.6</ele>
        <time>2021-04-25T09:29:56Z</time>
      </trkpt>
      <trkpt lat="47.18397" lon="5.99831">
        <ele>453.6</ele>
        <time>2021-04-25T09:29:57Z</time>
      </trkpt>
      <trkpt lat="47.18398" lon="5.99833">
        <ele>453.6</ele>
        <time>2021-04-25T09:29:58Z</time>
      </trkpt>
      <trkpt lat="47.18399" lon="5.99835">
        <ele>453.6</ele>
        <time>2021-04-25T09:29:59Z</time>
      </trkpt>
      <trkpt lat="47.184" lon="5.99837">
        <ele>453.8</ele>
        <time>2021-04-25T09:30:00Z</time>
      </trkpt>
      <trkpt lat="47.18401" lon="5.99839">
        <ele>453.8</ele>
        <time>2021-04-25T09:30:01Z</time>
      </trkpt>
      <trkpt lat="47.18402" lon="5.99841">
        <ele>454</ele>
        <time>2021-04-25T09:30:02Z</time>
      </trkpt>
      <trkpt lat="47.18403" lon="5.99843">
        <ele>454</ele>
        <time>2021-04-25T09:30:03Z</time>
      </trkpt>
      <trkpt lat="47.18404" lon="5.99845">
        <ele>454.2</ele>
        <time>2021-04-25T09:30:04Z</time>
      </trkpt>
      <trkpt lat="47.18405" lon="5.99847">
        <ele>454.2</ele>
        <time>2021-04-25T09:30:05Z</time>
      </trkpt>
      <trkpt lat="47.18406" lon="5.9985">
        <ele>454.4</ele>
        <time>2021-04-25T09:30:06Z</time>
      </trkpt>
      <trkpt lat="47.18407" lon="5.99852">
        <ele>454.4</ele>
        <time>2021-04-25T09:30:07Z</time>
      </trkpt>
      <trkpt lat="47.18408" lon="5.99854">
        <ele>454.6</ele>
        <time>2021-04-25T09:30:08Z</time>
      </trkpt>
      <trkpt lat="47.1841" lon="5.99857">
        <ele>454.6</ele>
        <time>2021-04-25T09:30:09Z</time>
      </trkpt>
      <trkpt lat="47.18411" lon="5.9986">
        <ele>454.6</ele>
        <time>2021-04-25T09:30:10Z</time>
      </trkpt>
      <trkpt lat="47.18412" lon="5.99862">
        <ele>454.6</ele>
        <time>2021-04-25T09:30:11Z</time>
      </trkpt>
      <trkpt lat="47.18413" lon="5.99864">
        <ele>454.8</ele>
        <time>2021-04-25T09:30:12Z</time>
      </trkpt>
      <trkpt lat="47.18414" lon="5.99867">
        <ele>455</ele>
        <time>2021-04-25T09:30:13Z</time>
      </trkpt>
      <trkpt lat="47.18416" lon="5.99869">
        <ele>455.2</ele>
        <time>2021-04-25T09:30:14Z</time>
      </trkpt>
      <trkpt lat="47.18417" lon="5.99872">
        <ele>455.2</ele>
        <time>2021-04-25T09:30:15Z</time>
      </trkpt>
      <trkpt lat="47.18418" lon="5.99874">
        <ele>455.4</ele>
        <time>2021-04-25T09:30:16Z</time>
      </trkpt>
      <trkpt lat="47.18419" lon="5.99876">
        <ele>455.4</ele>
        <time>2021-04-25T09:30:17Z</time>
      </trkpt>
      <trkpt lat="47.1842" lon="5.99879">
        <ele>455.4</ele>
        <time>2021-04-25T09:30:18Z</time>
      </trkpt>
      <trkpt lat="47.18421" lon="5.99881">
        <ele>455.6</ele>
        <time>2021-04-25T09:30:19Z</time>
      </trkpt>
      <trkpt lat="47.18422" lon="5.99884">
        <ele>455.6</ele>
        <time>2021-04-25T09:30:20Z</time>
      </trkpt>
      <trkpt lat="47.18424" lon="5.99886">
        <ele>455.8</ele>
        <time>2021-04-25T09:30:21Z</time>
      </trkpt>
      <trkpt lat="47.18425" lon="5.99889">
        <ele>456</ele>
        <time>2021-04-25T09:30:22Z</time>
      </trkpt>
      <trkpt lat="47.18427" lon="5.99893">
        <ele>456.2</ele>
        <time>2021-04-25T09:30:24Z</time>
      </trkpt>
      <trkpt lat="47.18428" lon="5.99895">
        <ele>456.6</ele>
        <time>2021-04-25T09:30:25Z</time>
      </trkpt>
      <trkpt lat="47.18429" lon="5.99898">
        <ele>456.8</ele>
        <time>2021-04-25T09:30:26Z</time>
      </trkpt>
      <trkpt lat="47.1843" lon="5.999">
        <ele>456.8</ele>
        <time>2021-04-25T09:30:27Z</time>
      </trkpt>
      <trkpt lat="47.18431" lon="5.99903">
        <ele>456.8</ele>
        <time>2021-04-25T09:30:28Z</time>
      </trkpt>
      <trkpt lat="47.18432" lon="5.99906">
        <ele>457</ele>
        <time>2021-04-25T09:30:29Z</time>
      </trkpt>
      <trkpt lat="47.18433" lon="5.99909">
        <ele>457</ele>
        <time>2021-04-25T09:30:30Z</time>
      </trkpt>
      <trkpt lat="47.18434" lon="5.99912">
        <ele>457</ele>
        <time>2021-04-25T09:30:31Z</time>
      </trkpt>
      <trkpt lat="47.18436" lon="5.99916">
        <ele>457</ele>
        <time>2021-04-25T09:30:32Z</time>
      </trkpt>
      <trkpt lat="47.18438" lon="5.99919">
        <ele>457</ele>
        <time>2021-04-25T09:30:33Z</time>
      </trkpt>
      <trkpt lat="47.1844" lon="5.99922">
        <ele>457.2</ele>
        <time>2021-04-25T09:30:34Z</time>
      </trkpt>
      <trkpt lat="47.18441" lon="5.99925">
        <ele>457.2</ele>
        <time>2021-04-25T09:30:35Z</time>
      </trkpt>
      <trkpt lat="47.18442" lon="5.99927">
        <ele>457.2</ele>
        <time>2021-04-25T09:30:36Z</time>
      </trkpt>
      <trkpt lat="47.18443" lon="5.9993">
        <ele>457.2</ele>
        <time>2021-04-25T09:30:37Z</time>
      </trkpt>
      <trkpt lat="47.18444" lon="5.99932">
        <ele>457.2</ele>
        <time>2021-04-25T09:30:38Z</time>
      </trkpt>
      <trkpt lat="47.18446" lon="5.99935">
        <ele>457.4</ele>
        <time>2021-04-25T09:30:39Z</time>
      </trkpt>
      <trkpt lat="47.18448" lon="5.99941">
        <ele>457.8</ele>
        <time>2021-04-25T09:30:41Z</time>
      </trkpt>
      <trkpt lat="47.1845" lon="5.99944">
        <ele>457.8</ele>
        <time>2021-04-25T09:30:42Z</time>
      </trkpt>
      <trkpt lat="47.18451" lon="5.99947">
        <ele>458</ele>
        <time>2021-04-25T09:30:43Z</time>
      </trkpt>
      <trkpt lat="47.18452" lon="5.9995">
        <ele>458.2</ele>
        <time>2021-04-25T09:30:44Z</time>
      </trkpt>
      <trkpt lat="47.18454" lon="5.99952">
        <ele>458.2</ele>
        <time>2021-04-25T09:30:45Z</time>
      </trkpt>
      <trkpt lat="47.18456" lon="5.99958">
        <ele>458.4</ele>
        <time>2021-04-25T09:30:47Z</time>
      </trkpt>
      <trkpt lat="47.18458" lon="5.99961">
        <ele>458.6</ele>
        <time>2021-04-25T09:30:48Z</time>
      </trkpt>
      <trkpt lat="47.18464" lon="5.99971">
        <ele>459</ele>
        <time>2021-04-25T09:30:52Z</time>
      </trkpt>
      <trkpt lat="47.18466" lon="5.99974">
        <ele>459</ele>
        <time>2021-04-25T09:30:53Z</time>
      </trkpt>
      <trkpt lat="47.1847" lon="5.99982">
        <ele>459.4</ele>
        <time>2021-04-25T09:30:56Z</time>
      </trkpt>
      <trkpt lat="47.18471" lon="5.99985">
        <ele>459.6</ele>
        <time>2021-04-25T09:30:57Z</time>
      </trkpt>
      <trkpt lat="47.18472" lon="5.99987">
        <ele>459.6</ele>
        <time>2021-04-25T09:30:58Z</time>
      </trkpt>
      <trkpt lat="47.18474" lon="5.9999">
        <ele>459.8</ele>
        <time>2021-04-25T09:30:59Z</time>
      </trkpt>
      <trkpt lat="47.18475" lon="5.99992">
        <ele>459.8</ele>
        <time>2021-04-25T09:31:00Z</time>
      </trkpt>
      <trkpt lat="47.18477" lon="5.99994">
        <ele>459.8</ele>
        <time>2021-04-25T09:31:01Z</time>
      </trkpt>
      <trkpt lat="47.18478" lon="5.99996">
        <ele>460</ele>
        <time>2021-04-25T09:31:02Z</time>
      </trkpt>
      <trkpt lat="47.18479" lon="5.99999">
        <ele>460</ele>
        <time>2021-04-25T09:31:03Z</time>
      </trkpt>
      <trkpt lat="47.18481" lon="6.00001">
        <ele>460.2</ele>
        <time>2021-04-25T09:31:04Z</time>
      </trkpt>
      <trkpt lat="47.18483" lon="6.00003">
        <ele>460.4</ele>
        <time>2021-04-25T09:31:05Z</time>
      </trkpt>
      <trkpt lat="47.18484" lon="6.00006">
        <ele>460.6</ele>
        <time>2021-04-25T09:31:06Z</time>
      </trkpt>
      <trkpt lat="47.18485" lon="6.00008">
        <ele>460.8</ele>
        <time>2021-04-25T09:31:07Z</time>
      </trkpt>
      <trkpt lat="47.18486" lon="6.0001">
        <ele>460.8</ele>
        <time>2021-04-25T09:31:08Z</time>
      </trkpt>
      <trkpt lat="47.18487" lon="6.00012">
        <ele>460.8</ele>
        <time>2021-04-25T09:31:09Z</time>
      </trkpt>
      <trkpt lat="47.18489" lon="6.00014">
        <ele>461</ele>
        <time>2021-04-25T09:31:10Z</time>
      </trkpt>
      <trkpt lat="47.1849" lon="6.00016">
        <ele>461</ele>
        <time>2021-04-25T09:31:11Z</time>
      </trkpt>
      <trkpt lat="47.18491" lon="6.00018">
        <ele>461.2</ele>
        <time>2021-04-25T09:31:12Z</time>
      </trkpt>
      <trkpt lat="47.18491" lon="6.0002">
        <ele>461.2</ele>
        <time>2021-04-25T09:31:13Z</time>
      </trkpt>
      <trkpt lat="47.18492" lon="6.00022">
        <ele>461.4</ele>
        <time>2021-04-25T09:31:14Z</time>
      </trkpt>
      <trkpt lat="47.18493" lon="6.00025">
        <ele>461.6</ele>
        <time>2021-04-25T09:31:15Z</time>
      </trkpt>
      <trkpt lat="47.18494" lon="6.00027">
        <ele>461.6</ele>
        <time>2021-04-25T09:31:16Z</time>
      </trkpt>
      <trkpt lat="47.18495" lon="6.00029">
        <ele>461.6</ele>
        <time>2021-04-25T09:31:17Z</time>
      </trkpt>
      <trkpt lat="47.18496" lon="6.00031">
        <ele>461.6</ele>
        <time>2021-04-25T09:31:18Z</time>
      </trkpt>
      <trkpt lat="47.18497" lon="6.00034">
        <ele>461.8</ele>
        <time>2021-04-25T09:31:19Z</time>
      </trkpt>
      <trkpt lat="47.18498" lon="6.00036">
        <ele>461.8</ele>
        <time>2021-04-25T09:31:20Z</time>
      </trkpt>
      <trkpt lat="47.18499" lon="6.00039">
        <ele>461.8</ele>
        <time>2021-04-25T09:31:21Z</time>
      </trkpt>
      <trkpt lat="47.185" lon="6.00041">
        <ele>461.8</ele>
        <time>2021-04-25T09:31:22Z</time>
      </trkpt>
      <trkpt lat="47.18501" lon="6.00043">
        <ele>461.8</ele>
        <time>2021-04-25T09:31:23Z</time>
      </trkpt>
      <trkpt lat="47.18502" lon="6.00045">
        <ele>462</ele>
        <time>2021-04-25T09:31:24Z</time>
      </trkpt>
      <trkpt lat="47.18503" lon="6.00047">
        <ele>462</ele>
        <time>2021-04-25T09:31:25Z</time>
      </trkpt>
      <trkpt lat="47.18504" lon="6.00049">
        <ele>462</ele>
        <time>2021-04-25T09:31:26Z</time>
      </trkpt>
      <trkpt lat="47.18505" lon="6.00051">
        <ele>462</ele>
        <time>2021-04-25T09:31:27Z</time>
      </trkpt>
      <trkpt lat="47.18506" lon="6.00052">
        <ele>462.2</ele>
        <time>2021-04-25T09:31:28Z</time>
      </trkpt>
      <trkpt lat="47.18507" lon="6.00054">
        <ele>462.2</ele>
        <time>2021-04-25T09:31:29Z</time>
      </trkpt>
      <trkpt lat="47.18508" lon="6.00056">
        <ele>462.2</ele>
        <time>2021-04-25T09:31:30Z</time>
      </trkpt>
      <trkpt lat="47.18509" lon="6.00058">
        <ele>462.2</ele>
        <time>2021-04-25T09:31:31Z</time>
      </trkpt>
      <trkpt lat="47.1851" lon="6.00059">
        <ele>462.4</ele>
        <time>2021-04-25T09:31:32Z</time>
      </trkpt>
      <trkpt lat="47.18511" lon="6.00061">
        <ele>462.4</ele>
        <time>2021-04-25T09:31:33Z</time>
      </trkpt>
      <trkpt lat="47.18512" lon="6.00062">
        <ele>462.6</ele>
        <time>2021-04-25T09:31:34Z</time>
      </trkpt>
      <trkpt lat="47.18513" lon="6.00064">
        <ele>462.6</ele>
        <time>2021-04-25T09:31:35Z</time>
      </trkpt>
      <trkpt lat="47.18513" lon="6.00066">
        <ele>462.8</ele>
        <time>2021-04-25T09:31:36Z</time>
      </trkpt>
      <trkpt lat="47.18514" lon="6.00067">
        <ele>463</ele>
        <time>2021-04-25T09:31:37Z</time>
      </trkpt>
      <trkpt lat="47.18514" lon="6.00069">
        <ele>463</ele>
        <time>2021-04-25T09:31:38Z</time>
      </trkpt>
      <trkpt lat="47.18517" lon="6.00073">
        <ele>463</ele>
        <time>2021-04-25T09:31:40Z</time>
      </trkpt>
      <trkpt lat="47.18518" lon="6.00075">
        <ele>463</ele>
        <time>2021-04-25T09:31:41Z</time>
      </trkpt>
      <trkpt lat="47.18527" lon="6.00094">
        <ele>463.2</ele>
        <time>2021-04-25T09:31:49Z</time>
      </trkpt>
      <trkpt lat="47.18531" lon="6.00101">
        <ele>463.4</ele>
        <time>2021-04-25T09:31:52Z</time>
      </trkpt>
      <trkpt lat="47.18533" lon="6.00103">
        <ele>463.6</ele>
        <time>2021-04-25T09:31:53Z</time>
      </trkpt>
      <trkpt lat="47.18536" lon="6.00107">
        <ele>463.8</ele>
        <time>2021-04-25T09:31:55Z</time>
      </trkpt>
      <trkpt lat="47.18538" lon="6.00108">
        <ele>463.8</ele>
        <time>2021-04-25T09:31:56Z</time>
      </trkpt>
      <trkpt lat="47.18542" lon="6.00117">
        <ele>464.4</ele>
        <time>2021-04-25T09:32:00Z</time>
      </trkpt>
      <trkpt lat="47.18542" lon="6.00119">
        <ele>464.6</ele>
        <time>2021-04-25T09:32:01Z</time>
      </trkpt>
      <trkpt lat="47.18543" lon="6.00121">
        <ele>464.6</ele>
        <time>2021-04-25T09:32:02Z</time>
      </trkpt>
      <trkpt lat="47.18544" lon="6.00124">
        <ele>464.6</ele>
        <time>2021-04-25T09:32:03Z</time>
      </trkpt>
      <trkpt lat="47.18546" lon="6.00127">
        <ele>464.8</ele>
        <time>2021-04-25T09:32:04Z</time>
      </trkpt>
      <trkpt lat="47.18548" lon="6.0013">
        <ele>465</ele>
        <time>2021-04-25T09:32:05Z</time>
      </trkpt>
      <trkpt lat="47.1855" lon="6.00133">
        <ele>465</ele>
        <time>2021-04-25T09:32:06Z</time>
      </trkpt>
      <trkpt lat="47.18561" lon="6.00152">
        <ele>465.6</ele>
        <time>2021-04-25T09:32:13Z</time>
      </trkpt>
      <trkpt lat="47.18563" lon="6.00155">
        <ele>465.6</ele>
        <time>2021-04-25T09:32:14Z</time>
      </trkpt>
      <trkpt lat="47.18576" lon="6.0018">
        <ele>466</ele>
        <time>2021-04-25T09:32:20Z</time>
      </trkpt>
      <trkpt lat="47.18578" lon="6.00185">
        <ele>466</ele>
        <time>2021-04-25T09:32:21Z</time>
      </trkpt>
      <trkpt lat="47.18591" lon="6.00205">
        <ele>466.4</ele>
        <time>2021-04-25T09:32:26Z</time>
      </trkpt>
      <trkpt lat="47.18595" lon="6.00212">
        <ele>466.4</ele>
        <time>2021-04-25T09:32:28Z</time>
      </trkpt>
      <trkpt lat="47.18604" lon="6.00219">
        <ele>466.6</ele>
        <time>2021-04-25T09:32:31Z</time>
      </trkpt>
      <trkpt lat="47.18607" lon="6.0022">
        <ele>466.6</ele>
        <time>2021-04-25T09:32:32Z</time>
      </trkpt>
      <trkpt lat="47.1861" lon="6.0022">
        <ele>466.8</ele>
        <time>2021-04-25T09:32:33Z</time>
      </trkpt>
      <trkpt lat="47.18613" lon="6.00221">
        <ele>467</ele>
        <time>2021-04-25T09:32:34Z</time>
      </trkpt>
      <trkpt lat="47.18617" lon="6.0022">
        <ele>467.2</ele>
        <time>2021-04-25T09:32:35Z</time>
      </trkpt>
      <trkpt lat="47.18621" lon="6.0022">
        <ele>467.2</ele>
        <time>2021-04-25T09:32:36Z</time>
      </trkpt>
      <trkpt lat="47.18623" lon="6.0022">
        <ele>467.4</ele>
        <time>2021-04-25T09:32:37Z</time>
      </trkpt>
      <trkpt lat="47.18625" lon="6.0022">
        <ele>467.6</ele>
        <time>2021-04-25T09:32:38Z</time>
      </trkpt>
      <trkpt lat="47.18628" lon="6.0022">
        <ele>467.8</ele>
        <time>2021-04-25T09:32:39Z</time>
      </trkpt>
      <trkpt lat="47.1863" lon="6.00219">
        <ele>467.8</ele>
        <time>2021-04-25T09:32:40Z</time>
      </trkpt>
      <trkpt lat="47.18633" lon="6.00219">
        <ele>468</ele>
        <time>2021-04-25T09:32:41Z</time>
      </trkpt>
      <trkpt lat="47.18636" lon="6.00218">
        <ele>468.4</ele>
        <time>2021-04-25T09:32:42Z</time>
      </trkpt>
      <trkpt lat="47.18645" lon="6.00217">
        <ele>469</ele>
        <time>2021-04-25T09:32:45Z</time>
      </trkpt>
      <trkpt lat="47.18647" lon="6.00217">
        <ele>469.2</ele>
        <time>2021-04-25T09:32:46Z</time>
      </trkpt>
      <trkpt lat="47.1865" lon="6.00216">
        <ele>469.6</ele>
        <time>2021-04-25T09:32:47Z</time>
      </trkpt>
      <trkpt lat="47.18652" lon="6.00216">
        <ele>469.6</ele>
        <time>2021-04-25T09:32:48Z</time>
      </trkpt>
      <trkpt lat="47.18653" lon="6.00215">
        <ele>469.8</ele>
        <time>2021-04-25T09:32:49Z</time>
      </trkpt>
      <trkpt lat="47.18655" lon="6.00215">
        <ele>469.8</ele>
        <time>2021-04-25T09:32:50Z</time>
      </trkpt>
      <trkpt lat="47.18657" lon="6.00214">
        <ele>470</ele>
        <time>2021-04-25T09:32:51Z</time>
      </trkpt>
      <trkpt lat="47.18658" lon="6.00214">
        <ele>470</ele>
        <time>2021-04-25T09:32:52Z</time>
      </trkpt>
      <trkpt lat="47.18659" lon="6.00214">
        <ele>470.2</ele>
        <time>2021-04-25T09:32:53Z</time>
      </trkpt>
      <trkpt lat="47.18659" lon="6.00214">
        <ele>470.4</ele>
        <time>2021-04-25T09:32:56Z</time>
      </trkpt>
      <trkpt lat="47.18659" lon="6.00214">
        <ele>470.4</ele>
        <time>2021-04-25T09:33:03Z</time>
      </trkpt>
      <trkpt lat="47.1866" lon="6.00214">
        <ele>470.4</ele>
        <time>2021-04-25T09:33:04Z</time>
      </trkpt>
      <trkpt lat="47.18661" lon="6.00213">
        <ele>470.4</ele>
        <time>2021-04-25T09:33:05Z</time>
      </trkpt>
      <trkpt lat="47.18662" lon="6.00212">
        <ele>470.4</ele>
        <time>2021-04-25T09:33:06Z</time>
      </trkpt>
      <trkpt lat="47.18664" lon="6.0021">
        <ele>470.4</ele>
        <time>2021-04-25T09:33:07Z</time>
      </trkpt>
      <trkpt lat="47.1867" lon="6.00203">
        <ele>470.6</ele>
        <time>2021-04-25T09:33:11Z</time>
      </trkpt>
      <trkpt lat="47.18675" lon="6.00198">
        <ele>470.6</ele>
        <time>2021-04-25T09:33:14Z</time>
      </trkpt>
      <trkpt lat="47.18678" lon="6.00198">
        <ele>470.8</ele>
        <time>2021-04-25T09:33:15Z</time>
      </trkpt>
      <trkpt lat="47.1868" lon="6.00197">
        <ele>470.8</ele>
        <time>2021-04-25T09:33:16Z</time>
      </trkpt>
      <trkpt lat="47.18682" lon="6.00197">
        <ele>470.8</ele>
        <time>2021-04-25T09:33:17Z</time>
      </trkpt>
      <trkpt lat="47.18693" lon="6.00201">
        <ele>471</ele>
        <time>2021-04-25T09:33:21Z</time>
      </trkpt>
      <trkpt lat="47.18703" lon="6.0021">
        <ele>471.2</ele>
        <time>2021-04-25T09:33:25Z</time>
      </trkpt>
      <trkpt lat="47.18711" lon="6.00215">
        <ele>471.4</ele>
        <time>2021-04-25T09:33:28Z</time>
      </trkpt>
      <trkpt lat="47.18724" lon="6.00227">
        <ele>472.2</ele>
        <time>2021-04-25T09:33:34Z</time>
      </trkpt>
      <trkpt lat="47.18726" lon="6.00229">
        <ele>472.2</ele>
        <time>2021-04-25T09:33:35Z</time>
      </trkpt>
      <trkpt lat="47.18728" lon="6.00232">
        <ele>472.4</ele>
        <time>2021-04-25T09:33:36Z</time>
      </trkpt>
      <trkpt lat="47.1873" lon="6.00234">
        <ele>472.6</ele>
        <time>2021-04-25T09:33:37Z</time>
      </trkpt>
      <trkpt lat="47.18732" lon="6.00236">
        <ele>472.8</ele>
        <time>2021-04-25T09:33:38Z</time>
      </trkpt>
      <trkpt lat="47.18736" lon="6.0024">
        <ele>473</ele>
        <time>2021-04-25T09:33:40Z</time>
      </trkpt>
      <trkpt lat="47.18738" lon="6.00243">
        <ele>473</ele>
        <time>2021-04-25T09:33:41Z</time>
      </trkpt>
      <trkpt lat="47.18745" lon="6.00251">
        <ele>473.4</ele>
        <time>2021-04-25T09:33:45Z</time>
      </trkpt>
      <trkpt lat="47.18748" lon="6.00254">
        <ele>473.8</ele>
        <time>2021-04-25T09:33:47Z</time>
      </trkpt>
      <trkpt lat="47.1875" lon="6.00256">
        <ele>473.8</ele>
        <time>2021-04-25T09:33:48Z</time>
      </trkpt>
      <trkpt lat="47.18753" lon="6.00258">
        <ele>474.2</ele>
        <time>2021-04-25T09:33:49Z</time>
      </trkpt>
      <trkpt lat="47.18756" lon="6.0026">
        <ele>474.2</ele>
        <time>2021-04-25T09:33:50Z</time>
      </trkpt>
      <trkpt lat="47.18759" lon="6.00262">
        <ele>474.4</ele>
        <time>2021-04-25T09:33:51Z</time>
      </trkpt>
      <trkpt lat="47.18762" lon="6.00264">
        <ele>474.6</ele>
        <time>2021-04-25T09:33:52Z</time>
      </trkpt>
      <trkpt lat="47.18764" lon="6.00266">
        <ele>474.6</ele>
        <time>2021-04-25T09:33:53Z</time>
      </trkpt>
      <trkpt lat="47.18767" lon="6.00268">
        <ele>474.8</ele>
        <time>2021-04-25T09:33:54Z</time>
      </trkpt>
      <trkpt lat="47.18769" lon="6.0027">
        <ele>474.8</ele>
        <time>2021-04-25T09:33:55Z</time>
      </trkpt>
      <trkpt lat="47.18772" lon="6.00272">
        <ele>475</ele>
        <time>2021-04-25T09:33:56Z</time>
      </trkpt>
      <trkpt lat="47.18775" lon="6.00274">
        <ele>475</ele>
        <time>2021-04-25T09:33:57Z</time>
      </trkpt>
      <trkpt lat="47.18778" lon="6.00277">
        <ele>475.2</ele>
        <time>2021-04-25T09:33:58Z</time>
      </trkpt>
      <trkpt lat="47.1878" lon="6.00279">
        <ele>475.2</ele>
        <time>2021-04-25T09:33:59Z</time>
      </trkpt>
      <trkpt lat="47.18783" lon="6.00282">
        <ele>475.4</ele>
        <time>2021-04-25T09:34:00Z</time>
      </trkpt>
      <trkpt lat="47.18786" lon="6.00284">
        <ele>475.6</ele>
        <time>2021-04-25T09:34:01Z</time>
      </trkpt>
      <trkpt lat="47.18788" lon="6.00288">
        <ele>475.6</ele>
        <time>2021-04-25T09:34:02Z</time>
      </trkpt>
      <trkpt lat="47.18791" lon="6.0029">
        <ele>475.6</ele>
        <time>2021-04-25T09:34:03Z</time>
      </trkpt>
      <trkpt lat="47.18793" lon="6.00293">
        <ele>475.8</ele>
        <time>2021-04-25T09:34:04Z</time>
      </trkpt>
      <trkpt lat="47.18795" lon="6.00295">
        <ele>475.8</ele>
        <time>2021-04-25T09:34:05Z</time>
      </trkpt>
      <trkpt lat="47.18798" lon="6.00297">
        <ele>476</ele>
        <time>2021-04-25T09:34:06Z</time>
      </trkpt>
      <trkpt lat="47.188" lon="6.003">
        <ele>476</ele>
        <time>2021-04-25T09:34:07Z</time>
      </trkpt>
      <trkpt lat="47.18802" lon="6.00302">
        <ele>476.2</ele>
        <time>2021-04-25T09:34:08Z</time>
      </trkpt>
      <trkpt lat="47.18804" lon="6.00304">
        <ele>476.2</ele>
        <time>2021-04-25T09:34:09Z</time>
      </trkpt>
      <trkpt lat="47.18805" lon="6.00306">
        <ele>476.6</ele>
        <time>2021-04-25T09:34:10Z</time>
      </trkpt>
      <trkpt lat="47.18808" lon="6.00308">
        <ele>476.6</ele>
        <time>2021-04-25T09:34:11Z</time>
      </trkpt>
      <trkpt lat="47.1881" lon="6.00311">
        <ele>476.8</ele>
        <time>2021-04-25T09:34:12Z</time>
      </trkpt>
      <trkpt lat="47.18812" lon="6.00313">
        <ele>477</ele>
        <time>2021-04-25T09:34:13Z</time>
      </trkpt>
      <trkpt lat="47.18813" lon="6.00315">
        <ele>477.4</ele>
        <time>2021-04-25T09:34:14Z</time>
      </trkpt>
      <trkpt lat="47.18815" lon="6.00317">
        <ele>477.6</ele>
        <time>2021-04-25T09:34:15Z</time>
      </trkpt>
      <trkpt lat="47.18817" lon="6.00321">
        <ele>477.6</ele>
        <time>2021-04-25T09:34:16Z</time>
      </trkpt>
      <trkpt lat="47.18818" lon="6.00325">
        <ele>477.6</ele>
        <time>2021-04-25T09:34:17Z</time>
      </trkpt>
      <trkpt lat="47.18818" lon="6.00328">
        <ele>477.6</ele>
        <time>2021-04-25T09:34:18Z</time>
      </trkpt>
      <trkpt lat="47.1882" lon="6.00332">
        <ele>477.8</ele>
        <time>2021-04-25T09:34:19Z</time>
      </trkpt>
      <trkpt lat="47.1882" lon="6.00335">
        <ele>477.8</ele>
        <time>2021-04-25T09:34:20Z</time>
      </trkpt>
      <trkpt lat="47.18821" lon="6.00338">
        <ele>478</ele>
        <time>2021-04-25T09:34:21Z</time>
      </trkpt>
      <trkpt lat="47.18821" lon="6.00341">
        <ele>478.2</ele>
        <time>2021-04-25T09:34:22Z</time>
      </trkpt>
      <trkpt lat="47.18821" lon="6.00343">
        <ele>478.2</ele>
        <time>2021-04-25T09:34:23Z</time>
      </trkpt>
      <trkpt lat="47.18822" lon="6.00346">
        <ele>478.4</ele>
        <time>2021-04-25T09:34:24Z</time>
      </trkpt>
      <trkpt lat="47.18823" lon="6.0035">
        <ele>478.4</ele>
        <time>2021-04-25T09:34:25Z</time>
      </trkpt>
      <trkpt lat="47.18824" lon="6.00353">
        <ele>478.6</ele>
        <time>2021-04-25T09:34:26Z</time>
      </trkpt>
      <trkpt lat="47.18825" lon="6.00355">
        <ele>478.6</ele>
        <time>2021-04-25T09:34:27Z</time>
      </trkpt>
      <trkpt lat="47.18826" lon="6.00358">
        <ele>478.6</ele>
        <time>2021-04-25T09:34:28Z</time>
      </trkpt>
      <trkpt lat="47.18827" lon="6.00361">
        <ele>478.6</ele>
        <time>2021-04-25T09:34:29Z</time>
      </trkpt>
      <trkpt lat="47.18828" lon="6.00365">
        <ele>478.6</ele>
        <time>2021-04-25T09:34:30Z</time>
      </trkpt>
      <trkpt lat="47.18829" lon="6.00368">
        <ele>478.8</ele>
        <time>2021-04-25T09:34:31Z</time>
      </trkpt>
      <trkpt lat="47.1883" lon="6.0037">
        <ele>478.8</ele>
        <time>2021-04-25T09:34:32Z</time>
      </trkpt>
      <trkpt lat="47.18831" lon="6.00373">
        <ele>479</ele>
        <time>2021-04-25T09:34:33Z</time>
      </trkpt>
      <trkpt lat="47.18832" lon="6.00377">
        <ele>479</ele>
        <time>2021-04-25T09:34:34Z</time>
      </trkpt>
      <trkpt lat="47.18834" lon="6.00379">
        <ele>478.8</ele>
        <time>2021-04-25T09:34:35Z</time>
      </trkpt>
      <trkpt lat="47.18836" lon="6.00381">
        <ele>478.8</ele>
        <time>2021-04-25T09:34:36Z</time>
      </trkpt>
      <trkpt lat="47.18837" lon="6.00384">
        <ele>478.8</ele>
        <time>2021-04-25T09:34:37Z</time>
      </trkpt>
      <trkpt lat="47.1884" lon="6.00393">
        <ele>478.6</ele>
        <time>2021-04-25T09:34:39Z</time>
      </trkpt>
      <trkpt lat="47.18843" lon="6.00399">
        <ele>478.4</ele>
        <time>2021-04-25T09:34:40Z</time>
      </trkpt>
      <trkpt lat="47.18846" lon="6.00411">
        <ele>478.2</ele>
        <time>2021-04-25T09:34:42Z</time>
      </trkpt>
      <trkpt lat="47.1885" lon="6.0042">
        <ele>478</ele>
        <time>2021-04-25T09:34:44Z</time>
      </trkpt>
      <trkpt lat="47.18852" lon="6.00424">
        <ele>477.8</ele>
        <time>2021-04-25T09:34:45Z</time>
      </trkpt>
      <trkpt lat="47.18854" lon="6.00428">
        <ele>477.6</ele>
        <time>2021-04-25T09:34:46Z</time>
      </trkpt>
      <trkpt lat="47.18854" lon="6.0043">
        <ele>477.4</ele>
        <time>2021-04-25T09:34:47Z</time>
      </trkpt>
      <trkpt lat="47.18855" lon="6.00432">
        <ele>477.4</ele>
        <time>2021-04-25T09:34:48Z</time>
      </trkpt>
      <trkpt lat="47.18858" lon="6.00436">
        <ele>477.4</ele>
        <time>2021-04-25T09:34:49Z</time>
      </trkpt>
      <trkpt lat="47.18862" lon="6.00441">
        <ele>477.4</ele>
        <time>2021-04-25T09:34:51Z</time>
      </trkpt>
      <trkpt lat="47.18864" lon="6.00444">
        <ele>477.4</ele>
        <time>2021-04-25T09:34:52Z</time>
      </trkpt>
      <trkpt lat="47.18867" lon="6.00447">
        <ele>477.4</ele>
        <time>2021-04-25T09:34:53Z</time>
      </trkpt>
      <trkpt lat="47.1887" lon="6.0045">
        <ele>477.4</ele>
        <time>2021-04-25T09:34:54Z</time>
      </trkpt>
      <trkpt lat="47.18874" lon="6.00455">
        <ele>477.6</ele>
        <time>2021-04-25T09:34:56Z</time>
      </trkpt>
      <trkpt lat="47.18886" lon="6.00469">
        <ele>477.8</ele>
        <time>2021-04-25T09:35:02Z</time>
      </trkpt>
      <trkpt lat="47.18887" lon="6.0047">
        <ele>477.8</ele>
        <time>2021-04-25T09:35:03Z</time>
      </trkpt>
      <trkpt lat="47.1889" lon="6.00473">
        <ele>477.8</ele>
        <time>2021-04-25T09:35:04Z</time>
      </trkpt>
      <trkpt lat="47.18892" lon="6.00475">
        <ele>478</ele>
        <time>2021-04-25T09:35:05Z</time>
      </trkpt>
      <trkpt lat="47.18893" lon="6.00477">
        <ele>478.2</ele>
        <time>2021-04-25T09:35:06Z</time>
      </trkpt>
      <trkpt lat="47.18895" lon="6.00479">
        <ele>478.2</ele>
        <time>2021-04-25T09:35:07Z</time>
      </trkpt>
      <trkpt lat="47.18897" lon="6.00481">
        <ele>478.4</ele>
        <time>2021-04-25T09:35:08Z</time>
      </trkpt>
      <trkpt lat="47.18899" lon="6.00484">
        <ele>478.6</ele>
        <time>2021-04-25T09:35:09Z</time>
      </trkpt>
      <trkpt lat="47.18901" lon="6.00486">
        <ele>479</ele>
        <time>2021-04-25T09:35:10Z</time>
      </trkpt>
      <trkpt lat="47.18906" lon="6.00493">
        <ele>479.4</ele>
        <time>2021-04-25T09:35:13Z</time>
      </trkpt>
      <trkpt lat="47.18924" lon="6.00513">
        <ele>480.2</ele>
        <time>2021-04-25T09:35:22Z</time>
      </trkpt>
      <trkpt lat="47.18941" lon="6.00534">
        <ele>480.8</ele>
        <time>2021-04-25T09:35:31Z</time>
      </trkpt>
      <trkpt lat="47.18943" lon="6.00536">
        <ele>481</ele>
        <time>2021-04-25T09:35:32Z</time>
      </trkpt>
      <trkpt lat="47.18945" lon="6.00539">
        <ele>481.2</ele>
        <time>2021-04-25T09:35:33Z</time>
      </trkpt>
      <trkpt lat="47.18963" lon="6.00561">
        <ele>482.2</ele>
        <time>2021-04-25T09:35:42Z</time>
      </trkpt>
      <trkpt lat="47.18966" lon="6.00564">
        <ele>482.2</ele>
        <time>2021-04-25T09:35:43Z</time>
      </trkpt>
      <trkpt lat="47.18968" lon="6.00567">
        <ele>482.4</ele>
        <time>2021-04-25T09:35:44Z</time>
      </trkpt>
      <trkpt lat="47.1897" lon="6.0057">
        <ele>482.4</ele>
        <time>2021-04-25T09:35:45Z</time>
      </trkpt>
      <trkpt lat="47.18972" lon="6.00573">
        <ele>482.4</ele>
        <time>2021-04-25T09:35:46Z</time>
      </trkpt>
      <trkpt lat="47.18974" lon="6.00575">
        <ele>482.4</ele>
        <time>2021-04-25T09:35:47Z</time>
      </trkpt>
      <trkpt lat="47.18976" lon="6.00578">
        <ele>482.6</ele>
        <time>2021-04-25T09:35:48Z</time>
      </trkpt>
      <trkpt lat="47.18978" lon="6.00581">
        <ele>482.6</ele>
        <time>2021-04-25T09:35:49Z</time>
      </trkpt>
      <trkpt lat="47.18984" lon="6.00588">
        <ele>482.8</ele>
        <time>2021-04-25T09:35:52Z</time>
      </trkpt>
      <trkpt lat="47.19004" lon="6.00612">
        <ele>483.6</ele>
        <time>2021-04-25T09:36:01Z</time>
      </trkpt>
      <trkpt lat="47.19006" lon="6.00616">
        <ele>483.6</ele>
        <time>2021-04-25T09:36:02Z</time>
      </trkpt>
      <trkpt lat="47.19025" lon="6.00639">
        <ele>484.6</ele>
        <time>2021-04-25T09:36:11Z</time>
      </trkpt>
      <trkpt lat="47.19029" lon="6.00643">
        <ele>484.8</ele>
        <time>2021-04-25T09:36:13Z</time>
      </trkpt>
      <trkpt lat="47.19031" lon="6.00646">
        <ele>484.8</ele>
        <time>2021-04-25T09:36:14Z</time>
      </trkpt>
      <trkpt lat="47.19032" lon="6.00648">
        <ele>484.8</ele>
        <time>2021-04-25T09:36:15Z</time>
      </trkpt>
      <trkpt lat="47.19035" lon="6.0065">
        <ele>485</ele>
        <time>2021-04-25T09:36:16Z</time>
      </trkpt>
      <trkpt lat="47.19037" lon="6.00653">
        <ele>485</ele>
        <time>2021-04-25T09:36:17Z</time>
      </trkpt>
      <trkpt lat="47.19039" lon="6.00655">
        <ele>485</ele>
        <time>2021-04-25T09:36:18Z</time>
      </trkpt>
      <trkpt lat="47.19059" lon="6.00678">
        <ele>485.8</ele>
        <time>2021-04-25T09:36:28Z</time>
      </trkpt>
      <trkpt lat="47.19063" lon="6.00682">
        <ele>486</ele>
        <time>2021-04-25T09:36:30Z</time>
      </trkpt>
      <trkpt lat="47.19065" lon="6.00684">
        <ele>486</ele>
        <time>2021-04-25T09:36:31Z</time>
      </trkpt>
      <trkpt lat="47.19067" lon="6.00686">
        <ele>486</ele>
        <time>2021-04-25T09:36:32Z</time>
      </trkpt>
      <trkpt lat="47.19081" lon="6.00703">
        <ele>486.6</ele>
        <time>2021-04-25T09:36:39Z</time>
      </trkpt>
      <trkpt lat="47.19095" lon="6.00722">
        <ele>486.8</ele>
        <time>2021-04-25T09:36:46Z</time>
      </trkpt>
      <trkpt lat="47.19107" lon="6.00736">
        <ele>486.8</ele>
        <time>2021-04-25T09:36:51Z</time>
      </trkpt>
      <trkpt lat="47.19119" lon="6.00752">
        <ele>487</ele>
        <time>2021-04-25T09:36:56Z</time>
      </trkpt>
      <trkpt lat="47.19147" lon="6.00788">
        <ele>486.6</ele>
        <time>2021-04-25T09:37:06Z</time>
      </trkpt>
      <trkpt lat="47.1916" lon="6.00807">
        <ele>486.6</ele>
        <time>2021-04-25T09:37:11Z</time>
      </trkpt>
      <trkpt lat="47.19162" lon="6.0081">
        <ele>486.6</ele>
        <time>2021-04-25T09:37:12Z</time>
      </trkpt>
      <trkpt lat="47.19164" lon="6.00813">
        <ele>486.8</ele>
        <time>2021-04-25T09:37:13Z</time>
      </trkpt>
      <trkpt lat="47.19166" lon="6.00816">
        <ele>486.8</ele>
        <time>2021-04-25T09:37:14Z</time>
      </trkpt>
      <trkpt lat="47.19168" lon="6.00819">
        <ele>487</ele>
        <time>2021-04-25T09:37:15Z</time>
      </trkpt>
      <trkpt lat="47.1917" lon="6.00823">
        <ele>487</ele>
        <time>2021-04-25T09:37:16Z</time>
      </trkpt>
      <trkpt lat="47.19172" lon="6.00825">
        <ele>487</ele>
        <time>2021-04-25T09:37:17Z</time>
      </trkpt>
      <trkpt lat="47.19175" lon="6.00829">
        <ele>487</ele>
        <time>2021-04-25T09:37:18Z</time>
      </trkpt>
      <trkpt lat="47.19177" lon="6.00832">
        <ele>487.2</ele>
        <time>2021-04-25T09:37:19Z</time>
      </trkpt>
      <trkpt lat="47.19184" lon="6.00841">
        <ele>487.2</ele>
        <time>2021-04-25T09:37:22Z</time>
      </trkpt>
      <trkpt lat="47.19187" lon="6.00845">
        <ele>487.2</ele>
        <time>2021-04-25T09:37:23Z</time>
      </trkpt>
      <trkpt lat="47.19194" lon="6.00851">
        <ele>487.4</ele>
        <time>2021-04-25T09:37:26Z</time>
      </trkpt>
      <trkpt lat="47.19195" lon="6.00853">
        <ele>487.6</ele>
        <time>2021-04-25T09:37:27Z</time>
      </trkpt>
      <trkpt lat="47.19197" lon="6.00855">
        <ele>487.6</ele>
        <time>2021-04-25T09:37:28Z</time>
      </trkpt>
      <trkpt lat="47.19199" lon="6.00857">
        <ele>487.8</ele>
        <time>2021-04-25T09:37:29Z</time>
      </trkpt>
      <trkpt lat="47.192" lon="6.00859">
        <ele>487.8</ele>
        <time>2021-04-25T09:37:30Z</time>
      </trkpt>
      <trkpt lat="47.19206" lon="6.00863">
        <ele>488.2</ele>
        <time>2021-04-25T09:37:33Z</time>
      </trkpt>
      <trkpt lat="47.19209" lon="6.00865">
        <ele>488.2</ele>
        <time>2021-04-25T09:37:34Z</time>
      </trkpt>
      <trkpt lat="47.1921" lon="6.00866">
        <ele>488.6</ele>
        <time>2021-04-25T09:37:35Z</time>
      </trkpt>
      <trkpt lat="47.19212" lon="6.00867">
        <ele>488.8</ele>
        <time>2021-04-25T09:37:36Z</time>
      </trkpt>
      <trkpt lat="47.19214" lon="6.00868">
        <ele>489</ele>
        <time>2021-04-25T09:37:37Z</time>
      </trkpt>
      <trkpt lat="47.19216" lon="6.00868">
        <ele>489</ele>
        <time>2021-04-25T09:37:38Z</time>
      </trkpt>
      <trkpt lat="47.19218" lon="6.00868">
        <ele>489</ele>
        <time>2021-04-25T09:37:39Z</time>
      </trkpt>
      <trkpt lat="47.19219" lon="6.00867">
        <ele>489.4</ele>
        <time>2021-04-25T09:37:40Z</time>
      </trkpt>
      <trkpt lat="47.1922" lon="6.00867">
        <ele>489.4</ele>
        <time>2021-04-25T09:37:41Z</time>
      </trkpt>
      <trkpt lat="47.19222" lon="6.00866">
        <ele>489.6</ele>
        <time>2021-04-25T09:37:42Z</time>
      </trkpt>
      <trkpt lat="47.19223" lon="6.00866">
        <ele>489.6</ele>
        <time>2021-04-25T09:37:43Z</time>
      </trkpt>
      <trkpt lat="47.19226" lon="6.00865">
        <ele>489.8</ele>
        <time>2021-04-25T09:37:45Z</time>
      </trkpt>
      <trkpt lat="47.19227" lon="6.00865">
        <ele>489.8</ele>
        <time>2021-04-25T09:37:46Z</time>
      </trkpt>
      <trkpt lat="47.19229" lon="6.00865">
        <ele>489.8</ele>
        <time>2021-04-25T09:37:47Z</time>
      </trkpt>
      <trkpt lat="47.19231" lon="6.00865">
        <ele>490</ele>
        <time>2021-04-25T09:37:48Z</time>
      </trkpt>
      <trkpt lat="47.19235" lon="6.00867">
        <ele>490.2</ele>
        <time>2021-04-25T09:37:49Z</time>
      </trkpt>
      <trkpt lat="47.19238" lon="6.00868">
        <ele>490.2</ele>
        <time>2021-04-25T09:37:50Z</time>
      </trkpt>
      <trkpt lat="47.19241" lon="6.00869">
        <ele>490.4</ele>
        <time>2021-04-25T09:37:51Z</time>
      </trkpt>
      <trkpt lat="47.19243" lon="6.0087">
        <ele>490.6</ele>
        <time>2021-04-25T09:37:52Z</time>
      </trkpt>
      <trkpt lat="47.19246" lon="6.00871">
        <ele>490.6</ele>
        <time>2021-04-25T09:37:53Z</time>
      </trkpt>
      <trkpt lat="47.19248" lon="6.00872">
        <ele>490.6</ele>
        <time>2021-04-25T09:37:54Z</time>
      </trkpt>
      <trkpt lat="47.1925" lon="6.00872">
        <ele>490.6</ele>
        <time>2021-04-25T09:37:55Z</time>
      </trkpt>
      <trkpt lat="47.19252" lon="6.00872">
        <ele>490.8</ele>
        <time>2021-04-25T09:37:56Z</time>
      </trkpt>
      <trkpt lat="47.19254" lon="6.00873">
        <ele>490.8</ele>
        <time>2021-04-25T09:37:57Z</time>
      </trkpt>
      <trkpt lat="47.19257" lon="6.00874">
        <ele>491</ele>
        <time>2021-04-25T09:37:58Z</time>
      </trkpt>
      <trkpt lat="47.1926" lon="6.00876">
        <ele>491.2</ele>
        <time>2021-04-25T09:37:59Z</time>
      </trkpt>
      <trkpt lat="47.19262" lon="6.00877">
        <ele>491.2</ele>
        <time>2021-04-25T09:38:00Z</time>
      </trkpt>
      <trkpt lat="47.19262" lon="6.00877">
        <ele>491.6</ele>
        <time>2021-04-25T09:38:05Z</time>
      </trkpt>
      <trkpt lat="47.19263" lon="6.00877">
        <ele>491.8</ele>
        <time>2021-04-25T09:38:25Z</time>
      </trkpt>
      <trkpt lat="47.19266" lon="6.0088">
        <ele>491.8</ele>
        <time>2021-04-25T09:38:27Z</time>
      </trkpt>
      <trkpt lat="47.19267" lon="6.0088">
        <ele>491.8</ele>
        <time>2021-04-25T09:38:28Z</time>
      </trkpt>
      <trkpt lat="47.19278" lon="6.00885">
        <ele>491.6</ele>
        <time>2021-04-25T09:38:33Z</time>
      </trkpt>
      <trkpt lat="47.19282" lon="6.00887">
        <ele>491.6</ele>
        <time>2021-04-25T09:38:35Z</time>
      </trkpt>
      <trkpt lat="47.19304" lon="6.0089">
        <ele>491.4</ele>
        <time>2021-04-25T09:38:45Z</time>
      </trkpt>
      <trkpt lat="47.19305" lon="6.0089">
        <ele>491.4</ele>
        <time>2021-04-25T09:38:46Z</time>
      </trkpt>
      <trkpt lat="47.19307" lon="6.0089">
        <ele>491.4</ele>
        <time>2021-04-25T09:38:47Z</time>
      </trkpt>
      <trkpt lat="47.19308" lon="6.00891">
        <ele>491.6</ele>
        <time>2021-04-25T09:38:48Z</time>
      </trkpt>
      <trkpt lat="47.19309" lon="6.00891">
        <ele>491.6</ele>
        <time>2021-04-25T09:38:49Z</time>
      </trkpt>
      <trkpt lat="47.19311" lon="6.00891">
        <ele>491.6</ele>
        <time>2021-04-25T09:38:50Z</time>
      </trkpt>
      <trkpt lat="47.19312" lon="6.00891">
        <ele>491.6</ele>
        <time>2021-04-25T09:38:51Z</time>
      </trkpt>
      <trkpt lat="47.19314" lon="6.00892">
        <ele>491.8</ele>
        <time>2021-04-25T09:38:52Z</time>
      </trkpt>
      <trkpt lat="47.19315" lon="6.00892">
        <ele>491.8</ele>
        <time>2021-04-25T09:38:53Z</time>
      </trkpt>
      <trkpt lat="47.19316" lon="6.00893">
        <ele>492</ele>
        <time>2021-04-25T09:38:54Z</time>
      </trkpt>
      <trkpt lat="47.19318" lon="6.00893">
        <ele>492</ele>
        <time>2021-04-25T09:38:55Z</time>
      </trkpt>
      <trkpt lat="47.1932" lon="6.00893">
        <ele>492.2</ele>
        <time>2021-04-25T09:38:56Z</time>
      </trkpt>
      <trkpt lat="47.19324" lon="6.00894">
        <ele>492.6</ele>
        <time>2021-04-25T09:38:59Z</time>
      </trkpt>
      <trkpt lat="47.19332" lon="6.00895">
        <ele>493.4</ele>
        <time>2021-04-25T09:39:03Z</time>
      </trkpt>
      <trkpt lat="47.19333" lon="6.00895">
        <ele>493.4</ele>
        <time>2021-04-25T09:39:04Z</time>
      </trkpt>
      <trkpt lat="47.19335" lon="6.00896">
        <ele>493.6</ele>
        <time>2021-04-25T09:39:05Z</time>
      </trkpt>
      <trkpt lat="47.19338" lon="6.00896">
        <ele>493.8</ele>
        <time>2021-04-25T09:39:07Z</time>
      </trkpt>
      <trkpt lat="47.1934" lon="6.00896">
        <ele>493.8</ele>
        <time>2021-04-25T09:39:08Z</time>
      </trkpt>
      <trkpt lat="47.19341" lon="6.00896">
        <ele>493.8</ele>
        <time>2021-04-25T09:39:09Z</time>
      </trkpt>
      <trkpt lat="47.19342" lon="6.00895">
        <ele>494</ele>
        <time>2021-04-25T09:39:10Z</time>
      </trkpt>
      <trkpt lat="47.19344" lon="6.00895">
        <ele>494.2</ele>
        <time>2021-04-25T09:39:11Z</time>
      </trkpt>
      <trkpt lat="47.19345" lon="6.00895">
        <ele>494.4</ele>
        <time>2021-04-25T09:39:12Z</time>
      </trkpt>
      <trkpt lat="47.19347" lon="6.00895">
        <ele>494.4</ele>
        <time>2021-04-25T09:39:13Z</time>
      </trkpt>
      <trkpt lat="47.19348" lon="6.00895">
        <ele>494.6</ele>
        <time>2021-04-25T09:39:14Z</time>
      </trkpt>
      <trkpt lat="47.1935" lon="6.00894">
        <ele>494.8</ele>
        <time>2021-04-25T09:39:15Z</time>
      </trkpt>
      <trkpt lat="47.19351" lon="6.00894">
        <ele>494.8</ele>
        <time>2021-04-25T09:39:16Z</time>
      </trkpt>
      <trkpt lat="47.19352" lon="6.00893">
        <ele>495</ele>
        <time>2021-04-25T09:39:17Z</time>
      </trkpt>
      <trkpt lat="47.19354" lon="6.00892">
        <ele>495</ele>
        <time>2021-04-25T09:39:18Z</time>
      </trkpt>
      <trkpt lat="47.19356" lon="6.00891">
        <ele>495.2</ele>
        <time>2021-04-25T09:39:19Z</time>
      </trkpt>
      <trkpt lat="47.19357" lon="6.0089">
        <ele>495.2</ele>
        <time>2021-04-25T09:39:20Z</time>
      </trkpt>
      <trkpt lat="47.19358" lon="6.00888">
        <ele>495.4</ele>
        <time>2021-04-25T09:39:21Z</time>
      </trkpt>
      <trkpt lat="47.1936" lon="6.00887">
        <ele>495.6</ele>
        <time>2021-04-25T09:39:22Z</time>
      </trkpt>
      <trkpt lat="47.19361" lon="6.00885">
        <ele>495.8</ele>
        <time>2021-04-25T09:39:23Z</time>
      </trkpt>
      <trkpt lat="47.19362" lon="6.00884">
        <ele>496</ele>
        <time>2021-04-25T09:39:24Z</time>
      </trkpt>
      <trkpt lat="47.19364" lon="6.00883">
        <ele>496</ele>
        <time>2021-04-25T09:39:25Z</time>
      </trkpt>
      <trkpt lat="47.19365" lon="6.00882">
        <ele>496.4</ele>
        <time>2021-04-25T09:39:26Z</time>
      </trkpt>
      <trkpt lat="47.19366" lon="6.00881">
        <ele>496.4</ele>
        <time>2021-04-25T09:39:27Z</time>
      </trkpt>
      <trkpt lat="47.19367" lon="6.00879">
        <ele>497.2</ele>
        <time>2021-04-25T09:39:28Z</time>
      </trkpt>
      <trkpt lat="47.19368" lon="6.00878">
        <ele>497.8</ele>
        <time>2021-04-25T09:39:29Z</time>
      </trkpt>
      <trkpt lat="47.19369" lon="6.00877">
        <ele>498</ele>
        <time>2021-04-25T09:39:30Z</time>
      </trkpt>
      <trkpt lat="47.1937" lon="6.00876">
        <ele>498.6</ele>
        <time>2021-04-25T09:39:31Z</time>
      </trkpt>
      <trkpt lat="47.19371" lon="6.00875">
        <ele>498.8</ele>
        <time>2021-04-25T09:39:32Z</time>
      </trkpt>
      <trkpt lat="47.19372" lon="6.00874">
        <ele>499.2</ele>
        <time>2021-04-25T09:39:33Z</time>
      </trkpt>
      <trkpt lat="47.19373" lon="6.00874">
        <ele>499.4</ele>
        <time>2021-04-25T09:39:34Z</time>
      </trkpt>
      <trkpt lat="47.19374" lon="6.00873">
        <ele>499.8</ele>
        <time>2021-04-25T09:39:35Z</time>
      </trkpt>
      <trkpt lat="47.19374" lon="6.00873">
        <ele>500</ele>
        <time>2021-04-25T09:39:36Z</time>
      </trkpt>
      <trkpt lat="47.19375" lon="6.00873">
        <ele>500</ele>
        <time>2021-04-25T09:39:37Z</time>
      </trkpt>
      <trkpt lat="47.19376" lon="6.00873">
        <ele>500.2</ele>
        <time>2021-04-25T09:39:38Z</time>
      </trkpt>
      <trkpt lat="47.19377" lon="6.00873">
        <ele>500.4</ele>
        <time>2021-04-25T09:39:39Z</time>
      </trkpt>
      <trkpt lat="47.19377" lon="6.00873">
        <ele>500.6</ele>
        <time>2021-04-25T09:39:40Z</time>
      </trkpt>
      <trkpt lat="47.19378" lon="6.00873">
        <ele>500.8</ele>
        <time>2021-04-25T09:39:41Z</time>
      </trkpt>
      <trkpt lat="47.19379" lon="6.00873">
        <ele>501</ele>
        <time>2021-04-25T09:39:42Z</time>
      </trkpt>
      <trkpt lat="47.19379" lon="6.00873">
        <ele>501.2</ele>
        <time>2021-04-25T09:39:43Z</time>
      </trkpt>
      <trkpt lat="47.1938" lon="6.00873">
        <ele>501.6</ele>
        <time>2021-04-25T09:39:44Z</time>
      </trkpt>
      <trkpt lat="47.1938" lon="6.00873">
        <ele>501.8</ele>
        <time>2021-04-25T09:39:45Z</time>
      </trkpt>
      <trkpt lat="47.19381" lon="6.00873">
        <ele>501.8</ele>
        <time>2021-04-25T09:39:46Z</time>
      </trkpt>
      <trkpt lat="47.19382" lon="6.00872">
        <ele>502.2</ele>
        <time>2021-04-25T09:39:47Z</time>
      </trkpt>
      <trkpt lat="47.19383" lon="6.00872">
        <ele>502.4</ele>
        <time>2021-04-25T09:39:48Z</time>
      </trkpt>
      <trkpt lat="47.19383" lon="6.00872">
        <ele>502.6</ele>
        <time>2021-04-25T09:39:49Z</time>
      </trkpt>
      <trkpt lat="47.19385" lon="6.00873">
        <ele>502.8</ele>
        <time>2021-04-25T09:39:50Z</time>
      </trkpt>
      <trkpt lat="47.19386" lon="6.00873">
        <ele>503</ele>
        <time>2021-04-25T09:39:51Z</time>
      </trkpt>
      <trkpt lat="47.19388" lon="6.00874">
        <ele>503.2</ele>
        <time>2021-04-25T09:39:52Z</time>
      </trkpt>
      <trkpt lat="47.1939" lon="6.00876">
        <ele>503.4</ele>
        <time>2021-04-25T09:39:53Z</time>
      </trkpt>
      <trkpt lat="47.19392" lon="6.00876">
        <ele>503.6</ele>
        <time>2021-04-25T09:39:54Z</time>
      </trkpt>
      <trkpt lat="47.19394" lon="6.00877">
        <ele>503.8</ele>
        <time>2021-04-25T09:39:55Z</time>
      </trkpt>
      <trkpt lat="47.19395" lon="6.00878">
        <ele>503.8</ele>
        <time>2021-04-25T09:39:56Z</time>
      </trkpt>
      <trkpt lat="47.19396" lon="6.00879">
        <ele>504</ele>
        <time>2021-04-25T09:39:57Z</time>
      </trkpt>
      <trkpt lat="47.19396" lon="6.00881">
        <ele>504</ele>
        <time>2021-04-25T09:39:58Z</time>
      </trkpt>
      <trkpt lat="47.19397" lon="6.00882">
        <ele>504.4</ele>
        <time>2021-04-25T09:39:59Z</time>
      </trkpt>
      <trkpt lat="47.19398" lon="6.00884">
        <ele>504.4</ele>
        <time>2021-04-25T09:40:00Z</time>
      </trkpt>
      <trkpt lat="47.19399" lon="6.00885">
        <ele>504.6</ele>
        <time>2021-04-25T09:40:01Z</time>
      </trkpt>
      <trkpt lat="47.19401" lon="6.00886">
        <ele>504.6</ele>
        <time>2021-04-25T09:40:02Z</time>
      </trkpt>
      <trkpt lat="47.19402" lon="6.00887">
        <ele>504.6</ele>
        <time>2021-04-25T09:40:03Z</time>
      </trkpt>
      <trkpt lat="47.19403" lon="6.00889">
        <ele>504.8</ele>
        <time>2021-04-25T09:40:04Z</time>
      </trkpt>
      <trkpt lat="47.19404" lon="6.00891">
        <ele>504.8</ele>
        <time>2021-04-25T09:40:05Z</time>
      </trkpt>
      <trkpt lat="47.19406" lon="6.00893">
        <ele>504.8</ele>
        <time>2021-04-25T09:40:06Z</time>
      </trkpt>
      <trkpt lat="47.19407" lon="6.00895">
        <ele>504.8</ele>
        <time>2021-04-25T09:40:07Z</time>
      </trkpt>
      <trkpt lat="47.19409" lon="6.00898">
        <ele>504.8</ele>
        <time>2021-04-25T09:40:08Z</time>
      </trkpt>
      <trkpt lat="47.19411" lon="6.009">
        <ele>504.8</ele>
        <time>2021-04-25T09:40:09Z</time>
      </trkpt>
      <trkpt lat="47.19413" lon="6.00901">
        <ele>504.8</ele>
        <time>2021-04-25T09:40:10Z</time>
      </trkpt>
      <trkpt lat="47.19415" lon="6.00903">
        <ele>505</ele>
        <time>2021-04-25T09:40:11Z</time>
      </trkpt>
      <trkpt lat="47.19417" lon="6.00903">
        <ele>505</ele>
        <time>2021-04-25T09:40:12Z</time>
      </trkpt>
      <trkpt lat="47.19419" lon="6.00904">
        <ele>505</ele>
        <time>2021-04-25T09:40:13Z</time>
      </trkpt>
      <trkpt lat="47.1942" lon="6.00904">
        <ele>505</ele>
        <time>2021-04-25T09:40:14Z</time>
      </trkpt>
      <trkpt lat="47.19422" lon="6.00905">
        <ele>505</ele>
        <time>2021-04-25T09:40:15Z</time>
      </trkpt>
      <trkpt lat="47.19424" lon="6.00906">
        <ele>505</ele>
        <time>2021-04-25T09:40:16Z</time>
      </trkpt>
      <trkpt lat="47.19426" lon="6.00906">
        <ele>505.2</ele>
        <time>2021-04-25T09:40:17Z</time>
      </trkpt>
      <trkpt lat="47.19428" lon="6.00907">
        <ele>505.2</ele>
        <time>2021-04-25T09:40:18Z</time>
      </trkpt>
      <trkpt lat="47.19429" lon="6.00908">
        <ele>505.2</ele>
        <time>2021-04-25T09:40:19Z</time>
      </trkpt>
      <trkpt lat="47.19432" lon="6.0091">
        <ele>505.4</ele>
        <time>2021-04-25T09:40:20Z</time>
      </trkpt>
      <trkpt lat="47.19438" lon="6.00913">
        <ele>505.4</ele>
        <time>2021-04-25T09:40:22Z</time>
      </trkpt>
      <trkpt lat="47.19441" lon="6.00915">
        <ele>505.4</ele>
        <time>2021-04-25T09:40:23Z</time>
      </trkpt>
      <trkpt lat="47.19459" lon="6.00916">
        <ele>505.8</ele>
        <time>2021-04-25T09:40:31Z</time>
      </trkpt>
      <trkpt lat="47.19462" lon="6.00916">
        <ele>505.8</ele>
        <time>2021-04-25T09:40:32Z</time>
      </trkpt>
      <trkpt lat="47.19464" lon="6.00915">
        <ele>506</ele>
        <time>2021-04-25T09:40:33Z</time>
      </trkpt>
      <trkpt lat="47.19466" lon="6.00916">
        <ele>505.8</ele>
        <time>2021-04-25T09:40:34Z</time>
      </trkpt>
      <trkpt lat="47.19468" lon="6.00916">
        <ele>506</ele>
        <time>2021-04-25T09:40:35Z</time>
      </trkpt>
      <trkpt lat="47.19484" lon="6.00917">
        <ele>505.8</ele>
        <time>2021-04-25T09:40:39Z</time>
      </trkpt>
      <trkpt lat="47.19495" lon="6.00915">
        <ele>505.2</ele>
        <time>2021-04-25T09:40:42Z</time>
      </trkpt>
      <trkpt lat="47.19499" lon="6.00914">
        <ele>504.8</ele>
        <time>2021-04-25T09:40:43Z</time>
      </trkpt>
      <trkpt lat="47.19502" lon="6.00914">
        <ele>504.4</ele>
        <time>2021-04-25T09:40:44Z</time>
      </trkpt>
      <trkpt lat="47.19505" lon="6.00915">
        <ele>504.2</ele>
        <time>2021-04-25T09:40:45Z</time>
      </trkpt>
      <trkpt lat="47.19508" lon="6.00917">
        <ele>504.2</ele>
        <time>2021-04-25T09:40:46Z</time>
      </trkpt>
      <trkpt lat="47.19511" lon="6.00919">
        <ele>504</ele>
        <time>2021-04-25T09:40:47Z</time>
      </trkpt>
      <trkpt lat="47.19515" lon="6.00921">
        <ele>504</ele>
        <time>2021-04-25T09:40:48Z</time>
      </trkpt>
      <trkpt lat="47.19516" lon="6.00923">
        <ele>503.8</ele>
        <time>2021-04-25T09:40:49Z</time>
      </trkpt>
      <trkpt lat="47.19517" lon="6.00926">
        <ele>503.8</ele>
        <time>2021-04-25T09:40:50Z</time>
      </trkpt>
      <trkpt lat="47.19519" lon="6.00929">
        <ele>503.4</ele>
        <time>2021-04-25T09:40:51Z</time>
      </trkpt>
      <trkpt lat="47.19519" lon="6.00932">
        <ele>503.4</ele>
        <time>2021-04-25T09:40:52Z</time>
      </trkpt>
      <trkpt lat="47.1952" lon="6.00935">
        <ele>503.2</ele>
        <time>2021-04-25T09:40:53Z</time>
      </trkpt>
      <trkpt lat="47.1952" lon="6.00937">
        <ele>503</ele>
        <time>2021-04-25T09:40:54Z</time>
      </trkpt>
      <trkpt lat="47.1952" lon="6.00938">
        <ele>502.8</ele>
        <time>2021-04-25T09:40:55Z</time>
      </trkpt>
      <trkpt lat="47.1952" lon="6.00938">
        <ele>502.2</ele>
        <time>2021-04-25T09:40:58Z</time>
      </trkpt>
      <trkpt lat="47.1952" lon="6.00938">
        <ele>502</ele>
        <time>2021-04-25T09:41:00Z</time>
      </trkpt>
      <trkpt lat="47.1952" lon="6.00938">
        <ele>501.8</ele>
        <time>2021-04-25T09:41:13Z</time>
      </trkpt>
      <trkpt lat="47.19521" lon="6.00952">
        <ele>501.8</ele>
        <time>2021-04-25T09:41:16Z</time>
      </trkpt>
      <trkpt lat="47.19522" lon="6.00968">
        <ele>501.2</ele>
        <time>2021-04-25T09:41:19Z</time>
      </trkpt>
      <trkpt lat="47.19523" lon="6.00972">
        <ele>501</ele>
        <time>2021-04-25T09:41:20Z</time>
      </trkpt>
      <trkpt lat="47.19524" lon="6.00976">
        <ele>500.6</ele>
        <time>2021-04-25T09:41:21Z</time>
      </trkpt>
      <trkpt lat="47.19525" lon="6.00979">
        <ele>500.2</ele>
        <time>2021-04-25T09:41:22Z</time>
      </trkpt>
      <trkpt lat="47.19525" lon="6.00981">
        <ele>499.8</ele>
        <time>2021-04-25T09:41:23Z</time>
      </trkpt>
      <trkpt lat="47.19526" lon="6.00984">
        <ele>499.4</ele>
        <time>2021-04-25T09:41:24Z</time>
      </trkpt>
      <trkpt lat="47.19527" lon="6.00986">
        <ele>499.2</ele>
        <time>2021-04-25T09:41:25Z</time>
      </trkpt>
      <trkpt lat="47.19527" lon="6.00987">
        <ele>498.8</ele>
        <time>2021-04-25T09:41:26Z</time>
      </trkpt>
      <trkpt lat="47.19527" lon="6.00989">
        <ele>498.6</ele>
        <time>2021-04-25T09:41:27Z</time>
      </trkpt>
      <trkpt lat="47.19529" lon="6.0099">
        <ele>498.4</ele>
        <time>2021-04-25T09:41:28Z</time>
      </trkpt>
      <trkpt lat="47.1953" lon="6.0099">
        <ele>497.8</ele>
        <time>2021-04-25T09:41:29Z</time>
      </trkpt>
      <trkpt lat="47.1953" lon="6.0099">
        <ele>497.4</ele>
        <time>2021-04-25T09:41:30Z</time>
      </trkpt>
      <trkpt lat="47.19531" lon="6.0099">
        <ele>497</ele>
        <time>2021-04-25T09:41:31Z</time>
      </trkpt>
      <trkpt lat="47.1953" lon="6.0099">
        <ele>496</ele>
        <time>2021-04-25T09:41:37Z</time>
      </trkpt>
      <trkpt lat="47.1953" lon="6.0099">
        <ele>496</ele>
        <time>2021-04-25T09:41:38Z</time>
      </trkpt>
      <trkpt lat="47.19531" lon="6.0099">
        <ele>495.6</ele>
        <time>2021-04-25T09:41:45Z</time>
      </trkpt>
      <trkpt lat="47.19531" lon="6.0099">
        <ele>496.4</ele>
        <time>2021-04-25T09:42:00Z</time>
      </trkpt>
      <trkpt lat="47.19534" lon="6.00989">
        <ele>495.6</ele>
        <time>2021-04-25T09:42:18Z</time>
      </trkpt>
      <trkpt lat="47.19541" lon="6.00988">
        <ele>495.6</ele>
        <time>2021-04-25T09:42:21Z</time>
      </trkpt>
      <trkpt lat="47.19548" lon="6.00985">
        <ele>495.2</ele>
        <time>2021-04-25T09:42:24Z</time>
      </trkpt>
      <trkpt lat="47.19549" lon="6.00984">
        <ele>495</ele>
        <time>2021-04-25T09:42:25Z</time>
      </trkpt>
      <trkpt lat="47.19551" lon="6.00982">
        <ele>494.8</ele>
        <time>2021-04-25T09:42:26Z</time>
      </trkpt>
      <trkpt lat="47.19552" lon="6.0098">
        <ele>494.8</ele>
        <time>2021-04-25T09:42:27Z</time>
      </trkpt>
      <trkpt lat="47.19553" lon="6.00978">
        <ele>494.6</ele>
        <time>2021-04-25T09:42:28Z</time>
      </trkpt>
      <trkpt lat="47.19555" lon="6.00974">
        <ele>494.4</ele>
        <time>2021-04-25T09:42:30Z</time>
      </trkpt>
      <trkpt lat="47.19556" lon="6.00971">
        <ele>494.2</ele>
        <time>2021-04-25T09:42:31Z</time>
      </trkpt>
      <trkpt lat="47.19556" lon="6.00968">
        <ele>494.2</ele>
        <time>2021-04-25T09:42:32Z</time>
      </trkpt>
      <trkpt lat="47.19557" lon="6.00965">
        <ele>494</ele>
        <time>2021-04-25T09:42:33Z</time>
      </trkpt>
      <trkpt lat="47.19557" lon="6.00965">
        <ele>494</ele>
        <time>2021-04-25T09:42:34Z</time>
      </trkpt>
      <trkpt lat="47.19558" lon="6.00962">
        <ele>493.4</ele>
        <time>2021-04-25T09:42:38Z</time>
      </trkpt>
      <trkpt lat="47.19558" lon="6.00962">
        <ele>492.8</ele>
        <time>2021-04-25T09:42:47Z</time>
      </trkpt>
      <trkpt lat="47.19558" lon="6.00962">
        <ele>492.8</ele>
        <time>2021-04-25T09:42:48Z</time>
      </trkpt>
      <trkpt lat="47.19558" lon="6.00962">
        <ele>492.4</ele>
        <time>2021-04-25T09:43:32Z</time>
      </trkpt>
      <trkpt lat="47.19558" lon="6.00963">
        <ele>493</ele>
        <time>2021-04-25T09:44:20Z</time>
      </trkpt>
      <trkpt lat="47.19558" lon="6.0097">
        <ele>493.8</ele>
        <time>2021-04-25T09:44:51Z</time>
      </trkpt>
      <trkpt lat="47.19558" lon="6.00974">
        <ele>494</ele>
        <time>2021-04-25T09:44:53Z</time>
      </trkpt>
      <trkpt lat="47.19557" lon="6.00979">
        <ele>494.2</ele>
        <time>2021-04-25T09:45:01Z</time>
      </trkpt>
      <trkpt lat="47.19561" lon="6.00985">
        <ele>494.2</ele>
        <time>2021-04-25T09:45:04Z</time>
      </trkpt>
      <trkpt lat="47.19564" lon="6.0099">
        <ele>494</ele>
        <time>2021-04-25T09:45:06Z</time>
      </trkpt>
      <trkpt lat="47.19573" lon="6.01005">
        <ele>493.6</ele>
        <time>2021-04-25T09:45:11Z</time>
      </trkpt>
      <trkpt lat="47.19586" lon="6.01024">
        <ele>492.8</ele>
        <time>2021-04-25T09:45:16Z</time>
      </trkpt>
      <trkpt lat="47.1959" lon="6.01029">
        <ele>492.6</ele>
        <time>2021-04-25T09:45:17Z</time>
      </trkpt>
      <trkpt lat="47.19598" lon="6.01038">
        <ele>492.4</ele>
        <time>2021-04-25T09:45:19Z</time>
      </trkpt>
      <trkpt lat="47.19603" lon="6.01042">
        <ele>492</ele>
        <time>2021-04-25T09:45:20Z</time>
      </trkpt>
      <trkpt lat="47.19607" lon="6.01046">
        <ele>491.6</ele>
        <time>2021-04-25T09:45:21Z</time>
      </trkpt>
      <trkpt lat="47.19632" lon="6.01066">
        <ele>490.4</ele>
        <time>2021-04-25T09:45:26Z</time>
      </trkpt>
      <trkpt lat="47.19647" lon="6.01082">
        <ele>489.6</ele>
        <time>2021-04-25T09:45:29Z</time>
      </trkpt>
      <trkpt lat="47.19663" lon="6.01099">
        <ele>489</ele>
        <time>2021-04-25T09:45:32Z</time>
      </trkpt>
      <trkpt lat="47.19678" lon="6.01116">
        <ele>487.6</ele>
        <time>2021-04-25T09:45:35Z</time>
      </trkpt>
      <trkpt lat="47.19693" lon="6.01133">
        <ele>487.2</ele>
        <time>2021-04-25T09:45:38Z</time>
      </trkpt>
      <trkpt lat="47.19697" lon="6.01138">
        <ele>487</ele>
        <time>2021-04-25T09:45:39Z</time>
      </trkpt>
      <trkpt lat="47.19701" lon="6.01143">
        <ele>486.8</ele>
        <time>2021-04-25T09:45:40Z</time>
      </trkpt>
      <trkpt lat="47.19705" lon="6.01147">
        <ele>486.8</ele>
        <time>2021-04-25T09:45:41Z</time>
      </trkpt>
      <trkpt lat="47.1971" lon="6.01152">
        <ele>486.8</ele>
        <time>2021-04-25T09:45:42Z</time>
      </trkpt>
      <trkpt lat="47.19714" lon="6.01157">
        <ele>486.6</ele>
        <time>2021-04-25T09:45:43Z</time>
      </trkpt>
      <trkpt lat="47.19722" lon="6.0117">
        <ele>486.6</ele>
        <time>2021-04-25T09:45:45Z</time>
      </trkpt>
      <trkpt lat="47.1973" lon="6.01189">
        <ele>486.6</ele>
        <time>2021-04-25T09:45:48Z</time>
      </trkpt>
      <trkpt lat="47.19733" lon="6.01196">
        <ele>486.6</ele>
        <time>2021-04-25T09:45:49Z</time>
      </trkpt>
      <trkpt lat="47.19738" lon="6.01214">
        <ele>486.4</ele>
        <time>2021-04-25T09:45:51Z</time>
      </trkpt>
      <trkpt lat="47.19744" lon="6.01235">
        <ele>485.8</ele>
        <time>2021-04-25T09:45:53Z</time>
      </trkpt>
      <trkpt lat="47.19751" lon="6.01251">
        <ele>485</ele>
        <time>2021-04-25T09:45:55Z</time>
      </trkpt>
      <trkpt lat="47.19756" lon="6.01258">
        <ele>484.6</ele>
        <time>2021-04-25T09:45:56Z</time>
      </trkpt>
      <trkpt lat="47.1976" lon="6.01263">
        <ele>484</ele>
        <time>2021-04-25T09:45:57Z</time>
      </trkpt>
      <trkpt lat="47.19765" lon="6.0127">
        <ele>483.6</ele>
        <time>2021-04-25T09:45:58Z</time>
      </trkpt>
      <trkpt lat="47.19769" lon="6.01276">
        <ele>483.2</ele>
        <time>2021-04-25T09:45:59Z</time>
      </trkpt>
      <trkpt lat="47.19772" lon="6.01283">
        <ele>483.2</ele>
        <time>2021-04-25T09:46:00Z</time>
      </trkpt>
      <trkpt lat="47.1978" lon="6.01296">
        <ele>483</ele>
        <time>2021-04-25T09:46:02Z</time>
      </trkpt>
      <trkpt lat="47.19784" lon="6.01302">
        <ele>482.8</ele>
        <time>2021-04-25T09:46:03Z</time>
      </trkpt>
      <trkpt lat="47.19793" lon="6.01325">
        <ele>482.6</ele>
        <time>2021-04-25T09:46:06Z</time>
      </trkpt>
      <trkpt lat="47.19801" lon="6.01352">
        <ele>481.6</ele>
        <time>2021-04-25T09:46:09Z</time>
      </trkpt>
      <trkpt lat="47.19803" lon="6.01362">
        <ele>481.6</ele>
        <time>2021-04-25T09:46:10Z</time>
      </trkpt>
      <trkpt lat="47.19805" lon="6.01373">
        <ele>480</ele>
        <time>2021-04-25T09:46:11Z</time>
      </trkpt>
      <trkpt lat="47.19809" lon="6.01396">
        <ele>478.6</ele>
        <time>2021-04-25T09:46:13Z</time>
      </trkpt>
      <trkpt lat="47.19815" lon="6.01434">
        <ele>477.6</ele>
        <time>2021-04-25T09:46:16Z</time>
      </trkpt>
      <trkpt lat="47.19817" lon="6.01447">
        <ele>476.8</ele>
        <time>2021-04-25T09:46:17Z</time>
      </trkpt>
      <trkpt lat="47.1982" lon="6.01473">
        <ele>475.8</ele>
        <time>2021-04-25T09:46:19Z</time>
      </trkpt>
      <trkpt lat="47.19821" lon="6.01485">
        <ele>474.8</ele>
        <time>2021-04-25T09:46:20Z</time>
      </trkpt>
      <trkpt lat="47.19821" lon="6.01497">
        <ele>474.4</ele>
        <time>2021-04-25T09:46:21Z</time>
      </trkpt>
      <trkpt lat="47.19821" lon="6.01508">
        <ele>472.8</ele>
        <time>2021-04-25T09:46:22Z</time>
      </trkpt>
      <trkpt lat="47.19821" lon="6.01519">
        <ele>472.4</ele>
        <time>2021-04-25T09:46:23Z</time>
      </trkpt>
      <trkpt lat="47.19822" lon="6.01529">
        <ele>471.8</ele>
        <time>2021-04-25T09:46:24Z</time>
      </trkpt>
      <trkpt lat="47.19824" lon="6.01539">
        <ele>471</ele>
        <time>2021-04-25T09:46:25Z</time>
      </trkpt>
      <trkpt lat="47.19826" lon="6.0155">
        <ele>470.6</ele>
        <time>2021-04-25T09:46:26Z</time>
      </trkpt>
      <trkpt lat="47.1983" lon="6.01561">
        <ele>470</ele>
        <time>2021-04-25T09:46:27Z</time>
      </trkpt>
      <trkpt lat="47.19834" lon="6.01571">
        <ele>469.4</ele>
        <time>2021-04-25T09:46:28Z</time>
      </trkpt>
      <trkpt lat="47.19839" lon="6.01581">
        <ele>468.4</ele>
        <time>2021-04-25T09:46:29Z</time>
      </trkpt>
      <trkpt lat="47.19849" lon="6.01601">
        <ele>466.4</ele>
        <time>2021-04-25T09:46:31Z</time>
      </trkpt>
      <trkpt lat="47.19859" lon="6.01621">
        <ele>465.4</ele>
        <time>2021-04-25T09:46:33Z</time>
      </trkpt>
      <trkpt lat="47.19868" lon="6.01642">
        <ele>464</ele>
        <time>2021-04-25T09:46:35Z</time>
      </trkpt>
      <trkpt lat="47.19877" lon="6.01664">
        <ele>462.8</ele>
        <time>2021-04-25T09:46:37Z</time>
      </trkpt>
      <trkpt lat="47.19891" lon="6.01695">
        <ele>461.2</ele>
        <time>2021-04-25T09:46:40Z</time>
      </trkpt>
      <trkpt lat="47.19908" lon="6.01738">
        <ele>460.4</ele>
        <time>2021-04-25T09:46:44Z</time>
      </trkpt>
      <trkpt lat="47.19912" lon="6.01749">
        <ele>460</ele>
        <time>2021-04-25T09:46:45Z</time>
      </trkpt>
      <trkpt lat="47.19925" lon="6.01782">
        <ele>458.8</ele>
        <time>2021-04-25T09:46:48Z</time>
      </trkpt>
      <trkpt lat="47.19934" lon="6.01803">
        <ele>458</ele>
        <time>2021-04-25T09:46:50Z</time>
      </trkpt>
      <trkpt lat="47.19937" lon="6.01812">
        <ele>457.8</ele>
        <time>2021-04-25T09:46:51Z</time>
      </trkpt>
      <trkpt lat="47.1994" lon="6.01819">
        <ele>457.2</ele>
        <time>2021-04-25T09:46:52Z</time>
      </trkpt>
      <trkpt lat="47.19943" lon="6.01827">
        <ele>457</ele>
        <time>2021-04-25T09:46:53Z</time>
      </trkpt>
      <trkpt lat="47.19946" lon="6.01834">
        <ele>456.4</ele>
        <time>2021-04-25T09:46:54Z</time>
      </trkpt>
      <trkpt lat="47.19949" lon="6.01842">
        <ele>456.4</ele>
        <time>2021-04-25T09:46:55Z</time>
      </trkpt>
      <trkpt lat="47.19952" lon="6.0185">
        <ele>456</ele>
        <time>2021-04-25T09:46:56Z</time>
      </trkpt>
      <trkpt lat="47.19955" lon="6.01857">
        <ele>455.8</ele>
        <time>2021-04-25T09:46:57Z</time>
      </trkpt>
      <trkpt lat="47.19957" lon="6.01862">
        <ele>455.8</ele>
        <time>2021-04-25T09:46:58Z</time>
      </trkpt>
      <trkpt lat="47.1996" lon="6.01866">
        <ele>455.8</ele>
        <time>2021-04-25T09:46:59Z</time>
      </trkpt>
      <trkpt lat="47.19961" lon="6.01871">
        <ele>455.6</ele>
        <time>2021-04-25T09:47:00Z</time>
      </trkpt>
      <trkpt lat="47.19963" lon="6.01877">
        <ele>455.2</ele>
        <time>2021-04-25T09:47:01Z</time>
      </trkpt>
      <trkpt lat="47.19965" lon="6.01882">
        <ele>455</ele>
        <time>2021-04-25T09:47:02Z</time>
      </trkpt>
      <trkpt lat="47.19973" lon="6.0189">
        <ele>454.4</ele>
        <time>2021-04-25T09:47:04Z</time>
      </trkpt>
      <trkpt lat="47.19978" lon="6.01893">
        <ele>454.2</ele>
        <time>2021-04-25T09:47:05Z</time>
      </trkpt>
      <trkpt lat="47.19982" lon="6.01898">
        <ele>454</ele>
        <time>2021-04-25T09:47:06Z</time>
      </trkpt>
      <trkpt lat="47.19995" lon="6.01913">
        <ele>453.4</ele>
        <time>2021-04-25T09:47:09Z</time>
      </trkpt>
      <trkpt lat="47.19999" lon="6.01917">
        <ele>453.2</ele>
        <time>2021-04-25T09:47:10Z</time>
      </trkpt>
      <trkpt lat="47.20002" lon="6.0192">
        <ele>453</ele>
        <time>2021-04-25T09:47:11Z</time>
      </trkpt>
      <trkpt lat="47.20006" lon="6.01923">
        <ele>453</ele>
        <time>2021-04-25T09:47:12Z</time>
      </trkpt>
      <trkpt lat="47.2001" lon="6.01926">
        <ele>452.8</ele>
        <time>2021-04-25T09:47:13Z</time>
      </trkpt>
      <trkpt lat="47.20017" lon="6.01932">
        <ele>452.8</ele>
        <time>2021-04-25T09:47:15Z</time>
      </trkpt>
      <trkpt lat="47.20021" lon="6.01934">
        <ele>452.8</ele>
        <time>2021-04-25T09:47:16Z</time>
      </trkpt>
      <trkpt lat="47.20032" lon="6.01939">
        <ele>453</ele>
        <time>2021-04-25T09:47:18Z</time>
      </trkpt>
      <trkpt lat="47.20036" lon="6.01941">
        <ele>453</ele>
        <time>2021-04-25T09:47:19Z</time>
      </trkpt>
      <trkpt lat="47.20051" lon="6.01949">
        <ele>453</ele>
        <time>2021-04-25T09:47:21Z</time>
      </trkpt>
      <trkpt lat="47.20055" lon="6.01953">
        <ele>453.2</ele>
        <time>2021-04-25T09:47:22Z</time>
      </trkpt>
      <trkpt lat="47.20058" lon="6.01956">
        <ele>453.2</ele>
        <time>2021-04-25T09:47:23Z</time>
      </trkpt>
      <trkpt lat="47.20065" lon="6.01964">
        <ele>453.4</ele>
        <time>2021-04-25T09:47:25Z</time>
      </trkpt>
      <trkpt lat="47.20068" lon="6.01968">
        <ele>453.4</ele>
        <time>2021-04-25T09:47:26Z</time>
      </trkpt>
      <trkpt lat="47.2007" lon="6.01972">
        <ele>453.4</ele>
        <time>2021-04-25T09:47:27Z</time>
      </trkpt>
      <trkpt lat="47.20073" lon="6.01975">
        <ele>453.4</ele>
        <time>2021-04-25T09:47:28Z</time>
      </trkpt>
      <trkpt lat="47.20077" lon="6.01978">
        <ele>453.4</ele>
        <time>2021-04-25T09:47:29Z</time>
      </trkpt>
      <trkpt lat="47.20084" lon="6.01983">
        <ele>453.4</ele>
        <time>2021-04-25T09:47:30Z</time>
      </trkpt>
      <trkpt lat="47.2009" lon="6.01988">
        <ele>453.4</ele>
        <time>2021-04-25T09:47:31Z</time>
      </trkpt>
      <trkpt lat="47.20096" lon="6.01996">
        <ele>453.2</ele>
        <time>2021-04-25T09:47:33Z</time>
      </trkpt>
      <trkpt lat="47.20112" lon="6.02007">
        <ele>452.4</ele>
        <time>2021-04-25T09:47:36Z</time>
      </trkpt>
      <trkpt lat="47.20122" lon="6.02012">
        <ele>452</ele>
        <time>2021-04-25T09:47:37Z</time>
      </trkpt>
      <trkpt lat="47.20131" lon="6.02018">
        <ele>451.8</ele>
        <time>2021-04-25T09:47:38Z</time>
      </trkpt>
      <trkpt lat="47.20154" lon="6.02038">
        <ele>451</ele>
        <time>2021-04-25T09:47:41Z</time>
      </trkpt>
      <trkpt lat="47.20161" lon="6.02043">
        <ele>450.6</ele>
        <time>2021-04-25T09:47:42Z</time>
      </trkpt>
      <trkpt lat="47.20165" lon="6.02048">
        <ele>450.4</ele>
        <time>2021-04-25T09:47:43Z</time>
      </trkpt>
      <trkpt lat="47.20169" lon="6.02053">
        <ele>450</ele>
        <time>2021-04-25T09:47:44Z</time>
      </trkpt>
      <trkpt lat="47.20174" lon="6.02058">
        <ele>449.8</ele>
        <time>2021-04-25T09:47:45Z</time>
      </trkpt>
      <trkpt lat="47.20178" lon="6.02063">
        <ele>449.6</ele>
        <time>2021-04-25T09:47:46Z</time>
      </trkpt>
      <trkpt lat="47.20185" lon="6.02069">
        <ele>449.2</ele>
        <time>2021-04-25T09:47:47Z</time>
      </trkpt>
      <trkpt lat="47.20203" lon="6.02087">
        <ele>449</ele>
        <time>2021-04-25T09:47:50Z</time>
      </trkpt>
      <trkpt lat="47.20212" lon="6.02096">
        <ele>448.6</ele>
        <time>2021-04-25T09:47:52Z</time>
      </trkpt>
      <trkpt lat="47.20216" lon="6.02099">
        <ele>448.6</ele>
        <time>2021-04-25T09:47:53Z</time>
      </trkpt>
      <trkpt lat="47.2022" lon="6.02103">
        <ele>448</ele>
        <time>2021-04-25T09:47:54Z</time>
      </trkpt>
      <trkpt lat="47.20226" lon="6.02108">
        <ele>447.8</ele>
        <time>2021-04-25T09:47:55Z</time>
      </trkpt>
      <trkpt lat="47.20232" lon="6.02115">
        <ele>447.2</ele>
        <time>2021-04-25T09:47:56Z</time>
      </trkpt>
      <trkpt lat="47.2025" lon="6.0213">
        <ele>445.8</ele>
        <time>2021-04-25T09:47:59Z</time>
      </trkpt>
      <trkpt lat="47.20256" lon="6.02136">
        <ele>445.6</ele>
        <time>2021-04-25T09:48:00Z</time>
      </trkpt>
      <trkpt lat="47.20262" lon="6.02141">
        <ele>445</ele>
        <time>2021-04-25T09:48:01Z</time>
      </trkpt>
      <trkpt lat="47.20268" lon="6.02146">
        <ele>444.8</ele>
        <time>2021-04-25T09:48:02Z</time>
      </trkpt>
      <trkpt lat="47.20284" lon="6.02155">
        <ele>443.6</ele>
        <time>2021-04-25T09:48:04Z</time>
      </trkpt>
      <trkpt lat="47.20293" lon="6.02158">
        <ele>442.6</ele>
        <time>2021-04-25T09:48:05Z</time>
      </trkpt>
      <trkpt lat="47.20302" lon="6.02162">
        <ele>441.6</ele>
        <time>2021-04-25T09:48:06Z</time>
      </trkpt>
      <trkpt lat="47.20311" lon="6.02168">
        <ele>441.4</ele>
        <time>2021-04-25T09:48:07Z</time>
      </trkpt>
      <trkpt lat="47.20333" lon="6.02179">
        <ele>440</ele>
        <time>2021-04-25T09:48:09Z</time>
      </trkpt>
      <trkpt lat="47.20342" lon="6.02184">
        <ele>439.4</ele>
        <time>2021-04-25T09:48:10Z</time>
      </trkpt>
      <trkpt lat="47.20352" lon="6.02189">
        <ele>439</ele>
        <time>2021-04-25T09:48:11Z</time>
      </trkpt>
      <trkpt lat="47.20374" lon="6.02196">
        <ele>437.8</ele>
        <time>2021-04-25T09:48:13Z</time>
      </trkpt>
      <trkpt lat="47.20387" lon="6.02199">
        <ele>437</ele>
        <time>2021-04-25T09:48:14Z</time>
      </trkpt>
      <trkpt lat="47.20396" lon="6.02201">
        <ele>435.8</ele>
        <time>2021-04-25T09:48:15Z</time>
      </trkpt>
      <trkpt lat="47.20402" lon="6.02203">
        <ele>435.6</ele>
        <time>2021-04-25T09:48:16Z</time>
      </trkpt>
      <trkpt lat="47.20406" lon="6.02205">
        <ele>434.8</ele>
        <time>2021-04-25T09:48:17Z</time>
      </trkpt>
      <trkpt lat="47.20411" lon="6.02207">
        <ele>434.4</ele>
        <time>2021-04-25T09:48:18Z</time>
      </trkpt>
      <trkpt lat="47.20416" lon="6.02209">
        <ele>434</ele>
        <time>2021-04-25T09:48:19Z</time>
      </trkpt>
      <trkpt lat="47.20427" lon="6.02215">
        <ele>433.4</ele>
        <time>2021-04-25T09:48:21Z</time>
      </trkpt>
      <trkpt lat="47.20439" lon="6.0222">
        <ele>432.6</ele>
        <time>2021-04-25T09:48:23Z</time>
      </trkpt>
      <trkpt lat="47.20445" lon="6.02224">
        <ele>432</ele>
        <time>2021-04-25T09:48:24Z</time>
      </trkpt>
      <trkpt lat="47.20457" lon="6.0223">
        <ele>431.4</ele>
        <time>2021-04-25T09:48:26Z</time>
      </trkpt>
      <trkpt lat="47.20469" lon="6.02238">
        <ele>430.6</ele>
        <time>2021-04-25T09:48:28Z</time>
      </trkpt>
      <trkpt lat="47.20474" lon="6.02241">
        <ele>430.6</ele>
        <time>2021-04-25T09:48:29Z</time>
      </trkpt>
      <trkpt lat="47.2048" lon="6.02244">
        <ele>430</ele>
        <time>2021-04-25T09:48:30Z</time>
      </trkpt>
      <trkpt lat="47.20484" lon="6.02246">
        <ele>429.4</ele>
        <time>2021-04-25T09:48:31Z</time>
      </trkpt>
      <trkpt lat="47.20488" lon="6.02246">
        <ele>428.8</ele>
        <time>2021-04-25T09:48:32Z</time>
      </trkpt>
      <trkpt lat="47.2049" lon="6.02244">
        <ele>428</ele>
        <time>2021-04-25T09:48:33Z</time>
      </trkpt>
      <trkpt lat="47.20492" lon="6.0224">
        <ele>427.8</ele>
        <time>2021-04-25T09:48:34Z</time>
      </trkpt>
      <trkpt lat="47.20493" lon="6.02234">
        <ele>427.4</ele>
        <time>2021-04-25T09:48:35Z</time>
      </trkpt>
      <trkpt lat="47.20491" lon="6.02229">
        <ele>427</ele>
        <time>2021-04-25T09:48:36Z</time>
      </trkpt>
      <trkpt lat="47.20489" lon="6.02223">
        <ele>426.6</ele>
        <time>2021-04-25T09:48:37Z</time>
      </trkpt>
      <trkpt lat="47.20483" lon="6.02213">
        <ele>426.2</ele>
        <time>2021-04-25T09:48:39Z</time>
      </trkpt>
      <trkpt lat="47.20479" lon="6.02208">
        <ele>426</ele>
        <time>2021-04-25T09:48:40Z</time>
      </trkpt>
      <trkpt lat="47.20471" lon="6.02195">
        <ele>425.4</ele>
        <time>2021-04-25T09:48:42Z</time>
      </trkpt>
      <trkpt lat="47.20458" lon="6.02175">
        <ele>424</ele>
        <time>2021-04-25T09:48:45Z</time>
      </trkpt>
      <trkpt lat="47.20439" lon="6.02143">
        <ele>422.6</ele>
        <time>2021-04-25T09:48:49Z</time>
      </trkpt>
      <trkpt lat="47.20428" lon="6.02125">
        <ele>422</ele>
        <time>2021-04-25T09:48:51Z</time>
      </trkpt>
      <trkpt lat="47.20417" lon="6.02107">
        <ele>421.4</ele>
        <time>2021-04-25T09:48:53Z</time>
      </trkpt>
      <trkpt lat="47.20405" lon="6.02088">
        <ele>420</ele>
        <time>2021-04-25T09:48:55Z</time>
      </trkpt>
      <trkpt lat="47.20394" lon="6.02069">
        <ele>419</ele>
        <time>2021-04-25T09:48:57Z</time>
      </trkpt>
      <trkpt lat="47.20389" lon="6.02061">
        <ele>418.2</ele>
        <time>2021-04-25T09:48:58Z</time>
      </trkpt>
      <trkpt lat="47.20378" lon="6.02043">
        <ele>417.6</ele>
        <time>2021-04-25T09:49:00Z</time>
      </trkpt>
      <trkpt lat="47.20365" lon="6.02026">
        <ele>416.4</ele>
        <time>2021-04-25T09:49:02Z</time>
      </trkpt>
      <trkpt lat="47.20353" lon="6.02008">
        <ele>415.4</ele>
        <time>2021-04-25T09:49:04Z</time>
      </trkpt>
      <trkpt lat="47.2034" lon="6.01992">
        <ele>414</ele>
        <time>2021-04-25T09:49:06Z</time>
      </trkpt>
      <trkpt lat="47.20327" lon="6.01975">
        <ele>412.4</ele>
        <time>2021-04-25T09:49:08Z</time>
      </trkpt>
      <trkpt lat="47.20314" lon="6.01959">
        <ele>411</ele>
        <time>2021-04-25T09:49:10Z</time>
      </trkpt>
      <trkpt lat="47.20301" lon="6.01943">
        <ele>409.6</ele>
        <time>2021-04-25T09:49:12Z</time>
      </trkpt>
      <trkpt lat="47.20295" lon="6.01935">
        <ele>409.4</ele>
        <time>2021-04-25T09:49:13Z</time>
      </trkpt>
      <trkpt lat="47.2029" lon="6.01927">
        <ele>408.6</ele>
        <time>2021-04-25T09:49:14Z</time>
      </trkpt>
      <trkpt lat="47.20285" lon="6.01919">
        <ele>408.2</ele>
        <time>2021-04-25T09:49:15Z</time>
      </trkpt>
      <trkpt lat="47.2028" lon="6.01912">
        <ele>407.2</ele>
        <time>2021-04-25T09:49:16Z</time>
      </trkpt>
      <trkpt lat="47.20276" lon="6.01906">
        <ele>407</ele>
        <time>2021-04-25T09:49:17Z</time>
      </trkpt>
      <trkpt lat="47.20273" lon="6.019">
        <ele>406</ele>
        <time>2021-04-25T09:49:18Z</time>
      </trkpt>
      <trkpt lat="47.20271" lon="6.01895">
        <ele>405.6</ele>
        <time>2021-04-25T09:49:19Z</time>
      </trkpt>
      <trkpt lat="47.20271" lon="6.0189">
        <ele>405.4</ele>
        <time>2021-04-25T09:49:20Z</time>
      </trkpt>
      <trkpt lat="47.20272" lon="6.01884">
        <ele>405.2</ele>
        <time>2021-04-25T09:49:21Z</time>
      </trkpt>
      <trkpt lat="47.20277" lon="6.01872">
        <ele>405</ele>
        <time>2021-04-25T09:49:23Z</time>
      </trkpt>
      <trkpt lat="47.2028" lon="6.01867">
        <ele>404.8</ele>
        <time>2021-04-25T09:49:24Z</time>
      </trkpt>
      <trkpt lat="47.20283" lon="6.01862">
        <ele>404.6</ele>
        <time>2021-04-25T09:49:25Z</time>
      </trkpt>
      <trkpt lat="47.20284" lon="6.01858">
        <ele>404.2</ele>
        <time>2021-04-25T09:49:26Z</time>
      </trkpt>
      <trkpt lat="47.20285" lon="6.01855">
        <ele>403.6</ele>
        <time>2021-04-25T09:49:27Z</time>
      </trkpt>
      <trkpt lat="47.20286" lon="6.01853">
        <ele>402.6</ele>
        <time>2021-04-25T09:49:28Z</time>
      </trkpt>
      <trkpt lat="47.20287" lon="6.01852">
        <ele>402.2</ele>
        <time>2021-04-25T09:49:29Z</time>
      </trkpt>
      <trkpt lat="47.20288" lon="6.0185">
        <ele>400.6</ele>
        <time>2021-04-25T09:49:30Z</time>
      </trkpt>
      <trkpt lat="47.20289" lon="6.0185">
        <ele>400.2</ele>
        <time>2021-04-25T09:49:31Z</time>
      </trkpt>
      <trkpt lat="47.20291" lon="6.01849">
        <ele>399.2</ele>
        <time>2021-04-25T09:49:32Z</time>
      </trkpt>
      <trkpt lat="47.20297" lon="6.01849">
        <ele>398</ele>
        <time>2021-04-25T09:49:34Z</time>
      </trkpt>
      <trkpt lat="47.203" lon="6.0185">
        <ele>397.4</ele>
        <time>2021-04-25T09:49:35Z</time>
      </trkpt>
      <trkpt lat="47.20307" lon="6.01852">
        <ele>396.8</ele>
        <time>2021-04-25T09:49:37Z</time>
      </trkpt>
      <trkpt lat="47.20328" lon="6.0186">
        <ele>396</ele>
        <time>2021-04-25T09:49:42Z</time>
      </trkpt>
      <trkpt lat="47.20333" lon="6.01861">
        <ele>395.8</ele>
        <time>2021-04-25T09:49:43Z</time>
      </trkpt>
      <trkpt lat="47.20355" lon="6.01867">
        <ele>394.8</ele>
        <time>2021-04-25T09:49:47Z</time>
      </trkpt>
      <trkpt lat="47.20361" lon="6.01869">
        <ele>394.2</ele>
        <time>2021-04-25T09:49:48Z</time>
      </trkpt>
      <trkpt lat="47.20374" lon="6.01873">
        <ele>393.6</ele>
        <time>2021-04-25T09:49:50Z</time>
      </trkpt>
      <trkpt lat="47.20395" lon="6.01878">
        <ele>392.6</ele>
        <time>2021-04-25T09:49:53Z</time>
      </trkpt>
      <trkpt lat="47.2041" lon="6.01883">
        <ele>391.4</ele>
        <time>2021-04-25T09:49:55Z</time>
      </trkpt>
      <trkpt lat="47.20424" lon="6.0189">
        <ele>389.6</ele>
        <time>2021-04-25T09:49:57Z</time>
      </trkpt>
      <trkpt lat="47.20431" lon="6.01893">
        <ele>389.2</ele>
        <time>2021-04-25T09:49:58Z</time>
      </trkpt>
      <trkpt lat="47.20437" lon="6.01896">
        <ele>388.6</ele>
        <time>2021-04-25T09:49:59Z</time>
      </trkpt>
      <trkpt lat="47.20442" lon="6.019">
        <ele>388.4</ele>
        <time>2021-04-25T09:50:00Z</time>
      </trkpt>
      <trkpt lat="47.20447" lon="6.01902">
        <ele>388.2</ele>
        <time>2021-04-25T09:50:01Z</time>
      </trkpt>
      <trkpt lat="47.20452" lon="6.01902">
        <ele>387.8</ele>
        <time>2021-04-25T09:50:02Z</time>
      </trkpt>
      <trkpt lat="47.20457" lon="6.01899">
        <ele>387.4</ele>
        <time>2021-04-25T09:50:03Z</time>
      </trkpt>
      <trkpt lat="47.20462" lon="6.01895">
        <ele>386.8</ele>
        <time>2021-04-25T09:50:04Z</time>
      </trkpt>
      <trkpt lat="47.20468" lon="6.01891">
        <ele>386.6</ele>
        <time>2021-04-25T09:50:05Z</time>
      </trkpt>
      <trkpt lat="47.20474" lon="6.01887">
        <ele>386.2</ele>
        <time>2021-04-25T09:50:06Z</time>
      </trkpt>
      <trkpt lat="47.20492" lon="6.01877">
        <ele>384.6</ele>
        <time>2021-04-25T09:50:09Z</time>
      </trkpt>
      <trkpt lat="47.20502" lon="6.01871">
        <ele>383.8</ele>
        <time>2021-04-25T09:50:11Z</time>
      </trkpt>
      <trkpt lat="47.20506" lon="6.0187">
        <ele>383.6</ele>
        <time>2021-04-25T09:50:12Z</time>
      </trkpt>
      <trkpt lat="47.20511" lon="6.01869">
        <ele>383.2</ele>
        <time>2021-04-25T09:50:13Z</time>
      </trkpt>
      <trkpt lat="47.20516" lon="6.01868">
        <ele>382.6</ele>
        <time>2021-04-25T09:50:14Z</time>
      </trkpt>
      <trkpt lat="47.2052" lon="6.01869">
        <ele>382</ele>
        <time>2021-04-25T09:50:15Z</time>
      </trkpt>
      <trkpt lat="47.20524" lon="6.01871">
        <ele>381.2</ele>
        <time>2021-04-25T09:50:16Z</time>
      </trkpt>
      <trkpt lat="47.20527" lon="6.01873">
        <ele>381</ele>
        <time>2021-04-25T09:50:17Z</time>
      </trkpt>
      <trkpt lat="47.2053" lon="6.01877">
        <ele>380.6</ele>
        <time>2021-04-25T09:50:18Z</time>
      </trkpt>
      <trkpt lat="47.20534" lon="6.0188">
        <ele>380.6</ele>
        <time>2021-04-25T09:50:19Z</time>
      </trkpt>
      <trkpt lat="47.20536" lon="6.01882">
        <ele>379.6</ele>
        <time>2021-04-25T09:50:20Z</time>
      </trkpt>
      <trkpt lat="47.20539" lon="6.01885">
        <ele>379.2</ele>
        <time>2021-04-25T09:50:21Z</time>
      </trkpt>
      <trkpt lat="47.2054" lon="6.01888">
        <ele>379</ele>
        <time>2021-04-25T09:50:22Z</time>
      </trkpt>
      <trkpt lat="47.20542" lon="6.0189">
        <ele>378.8</ele>
        <time>2021-04-25T09:50:23Z</time>
      </trkpt>
      <trkpt lat="47.20544" lon="6.01892">
        <ele>378.6</ele>
        <time>2021-04-25T09:50:24Z</time>
      </trkpt>
      <trkpt lat="47.20545" lon="6.01894">
        <ele>378.6</ele>
        <time>2021-04-25T09:50:25Z</time>
      </trkpt>
      <trkpt lat="47.20545" lon="6.01897">
        <ele>378.6</ele>
        <time>2021-04-25T09:50:26Z</time>
      </trkpt>
      <trkpt lat="47.20546" lon="6.01899">
        <ele>378.6</ele>
        <time>2021-04-25T09:50:27Z</time>
      </trkpt>
      <trkpt lat="47.20547" lon="6.01902">
        <ele>378.6</ele>
        <time>2021-04-25T09:50:28Z</time>
      </trkpt>
      <trkpt lat="47.20548" lon="6.01904">
        <ele>378.6</ele>
        <time>2021-04-25T09:50:29Z</time>
      </trkpt>
      <trkpt lat="47.20549" lon="6.01906">
        <ele>378.4</ele>
        <time>2021-04-25T09:50:30Z</time>
      </trkpt>
      <trkpt lat="47.20549" lon="6.01908">
        <ele>378.4</ele>
        <time>2021-04-25T09:50:31Z</time>
      </trkpt>
      <trkpt lat="47.2055" lon="6.0191">
        <ele>378.2</ele>
        <time>2021-04-25T09:50:32Z</time>
      </trkpt>
      <trkpt lat="47.20552" lon="6.01912">
        <ele>378.2</ele>
        <time>2021-04-25T09:50:33Z</time>
      </trkpt>
      <trkpt lat="47.20554" lon="6.01915">
        <ele>378</ele>
        <time>2021-04-25T09:50:34Z</time>
      </trkpt>
      <trkpt lat="47.20555" lon="6.01915">
        <ele>378</ele>
        <time>2021-04-25T09:50:35Z</time>
      </trkpt>
      <trkpt lat="47.20556" lon="6.01915">
        <ele>377.8</ele>
        <time>2021-04-25T09:50:36Z</time>
      </trkpt>
      <trkpt lat="47.20557" lon="6.01914">
        <ele>377.8</ele>
        <time>2021-04-25T09:50:37Z</time>
      </trkpt>
      <trkpt lat="47.20558" lon="6.01914">
        <ele>377.6</ele>
        <time>2021-04-25T09:50:38Z</time>
      </trkpt>
      <trkpt lat="47.20559" lon="6.01913">
        <ele>377.4</ele>
        <time>2021-04-25T09:50:39Z</time>
      </trkpt>
      <trkpt lat="47.20559" lon="6.01912">
        <ele>377</ele>
        <time>2021-04-25T09:50:40Z</time>
      </trkpt>
      <trkpt lat="47.20559" lon="6.01912">
        <ele>377</ele>
        <time>2021-04-25T09:50:41Z</time>
      </trkpt>
      <trkpt lat="47.20559" lon="6.01912">
        <ele>376.4</ele>
        <time>2021-04-25T09:50:43Z</time>
      </trkpt>
      <trkpt lat="47.20559" lon="6.01909">
        <ele>376</ele>
        <time>2021-04-25T09:50:47Z</time>
      </trkpt>
      <trkpt lat="47.20559" lon="6.01905">
        <ele>376</ele>
        <time>2021-04-25T09:50:48Z</time>
      </trkpt>
      <trkpt lat="47.20559" lon="6.0188">
        <ele>375.6</ele>
        <time>2021-04-25T09:50:53Z</time>
      </trkpt>
      <trkpt lat="47.20558" lon="6.01872">
        <ele>375</ele>
        <time>2021-04-25T09:50:54Z</time>
      </trkpt>
      <trkpt lat="47.20557" lon="6.01856">
        <ele>373.8</ele>
        <time>2021-04-25T09:50:56Z</time>
      </trkpt>
      <trkpt lat="47.20556" lon="6.01847">
        <ele>373.2</ele>
        <time>2021-04-25T09:50:57Z</time>
      </trkpt>
      <trkpt lat="47.20555" lon="6.01829">
        <ele>372.8</ele>
        <time>2021-04-25T09:50:59Z</time>
      </trkpt>
      <trkpt lat="47.20554" lon="6.01804">
        <ele>371.8</ele>
        <time>2021-04-25T09:51:02Z</time>
      </trkpt>
      <trkpt lat="47.20551" lon="6.01796">
        <ele>371.4</ele>
        <time>2021-04-25T09:51:03Z</time>
      </trkpt>
      <trkpt lat="47.20549" lon="6.01788">
        <ele>371</ele>
        <time>2021-04-25T09:51:04Z</time>
      </trkpt>
      <trkpt lat="47.20548" lon="6.0178">
        <ele>370.6</ele>
        <time>2021-04-25T09:51:05Z</time>
      </trkpt>
      <trkpt lat="47.20547" lon="6.01771">
        <ele>370</ele>
        <time>2021-04-25T09:51:06Z</time>
      </trkpt>
      <trkpt lat="47.20546" lon="6.01764">
        <ele>369.8</ele>
        <time>2021-04-25T09:51:07Z</time>
      </trkpt>
      <trkpt lat="47.20546" lon="6.01755">
        <ele>369.2</ele>
        <time>2021-04-25T09:51:08Z</time>
      </trkpt>
      <trkpt lat="47.20546" lon="6.0175">
        <ele>369</ele>
        <time>2021-04-25T09:51:09Z</time>
      </trkpt>
      <trkpt lat="47.20545" lon="6.01744">
        <ele>368.4</ele>
        <time>2021-04-25T09:51:10Z</time>
      </trkpt>
      <trkpt lat="47.20542" lon="6.01739">
        <ele>367.8</ele>
        <time>2021-04-25T09:51:11Z</time>
      </trkpt>
      <trkpt lat="47.2054" lon="6.01732">
        <ele>367.4</ele>
        <time>2021-04-25T09:51:12Z</time>
      </trkpt>
      <trkpt lat="47.20538" lon="6.01726">
        <ele>366.8</ele>
        <time>2021-04-25T09:51:13Z</time>
      </trkpt>
      <trkpt lat="47.20535" lon="6.0172">
        <ele>366.6</ele>
        <time>2021-04-25T09:51:14Z</time>
      </trkpt>
      <trkpt lat="47.20533" lon="6.01716">
        <ele>366</ele>
        <time>2021-04-25T09:51:15Z</time>
      </trkpt>
      <trkpt lat="47.20531" lon="6.01713">
        <ele>365.8</ele>
        <time>2021-04-25T09:51:16Z</time>
      </trkpt>
      <trkpt lat="47.2053" lon="6.0171">
        <ele>365</ele>
        <time>2021-04-25T09:51:17Z</time>
      </trkpt>
      <trkpt lat="47.20528" lon="6.01708">
        <ele>364.4</ele>
        <time>2021-04-25T09:51:18Z</time>
      </trkpt>
      <trkpt lat="47.20527" lon="6.01707">
        <ele>363.8</ele>
        <time>2021-04-25T09:51:19Z</time>
      </trkpt>
      <trkpt lat="47.20526" lon="6.01706">
        <ele>363.6</ele>
        <time>2021-04-25T09:51:20Z</time>
      </trkpt>
      <trkpt lat="47.20525" lon="6.01705">
        <ele>363.6</ele>
        <time>2021-04-25T09:51:21Z</time>
      </trkpt>
      <trkpt lat="47.20525" lon="6.01703">
        <ele>363.4</ele>
        <time>2021-04-25T09:51:22Z</time>
      </trkpt>
      <trkpt lat="47.20524" lon="6.01702">
        <ele>363.4</ele>
        <time>2021-04-25T09:51:23Z</time>
      </trkpt>
      <trkpt lat="47.20524" lon="6.01701">
        <ele>363.4</ele>
        <time>2021-04-25T09:51:24Z</time>
      </trkpt>
      <trkpt lat="47.20523" lon="6.01696">
        <ele>363.2</ele>
        <time>2021-04-25T09:51:26Z</time>
      </trkpt>
      <trkpt lat="47.20523" lon="6.01694">
        <ele>363</ele>
        <time>2021-04-25T09:51:27Z</time>
      </trkpt>
      <trkpt lat="47.20523" lon="6.01693">
        <ele>363</ele>
        <time>2021-04-25T09:51:28Z</time>
      </trkpt>
      <trkpt lat="47.20524" lon="6.01691">
        <ele>362.8</ele>
        <time>2021-04-25T09:51:29Z</time>
      </trkpt>
      <trkpt lat="47.20528" lon="6.01689">
        <ele>362.6</ele>
        <time>2021-04-25T09:51:32Z</time>
      </trkpt>
      <trkpt lat="47.20529" lon="6.01687">
        <ele>362.4</ele>
        <time>2021-04-25T09:51:33Z</time>
      </trkpt>
      <trkpt lat="47.2053" lon="6.01686">
        <ele>362.4</ele>
        <time>2021-04-25T09:51:34Z</time>
      </trkpt>
      <trkpt lat="47.20532" lon="6.01684">
        <ele>362.2</ele>
        <time>2021-04-25T09:51:35Z</time>
      </trkpt>
      <trkpt lat="47.20532" lon="6.01681">
        <ele>361.8</ele>
        <time>2021-04-25T09:51:36Z</time>
      </trkpt>
      <trkpt lat="47.20533" lon="6.01679">
        <ele>361.6</ele>
        <time>2021-04-25T09:51:37Z</time>
      </trkpt>
      <trkpt lat="47.20534" lon="6.01676">
        <ele>361.2</ele>
        <time>2021-04-25T09:51:38Z</time>
      </trkpt>
      <trkpt lat="47.20534" lon="6.01674">
        <ele>361</ele>
        <time>2021-04-25T09:51:39Z</time>
      </trkpt>
      <trkpt lat="47.20534" lon="6.01674">
        <ele>360.6</ele>
        <time>2021-04-25T09:51:40Z</time>
      </trkpt>
      <trkpt lat="47.20534" lon="6.01674">
        <ele>360.4</ele>
        <time>2021-04-25T09:51:41Z</time>
      </trkpt>
      <trkpt lat="47.20534" lon="6.01674">
        <ele>359.8</ele>
        <time>2021-04-25T09:51:43Z</time>
      </trkpt>
      <trkpt lat="47.20534" lon="6.01674">
        <ele>359.2</ele>
        <time>2021-04-25T09:51:46Z</time>
      </trkpt>
      <trkpt lat="47.20534" lon="6.01669">
        <ele>358.8</ele>
        <time>2021-04-25T09:51:49Z</time>
      </trkpt>
      <trkpt lat="47.20536" lon="6.01665">
        <ele>358.6</ele>
        <time>2021-04-25T09:51:52Z</time>
      </trkpt>
      <trkpt lat="47.20536" lon="6.01665">
        <ele>358.6</ele>
        <time>2021-04-25T09:51:53Z</time>
      </trkpt>
      <trkpt lat="47.20538" lon="6.01661">
        <ele>357.6</ele>
        <time>2021-04-25T09:51:59Z</time>
      </trkpt>
      <trkpt lat="47.20539" lon="6.01661">
        <ele>357.4</ele>
        <time>2021-04-25T09:52:00Z</time>
      </trkpt>
      <trkpt lat="47.20539" lon="6.01661">
        <ele>356.4</ele>
        <time>2021-04-25T09:52:02Z</time>
      </trkpt>
      <trkpt lat="47.20539" lon="6.01661">
        <ele>355.8</ele>
        <time>2021-04-25T09:52:04Z</time>
      </trkpt>
      <trkpt lat="47.20539" lon="6.01661">
        <ele>355.2</ele>
        <time>2021-04-25T09:52:07Z</time>
      </trkpt>
      <trkpt lat="47.20539" lon="6.01661">
        <ele>355.2</ele>
        <time>2021-04-25T09:52:08Z</time>
      </trkpt>
      <trkpt lat="47.2054" lon="6.0166">
        <ele>354.8</ele>
        <time>2021-04-25T09:52:14Z</time>
      </trkpt>
      <trkpt lat="47.2054" lon="6.01661">
        <ele>354.8</ele>
        <time>2021-04-25T09:52:15Z</time>
      </trkpt>
      <trkpt lat="47.20542" lon="6.01663">
        <ele>354.8</ele>
        <time>2021-04-25T09:52:16Z</time>
      </trkpt>
      <trkpt lat="47.20544" lon="6.01665">
        <ele>354.8</ele>
        <time>2021-04-25T09:52:17Z</time>
      </trkpt>
      <trkpt lat="47.20558" lon="6.01684">
        <ele>354.6</ele>
        <time>2021-04-25T09:52:22Z</time>
      </trkpt>
      <trkpt lat="47.2056" lon="6.01688">
        <ele>354</ele>
        <time>2021-04-25T09:52:23Z</time>
      </trkpt>
      <trkpt lat="47.20562" lon="6.01691">
        <ele>353.8</ele>
        <time>2021-04-25T09:52:24Z</time>
      </trkpt>
      <trkpt lat="47.20564" lon="6.01695">
        <ele>353</ele>
        <time>2021-04-25T09:52:25Z</time>
      </trkpt>
      <trkpt lat="47.2057" lon="6.01708">
        <ele>352.2</ele>
        <time>2021-04-25T09:52:28Z</time>
      </trkpt>
      <trkpt lat="47.20572" lon="6.01712">
        <ele>352.2</ele>
        <time>2021-04-25T09:52:29Z</time>
      </trkpt>
      <trkpt lat="47.20575" lon="6.01717">
        <ele>352</ele>
        <time>2021-04-25T09:52:30Z</time>
      </trkpt>
      <trkpt lat="47.20578" lon="6.01725">
        <ele>351.8</ele>
        <time>2021-04-25T09:52:31Z</time>
      </trkpt>
      <trkpt lat="47.20582" lon="6.01734">
        <ele>351.6</ele>
        <time>2021-04-25T09:52:32Z</time>
      </trkpt>
      <trkpt lat="47.20587" lon="6.01748">
        <ele>350.6</ele>
        <time>2021-04-25T09:52:34Z</time>
      </trkpt>
      <trkpt lat="47.20589" lon="6.01755">
        <ele>350</ele>
        <time>2021-04-25T09:52:35Z</time>
      </trkpt>
      <trkpt lat="47.20593" lon="6.01761">
        <ele>349.8</ele>
        <time>2021-04-25T09:52:36Z</time>
      </trkpt>
      <trkpt lat="47.20598" lon="6.01764">
        <ele>349.2</ele>
        <time>2021-04-25T09:52:37Z</time>
      </trkpt>
      <trkpt lat="47.206" lon="6.01766">
        <ele>349</ele>
        <time>2021-04-25T09:52:38Z</time>
      </trkpt>
      <trkpt lat="47.20601" lon="6.01767">
        <ele>348.6</ele>
        <time>2021-04-25T09:52:39Z</time>
      </trkpt>
      <trkpt lat="47.20602" lon="6.01768">
        <ele>348.4</ele>
        <time>2021-04-25T09:52:40Z</time>
      </trkpt>
      <trkpt lat="47.20603" lon="6.01766">
        <ele>348</ele>
        <time>2021-04-25T09:52:41Z</time>
      </trkpt>
      <trkpt lat="47.20604" lon="6.01763">
        <ele>347</ele>
        <time>2021-04-25T09:52:42Z</time>
      </trkpt>
      <trkpt lat="47.20605" lon="6.01761">
        <ele>346.6</ele>
        <time>2021-04-25T09:52:43Z</time>
      </trkpt>
      <trkpt lat="47.20606" lon="6.01759">
        <ele>346.2</ele>
        <time>2021-04-25T09:52:44Z</time>
      </trkpt>
      <trkpt lat="47.20606" lon="6.01757">
        <ele>346</ele>
        <time>2021-04-25T09:52:45Z</time>
      </trkpt>
      <trkpt lat="47.20605" lon="6.01755">
        <ele>345.8</ele>
        <time>2021-04-25T09:52:46Z</time>
      </trkpt>
      <trkpt lat="47.20605" lon="6.01754">
        <ele>345.4</ele>
        <time>2021-04-25T09:52:47Z</time>
      </trkpt>
      <trkpt lat="47.20604" lon="6.01751">
        <ele>345</ele>
        <time>2021-04-25T09:52:48Z</time>
      </trkpt>
      <trkpt lat="47.20603" lon="6.01748">
        <ele>344.8</ele>
        <time>2021-04-25T09:52:49Z</time>
      </trkpt>
      <trkpt lat="47.20603" lon="6.01746">
        <ele>344.6</ele>
        <time>2021-04-25T09:52:50Z</time>
      </trkpt>
      <trkpt lat="47.20604" lon="6.01743">
        <ele>344.4</ele>
        <time>2021-04-25T09:52:51Z</time>
      </trkpt>
      <trkpt lat="47.20604" lon="6.0174">
        <ele>344.4</ele>
        <time>2021-04-25T09:52:52Z</time>
      </trkpt>
      <trkpt lat="47.20606" lon="6.01715">
        <ele>343.8</ele>
        <time>2021-04-25T09:52:56Z</time>
      </trkpt>
      <trkpt lat="47.20605" lon="6.01706">
        <ele>343.6</ele>
        <time>2021-04-25T09:52:57Z</time>
      </trkpt>
      <trkpt lat="47.20605" lon="6.01697">
        <ele>343.2</ele>
        <time>2021-04-25T09:52:58Z</time>
      </trkpt>
      <trkpt lat="47.20605" lon="6.0169">
        <ele>342.6</ele>
        <time>2021-04-25T09:52:59Z</time>
      </trkpt>
      <trkpt lat="47.20604" lon="6.01684">
        <ele>341.8</ele>
        <time>2021-04-25T09:53:00Z</time>
      </trkpt>
      <trkpt lat="47.20603" lon="6.01678">
        <ele>341.6</ele>
        <time>2021-04-25T09:53:01Z</time>
      </trkpt>
      <trkpt lat="47.20603" lon="6.01673">
        <ele>341.2</ele>
        <time>2021-04-25T09:53:02Z</time>
      </trkpt>
      <trkpt lat="47.20602" lon="6.0167">
        <ele>341</ele>
        <time>2021-04-25T09:53:03Z</time>
      </trkpt>
      <trkpt lat="47.20601" lon="6.01666">
        <ele>340.6</ele>
        <time>2021-04-25T09:53:04Z</time>
      </trkpt>
      <trkpt lat="47.20601" lon="6.01662">
        <ele>340.4</ele>
        <time>2021-04-25T09:53:05Z</time>
      </trkpt>
      <trkpt lat="47.20601" lon="6.01658">
        <ele>340.2</ele>
        <time>2021-04-25T09:53:06Z</time>
      </trkpt>
      <trkpt lat="47.206" lon="6.01643">
        <ele>339.4</ele>
        <time>2021-04-25T09:53:09Z</time>
      </trkpt>
      <trkpt lat="47.20599" lon="6.01636">
        <ele>339.4</ele>
        <time>2021-04-25T09:53:10Z</time>
      </trkpt>
      <trkpt lat="47.20598" lon="6.01627">
        <ele>339</ele>
        <time>2021-04-25T09:53:11Z</time>
      </trkpt>
      <trkpt lat="47.20595" lon="6.01614">
        <ele>338.6</ele>
        <time>2021-04-25T09:53:13Z</time>
      </trkpt>
      <trkpt lat="47.20593" lon="6.0161">
        <ele>338.2</ele>
        <time>2021-04-25T09:53:14Z</time>
      </trkpt>
      <trkpt lat="47.20593" lon="6.01606">
        <ele>337.8</ele>
        <time>2021-04-25T09:53:15Z</time>
      </trkpt>
      <trkpt lat="47.20593" lon="6.01604">
        <ele>337.2</ele>
        <time>2021-04-25T09:53:16Z</time>
      </trkpt>
      <trkpt lat="47.20593" lon="6.01604">
        <ele>337.2</ele>
        <time>2021-04-25T09:53:17Z</time>
      </trkpt>
      <trkpt lat="47.20593" lon="6.01604">
        <ele>336.4</ele>
        <time>2021-04-25T09:53:18Z</time>
      </trkpt>
      <trkpt lat="47.20593" lon="6.01604">
        <ele>335.4</ele>
        <time>2021-04-25T09:53:23Z</time>
      </trkpt>
      <trkpt lat="47.20593" lon="6.01604">
        <ele>335.2</ele>
        <time>2021-04-25T09:53:24Z</time>
      </trkpt>
      <trkpt lat="47.20593" lon="6.01604">
        <ele>335.2</ele>
        <time>2021-04-25T09:53:25Z</time>
      </trkpt>
      <trkpt lat="47.2059" lon="6.01599">
        <ele>334.4</ele>
        <time>2021-04-25T09:53:38Z</time>
      </trkpt>
      <trkpt lat="47.20583" lon="6.01587">
        <ele>334.4</ele>
        <time>2021-04-25T09:53:41Z</time>
      </trkpt>
      <trkpt lat="47.20581" lon="6.01581">
        <ele>334.2</ele>
        <time>2021-04-25T09:53:42Z</time>
      </trkpt>
      <trkpt lat="47.20567" lon="6.01554">
        <ele>333.6</ele>
        <time>2021-04-25T09:53:46Z</time>
      </trkpt>
      <trkpt lat="47.20557" lon="6.01538">
        <ele>332.8</ele>
        <time>2021-04-25T09:53:48Z</time>
      </trkpt>
      <trkpt lat="47.20546" lon="6.01523">
        <ele>332.2</ele>
        <time>2021-04-25T09:53:50Z</time>
      </trkpt>
      <trkpt lat="47.20536" lon="6.0151">
        <ele>331.2</ele>
        <time>2021-04-25T09:53:52Z</time>
      </trkpt>
      <trkpt lat="47.20532" lon="6.01506">
        <ele>330</ele>
        <time>2021-04-25T09:53:53Z</time>
      </trkpt>
      <trkpt lat="47.20527" lon="6.01502">
        <ele>329.8</ele>
        <time>2021-04-25T09:53:54Z</time>
      </trkpt>
      <trkpt lat="47.20521" lon="6.01498">
        <ele>329</ele>
        <time>2021-04-25T09:53:55Z</time>
      </trkpt>
      <trkpt lat="47.20506" lon="6.01488">
        <ele>328</ele>
        <time>2021-04-25T09:53:58Z</time>
      </trkpt>
      <trkpt lat="47.20503" lon="6.01484">
        <ele>327.2</ele>
        <time>2021-04-25T09:53:59Z</time>
      </trkpt>
      <trkpt lat="47.20502" lon="6.01478">
        <ele>326.8</ele>
        <time>2021-04-25T09:54:00Z</time>
      </trkpt>
      <trkpt lat="47.20502" lon="6.01472">
        <ele>326.2</ele>
        <time>2021-04-25T09:54:01Z</time>
      </trkpt>
      <trkpt lat="47.20503" lon="6.01465">
        <ele>325.6</ele>
        <time>2021-04-25T09:54:02Z</time>
      </trkpt>
      <trkpt lat="47.20504" lon="6.01457">
        <ele>325.2</ele>
        <time>2021-04-25T09:54:03Z</time>
      </trkpt>
      <trkpt lat="47.20506" lon="6.01448">
        <ele>324.8</ele>
        <time>2021-04-25T09:54:04Z</time>
      </trkpt>
      <trkpt lat="47.20507" lon="6.01439">
        <ele>324.4</ele>
        <time>2021-04-25T09:54:05Z</time>
      </trkpt>
      <trkpt lat="47.20509" lon="6.01429">
        <ele>324</ele>
        <time>2021-04-25T09:54:06Z</time>
      </trkpt>
      <trkpt lat="47.20514" lon="6.01409">
        <ele>322.8</ele>
        <time>2021-04-25T09:54:08Z</time>
      </trkpt>
      <trkpt lat="47.20522" lon="6.01376">
        <ele>321.2</ele>
        <time>2021-04-25T09:54:11Z</time>
      </trkpt>
      <trkpt lat="47.20525" lon="6.01366">
        <ele>320.8</ele>
        <time>2021-04-25T09:54:12Z</time>
      </trkpt>
      <trkpt lat="47.20528" lon="6.01356">
        <ele>320.2</ele>
        <time>2021-04-25T09:54:13Z</time>
      </trkpt>
      <trkpt lat="47.20531" lon="6.01347">
        <ele>319.8</ele>
        <time>2021-04-25T09:54:14Z</time>
      </trkpt>
      <trkpt lat="47.20533" lon="6.01338">
        <ele>319</ele>
        <time>2021-04-25T09:54:15Z</time>
      </trkpt>
      <trkpt lat="47.20536" lon="6.01331">
        <ele>318.6</ele>
        <time>2021-04-25T09:54:16Z</time>
      </trkpt>
      <trkpt lat="47.20538" lon="6.01326">
        <ele>317.8</ele>
        <time>2021-04-25T09:54:17Z</time>
      </trkpt>
      <trkpt lat="47.20539" lon="6.01321">
        <ele>317.4</ele>
        <time>2021-04-25T09:54:18Z</time>
      </trkpt>
      <trkpt lat="47.20541" lon="6.01317">
        <ele>317.2</ele>
        <time>2021-04-25T09:54:19Z</time>
      </trkpt>
      <trkpt lat="47.20542" lon="6.01311">
        <ele>317</ele>
        <time>2021-04-25T09:54:20Z</time>
      </trkpt>
      <trkpt lat="47.20543" lon="6.01306">
        <ele>317</ele>
        <time>2021-04-25T09:54:21Z</time>
      </trkpt>
      <trkpt lat="47.20543" lon="6.01302">
        <ele>316.8</ele>
        <time>2021-04-25T09:54:22Z</time>
      </trkpt>
      <trkpt lat="47.20543" lon="6.01297">
        <ele>316.6</ele>
        <time>2021-04-25T09:54:23Z</time>
      </trkpt>
      <trkpt lat="47.20542" lon="6.01291">
        <ele>316.6</ele>
        <time>2021-04-25T09:54:24Z</time>
      </trkpt>
      <trkpt lat="47.20542" lon="6.01285">
        <ele>316.4</ele>
        <time>2021-04-25T09:54:25Z</time>
      </trkpt>
      <trkpt lat="47.20543" lon="6.0128">
        <ele>316.4</ele>
        <time>2021-04-25T09:54:26Z</time>
      </trkpt>
      <trkpt lat="47.20544" lon="6.01275">
        <ele>316.4</ele>
        <time>2021-04-25T09:54:27Z</time>
      </trkpt>
      <trkpt lat="47.20546" lon="6.01269">
        <ele>316.4</ele>
        <time>2021-04-25T09:54:28Z</time>
      </trkpt>
      <trkpt lat="47.20548" lon="6.01264">
        <ele>316.2</ele>
        <time>2021-04-25T09:54:29Z</time>
      </trkpt>
      <trkpt lat="47.20551" lon="6.0126">
        <ele>316.2</ele>
        <time>2021-04-25T09:54:30Z</time>
      </trkpt>
      <trkpt lat="47.20554" lon="6.01255">
        <ele>316</ele>
        <time>2021-04-25T09:54:31Z</time>
      </trkpt>
      <trkpt lat="47.20567" lon="6.01233">
        <ele>315.8</ele>
        <time>2021-04-25T09:54:35Z</time>
      </trkpt>
      <trkpt lat="47.20571" lon="6.01219">
        <ele>315.6</ele>
        <time>2021-04-25T09:54:37Z</time>
      </trkpt>
      <trkpt lat="47.20572" lon="6.01213">
        <ele>315.2</ele>
        <time>2021-04-25T09:54:38Z</time>
      </trkpt>
      <trkpt lat="47.20571" lon="6.01207">
        <ele>315.2</ele>
        <time>2021-04-25T09:54:39Z</time>
      </trkpt>
      <trkpt lat="47.20572" lon="6.01201">
        <ele>314.6</ele>
        <time>2021-04-25T09:54:40Z</time>
      </trkpt>
      <trkpt lat="47.20573" lon="6.01193">
        <ele>314.4</ele>
        <time>2021-04-25T09:54:41Z</time>
      </trkpt>
      <trkpt lat="47.20574" lon="6.01186">
        <ele>314</ele>
        <time>2021-04-25T09:54:42Z</time>
      </trkpt>
      <trkpt lat="47.20574" lon="6.01177">
        <ele>313.2</ele>
        <time>2021-04-25T09:54:43Z</time>
      </trkpt>
      <trkpt lat="47.20574" lon="6.01167">
        <ele>312.6</ele>
        <time>2021-04-25T09:54:44Z</time>
      </trkpt>
      <trkpt lat="47.20572" lon="6.01145">
        <ele>311.2</ele>
        <time>2021-04-25T09:54:46Z</time>
      </trkpt>
      <trkpt lat="47.20571" lon="6.01135">
        <ele>310.6</ele>
        <time>2021-04-25T09:54:47Z</time>
      </trkpt>
      <trkpt lat="47.2057" lon="6.01126">
        <ele>310.2</ele>
        <time>2021-04-25T09:54:48Z</time>
      </trkpt>
      <trkpt lat="47.20569" lon="6.01118">
        <ele>309.6</ele>
        <time>2021-04-25T09:54:49Z</time>
      </trkpt>
      <trkpt lat="47.20568" lon="6.0111">
        <ele>308.6</ele>
        <time>2021-04-25T09:54:50Z</time>
      </trkpt>
      <trkpt lat="47.20568" lon="6.01102">
        <ele>308.2</ele>
        <time>2021-04-25T09:54:51Z</time>
      </trkpt>
      <trkpt lat="47.20569" lon="6.01093">
        <ele>307.4</ele>
        <time>2021-04-25T09:54:52Z</time>
      </trkpt>
      <trkpt lat="47.20572" lon="6.01083">
        <ele>307</ele>
        <time>2021-04-25T09:54:53Z</time>
      </trkpt>
      <trkpt lat="47.20575" lon="6.01072">
        <ele>306.6</ele>
        <time>2021-04-25T09:54:54Z</time>
      </trkpt>
      <trkpt lat="47.2058" lon="6.01053">
        <ele>305.4</ele>
        <time>2021-04-25T09:54:56Z</time>
      </trkpt>
      <trkpt lat="47.20582" lon="6.01046">
        <ele>305.2</ele>
        <time>2021-04-25T09:54:57Z</time>
      </trkpt>
      <trkpt lat="47.20584" lon="6.0104">
        <ele>304</ele>
        <time>2021-04-25T09:54:58Z</time>
      </trkpt>
      <trkpt lat="47.20585" lon="6.01033">
        <ele>303.2</ele>
        <time>2021-04-25T09:54:59Z</time>
      </trkpt>
      <trkpt lat="47.20585" lon="6.01027">
        <ele>302.6</ele>
        <time>2021-04-25T09:55:00Z</time>
      </trkpt>
      <trkpt lat="47.20585" lon="6.01021">
        <ele>301.8</ele>
        <time>2021-04-25T09:55:01Z</time>
      </trkpt>
      <trkpt lat="47.20585" lon="6.01014">
        <ele>301.6</ele>
        <time>2021-04-25T09:55:02Z</time>
      </trkpt>
      <trkpt lat="47.20586" lon="6.01008">
        <ele>301.2</ele>
        <time>2021-04-25T09:55:03Z</time>
      </trkpt>
      <trkpt lat="47.20589" lon="6.00993">
        <ele>300</ele>
        <time>2021-04-25T09:55:05Z</time>
      </trkpt>
      <trkpt lat="47.20595" lon="6.00969">
        <ele>299.2</ele>
        <time>2021-04-25T09:55:08Z</time>
      </trkpt>
      <trkpt lat="47.20598" lon="6.0096">
        <ele>299</ele>
        <time>2021-04-25T09:55:09Z</time>
      </trkpt>
      <trkpt lat="47.20606" lon="6.0094">
        <ele>297.8</ele>
        <time>2021-04-25T09:55:11Z</time>
      </trkpt>
      <trkpt lat="47.20611" lon="6.0093">
        <ele>297</ele>
        <time>2021-04-25T09:55:12Z</time>
      </trkpt>
      <trkpt lat="47.20616" lon="6.0092">
        <ele>296.4</ele>
        <time>2021-04-25T09:55:13Z</time>
      </trkpt>
      <trkpt lat="47.20628" lon="6.00897">
        <ele>294.6</ele>
        <time>2021-04-25T09:55:15Z</time>
      </trkpt>
      <trkpt lat="47.2064" lon="6.00873">
        <ele>293</ele>
        <time>2021-04-25T09:55:17Z</time>
      </trkpt>
      <trkpt lat="47.20652" lon="6.00849">
        <ele>292</ele>
        <time>2021-04-25T09:55:19Z</time>
      </trkpt>
      <trkpt lat="47.20659" lon="6.00834">
        <ele>291.4</ele>
        <time>2021-04-25T09:55:20Z</time>
      </trkpt>
      <trkpt lat="47.20664" lon="6.00823">
        <ele>289.8</ele>
        <time>2021-04-25T09:55:21Z</time>
      </trkpt>
      <trkpt lat="47.20669" lon="6.00812">
        <ele>288</ele>
        <time>2021-04-25T09:55:22Z</time>
      </trkpt>
      <trkpt lat="47.20674" lon="6.00801">
        <ele>287.4</ele>
        <time>2021-04-25T09:55:23Z</time>
      </trkpt>
      <trkpt lat="47.20678" lon="6.00791">
        <ele>286</ele>
        <time>2021-04-25T09:55:24Z</time>
      </trkpt>
      <trkpt lat="47.20682" lon="6.00781">
        <ele>285.4</ele>
        <time>2021-04-25T09:55:25Z</time>
      </trkpt>
      <trkpt lat="47.20686" lon="6.00772">
        <ele>284</ele>
        <time>2021-04-25T09:55:26Z</time>
      </trkpt>
      <trkpt lat="47.2069" lon="6.00763">
        <ele>283.2</ele>
        <time>2021-04-25T09:55:27Z</time>
      </trkpt>
      <trkpt lat="47.20693" lon="6.00758">
        <ele>282</ele>
        <time>2021-04-25T09:55:28Z</time>
      </trkpt>
      <trkpt lat="47.20696" lon="6.00753">
        <ele>281.6</ele>
        <time>2021-04-25T09:55:29Z</time>
      </trkpt>
      <trkpt lat="47.20698" lon="6.00747">
        <ele>280.6</ele>
        <time>2021-04-25T09:55:30Z</time>
      </trkpt>
      <trkpt lat="47.207" lon="6.0074">
        <ele>279.8</ele>
        <time>2021-04-25T09:55:31Z</time>
      </trkpt>
      <trkpt lat="47.20702" lon="6.00733">
        <ele>279.4</ele>
        <time>2021-04-25T09:55:32Z</time>
      </trkpt>
      <trkpt lat="47.20707" lon="6.00716">
        <ele>278.4</ele>
        <time>2021-04-25T09:55:34Z</time>
      </trkpt>
      <trkpt lat="47.20711" lon="6.00698">
        <ele>277.4</ele>
        <time>2021-04-25T09:55:36Z</time>
      </trkpt>
      <trkpt lat="47.20713" lon="6.0069">
        <ele>277</ele>
        <time>2021-04-25T09:55:37Z</time>
      </trkpt>
      <trkpt lat="47.20714" lon="6.00684">
        <ele>276.4</ele>
        <time>2021-04-25T09:55:38Z</time>
      </trkpt>
      <trkpt lat="47.20715" lon="6.00679">
        <ele>276.2</ele>
        <time>2021-04-25T09:55:39Z</time>
      </trkpt>
      <trkpt lat="47.20716" lon="6.00673">
        <ele>275</ele>
        <time>2021-04-25T09:55:40Z</time>
      </trkpt>
      <trkpt lat="47.20717" lon="6.00668">
        <ele>274.6</ele>
        <time>2021-04-25T09:55:41Z</time>
      </trkpt>
      <trkpt lat="47.20719" lon="6.00663">
        <ele>274.2</ele>
        <time>2021-04-25T09:55:42Z</time>
      </trkpt>
      <trkpt lat="47.20719" lon="6.00659">
        <ele>273.6</ele>
        <time>2021-04-25T09:55:43Z</time>
      </trkpt>
      <trkpt lat="47.20721" lon="6.00646">
        <ele>272.6</ele>
        <time>2021-04-25T09:55:45Z</time>
      </trkpt>
      <trkpt lat="47.20721" lon="6.00639">
        <ele>272.4</ele>
        <time>2021-04-25T09:55:46Z</time>
      </trkpt>
      <trkpt lat="47.20722" lon="6.00621">
        <ele>271.4</ele>
        <time>2021-04-25T09:55:48Z</time>
      </trkpt>
      <trkpt lat="47.20721" lon="6.00613">
        <ele>271.2</ele>
        <time>2021-04-25T09:55:49Z</time>
      </trkpt>
      <trkpt lat="47.20721" lon="6.00603">
        <ele>270.8</ele>
        <time>2021-04-25T09:55:50Z</time>
      </trkpt>
      <trkpt lat="47.20719" lon="6.0059">
        <ele>269.8</ele>
        <time>2021-04-25T09:55:51Z</time>
      </trkpt>
      <trkpt lat="47.20716" lon="6.0057">
        <ele>268.6</ele>
        <time>2021-04-25T09:55:53Z</time>
      </trkpt>
      <trkpt lat="47.20713" lon="6.00551">
        <ele>267.8</ele>
        <time>2021-04-25T09:55:55Z</time>
      </trkpt>
      <trkpt lat="47.20711" lon="6.00544">
        <ele>266.8</ele>
        <time>2021-04-25T09:55:56Z</time>
      </trkpt>
      <trkpt lat="47.20709" lon="6.00538">
        <ele>266.2</ele>
        <time>2021-04-25T09:55:57Z</time>
      </trkpt>
      <trkpt lat="47.20707" lon="6.00534">
        <ele>265.2</ele>
        <time>2021-04-25T09:55:58Z</time>
      </trkpt>
      <trkpt lat="47.20704" lon="6.0053">
        <ele>264.6</ele>
        <time>2021-04-25T09:55:59Z</time>
      </trkpt>
      <trkpt lat="47.20701" lon="6.00524">
        <ele>264</ele>
        <time>2021-04-25T09:56:00Z</time>
      </trkpt>
      <trkpt lat="47.20695" lon="6.00514">
        <ele>263.4</ele>
        <time>2021-04-25T09:56:02Z</time>
      </trkpt>
      <trkpt lat="47.20693" lon="6.0051">
        <ele>263</ele>
        <time>2021-04-25T09:56:03Z</time>
      </trkpt>
      <trkpt lat="47.20693" lon="6.00506">
        <ele>262.6</ele>
        <time>2021-04-25T09:56:04Z</time>
      </trkpt>
      <trkpt lat="47.20694" lon="6.00502">
        <ele>262</ele>
        <time>2021-04-25T09:56:05Z</time>
      </trkpt>
      <trkpt lat="47.20696" lon="6.00499">
        <ele>261.8</ele>
        <time>2021-04-25T09:56:06Z</time>
      </trkpt>
      <trkpt lat="47.20697" lon="6.00495">
        <ele>261.6</ele>
        <time>2021-04-25T09:56:07Z</time>
      </trkpt>
      <trkpt lat="47.20698" lon="6.00492">
        <ele>261.4</ele>
        <time>2021-04-25T09:56:08Z</time>
      </trkpt>
      <trkpt lat="47.20699" lon="6.00488">
        <ele>261.2</ele>
        <time>2021-04-25T09:56:09Z</time>
      </trkpt>
      <trkpt lat="47.20699" lon="6.00486">
        <ele>261</ele>
        <time>2021-04-25T09:56:10Z</time>
      </trkpt>
      <trkpt lat="47.20699" lon="6.00482">
        <ele>261</ele>
        <time>2021-04-25T09:56:11Z</time>
      </trkpt>
      <trkpt lat="47.20698" lon="6.00479">
        <ele>261</ele>
        <time>2021-04-25T09:56:12Z</time>
      </trkpt>
      <trkpt lat="47.20698" lon="6.00476">
        <ele>261</ele>
        <time>2021-04-25T09:56:13Z</time>
      </trkpt>
      <trkpt lat="47.20698" lon="6.00475">
        <ele>261</ele>
        <time>2021-04-25T09:56:14Z</time>
      </trkpt>
      <trkpt lat="47.20702" lon="6.00447">
        <ele>261</ele>
        <time>2021-04-25T09:56:19Z</time>
      </trkpt>
      <trkpt lat="47.20706" lon="6.00431">
        <ele>260.8</ele>
        <time>2021-04-25T09:56:21Z</time>
      </trkpt>
      <trkpt lat="47.20711" lon="6.00411">
        <ele>260.2</ele>
        <time>2021-04-25T09:56:23Z</time>
      </trkpt>
      <trkpt lat="47.20714" lon="6.00403">
        <ele>259.8</ele>
        <time>2021-04-25T09:56:24Z</time>
      </trkpt>
      <trkpt lat="47.20715" lon="6.00397">
        <ele>259.4</ele>
        <time>2021-04-25T09:56:25Z</time>
      </trkpt>
      <trkpt lat="47.20717" lon="6.00391">
        <ele>259</ele>
        <time>2021-04-25T09:56:26Z</time>
      </trkpt>
      <trkpt lat="47.20719" lon="6.00387">
        <ele>258.6</ele>
        <time>2021-04-25T09:56:27Z</time>
      </trkpt>
      <trkpt lat="47.2072" lon="6.00384">
        <ele>258</ele>
        <time>2021-04-25T09:56:28Z</time>
      </trkpt>
      <trkpt lat="47.20722" lon="6.00382">
        <ele>257.8</ele>
        <time>2021-04-25T09:56:29Z</time>
      </trkpt>
      <trkpt lat="47.20722" lon="6.00382">
        <ele>257.2</ele>
        <time>2021-04-25T09:56:30Z</time>
      </trkpt>
      <trkpt lat="47.20722" lon="6.00381">
        <ele>257</ele>
        <time>2021-04-25T09:56:31Z</time>
      </trkpt>
      <trkpt lat="47.20724" lon="6.0038">
        <ele>256.8</ele>
        <time>2021-04-25T09:56:32Z</time>
      </trkpt>
      <trkpt lat="47.20725" lon="6.0038">
        <ele>256.6</ele>
        <time>2021-04-25T09:56:33Z</time>
      </trkpt>
      <trkpt lat="47.20728" lon="6.00381">
        <ele>256.6</ele>
        <time>2021-04-25T09:56:34Z</time>
      </trkpt>
      <trkpt lat="47.20739" lon="6.00378">
        <ele>256.4</ele>
        <time>2021-04-25T09:56:38Z</time>
      </trkpt>
      <trkpt lat="47.20751" lon="6.00368">
        <ele>256.4</ele>
        <time>2021-04-25T09:56:41Z</time>
      </trkpt>
      <trkpt lat="47.20753" lon="6.00364">
        <ele>256.4</ele>
        <time>2021-04-25T09:56:42Z</time>
      </trkpt>
      <trkpt lat="47.20755" lon="6.0036">
        <ele>256.4</ele>
        <time>2021-04-25T09:56:43Z</time>
      </trkpt>
      <trkpt lat="47.20757" lon="6.00358">
        <ele>256.6</ele>
        <time>2021-04-25T09:56:44Z</time>
      </trkpt>
      <trkpt lat="47.20764" lon="6.00353">
        <ele>256.6</ele>
        <time>2021-04-25T09:56:46Z</time>
      </trkpt>
      <trkpt lat="47.20768" lon="6.00351">
        <ele>256.6</ele>
        <time>2021-04-25T09:56:47Z</time>
      </trkpt>
      <trkpt lat="47.20785" lon="6.0034">
        <ele>256.4</ele>
        <time>2021-04-25T09:56:51Z</time>
      </trkpt>
      <trkpt lat="47.2079" lon="6.00338">
        <ele>256.2</ele>
        <time>2021-04-25T09:56:52Z</time>
      </trkpt>
      <trkpt lat="47.208" lon="6.00334">
        <ele>255.8</ele>
        <time>2021-04-25T09:56:54Z</time>
      </trkpt>
      <trkpt lat="47.20804" lon="6.00333">
        <ele>255.2</ele>
        <time>2021-04-25T09:56:55Z</time>
      </trkpt>
      <trkpt lat="47.20807" lon="6.00331">
        <ele>254.6</ele>
        <time>2021-04-25T09:56:56Z</time>
      </trkpt>
      <trkpt lat="47.20811" lon="6.0033">
        <ele>254.4</ele>
        <time>2021-04-25T09:56:57Z</time>
      </trkpt>
      <trkpt lat="47.20815" lon="6.00328">
        <ele>254.2</ele>
        <time>2021-04-25T09:56:58Z</time>
      </trkpt>
      <trkpt lat="47.20818" lon="6.00326">
        <ele>254</ele>
        <time>2021-04-25T09:56:59Z</time>
      </trkpt>
      <trkpt lat="47.20821" lon="6.00324">
        <ele>254</ele>
        <time>2021-04-25T09:57:00Z</time>
      </trkpt>
      <trkpt lat="47.20823" lon="6.00323">
        <ele>253.8</ele>
        <time>2021-04-25T09:57:01Z</time>
      </trkpt>
      <trkpt lat="47.20825" lon="6.00322">
        <ele>253.8</ele>
        <time>2021-04-25T09:57:02Z</time>
      </trkpt>
      <trkpt lat="47.20828" lon="6.0032">
        <ele>253.8</ele>
        <time>2021-04-25T09:57:03Z</time>
      </trkpt>
      <trkpt lat="47.20833" lon="6.00317">
        <ele>253.6</ele>
        <time>2021-04-25T09:57:05Z</time>
      </trkpt>
      <trkpt lat="47.20835" lon="6.00316">
        <ele>253.6</ele>
        <time>2021-04-25T09:57:06Z</time>
      </trkpt>
      <trkpt lat="47.20838" lon="6.00314">
        <ele>253.6</ele>
        <time>2021-04-25T09:57:07Z</time>
      </trkpt>
      <trkpt lat="47.20841" lon="6.00312">
        <ele>253.8</ele>
        <time>2021-04-25T09:57:08Z</time>
      </trkpt>
      <trkpt lat="47.20854" lon="6.00301">
        <ele>253.8</ele>
        <time>2021-04-25T09:57:13Z</time>
      </trkpt>
      <trkpt lat="47.20868" lon="6.0029">
        <ele>253.4</ele>
        <time>2021-04-25T09:57:17Z</time>
      </trkpt>
      <trkpt lat="47.20876" lon="6.00284">
        <ele>253.2</ele>
        <time>2021-04-25T09:57:19Z</time>
      </trkpt>
      <trkpt lat="47.20879" lon="6.00281">
        <ele>253</ele>
        <time>2021-04-25T09:57:20Z</time>
      </trkpt>
      <trkpt lat="47.209" lon="6.00264">
        <ele>252</ele>
        <time>2021-04-25T09:57:26Z</time>
      </trkpt>
      <trkpt lat="47.20908" lon="6.00257">
        <ele>251.6</ele>
        <time>2021-04-25T09:57:28Z</time>
      </trkpt>
      <trkpt lat="47.20933" lon="6.00228">
        <ele>251</ele>
        <time>2021-04-25T09:57:35Z</time>
      </trkpt>
      <trkpt lat="47.20947" lon="6.00208">
        <ele>250.8</ele>
        <time>2021-04-25T09:57:39Z</time>
      </trkpt>
      <trkpt lat="47.20961" lon="6.00186">
        <ele>250.6</ele>
        <time>2021-04-25T09:57:44Z</time>
      </trkpt>
      <trkpt lat="47.20967" lon="6.00177">
        <ele>250.4</ele>
        <time>2021-04-25T09:57:46Z</time>
      </trkpt>
      <trkpt lat="47.20969" lon="6.00174">
        <ele>250.4</ele>
        <time>2021-04-25T09:57:47Z</time>
      </trkpt>
      <trkpt lat="47.20972" lon="6.0017">
        <ele>250.4</ele>
        <time>2021-04-25T09:57:48Z</time>
      </trkpt>
      <trkpt lat="47.20974" lon="6.00165">
        <ele>250.4</ele>
        <time>2021-04-25T09:57:49Z</time>
      </trkpt>
      <trkpt lat="47.20977" lon="6.00161">
        <ele>250.2</ele>
        <time>2021-04-25T09:57:50Z</time>
      </trkpt>
      <trkpt lat="47.20979" lon="6.00157">
        <ele>250.2</ele>
        <time>2021-04-25T09:57:51Z</time>
      </trkpt>
      <trkpt lat="47.20981" lon="6.00154">
        <ele>250.2</ele>
        <time>2021-04-25T09:57:52Z</time>
      </trkpt>
      <trkpt lat="47.20984" lon="6.00149">
        <ele>250.2</ele>
        <time>2021-04-25T09:57:53Z</time>
      </trkpt>
      <trkpt lat="47.20999" lon="6.00127">
        <ele>250</ele>
        <time>2021-04-25T09:57:58Z</time>
      </trkpt>
      <trkpt lat="47.2101" lon="6.00116">
        <ele>250</ele>
        <time>2021-04-25T09:58:01Z</time>
      </trkpt>
      <trkpt lat="47.21019" lon="6.0011">
        <ele>250</ele>
        <time>2021-04-25T09:58:04Z</time>
      </trkpt>
      <trkpt lat="47.21023" lon="6.00108">
        <ele>250.2</ele>
        <time>2021-04-25T09:58:05Z</time>
      </trkpt>
      <trkpt lat="47.21026" lon="6.00106">
        <ele>250.2</ele>
        <time>2021-04-25T09:58:06Z</time>
      </trkpt>
      <trkpt lat="47.21029" lon="6.00104">
        <ele>250.4</ele>
        <time>2021-04-25T09:58:07Z</time>
      </trkpt>
      <trkpt lat="47.21034" lon="6.00103">
        <ele>250.6</ele>
        <time>2021-04-25T09:58:09Z</time>
      </trkpt>
      <trkpt lat="47.21036" lon="6.00102">
        <ele>250.6</ele>
        <time>2021-04-25T09:58:10Z</time>
      </trkpt>
      <trkpt lat="47.21037" lon="6.00101">
        <ele>250.8</ele>
        <time>2021-04-25T09:58:11Z</time>
      </trkpt>
      <trkpt lat="47.21038" lon="6.001">
        <ele>250.8</ele>
        <time>2021-04-25T09:58:12Z</time>
      </trkpt>
      <trkpt lat="47.21038" lon="6.00099">
        <ele>251</ele>
        <time>2021-04-25T09:58:13Z</time>
      </trkpt>
      <trkpt lat="47.2104" lon="6.00097">
        <ele>251</ele>
        <time>2021-04-25T09:58:14Z</time>
      </trkpt>
      <trkpt lat="47.21049" lon="6.00093">
        <ele>251.2</ele>
        <time>2021-04-25T09:58:18Z</time>
      </trkpt>
      <trkpt lat="47.21052" lon="6.00092">
        <ele>251.2</ele>
        <time>2021-04-25T09:58:19Z</time>
      </trkpt>
      <trkpt lat="47.21058" lon="6.00092">
        <ele>251.2</ele>
        <time>2021-04-25T09:58:21Z</time>
      </trkpt>
      <trkpt lat="47.2106" lon="6.00091">
        <ele>251.2</ele>
        <time>2021-04-25T09:58:22Z</time>
      </trkpt>
      <trkpt lat="47.2106" lon="6.00089">
        <ele>251.2</ele>
        <time>2021-04-25T09:58:23Z</time>
      </trkpt>
      <trkpt lat="47.2106" lon="6.00087">
        <ele>251.2</ele>
        <time>2021-04-25T09:58:24Z</time>
      </trkpt>
      <trkpt lat="47.21059" lon="6.00085">
        <ele>251.2</ele>
        <time>2021-04-25T09:58:25Z</time>
      </trkpt>
      <trkpt lat="47.21057" lon="6.00083">
        <ele>251.2</ele>
        <time>2021-04-25T09:58:26Z</time>
      </trkpt>
      <trkpt lat="47.21054" lon="6.00082">
        <ele>251</ele>
        <time>2021-04-25T09:58:27Z</time>
      </trkpt>
      <trkpt lat="47.21053" lon="6.0008">
        <ele>251</ele>
        <time>2021-04-25T09:58:28Z</time>
      </trkpt>
      <trkpt lat="47.21047" lon="6.00072">
        <ele>250.8</ele>
        <time>2021-04-25T09:58:30Z</time>
      </trkpt>
      <trkpt lat="47.21043" lon="6.00068">
        <ele>250.6</ele>
        <time>2021-04-25T09:58:31Z</time>
      </trkpt>
      <trkpt lat="47.2104" lon="6.00063">
        <ele>250.6</ele>
        <time>2021-04-25T09:58:32Z</time>
      </trkpt>
      <trkpt lat="47.21034" lon="6.00052">
        <ele>250.4</ele>
        <time>2021-04-25T09:58:34Z</time>
      </trkpt>
      <trkpt lat="47.21032" lon="6.00046">
        <ele>250.4</ele>
        <time>2021-04-25T09:58:35Z</time>
      </trkpt>
      <trkpt lat="47.21031" lon="6.00038">
        <ele>250.2</ele>
        <time>2021-04-25T09:58:36Z</time>
      </trkpt>
      <trkpt lat="47.21032" lon="6.00031">
        <ele>250</ele>
        <time>2021-04-25T09:58:37Z</time>
      </trkpt>
      <trkpt lat="47.21033" lon="6.00025">
        <ele>249.8</ele>
        <time>2021-04-25T09:58:38Z</time>
      </trkpt>
      <trkpt lat="47.21035" lon="6.0002">
        <ele>249.6</ele>
        <time>2021-04-25T09:58:39Z</time>
      </trkpt>
      <trkpt lat="47.21038" lon="6.00014">
        <ele>249.4</ele>
        <time>2021-04-25T09:58:40Z</time>
      </trkpt>
      <trkpt lat="47.21041" lon="6.00009">
        <ele>249.2</ele>
        <time>2021-04-25T09:58:41Z</time>
      </trkpt>
      <trkpt lat="47.21045" lon="6.00002">
        <ele>249</ele>
        <time>2021-04-25T09:58:42Z</time>
      </trkpt>
      <trkpt lat="47.21052" lon="5.99994">
        <ele>248.8</ele>
        <time>2021-04-25T09:58:44Z</time>
      </trkpt>
      <trkpt lat="47.21057" lon="5.99991">
        <ele>249</ele>
        <time>2021-04-25T09:58:45Z</time>
      </trkpt>
      <trkpt lat="47.21062" lon="5.9999">
        <ele>248.6</ele>
        <time>2021-04-25T09:58:46Z</time>
      </trkpt>
      <trkpt lat="47.21067" lon="5.99989">
        <ele>248.6</ele>
        <time>2021-04-25T09:58:47Z</time>
      </trkpt>
      <trkpt lat="47.21072" lon="5.99989">
        <ele>248.4</ele>
        <time>2021-04-25T09:58:48Z</time>
      </trkpt>
      <trkpt lat="47.21084" lon="5.99986">
        <ele>248</ele>
        <time>2021-04-25T09:58:51Z</time>
      </trkpt>
      <trkpt lat="47.21088" lon="5.99983">
        <ele>247.8</ele>
        <time>2021-04-25T09:58:52Z</time>
      </trkpt>
      <trkpt lat="47.21092" lon="5.99979">
        <ele>247.8</ele>
        <time>2021-04-25T09:58:53Z</time>
      </trkpt>
      <trkpt lat="47.21095" lon="5.99974">
        <ele>247.8</ele>
        <time>2021-04-25T09:58:54Z</time>
      </trkpt>
      <trkpt lat="47.21099" lon="5.9997">
        <ele>247.6</ele>
        <time>2021-04-25T09:58:55Z</time>
      </trkpt>
      <trkpt lat="47.21103" lon="5.99966">
        <ele>247.6</ele>
        <time>2021-04-25T09:58:56Z</time>
      </trkpt>
      <trkpt lat="47.21107" lon="5.99964">
        <ele>247.4</ele>
        <time>2021-04-25T09:58:57Z</time>
      </trkpt>
      <trkpt lat="47.21112" lon="5.99963">
        <ele>247.4</ele>
        <time>2021-04-25T09:58:58Z</time>
      </trkpt>
      <trkpt lat="47.21118" lon="5.99962">
        <ele>247.2</ele>
        <time>2021-04-25T09:58:59Z</time>
      </trkpt>
      <trkpt lat="47.21123" lon="5.99961">
        <ele>247.2</ele>
        <time>2021-04-25T09:59:00Z</time>
      </trkpt>
      <trkpt lat="47.21134" lon="5.9996">
        <ele>246.8</ele>
        <time>2021-04-25T09:59:02Z</time>
      </trkpt>
      <trkpt lat="47.21141" lon="5.99959">
        <ele>246.6</ele>
        <time>2021-04-25T09:59:03Z</time>
      </trkpt>
      <trkpt lat="47.21153" lon="5.9996">
        <ele>246.4</ele>
        <time>2021-04-25T09:59:05Z</time>
      </trkpt>
      <trkpt lat="47.21174" lon="5.99964">
        <ele>246</ele>
        <time>2021-04-25T09:59:09Z</time>
      </trkpt>
      <trkpt lat="47.21178" lon="5.99963">
        <ele>246</ele>
        <time>2021-04-25T09:59:10Z</time>
      </trkpt>
      <trkpt lat="47.21182" lon="5.99961">
        <ele>246</ele>
        <time>2021-04-25T09:59:11Z</time>
      </trkpt>
      <trkpt lat="47.21185" lon="5.99957">
        <ele>246</ele>
        <time>2021-04-25T09:59:12Z</time>
      </trkpt>
      <trkpt lat="47.21188" lon="5.99953">
        <ele>246</ele>
        <time>2021-04-25T09:59:13Z</time>
      </trkpt>
      <trkpt lat="47.21193" lon="5.99924">
        <ele>246.6</ele>
        <time>2021-04-25T09:59:20Z</time>
      </trkpt>
      <trkpt lat="47.21195" lon="5.99918">
        <ele>246.6</ele>
        <time>2021-04-25T09:59:21Z</time>
      </trkpt>
      <trkpt lat="47.21196" lon="5.99915">
        <ele>246.6</ele>
        <time>2021-04-25T09:59:22Z</time>
      </trkpt>
      <trkpt lat="47.21197" lon="5.99914">
        <ele>246.6</ele>
        <time>2021-04-25T09:59:25Z</time>
      </trkpt>
      <trkpt lat="47.21197" lon="5.99914">
        <ele>246.4</ele>
        <time>2021-04-25T09:59:37Z</time>
      </trkpt>
      <trkpt lat="47.21197" lon="5.99914">
        <ele>246.6</ele>
        <time>2021-04-25T10:00:26Z</time>
      </trkpt>
      <trkpt lat="47.21193" lon="5.99908">
        <ele>246.6</ele>
        <time>2021-04-25T10:00:29Z</time>
      </trkpt>
      <trkpt lat="47.21192" lon="5.99906">
        <ele>246.6</ele>
        <time>2021-04-25T10:00:30Z</time>
      </trkpt>
      <trkpt lat="47.2119" lon="5.99904">
        <ele>246.6</ele>
        <time>2021-04-25T10:00:31Z</time>
      </trkpt>
      <trkpt lat="47.21183" lon="5.99897">
        <ele>246.6</ele>
        <time>2021-04-25T10:00:34Z</time>
      </trkpt>
      <trkpt lat="47.2118" lon="5.99895">
        <ele>246.6</ele>
        <time>2021-04-25T10:00:35Z</time>
      </trkpt>
      <trkpt lat="47.21178" lon="5.99892">
        <ele>246.6</ele>
        <time>2021-04-25T10:00:36Z</time>
      </trkpt>
      <trkpt lat="47.21159" lon="5.99872">
        <ele>246.4</ele>
        <time>2021-04-25T10:00:43Z</time>
      </trkpt>
      <trkpt lat="47.21127" lon="5.99843">
        <ele>246.2</ele>
        <time>2021-04-25T10:00:52Z</time>
      </trkpt>
      <trkpt lat="47.2112" lon="5.99837">
        <ele>246.2</ele>
        <time>2021-04-25T10:00:54Z</time>
      </trkpt>
      <trkpt lat="47.21111" lon="5.99827">
        <ele>246</ele>
        <time>2021-04-25T10:00:57Z</time>
      </trkpt>
      <trkpt lat="47.21108" lon="5.99824">
        <ele>246</ele>
        <time>2021-04-25T10:00:58Z</time>
      </trkpt>
      <trkpt lat="47.21105" lon="5.99822">
        <ele>246</ele>
        <time>2021-04-25T10:00:59Z</time>
      </trkpt>
      <trkpt lat="47.21102" lon="5.99819">
        <ele>246</ele>
        <time>2021-04-25T10:01:00Z</time>
      </trkpt>
      <trkpt lat="47.21099" lon="5.99816">
        <ele>246.2</ele>
        <time>2021-04-25T10:01:01Z</time>
      </trkpt>
      <trkpt lat="47.21097" lon="5.99813">
        <ele>246.2</ele>
        <time>2021-04-25T10:01:02Z</time>
      </trkpt>
      <trkpt lat="47.21094" lon="5.99811">
        <ele>246.2</ele>
        <time>2021-04-25T10:01:03Z</time>
      </trkpt>
      <trkpt lat="47.21091" lon="5.9981">
        <ele>246.2</ele>
        <time>2021-04-25T10:01:04Z</time>
      </trkpt>
      <trkpt lat="47.21087" lon="5.99809">
        <ele>246.2</ele>
        <time>2021-04-25T10:01:05Z</time>
      </trkpt>
      <trkpt lat="47.21084" lon="5.99811">
        <ele>246.2</ele>
        <time>2021-04-25T10:01:06Z</time>
      </trkpt>
      <trkpt lat="47.21081" lon="5.99814">
        <ele>246.2</ele>
        <time>2021-04-25T10:01:07Z</time>
      </trkpt>
      <trkpt lat="47.21076" lon="5.99821">
        <ele>246.2</ele>
        <time>2021-04-25T10:01:09Z</time>
      </trkpt>
      <trkpt lat="47.21073" lon="5.99825">
        <ele>246.2</ele>
        <time>2021-04-25T10:01:10Z</time>
      </trkpt>
      <trkpt lat="47.21061" lon="5.99846">
        <ele>246</ele>
        <time>2021-04-25T10:01:14Z</time>
      </trkpt>
      <trkpt lat="47.21058" lon="5.99851">
        <ele>246</ele>
        <time>2021-04-25T10:01:15Z</time>
      </trkpt>
      <trkpt lat="47.21044" lon="5.99878">
        <ele>246</ele>
        <time>2021-04-25T10:01:20Z</time>
      </trkpt>
      <trkpt lat="47.21042" lon="5.99882">
        <ele>246</ele>
        <time>2021-04-25T10:01:21Z</time>
      </trkpt>
      <trkpt lat="47.2104" lon="5.99886">
        <ele>246</ele>
        <time>2021-04-25T10:01:22Z</time>
      </trkpt>
      <trkpt lat="47.21039" lon="5.99889">
        <ele>246.2</ele>
        <time>2021-04-25T10:01:23Z</time>
      </trkpt>
      <trkpt lat="47.21037" lon="5.99892">
        <ele>246.6</ele>
        <time>2021-04-25T10:01:24Z</time>
      </trkpt>
      <trkpt lat="47.21036" lon="5.99896">
        <ele>246.8</ele>
        <time>2021-04-25T10:01:25Z</time>
      </trkpt>
      <trkpt lat="47.21035" lon="5.99899">
        <ele>247.4</ele>
        <time>2021-04-25T10:01:26Z</time>
      </trkpt>
      <trkpt lat="47.21034" lon="5.99907">
        <ele>248</ele>
        <time>2021-04-25T10:01:28Z</time>
      </trkpt>
      <trkpt lat="47.21034" lon="5.9991">
        <ele>248.2</ele>
        <time>2021-04-25T10:01:29Z</time>
      </trkpt>
      <trkpt lat="47.21034" lon="5.99914">
        <ele>248.4</ele>
        <time>2021-04-25T10:01:30Z</time>
      </trkpt>
      <trkpt lat="47.21034" lon="5.99917">
        <ele>248.8</ele>
        <time>2021-04-25T10:01:31Z</time>
      </trkpt>
      <trkpt lat="47.21034" lon="5.9992">
        <ele>248.8</ele>
        <time>2021-04-25T10:01:32Z</time>
      </trkpt>
      <trkpt lat="47.21034" lon="5.99923">
        <ele>249.2</ele>
        <time>2021-04-25T10:01:33Z</time>
      </trkpt>
      <trkpt lat="47.21034" lon="5.99926">
        <ele>249.6</ele>
        <time>2021-04-25T10:01:34Z</time>
      </trkpt>
      <trkpt lat="47.21034" lon="5.99929">
        <ele>249.8</ele>
        <time>2021-04-25T10:01:35Z</time>
      </trkpt>
      <trkpt lat="47.21034" lon="5.99932">
        <ele>250.2</ele>
        <time>2021-04-25T10:01:36Z</time>
      </trkpt>
      <trkpt lat="47.21034" lon="5.99935">
        <ele>250.2</ele>
        <time>2021-04-25T10:01:37Z</time>
      </trkpt>
      <trkpt lat="47.21033" lon="5.99938">
        <ele>250.8</ele>
        <time>2021-04-25T10:01:38Z</time>
      </trkpt>
      <trkpt lat="47.21033" lon="5.99941">
        <ele>251</ele>
        <time>2021-04-25T10:01:39Z</time>
      </trkpt>
      <trkpt lat="47.21032" lon="5.99943">
        <ele>251.2</ele>
        <time>2021-04-25T10:01:40Z</time>
      </trkpt>
      <trkpt lat="47.21031" lon="5.99945">
        <ele>251.2</ele>
        <time>2021-04-25T10:01:41Z</time>
      </trkpt>
      <trkpt lat="47.21031" lon="5.99948">
        <ele>251.4</ele>
        <time>2021-04-25T10:01:42Z</time>
      </trkpt>
      <trkpt lat="47.2103" lon="5.99949">
        <ele>251.6</ele>
        <time>2021-04-25T10:01:43Z</time>
      </trkpt>
      <trkpt lat="47.2103" lon="5.99951">
        <ele>251.8</ele>
        <time>2021-04-25T10:01:44Z</time>
      </trkpt>
      <trkpt lat="47.21031" lon="5.99952">
        <ele>251.8</ele>
        <time>2021-04-25T10:01:45Z</time>
      </trkpt>
      <trkpt lat="47.21032" lon="5.99952">
        <ele>252</ele>
        <time>2021-04-25T10:01:46Z</time>
      </trkpt>
      <trkpt lat="47.21033" lon="5.9995">
        <ele>252.2</ele>
        <time>2021-04-25T10:01:47Z</time>
      </trkpt>
      <trkpt lat="47.21034" lon="5.99947">
        <ele>252</ele>
        <time>2021-04-25T10:01:48Z</time>
      </trkpt>
      <trkpt lat="47.21036" lon="5.99945">
        <ele>252</ele>
        <time>2021-04-25T10:01:49Z</time>
      </trkpt>
      <trkpt lat="47.21037" lon="5.99941">
        <ele>252.2</ele>
        <time>2021-04-25T10:01:50Z</time>
      </trkpt>
      <trkpt lat="47.21038" lon="5.99937">
        <ele>252.2</ele>
        <time>2021-04-25T10:01:51Z</time>
      </trkpt>
      <trkpt lat="47.21039" lon="5.99933">
        <ele>252.2</ele>
        <time>2021-04-25T10:01:52Z</time>
      </trkpt>
      <trkpt lat="47.21039" lon="5.99929">
        <ele>252.2</ele>
        <time>2021-04-25T10:01:53Z</time>
      </trkpt>
      <trkpt lat="47.2104" lon="5.99924">
        <ele>252.2</ele>
        <time>2021-04-25T10:01:54Z</time>
      </trkpt>
      <trkpt lat="47.21041" lon="5.99919">
        <ele>252.2</ele>
        <time>2021-04-25T10:01:55Z</time>
      </trkpt>
      <trkpt lat="47.21043" lon="5.99913">
        <ele>252.2</ele>
        <time>2021-04-25T10:01:56Z</time>
      </trkpt>
      <trkpt lat="47.21046" lon="5.99908">
        <ele>252.2</ele>
        <time>2021-04-25T10:01:57Z</time>
      </trkpt>
      <trkpt lat="47.21049" lon="5.99904">
        <ele>252.2</ele>
        <time>2021-04-25T10:01:58Z</time>
      </trkpt>
      <trkpt lat="47.21052" lon="5.999">
        <ele>252.4</ele>
        <time>2021-04-25T10:01:59Z</time>
      </trkpt>
      <trkpt lat="47.21055" lon="5.99897">
        <ele>252.4</ele>
        <time>2021-04-25T10:02:00Z</time>
      </trkpt>
      <trkpt lat="47.21058" lon="5.99894">
        <ele>252.4</ele>
        <time>2021-04-25T10:02:01Z</time>
      </trkpt>
      <trkpt lat="47.21061" lon="5.9989">
        <ele>252.4</ele>
        <time>2021-04-25T10:02:02Z</time>
      </trkpt>
      <trkpt lat="47.21072" lon="5.99864">
        <ele>252.6</ele>
        <time>2021-04-25T10:02:07Z</time>
      </trkpt>
      <trkpt lat="47.21076" lon="5.99855">
        <ele>252.6</ele>
        <time>2021-04-25T10:02:09Z</time>
      </trkpt>
      <trkpt lat="47.21087" lon="5.9984">
        <ele>252.8</ele>
        <time>2021-04-25T10:02:13Z</time>
      </trkpt>
      <trkpt lat="47.21093" lon="5.99831">
        <ele>253</ele>
        <time>2021-04-25T10:02:15Z</time>
      </trkpt>
      <trkpt lat="47.21095" lon="5.99827">
        <ele>253</ele>
        <time>2021-04-25T10:02:16Z</time>
      </trkpt>
      <trkpt lat="47.21097" lon="5.99823">
        <ele>253</ele>
        <time>2021-04-25T10:02:17Z</time>
      </trkpt>
      <trkpt lat="47.211" lon="5.99818">
        <ele>253.2</ele>
        <time>2021-04-25T10:02:18Z</time>
      </trkpt>
      <trkpt lat="47.2111" lon="5.99795">
        <ele>253.4</ele>
        <time>2021-04-25T10:02:23Z</time>
      </trkpt>
      <trkpt lat="47.21129" lon="5.99749">
        <ele>253.6</ele>
        <time>2021-04-25T10:02:32Z</time>
      </trkpt>
      <trkpt lat="47.21148" lon="5.99686">
        <ele>254.2</ele>
        <time>2021-04-25T10:02:43Z</time>
      </trkpt>
      <trkpt lat="47.21157" lon="5.99652">
        <ele>253.8</ele>
        <time>2021-04-25T10:02:49Z</time>
      </trkpt>
      <trkpt lat="47.21158" lon="5.99646">
        <ele>253.8</ele>
        <time>2021-04-25T10:02:50Z</time>
      </trkpt>
      <trkpt lat="47.2116" lon="5.99633">
        <ele>253.8</ele>
        <time>2021-04-25T10:02:52Z</time>
      </trkpt>
      <trkpt lat="47.2117" lon="5.99574">
        <ele>254</ele>
        <time>2021-04-25T10:03:01Z</time>
      </trkpt>
      <trkpt lat="47.21171" lon="5.99563">
        <ele>254</ele>
        <time>2021-04-25T10:03:03Z</time>
      </trkpt>
      <trkpt lat="47.21172" lon="5.99557">
        <ele>254</ele>
        <time>2021-04-25T10:03:04Z</time>
      </trkpt>
      <trkpt lat="47.21172" lon="5.99552">
        <ele>254</ele>
        <time>2021-04-25T10:03:05Z</time>
      </trkpt>
      <trkpt lat="47.21173" lon="5.99546">
        <ele>254</ele>
        <time>2021-04-25T10:03:06Z</time>
      </trkpt>
      <trkpt lat="47.21173" lon="5.99541">
        <ele>254</ele>
        <time>2021-04-25T10:03:07Z</time>
      </trkpt>
      <trkpt lat="47.21174" lon="5.99536">
        <ele>254</ele>
        <time>2021-04-25T10:03:08Z</time>
      </trkpt>
      <trkpt lat="47.21174" lon="5.99531">
        <ele>254</ele>
        <time>2021-04-25T10:03:09Z</time>
      </trkpt>
      <trkpt lat="47.21172" lon="5.99525">
        <ele>254</ele>
        <time>2021-04-25T10:03:10Z</time>
      </trkpt>
      <trkpt lat="47.21171" lon="5.99518">
        <ele>254</ele>
        <time>2021-04-25T10:03:11Z</time>
      </trkpt>
      <trkpt lat="47.21169" lon="5.99509">
        <ele>254</ele>
        <time>2021-04-25T10:03:12Z</time>
      </trkpt>
      <trkpt lat="47.2117" lon="5.99483">
        <ele>252.8</ele>
        <time>2021-04-25T10:03:15Z</time>
      </trkpt>
      <trkpt lat="47.2117" lon="5.99475">
        <ele>252.6</ele>
        <time>2021-04-25T10:03:16Z</time>
      </trkpt>
      <trkpt lat="47.21171" lon="5.99468">
        <ele>252.2</ele>
        <time>2021-04-25T10:03:17Z</time>
      </trkpt>
      <trkpt lat="47.21171" lon="5.9946">
        <ele>252.2</ele>
        <time>2021-04-25T10:03:18Z</time>
      </trkpt>
      <trkpt lat="47.21172" lon="5.99453">
        <ele>252</ele>
        <time>2021-04-25T10:03:19Z</time>
      </trkpt>
      <trkpt lat="47.21172" lon="5.99447">
        <ele>252</ele>
        <time>2021-04-25T10:03:20Z</time>
      </trkpt>
      <trkpt lat="47.21173" lon="5.99432">
        <ele>252</ele>
        <time>2021-04-25T10:03:22Z</time>
      </trkpt>
      <trkpt lat="47.21174" lon="5.99425">
        <ele>252</ele>
        <time>2021-04-25T10:03:23Z</time>
      </trkpt>
      <trkpt lat="47.21174" lon="5.99417">
        <ele>252</ele>
        <time>2021-04-25T10:03:24Z</time>
      </trkpt>
      <trkpt lat="47.21177" lon="5.99354">
        <ele>252.6</ele>
        <time>2021-04-25T10:03:32Z</time>
      </trkpt>
      <trkpt lat="47.2118" lon="5.99287">
        <ele>253.2</ele>
        <time>2021-04-25T10:03:41Z</time>
      </trkpt>
      <trkpt lat="47.21181" lon="5.9928">
        <ele>253.4</ele>
        <time>2021-04-25T10:03:42Z</time>
      </trkpt>
      <trkpt lat="47.21181" lon="5.99273">
        <ele>253.4</ele>
        <time>2021-04-25T10:03:43Z</time>
      </trkpt>
      <trkpt lat="47.21181" lon="5.99266">
        <ele>253.6</ele>
        <time>2021-04-25T10:03:44Z</time>
      </trkpt>
      <trkpt lat="47.21182" lon="5.9926">
        <ele>253.8</ele>
        <time>2021-04-25T10:03:45Z</time>
      </trkpt>
      <trkpt lat="47.21182" lon="5.99253">
        <ele>254</ele>
        <time>2021-04-25T10:03:46Z</time>
      </trkpt>
      <trkpt lat="47.21182" lon="5.99247">
        <ele>254.2</ele>
        <time>2021-04-25T10:03:47Z</time>
      </trkpt>
      <trkpt lat="47.21183" lon="5.99241">
        <ele>254.4</ele>
        <time>2021-04-25T10:03:48Z</time>
      </trkpt>
      <trkpt lat="47.21183" lon="5.99234">
        <ele>254.4</ele>
        <time>2021-04-25T10:03:49Z</time>
      </trkpt>
      <trkpt lat="47.21184" lon="5.99228">
        <ele>254.6</ele>
        <time>2021-04-25T10:03:50Z</time>
      </trkpt>
      <trkpt lat="47.21184" lon="5.99222">
        <ele>254.6</ele>
        <time>2021-04-25T10:03:51Z</time>
      </trkpt>
      <trkpt lat="47.21184" lon="5.99215">
        <ele>254.6</ele>
        <time>2021-04-25T10:03:52Z</time>
      </trkpt>
      <trkpt lat="47.21185" lon="5.99209">
        <ele>254.8</ele>
        <time>2021-04-25T10:03:53Z</time>
      </trkpt>
      <trkpt lat="47.21185" lon="5.99203">
        <ele>254.8</ele>
        <time>2021-04-25T10:03:54Z</time>
      </trkpt>
      <trkpt lat="47.21188" lon="5.99179">
        <ele>255</ele>
        <time>2021-04-25T10:03:58Z</time>
      </trkpt>
      <trkpt lat="47.21191" lon="5.99161">
        <ele>255.2</ele>
        <time>2021-04-25T10:04:01Z</time>
      </trkpt>
      <trkpt lat="47.21192" lon="5.99156">
        <ele>255.4</ele>
        <time>2021-04-25T10:04:02Z</time>
      </trkpt>
      <trkpt lat="47.21192" lon="5.99151">
        <ele>255.4</ele>
        <time>2021-04-25T10:04:03Z</time>
      </trkpt>
      <trkpt lat="47.21193" lon="5.99146">
        <ele>255.6</ele>
        <time>2021-04-25T10:04:04Z</time>
      </trkpt>
      <trkpt lat="47.21194" lon="5.9914">
        <ele>255.6</ele>
        <time>2021-04-25T10:04:05Z</time>
      </trkpt>
      <trkpt lat="47.21195" lon="5.99136">
        <ele>255.8</ele>
        <time>2021-04-25T10:04:06Z</time>
      </trkpt>
      <trkpt lat="47.21196" lon="5.99131">
        <ele>256</ele>
        <time>2021-04-25T10:04:07Z</time>
      </trkpt>
      <trkpt lat="47.21197" lon="5.99127">
        <ele>256.2</ele>
        <time>2021-04-25T10:04:08Z</time>
      </trkpt>
      <trkpt lat="47.21197" lon="5.99123">
        <ele>256.4</ele>
        <time>2021-04-25T10:04:09Z</time>
      </trkpt>
      <trkpt lat="47.21198" lon="5.99119">
        <ele>256.4</ele>
        <time>2021-04-25T10:04:10Z</time>
      </trkpt>
      <trkpt lat="47.21199" lon="5.99115">
        <ele>256.6</ele>
        <time>2021-04-25T10:04:11Z</time>
      </trkpt>
      <trkpt lat="47.21201" lon="5.99107">
        <ele>257.2</ele>
        <time>2021-04-25T10:04:13Z</time>
      </trkpt>
      <trkpt lat="47.21201" lon="5.99103">
        <ele>257.4</ele>
        <time>2021-04-25T10:04:14Z</time>
      </trkpt>
      <trkpt lat="47.21203" lon="5.99099">
        <ele>257.6</ele>
        <time>2021-04-25T10:04:15Z</time>
      </trkpt>
      <trkpt lat="47.21204" lon="5.99095">
        <ele>257.8</ele>
        <time>2021-04-25T10:04:16Z</time>
      </trkpt>
      <trkpt lat="47.21205" lon="5.99091">
        <ele>258</ele>
        <time>2021-04-25T10:04:17Z</time>
      </trkpt>
      <trkpt lat="47.21206" lon="5.99087">
        <ele>258.4</ele>
        <time>2021-04-25T10:04:18Z</time>
      </trkpt>
      <trkpt lat="47.21207" lon="5.99083">
        <ele>258.4</ele>
        <time>2021-04-25T10:04:19Z</time>
      </trkpt>
      <trkpt lat="47.21209" lon="5.99079">
        <ele>258.6</ele>
        <time>2021-04-25T10:04:20Z</time>
      </trkpt>
      <trkpt lat="47.2121" lon="5.99075">
        <ele>258.6</ele>
        <time>2021-04-25T10:04:21Z</time>
      </trkpt>
      <trkpt lat="47.21211" lon="5.99071">
        <ele>258.8</ele>
        <time>2021-04-25T10:04:22Z</time>
      </trkpt>
      <trkpt lat="47.21213" lon="5.99067">
        <ele>259</ele>
        <time>2021-04-25T10:04:23Z</time>
      </trkpt>
      <trkpt lat="47.21214" lon="5.99063">
        <ele>259.2</ele>
        <time>2021-04-25T10:04:24Z</time>
      </trkpt>
      <trkpt lat="47.21216" lon="5.99058">
        <ele>259.2</ele>
        <time>2021-04-25T10:04:25Z</time>
      </trkpt>
      <trkpt lat="47.21218" lon="5.99054">
        <ele>259.2</ele>
        <time>2021-04-25T10:04:26Z</time>
      </trkpt>
      <trkpt lat="47.21219" lon="5.99049">
        <ele>259.4</ele>
        <time>2021-04-25T10:04:27Z</time>
      </trkpt>
      <trkpt lat="47.21221" lon="5.99044">
        <ele>259.4</ele>
        <time>2021-04-25T10:04:28Z</time>
      </trkpt>
      <trkpt lat="47.21222" lon="5.9904">
        <ele>259.4</ele>
        <time>2021-04-25T10:04:29Z</time>
      </trkpt>
      <trkpt lat="47.21224" lon="5.99035">
        <ele>259.4</ele>
        <time>2021-04-25T10:04:30Z</time>
      </trkpt>
      <trkpt lat="47.21225" lon="5.99031">
        <ele>259.4</ele>
        <time>2021-04-25T10:04:31Z</time>
      </trkpt>
      <trkpt lat="47.21227" lon="5.99027">
        <ele>259.4</ele>
        <time>2021-04-25T10:04:32Z</time>
      </trkpt>
      <trkpt lat="47.21228" lon="5.99023">
        <ele>259.6</ele>
        <time>2021-04-25T10:04:33Z</time>
      </trkpt>
      <trkpt lat="47.2123" lon="5.99019">
        <ele>259.6</ele>
        <time>2021-04-25T10:04:34Z</time>
      </trkpt>
      <trkpt lat="47.21232" lon="5.99015">
        <ele>259.6</ele>
        <time>2021-04-25T10:04:35Z</time>
      </trkpt>
      <trkpt lat="47.21233" lon="5.9901">
        <ele>259.6</ele>
        <time>2021-04-25T10:04:36Z</time>
      </trkpt>
      <trkpt lat="47.21235" lon="5.99006">
        <ele>259.6</ele>
        <time>2021-04-25T10:04:37Z</time>
      </trkpt>
      <trkpt lat="47.21237" lon="5.99002">
        <ele>259.8</ele>
        <time>2021-04-25T10:04:38Z</time>
      </trkpt>
      <trkpt lat="47.21239" lon="5.98997">
        <ele>259.8</ele>
        <time>2021-04-25T10:04:39Z</time>
      </trkpt>
      <trkpt lat="47.21241" lon="5.98993">
        <ele>260</ele>
        <time>2021-04-25T10:04:40Z</time>
      </trkpt>
      <trkpt lat="47.21242" lon="5.98988">
        <ele>260.2</ele>
        <time>2021-04-25T10:04:41Z</time>
      </trkpt>
      <trkpt lat="47.21251" lon="5.98969">
        <ele>260.2</ele>
        <time>2021-04-25T10:04:45Z</time>
      </trkpt>
      <trkpt lat="47.21271" lon="5.98925">
        <ele>260.4</ele>
        <time>2021-04-25T10:04:54Z</time>
      </trkpt>
      <trkpt lat="47.21282" lon="5.98907">
        <ele>260.4</ele>
        <time>2021-04-25T10:04:58Z</time>
      </trkpt>
      <trkpt lat="47.21287" lon="5.989">
        <ele>260.6</ele>
        <time>2021-04-25T10:05:00Z</time>
      </trkpt>
      <trkpt lat="47.21289" lon="5.98897">
        <ele>260.8</ele>
        <time>2021-04-25T10:05:01Z</time>
      </trkpt>
      <trkpt lat="47.21291" lon="5.98893">
        <ele>261</ele>
        <time>2021-04-25T10:05:02Z</time>
      </trkpt>
      <trkpt lat="47.21293" lon="5.9889">
        <ele>261</ele>
        <time>2021-04-25T10:05:03Z</time>
      </trkpt>
      <trkpt lat="47.21296" lon="5.98887">
        <ele>261.2</ele>
        <time>2021-04-25T10:05:04Z</time>
      </trkpt>
      <trkpt lat="47.21315" lon="5.98859">
        <ele>261.4</ele>
        <time>2021-04-25T10:05:11Z</time>
      </trkpt>
      <trkpt lat="47.21339" lon="5.98831">
        <ele>261.8</ele>
        <time>2021-04-25T10:05:19Z</time>
      </trkpt>
      <trkpt lat="47.21359" lon="5.98813">
        <ele>262.2</ele>
        <time>2021-04-25T10:05:25Z</time>
      </trkpt>
      <trkpt lat="47.21372" lon="5.988">
        <ele>262.2</ele>
        <time>2021-04-25T10:05:29Z</time>
      </trkpt>
      <trkpt lat="47.21396" lon="5.98783">
        <ele>262.4</ele>
        <time>2021-04-25T10:05:35Z</time>
      </trkpt>
      <trkpt lat="47.21414" lon="5.98771">
        <ele>262.8</ele>
        <time>2021-04-25T10:05:40Z</time>
      </trkpt>
      <trkpt lat="47.21447" lon="5.98751">
        <ele>263</ele>
        <time>2021-04-25T10:05:49Z</time>
      </trkpt>
      <trkpt lat="47.21447" lon="5.98751">
        <ele>263</ele>
        <time>2021-04-25T10:05:50Z</time>
      </trkpt>
      <trkpt lat="47.21454" lon="5.98747">
        <ele>263</ele>
        <time>2021-04-25T10:05:51Z</time>
      </trkpt>
      <trkpt lat="47.21457" lon="5.98745">
        <ele>263</ele>
        <time>2021-04-25T10:05:52Z</time>
      </trkpt>
      <trkpt lat="47.21461" lon="5.98743">
        <ele>263</ele>
        <time>2021-04-25T10:05:54Z</time>
      </trkpt>
      <trkpt lat="47.21475" lon="5.98735">
        <ele>263.2</ele>
        <time>2021-04-25T10:05:57Z</time>
      </trkpt>
      <trkpt lat="47.21483" lon="5.98731">
        <ele>263.2</ele>
        <time>2021-04-25T10:05:59Z</time>
      </trkpt>
      <trkpt lat="47.21525" lon="5.98707">
        <ele>263.2</ele>
        <time>2021-04-25T10:06:10Z</time>
      </trkpt>
      <trkpt lat="47.21543" lon="5.98696">
        <ele>263</ele>
        <time>2021-04-25T10:06:15Z</time>
      </trkpt>
      <trkpt lat="47.21546" lon="5.98694">
        <ele>263</ele>
        <time>2021-04-25T10:06:16Z</time>
      </trkpt>
      <trkpt lat="47.2155" lon="5.98692">
        <ele>263</ele>
        <time>2021-04-25T10:06:17Z</time>
      </trkpt>
      <trkpt lat="47.21561" lon="5.98685">
        <ele>262.8</ele>
        <time>2021-04-25T10:06:21Z</time>
      </trkpt>
      <trkpt lat="47.21565" lon="5.98683">
        <ele>262.8</ele>
        <time>2021-04-25T10:06:22Z</time>
      </trkpt>
      <trkpt lat="47.21568" lon="5.98681">
        <ele>262.8</ele>
        <time>2021-04-25T10:06:23Z</time>
      </trkpt>
      <trkpt lat="47.21571" lon="5.98679">
        <ele>262.8</ele>
        <time>2021-04-25T10:06:24Z</time>
      </trkpt>
      <trkpt lat="47.21575" lon="5.98676">
        <ele>262.8</ele>
        <time>2021-04-25T10:06:25Z</time>
      </trkpt>
      <trkpt lat="47.21578" lon="5.98673">
        <ele>262.8</ele>
        <time>2021-04-25T10:06:26Z</time>
      </trkpt>
      <trkpt lat="47.21587" lon="5.98667">
        <ele>262.8</ele>
        <time>2021-04-25T10:06:28Z</time>
      </trkpt>
      <trkpt lat="47.2159" lon="5.98665">
        <ele>262.8</ele>
        <time>2021-04-25T10:06:29Z</time>
      </trkpt>
      <trkpt lat="47.21593" lon="5.98663">
        <ele>263</ele>
        <time>2021-04-25T10:06:30Z</time>
      </trkpt>
      <trkpt lat="47.21596" lon="5.9866">
        <ele>263</ele>
        <time>2021-04-25T10:06:31Z</time>
      </trkpt>
      <trkpt lat="47.21598" lon="5.98658">
        <ele>263</ele>
        <time>2021-04-25T10:06:32Z</time>
      </trkpt>
      <trkpt lat="47.21598" lon="5.98658">
        <ele>263</ele>
        <time>2021-04-25T10:06:33Z</time>
      </trkpt>
      <trkpt lat="47.21601" lon="5.98656">
        <ele>263.4</ele>
        <time>2021-04-25T10:06:34Z</time>
      </trkpt>
      <trkpt lat="47.21606" lon="5.98655">
        <ele>263.4</ele>
        <time>2021-04-25T10:06:35Z</time>
      </trkpt>
      <trkpt lat="47.21606" lon="5.98655">
        <ele>263.6</ele>
        <time>2021-04-25T10:06:36Z</time>
      </trkpt>
      <trkpt lat="47.21612" lon="5.98657">
        <ele>263.6</ele>
        <time>2021-04-25T10:06:37Z</time>
      </trkpt>
      <trkpt lat="47.21612" lon="5.98657">
        <ele>263.6</ele>
        <time>2021-04-25T10:06:38Z</time>
      </trkpt>
      <trkpt lat="47.21616" lon="5.9866">
        <ele>263.8</ele>
        <time>2021-04-25T10:06:39Z</time>
      </trkpt>
      <trkpt lat="47.21616" lon="5.9866">
        <ele>263.8</ele>
        <time>2021-04-25T10:06:40Z</time>
      </trkpt>
      <trkpt lat="47.21622" lon="5.98665">
        <ele>263.8</ele>
        <time>2021-04-25T10:06:41Z</time>
      </trkpt>
      <trkpt lat="47.21627" lon="5.98676">
        <ele>263.2</ele>
        <time>2021-04-25T10:06:43Z</time>
      </trkpt>
      <trkpt lat="47.21629" lon="5.98682">
        <ele>263</ele>
        <time>2021-04-25T10:06:44Z</time>
      </trkpt>
      <trkpt lat="47.2163" lon="5.98687">
        <ele>262.6</ele>
        <time>2021-04-25T10:06:45Z</time>
      </trkpt>
      <trkpt lat="47.2163" lon="5.98691">
        <ele>262.2</ele>
        <time>2021-04-25T10:06:46Z</time>
      </trkpt>
      <trkpt lat="47.21632" lon="5.98695">
        <ele>262</ele>
        <time>2021-04-25T10:06:47Z</time>
      </trkpt>
      <trkpt lat="47.21634" lon="5.98698">
        <ele>261.8</ele>
        <time>2021-04-25T10:06:48Z</time>
      </trkpt>
      <trkpt lat="47.21637" lon="5.98701">
        <ele>261.6</ele>
        <time>2021-04-25T10:06:49Z</time>
      </trkpt>
      <trkpt lat="47.21638" lon="5.98702">
        <ele>261.2</ele>
        <time>2021-04-25T10:06:50Z</time>
      </trkpt>
      <trkpt lat="47.2164" lon="5.98701">
        <ele>261</ele>
        <time>2021-04-25T10:06:51Z</time>
      </trkpt>
      <trkpt lat="47.2164" lon="5.98701">
        <ele>260.6</ele>
        <time>2021-04-25T10:06:52Z</time>
      </trkpt>
      <trkpt lat="47.21641" lon="5.98697">
        <ele>260.2</ele>
        <time>2021-04-25T10:06:53Z</time>
      </trkpt>
      <trkpt lat="47.21642" lon="5.98697">
        <ele>260</ele>
        <time>2021-04-25T10:06:54Z</time>
      </trkpt>
      <trkpt lat="47.21644" lon="5.98696">
        <ele>259.8</ele>
        <time>2021-04-25T10:06:55Z</time>
      </trkpt>
      <trkpt lat="47.21646" lon="5.98695">
        <ele>259.8</ele>
        <time>2021-04-25T10:06:56Z</time>
      </trkpt>
      <trkpt lat="47.2165" lon="5.98693">
        <ele>259.6</ele>
        <time>2021-04-25T10:06:58Z</time>
      </trkpt>
      <trkpt lat="47.21656" lon="5.98689">
        <ele>259.6</ele>
        <time>2021-04-25T10:06:59Z</time>
      </trkpt>
      <trkpt lat="47.21656" lon="5.98689">
        <ele>259.4</ele>
        <time>2021-04-25T10:07:00Z</time>
      </trkpt>
      <trkpt lat="47.21673" lon="5.98676">
        <ele>259</ele>
        <time>2021-04-25T10:07:04Z</time>
      </trkpt>
      <trkpt lat="47.21677" lon="5.98673">
        <ele>259</ele>
        <time>2021-04-25T10:07:05Z</time>
      </trkpt>
      <trkpt lat="47.21699" lon="5.98655">
        <ele>258.4</ele>
        <time>2021-04-25T10:07:11Z</time>
      </trkpt>
      <trkpt lat="47.21706" lon="5.9865">
        <ele>258</ele>
        <time>2021-04-25T10:07:13Z</time>
      </trkpt>
      <trkpt lat="47.21719" lon="5.98638">
        <ele>257.8</ele>
        <time>2021-04-25T10:07:17Z</time>
      </trkpt>
      <trkpt lat="47.21725" lon="5.98632">
        <ele>257.6</ele>
        <time>2021-04-25T10:07:19Z</time>
      </trkpt>
      <trkpt lat="47.21729" lon="5.98629">
        <ele>257.6</ele>
        <time>2021-04-25T10:07:20Z</time>
      </trkpt>
      <trkpt lat="47.21732" lon="5.98625">
        <ele>257.6</ele>
        <time>2021-04-25T10:07:21Z</time>
      </trkpt>
      <trkpt lat="47.21735" lon="5.98621">
        <ele>257.6</ele>
        <time>2021-04-25T10:07:22Z</time>
      </trkpt>
      <trkpt lat="47.21738" lon="5.98617">
        <ele>257.6</ele>
        <time>2021-04-25T10:07:23Z</time>
      </trkpt>
      <trkpt lat="47.21741" lon="5.98613">
        <ele>257.6</ele>
        <time>2021-04-25T10:07:24Z</time>
      </trkpt>
      <trkpt lat="47.21755" lon="5.98589">
        <ele>257.6</ele>
        <time>2021-04-25T10:07:29Z</time>
      </trkpt>
      <trkpt lat="47.21761" lon="5.98573">
        <ele>257.4</ele>
        <time>2021-04-25T10:07:32Z</time>
      </trkpt>
      <trkpt lat="47.21763" lon="5.98568">
        <ele>257.4</ele>
        <time>2021-04-25T10:07:33Z</time>
      </trkpt>
      <trkpt lat="47.21766" lon="5.98563">
        <ele>257.4</ele>
        <time>2021-04-25T10:07:34Z</time>
      </trkpt>
      <trkpt lat="47.21776" lon="5.98548">
        <ele>257.2</ele>
        <time>2021-04-25T10:07:38Z</time>
      </trkpt>
      <trkpt lat="47.21791" lon="5.98515">
        <ele>257.2</ele>
        <time>2021-04-25T10:07:43Z</time>
      </trkpt>
      <trkpt lat="47.21804" lon="5.98486">
        <ele>256.8</ele>
        <time>2021-04-25T10:07:46Z</time>
      </trkpt>
      <trkpt lat="47.21814" lon="5.98465">
        <ele>256.6</ele>
        <time>2021-04-25T10:07:50Z</time>
      </trkpt>
      <trkpt lat="47.21821" lon="5.98452">
        <ele>256.6</ele>
        <time>2021-04-25T10:07:51Z</time>
      </trkpt>
      <trkpt lat="47.2184" lon="5.98421">
        <ele>256.4</ele>
        <time>2021-04-25T10:07:56Z</time>
      </trkpt>
      <trkpt lat="47.2184" lon="5.98421">
        <ele>256.2</ele>
        <time>2021-04-25T10:07:57Z</time>
      </trkpt>
      <trkpt lat="47.21843" lon="5.98416">
        <ele>256.2</ele>
        <time>2021-04-25T10:07:58Z</time>
      </trkpt>
      <trkpt lat="47.21851" lon="5.98406">
        <ele>256</ele>
        <time>2021-04-25T10:07:59Z</time>
      </trkpt>
      <trkpt lat="47.21854" lon="5.98401">
        <ele>256</ele>
        <time>2021-04-25T10:08:00Z</time>
      </trkpt>
      <trkpt lat="47.21857" lon="5.98396">
        <ele>256</ele>
        <time>2021-04-25T10:08:01Z</time>
      </trkpt>
      <trkpt lat="47.21861" lon="5.98391">
        <ele>256</ele>
        <time>2021-04-25T10:08:02Z</time>
      </trkpt>
      <trkpt lat="47.21867" lon="5.98382">
        <ele>256</ele>
        <time>2021-04-25T10:08:04Z</time>
      </trkpt>
      <trkpt lat="47.2187" lon="5.98377">
        <ele>256</ele>
        <time>2021-04-25T10:08:05Z</time>
      </trkpt>
      <trkpt lat="47.21873" lon="5.98373">
        <ele>256</ele>
        <time>2021-04-25T10:08:06Z</time>
      </trkpt>
      <trkpt lat="47.21876" lon="5.98369">
        <ele>256</ele>
        <time>2021-04-25T10:08:07Z</time>
      </trkpt>
      <trkpt lat="47.21879" lon="5.98365">
        <ele>256</ele>
        <time>2021-04-25T10:08:08Z</time>
      </trkpt>
      <trkpt lat="47.21881" lon="5.98361">
        <ele>255.8</ele>
        <time>2021-04-25T10:08:09Z</time>
      </trkpt>
      <trkpt lat="47.21884" lon="5.98357">
        <ele>255.8</ele>
        <time>2021-04-25T10:08:10Z</time>
      </trkpt>
      <trkpt lat="47.21887" lon="5.98353">
        <ele>255.8</ele>
        <time>2021-04-25T10:08:11Z</time>
      </trkpt>
      <trkpt lat="47.2189" lon="5.98349">
        <ele>255.8</ele>
        <time>2021-04-25T10:08:12Z</time>
      </trkpt>
      <trkpt lat="47.21892" lon="5.98346">
        <ele>255.6</ele>
        <time>2021-04-25T10:08:13Z</time>
      </trkpt>
      <trkpt lat="47.21892" lon="5.98346">
        <ele>255.8</ele>
        <time>2021-04-25T10:08:14Z</time>
      </trkpt>
      <trkpt lat="47.21898" lon="5.98338">
        <ele>255.8</ele>
        <time>2021-04-25T10:08:15Z</time>
      </trkpt>
      <trkpt lat="47.21901" lon="5.98334">
        <ele>255.8</ele>
        <time>2021-04-25T10:08:16Z</time>
      </trkpt>
      <trkpt lat="47.21904" lon="5.9833">
        <ele>255.8</ele>
        <time>2021-04-25T10:08:17Z</time>
      </trkpt>
      <trkpt lat="47.21907" lon="5.98326">
        <ele>255.8</ele>
        <time>2021-04-25T10:08:18Z</time>
      </trkpt>
      <trkpt lat="47.21921" lon="5.98307">
        <ele>255.6</ele>
        <time>2021-04-25T10:08:23Z</time>
      </trkpt>
      <trkpt lat="47.21931" lon="5.98293">
        <ele>255.6</ele>
        <time>2021-04-25T10:08:26Z</time>
      </trkpt>
      <trkpt lat="47.21938" lon="5.98284">
        <ele>255.6</ele>
        <time>2021-04-25T10:08:27Z</time>
      </trkpt>
      <trkpt lat="47.21962" lon="5.98258">
        <ele>255.6</ele>
        <time>2021-04-25T10:08:33Z</time>
      </trkpt>
      <trkpt lat="47.2197" lon="5.98252">
        <ele>255.4</ele>
        <time>2021-04-25T10:08:35Z</time>
      </trkpt>
      <trkpt lat="47.2197" lon="5.98252">
        <ele>255.4</ele>
        <time>2021-04-25T10:08:36Z</time>
      </trkpt>
      <trkpt lat="47.21979" lon="5.98245">
        <ele>255.2</ele>
        <time>2021-04-25T10:08:37Z</time>
      </trkpt>
      <trkpt lat="47.21983" lon="5.98242">
        <ele>255.4</ele>
        <time>2021-04-25T10:08:38Z</time>
      </trkpt>
      <trkpt lat="47.21991" lon="5.98237">
        <ele>255.4</ele>
        <time>2021-04-25T10:08:40Z</time>
      </trkpt>
      <trkpt lat="47.21991" lon="5.98237">
        <ele>255.4</ele>
        <time>2021-04-25T10:08:41Z</time>
      </trkpt>
      <trkpt lat="47.22" lon="5.98231">
        <ele>255.4</ele>
        <time>2021-04-25T10:08:42Z</time>
      </trkpt>
      <trkpt lat="47.22" lon="5.98231">
        <ele>255.4</ele>
        <time>2021-04-25T10:08:43Z</time>
      </trkpt>
      <trkpt lat="47.22004" lon="5.98229">
        <ele>255.4</ele>
        <time>2021-04-25T10:08:44Z</time>
      </trkpt>
      <trkpt lat="47.22045" lon="5.98216">
        <ele>255.4</ele>
        <time>2021-04-25T10:08:52Z</time>
      </trkpt>
      <trkpt lat="47.22077" lon="5.98212">
        <ele>255.6</ele>
        <time>2021-04-25T10:08:59Z</time>
      </trkpt>
      <trkpt lat="47.22091" lon="5.9821">
        <ele>255.6</ele>
        <time>2021-04-25T10:09:02Z</time>
      </trkpt>
      <trkpt lat="47.22103" lon="5.98208">
        <ele>255.4</ele>
        <time>2021-04-25T10:09:05Z</time>
      </trkpt>
      <trkpt lat="47.22111" lon="5.98209">
        <ele>255.4</ele>
        <time>2021-04-25T10:09:07Z</time>
      </trkpt>
      <trkpt lat="47.22114" lon="5.98209">
        <ele>255.4</ele>
        <time>2021-04-25T10:09:08Z</time>
      </trkpt>
      <trkpt lat="47.22118" lon="5.98209">
        <ele>255.2</ele>
        <time>2021-04-25T10:09:09Z</time>
      </trkpt>
      <trkpt lat="47.22121" lon="5.98208">
        <ele>255.2</ele>
        <time>2021-04-25T10:09:10Z</time>
      </trkpt>
      <trkpt lat="47.22125" lon="5.98206">
        <ele>255.2</ele>
        <time>2021-04-25T10:09:11Z</time>
      </trkpt>
      <trkpt lat="47.22131" lon="5.98204">
        <ele>255.2</ele>
        <time>2021-04-25T10:09:13Z</time>
      </trkpt>
      <trkpt lat="47.22134" lon="5.98203">
        <ele>254.8</ele>
        <time>2021-04-25T10:09:14Z</time>
      </trkpt>
      <trkpt lat="47.22137" lon="5.98202">
        <ele>254.8</ele>
        <time>2021-04-25T10:09:15Z</time>
      </trkpt>
      <trkpt lat="47.22141" lon="5.98202">
        <ele>255</ele>
        <time>2021-04-25T10:09:16Z</time>
      </trkpt>
      <trkpt lat="47.22143" lon="5.98202">
        <ele>255</ele>
        <time>2021-04-25T10:09:17Z</time>
      </trkpt>
      <trkpt lat="47.22146" lon="5.98203">
        <ele>254.8</ele>
        <time>2021-04-25T10:09:18Z</time>
      </trkpt>
      <trkpt lat="47.2215" lon="5.98203">
        <ele>255</ele>
        <time>2021-04-25T10:09:19Z</time>
      </trkpt>
      <trkpt lat="47.22153" lon="5.98204">
        <ele>254.8</ele>
        <time>2021-04-25T10:09:20Z</time>
      </trkpt>
      <trkpt lat="47.22155" lon="5.98205">
        <ele>254.8</ele>
        <time>2021-04-25T10:09:21Z</time>
      </trkpt>
      <trkpt lat="47.22159" lon="5.98207">
        <ele>254.8</ele>
        <time>2021-04-25T10:09:22Z</time>
      </trkpt>
      <trkpt lat="47.22162" lon="5.98209">
        <ele>254.6</ele>
        <time>2021-04-25T10:09:23Z</time>
      </trkpt>
      <trkpt lat="47.22166" lon="5.98211">
        <ele>254.6</ele>
        <time>2021-04-25T10:09:24Z</time>
      </trkpt>
      <trkpt lat="47.22186" lon="5.98218">
        <ele>254</ele>
        <time>2021-04-25T10:09:29Z</time>
      </trkpt>
      <trkpt lat="47.2219" lon="5.98219">
        <ele>254</ele>
        <time>2021-04-25T10:09:30Z</time>
      </trkpt>
      <trkpt lat="47.22193" lon="5.98221">
        <ele>254</ele>
        <time>2021-04-25T10:09:31Z</time>
      </trkpt>
      <trkpt lat="47.22205" lon="5.98232">
        <ele>253.6</ele>
        <time>2021-04-25T10:09:35Z</time>
      </trkpt>
      <trkpt lat="47.22205" lon="5.98237">
        <ele>253.6</ele>
        <time>2021-04-25T10:09:36Z</time>
      </trkpt>
      <trkpt lat="47.22206" lon="5.98242">
        <ele>253.4</ele>
        <time>2021-04-25T10:09:37Z</time>
      </trkpt>
      <trkpt lat="47.22206" lon="5.98246">
        <ele>253.4</ele>
        <time>2021-04-25T10:09:38Z</time>
      </trkpt>
      <trkpt lat="47.22207" lon="5.98249">
        <ele>253.4</ele>
        <time>2021-04-25T10:09:39Z</time>
      </trkpt>
      <trkpt lat="47.22209" lon="5.98252">
        <ele>253.4</ele>
        <time>2021-04-25T10:09:40Z</time>
      </trkpt>
      <trkpt lat="47.22211" lon="5.98254">
        <ele>253.4</ele>
        <time>2021-04-25T10:09:41Z</time>
      </trkpt>
      <trkpt lat="47.22213" lon="5.98254">
        <ele>253.4</ele>
        <time>2021-04-25T10:09:42Z</time>
      </trkpt>
      <trkpt lat="47.22216" lon="5.98254">
        <ele>253.4</ele>
        <time>2021-04-25T10:09:43Z</time>
      </trkpt>
      <trkpt lat="47.22221" lon="5.98253">
        <ele>253.4</ele>
        <time>2021-04-25T10:09:45Z</time>
      </trkpt>
      <trkpt lat="47.22224" lon="5.98252">
        <ele>253.6</ele>
        <time>2021-04-25T10:09:46Z</time>
      </trkpt>
      <trkpt lat="47.22232" lon="5.98246">
        <ele>253.6</ele>
        <time>2021-04-25T10:09:49Z</time>
      </trkpt>
      <trkpt lat="47.22234" lon="5.98244">
        <ele>253.8</ele>
        <time>2021-04-25T10:09:50Z</time>
      </trkpt>
      <trkpt lat="47.22247" lon="5.98231">
        <ele>253.8</ele>
        <time>2021-04-25T10:09:54Z</time>
      </trkpt>
      <trkpt lat="47.22254" lon="5.98224">
        <ele>253.8</ele>
        <time>2021-04-25T10:09:56Z</time>
      </trkpt>
      <trkpt lat="47.2226" lon="5.98218">
        <ele>254</ele>
        <time>2021-04-25T10:09:58Z</time>
      </trkpt>
      <trkpt lat="47.22265" lon="5.98216">
        <ele>254</ele>
        <time>2021-04-25T10:09:59Z</time>
      </trkpt>
      <trkpt lat="47.2227" lon="5.98216">
        <ele>254</ele>
        <time>2021-04-25T10:10:00Z</time>
      </trkpt>
      <trkpt lat="47.22279" lon="5.98219">
        <ele>254</ele>
        <time>2021-04-25T10:10:02Z</time>
      </trkpt>
      <trkpt lat="47.22283" lon="5.98221">
        <ele>254.2</ele>
        <time>2021-04-25T10:10:03Z</time>
      </trkpt>
      <trkpt lat="47.22287" lon="5.98223">
        <ele>254.2</ele>
        <time>2021-04-25T10:10:04Z</time>
      </trkpt>
      <trkpt lat="47.2229" lon="5.98226">
        <ele>254.2</ele>
        <time>2021-04-25T10:10:05Z</time>
      </trkpt>
      <trkpt lat="47.22293" lon="5.98229">
        <ele>254.4</ele>
        <time>2021-04-25T10:10:06Z</time>
      </trkpt>
      <trkpt lat="47.22296" lon="5.98231">
        <ele>254.6</ele>
        <time>2021-04-25T10:10:07Z</time>
      </trkpt>
      <trkpt lat="47.22299" lon="5.98234">
        <ele>254.8</ele>
        <time>2021-04-25T10:10:08Z</time>
      </trkpt>
      <trkpt lat="47.22302" lon="5.98237">
        <ele>255.2</ele>
        <time>2021-04-25T10:10:09Z</time>
      </trkpt>
      <trkpt lat="47.22306" lon="5.98239">
        <ele>255.4</ele>
        <time>2021-04-25T10:10:10Z</time>
      </trkpt>
      <trkpt lat="47.22309" lon="5.98241">
        <ele>255.8</ele>
        <time>2021-04-25T10:10:11Z</time>
      </trkpt>
      <trkpt lat="47.22312" lon="5.98244">
        <ele>256</ele>
        <time>2021-04-25T10:10:12Z</time>
      </trkpt>
      <trkpt lat="47.22314" lon="5.98246">
        <ele>256.2</ele>
        <time>2021-04-25T10:10:13Z</time>
      </trkpt>
      <trkpt lat="47.22314" lon="5.98246">
        <ele>256.6</ele>
        <time>2021-04-25T10:10:14Z</time>
      </trkpt>
      <trkpt lat="47.2232" lon="5.98251">
        <ele>256.6</ele>
        <time>2021-04-25T10:10:15Z</time>
      </trkpt>
      <trkpt lat="47.22323" lon="5.98253">
        <ele>256.8</ele>
        <time>2021-04-25T10:10:16Z</time>
      </trkpt>
      <trkpt lat="47.22326" lon="5.98255">
        <ele>257</ele>
        <time>2021-04-25T10:10:17Z</time>
      </trkpt>
      <trkpt lat="47.22329" lon="5.98258">
        <ele>257.4</ele>
        <time>2021-04-25T10:10:18Z</time>
      </trkpt>
      <trkpt lat="47.22332" lon="5.9826">
        <ele>257.4</ele>
        <time>2021-04-25T10:10:19Z</time>
      </trkpt>
      <trkpt lat="47.22334" lon="5.98262">
        <ele>257.6</ele>
        <time>2021-04-25T10:10:20Z</time>
      </trkpt>
      <trkpt lat="47.22337" lon="5.98264">
        <ele>257.8</ele>
        <time>2021-04-25T10:10:21Z</time>
      </trkpt>
      <trkpt lat="47.22337" lon="5.98264">
        <ele>258</ele>
        <time>2021-04-25T10:10:22Z</time>
      </trkpt>
      <trkpt lat="47.22343" lon="5.98269">
        <ele>258</ele>
        <time>2021-04-25T10:10:23Z</time>
      </trkpt>
      <trkpt lat="47.22346" lon="5.98272">
        <ele>258.2</ele>
        <time>2021-04-25T10:10:24Z</time>
      </trkpt>
      <trkpt lat="47.22347" lon="5.98274">
        <ele>258.4</ele>
        <time>2021-04-25T10:10:25Z</time>
      </trkpt>
      <trkpt lat="47.22349" lon="5.98276">
        <ele>258.4</ele>
        <time>2021-04-25T10:10:26Z</time>
      </trkpt>
      <trkpt lat="47.22351" lon="5.98279">
        <ele>258.6</ele>
        <time>2021-04-25T10:10:27Z</time>
      </trkpt>
      <trkpt lat="47.22353" lon="5.98281">
        <ele>258.8</ele>
        <time>2021-04-25T10:10:28Z</time>
      </trkpt>
      <trkpt lat="47.22355" lon="5.98284">
        <ele>259</ele>
        <time>2021-04-25T10:10:29Z</time>
      </trkpt>
      <trkpt lat="47.22356" lon="5.98286">
        <ele>259.4</ele>
        <time>2021-04-25T10:10:30Z</time>
      </trkpt>
      <trkpt lat="47.22357" lon="5.98288">
        <ele>259.4</ele>
        <time>2021-04-25T10:10:31Z</time>
      </trkpt>
      <trkpt lat="47.22359" lon="5.9829">
        <ele>259.8</ele>
        <time>2021-04-25T10:10:32Z</time>
      </trkpt>
      <trkpt lat="47.2236" lon="5.98293">
        <ele>259.8</ele>
        <time>2021-04-25T10:10:33Z</time>
      </trkpt>
      <trkpt lat="47.22362" lon="5.98295">
        <ele>260.2</ele>
        <time>2021-04-25T10:10:34Z</time>
      </trkpt>
      <trkpt lat="47.22363" lon="5.98298">
        <ele>260.2</ele>
        <time>2021-04-25T10:10:35Z</time>
      </trkpt>
      <trkpt lat="47.22365" lon="5.983">
        <ele>260.6</ele>
        <time>2021-04-25T10:10:36Z</time>
      </trkpt>
      <trkpt lat="47.22366" lon="5.98303">
        <ele>261</ele>
        <time>2021-04-25T10:10:37Z</time>
      </trkpt>
      <trkpt lat="47.22367" lon="5.98305">
        <ele>261</ele>
        <time>2021-04-25T10:10:38Z</time>
      </trkpt>
      <trkpt lat="47.22369" lon="5.98307">
        <ele>261.2</ele>
        <time>2021-04-25T10:10:39Z</time>
      </trkpt>
      <trkpt lat="47.2237" lon="5.9831">
        <ele>261.2</ele>
        <time>2021-04-25T10:10:40Z</time>
      </trkpt>
      <trkpt lat="47.22371" lon="5.98312">
        <ele>261.8</ele>
        <time>2021-04-25T10:10:41Z</time>
      </trkpt>
      <trkpt lat="47.22373" lon="5.98314">
        <ele>262</ele>
        <time>2021-04-25T10:10:42Z</time>
      </trkpt>
      <trkpt lat="47.22374" lon="5.98316">
        <ele>262.2</ele>
        <time>2021-04-25T10:10:43Z</time>
      </trkpt>
      <trkpt lat="47.22375" lon="5.98318">
        <ele>262.4</ele>
        <time>2021-04-25T10:10:44Z</time>
      </trkpt>
      <trkpt lat="47.22377" lon="5.9832">
        <ele>262.4</ele>
        <time>2021-04-25T10:10:45Z</time>
      </trkpt>
      <trkpt lat="47.22378" lon="5.98322">
        <ele>262.8</ele>
        <time>2021-04-25T10:10:46Z</time>
      </trkpt>
      <trkpt lat="47.22379" lon="5.98324">
        <ele>262.8</ele>
        <time>2021-04-25T10:10:47Z</time>
      </trkpt>
      <trkpt lat="47.2238" lon="5.98327">
        <ele>263</ele>
        <time>2021-04-25T10:10:48Z</time>
      </trkpt>
      <trkpt lat="47.22382" lon="5.98329">
        <ele>263.2</ele>
        <time>2021-04-25T10:10:49Z</time>
      </trkpt>
      <trkpt lat="47.22383" lon="5.98331">
        <ele>263.4</ele>
        <time>2021-04-25T10:10:50Z</time>
      </trkpt>
      <trkpt lat="47.22384" lon="5.98333">
        <ele>263.8</ele>
        <time>2021-04-25T10:10:51Z</time>
      </trkpt>
      <trkpt lat="47.22385" lon="5.98336">
        <ele>264</ele>
        <time>2021-04-25T10:10:52Z</time>
      </trkpt>
      <trkpt lat="47.22386" lon="5.98338">
        <ele>264.4</ele>
        <time>2021-04-25T10:10:53Z</time>
      </trkpt>
      <trkpt lat="47.22387" lon="5.9834">
        <ele>264.4</ele>
        <time>2021-04-25T10:10:54Z</time>
      </trkpt>
      <trkpt lat="47.22388" lon="5.98342">
        <ele>264.8</ele>
        <time>2021-04-25T10:10:55Z</time>
      </trkpt>
      <trkpt lat="47.2239" lon="5.98344">
        <ele>264.8</ele>
        <time>2021-04-25T10:10:56Z</time>
      </trkpt>
      <trkpt lat="47.22391" lon="5.98346">
        <ele>265.2</ele>
        <time>2021-04-25T10:10:57Z</time>
      </trkpt>
      <trkpt lat="47.22392" lon="5.98348">
        <ele>265.4</ele>
        <time>2021-04-25T10:10:58Z</time>
      </trkpt>
      <trkpt lat="47.22393" lon="5.9835">
        <ele>265.6</ele>
        <time>2021-04-25T10:10:59Z</time>
      </trkpt>
      <trkpt lat="47.22394" lon="5.98352">
        <ele>266</ele>
        <time>2021-04-25T10:11:00Z</time>
      </trkpt>
      <trkpt lat="47.22395" lon="5.98353">
        <ele>266.2</ele>
        <time>2021-04-25T10:11:01Z</time>
      </trkpt>
      <trkpt lat="47.22396" lon="5.98355">
        <ele>266.4</ele>
        <time>2021-04-25T10:11:02Z</time>
      </trkpt>
      <trkpt lat="47.22397" lon="5.98357">
        <ele>266.6</ele>
        <time>2021-04-25T10:11:03Z</time>
      </trkpt>
      <trkpt lat="47.22399" lon="5.98358">
        <ele>266.8</ele>
        <time>2021-04-25T10:11:04Z</time>
      </trkpt>
      <trkpt lat="47.224" lon="5.9836">
        <ele>267</ele>
        <time>2021-04-25T10:11:05Z</time>
      </trkpt>
      <trkpt lat="47.22402" lon="5.98361">
        <ele>267.2</ele>
        <time>2021-04-25T10:11:06Z</time>
      </trkpt>
      <trkpt lat="47.22403" lon="5.98362">
        <ele>267.4</ele>
        <time>2021-04-25T10:11:07Z</time>
      </trkpt>
      <trkpt lat="47.22405" lon="5.98364">
        <ele>267.4</ele>
        <time>2021-04-25T10:11:08Z</time>
      </trkpt>
      <trkpt lat="47.22406" lon="5.98365">
        <ele>267.8</ele>
        <time>2021-04-25T10:11:09Z</time>
      </trkpt>
      <trkpt lat="47.22408" lon="5.98365">
        <ele>268</ele>
        <time>2021-04-25T10:11:10Z</time>
      </trkpt>
      <trkpt lat="47.22409" lon="5.98366">
        <ele>268.2</ele>
        <time>2021-04-25T10:11:11Z</time>
      </trkpt>
      <trkpt lat="47.22411" lon="5.98366">
        <ele>268.2</ele>
        <time>2021-04-25T10:11:12Z</time>
      </trkpt>
      <trkpt lat="47.22413" lon="5.98366">
        <ele>268.6</ele>
        <time>2021-04-25T10:11:13Z</time>
      </trkpt>
      <trkpt lat="47.22415" lon="5.98367">
        <ele>269</ele>
        <time>2021-04-25T10:11:14Z</time>
      </trkpt>
      <trkpt lat="47.22416" lon="5.98366">
        <ele>269</ele>
        <time>2021-04-25T10:11:15Z</time>
      </trkpt>
      <trkpt lat="47.22418" lon="5.98366">
        <ele>269.2</ele>
        <time>2021-04-25T10:11:16Z</time>
      </trkpt>
      <trkpt lat="47.2242" lon="5.98366">
        <ele>269.2</ele>
        <time>2021-04-25T10:11:17Z</time>
      </trkpt>
      <trkpt lat="47.22421" lon="5.98366">
        <ele>269.6</ele>
        <time>2021-04-25T10:11:18Z</time>
      </trkpt>
      <trkpt lat="47.22421" lon="5.98366">
        <ele>269.6</ele>
        <time>2021-04-25T10:11:19Z</time>
      </trkpt>
      <trkpt lat="47.22425" lon="5.98365">
        <ele>269.8</ele>
        <time>2021-04-25T10:11:20Z</time>
      </trkpt>
      <trkpt lat="47.22426" lon="5.98364">
        <ele>270</ele>
        <time>2021-04-25T10:11:21Z</time>
      </trkpt>
      <trkpt lat="47.22428" lon="5.98363">
        <ele>270</ele>
        <time>2021-04-25T10:11:22Z</time>
      </trkpt>
      <trkpt lat="47.2243" lon="5.98361">
        <ele>270.2</ele>
        <time>2021-04-25T10:11:23Z</time>
      </trkpt>
      <trkpt lat="47.22431" lon="5.9836">
        <ele>270.2</ele>
        <time>2021-04-25T10:11:24Z</time>
      </trkpt>
      <trkpt lat="47.22433" lon="5.98359">
        <ele>270.2</ele>
        <time>2021-04-25T10:11:25Z</time>
      </trkpt>
      <trkpt lat="47.22435" lon="5.98357">
        <ele>270.4</ele>
        <time>2021-04-25T10:11:26Z</time>
      </trkpt>
      <trkpt lat="47.22436" lon="5.98356">
        <ele>270.4</ele>
        <time>2021-04-25T10:11:27Z</time>
      </trkpt>
      <trkpt lat="47.22438" lon="5.98353">
        <ele>270.6</ele>
        <time>2021-04-25T10:11:28Z</time>
      </trkpt>
      <trkpt lat="47.22439" lon="5.98352">
        <ele>270.6</ele>
        <time>2021-04-25T10:11:29Z</time>
      </trkpt>
      <trkpt lat="47.22441" lon="5.9835">
        <ele>270.8</ele>
        <time>2021-04-25T10:11:30Z</time>
      </trkpt>
      <trkpt lat="47.22443" lon="5.98349">
        <ele>271</ele>
        <time>2021-04-25T10:11:31Z</time>
      </trkpt>
      <trkpt lat="47.22445" lon="5.98347">
        <ele>271</ele>
        <time>2021-04-25T10:11:32Z</time>
      </trkpt>
      <trkpt lat="47.22447" lon="5.98345">
        <ele>271.2</ele>
        <time>2021-04-25T10:11:33Z</time>
      </trkpt>
      <trkpt lat="47.22449" lon="5.98344">
        <ele>271.4</ele>
        <time>2021-04-25T10:11:34Z</time>
      </trkpt>
      <trkpt lat="47.22451" lon="5.98342">
        <ele>271.6</ele>
        <time>2021-04-25T10:11:35Z</time>
      </trkpt>
      <trkpt lat="47.22453" lon="5.98341">
        <ele>271.6</ele>
        <time>2021-04-25T10:11:36Z</time>
      </trkpt>
      <trkpt lat="47.22453" lon="5.98341">
        <ele>271.6</ele>
        <time>2021-04-25T10:11:37Z</time>
      </trkpt>
      <trkpt lat="47.22457" lon="5.98339">
        <ele>271.6</ele>
        <time>2021-04-25T10:11:38Z</time>
      </trkpt>
      <trkpt lat="47.22459" lon="5.98339">
        <ele>271.8</ele>
        <time>2021-04-25T10:11:39Z</time>
      </trkpt>
      <trkpt lat="47.22462" lon="5.98339">
        <ele>271.8</ele>
        <time>2021-04-25T10:11:40Z</time>
      </trkpt>
      <trkpt lat="47.22464" lon="5.98339">
        <ele>271.8</ele>
        <time>2021-04-25T10:11:41Z</time>
      </trkpt>
      <trkpt lat="47.22466" lon="5.98339">
        <ele>272</ele>
        <time>2021-04-25T10:11:42Z</time>
      </trkpt>
      <trkpt lat="47.22468" lon="5.98339">
        <ele>272</ele>
        <time>2021-04-25T10:11:43Z</time>
      </trkpt>
      <trkpt lat="47.2247" lon="5.9834">
        <ele>272.4</ele>
        <time>2021-04-25T10:11:44Z</time>
      </trkpt>
      <trkpt lat="47.22472" lon="5.98341">
        <ele>272.4</ele>
        <time>2021-04-25T10:11:45Z</time>
      </trkpt>
      <trkpt lat="47.22474" lon="5.98342">
        <ele>272.6</ele>
        <time>2021-04-25T10:11:46Z</time>
      </trkpt>
      <trkpt lat="47.22476" lon="5.98343">
        <ele>272.6</ele>
        <time>2021-04-25T10:11:47Z</time>
      </trkpt>
      <trkpt lat="47.22478" lon="5.98344">
        <ele>272.8</ele>
        <time>2021-04-25T10:11:48Z</time>
      </trkpt>
      <trkpt lat="47.2248" lon="5.98345">
        <ele>273</ele>
        <time>2021-04-25T10:11:49Z</time>
      </trkpt>
      <trkpt lat="47.22482" lon="5.98345">
        <ele>273.2</ele>
        <time>2021-04-25T10:11:50Z</time>
      </trkpt>
      <trkpt lat="47.22482" lon="5.98345">
        <ele>273.4</ele>
        <time>2021-04-25T10:11:51Z</time>
      </trkpt>
      <trkpt lat="47.22486" lon="5.98347">
        <ele>273.6</ele>
        <time>2021-04-25T10:11:52Z</time>
      </trkpt>
      <trkpt lat="47.22488" lon="5.98348">
        <ele>273.8</ele>
        <time>2021-04-25T10:11:53Z</time>
      </trkpt>
      <trkpt lat="47.2249" lon="5.98349">
        <ele>274</ele>
        <time>2021-04-25T10:11:54Z</time>
      </trkpt>
      <trkpt lat="47.22492" lon="5.98349">
        <ele>274</ele>
        <time>2021-04-25T10:11:55Z</time>
      </trkpt>
      <trkpt lat="47.22494" lon="5.98349">
        <ele>274.2</ele>
        <time>2021-04-25T10:11:56Z</time>
      </trkpt>
      <trkpt lat="47.22496" lon="5.9835">
        <ele>274.2</ele>
        <time>2021-04-25T10:11:57Z</time>
      </trkpt>
      <trkpt lat="47.22498" lon="5.98351">
        <ele>274.4</ele>
        <time>2021-04-25T10:11:58Z</time>
      </trkpt>
      <trkpt lat="47.225" lon="5.98352">
        <ele>274.4</ele>
        <time>2021-04-25T10:11:59Z</time>
      </trkpt>
      <trkpt lat="47.22502" lon="5.98352">
        <ele>274.4</ele>
        <time>2021-04-25T10:12:00Z</time>
      </trkpt>
      <trkpt lat="47.22504" lon="5.98353">
        <ele>274.6</ele>
        <time>2021-04-25T10:12:01Z</time>
      </trkpt>
      <trkpt lat="47.22506" lon="5.98354">
        <ele>274.6</ele>
        <time>2021-04-25T10:12:02Z</time>
      </trkpt>
      <trkpt lat="47.22508" lon="5.98355">
        <ele>274.8</ele>
        <time>2021-04-25T10:12:03Z</time>
      </trkpt>
      <trkpt lat="47.2251" lon="5.98356">
        <ele>274.8</ele>
        <time>2021-04-25T10:12:04Z</time>
      </trkpt>
      <trkpt lat="47.22512" lon="5.98357">
        <ele>275</ele>
        <time>2021-04-25T10:12:05Z</time>
      </trkpt>
      <trkpt lat="47.22514" lon="5.98358">
        <ele>275</ele>
        <time>2021-04-25T10:12:06Z</time>
      </trkpt>
      <trkpt lat="47.22515" lon="5.98359">
        <ele>275</ele>
        <time>2021-04-25T10:12:07Z</time>
      </trkpt>
      <trkpt lat="47.22517" lon="5.9836">
        <ele>275</ele>
        <time>2021-04-25T10:12:08Z</time>
      </trkpt>
      <trkpt lat="47.22519" lon="5.98361">
        <ele>275</ele>
        <time>2021-04-25T10:12:09Z</time>
      </trkpt>
      <trkpt lat="47.22521" lon="5.98362">
        <ele>275</ele>
        <time>2021-04-25T10:12:10Z</time>
      </trkpt>
      <trkpt lat="47.22523" lon="5.98363">
        <ele>275</ele>
        <time>2021-04-25T10:12:11Z</time>
      </trkpt>
      <trkpt lat="47.22525" lon="5.98364">
        <ele>275.2</ele>
        <time>2021-04-25T10:12:12Z</time>
      </trkpt>
      <trkpt lat="47.22528" lon="5.98365">
        <ele>275.2</ele>
        <time>2021-04-25T10:12:13Z</time>
      </trkpt>
      <trkpt lat="47.22539" lon="5.98371">
        <ele>275.4</ele>
        <time>2021-04-25T10:12:19Z</time>
      </trkpt>
      <trkpt lat="47.22559" lon="5.98382">
        <ele>275.4</ele>
        <time>2021-04-25T10:12:26Z</time>
      </trkpt>
      <trkpt lat="47.2257" lon="5.98389">
        <ele>276</ele>
        <time>2021-04-25T10:12:31Z</time>
      </trkpt>
      <trkpt lat="47.22572" lon="5.9839">
        <ele>276.2</ele>
        <time>2021-04-25T10:12:32Z</time>
      </trkpt>
      <trkpt lat="47.22574" lon="5.9839">
        <ele>276.4</ele>
        <time>2021-04-25T10:12:33Z</time>
      </trkpt>
      <trkpt lat="47.22577" lon="5.98391">
        <ele>276.4</ele>
        <time>2021-04-25T10:12:34Z</time>
      </trkpt>
      <trkpt lat="47.22579" lon="5.98393">
        <ele>276.4</ele>
        <time>2021-04-25T10:12:35Z</time>
      </trkpt>
      <trkpt lat="47.22581" lon="5.98394">
        <ele>276.6</ele>
        <time>2021-04-25T10:12:36Z</time>
      </trkpt>
      <trkpt lat="47.22583" lon="5.98396">
        <ele>276.6</ele>
        <time>2021-04-25T10:12:37Z</time>
      </trkpt>
      <trkpt lat="47.22601" lon="5.98416">
        <ele>276.8</ele>
        <time>2021-04-25T10:12:46Z</time>
      </trkpt>
      <trkpt lat="47.2262" lon="5.98436">
        <ele>277</ele>
        <time>2021-04-25T10:12:55Z</time>
      </trkpt>
      <trkpt lat="47.22621" lon="5.98437">
        <ele>277</ele>
        <time>2021-04-25T10:12:56Z</time>
      </trkpt>
      <trkpt lat="47.22623" lon="5.98439">
        <ele>277</ele>
        <time>2021-04-25T10:12:57Z</time>
      </trkpt>
      <trkpt lat="47.22625" lon="5.98442">
        <ele>277</ele>
        <time>2021-04-25T10:12:59Z</time>
      </trkpt>
      <trkpt lat="47.22629" lon="5.98445">
        <ele>277</ele>
        <time>2021-04-25T10:13:02Z</time>
      </trkpt>
      <trkpt lat="47.2263" lon="5.98447">
        <ele>276.8</ele>
        <time>2021-04-25T10:13:03Z</time>
      </trkpt>
      <trkpt lat="47.22631" lon="5.98448">
        <ele>276.8</ele>
        <time>2021-04-25T10:13:04Z</time>
      </trkpt>
      <trkpt lat="47.22632" lon="5.9845">
        <ele>276.8</ele>
        <time>2021-04-25T10:13:05Z</time>
      </trkpt>
      <trkpt lat="47.22634" lon="5.98451">
        <ele>276.8</ele>
        <time>2021-04-25T10:13:06Z</time>
      </trkpt>
      <trkpt lat="47.22635" lon="5.98453">
        <ele>276.6</ele>
        <time>2021-04-25T10:13:07Z</time>
      </trkpt>
      <trkpt lat="47.22637" lon="5.98455">
        <ele>276.6</ele>
        <time>2021-04-25T10:13:08Z</time>
      </trkpt>
      <trkpt lat="47.22645" lon="5.98467">
        <ele>276.6</ele>
        <time>2021-04-25T10:13:13Z</time>
      </trkpt>
      <trkpt lat="47.22656" lon="5.98489">
        <ele>276.8</ele>
        <time>2021-04-25T10:13:20Z</time>
      </trkpt>
      <trkpt lat="47.22659" lon="5.98492">
        <ele>276.8</ele>
        <time>2021-04-25T10:13:22Z</time>
      </trkpt>
      <trkpt lat="47.22659" lon="5.98492">
        <ele>277</ele>
        <time>2021-04-25T10:13:23Z</time>
      </trkpt>
      <trkpt lat="47.22662" lon="5.98497">
        <ele>277</ele>
        <time>2021-04-25T10:13:24Z</time>
      </trkpt>
      <trkpt lat="47.22663" lon="5.985">
        <ele>277</ele>
        <time>2021-04-25T10:13:25Z</time>
      </trkpt>
      <trkpt lat="47.22669" lon="5.98509">
        <ele>277.2</ele>
        <time>2021-04-25T10:13:28Z</time>
      </trkpt>
      <trkpt lat="47.22687" lon="5.98542">
        <ele>277.6</ele>
        <time>2021-04-25T10:13:38Z</time>
      </trkpt>
      <trkpt lat="47.22689" lon="5.98545">
        <ele>277.8</ele>
        <time>2021-04-25T10:13:40Z</time>
      </trkpt>
      <trkpt lat="47.22693" lon="5.98556">
        <ele>278</ele>
        <time>2021-04-25T10:13:42Z</time>
      </trkpt>
      <trkpt lat="47.22693" lon="5.98556">
        <ele>278</ele>
        <time>2021-04-25T10:13:43Z</time>
      </trkpt>
      <trkpt lat="47.22696" lon="5.98562">
        <ele>278.2</ele>
        <time>2021-04-25T10:13:44Z</time>
      </trkpt>
      <trkpt lat="47.22698" lon="5.98564">
        <ele>278.2</ele>
        <time>2021-04-25T10:13:45Z</time>
      </trkpt>
      <trkpt lat="47.227" lon="5.98565">
        <ele>278.4</ele>
        <time>2021-04-25T10:13:46Z</time>
      </trkpt>
      <trkpt lat="47.22703" lon="5.98567">
        <ele>278.4</ele>
        <time>2021-04-25T10:13:47Z</time>
      </trkpt>
      <trkpt lat="47.22705" lon="5.98567">
        <ele>278.6</ele>
        <time>2021-04-25T10:13:48Z</time>
      </trkpt>
      <trkpt lat="47.22707" lon="5.98568">
        <ele>278.8</ele>
        <time>2021-04-25T10:13:49Z</time>
      </trkpt>
      <trkpt lat="47.22709" lon="5.9857">
        <ele>278.8</ele>
        <time>2021-04-25T10:13:50Z</time>
      </trkpt>
      <trkpt lat="47.22712" lon="5.98571">
        <ele>279.2</ele>
        <time>2021-04-25T10:13:51Z</time>
      </trkpt>
      <trkpt lat="47.22714" lon="5.98573">
        <ele>279.2</ele>
        <time>2021-04-25T10:13:52Z</time>
      </trkpt>
      <trkpt lat="47.22725" lon="5.98579">
        <ele>279.8</ele>
        <time>2021-04-25T10:13:56Z</time>
      </trkpt>
      <trkpt lat="47.2274" lon="5.98585">
        <ele>280.2</ele>
        <time>2021-04-25T10:14:01Z</time>
      </trkpt>
      <trkpt lat="47.22743" lon="5.98585">
        <ele>280.2</ele>
        <time>2021-04-25T10:14:02Z</time>
      </trkpt>
      <trkpt lat="47.22746" lon="5.98586">
        <ele>280.2</ele>
        <time>2021-04-25T10:14:03Z</time>
      </trkpt>
      <trkpt lat="47.2275" lon="5.98587">
        <ele>280.4</ele>
        <time>2021-04-25T10:14:04Z</time>
      </trkpt>
      <trkpt lat="47.22754" lon="5.98587">
        <ele>280.4</ele>
        <time>2021-04-25T10:14:05Z</time>
      </trkpt>
      <trkpt lat="47.22757" lon="5.98587">
        <ele>280.4</ele>
        <time>2021-04-25T10:14:06Z</time>
      </trkpt>
      <trkpt lat="47.22761" lon="5.98587">
        <ele>280.6</ele>
        <time>2021-04-25T10:14:07Z</time>
      </trkpt>
      <trkpt lat="47.22776" lon="5.98587">
        <ele>280.8</ele>
        <time>2021-04-25T10:14:11Z</time>
      </trkpt>
      <trkpt lat="47.22801" lon="5.98589">
        <ele>282</ele>
        <time>2021-04-25T10:14:18Z</time>
      </trkpt>
      <trkpt lat="47.22804" lon="5.98589">
        <ele>282</ele>
        <time>2021-04-25T10:14:19Z</time>
      </trkpt>
      <trkpt lat="47.22807" lon="5.98589">
        <ele>282.2</ele>
        <time>2021-04-25T10:14:20Z</time>
      </trkpt>
      <trkpt lat="47.2281" lon="5.98589">
        <ele>282.2</ele>
        <time>2021-04-25T10:14:21Z</time>
      </trkpt>
      <trkpt lat="47.22813" lon="5.98589">
        <ele>282.2</ele>
        <time>2021-04-25T10:14:22Z</time>
      </trkpt>
      <trkpt lat="47.22815" lon="5.98589">
        <ele>282.4</ele>
        <time>2021-04-25T10:14:23Z</time>
      </trkpt>
      <trkpt lat="47.22819" lon="5.9859">
        <ele>282.6</ele>
        <time>2021-04-25T10:14:24Z</time>
      </trkpt>
      <trkpt lat="47.22821" lon="5.98589">
        <ele>282.6</ele>
        <time>2021-04-25T10:14:25Z</time>
      </trkpt>
      <trkpt lat="47.22824" lon="5.98589">
        <ele>282.6</ele>
        <time>2021-04-25T10:14:26Z</time>
      </trkpt>
      <trkpt lat="47.22827" lon="5.98589">
        <ele>282.8</ele>
        <time>2021-04-25T10:14:27Z</time>
      </trkpt>
      <trkpt lat="47.2283" lon="5.98589">
        <ele>282.8</ele>
        <time>2021-04-25T10:14:28Z</time>
      </trkpt>
      <trkpt lat="47.22833" lon="5.98589">
        <ele>282.8</ele>
        <time>2021-04-25T10:14:29Z</time>
      </trkpt>
      <trkpt lat="47.22835" lon="5.98591">
        <ele>282.8</ele>
        <time>2021-04-25T10:14:30Z</time>
      </trkpt>
      <trkpt lat="47.22837" lon="5.98593">
        <ele>283</ele>
        <time>2021-04-25T10:14:31Z</time>
      </trkpt>
      <trkpt lat="47.22839" lon="5.98596">
        <ele>283</ele>
        <time>2021-04-25T10:14:32Z</time>
      </trkpt>
      <trkpt lat="47.2284" lon="5.986">
        <ele>283.4</ele>
        <time>2021-04-25T10:14:33Z</time>
      </trkpt>
      <trkpt lat="47.2284" lon="5.98604">
        <ele>283.6</ele>
        <time>2021-04-25T10:14:34Z</time>
      </trkpt>
      <trkpt lat="47.22842" lon="5.98611">
        <ele>283.8</ele>
        <time>2021-04-25T10:14:36Z</time>
      </trkpt>
      <trkpt lat="47.22843" lon="5.98614">
        <ele>284</ele>
        <time>2021-04-25T10:14:37Z</time>
      </trkpt>
      <trkpt lat="47.22844" lon="5.98618">
        <ele>284</ele>
        <time>2021-04-25T10:14:38Z</time>
      </trkpt>
      <trkpt lat="47.22845" lon="5.98622">
        <ele>284.2</ele>
        <time>2021-04-25T10:14:39Z</time>
      </trkpt>
      <trkpt lat="47.22846" lon="5.98625">
        <ele>284.4</ele>
        <time>2021-04-25T10:14:40Z</time>
      </trkpt>
      <trkpt lat="47.22846" lon="5.98626">
        <ele>284.4</ele>
        <time>2021-04-25T10:14:41Z</time>
      </trkpt>
      <trkpt lat="47.22846" lon="5.98626">
        <ele>284.4</ele>
        <time>2021-04-25T10:14:42Z</time>
      </trkpt>
      <trkpt lat="47.22846" lon="5.98626">
        <ele>284.6</ele>
        <time>2021-04-25T10:14:43Z</time>
      </trkpt>
      <trkpt lat="47.22847" lon="5.98628">
        <ele>285</ele>
        <time>2021-04-25T10:14:46Z</time>
      </trkpt>
      <trkpt lat="47.22848" lon="5.98629">
        <ele>285</ele>
        <time>2021-04-25T10:14:47Z</time>
      </trkpt>
      <trkpt lat="47.2285" lon="5.98631">
        <ele>285</ele>
        <time>2021-04-25T10:14:48Z</time>
      </trkpt>
      <trkpt lat="47.2285" lon="5.98633">
        <ele>285.2</ele>
        <time>2021-04-25T10:14:49Z</time>
      </trkpt>
      <trkpt lat="47.22851" lon="5.98636">
        <ele>285.2</ele>
        <time>2021-04-25T10:14:50Z</time>
      </trkpt>
      <trkpt lat="47.22852" lon="5.98638">
        <ele>285.2</ele>
        <time>2021-04-25T10:14:51Z</time>
      </trkpt>
      <trkpt lat="47.22852" lon="5.9864">
        <ele>285.2</ele>
        <time>2021-04-25T10:14:52Z</time>
      </trkpt>
      <trkpt lat="47.22853" lon="5.98642">
        <ele>285.2</ele>
        <time>2021-04-25T10:14:53Z</time>
      </trkpt>
      <trkpt lat="47.22853" lon="5.98644">
        <ele>285.2</ele>
        <time>2021-04-25T10:14:54Z</time>
      </trkpt>
      <trkpt lat="47.22854" lon="5.98644">
        <ele>285.2</ele>
        <time>2021-04-25T10:14:55Z</time>
      </trkpt>
      <trkpt lat="47.22854" lon="5.98644">
        <ele>285.2</ele>
        <time>2021-04-25T10:14:57Z</time>
      </trkpt>
      <trkpt lat="47.22855" lon="5.98644">
        <ele>285.2</ele>
        <time>2021-04-25T10:14:58Z</time>
      </trkpt>
      <trkpt lat="47.22867" lon="5.9864">
        <ele>285.4</ele>
        <time>2021-04-25T10:15:03Z</time>
      </trkpt>
      <trkpt lat="47.22869" lon="5.98639">
        <ele>285.4</ele>
        <time>2021-04-25T10:15:04Z</time>
      </trkpt>
      <trkpt lat="47.22875" lon="5.98638">
        <ele>285.4</ele>
        <time>2021-04-25T10:15:06Z</time>
      </trkpt>
      <trkpt lat="47.22886" lon="5.98636">
        <ele>285.4</ele>
        <time>2021-04-25T10:15:09Z</time>
      </trkpt>
      <trkpt lat="47.229" lon="5.98638">
        <ele>285</ele>
        <time>2021-04-25T10:15:13Z</time>
      </trkpt>
      <trkpt lat="47.22904" lon="5.98639">
        <ele>285</ele>
        <time>2021-04-25T10:15:14Z</time>
      </trkpt>
      <trkpt lat="47.22921" lon="5.98648">
        <ele>285</ele>
        <time>2021-04-25T10:15:19Z</time>
      </trkpt>
      <trkpt lat="47.22933" lon="5.98646">
        <ele>285</ele>
        <time>2021-04-25T10:15:22Z</time>
      </trkpt>
      <trkpt lat="47.22937" lon="5.98644">
        <ele>285</ele>
        <time>2021-04-25T10:15:23Z</time>
      </trkpt>
      <trkpt lat="47.22953" lon="5.98625">
        <ele>285</ele>
        <time>2021-04-25T10:15:28Z</time>
      </trkpt>
      <trkpt lat="47.22979" lon="5.986">
        <ele>284.4</ele>
        <time>2021-04-25T10:15:34Z</time>
      </trkpt>
      <trkpt lat="47.22995" lon="5.98585">
        <ele>284</ele>
        <time>2021-04-25T10:15:37Z</time>
      </trkpt>
      <trkpt lat="47.23001" lon="5.98581">
        <ele>283.8</ele>
        <time>2021-04-25T10:15:38Z</time>
      </trkpt>
      <trkpt lat="47.23012" lon="5.98576">
        <ele>283</ele>
        <time>2021-04-25T10:15:40Z</time>
      </trkpt>
      <trkpt lat="47.23017" lon="5.98576">
        <ele>282.8</ele>
        <time>2021-04-25T10:15:41Z</time>
      </trkpt>
      <trkpt lat="47.23023" lon="5.98577">
        <ele>282.4</ele>
        <time>2021-04-25T10:15:42Z</time>
      </trkpt>
      <trkpt lat="47.23028" lon="5.9858">
        <ele>281.8</ele>
        <time>2021-04-25T10:15:43Z</time>
      </trkpt>
      <trkpt lat="47.23035" lon="5.98584">
        <ele>281.6</ele>
        <time>2021-04-25T10:15:44Z</time>
      </trkpt>
      <trkpt lat="47.23039" lon="5.98587">
        <ele>281.2</ele>
        <time>2021-04-25T10:15:45Z</time>
      </trkpt>
      <trkpt lat="47.23043" lon="5.98592">
        <ele>281</ele>
        <time>2021-04-25T10:15:46Z</time>
      </trkpt>
      <trkpt lat="47.23048" lon="5.98598">
        <ele>280.8</ele>
        <time>2021-04-25T10:15:47Z</time>
      </trkpt>
      <trkpt lat="47.23052" lon="5.98603">
        <ele>280.6</ele>
        <time>2021-04-25T10:15:48Z</time>
      </trkpt>
      <trkpt lat="47.23055" lon="5.98607">
        <ele>280.6</ele>
        <time>2021-04-25T10:15:49Z</time>
      </trkpt>
      <trkpt lat="47.23059" lon="5.98611">
        <ele>280.6</ele>
        <time>2021-04-25T10:15:50Z</time>
      </trkpt>
      <trkpt lat="47.23062" lon="5.98617">
        <ele>280.4</ele>
        <time>2021-04-25T10:15:51Z</time>
      </trkpt>
      <trkpt lat="47.23065" lon="5.9862">
        <ele>280.4</ele>
        <time>2021-04-25T10:15:52Z</time>
      </trkpt>
      <trkpt lat="47.23068" lon="5.98626">
        <ele>280.2</ele>
        <time>2021-04-25T10:15:53Z</time>
      </trkpt>
      <trkpt lat="47.23075" lon="5.98635">
        <ele>280.2</ele>
        <time>2021-04-25T10:15:55Z</time>
      </trkpt>
      <trkpt lat="47.23078" lon="5.9864">
        <ele>280.2</ele>
        <time>2021-04-25T10:15:56Z</time>
      </trkpt>
      <trkpt lat="47.23102" lon="5.98676">
        <ele>280</ele>
        <time>2021-04-25T10:16:03Z</time>
      </trkpt>
      <trkpt lat="47.23137" lon="5.98727">
        <ele>280.6</ele>
        <time>2021-04-25T10:16:13Z</time>
      </trkpt>
      <trkpt lat="47.2314" lon="5.98732">
        <ele>280.6</ele>
        <time>2021-04-25T10:16:14Z</time>
      </trkpt>
      <trkpt lat="47.23149" lon="5.98746">
        <ele>280.8</ele>
        <time>2021-04-25T10:16:17Z</time>
      </trkpt>
      <trkpt lat="47.23151" lon="5.98751">
        <ele>280.8</ele>
        <time>2021-04-25T10:16:18Z</time>
      </trkpt>
      <trkpt lat="47.23153" lon="5.98756">
        <ele>280.8</ele>
        <time>2021-04-25T10:16:19Z</time>
      </trkpt>
      <trkpt lat="47.23156" lon="5.98761">
        <ele>281</ele>
        <time>2021-04-25T10:16:20Z</time>
      </trkpt>
      <trkpt lat="47.23167" lon="5.98787">
        <ele>281.6</ele>
        <time>2021-04-25T10:16:25Z</time>
      </trkpt>
      <trkpt lat="47.2317" lon="5.98792">
        <ele>281.6</ele>
        <time>2021-04-25T10:16:26Z</time>
      </trkpt>
      <trkpt lat="47.2317" lon="5.98792">
        <ele>282</ele>
        <time>2021-04-25T10:16:27Z</time>
      </trkpt>
      <trkpt lat="47.23183" lon="5.98815">
        <ele>282.2</ele>
        <time>2021-04-25T10:16:31Z</time>
      </trkpt>
      <trkpt lat="47.23192" lon="5.98826">
        <ele>282.4</ele>
        <time>2021-04-25T10:16:34Z</time>
      </trkpt>
      <trkpt lat="47.23195" lon="5.9883">
        <ele>282.4</ele>
        <time>2021-04-25T10:16:35Z</time>
      </trkpt>
      <trkpt lat="47.23214" lon="5.9885">
        <ele>282.6</ele>
        <time>2021-04-25T10:16:40Z</time>
      </trkpt>
      <trkpt lat="47.23218" lon="5.98854">
        <ele>282.6</ele>
        <time>2021-04-25T10:16:41Z</time>
      </trkpt>
      <trkpt lat="47.23227" lon="5.98859">
        <ele>282.4</ele>
        <time>2021-04-25T10:16:43Z</time>
      </trkpt>
      <trkpt lat="47.23232" lon="5.98861">
        <ele>282.4</ele>
        <time>2021-04-25T10:16:44Z</time>
      </trkpt>
      <trkpt lat="47.23237" lon="5.98862">
        <ele>282.2</ele>
        <time>2021-04-25T10:16:45Z</time>
      </trkpt>
      <trkpt lat="47.23242" lon="5.98861">
        <ele>282</ele>
        <time>2021-04-25T10:16:46Z</time>
      </trkpt>
      <trkpt lat="47.23247" lon="5.98858">
        <ele>282</ele>
        <time>2021-04-25T10:16:47Z</time>
      </trkpt>
      <trkpt lat="47.23252" lon="5.98854">
        <ele>281.8</ele>
        <time>2021-04-25T10:16:48Z</time>
      </trkpt>
      <trkpt lat="47.23257" lon="5.98849">
        <ele>281.6</ele>
        <time>2021-04-25T10:16:49Z</time>
      </trkpt>
      <trkpt lat="47.23263" lon="5.98846">
        <ele>281.4</ele>
        <time>2021-04-25T10:16:50Z</time>
      </trkpt>
      <trkpt lat="47.23269" lon="5.98845">
        <ele>281.2</ele>
        <time>2021-04-25T10:16:51Z</time>
      </trkpt>
      <trkpt lat="47.23275" lon="5.98848">
        <ele>280.8</ele>
        <time>2021-04-25T10:16:52Z</time>
      </trkpt>
      <trkpt lat="47.2328" lon="5.98852">
        <ele>280.6</ele>
        <time>2021-04-25T10:16:53Z</time>
      </trkpt>
      <trkpt lat="47.23284" lon="5.98858">
        <ele>280.6</ele>
        <time>2021-04-25T10:16:54Z</time>
      </trkpt>
      <trkpt lat="47.23288" lon="5.98863">
        <ele>280.4</ele>
        <time>2021-04-25T10:16:55Z</time>
      </trkpt>
      <trkpt lat="47.23291" lon="5.98869">
        <ele>280.2</ele>
        <time>2021-04-25T10:16:56Z</time>
      </trkpt>
      <trkpt lat="47.23294" lon="5.98874">
        <ele>280</ele>
        <time>2021-04-25T10:16:57Z</time>
      </trkpt>
      <trkpt lat="47.233" lon="5.98886">
        <ele>279.2</ele>
        <time>2021-04-25T10:16:59Z</time>
      </trkpt>
      <trkpt lat="47.23304" lon="5.98892">
        <ele>279</ele>
        <time>2021-04-25T10:17:00Z</time>
      </trkpt>
      <trkpt lat="47.23307" lon="5.98897">
        <ele>279</ele>
        <time>2021-04-25T10:17:01Z</time>
      </trkpt>
      <trkpt lat="47.23311" lon="5.98902">
        <ele>278.8</ele>
        <time>2021-04-25T10:17:02Z</time>
      </trkpt>
      <trkpt lat="47.23314" lon="5.98907">
        <ele>278.8</ele>
        <time>2021-04-25T10:17:03Z</time>
      </trkpt>
      <trkpt lat="47.23318" lon="5.98912">
        <ele>278.6</ele>
        <time>2021-04-25T10:17:04Z</time>
      </trkpt>
      <trkpt lat="47.23321" lon="5.98916">
        <ele>278.6</ele>
        <time>2021-04-25T10:17:05Z</time>
      </trkpt>
      <trkpt lat="47.23324" lon="5.98921">
        <ele>278.6</ele>
        <time>2021-04-25T10:17:06Z</time>
      </trkpt>
      <trkpt lat="47.23327" lon="5.98926">
        <ele>278.6</ele>
        <time>2021-04-25T10:17:07Z</time>
      </trkpt>
      <trkpt lat="47.2333" lon="5.98929">
        <ele>278.6</ele>
        <time>2021-04-25T10:17:08Z</time>
      </trkpt>
      <trkpt lat="47.23333" lon="5.98933">
        <ele>278.4</ele>
        <time>2021-04-25T10:17:09Z</time>
      </trkpt>
      <trkpt lat="47.23337" lon="5.98936">
        <ele>278.4</ele>
        <time>2021-04-25T10:17:10Z</time>
      </trkpt>
      <trkpt lat="47.23341" lon="5.98939">
        <ele>278.2</ele>
        <time>2021-04-25T10:17:11Z</time>
      </trkpt>
      <trkpt lat="47.23345" lon="5.98941">
        <ele>278.2</ele>
        <time>2021-04-25T10:17:12Z</time>
      </trkpt>
      <trkpt lat="47.23354" lon="5.98943">
        <ele>278</ele>
        <time>2021-04-25T10:17:14Z</time>
      </trkpt>
      <trkpt lat="47.2336" lon="5.98943">
        <ele>278</ele>
        <time>2021-04-25T10:17:15Z</time>
      </trkpt>
      <trkpt lat="47.23395" lon="5.98944">
        <ele>277.2</ele>
        <time>2021-04-25T10:17:22Z</time>
      </trkpt>
      <trkpt lat="47.23431" lon="5.9895">
        <ele>276.8</ele>
        <time>2021-04-25T10:17:29Z</time>
      </trkpt>
      <trkpt lat="47.23435" lon="5.98951">
        <ele>276.4</ele>
        <time>2021-04-25T10:17:30Z</time>
      </trkpt>
      <trkpt lat="47.23435" lon="5.98951">
        <ele>276.2</ele>
        <time>2021-04-25T10:17:31Z</time>
      </trkpt>
      <trkpt lat="47.23449" lon="5.98954">
        <ele>276</ele>
        <time>2021-04-25T10:17:33Z</time>
      </trkpt>
      <trkpt lat="47.23449" lon="5.98954">
        <ele>276</ele>
        <time>2021-04-25T10:17:34Z</time>
      </trkpt>
      <trkpt lat="47.23457" lon="5.98955">
        <ele>276</ele>
        <time>2021-04-25T10:17:35Z</time>
      </trkpt>
      <trkpt lat="47.23462" lon="5.98955">
        <ele>276</ele>
        <time>2021-04-25T10:17:36Z</time>
      </trkpt>
      <trkpt lat="47.23462" lon="5.98955">
        <ele>275.8</ele>
        <time>2021-04-25T10:17:37Z</time>
      </trkpt>
      <trkpt lat="47.23503" lon="5.98954">
        <ele>275.8</ele>
        <time>2021-04-25T10:17:45Z</time>
      </trkpt>
      <trkpt lat="47.2353" lon="5.98945">
        <ele>275.6</ele>
        <time>2021-04-25T10:17:51Z</time>
      </trkpt>
      <trkpt lat="47.23539" lon="5.9894">
        <ele>275.4</ele>
        <time>2021-04-25T10:17:53Z</time>
      </trkpt>
      <trkpt lat="47.23569" lon="5.98916">
        <ele>275.2</ele>
        <time>2021-04-25T10:18:00Z</time>
      </trkpt>
      <trkpt lat="47.23573" lon="5.98911">
        <ele>275.2</ele>
        <time>2021-04-25T10:18:01Z</time>
      </trkpt>
      <trkpt lat="47.23576" lon="5.98909">
        <ele>275.2</ele>
        <time>2021-04-25T10:18:02Z</time>
      </trkpt>
      <trkpt lat="47.236" lon="5.98896">
        <ele>275.6</ele>
        <time>2021-04-25T10:18:07Z</time>
      </trkpt>
      <trkpt lat="47.23605" lon="5.98893">
        <ele>275.6</ele>
        <time>2021-04-25T10:18:08Z</time>
      </trkpt>
      <trkpt lat="47.23609" lon="5.98891">
        <ele>275.6</ele>
        <time>2021-04-25T10:18:09Z</time>
      </trkpt>
      <trkpt lat="47.23614" lon="5.98888">
        <ele>275.6</ele>
        <time>2021-04-25T10:18:10Z</time>
      </trkpt>
      <trkpt lat="47.23636" lon="5.98877">
        <ele>276</ele>
        <time>2021-04-25T10:18:15Z</time>
      </trkpt>
      <trkpt lat="47.2364" lon="5.98875">
        <ele>276</ele>
        <time>2021-04-25T10:18:16Z</time>
      </trkpt>
      <trkpt lat="47.23644" lon="5.98873">
        <ele>276</ele>
        <time>2021-04-25T10:18:17Z</time>
      </trkpt>
      <trkpt lat="47.23648" lon="5.98872">
        <ele>276.4</ele>
        <time>2021-04-25T10:18:18Z</time>
      </trkpt>
      <trkpt lat="47.23653" lon="5.9887">
        <ele>276.2</ele>
        <time>2021-04-25T10:18:19Z</time>
      </trkpt>
      <trkpt lat="47.23657" lon="5.98869">
        <ele>276.2</ele>
        <time>2021-04-25T10:18:20Z</time>
      </trkpt>
      <trkpt lat="47.23661" lon="5.98867">
        <ele>276.4</ele>
        <time>2021-04-25T10:18:21Z</time>
      </trkpt>
      <trkpt lat="47.23666" lon="5.98866">
        <ele>276.4</ele>
        <time>2021-04-25T10:18:22Z</time>
      </trkpt>
      <trkpt lat="47.2367" lon="5.98864">
        <ele>276.8</ele>
        <time>2021-04-25T10:18:23Z</time>
      </trkpt>
      <trkpt lat="47.23675" lon="5.98863">
        <ele>277</ele>
        <time>2021-04-25T10:18:24Z</time>
      </trkpt>
      <trkpt lat="47.23688" lon="5.98859">
        <ele>277.2</ele>
        <time>2021-04-25T10:18:27Z</time>
      </trkpt>
      <trkpt lat="47.23727" lon="5.98847">
        <ele>278</ele>
        <time>2021-04-25T10:18:36Z</time>
      </trkpt>
      <trkpt lat="47.2374" lon="5.98843">
        <ele>278.2</ele>
        <time>2021-04-25T10:18:39Z</time>
      </trkpt>
      <trkpt lat="47.23749" lon="5.98841">
        <ele>278.4</ele>
        <time>2021-04-25T10:18:41Z</time>
      </trkpt>
      <trkpt lat="47.23757" lon="5.98838">
        <ele>278.6</ele>
        <time>2021-04-25T10:18:43Z</time>
      </trkpt>
      <trkpt lat="47.23778" lon="5.9883">
        <ele>279.4</ele>
        <time>2021-04-25T10:18:48Z</time>
      </trkpt>
      <trkpt lat="47.23782" lon="5.98829">
        <ele>279.4</ele>
        <time>2021-04-25T10:18:49Z</time>
      </trkpt>
      <trkpt lat="47.23785" lon="5.98828">
        <ele>279.6</ele>
        <time>2021-04-25T10:18:50Z</time>
      </trkpt>
      <trkpt lat="47.23789" lon="5.98828">
        <ele>279.6</ele>
        <time>2021-04-25T10:18:51Z</time>
      </trkpt>
      <trkpt lat="47.23791" lon="5.98827">
        <ele>279.6</ele>
        <time>2021-04-25T10:18:52Z</time>
      </trkpt>
      <trkpt lat="47.23794" lon="5.98826">
        <ele>279.6</ele>
        <time>2021-04-25T10:18:53Z</time>
      </trkpt>
      <trkpt lat="47.23797" lon="5.98825">
        <ele>279.8</ele>
        <time>2021-04-25T10:18:54Z</time>
      </trkpt>
      <trkpt lat="47.23799" lon="5.98824">
        <ele>279.8</ele>
        <time>2021-04-25T10:18:55Z</time>
      </trkpt>
      <trkpt lat="47.23801" lon="5.98824">
        <ele>279.8</ele>
        <time>2021-04-25T10:18:56Z</time>
      </trkpt>
      <trkpt lat="47.23803" lon="5.98823">
        <ele>280</ele>
        <time>2021-04-25T10:18:57Z</time>
      </trkpt>
      <trkpt lat="47.23805" lon="5.98823">
        <ele>280</ele>
        <time>2021-04-25T10:18:58Z</time>
      </trkpt>
      <trkpt lat="47.23807" lon="5.98822">
        <ele>280.2</ele>
        <time>2021-04-25T10:18:59Z</time>
      </trkpt>
      <trkpt lat="47.23809" lon="5.98822">
        <ele>280.2</ele>
        <time>2021-04-25T10:19:00Z</time>
      </trkpt>
      <trkpt lat="47.2381" lon="5.98821">
        <ele>280.4</ele>
        <time>2021-04-25T10:19:01Z</time>
      </trkpt>
      <trkpt lat="47.23812" lon="5.98821">
        <ele>280.4</ele>
        <time>2021-04-25T10:19:02Z</time>
      </trkpt>
      <trkpt lat="47.23814" lon="5.9882">
        <ele>280.4</ele>
        <time>2021-04-25T10:19:03Z</time>
      </trkpt>
      <trkpt lat="47.23815" lon="5.9882">
        <ele>280.6</ele>
        <time>2021-04-25T10:19:04Z</time>
      </trkpt>
      <trkpt lat="47.2382" lon="5.9882">
        <ele>280.8</ele>
        <time>2021-04-25T10:19:06Z</time>
      </trkpt>
      <trkpt lat="47.23838" lon="5.98813">
        <ele>281.2</ele>
        <time>2021-04-25T10:19:12Z</time>
      </trkpt>
      <trkpt lat="47.23841" lon="5.98812">
        <ele>281.4</ele>
        <time>2021-04-25T10:19:13Z</time>
      </trkpt>
      <trkpt lat="47.23841" lon="5.98812">
        <ele>281.6</ele>
        <time>2021-04-25T10:19:14Z</time>
      </trkpt>
      <trkpt lat="47.23868" lon="5.988">
        <ele>281.8</ele>
        <time>2021-04-25T10:19:21Z</time>
      </trkpt>
      <trkpt lat="47.23901" lon="5.98777">
        <ele>281.8</ele>
        <time>2021-04-25T10:19:30Z</time>
      </trkpt>
      <trkpt lat="47.23938" lon="5.98752">
        <ele>281.4</ele>
        <time>2021-04-25T10:19:39Z</time>
      </trkpt>
      <trkpt lat="47.23966" lon="5.98732">
        <ele>280.6</ele>
        <time>2021-04-25T10:19:45Z</time>
      </trkpt>
      <trkpt lat="47.23976" lon="5.98725">
        <ele>280</ele>
        <time>2021-04-25T10:19:47Z</time>
      </trkpt>
      <trkpt lat="47.23986" lon="5.98718">
        <ele>279.6</ele>
        <time>2021-04-25T10:19:49Z</time>
      </trkpt>
      <trkpt lat="47.24015" lon="5.98697">
        <ele>278.4</ele>
        <time>2021-04-25T10:19:55Z</time>
      </trkpt>
      <trkpt lat="47.24019" lon="5.98694">
        <ele>278.4</ele>
        <time>2021-04-25T10:19:56Z</time>
      </trkpt>
      <trkpt lat="47.24019" lon="5.98694">
        <ele>278.2</ele>
        <time>2021-04-25T10:19:57Z</time>
      </trkpt>
      <trkpt lat="47.24027" lon="5.98689">
        <ele>278</ele>
        <time>2021-04-25T10:19:58Z</time>
      </trkpt>
      <trkpt lat="47.24031" lon="5.98686">
        <ele>277.8</ele>
        <time>2021-04-25T10:19:59Z</time>
      </trkpt>
      <trkpt lat="47.24031" lon="5.98686">
        <ele>277.6</ele>
        <time>2021-04-25T10:20:00Z</time>
      </trkpt>
      <trkpt lat="47.24037" lon="5.98681">
        <ele>277.6</ele>
        <time>2021-04-25T10:20:01Z</time>
      </trkpt>
      <trkpt lat="47.24041" lon="5.98679">
        <ele>277.6</ele>
        <time>2021-04-25T10:20:02Z</time>
      </trkpt>
      <trkpt lat="47.24041" lon="5.98679">
        <ele>277.6</ele>
        <time>2021-04-25T10:20:03Z</time>
      </trkpt>
      <trkpt lat="47.24051" lon="5.98672">
        <ele>277.6</ele>
        <time>2021-04-25T10:20:05Z</time>
      </trkpt>
      <trkpt lat="47.24054" lon="5.98669">
        <ele>277.6</ele>
        <time>2021-04-25T10:20:06Z</time>
      </trkpt>
      <trkpt lat="47.24057" lon="5.98667">
        <ele>277.8</ele>
        <time>2021-04-25T10:20:07Z</time>
      </trkpt>
      <trkpt lat="47.2406" lon="5.98665">
        <ele>277.8</ele>
        <time>2021-04-25T10:20:08Z</time>
      </trkpt>
      <trkpt lat="47.2406" lon="5.98665">
        <ele>277.8</ele>
        <time>2021-04-25T10:20:09Z</time>
      </trkpt>
      <trkpt lat="47.24071" lon="5.98658">
        <ele>278</ele>
        <time>2021-04-25T10:20:11Z</time>
      </trkpt>
      <trkpt lat="47.24101" lon="5.98641">
        <ele>279</ele>
        <time>2021-04-25T10:20:20Z</time>
      </trkpt>
      <trkpt lat="47.24119" lon="5.98632">
        <ele>279.6</ele>
        <time>2021-04-25T10:20:25Z</time>
      </trkpt>
      <trkpt lat="47.24141" lon="5.98623">
        <ele>280</ele>
        <time>2021-04-25T10:20:31Z</time>
      </trkpt>
      <trkpt lat="47.24163" lon="5.98614">
        <ele>280.4</ele>
        <time>2021-04-25T10:20:37Z</time>
      </trkpt>
      <trkpt lat="47.24174" lon="5.9861">
        <ele>280.4</ele>
        <time>2021-04-25T10:20:40Z</time>
      </trkpt>
      <trkpt lat="47.24192" lon="5.98603">
        <ele>280.4</ele>
        <time>2021-04-25T10:20:45Z</time>
      </trkpt>
      <trkpt lat="47.24199" lon="5.98601">
        <ele>280.4</ele>
        <time>2021-04-25T10:20:47Z</time>
      </trkpt>
      <trkpt lat="47.2421" lon="5.98597">
        <ele>280.8</ele>
        <time>2021-04-25T10:20:50Z</time>
      </trkpt>
      <trkpt lat="47.24214" lon="5.98595">
        <ele>281</ele>
        <time>2021-04-25T10:20:51Z</time>
      </trkpt>
      <trkpt lat="47.24217" lon="5.98594">
        <ele>281</ele>
        <time>2021-04-25T10:20:52Z</time>
      </trkpt>
      <trkpt lat="47.24253" lon="5.98581">
        <ele>282</ele>
        <time>2021-04-25T10:21:02Z</time>
      </trkpt>
      <trkpt lat="47.24264" lon="5.98577">
        <ele>282.4</ele>
        <time>2021-04-25T10:21:05Z</time>
      </trkpt>
      <trkpt lat="47.24278" lon="5.98572">
        <ele>283</ele>
        <time>2021-04-25T10:21:09Z</time>
      </trkpt>
      <trkpt lat="47.24289" lon="5.98568">
        <ele>283.2</ele>
        <time>2021-04-25T10:21:12Z</time>
      </trkpt>
      <trkpt lat="47.24292" lon="5.98567">
        <ele>283.4</ele>
        <time>2021-04-25T10:21:13Z</time>
      </trkpt>
      <trkpt lat="47.24295" lon="5.98565">
        <ele>283.4</ele>
        <time>2021-04-25T10:21:14Z</time>
      </trkpt>
      <trkpt lat="47.24298" lon="5.98564">
        <ele>283.4</ele>
        <time>2021-04-25T10:21:15Z</time>
      </trkpt>
      <trkpt lat="47.24301" lon="5.98563">
        <ele>283.8</ele>
        <time>2021-04-25T10:21:16Z</time>
      </trkpt>
      <trkpt lat="47.24304" lon="5.98562">
        <ele>283.8</ele>
        <time>2021-04-25T10:21:17Z</time>
      </trkpt>
      <trkpt lat="47.24307" lon="5.98561">
        <ele>284</ele>
        <time>2021-04-25T10:21:18Z</time>
      </trkpt>
      <trkpt lat="47.2431" lon="5.98559">
        <ele>284.4</ele>
        <time>2021-04-25T10:21:19Z</time>
      </trkpt>
      <trkpt lat="47.24313" lon="5.98558">
        <ele>284.6</ele>
        <time>2021-04-25T10:21:20Z</time>
      </trkpt>
      <trkpt lat="47.24316" lon="5.98558">
        <ele>284.8</ele>
        <time>2021-04-25T10:21:21Z</time>
      </trkpt>
      <trkpt lat="47.24319" lon="5.98557">
        <ele>284.8</ele>
        <time>2021-04-25T10:21:22Z</time>
      </trkpt>
      <trkpt lat="47.24322" lon="5.98556">
        <ele>285</ele>
        <time>2021-04-25T10:21:23Z</time>
      </trkpt>
      <trkpt lat="47.24324" lon="5.98555">
        <ele>285.2</ele>
        <time>2021-04-25T10:21:24Z</time>
      </trkpt>
      <trkpt lat="47.24327" lon="5.98553">
        <ele>285.4</ele>
        <time>2021-04-25T10:21:25Z</time>
      </trkpt>
      <trkpt lat="47.2433" lon="5.98552">
        <ele>285.4</ele>
        <time>2021-04-25T10:21:26Z</time>
      </trkpt>
      <trkpt lat="47.24333" lon="5.98551">
        <ele>285.6</ele>
        <time>2021-04-25T10:21:27Z</time>
      </trkpt>
      <trkpt lat="47.24336" lon="5.9855">
        <ele>285.6</ele>
        <time>2021-04-25T10:21:28Z</time>
      </trkpt>
      <trkpt lat="47.24339" lon="5.98549">
        <ele>285.6</ele>
        <time>2021-04-25T10:21:29Z</time>
      </trkpt>
      <trkpt lat="47.24342" lon="5.98548">
        <ele>285.8</ele>
        <time>2021-04-25T10:21:30Z</time>
      </trkpt>
      <trkpt lat="47.24345" lon="5.98546">
        <ele>285.8</ele>
        <time>2021-04-25T10:21:31Z</time>
      </trkpt>
      <trkpt lat="47.24347" lon="5.98545">
        <ele>286</ele>
        <time>2021-04-25T10:21:32Z</time>
      </trkpt>
      <trkpt lat="47.2435" lon="5.98545">
        <ele>286</ele>
        <time>2021-04-25T10:21:33Z</time>
      </trkpt>
      <trkpt lat="47.24352" lon="5.98544">
        <ele>286.2</ele>
        <time>2021-04-25T10:21:34Z</time>
      </trkpt>
      <trkpt lat="47.24355" lon="5.98543">
        <ele>286.2</ele>
        <time>2021-04-25T10:21:35Z</time>
      </trkpt>
      <trkpt lat="47.24357" lon="5.98543">
        <ele>286.4</ele>
        <time>2021-04-25T10:21:36Z</time>
      </trkpt>
      <trkpt lat="47.24359" lon="5.98543">
        <ele>286.4</ele>
        <time>2021-04-25T10:21:37Z</time>
      </trkpt>
      <trkpt lat="47.24362" lon="5.98542">
        <ele>286.4</ele>
        <time>2021-04-25T10:21:38Z</time>
      </trkpt>
      <trkpt lat="47.24364" lon="5.98542">
        <ele>286.6</ele>
        <time>2021-04-25T10:21:39Z</time>
      </trkpt>
      <trkpt lat="47.24366" lon="5.98541">
        <ele>286.6</ele>
        <time>2021-04-25T10:21:40Z</time>
      </trkpt>
      <trkpt lat="47.24368" lon="5.9854">
        <ele>287</ele>
        <time>2021-04-25T10:21:41Z</time>
      </trkpt>
      <trkpt lat="47.2437" lon="5.9854">
        <ele>287</ele>
        <time>2021-04-25T10:21:42Z</time>
      </trkpt>
      <trkpt lat="47.24372" lon="5.9854">
        <ele>287.2</ele>
        <time>2021-04-25T10:21:43Z</time>
      </trkpt>
      <trkpt lat="47.24374" lon="5.98539">
        <ele>287.4</ele>
        <time>2021-04-25T10:21:44Z</time>
      </trkpt>
      <trkpt lat="47.24376" lon="5.98539">
        <ele>287.4</ele>
        <time>2021-04-25T10:21:45Z</time>
      </trkpt>
      <trkpt lat="47.24379" lon="5.98539">
        <ele>287.6</ele>
        <time>2021-04-25T10:21:46Z</time>
      </trkpt>
      <trkpt lat="47.24381" lon="5.9854">
        <ele>287.8</ele>
        <time>2021-04-25T10:21:47Z</time>
      </trkpt>
      <trkpt lat="47.24383" lon="5.9854">
        <ele>287.8</ele>
        <time>2021-04-25T10:21:48Z</time>
      </trkpt>
      <trkpt lat="47.24385" lon="5.98541">
        <ele>288</ele>
        <time>2021-04-25T10:21:49Z</time>
      </trkpt>
      <trkpt lat="47.24388" lon="5.98542">
        <ele>288</ele>
        <time>2021-04-25T10:21:50Z</time>
      </trkpt>
      <trkpt lat="47.2439" lon="5.98543">
        <ele>288</ele>
        <time>2021-04-25T10:21:51Z</time>
      </trkpt>
      <trkpt lat="47.24392" lon="5.98544">
        <ele>288</ele>
        <time>2021-04-25T10:21:52Z</time>
      </trkpt>
      <trkpt lat="47.24395" lon="5.98545">
        <ele>288</ele>
        <time>2021-04-25T10:21:53Z</time>
      </trkpt>
      <trkpt lat="47.24397" lon="5.98546">
        <ele>288.2</ele>
        <time>2021-04-25T10:21:54Z</time>
      </trkpt>
      <trkpt lat="47.24399" lon="5.98546">
        <ele>288.4</ele>
        <time>2021-04-25T10:21:55Z</time>
      </trkpt>
      <trkpt lat="47.24402" lon="5.98546">
        <ele>288.4</ele>
        <time>2021-04-25T10:21:56Z</time>
      </trkpt>
      <trkpt lat="47.24404" lon="5.98545">
        <ele>288.6</ele>
        <time>2021-04-25T10:21:57Z</time>
      </trkpt>
      <trkpt lat="47.24406" lon="5.98544">
        <ele>288.6</ele>
        <time>2021-04-25T10:21:58Z</time>
      </trkpt>
      <trkpt lat="47.24409" lon="5.98542">
        <ele>288.8</ele>
        <time>2021-04-25T10:21:59Z</time>
      </trkpt>
      <trkpt lat="47.24411" lon="5.98539">
        <ele>288.8</ele>
        <time>2021-04-25T10:22:00Z</time>
      </trkpt>
      <trkpt lat="47.24413" lon="5.98536">
        <ele>288.8</ele>
        <time>2021-04-25T10:22:01Z</time>
      </trkpt>
      <trkpt lat="47.24416" lon="5.98534">
        <ele>288.8</ele>
        <time>2021-04-25T10:22:02Z</time>
      </trkpt>
      <trkpt lat="47.24418" lon="5.98532">
        <ele>289</ele>
        <time>2021-04-25T10:22:03Z</time>
      </trkpt>
      <trkpt lat="47.2442" lon="5.98531">
        <ele>289</ele>
        <time>2021-04-25T10:22:04Z</time>
      </trkpt>
      <trkpt lat="47.24423" lon="5.98531">
        <ele>289.2</ele>
        <time>2021-04-25T10:22:05Z</time>
      </trkpt>
      <trkpt lat="47.24425" lon="5.98531">
        <ele>289.2</ele>
        <time>2021-04-25T10:22:06Z</time>
      </trkpt>
      <trkpt lat="47.24427" lon="5.98531">
        <ele>289.2</ele>
        <time>2021-04-25T10:22:07Z</time>
      </trkpt>
      <trkpt lat="47.24429" lon="5.9853">
        <ele>289.4</ele>
        <time>2021-04-25T10:22:08Z</time>
      </trkpt>
      <trkpt lat="47.24431" lon="5.98529">
        <ele>289.4</ele>
        <time>2021-04-25T10:22:09Z</time>
      </trkpt>
      <trkpt lat="47.24432" lon="5.98528">
        <ele>289.6</ele>
        <time>2021-04-25T10:22:10Z</time>
      </trkpt>
      <trkpt lat="47.24434" lon="5.98527">
        <ele>289.6</ele>
        <time>2021-04-25T10:22:11Z</time>
      </trkpt>
      <trkpt lat="47.24434" lon="5.98526">
        <ele>289.8</ele>
        <time>2021-04-25T10:22:12Z</time>
      </trkpt>
      <trkpt lat="47.24434" lon="5.98526">
        <ele>290</ele>
        <time>2021-04-25T10:22:13Z</time>
      </trkpt>
      <trkpt lat="47.24434" lon="5.98526">
        <ele>290.8</ele>
        <time>2021-04-25T10:22:16Z</time>
      </trkpt>
      <trkpt lat="47.24434" lon="5.98525">
        <ele>291</ele>
        <time>2021-04-25T10:22:39Z</time>
      </trkpt>
      <trkpt lat="47.24432" lon="5.98528">
        <ele>291</ele>
        <time>2021-04-25T10:22:41Z</time>
      </trkpt>
      <trkpt lat="47.24432" lon="5.98528">
        <ele>291</ele>
        <time>2021-04-25T10:22:42Z</time>
      </trkpt>
      <trkpt lat="47.24432" lon="5.98535">
        <ele>291</ele>
        <time>2021-04-25T10:22:43Z</time>
      </trkpt>
      <trkpt lat="47.24435" lon="5.98543">
        <ele>291</ele>
        <time>2021-04-25T10:22:46Z</time>
      </trkpt>
      <trkpt lat="47.24436" lon="5.98546">
        <ele>291</ele>
        <time>2021-04-25T10:22:47Z</time>
      </trkpt>
      <trkpt lat="47.24437" lon="5.98549">
        <ele>291</ele>
        <time>2021-04-25T10:22:48Z</time>
      </trkpt>
      <trkpt lat="47.24438" lon="5.98552">
        <ele>291.2</ele>
        <time>2021-04-25T10:22:49Z</time>
      </trkpt>
      <trkpt lat="47.2444" lon="5.98564">
        <ele>291.4</ele>
        <time>2021-04-25T10:22:53Z</time>
      </trkpt>
      <trkpt lat="47.24442" lon="5.9857">
        <ele>291.6</ele>
        <time>2021-04-25T10:22:55Z</time>
      </trkpt>
      <trkpt lat="47.24444" lon="5.98573">
        <ele>291.6</ele>
        <time>2021-04-25T10:22:56Z</time>
      </trkpt>
      <trkpt lat="47.24446" lon="5.98574">
        <ele>291.6</ele>
        <time>2021-04-25T10:22:57Z</time>
      </trkpt>
      <trkpt lat="47.24449" lon="5.98575">
        <ele>291.8</ele>
        <time>2021-04-25T10:22:58Z</time>
      </trkpt>
      <trkpt lat="47.24452" lon="5.98575">
        <ele>291.8</ele>
        <time>2021-04-25T10:23:00Z</time>
      </trkpt>
      <trkpt lat="47.24454" lon="5.98575">
        <ele>291.8</ele>
        <time>2021-04-25T10:23:01Z</time>
      </trkpt>
      <trkpt lat="47.24456" lon="5.98576">
        <ele>291.8</ele>
        <time>2021-04-25T10:23:02Z</time>
      </trkpt>
      <trkpt lat="47.24458" lon="5.98576">
        <ele>291.8</ele>
        <time>2021-04-25T10:23:03Z</time>
      </trkpt>
      <trkpt lat="47.2446" lon="5.98576">
        <ele>291.8</ele>
        <time>2021-04-25T10:23:04Z</time>
      </trkpt>
      <trkpt lat="47.24462" lon="5.98576">
        <ele>292</ele>
        <time>2021-04-25T10:23:05Z</time>
      </trkpt>
      <trkpt lat="47.24467" lon="5.98575">
        <ele>292.2</ele>
        <time>2021-04-25T10:23:07Z</time>
      </trkpt>
      <trkpt lat="47.24469" lon="5.98574">
        <ele>292.4</ele>
        <time>2021-04-25T10:23:08Z</time>
      </trkpt>
      <trkpt lat="47.24478" lon="5.98572">
        <ele>293</ele>
        <time>2021-04-25T10:23:12Z</time>
      </trkpt>
      <trkpt lat="47.24488" lon="5.98568">
        <ele>294</ele>
        <time>2021-04-25T10:23:17Z</time>
      </trkpt>
      <trkpt lat="47.24497" lon="5.98568">
        <ele>294.6</ele>
        <time>2021-04-25T10:23:21Z</time>
      </trkpt>
      <trkpt lat="47.24498" lon="5.98568">
        <ele>294.8</ele>
        <time>2021-04-25T10:23:22Z</time>
      </trkpt>
      <trkpt lat="47.245" lon="5.98568">
        <ele>294.8</ele>
        <time>2021-04-25T10:23:23Z</time>
      </trkpt>
      <trkpt lat="47.24501" lon="5.98568">
        <ele>295</ele>
        <time>2021-04-25T10:23:24Z</time>
      </trkpt>
      <trkpt lat="47.24503" lon="5.98568">
        <ele>295.2</ele>
        <time>2021-04-25T10:23:25Z</time>
      </trkpt>
      <trkpt lat="47.24504" lon="5.98569">
        <ele>295.2</ele>
        <time>2021-04-25T10:23:26Z</time>
      </trkpt>
      <trkpt lat="47.24506" lon="5.9857">
        <ele>295.4</ele>
        <time>2021-04-25T10:23:27Z</time>
      </trkpt>
      <trkpt lat="47.24508" lon="5.9857">
        <ele>295.8</ele>
        <time>2021-04-25T10:23:28Z</time>
      </trkpt>
      <trkpt lat="47.2451" lon="5.98571">
        <ele>296</ele>
        <time>2021-04-25T10:23:29Z</time>
      </trkpt>
      <trkpt lat="47.24512" lon="5.98571">
        <ele>296</ele>
        <time>2021-04-25T10:23:30Z</time>
      </trkpt>
      <trkpt lat="47.24514" lon="5.98572">
        <ele>296.2</ele>
        <time>2021-04-25T10:23:31Z</time>
      </trkpt>
      <trkpt lat="47.24516" lon="5.98572">
        <ele>296.2</ele>
        <time>2021-04-25T10:23:32Z</time>
      </trkpt>
      <trkpt lat="47.24518" lon="5.98573">
        <ele>296.2</ele>
        <time>2021-04-25T10:23:33Z</time>
      </trkpt>
      <trkpt lat="47.2452" lon="5.98573">
        <ele>296.4</ele>
        <time>2021-04-25T10:23:34Z</time>
      </trkpt>
      <trkpt lat="47.24523" lon="5.98575">
        <ele>296.4</ele>
        <time>2021-04-25T10:23:35Z</time>
      </trkpt>
      <trkpt lat="47.24525" lon="5.98576">
        <ele>296.4</ele>
        <time>2021-04-25T10:23:36Z</time>
      </trkpt>
      <trkpt lat="47.24527" lon="5.98577">
        <ele>296.6</ele>
        <time>2021-04-25T10:23:37Z</time>
      </trkpt>
      <trkpt lat="47.24529" lon="5.98578">
        <ele>296.6</ele>
        <time>2021-04-25T10:23:38Z</time>
      </trkpt>
      <trkpt lat="47.24532" lon="5.98579">
        <ele>296.8</ele>
        <time>2021-04-25T10:23:39Z</time>
      </trkpt>
      <trkpt lat="47.24534" lon="5.98579">
        <ele>296.8</ele>
        <time>2021-04-25T10:23:40Z</time>
      </trkpt>
      <trkpt lat="47.24536" lon="5.9858">
        <ele>296.8</ele>
        <time>2021-04-25T10:23:41Z</time>
      </trkpt>
      <trkpt lat="47.24538" lon="5.9858">
        <ele>297</ele>
        <time>2021-04-25T10:23:42Z</time>
      </trkpt>
      <trkpt lat="47.2454" lon="5.9858">
        <ele>297</ele>
        <time>2021-04-25T10:23:43Z</time>
      </trkpt>
      <trkpt lat="47.24543" lon="5.9858">
        <ele>297.2</ele>
        <time>2021-04-25T10:23:44Z</time>
      </trkpt>
      <trkpt lat="47.24544" lon="5.98579">
        <ele>297.4</ele>
        <time>2021-04-25T10:23:45Z</time>
      </trkpt>
      <trkpt lat="47.24546" lon="5.98577">
        <ele>297.6</ele>
        <time>2021-04-25T10:23:46Z</time>
      </trkpt>
      <trkpt lat="47.24548" lon="5.98575">
        <ele>298</ele>
        <time>2021-04-25T10:23:47Z</time>
      </trkpt>
      <trkpt lat="47.24549" lon="5.98573">
        <ele>298.2</ele>
        <time>2021-04-25T10:23:48Z</time>
      </trkpt>
      <trkpt lat="47.2455" lon="5.9857">
        <ele>298.4</ele>
        <time>2021-04-25T10:23:49Z</time>
      </trkpt>
      <trkpt lat="47.2455" lon="5.98568">
        <ele>298.6</ele>
        <time>2021-04-25T10:23:50Z</time>
      </trkpt>
      <trkpt lat="47.24551" lon="5.98566">
        <ele>298.6</ele>
        <time>2021-04-25T10:23:51Z</time>
      </trkpt>
      <trkpt lat="47.24553" lon="5.98565">
        <ele>298.8</ele>
        <time>2021-04-25T10:23:52Z</time>
      </trkpt>
      <trkpt lat="47.24555" lon="5.98564">
        <ele>299</ele>
        <time>2021-04-25T10:23:53Z</time>
      </trkpt>
      <trkpt lat="47.24556" lon="5.98563">
        <ele>299</ele>
        <time>2021-04-25T10:23:54Z</time>
      </trkpt>
      <trkpt lat="47.24558" lon="5.98562">
        <ele>299</ele>
        <time>2021-04-25T10:23:55Z</time>
      </trkpt>
      <trkpt lat="47.2456" lon="5.98561">
        <ele>299</ele>
        <time>2021-04-25T10:23:56Z</time>
      </trkpt>
      <trkpt lat="47.24563" lon="5.9856">
        <ele>298.8</ele>
        <time>2021-04-25T10:23:57Z</time>
      </trkpt>
      <trkpt lat="47.24565" lon="5.9856">
        <ele>298.8</ele>
        <time>2021-04-25T10:23:58Z</time>
      </trkpt>
      <trkpt lat="47.24567" lon="5.9856">
        <ele>298.8</ele>
        <time>2021-04-25T10:23:59Z</time>
      </trkpt>
      <trkpt lat="47.24569" lon="5.98559">
        <ele>298.8</ele>
        <time>2021-04-25T10:24:00Z</time>
      </trkpt>
      <trkpt lat="47.24571" lon="5.98559">
        <ele>299</ele>
        <time>2021-04-25T10:24:01Z</time>
      </trkpt>
      <trkpt lat="47.24573" lon="5.98559">
        <ele>299</ele>
        <time>2021-04-25T10:24:02Z</time>
      </trkpt>
      <trkpt lat="47.24574" lon="5.98558">
        <ele>299</ele>
        <time>2021-04-25T10:24:03Z</time>
      </trkpt>
      <trkpt lat="47.24576" lon="5.98558">
        <ele>299</ele>
        <time>2021-04-25T10:24:04Z</time>
      </trkpt>
      <trkpt lat="47.24577" lon="5.98557">
        <ele>299</ele>
        <time>2021-04-25T10:24:05Z</time>
      </trkpt>
      <trkpt lat="47.24578" lon="5.98556">
        <ele>298.8</ele>
        <time>2021-04-25T10:24:06Z</time>
      </trkpt>
      <trkpt lat="47.24579" lon="5.98557">
        <ele>299.2</ele>
        <time>2021-04-25T10:24:07Z</time>
      </trkpt>
      <trkpt lat="47.24582" lon="5.98557">
        <ele>299.2</ele>
        <time>2021-04-25T10:24:09Z</time>
      </trkpt>
      <trkpt lat="47.24583" lon="5.98557">
        <ele>299.2</ele>
        <time>2021-04-25T10:24:10Z</time>
      </trkpt>
      <trkpt lat="47.24584" lon="5.98558">
        <ele>299.2</ele>
        <time>2021-04-25T10:24:11Z</time>
      </trkpt>
      <trkpt lat="47.24586" lon="5.98557">
        <ele>299.4</ele>
        <time>2021-04-25T10:24:12Z</time>
      </trkpt>
      <trkpt lat="47.24588" lon="5.98556">
        <ele>299.4</ele>
        <time>2021-04-25T10:24:13Z</time>
      </trkpt>
      <trkpt lat="47.24589" lon="5.98555">
        <ele>299.6</ele>
        <time>2021-04-25T10:24:14Z</time>
      </trkpt>
      <trkpt lat="47.246" lon="5.98555">
        <ele>299.6</ele>
        <time>2021-04-25T10:24:22Z</time>
      </trkpt>
      <trkpt lat="47.24601" lon="5.98554">
        <ele>299.4</ele>
        <time>2021-04-25T10:24:23Z</time>
      </trkpt>
      <trkpt lat="47.24603" lon="5.98554">
        <ele>299.4</ele>
        <time>2021-04-25T10:24:24Z</time>
      </trkpt>
      <trkpt lat="47.24604" lon="5.98554">
        <ele>299.4</ele>
        <time>2021-04-25T10:24:25Z</time>
      </trkpt>
      <trkpt lat="47.24605" lon="5.98554">
        <ele>299.4</ele>
        <time>2021-04-25T10:24:26Z</time>
      </trkpt>
      <trkpt lat="47.24606" lon="5.98553">
        <ele>299.4</ele>
        <time>2021-04-25T10:24:27Z</time>
      </trkpt>
      <trkpt lat="47.24607" lon="5.98553">
        <ele>299.4</ele>
        <time>2021-04-25T10:24:28Z</time>
      </trkpt>
      <trkpt lat="47.24608" lon="5.98553">
        <ele>299.4</ele>
        <time>2021-04-25T10:24:29Z</time>
      </trkpt>
      <trkpt lat="47.24609" lon="5.98553">
        <ele>299.4</ele>
        <time>2021-04-25T10:24:30Z</time>
      </trkpt>
      <trkpt lat="47.2461" lon="5.98553">
        <ele>299.4</ele>
        <time>2021-04-25T10:24:31Z</time>
      </trkpt>
      <trkpt lat="47.24611" lon="5.98553">
        <ele>299.4</ele>
        <time>2021-04-25T10:24:32Z</time>
      </trkpt>
      <trkpt lat="47.24612" lon="5.98552">
        <ele>299.4</ele>
        <time>2021-04-25T10:24:33Z</time>
      </trkpt>
      <trkpt lat="47.24612" lon="5.98552">
        <ele>299.4</ele>
        <time>2021-04-25T10:24:34Z</time>
      </trkpt>
      <trkpt lat="47.24615" lon="5.98552">
        <ele>299.4</ele>
        <time>2021-04-25T10:24:35Z</time>
      </trkpt>
      <trkpt lat="47.24616" lon="5.98552">
        <ele>299.4</ele>
        <time>2021-04-25T10:24:37Z</time>
      </trkpt>
      <trkpt lat="47.2462" lon="5.98552">
        <ele>299.4</ele>
        <time>2021-04-25T10:24:38Z</time>
      </trkpt>
      <trkpt lat="47.24621" lon="5.98552">
        <ele>299.4</ele>
        <time>2021-04-25T10:24:39Z</time>
      </trkpt>
      <trkpt lat="47.24625" lon="5.98551">
        <ele>299.4</ele>
        <time>2021-04-25T10:24:41Z</time>
      </trkpt>
      <trkpt lat="47.24641" lon="5.98549">
        <ele>299.2</ele>
        <time>2021-04-25T10:24:49Z</time>
      </trkpt>
      <trkpt lat="47.24662" lon="5.98545">
        <ele>298.8</ele>
        <time>2021-04-25T10:24:58Z</time>
      </trkpt>
      <trkpt lat="47.24685" lon="5.9854">
        <ele>299</ele>
        <time>2021-04-25T10:25:07Z</time>
      </trkpt>
      <trkpt lat="47.24704" lon="5.98538">
        <ele>298.8</ele>
        <time>2021-04-25T10:25:14Z</time>
      </trkpt>
      <trkpt lat="47.24729" lon="5.98535">
        <ele>298.4</ele>
        <time>2021-04-25T10:25:23Z</time>
      </trkpt>
      <trkpt lat="47.24739" lon="5.98533">
        <ele>298.2</ele>
        <time>2021-04-25T10:25:26Z</time>
      </trkpt>
      <trkpt lat="47.2475" lon="5.98532">
        <ele>297.8</ele>
        <time>2021-04-25T10:25:29Z</time>
      </trkpt>
      <trkpt lat="47.24753" lon="5.98531">
        <ele>297.8</ele>
        <time>2021-04-25T10:25:30Z</time>
      </trkpt>
      <trkpt lat="47.24757" lon="5.98531">
        <ele>297.6</ele>
        <time>2021-04-25T10:25:31Z</time>
      </trkpt>
      <trkpt lat="47.24779" lon="5.98528">
        <ele>297.8</ele>
        <time>2021-04-25T10:25:37Z</time>
      </trkpt>
      <trkpt lat="47.24805" lon="5.98523">
        <ele>298.2</ele>
        <time>2021-04-25T10:25:44Z</time>
      </trkpt>
      <trkpt lat="47.24808" lon="5.98523">
        <ele>298.4</ele>
        <time>2021-04-25T10:25:45Z</time>
      </trkpt>
      <trkpt lat="47.24812" lon="5.98522">
        <ele>298.4</ele>
        <time>2021-04-25T10:25:46Z</time>
      </trkpt>
      <trkpt lat="47.24815" lon="5.98521">
        <ele>298.6</ele>
        <time>2021-04-25T10:25:47Z</time>
      </trkpt>
      <trkpt lat="47.24819" lon="5.9852">
        <ele>298.6</ele>
        <time>2021-04-25T10:25:48Z</time>
      </trkpt>
      <trkpt lat="47.24822" lon="5.9852">
        <ele>298.6</ele>
        <time>2021-04-25T10:25:49Z</time>
      </trkpt>
      <trkpt lat="47.24826" lon="5.98519">
        <ele>298.6</ele>
        <time>2021-04-25T10:25:50Z</time>
      </trkpt>
      <trkpt lat="47.24847" lon="5.98515">
        <ele>298.6</ele>
        <time>2021-04-25T10:25:55Z</time>
      </trkpt>
      <trkpt lat="47.24876" lon="5.98512">
        <ele>297.8</ele>
        <time>2021-04-25T10:26:02Z</time>
      </trkpt>
      <trkpt lat="47.24878" lon="5.98512">
        <ele>297.8</ele>
        <time>2021-04-25T10:26:03Z</time>
      </trkpt>
      <trkpt lat="47.2488" lon="5.98512">
        <ele>297.6</ele>
        <time>2021-04-25T10:26:04Z</time>
      </trkpt>
      <trkpt lat="47.24882" lon="5.98512">
        <ele>297.6</ele>
        <time>2021-04-25T10:26:05Z</time>
      </trkpt>
      <trkpt lat="47.24883" lon="5.98513">
        <ele>297.4</ele>
        <time>2021-04-25T10:26:06Z</time>
      </trkpt>
      <trkpt lat="47.24885" lon="5.98515">
        <ele>297.2</ele>
        <time>2021-04-25T10:26:07Z</time>
      </trkpt>
      <trkpt lat="47.24886" lon="5.98517">
        <ele>297.2</ele>
        <time>2021-04-25T10:26:08Z</time>
      </trkpt>
      <trkpt lat="47.24886" lon="5.98519">
        <ele>297</ele>
        <time>2021-04-25T10:26:09Z</time>
      </trkpt>
      <trkpt lat="47.24886" lon="5.98522">
        <ele>297</ele>
        <time>2021-04-25T10:26:10Z</time>
      </trkpt>
      <trkpt lat="47.24885" lon="5.98523">
        <ele>297</ele>
        <time>2021-04-25T10:26:11Z</time>
      </trkpt>
      <trkpt lat="47.24884" lon="5.98523">
        <ele>297</ele>
        <time>2021-04-25T10:26:12Z</time>
      </trkpt>
      <trkpt lat="47.24883" lon="5.98522">
        <ele>297</ele>
        <time>2021-04-25T10:26:13Z</time>
      </trkpt>
      <trkpt lat="47.24883" lon="5.98519">
        <ele>297</ele>
        <time>2021-04-25T10:26:14Z</time>
      </trkpt>
      <trkpt lat="47.24885" lon="5.98517">
        <ele>297</ele>
        <time>2021-04-25T10:26:15Z</time>
      </trkpt>
      <trkpt lat="47.24889" lon="5.98517">
        <ele>297</ele>
        <time>2021-04-25T10:26:18Z</time>
      </trkpt>
      <trkpt lat="47.24891" lon="5.98508">
        <ele>297</ele>
        <time>2021-04-25T10:26:21Z</time>
      </trkpt>
      <trkpt lat="47.24899" lon="5.98484">
        <ele>296.4</ele>
        <time>2021-04-25T10:26:26Z</time>
      </trkpt>
      <trkpt lat="47.24902" lon="5.98479">
        <ele>296.2</ele>
        <time>2021-04-25T10:26:27Z</time>
      </trkpt>
      <trkpt lat="47.24906" lon="5.98475">
        <ele>296.2</ele>
        <time>2021-04-25T10:26:28Z</time>
      </trkpt>
      <trkpt lat="47.2491" lon="5.98473">
        <ele>296</ele>
        <time>2021-04-25T10:26:29Z</time>
      </trkpt>
      <trkpt lat="47.24914" lon="5.98471">
        <ele>295.8</ele>
        <time>2021-04-25T10:26:30Z</time>
      </trkpt>
      <trkpt lat="47.24918" lon="5.98471">
        <ele>295.8</ele>
        <time>2021-04-25T10:26:31Z</time>
      </trkpt>
      <trkpt lat="47.24922" lon="5.98471">
        <ele>295.6</ele>
        <time>2021-04-25T10:26:32Z</time>
      </trkpt>
      <trkpt lat="47.24926" lon="5.98471">
        <ele>295.6</ele>
        <time>2021-04-25T10:26:33Z</time>
      </trkpt>
      <trkpt lat="47.2493" lon="5.98472">
        <ele>295.4</ele>
        <time>2021-04-25T10:26:34Z</time>
      </trkpt>
      <trkpt lat="47.24942" lon="5.98474">
        <ele>295</ele>
        <time>2021-04-25T10:26:37Z</time>
      </trkpt>
      <trkpt lat="47.24965" lon="5.98485">
        <ele>294.6</ele>
        <time>2021-04-25T10:26:42Z</time>
      </trkpt>
      <trkpt lat="47.2497" lon="5.98488">
        <ele>294.6</ele>
        <time>2021-04-25T10:26:43Z</time>
      </trkpt>
      <trkpt lat="47.24984" lon="5.98502">
        <ele>294.4</ele>
        <time>2021-04-25T10:26:46Z</time>
      </trkpt>
      <trkpt lat="47.24989" lon="5.98506">
        <ele>294.2</ele>
        <time>2021-04-25T10:26:47Z</time>
      </trkpt>
      <trkpt lat="47.24993" lon="5.98511">
        <ele>293.6</ele>
        <time>2021-04-25T10:26:48Z</time>
      </trkpt>
      <trkpt lat="47.25" lon="5.9852">
        <ele>292.8</ele>
        <time>2021-04-25T10:26:50Z</time>
      </trkpt>
      <trkpt lat="47.25004" lon="5.98524">
        <ele>292.8</ele>
        <time>2021-04-25T10:26:51Z</time>
      </trkpt>
      <trkpt lat="47.25007" lon="5.98527">
        <ele>292.6</ele>
        <time>2021-04-25T10:26:52Z</time>
      </trkpt>
      <trkpt lat="47.25011" lon="5.98531">
        <ele>292.6</ele>
        <time>2021-04-25T10:26:53Z</time>
      </trkpt>
      <trkpt lat="47.25014" lon="5.98535">
        <ele>292.6</ele>
        <time>2021-04-25T10:26:54Z</time>
      </trkpt>
      <trkpt lat="47.25018" lon="5.98538">
        <ele>292.6</ele>
        <time>2021-04-25T10:26:55Z</time>
      </trkpt>
      <trkpt lat="47.25021" lon="5.98542">
        <ele>292.6</ele>
        <time>2021-04-25T10:26:56Z</time>
      </trkpt>
      <trkpt lat="47.25027" lon="5.98549">
        <ele>292.8</ele>
        <time>2021-04-25T10:26:58Z</time>
      </trkpt>
      <trkpt lat="47.2503" lon="5.98553">
        <ele>292.8</ele>
        <time>2021-04-25T10:26:59Z</time>
      </trkpt>
      <trkpt lat="47.25033" lon="5.98556">
        <ele>293</ele>
        <time>2021-04-25T10:27:00Z</time>
      </trkpt>
      <trkpt lat="47.25036" lon="5.98559">
        <ele>293.2</ele>
        <time>2021-04-25T10:27:01Z</time>
      </trkpt>
      <trkpt lat="47.2504" lon="5.98562">
        <ele>293.2</ele>
        <time>2021-04-25T10:27:02Z</time>
      </trkpt>
      <trkpt lat="47.25042" lon="5.98566">
        <ele>293.4</ele>
        <time>2021-04-25T10:27:03Z</time>
      </trkpt>
      <trkpt lat="47.25045" lon="5.98569">
        <ele>293.6</ele>
        <time>2021-04-25T10:27:04Z</time>
      </trkpt>
      <trkpt lat="47.25048" lon="5.98573">
        <ele>293.6</ele>
        <time>2021-04-25T10:27:05Z</time>
      </trkpt>
      <trkpt lat="47.25051" lon="5.98576">
        <ele>293.8</ele>
        <time>2021-04-25T10:27:06Z</time>
      </trkpt>
      <trkpt lat="47.25054" lon="5.9858">
        <ele>293.8</ele>
        <time>2021-04-25T10:27:07Z</time>
      </trkpt>
      <trkpt lat="47.25057" lon="5.98582">
        <ele>293.8</ele>
        <time>2021-04-25T10:27:08Z</time>
      </trkpt>
      <trkpt lat="47.2506" lon="5.98586">
        <ele>293.8</ele>
        <time>2021-04-25T10:27:09Z</time>
      </trkpt>
      <trkpt lat="47.25063" lon="5.98589">
        <ele>294</ele>
        <time>2021-04-25T10:27:10Z</time>
      </trkpt>
      <trkpt lat="47.25066" lon="5.98592">
        <ele>294</ele>
        <time>2021-04-25T10:27:11Z</time>
      </trkpt>
      <trkpt lat="47.25069" lon="5.98596">
        <ele>294</ele>
        <time>2021-04-25T10:27:12Z</time>
      </trkpt>
      <trkpt lat="47.25072" lon="5.98599">
        <ele>294</ele>
        <time>2021-04-25T10:27:13Z</time>
      </trkpt>
      <trkpt lat="47.25078" lon="5.98604">
        <ele>294</ele>
        <time>2021-04-25T10:27:15Z</time>
      </trkpt>
      <trkpt lat="47.2508" lon="5.98608">
        <ele>294.4</ele>
        <time>2021-04-25T10:27:16Z</time>
      </trkpt>
      <trkpt lat="47.25083" lon="5.98612">
        <ele>294.2</ele>
        <time>2021-04-25T10:27:17Z</time>
      </trkpt>
      <trkpt lat="47.25086" lon="5.98615">
        <ele>294.6</ele>
        <time>2021-04-25T10:27:18Z</time>
      </trkpt>
      <trkpt lat="47.25089" lon="5.98619">
        <ele>294.6</ele>
        <time>2021-04-25T10:27:19Z</time>
      </trkpt>
      <trkpt lat="47.25091" lon="5.98622">
        <ele>294.6</ele>
        <time>2021-04-25T10:27:20Z</time>
      </trkpt>
      <trkpt lat="47.25099" lon="5.98634">
        <ele>294.8</ele>
        <time>2021-04-25T10:27:23Z</time>
      </trkpt>
      <trkpt lat="47.25107" lon="5.98648">
        <ele>294.6</ele>
        <time>2021-04-25T10:27:26Z</time>
      </trkpt>
      <trkpt lat="47.25127" lon="5.98685">
        <ele>294</ele>
        <time>2021-04-25T10:27:34Z</time>
      </trkpt>
      <trkpt lat="47.25132" lon="5.98694">
        <ele>294</ele>
        <time>2021-04-25T10:27:36Z</time>
      </trkpt>
      <trkpt lat="47.25135" lon="5.98698">
        <ele>294</ele>
        <time>2021-04-25T10:27:37Z</time>
      </trkpt>
      <trkpt lat="47.25141" lon="5.98707">
        <ele>293.6</ele>
        <time>2021-04-25T10:27:39Z</time>
      </trkpt>
      <trkpt lat="47.25143" lon="5.98711">
        <ele>293.6</ele>
        <time>2021-04-25T10:27:40Z</time>
      </trkpt>
      <trkpt lat="47.25145" lon="5.98716">
        <ele>293.4</ele>
        <time>2021-04-25T10:27:41Z</time>
      </trkpt>
      <trkpt lat="47.2515" lon="5.98724">
        <ele>293.4</ele>
        <time>2021-04-25T10:27:43Z</time>
      </trkpt>
      <trkpt lat="47.25152" lon="5.98728">
        <ele>293.2</ele>
        <time>2021-04-25T10:27:44Z</time>
      </trkpt>
      <trkpt lat="47.25172" lon="5.98758">
        <ele>292.8</ele>
        <time>2021-04-25T10:27:51Z</time>
      </trkpt>
      <trkpt lat="47.25178" lon="5.9877">
        <ele>292.6</ele>
        <time>2021-04-25T10:27:53Z</time>
      </trkpt>
      <trkpt lat="47.25192" lon="5.98793">
        <ele>292</ele>
        <time>2021-04-25T10:27:57Z</time>
      </trkpt>
      <trkpt lat="47.25195" lon="5.98799">
        <ele>292</ele>
        <time>2021-04-25T10:27:58Z</time>
      </trkpt>
      <trkpt lat="47.25219" lon="5.98841">
        <ele>291.8</ele>
        <time>2021-04-25T10:28:05Z</time>
      </trkpt>
      <trkpt lat="47.25222" lon="5.98847">
        <ele>291.8</ele>
        <time>2021-04-25T10:28:06Z</time>
      </trkpt>
      <trkpt lat="47.25225" lon="5.98853">
        <ele>291.6</ele>
        <time>2021-04-25T10:28:07Z</time>
      </trkpt>
      <trkpt lat="47.25231" lon="5.98864">
        <ele>291.6</ele>
        <time>2021-04-25T10:28:09Z</time>
      </trkpt>
      <trkpt lat="47.25233" lon="5.9887">
        <ele>291.4</ele>
        <time>2021-04-25T10:28:10Z</time>
      </trkpt>
      <trkpt lat="47.25235" lon="5.98876">
        <ele>291.4</ele>
        <time>2021-04-25T10:28:11Z</time>
      </trkpt>
      <trkpt lat="47.25237" lon="5.98881">
        <ele>291.4</ele>
        <time>2021-04-25T10:28:12Z</time>
      </trkpt>
      <trkpt lat="47.25239" lon="5.98886">
        <ele>291.4</ele>
        <time>2021-04-25T10:28:13Z</time>
      </trkpt>
      <trkpt lat="47.25241" lon="5.98891">
        <ele>291.4</ele>
        <time>2021-04-25T10:28:14Z</time>
      </trkpt>
      <trkpt lat="47.25242" lon="5.98896">
        <ele>291.4</ele>
        <time>2021-04-25T10:28:15Z</time>
      </trkpt>
      <trkpt lat="47.25245" lon="5.98908">
        <ele>291.8</ele>
        <time>2021-04-25T10:28:17Z</time>
      </trkpt>
      <trkpt lat="47.25246" lon="5.98919">
        <ele>292</ele>
        <time>2021-04-25T10:28:19Z</time>
      </trkpt>
      <trkpt lat="47.25246" lon="5.98948">
        <ele>292.4</ele>
        <time>2021-04-25T10:28:24Z</time>
      </trkpt>
      <trkpt lat="47.2524" lon="5.98974">
        <ele>292.4</ele>
        <time>2021-04-25T10:28:28Z</time>
      </trkpt>
      <trkpt lat="47.25236" lon="5.98985">
        <ele>292.4</ele>
        <time>2021-04-25T10:28:30Z</time>
      </trkpt>
      <trkpt lat="47.25224" lon="5.9901">
        <ele>292.4</ele>
        <time>2021-04-25T10:28:35Z</time>
      </trkpt>
      <trkpt lat="47.25221" lon="5.99014">
        <ele>292.4</ele>
        <time>2021-04-25T10:28:36Z</time>
      </trkpt>
      <trkpt lat="47.25219" lon="5.99019">
        <ele>292.4</ele>
        <time>2021-04-25T10:28:37Z</time>
      </trkpt>
      <trkpt lat="47.25217" lon="5.99023">
        <ele>292.4</ele>
        <time>2021-04-25T10:28:38Z</time>
      </trkpt>
      <trkpt lat="47.25215" lon="5.99027">
        <ele>292.4</ele>
        <time>2021-04-25T10:28:39Z</time>
      </trkpt>
      <trkpt lat="47.25214" lon="5.99031">
        <ele>292.6</ele>
        <time>2021-04-25T10:28:40Z</time>
      </trkpt>
      <trkpt lat="47.25212" lon="5.99034">
        <ele>292.6</ele>
        <time>2021-04-25T10:28:41Z</time>
      </trkpt>
      <trkpt lat="47.2521" lon="5.99037">
        <ele>292.6</ele>
        <time>2021-04-25T10:28:42Z</time>
      </trkpt>
      <trkpt lat="47.25208" lon="5.99041">
        <ele>292.8</ele>
        <time>2021-04-25T10:28:43Z</time>
      </trkpt>
      <trkpt lat="47.25202" lon="5.99055">
        <ele>293.2</ele>
        <time>2021-04-25T10:28:47Z</time>
      </trkpt>
      <trkpt lat="47.252" lon="5.99058">
        <ele>293.4</ele>
        <time>2021-04-25T10:28:48Z</time>
      </trkpt>
      <trkpt lat="47.25199" lon="5.99061">
        <ele>293.6</ele>
        <time>2021-04-25T10:28:49Z</time>
      </trkpt>
      <trkpt lat="47.25197" lon="5.99064">
        <ele>293.8</ele>
        <time>2021-04-25T10:28:50Z</time>
      </trkpt>
      <trkpt lat="47.25196" lon="5.99067">
        <ele>294</ele>
        <time>2021-04-25T10:28:51Z</time>
      </trkpt>
      <trkpt lat="47.25192" lon="5.99073">
        <ele>294.2</ele>
        <time>2021-04-25T10:28:53Z</time>
      </trkpt>
      <trkpt lat="47.2519" lon="5.99077">
        <ele>294.4</ele>
        <time>2021-04-25T10:28:54Z</time>
      </trkpt>
      <trkpt lat="47.25189" lon="5.9908">
        <ele>294.4</ele>
        <time>2021-04-25T10:28:55Z</time>
      </trkpt>
      <trkpt lat="47.25187" lon="5.99082">
        <ele>294.8</ele>
        <time>2021-04-25T10:28:56Z</time>
      </trkpt>
      <trkpt lat="47.25185" lon="5.99085">
        <ele>295</ele>
        <time>2021-04-25T10:28:57Z</time>
      </trkpt>
      <trkpt lat="47.25184" lon="5.99088">
        <ele>295.2</ele>
        <time>2021-04-25T10:28:58Z</time>
      </trkpt>
      <trkpt lat="47.25182" lon="5.9909">
        <ele>295.4</ele>
        <time>2021-04-25T10:28:59Z</time>
      </trkpt>
      <trkpt lat="47.2518" lon="5.99093">
        <ele>295.4</ele>
        <time>2021-04-25T10:29:00Z</time>
      </trkpt>
      <trkpt lat="47.25179" lon="5.99096">
        <ele>295.6</ele>
        <time>2021-04-25T10:29:01Z</time>
      </trkpt>
      <trkpt lat="47.25177" lon="5.99099">
        <ele>295.8</ele>
        <time>2021-04-25T10:29:02Z</time>
      </trkpt>
      <trkpt lat="47.25175" lon="5.99102">
        <ele>295.8</ele>
        <time>2021-04-25T10:29:03Z</time>
      </trkpt>
      <trkpt lat="47.25174" lon="5.99106">
        <ele>296</ele>
        <time>2021-04-25T10:29:04Z</time>
      </trkpt>
      <trkpt lat="47.25174" lon="5.9911">
        <ele>296.4</ele>
        <time>2021-04-25T10:29:05Z</time>
      </trkpt>
      <trkpt lat="47.25173" lon="5.99115">
        <ele>296.8</ele>
        <time>2021-04-25T10:29:06Z</time>
      </trkpt>
      <trkpt lat="47.25172" lon="5.99118">
        <ele>297</ele>
        <time>2021-04-25T10:29:07Z</time>
      </trkpt>
      <trkpt lat="47.2517" lon="5.99122">
        <ele>297.2</ele>
        <time>2021-04-25T10:29:08Z</time>
      </trkpt>
      <trkpt lat="47.25169" lon="5.99126">
        <ele>297.4</ele>
        <time>2021-04-25T10:29:09Z</time>
      </trkpt>
      <trkpt lat="47.25167" lon="5.99129">
        <ele>297.6</ele>
        <time>2021-04-25T10:29:10Z</time>
      </trkpt>
      <trkpt lat="47.25165" lon="5.99132">
        <ele>297.6</ele>
        <time>2021-04-25T10:29:11Z</time>
      </trkpt>
      <trkpt lat="47.25163" lon="5.99136">
        <ele>298</ele>
        <time>2021-04-25T10:29:12Z</time>
      </trkpt>
      <trkpt lat="47.25161" lon="5.99139">
        <ele>298.2</ele>
        <time>2021-04-25T10:29:13Z</time>
      </trkpt>
      <trkpt lat="47.25159" lon="5.99141">
        <ele>298.4</ele>
        <time>2021-04-25T10:29:14Z</time>
      </trkpt>
      <trkpt lat="47.25157" lon="5.99144">
        <ele>298.8</ele>
        <time>2021-04-25T10:29:15Z</time>
      </trkpt>
      <trkpt lat="47.25155" lon="5.99146">
        <ele>298.8</ele>
        <time>2021-04-25T10:29:16Z</time>
      </trkpt>
      <trkpt lat="47.25153" lon="5.99148">
        <ele>299.2</ele>
        <time>2021-04-25T10:29:17Z</time>
      </trkpt>
      <trkpt lat="47.25151" lon="5.99149">
        <ele>299.2</ele>
        <time>2021-04-25T10:29:18Z</time>
      </trkpt>
      <trkpt lat="47.25149" lon="5.99152">
        <ele>299.6</ele>
        <time>2021-04-25T10:29:19Z</time>
      </trkpt>
      <trkpt lat="47.25147" lon="5.99154">
        <ele>299.8</ele>
        <time>2021-04-25T10:29:20Z</time>
      </trkpt>
      <trkpt lat="47.25145" lon="5.99156">
        <ele>300.2</ele>
        <time>2021-04-25T10:29:21Z</time>
      </trkpt>
      <trkpt lat="47.25143" lon="5.99159">
        <ele>300.4</ele>
        <time>2021-04-25T10:29:22Z</time>
      </trkpt>
      <trkpt lat="47.2514" lon="5.99161">
        <ele>300.4</ele>
        <time>2021-04-25T10:29:23Z</time>
      </trkpt>
      <trkpt lat="47.25138" lon="5.99163">
        <ele>300.6</ele>
        <time>2021-04-25T10:29:24Z</time>
      </trkpt>
      <trkpt lat="47.25135" lon="5.99166">
        <ele>300.6</ele>
        <time>2021-04-25T10:29:25Z</time>
      </trkpt>
      <trkpt lat="47.25133" lon="5.99168">
        <ele>300.8</ele>
        <time>2021-04-25T10:29:26Z</time>
      </trkpt>
      <trkpt lat="47.2513" lon="5.9917">
        <ele>301</ele>
        <time>2021-04-25T10:29:27Z</time>
      </trkpt>
      <trkpt lat="47.25127" lon="5.99173">
        <ele>301.2</ele>
        <time>2021-04-25T10:29:28Z</time>
      </trkpt>
      <trkpt lat="47.25125" lon="5.99175">
        <ele>301.4</ele>
        <time>2021-04-25T10:29:29Z</time>
      </trkpt>
      <trkpt lat="47.25122" lon="5.99178">
        <ele>301.6</ele>
        <time>2021-04-25T10:29:30Z</time>
      </trkpt>
      <trkpt lat="47.2512" lon="5.9918">
        <ele>301.8</ele>
        <time>2021-04-25T10:29:31Z</time>
      </trkpt>
      <trkpt lat="47.25117" lon="5.99182">
        <ele>301.8</ele>
        <time>2021-04-25T10:29:32Z</time>
      </trkpt>
      <trkpt lat="47.25115" lon="5.99184">
        <ele>302</ele>
        <time>2021-04-25T10:29:33Z</time>
      </trkpt>
      <trkpt lat="47.25113" lon="5.99187">
        <ele>302</ele>
        <time>2021-04-25T10:29:34Z</time>
      </trkpt>
      <trkpt lat="47.2511" lon="5.99189">
        <ele>302.2</ele>
        <time>2021-04-25T10:29:35Z</time>
      </trkpt>
      <trkpt lat="47.25108" lon="5.99192">
        <ele>302.4</ele>
        <time>2021-04-25T10:29:36Z</time>
      </trkpt>
      <trkpt lat="47.25105" lon="5.99194">
        <ele>302.6</ele>
        <time>2021-04-25T10:29:37Z</time>
      </trkpt>
      <trkpt lat="47.25103" lon="5.99196">
        <ele>302.8</ele>
        <time>2021-04-25T10:29:38Z</time>
      </trkpt>
      <trkpt lat="47.25101" lon="5.99198">
        <ele>302.8</ele>
        <time>2021-04-25T10:29:39Z</time>
      </trkpt>
      <trkpt lat="47.25098" lon="5.992">
        <ele>303.2</ele>
        <time>2021-04-25T10:29:40Z</time>
      </trkpt>
      <trkpt lat="47.25096" lon="5.99202">
        <ele>303.2</ele>
        <time>2021-04-25T10:29:41Z</time>
      </trkpt>
      <trkpt lat="47.25094" lon="5.99204">
        <ele>303.4</ele>
        <time>2021-04-25T10:29:42Z</time>
      </trkpt>
      <trkpt lat="47.25092" lon="5.99207">
        <ele>303.6</ele>
        <time>2021-04-25T10:29:43Z</time>
      </trkpt>
      <trkpt lat="47.2509" lon="5.99209">
        <ele>303.6</ele>
        <time>2021-04-25T10:29:44Z</time>
      </trkpt>
      <trkpt lat="47.25088" lon="5.99211">
        <ele>303.8</ele>
        <time>2021-04-25T10:29:45Z</time>
      </trkpt>
      <trkpt lat="47.25085" lon="5.99212">
        <ele>303.8</ele>
        <time>2021-04-25T10:29:46Z</time>
      </trkpt>
      <trkpt lat="47.25083" lon="5.99213">
        <ele>304</ele>
        <time>2021-04-25T10:29:47Z</time>
      </trkpt>
      <trkpt lat="47.25081" lon="5.99214">
        <ele>304</ele>
        <time>2021-04-25T10:29:48Z</time>
      </trkpt>
      <trkpt lat="47.25078" lon="5.99215">
        <ele>304.2</ele>
        <time>2021-04-25T10:29:49Z</time>
      </trkpt>
      <trkpt lat="47.25075" lon="5.99218">
        <ele>304.4</ele>
        <time>2021-04-25T10:29:50Z</time>
      </trkpt>
      <trkpt lat="47.25073" lon="5.99221">
        <ele>304.4</ele>
        <time>2021-04-25T10:29:51Z</time>
      </trkpt>
      <trkpt lat="47.2507" lon="5.99224">
        <ele>304.4</ele>
        <time>2021-04-25T10:29:52Z</time>
      </trkpt>
      <trkpt lat="47.25067" lon="5.99226">
        <ele>304.4</ele>
        <time>2021-04-25T10:29:53Z</time>
      </trkpt>
      <trkpt lat="47.25065" lon="5.99229">
        <ele>304.4</ele>
        <time>2021-04-25T10:29:54Z</time>
      </trkpt>
      <trkpt lat="47.25063" lon="5.99231">
        <ele>304.6</ele>
        <time>2021-04-25T10:29:55Z</time>
      </trkpt>
      <trkpt lat="47.2506" lon="5.99234">
        <ele>304.6</ele>
        <time>2021-04-25T10:29:56Z</time>
      </trkpt>
      <trkpt lat="47.25058" lon="5.99236">
        <ele>304.6</ele>
        <time>2021-04-25T10:29:57Z</time>
      </trkpt>
      <trkpt lat="47.25055" lon="5.99239">
        <ele>304.8</ele>
        <time>2021-04-25T10:29:58Z</time>
      </trkpt>
      <trkpt lat="47.25053" lon="5.99242">
        <ele>305</ele>
        <time>2021-04-25T10:29:59Z</time>
      </trkpt>
      <trkpt lat="47.25051" lon="5.99244">
        <ele>305</ele>
        <time>2021-04-25T10:30:00Z</time>
      </trkpt>
      <trkpt lat="47.25049" lon="5.99247">
        <ele>305</ele>
        <time>2021-04-25T10:30:01Z</time>
      </trkpt>
      <trkpt lat="47.25046" lon="5.99249">
        <ele>305.2</ele>
        <time>2021-04-25T10:30:02Z</time>
      </trkpt>
      <trkpt lat="47.25044" lon="5.99252">
        <ele>305.2</ele>
        <time>2021-04-25T10:30:03Z</time>
      </trkpt>
      <trkpt lat="47.25042" lon="5.99254">
        <ele>305.2</ele>
        <time>2021-04-25T10:30:04Z</time>
      </trkpt>
      <trkpt lat="47.25039" lon="5.99256">
        <ele>305.4</ele>
        <time>2021-04-25T10:30:05Z</time>
      </trkpt>
      <trkpt lat="47.25037" lon="5.99258">
        <ele>305.6</ele>
        <time>2021-04-25T10:30:06Z</time>
      </trkpt>
      <trkpt lat="47.25034" lon="5.99261">
        <ele>305.4</ele>
        <time>2021-04-25T10:30:07Z</time>
      </trkpt>
      <trkpt lat="47.25025" lon="5.99269">
        <ele>305.6</ele>
        <time>2021-04-25T10:30:11Z</time>
      </trkpt>
      <trkpt lat="47.25016" lon="5.99279">
        <ele>305.8</ele>
        <time>2021-04-25T10:30:15Z</time>
      </trkpt>
      <trkpt lat="47.24997" lon="5.99301">
        <ele>306.4</ele>
        <time>2021-04-25T10:30:23Z</time>
      </trkpt>
      <trkpt lat="47.24987" lon="5.99314">
        <ele>306.8</ele>
        <time>2021-04-25T10:30:27Z</time>
      </trkpt>
      <trkpt lat="47.24973" lon="5.99329">
        <ele>307.2</ele>
        <time>2021-04-25T10:30:32Z</time>
      </trkpt>
      <trkpt lat="47.24971" lon="5.99332">
        <ele>307.2</ele>
        <time>2021-04-25T10:30:33Z</time>
      </trkpt>
      <trkpt lat="47.2497" lon="5.99335">
        <ele>307.6</ele>
        <time>2021-04-25T10:30:34Z</time>
      </trkpt>
      <trkpt lat="47.24968" lon="5.99337">
        <ele>307.6</ele>
        <time>2021-04-25T10:30:35Z</time>
      </trkpt>
      <trkpt lat="47.24968" lon="5.9934">
        <ele>307.8</ele>
        <time>2021-04-25T10:30:36Z</time>
      </trkpt>
      <trkpt lat="47.24968" lon="5.99342">
        <ele>307.8</ele>
        <time>2021-04-25T10:30:37Z</time>
      </trkpt>
      <trkpt lat="47.24968" lon="5.99345">
        <ele>308</ele>
        <time>2021-04-25T10:30:38Z</time>
      </trkpt>
      <trkpt lat="47.24969" lon="5.99348">
        <ele>308</ele>
        <time>2021-04-25T10:30:39Z</time>
      </trkpt>
      <trkpt lat="47.24969" lon="5.99351">
        <ele>308</ele>
        <time>2021-04-25T10:30:40Z</time>
      </trkpt>
      <trkpt lat="47.24969" lon="5.99353">
        <ele>308</ele>
        <time>2021-04-25T10:30:41Z</time>
      </trkpt>
      <trkpt lat="47.24969" lon="5.99356">
        <ele>308</ele>
        <time>2021-04-25T10:30:42Z</time>
      </trkpt>
      <trkpt lat="47.2497" lon="5.99358">
        <ele>308.2</ele>
        <time>2021-04-25T10:30:43Z</time>
      </trkpt>
      <trkpt lat="47.24971" lon="5.9936">
        <ele>308.2</ele>
        <time>2021-04-25T10:30:44Z</time>
      </trkpt>
      <trkpt lat="47.24972" lon="5.99361">
        <ele>308.2</ele>
        <time>2021-04-25T10:30:45Z</time>
      </trkpt>
      <trkpt lat="47.24973" lon="5.99362">
        <ele>308.2</ele>
        <time>2021-04-25T10:30:46Z</time>
      </trkpt>
      <trkpt lat="47.24973" lon="5.99363">
        <ele>308</ele>
        <time>2021-04-25T10:30:50Z</time>
      </trkpt>
      <trkpt lat="47.24973" lon="5.99363">
        <ele>308</ele>
        <time>2021-04-25T10:31:31Z</time>
      </trkpt>
      <trkpt lat="47.24975" lon="5.99366">
        <ele>308</ele>
        <time>2021-04-25T10:31:32Z</time>
      </trkpt>
      <trkpt lat="47.24976" lon="5.99369">
        <ele>307.8</ele>
        <time>2021-04-25T10:31:33Z</time>
      </trkpt>
      <trkpt lat="47.24979" lon="5.99371">
        <ele>307.8</ele>
        <time>2021-04-25T10:31:34Z</time>
      </trkpt>
      <trkpt lat="47.24981" lon="5.99374">
        <ele>307.8</ele>
        <time>2021-04-25T10:31:35Z</time>
      </trkpt>
      <trkpt lat="47.24997" lon="5.99396">
        <ele>307.4</ele>
        <time>2021-04-25T10:31:41Z</time>
      </trkpt>
      <trkpt lat="47.24999" lon="5.994">
        <ele>307.4</ele>
        <time>2021-04-25T10:31:42Z</time>
      </trkpt>
      <trkpt lat="47.25002" lon="5.99404">
        <ele>307.2</ele>
        <time>2021-04-25T10:31:43Z</time>
      </trkpt>
      <trkpt lat="47.25007" lon="5.99412">
        <ele>307</ele>
        <time>2021-04-25T10:31:45Z</time>
      </trkpt>
      <trkpt lat="47.2501" lon="5.99416">
        <ele>306.8</ele>
        <time>2021-04-25T10:31:46Z</time>
      </trkpt>
      <trkpt lat="47.25015" lon="5.99425">
        <ele>306.8</ele>
        <time>2021-04-25T10:31:48Z</time>
      </trkpt>
      <trkpt lat="47.2504" lon="5.99465">
        <ele>306</ele>
        <time>2021-04-25T10:31:56Z</time>
      </trkpt>
      <trkpt lat="47.25043" lon="5.9947">
        <ele>305.8</ele>
        <time>2021-04-25T10:31:57Z</time>
      </trkpt>
      <trkpt lat="47.25056" lon="5.99494">
        <ele>305</ele>
        <time>2021-04-25T10:32:02Z</time>
      </trkpt>
      <trkpt lat="47.25058" lon="5.99499">
        <ele>305</ele>
        <time>2021-04-25T10:32:03Z</time>
      </trkpt>
      <trkpt lat="47.2506" lon="5.99504">
        <ele>304.8</ele>
        <time>2021-04-25T10:32:04Z</time>
      </trkpt>
      <trkpt lat="47.25062" lon="5.99509">
        <ele>304.8</ele>
        <time>2021-04-25T10:32:05Z</time>
      </trkpt>
      <trkpt lat="47.25064" lon="5.99514">
        <ele>304.6</ele>
        <time>2021-04-25T10:32:06Z</time>
      </trkpt>
      <trkpt lat="47.25066" lon="5.9952">
        <ele>304.6</ele>
        <time>2021-04-25T10:32:07Z</time>
      </trkpt>
      <trkpt lat="47.25067" lon="5.99525">
        <ele>304.4</ele>
        <time>2021-04-25T10:32:08Z</time>
      </trkpt>
      <trkpt lat="47.25069" lon="5.99531">
        <ele>304.4</ele>
        <time>2021-04-25T10:32:09Z</time>
      </trkpt>
      <trkpt lat="47.25075" lon="5.99556">
        <ele>304.4</ele>
        <time>2021-04-25T10:32:13Z</time>
      </trkpt>
      <trkpt lat="47.25077" lon="5.99568">
        <ele>304</ele>
        <time>2021-04-25T10:32:15Z</time>
      </trkpt>
      <trkpt lat="47.25079" lon="5.9958">
        <ele>303.6</ele>
        <time>2021-04-25T10:32:17Z</time>
      </trkpt>
      <trkpt lat="47.25081" lon="5.996">
        <ele>303.2</ele>
        <time>2021-04-25T10:32:20Z</time>
      </trkpt>
      <trkpt lat="47.25092" lon="5.99656">
        <ele>302.6</ele>
        <time>2021-04-25T10:32:28Z</time>
      </trkpt>
      <trkpt lat="47.25109" lon="5.99701">
        <ele>301.6</ele>
        <time>2021-04-25T10:32:35Z</time>
      </trkpt>
      <trkpt lat="47.25112" lon="5.99706">
        <ele>301.4</ele>
        <time>2021-04-25T10:32:36Z</time>
      </trkpt>
      <trkpt lat="47.25123" lon="5.99727">
        <ele>300.8</ele>
        <time>2021-04-25T10:32:40Z</time>
      </trkpt>
      <trkpt lat="47.25126" lon="5.99731">
        <ele>300.6</ele>
        <time>2021-04-25T10:32:41Z</time>
      </trkpt>
      <trkpt lat="47.25129" lon="5.99736">
        <ele>300.6</ele>
        <time>2021-04-25T10:32:42Z</time>
      </trkpt>
      <trkpt lat="47.25131" lon="5.99741">
        <ele>300.6</ele>
        <time>2021-04-25T10:32:43Z</time>
      </trkpt>
      <trkpt lat="47.25134" lon="5.99746">
        <ele>300.6</ele>
        <time>2021-04-25T10:32:44Z</time>
      </trkpt>
      <trkpt lat="47.25137" lon="5.9975">
        <ele>300.6</ele>
        <time>2021-04-25T10:32:45Z</time>
      </trkpt>
      <trkpt lat="47.2514" lon="5.99755">
        <ele>300.6</ele>
        <time>2021-04-25T10:32:46Z</time>
      </trkpt>
      <trkpt lat="47.25143" lon="5.9976">
        <ele>300.6</ele>
        <time>2021-04-25T10:32:47Z</time>
      </trkpt>
      <trkpt lat="47.25146" lon="5.99764">
        <ele>300.6</ele>
        <time>2021-04-25T10:32:48Z</time>
      </trkpt>
      <trkpt lat="47.25149" lon="5.99768">
        <ele>300.6</ele>
        <time>2021-04-25T10:32:49Z</time>
      </trkpt>
      <trkpt lat="47.25151" lon="5.99772">
        <ele>300.8</ele>
        <time>2021-04-25T10:32:50Z</time>
      </trkpt>
      <trkpt lat="47.25154" lon="5.99776">
        <ele>301</ele>
        <time>2021-04-25T10:32:51Z</time>
      </trkpt>
      <trkpt lat="47.25156" lon="5.9978">
        <ele>301.2</ele>
        <time>2021-04-25T10:32:52Z</time>
      </trkpt>
      <trkpt lat="47.25159" lon="5.99784">
        <ele>301.4</ele>
        <time>2021-04-25T10:32:53Z</time>
      </trkpt>
      <trkpt lat="47.25161" lon="5.99788">
        <ele>301.4</ele>
        <time>2021-04-25T10:32:54Z</time>
      </trkpt>
      <trkpt lat="47.25163" lon="5.99792">
        <ele>301.8</ele>
        <time>2021-04-25T10:32:55Z</time>
      </trkpt>
      <trkpt lat="47.25166" lon="5.99797">
        <ele>301.8</ele>
        <time>2021-04-25T10:32:56Z</time>
      </trkpt>
      <trkpt lat="47.25168" lon="5.99801">
        <ele>302</ele>
        <time>2021-04-25T10:32:57Z</time>
      </trkpt>
      <trkpt lat="47.25171" lon="5.99805">
        <ele>302.2</ele>
        <time>2021-04-25T10:32:58Z</time>
      </trkpt>
      <trkpt lat="47.25173" lon="5.99808">
        <ele>302.2</ele>
        <time>2021-04-25T10:32:59Z</time>
      </trkpt>
      <trkpt lat="47.25175" lon="5.99812">
        <ele>302.4</ele>
        <time>2021-04-25T10:33:00Z</time>
      </trkpt>
      <trkpt lat="47.25177" lon="5.99816">
        <ele>302.4</ele>
        <time>2021-04-25T10:33:01Z</time>
      </trkpt>
      <trkpt lat="47.2518" lon="5.99819">
        <ele>302.6</ele>
        <time>2021-04-25T10:33:02Z</time>
      </trkpt>
      <trkpt lat="47.25182" lon="5.99822">
        <ele>302.8</ele>
        <time>2021-04-25T10:33:03Z</time>
      </trkpt>
      <trkpt lat="47.25185" lon="5.99824">
        <ele>303</ele>
        <time>2021-04-25T10:33:04Z</time>
      </trkpt>
      <trkpt lat="47.25189" lon="5.99825">
        <ele>303.2</ele>
        <time>2021-04-25T10:33:05Z</time>
      </trkpt>
      <trkpt lat="47.25193" lon="5.99825">
        <ele>303.4</ele>
        <time>2021-04-25T10:33:06Z</time>
      </trkpt>
      <trkpt lat="47.25197" lon="5.99826">
        <ele>303.4</ele>
        <time>2021-04-25T10:33:07Z</time>
      </trkpt>
      <trkpt lat="47.25201" lon="5.99826">
        <ele>303.4</ele>
        <time>2021-04-25T10:33:08Z</time>
      </trkpt>
      <trkpt lat="47.25222" lon="5.99833">
        <ele>303.8</ele>
        <time>2021-04-25T10:33:14Z</time>
      </trkpt>
      <trkpt lat="47.25227" lon="5.99839">
        <ele>303.8</ele>
        <time>2021-04-25T10:33:16Z</time>
      </trkpt>
      <trkpt lat="47.2523" lon="5.99842">
        <ele>303.8</ele>
        <time>2021-04-25T10:33:17Z</time>
      </trkpt>
      <trkpt lat="47.25232" lon="5.99846">
        <ele>303.8</ele>
        <time>2021-04-25T10:33:18Z</time>
      </trkpt>
      <trkpt lat="47.25235" lon="5.9985">
        <ele>303.8</ele>
        <time>2021-04-25T10:33:19Z</time>
      </trkpt>
      <trkpt lat="47.2524" lon="5.99857">
        <ele>303.8</ele>
        <time>2021-04-25T10:33:21Z</time>
      </trkpt>
      <trkpt lat="47.25251" lon="5.99874">
        <ele>304</ele>
        <time>2021-04-25T10:33:25Z</time>
      </trkpt>
      <trkpt lat="47.25252" lon="5.9988">
        <ele>304</ele>
        <time>2021-04-25T10:33:26Z</time>
      </trkpt>
      <trkpt lat="47.25252" lon="5.99886">
        <ele>304</ele>
        <time>2021-04-25T10:33:27Z</time>
      </trkpt>
      <trkpt lat="47.25251" lon="5.99892">
        <ele>304</ele>
        <time>2021-04-25T10:33:28Z</time>
      </trkpt>
      <trkpt lat="47.25251" lon="5.99897">
        <ele>304</ele>
        <time>2021-04-25T10:33:29Z</time>
      </trkpt>
      <trkpt lat="47.2525" lon="5.99902">
        <ele>304.2</ele>
        <time>2021-04-25T10:33:30Z</time>
      </trkpt>
      <trkpt lat="47.25249" lon="5.99914">
        <ele>304.2</ele>
        <time>2021-04-25T10:33:32Z</time>
      </trkpt>
      <trkpt lat="47.25248" lon="5.99925">
        <ele>304.2</ele>
        <time>2021-04-25T10:33:34Z</time>
      </trkpt>
      <trkpt lat="47.25248" lon="5.99931">
        <ele>304.2</ele>
        <time>2021-04-25T10:33:35Z</time>
      </trkpt>
      <trkpt lat="47.25249" lon="5.99936">
        <ele>304.2</ele>
        <time>2021-04-25T10:33:36Z</time>
      </trkpt>
      <trkpt lat="47.25251" lon="5.9994">
        <ele>304.2</ele>
        <time>2021-04-25T10:33:37Z</time>
      </trkpt>
      <trkpt lat="47.25253" lon="5.99944">
        <ele>304.2</ele>
        <time>2021-04-25T10:33:38Z</time>
      </trkpt>
      <trkpt lat="47.25256" lon="5.99949">
        <ele>304.4</ele>
        <time>2021-04-25T10:33:39Z</time>
      </trkpt>
      <trkpt lat="47.25258" lon="5.99953">
        <ele>304.4</ele>
        <time>2021-04-25T10:33:40Z</time>
      </trkpt>
      <trkpt lat="47.25263" lon="5.99962">
        <ele>304.4</ele>
        <time>2021-04-25T10:33:42Z</time>
      </trkpt>
      <trkpt lat="47.25265" lon="5.99967">
        <ele>304.4</ele>
        <time>2021-04-25T10:33:43Z</time>
      </trkpt>
      <trkpt lat="47.25267" lon="5.99972">
        <ele>304.6</ele>
        <time>2021-04-25T10:33:44Z</time>
      </trkpt>
      <trkpt lat="47.25276" lon="5.99987">
        <ele>304.6</ele>
        <time>2021-04-25T10:33:47Z</time>
      </trkpt>
      <trkpt lat="47.25279" lon="5.99992">
        <ele>304.6</ele>
        <time>2021-04-25T10:33:48Z</time>
      </trkpt>
      <trkpt lat="47.25284" lon="6.00001">
        <ele>304.6</ele>
        <time>2021-04-25T10:33:50Z</time>
      </trkpt>
      <trkpt lat="47.25287" lon="6.00006">
        <ele>304.8</ele>
        <time>2021-04-25T10:33:51Z</time>
      </trkpt>
      <trkpt lat="47.25289" lon="6.0001">
        <ele>304.8</ele>
        <time>2021-04-25T10:33:52Z</time>
      </trkpt>
      <trkpt lat="47.25292" lon="6.00014">
        <ele>305</ele>
        <time>2021-04-25T10:33:53Z</time>
      </trkpt>
      <trkpt lat="47.25294" lon="6.00017">
        <ele>305.2</ele>
        <time>2021-04-25T10:33:54Z</time>
      </trkpt>
      <trkpt lat="47.25297" lon="6.00021">
        <ele>305.4</ele>
        <time>2021-04-25T10:33:55Z</time>
      </trkpt>
      <trkpt lat="47.25299" lon="6.00024">
        <ele>305.4</ele>
        <time>2021-04-25T10:33:56Z</time>
      </trkpt>
      <trkpt lat="47.25302" lon="6.00027">
        <ele>305.8</ele>
        <time>2021-04-25T10:33:57Z</time>
      </trkpt>
      <trkpt lat="47.25304" lon="6.00031">
        <ele>306</ele>
        <time>2021-04-25T10:33:58Z</time>
      </trkpt>
      <trkpt lat="47.25307" lon="6.00034">
        <ele>306.2</ele>
        <time>2021-04-25T10:33:59Z</time>
      </trkpt>
      <trkpt lat="47.25309" lon="6.00037">
        <ele>306.6</ele>
        <time>2021-04-25T10:34:00Z</time>
      </trkpt>
      <trkpt lat="47.25311" lon="6.0004">
        <ele>306.8</ele>
        <time>2021-04-25T10:34:01Z</time>
      </trkpt>
      <trkpt lat="47.25313" lon="6.00044">
        <ele>307.2</ele>
        <time>2021-04-25T10:34:02Z</time>
      </trkpt>
      <trkpt lat="47.25315" lon="6.00047">
        <ele>307.6</ele>
        <time>2021-04-25T10:34:03Z</time>
      </trkpt>
      <trkpt lat="47.25317" lon="6.00051">
        <ele>307.8</ele>
        <time>2021-04-25T10:34:04Z</time>
      </trkpt>
      <trkpt lat="47.25319" lon="6.00054">
        <ele>308</ele>
        <time>2021-04-25T10:34:05Z</time>
      </trkpt>
      <trkpt lat="47.25321" lon="6.00057">
        <ele>308.2</ele>
        <time>2021-04-25T10:34:06Z</time>
      </trkpt>
      <trkpt lat="47.25323" lon="6.0006">
        <ele>308.4</ele>
        <time>2021-04-25T10:34:07Z</time>
      </trkpt>
      <trkpt lat="47.25325" lon="6.00062">
        <ele>308.4</ele>
        <time>2021-04-25T10:34:08Z</time>
      </trkpt>
      <trkpt lat="47.25327" lon="6.00066">
        <ele>308.6</ele>
        <time>2021-04-25T10:34:09Z</time>
      </trkpt>
      <trkpt lat="47.25329" lon="6.00069">
        <ele>308.8</ele>
        <time>2021-04-25T10:34:10Z</time>
      </trkpt>
      <trkpt lat="47.25331" lon="6.00072">
        <ele>309</ele>
        <time>2021-04-25T10:34:11Z</time>
      </trkpt>
      <trkpt lat="47.25332" lon="6.00076">
        <ele>309.2</ele>
        <time>2021-04-25T10:34:12Z</time>
      </trkpt>
      <trkpt lat="47.25334" lon="6.00079">
        <ele>309.2</ele>
        <time>2021-04-25T10:34:13Z</time>
      </trkpt>
      <trkpt lat="47.25336" lon="6.00082">
        <ele>309.6</ele>
        <time>2021-04-25T10:34:14Z</time>
      </trkpt>
      <trkpt lat="47.25338" lon="6.00086">
        <ele>309.6</ele>
        <time>2021-04-25T10:34:15Z</time>
      </trkpt>
      <trkpt lat="47.2534" lon="6.00089">
        <ele>309.8</ele>
        <time>2021-04-25T10:34:16Z</time>
      </trkpt>
      <trkpt lat="47.25341" lon="6.00093">
        <ele>310</ele>
        <time>2021-04-25T10:34:17Z</time>
      </trkpt>
      <trkpt lat="47.25343" lon="6.00096">
        <ele>310</ele>
        <time>2021-04-25T10:34:18Z</time>
      </trkpt>
      <trkpt lat="47.25345" lon="6.001">
        <ele>310.2</ele>
        <time>2021-04-25T10:34:19Z</time>
      </trkpt>
      <trkpt lat="47.25346" lon="6.00103">
        <ele>310.2</ele>
        <time>2021-04-25T10:34:20Z</time>
      </trkpt>
      <trkpt lat="47.25348" lon="6.00107">
        <ele>310.2</ele>
        <time>2021-04-25T10:34:21Z</time>
      </trkpt>
      <trkpt lat="47.2535" lon="6.0011">
        <ele>310.2</ele>
        <time>2021-04-25T10:34:22Z</time>
      </trkpt>
      <trkpt lat="47.25352" lon="6.00113">
        <ele>310.4</ele>
        <time>2021-04-25T10:34:23Z</time>
      </trkpt>
      <trkpt lat="47.25354" lon="6.00116">
        <ele>310.4</ele>
        <time>2021-04-25T10:34:24Z</time>
      </trkpt>
      <trkpt lat="47.25356" lon="6.0012">
        <ele>310.4</ele>
        <time>2021-04-25T10:34:25Z</time>
      </trkpt>
      <trkpt lat="47.25358" lon="6.00124">
        <ele>310.4</ele>
        <time>2021-04-25T10:34:26Z</time>
      </trkpt>
      <trkpt lat="47.2536" lon="6.00127">
        <ele>310.4</ele>
        <time>2021-04-25T10:34:27Z</time>
      </trkpt>
      <trkpt lat="47.25362" lon="6.00131">
        <ele>310.6</ele>
        <time>2021-04-25T10:34:28Z</time>
      </trkpt>
      <trkpt lat="47.25364" lon="6.00134">
        <ele>310.6</ele>
        <time>2021-04-25T10:34:29Z</time>
      </trkpt>
      <trkpt lat="47.25366" lon="6.00138">
        <ele>310.6</ele>
        <time>2021-04-25T10:34:30Z</time>
      </trkpt>
      <trkpt lat="47.25369" lon="6.00141">
        <ele>310.4</ele>
        <time>2021-04-25T10:34:31Z</time>
      </trkpt>
      <trkpt lat="47.25371" lon="6.00145">
        <ele>310.4</ele>
        <time>2021-04-25T10:34:32Z</time>
      </trkpt>
      <trkpt lat="47.25373" lon="6.00149">
        <ele>310.4</ele>
        <time>2021-04-25T10:34:33Z</time>
      </trkpt>
      <trkpt lat="47.25375" lon="6.00152">
        <ele>310.4</ele>
        <time>2021-04-25T10:34:34Z</time>
      </trkpt>
      <trkpt lat="47.25377" lon="6.00155">
        <ele>310.4</ele>
        <time>2021-04-25T10:34:35Z</time>
      </trkpt>
      <trkpt lat="47.25379" lon="6.00158">
        <ele>310.4</ele>
        <time>2021-04-25T10:34:36Z</time>
      </trkpt>
      <trkpt lat="47.25382" lon="6.00164">
        <ele>310.6</ele>
        <time>2021-04-25T10:34:38Z</time>
      </trkpt>
      <trkpt lat="47.25384" lon="6.00167">
        <ele>310.6</ele>
        <time>2021-04-25T10:34:39Z</time>
      </trkpt>
      <trkpt lat="47.25386" lon="6.00171">
        <ele>310.6</ele>
        <time>2021-04-25T10:34:40Z</time>
      </trkpt>
      <trkpt lat="47.25388" lon="6.00174">
        <ele>310.8</ele>
        <time>2021-04-25T10:34:41Z</time>
      </trkpt>
      <trkpt lat="47.25389" lon="6.00178">
        <ele>311</ele>
        <time>2021-04-25T10:34:42Z</time>
      </trkpt>
      <trkpt lat="47.25391" lon="6.00182">
        <ele>311.2</ele>
        <time>2021-04-25T10:34:43Z</time>
      </trkpt>
      <trkpt lat="47.25393" lon="6.00185">
        <ele>311.4</ele>
        <time>2021-04-25T10:34:44Z</time>
      </trkpt>
      <trkpt lat="47.25394" lon="6.00189">
        <ele>311.4</ele>
        <time>2021-04-25T10:34:45Z</time>
      </trkpt>
      <trkpt lat="47.25396" lon="6.00192">
        <ele>311.4</ele>
        <time>2021-04-25T10:34:46Z</time>
      </trkpt>
      <trkpt lat="47.25401" lon="6.00201">
        <ele>311.8</ele>
        <time>2021-04-25T10:34:49Z</time>
      </trkpt>
      <trkpt lat="47.25403" lon="6.00204">
        <ele>312</ele>
        <time>2021-04-25T10:34:50Z</time>
      </trkpt>
      <trkpt lat="47.25405" lon="6.00207">
        <ele>312</ele>
        <time>2021-04-25T10:34:51Z</time>
      </trkpt>
      <trkpt lat="47.25407" lon="6.0021">
        <ele>312.2</ele>
        <time>2021-04-25T10:34:52Z</time>
      </trkpt>
      <trkpt lat="47.25409" lon="6.00213">
        <ele>312.4</ele>
        <time>2021-04-25T10:34:53Z</time>
      </trkpt>
      <trkpt lat="47.25411" lon="6.00215">
        <ele>312.4</ele>
        <time>2021-04-25T10:34:54Z</time>
      </trkpt>
      <trkpt lat="47.25413" lon="6.00218">
        <ele>312.6</ele>
        <time>2021-04-25T10:34:55Z</time>
      </trkpt>
      <trkpt lat="47.25415" lon="6.0022">
        <ele>313</ele>
        <time>2021-04-25T10:34:56Z</time>
      </trkpt>
      <trkpt lat="47.25419" lon="6.00226">
        <ele>313.4</ele>
        <time>2021-04-25T10:34:58Z</time>
      </trkpt>
      <trkpt lat="47.2542" lon="6.00229">
        <ele>313.4</ele>
        <time>2021-04-25T10:34:59Z</time>
      </trkpt>
      <trkpt lat="47.25421" lon="6.00233">
        <ele>313.8</ele>
        <time>2021-04-25T10:35:00Z</time>
      </trkpt>
      <trkpt lat="47.25422" lon="6.00237">
        <ele>314</ele>
        <time>2021-04-25T10:35:01Z</time>
      </trkpt>
      <trkpt lat="47.25423" lon="6.00241">
        <ele>314.2</ele>
        <time>2021-04-25T10:35:02Z</time>
      </trkpt>
      <trkpt lat="47.25425" lon="6.00243">
        <ele>314.4</ele>
        <time>2021-04-25T10:35:03Z</time>
      </trkpt>
      <trkpt lat="47.25426" lon="6.00246">
        <ele>314.6</ele>
        <time>2021-04-25T10:35:04Z</time>
      </trkpt>
      <trkpt lat="47.25429" lon="6.00248">
        <ele>314.8</ele>
        <time>2021-04-25T10:35:05Z</time>
      </trkpt>
      <trkpt lat="47.25431" lon="6.00251">
        <ele>314.8</ele>
        <time>2021-04-25T10:35:06Z</time>
      </trkpt>
      <trkpt lat="47.25433" lon="6.00253">
        <ele>315.2</ele>
        <time>2021-04-25T10:35:07Z</time>
      </trkpt>
      <trkpt lat="47.25436" lon="6.00254">
        <ele>315.4</ele>
        <time>2021-04-25T10:35:08Z</time>
      </trkpt>
      <trkpt lat="47.25438" lon="6.00257">
        <ele>315.6</ele>
        <time>2021-04-25T10:35:09Z</time>
      </trkpt>
      <trkpt lat="47.2544" lon="6.00259">
        <ele>315.8</ele>
        <time>2021-04-25T10:35:10Z</time>
      </trkpt>
      <trkpt lat="47.25441" lon="6.00262">
        <ele>315.8</ele>
        <time>2021-04-25T10:35:11Z</time>
      </trkpt>
      <trkpt lat="47.25443" lon="6.00266">
        <ele>316</ele>
        <time>2021-04-25T10:35:12Z</time>
      </trkpt>
      <trkpt lat="47.25445" lon="6.00268">
        <ele>316.2</ele>
        <time>2021-04-25T10:35:13Z</time>
      </trkpt>
      <trkpt lat="47.25446" lon="6.0027">
        <ele>316.8</ele>
        <time>2021-04-25T10:35:14Z</time>
      </trkpt>
      <trkpt lat="47.25448" lon="6.00272">
        <ele>317</ele>
        <time>2021-04-25T10:35:15Z</time>
      </trkpt>
      <trkpt lat="47.2545" lon="6.00273">
        <ele>317.4</ele>
        <time>2021-04-25T10:35:16Z</time>
      </trkpt>
      <trkpt lat="47.25452" lon="6.00274">
        <ele>317.4</ele>
        <time>2021-04-25T10:35:17Z</time>
      </trkpt>
      <trkpt lat="47.25453" lon="6.00276">
        <ele>317.6</ele>
        <time>2021-04-25T10:35:18Z</time>
      </trkpt>
      <trkpt lat="47.25455" lon="6.00277">
        <ele>317.8</ele>
        <time>2021-04-25T10:35:19Z</time>
      </trkpt>
      <trkpt lat="47.25457" lon="6.00278">
        <ele>318</ele>
        <time>2021-04-25T10:35:20Z</time>
      </trkpt>
      <trkpt lat="47.25459" lon="6.0028">
        <ele>318.4</ele>
        <time>2021-04-25T10:35:21Z</time>
      </trkpt>
      <trkpt lat="47.25461" lon="6.00281">
        <ele>318.6</ele>
        <time>2021-04-25T10:35:22Z</time>
      </trkpt>
      <trkpt lat="47.25462" lon="6.00282">
        <ele>318.8</ele>
        <time>2021-04-25T10:35:23Z</time>
      </trkpt>
      <trkpt lat="47.25464" lon="6.00284">
        <ele>319</ele>
        <time>2021-04-25T10:35:24Z</time>
      </trkpt>
      <trkpt lat="47.25465" lon="6.00286">
        <ele>319.4</ele>
        <time>2021-04-25T10:35:25Z</time>
      </trkpt>
      <trkpt lat="47.25467" lon="6.00287">
        <ele>319.4</ele>
        <time>2021-04-25T10:35:26Z</time>
      </trkpt>
      <trkpt lat="47.25469" lon="6.00289">
        <ele>319.8</ele>
        <time>2021-04-25T10:35:27Z</time>
      </trkpt>
      <trkpt lat="47.2547" lon="6.0029">
        <ele>319.8</ele>
        <time>2021-04-25T10:35:28Z</time>
      </trkpt>
      <trkpt lat="47.25472" lon="6.00291">
        <ele>320</ele>
        <time>2021-04-25T10:35:29Z</time>
      </trkpt>
      <trkpt lat="47.25473" lon="6.00293">
        <ele>320.2</ele>
        <time>2021-04-25T10:35:30Z</time>
      </trkpt>
      <trkpt lat="47.25475" lon="6.00294">
        <ele>320.4</ele>
        <time>2021-04-25T10:35:31Z</time>
      </trkpt>
      <trkpt lat="47.25477" lon="6.00295">
        <ele>320.4</ele>
        <time>2021-04-25T10:35:32Z</time>
      </trkpt>
      <trkpt lat="47.25478" lon="6.00297">
        <ele>320.8</ele>
        <time>2021-04-25T10:35:33Z</time>
      </trkpt>
      <trkpt lat="47.2548" lon="6.00298">
        <ele>321</ele>
        <time>2021-04-25T10:35:34Z</time>
      </trkpt>
      <trkpt lat="47.25481" lon="6.003">
        <ele>321.2</ele>
        <time>2021-04-25T10:35:35Z</time>
      </trkpt>
      <trkpt lat="47.25483" lon="6.00301">
        <ele>321.2</ele>
        <time>2021-04-25T10:35:36Z</time>
      </trkpt>
      <trkpt lat="47.25485" lon="6.00302">
        <ele>321.6</ele>
        <time>2021-04-25T10:35:37Z</time>
      </trkpt>
      <trkpt lat="47.25487" lon="6.00304">
        <ele>321.6</ele>
        <time>2021-04-25T10:35:38Z</time>
      </trkpt>
      <trkpt lat="47.25489" lon="6.00305">
        <ele>321.6</ele>
        <time>2021-04-25T10:35:39Z</time>
      </trkpt>
      <trkpt lat="47.25491" lon="6.00306">
        <ele>321.8</ele>
        <time>2021-04-25T10:35:40Z</time>
      </trkpt>
      <trkpt lat="47.25493" lon="6.00308">
        <ele>321.8</ele>
        <time>2021-04-25T10:35:41Z</time>
      </trkpt>
      <trkpt lat="47.25495" lon="6.00309">
        <ele>322</ele>
        <time>2021-04-25T10:35:42Z</time>
      </trkpt>
      <trkpt lat="47.25497" lon="6.00311">
        <ele>321.8</ele>
        <time>2021-04-25T10:35:43Z</time>
      </trkpt>
      <trkpt lat="47.25499" lon="6.00312">
        <ele>322</ele>
        <time>2021-04-25T10:35:44Z</time>
      </trkpt>
      <trkpt lat="47.25501" lon="6.00314">
        <ele>322.4</ele>
        <time>2021-04-25T10:35:45Z</time>
      </trkpt>
      <trkpt lat="47.25503" lon="6.00315">
        <ele>322.6</ele>
        <time>2021-04-25T10:35:46Z</time>
      </trkpt>
      <trkpt lat="47.25505" lon="6.00316">
        <ele>322.8</ele>
        <time>2021-04-25T10:35:47Z</time>
      </trkpt>
      <trkpt lat="47.25506" lon="6.00318">
        <ele>322.8</ele>
        <time>2021-04-25T10:35:48Z</time>
      </trkpt>
      <trkpt lat="47.25508" lon="6.00319">
        <ele>323.2</ele>
        <time>2021-04-25T10:35:49Z</time>
      </trkpt>
      <trkpt lat="47.2551" lon="6.0032">
        <ele>323.2</ele>
        <time>2021-04-25T10:35:50Z</time>
      </trkpt>
      <trkpt lat="47.25512" lon="6.00322">
        <ele>323.4</ele>
        <time>2021-04-25T10:35:51Z</time>
      </trkpt>
      <trkpt lat="47.25514" lon="6.00324">
        <ele>323.2</ele>
        <time>2021-04-25T10:35:52Z</time>
      </trkpt>
      <trkpt lat="47.25516" lon="6.00325">
        <ele>323.4</ele>
        <time>2021-04-25T10:35:53Z</time>
      </trkpt>
      <trkpt lat="47.25518" lon="6.00326">
        <ele>323.2</ele>
        <time>2021-04-25T10:35:54Z</time>
      </trkpt>
      <trkpt lat="47.25519" lon="6.00328">
        <ele>323.4</ele>
        <time>2021-04-25T10:35:55Z</time>
      </trkpt>
      <trkpt lat="47.25521" lon="6.00329">
        <ele>323.6</ele>
        <time>2021-04-25T10:35:56Z</time>
      </trkpt>
      <trkpt lat="47.25522" lon="6.0033">
        <ele>323.6</ele>
        <time>2021-04-25T10:35:57Z</time>
      </trkpt>
      <trkpt lat="47.25524" lon="6.00332">
        <ele>323.8</ele>
        <time>2021-04-25T10:35:58Z</time>
      </trkpt>
      <trkpt lat="47.25526" lon="6.00333">
        <ele>323.6</ele>
        <time>2021-04-25T10:35:59Z</time>
      </trkpt>
      <trkpt lat="47.25528" lon="6.00334">
        <ele>323.4</ele>
        <time>2021-04-25T10:36:00Z</time>
      </trkpt>
      <trkpt lat="47.2553" lon="6.00336">
        <ele>323.4</ele>
        <time>2021-04-25T10:36:01Z</time>
      </trkpt>
      <trkpt lat="47.25532" lon="6.00337">
        <ele>323.4</ele>
        <time>2021-04-25T10:36:02Z</time>
      </trkpt>
      <trkpt lat="47.25534" lon="6.00339">
        <ele>323.4</ele>
        <time>2021-04-25T10:36:03Z</time>
      </trkpt>
      <trkpt lat="47.25536" lon="6.0034">
        <ele>323.4</ele>
        <time>2021-04-25T10:36:04Z</time>
      </trkpt>
      <trkpt lat="47.25538" lon="6.00341">
        <ele>323.4</ele>
        <time>2021-04-25T10:36:05Z</time>
      </trkpt>
      <trkpt lat="47.25548" lon="6.00344">
        <ele>323.2</ele>
        <time>2021-04-25T10:36:08Z</time>
      </trkpt>
      <trkpt lat="47.25564" lon="6.00346">
        <ele>322.6</ele>
        <time>2021-04-25T10:36:12Z</time>
      </trkpt>
      <trkpt lat="47.25568" lon="6.00347">
        <ele>322.4</ele>
        <time>2021-04-25T10:36:13Z</time>
      </trkpt>
      <trkpt lat="47.25571" lon="6.00348">
        <ele>322.2</ele>
        <time>2021-04-25T10:36:14Z</time>
      </trkpt>
      <trkpt lat="47.25575" lon="6.00349">
        <ele>322.2</ele>
        <time>2021-04-25T10:36:15Z</time>
      </trkpt>
      <trkpt lat="47.25577" lon="6.00349">
        <ele>322.2</ele>
        <time>2021-04-25T10:36:16Z</time>
      </trkpt>
      <trkpt lat="47.2558" lon="6.00349">
        <ele>322.2</ele>
        <time>2021-04-25T10:36:17Z</time>
      </trkpt>
      <trkpt lat="47.25583" lon="6.0035">
        <ele>322.2</ele>
        <time>2021-04-25T10:36:18Z</time>
      </trkpt>
      <trkpt lat="47.25586" lon="6.00351">
        <ele>322.2</ele>
        <time>2021-04-25T10:36:19Z</time>
      </trkpt>
      <trkpt lat="47.25588" lon="6.00353">
        <ele>322.2</ele>
        <time>2021-04-25T10:36:20Z</time>
      </trkpt>
      <trkpt lat="47.25591" lon="6.00354">
        <ele>322.4</ele>
        <time>2021-04-25T10:36:21Z</time>
      </trkpt>
      <trkpt lat="47.25593" lon="6.00356">
        <ele>322.4</ele>
        <time>2021-04-25T10:36:22Z</time>
      </trkpt>
      <trkpt lat="47.25595" lon="6.00358">
        <ele>322.6</ele>
        <time>2021-04-25T10:36:23Z</time>
      </trkpt>
      <trkpt lat="47.25597" lon="6.0036">
        <ele>322.6</ele>
        <time>2021-04-25T10:36:24Z</time>
      </trkpt>
      <trkpt lat="47.25599" lon="6.00362">
        <ele>322.6</ele>
        <time>2021-04-25T10:36:25Z</time>
      </trkpt>
      <trkpt lat="47.25601" lon="6.00365">
        <ele>322.8</ele>
        <time>2021-04-25T10:36:26Z</time>
      </trkpt>
      <trkpt lat="47.25602" lon="6.00368">
        <ele>323</ele>
        <time>2021-04-25T10:36:27Z</time>
      </trkpt>
      <trkpt lat="47.25603" lon="6.0037">
        <ele>323.2</ele>
        <time>2021-04-25T10:36:28Z</time>
      </trkpt>
      <trkpt lat="47.25604" lon="6.00372">
        <ele>323.4</ele>
        <time>2021-04-25T10:36:29Z</time>
      </trkpt>
      <trkpt lat="47.25606" lon="6.00375">
        <ele>323.4</ele>
        <time>2021-04-25T10:36:30Z</time>
      </trkpt>
      <trkpt lat="47.25608" lon="6.00378">
        <ele>323.6</ele>
        <time>2021-04-25T10:36:31Z</time>
      </trkpt>
      <trkpt lat="47.25615" lon="6.0039">
        <ele>323.8</ele>
        <time>2021-04-25T10:36:35Z</time>
      </trkpt>
      <trkpt lat="47.25622" lon="6.00403">
        <ele>323.8</ele>
        <time>2021-04-25T10:36:40Z</time>
      </trkpt>
      <trkpt lat="47.25624" lon="6.00406">
        <ele>323.8</ele>
        <time>2021-04-25T10:36:41Z</time>
      </trkpt>
      <trkpt lat="47.25625" lon="6.00408">
        <ele>324</ele>
        <time>2021-04-25T10:36:42Z</time>
      </trkpt>
      <trkpt lat="47.25632" lon="6.00417">
        <ele>324</ele>
        <time>2021-04-25T10:36:46Z</time>
      </trkpt>
      <trkpt lat="47.25633" lon="6.00419">
        <ele>324</ele>
        <time>2021-04-25T10:36:47Z</time>
      </trkpt>
      <trkpt lat="47.25634" lon="6.00421">
        <ele>324</ele>
        <time>2021-04-25T10:36:48Z</time>
      </trkpt>
      <trkpt lat="47.25636" lon="6.00423">
        <ele>324</ele>
        <time>2021-04-25T10:36:49Z</time>
      </trkpt>
      <trkpt lat="47.25639" lon="6.00428">
        <ele>324</ele>
        <time>2021-04-25T10:36:51Z</time>
      </trkpt>
      <trkpt lat="47.25643" lon="6.00435">
        <ele>324.2</ele>
        <time>2021-04-25T10:36:54Z</time>
      </trkpt>
      <trkpt lat="47.25644" lon="6.00438">
        <ele>324.2</ele>
        <time>2021-04-25T10:36:55Z</time>
      </trkpt>
      <trkpt lat="47.2565" lon="6.00447">
        <ele>324.2</ele>
        <time>2021-04-25T10:36:59Z</time>
      </trkpt>
      <trkpt lat="47.25652" lon="6.00449">
        <ele>324.2</ele>
        <time>2021-04-25T10:37:00Z</time>
      </trkpt>
      <trkpt lat="47.25653" lon="6.00451">
        <ele>324.2</ele>
        <time>2021-04-25T10:37:01Z</time>
      </trkpt>
      <trkpt lat="47.25662" lon="6.00467">
        <ele>324.6</ele>
        <time>2021-04-25T10:37:07Z</time>
      </trkpt>
      <trkpt lat="47.25667" lon="6.00475">
        <ele>325.2</ele>
        <time>2021-04-25T10:37:10Z</time>
      </trkpt>
      <trkpt lat="47.25679" lon="6.00493">
        <ele>326</ele>
        <time>2021-04-25T10:37:17Z</time>
      </trkpt>
      <trkpt lat="47.25682" lon="6.00498">
        <ele>326.2</ele>
        <time>2021-04-25T10:37:19Z</time>
      </trkpt>
      <trkpt lat="47.25684" lon="6.005">
        <ele>326.4</ele>
        <time>2021-04-25T10:37:20Z</time>
      </trkpt>
      <trkpt lat="47.25685" lon="6.00503">
        <ele>326.6</ele>
        <time>2021-04-25T10:37:21Z</time>
      </trkpt>
      <trkpt lat="47.25687" lon="6.00505">
        <ele>326.8</ele>
        <time>2021-04-25T10:37:22Z</time>
      </trkpt>
      <trkpt lat="47.25688" lon="6.00508">
        <ele>327</ele>
        <time>2021-04-25T10:37:23Z</time>
      </trkpt>
      <trkpt lat="47.2569" lon="6.0051">
        <ele>327.2</ele>
        <time>2021-04-25T10:37:24Z</time>
      </trkpt>
      <trkpt lat="47.25691" lon="6.00512">
        <ele>327.2</ele>
        <time>2021-04-25T10:37:25Z</time>
      </trkpt>
      <trkpt lat="47.25693" lon="6.00515">
        <ele>327.4</ele>
        <time>2021-04-25T10:37:26Z</time>
      </trkpt>
      <trkpt lat="47.25694" lon="6.00517">
        <ele>327.6</ele>
        <time>2021-04-25T10:37:27Z</time>
      </trkpt>
      <trkpt lat="47.25696" lon="6.0052">
        <ele>327.8</ele>
        <time>2021-04-25T10:37:28Z</time>
      </trkpt>
      <trkpt lat="47.25697" lon="6.00522">
        <ele>327.8</ele>
        <time>2021-04-25T10:37:29Z</time>
      </trkpt>
      <trkpt lat="47.25698" lon="6.00524">
        <ele>328</ele>
        <time>2021-04-25T10:37:30Z</time>
      </trkpt>
      <trkpt lat="47.257" lon="6.00526">
        <ele>328.2</ele>
        <time>2021-04-25T10:37:31Z</time>
      </trkpt>
      <trkpt lat="47.25701" lon="6.00529">
        <ele>328.4</ele>
        <time>2021-04-25T10:37:32Z</time>
      </trkpt>
      <trkpt lat="47.25703" lon="6.00531">
        <ele>328.6</ele>
        <time>2021-04-25T10:37:33Z</time>
      </trkpt>
      <trkpt lat="47.25704" lon="6.00533">
        <ele>328.8</ele>
        <time>2021-04-25T10:37:34Z</time>
      </trkpt>
      <trkpt lat="47.25706" lon="6.00535">
        <ele>329</ele>
        <time>2021-04-25T10:37:35Z</time>
      </trkpt>
      <trkpt lat="47.25708" lon="6.00537">
        <ele>329.2</ele>
        <time>2021-04-25T10:37:36Z</time>
      </trkpt>
      <trkpt lat="47.25709" lon="6.0054">
        <ele>329.4</ele>
        <time>2021-04-25T10:37:37Z</time>
      </trkpt>
      <trkpt lat="47.25711" lon="6.00543">
        <ele>329.8</ele>
        <time>2021-04-25T10:37:38Z</time>
      </trkpt>
      <trkpt lat="47.25713" lon="6.00545">
        <ele>329.8</ele>
        <time>2021-04-25T10:37:39Z</time>
      </trkpt>
      <trkpt lat="47.25714" lon="6.00547">
        <ele>330</ele>
        <time>2021-04-25T10:37:40Z</time>
      </trkpt>
      <trkpt lat="47.25716" lon="6.00549">
        <ele>330</ele>
        <time>2021-04-25T10:37:41Z</time>
      </trkpt>
      <trkpt lat="47.25717" lon="6.00552">
        <ele>330.2</ele>
        <time>2021-04-25T10:37:42Z</time>
      </trkpt>
      <trkpt lat="47.25719" lon="6.00554">
        <ele>330.4</ele>
        <time>2021-04-25T10:37:43Z</time>
      </trkpt>
      <trkpt lat="47.2572" lon="6.00557">
        <ele>330.6</ele>
        <time>2021-04-25T10:37:44Z</time>
      </trkpt>
      <trkpt lat="47.25722" lon="6.00559">
        <ele>331</ele>
        <time>2021-04-25T10:37:45Z</time>
      </trkpt>
      <trkpt lat="47.25723" lon="6.00561">
        <ele>331.2</ele>
        <time>2021-04-25T10:37:46Z</time>
      </trkpt>
      <trkpt lat="47.25724" lon="6.00563">
        <ele>331.6</ele>
        <time>2021-04-25T10:37:47Z</time>
      </trkpt>
      <trkpt lat="47.25725" lon="6.00566">
        <ele>331.8</ele>
        <time>2021-04-25T10:37:48Z</time>
      </trkpt>
      <trkpt lat="47.25726" lon="6.00568">
        <ele>332</ele>
        <time>2021-04-25T10:37:49Z</time>
      </trkpt>
      <trkpt lat="47.25727" lon="6.0057">
        <ele>332</ele>
        <time>2021-04-25T10:37:50Z</time>
      </trkpt>
      <trkpt lat="47.25728" lon="6.00572">
        <ele>332.2</ele>
        <time>2021-04-25T10:37:51Z</time>
      </trkpt>
      <trkpt lat="47.2573" lon="6.00574">
        <ele>332.4</ele>
        <time>2021-04-25T10:37:52Z</time>
      </trkpt>
      <trkpt lat="47.25731" lon="6.00576">
        <ele>332.4</ele>
        <time>2021-04-25T10:37:53Z</time>
      </trkpt>
      <trkpt lat="47.25733" lon="6.00579">
        <ele>332.4</ele>
        <time>2021-04-25T10:37:54Z</time>
      </trkpt>
      <trkpt lat="47.25734" lon="6.0058">
        <ele>332.8</ele>
        <time>2021-04-25T10:37:55Z</time>
      </trkpt>
      <trkpt lat="47.25735" lon="6.00582">
        <ele>333</ele>
        <time>2021-04-25T10:37:56Z</time>
      </trkpt>
      <trkpt lat="47.25737" lon="6.00584">
        <ele>333</ele>
        <time>2021-04-25T10:37:57Z</time>
      </trkpt>
      <trkpt lat="47.25739" lon="6.00586">
        <ele>333.2</ele>
        <time>2021-04-25T10:37:58Z</time>
      </trkpt>
      <trkpt lat="47.2574" lon="6.00588">
        <ele>333.6</ele>
        <time>2021-04-25T10:37:59Z</time>
      </trkpt>
      <trkpt lat="47.25741" lon="6.00589">
        <ele>333.8</ele>
        <time>2021-04-25T10:38:00Z</time>
      </trkpt>
      <trkpt lat="47.25743" lon="6.00591">
        <ele>334.2</ele>
        <time>2021-04-25T10:38:01Z</time>
      </trkpt>
      <trkpt lat="47.25744" lon="6.00593">
        <ele>334.4</ele>
        <time>2021-04-25T10:38:02Z</time>
      </trkpt>
      <trkpt lat="47.25745" lon="6.00595">
        <ele>334.6</ele>
        <time>2021-04-25T10:38:03Z</time>
      </trkpt>
      <trkpt lat="47.25747" lon="6.00597">
        <ele>334.6</ele>
        <time>2021-04-25T10:38:04Z</time>
      </trkpt>
      <trkpt lat="47.25748" lon="6.00599">
        <ele>335</ele>
        <time>2021-04-25T10:38:05Z</time>
      </trkpt>
      <trkpt lat="47.25749" lon="6.00601">
        <ele>335.2</ele>
        <time>2021-04-25T10:38:06Z</time>
      </trkpt>
      <trkpt lat="47.2575" lon="6.00603">
        <ele>335.2</ele>
        <time>2021-04-25T10:38:07Z</time>
      </trkpt>
      <trkpt lat="47.25752" lon="6.00606">
        <ele>335.4</ele>
        <time>2021-04-25T10:38:08Z</time>
      </trkpt>
      <trkpt lat="47.25753" lon="6.00607">
        <ele>335.4</ele>
        <time>2021-04-25T10:38:09Z</time>
      </trkpt>
      <trkpt lat="47.25754" lon="6.00609">
        <ele>335.6</ele>
        <time>2021-04-25T10:38:10Z</time>
      </trkpt>
      <trkpt lat="47.25755" lon="6.0061">
        <ele>335.6</ele>
        <time>2021-04-25T10:38:11Z</time>
      </trkpt>
      <trkpt lat="47.25756" lon="6.00612">
        <ele>335.8</ele>
        <time>2021-04-25T10:38:12Z</time>
      </trkpt>
      <trkpt lat="47.25757" lon="6.00615">
        <ele>335.8</ele>
        <time>2021-04-25T10:38:13Z</time>
      </trkpt>
      <trkpt lat="47.25759" lon="6.00616">
        <ele>336</ele>
        <time>2021-04-25T10:38:14Z</time>
      </trkpt>
      <trkpt lat="47.2576" lon="6.00618">
        <ele>336.2</ele>
        <time>2021-04-25T10:38:15Z</time>
      </trkpt>
      <trkpt lat="47.25761" lon="6.00619">
        <ele>336.2</ele>
        <time>2021-04-25T10:38:16Z</time>
      </trkpt>
      <trkpt lat="47.25762" lon="6.00621">
        <ele>336.4</ele>
        <time>2021-04-25T10:38:17Z</time>
      </trkpt>
      <trkpt lat="47.25763" lon="6.00622">
        <ele>336.4</ele>
        <time>2021-04-25T10:38:18Z</time>
      </trkpt>
      <trkpt lat="47.25764" lon="6.00624">
        <ele>336.6</ele>
        <time>2021-04-25T10:38:19Z</time>
      </trkpt>
      <trkpt lat="47.25765" lon="6.00625">
        <ele>336.6</ele>
        <time>2021-04-25T10:38:20Z</time>
      </trkpt>
      <trkpt lat="47.25766" lon="6.00626">
        <ele>336.6</ele>
        <time>2021-04-25T10:38:21Z</time>
      </trkpt>
      <trkpt lat="47.25767" lon="6.00628">
        <ele>336.6</ele>
        <time>2021-04-25T10:38:22Z</time>
      </trkpt>
      <trkpt lat="47.25768" lon="6.0063">
        <ele>336.8</ele>
        <time>2021-04-25T10:38:23Z</time>
      </trkpt>
      <trkpt lat="47.25769" lon="6.00632">
        <ele>336.8</ele>
        <time>2021-04-25T10:38:24Z</time>
      </trkpt>
      <trkpt lat="47.2577" lon="6.00633">
        <ele>336.8</ele>
        <time>2021-04-25T10:38:25Z</time>
      </trkpt>
      <trkpt lat="47.25771" lon="6.00635">
        <ele>336.8</ele>
        <time>2021-04-25T10:38:26Z</time>
      </trkpt>
      <trkpt lat="47.25773" lon="6.00637">
        <ele>336.8</ele>
        <time>2021-04-25T10:38:27Z</time>
      </trkpt>
      <trkpt lat="47.25774" lon="6.00639">
        <ele>336.8</ele>
        <time>2021-04-25T10:38:28Z</time>
      </trkpt>
      <trkpt lat="47.25775" lon="6.0064">
        <ele>336.8</ele>
        <time>2021-04-25T10:38:29Z</time>
      </trkpt>
      <trkpt lat="47.25777" lon="6.00642">
        <ele>337</ele>
        <time>2021-04-25T10:38:30Z</time>
      </trkpt>
      <trkpt lat="47.25778" lon="6.00644">
        <ele>337</ele>
        <time>2021-04-25T10:38:31Z</time>
      </trkpt>
      <trkpt lat="47.2578" lon="6.00646">
        <ele>337</ele>
        <time>2021-04-25T10:38:32Z</time>
      </trkpt>
      <trkpt lat="47.25784" lon="6.00653">
        <ele>337</ele>
        <time>2021-04-25T10:38:35Z</time>
      </trkpt>
      <trkpt lat="47.25792" lon="6.00665">
        <ele>337.4</ele>
        <time>2021-04-25T10:38:40Z</time>
      </trkpt>
      <trkpt lat="47.25801" lon="6.00678">
        <ele>338.4</ele>
        <time>2021-04-25T10:38:45Z</time>
      </trkpt>
      <trkpt lat="47.25804" lon="6.00684">
        <ele>338.4</ele>
        <time>2021-04-25T10:38:47Z</time>
      </trkpt>
      <trkpt lat="47.25821" lon="6.00707">
        <ele>339</ele>
        <time>2021-04-25T10:38:55Z</time>
      </trkpt>
      <trkpt lat="47.25823" lon="6.00709">
        <ele>339.2</ele>
        <time>2021-04-25T10:38:56Z</time>
      </trkpt>
      <trkpt lat="47.25824" lon="6.00711">
        <ele>339.2</ele>
        <time>2021-04-25T10:38:57Z</time>
      </trkpt>
      <trkpt lat="47.25826" lon="6.00713">
        <ele>339.4</ele>
        <time>2021-04-25T10:38:58Z</time>
      </trkpt>
      <trkpt lat="47.25827" lon="6.00715">
        <ele>339.4</ele>
        <time>2021-04-25T10:38:59Z</time>
      </trkpt>
      <trkpt lat="47.25828" lon="6.00716">
        <ele>339.4</ele>
        <time>2021-04-25T10:39:00Z</time>
      </trkpt>
      <trkpt lat="47.2583" lon="6.00718">
        <ele>339.4</ele>
        <time>2021-04-25T10:39:01Z</time>
      </trkpt>
      <trkpt lat="47.25831" lon="6.0072">
        <ele>339.4</ele>
        <time>2021-04-25T10:39:02Z</time>
      </trkpt>
      <trkpt lat="47.25832" lon="6.00721">
        <ele>339.6</ele>
        <time>2021-04-25T10:39:03Z</time>
      </trkpt>
      <trkpt lat="47.25833" lon="6.00723">
        <ele>339.6</ele>
        <time>2021-04-25T10:39:04Z</time>
      </trkpt>
      <trkpt lat="47.25838" lon="6.0073">
        <ele>339.4</ele>
        <time>2021-04-25T10:39:07Z</time>
      </trkpt>
      <trkpt lat="47.25841" lon="6.00735">
        <ele>339.4</ele>
        <time>2021-04-25T10:39:09Z</time>
      </trkpt>
      <trkpt lat="47.25853" lon="6.00751">
        <ele>339.4</ele>
        <time>2021-04-25T10:39:16Z</time>
      </trkpt>
      <trkpt lat="47.25854" lon="6.00754">
        <ele>339.4</ele>
        <time>2021-04-25T10:39:17Z</time>
      </trkpt>
      <trkpt lat="47.25873" lon="6.00777">
        <ele>339</ele>
        <time>2021-04-25T10:39:28Z</time>
      </trkpt>
      <trkpt lat="47.25875" lon="6.0078">
        <ele>339</ele>
        <time>2021-04-25T10:39:29Z</time>
      </trkpt>
      <trkpt lat="47.25887" lon="6.00791">
        <ele>339</ele>
        <time>2021-04-25T10:39:35Z</time>
      </trkpt>
      <trkpt lat="47.25891" lon="6.00796">
        <ele>338.8</ele>
        <time>2021-04-25T10:39:39Z</time>
      </trkpt>
      <trkpt lat="47.25891" lon="6.00796">
        <ele>338.4</ele>
        <time>2021-04-25T10:39:53Z</time>
      </trkpt>
      <trkpt lat="47.25891" lon="6.00796">
        <ele>338.4</ele>
        <time>2021-04-25T10:40:06Z</time>
      </trkpt>
      <trkpt lat="47.25891" lon="6.00796">
        <ele>338.6</ele>
        <time>2021-04-25T10:40:41Z</time>
      </trkpt>
      <trkpt lat="47.25893" lon="6.00798">
        <ele>338.6</ele>
        <time>2021-04-25T10:40:46Z</time>
      </trkpt>
      <trkpt lat="47.25894" lon="6.008">
        <ele>338.6</ele>
        <time>2021-04-25T10:40:47Z</time>
      </trkpt>
      <trkpt lat="47.25896" lon="6.00802">
        <ele>338.6</ele>
        <time>2021-04-25T10:40:48Z</time>
      </trkpt>
      <trkpt lat="47.25899" lon="6.00806">
        <ele>338.6</ele>
        <time>2021-04-25T10:40:49Z</time>
      </trkpt>
      <trkpt lat="47.25914" lon="6.00824">
        <ele>338</ele>
        <time>2021-04-25T10:40:54Z</time>
      </trkpt>
      <trkpt lat="47.25932" lon="6.00839">
        <ele>337.2</ele>
        <time>2021-04-25T10:40:58Z</time>
      </trkpt>
      <trkpt lat="47.25938" lon="6.00844">
        <ele>337</ele>
        <time>2021-04-25T10:40:59Z</time>
      </trkpt>
      <trkpt lat="47.25943" lon="6.00847">
        <ele>336.6</ele>
        <time>2021-04-25T10:41:00Z</time>
      </trkpt>
      <trkpt lat="47.25947" lon="6.00851">
        <ele>336.2</ele>
        <time>2021-04-25T10:41:01Z</time>
      </trkpt>
      <trkpt lat="47.2595" lon="6.00854">
        <ele>335.4</ele>
        <time>2021-04-25T10:41:02Z</time>
      </trkpt>
      <trkpt lat="47.25953" lon="6.00859">
        <ele>334.6</ele>
        <time>2021-04-25T10:41:03Z</time>
      </trkpt>
      <trkpt lat="47.25955" lon="6.00865">
        <ele>334.4</ele>
        <time>2021-04-25T10:41:04Z</time>
      </trkpt>
      <trkpt lat="47.25956" lon="6.00873">
        <ele>333.6</ele>
        <time>2021-04-25T10:41:05Z</time>
      </trkpt>
      <trkpt lat="47.25958" lon="6.00877">
        <ele>333.4</ele>
        <time>2021-04-25T10:41:06Z</time>
      </trkpt>
      <trkpt lat="47.2596" lon="6.00883">
        <ele>332.8</ele>
        <time>2021-04-25T10:41:07Z</time>
      </trkpt>
      <trkpt lat="47.25962" lon="6.00887">
        <ele>332.6</ele>
        <time>2021-04-25T10:41:08Z</time>
      </trkpt>
      <trkpt lat="47.25966" lon="6.00891">
        <ele>332.2</ele>
        <time>2021-04-25T10:41:09Z</time>
      </trkpt>
      <trkpt lat="47.25969" lon="6.00892">
        <ele>332.2</ele>
        <time>2021-04-25T10:41:10Z</time>
      </trkpt>
      <trkpt lat="47.25972" lon="6.00893">
        <ele>332</ele>
        <time>2021-04-25T10:41:11Z</time>
      </trkpt>
      <trkpt lat="47.25976" lon="6.00893">
        <ele>332</ele>
        <time>2021-04-25T10:41:12Z</time>
      </trkpt>
      <trkpt lat="47.2598" lon="6.00892">
        <ele>332</ele>
        <time>2021-04-25T10:41:13Z</time>
      </trkpt>
      <trkpt lat="47.25986" lon="6.00892">
        <ele>331.8</ele>
        <time>2021-04-25T10:41:14Z</time>
      </trkpt>
      <trkpt lat="47.25999" lon="6.00892">
        <ele>331.8</ele>
        <time>2021-04-25T10:41:17Z</time>
      </trkpt>
      <trkpt lat="47.26003" lon="6.00893">
        <ele>331.8</ele>
        <time>2021-04-25T10:41:18Z</time>
      </trkpt>
      <trkpt lat="47.26009" lon="6.00896">
        <ele>331.8</ele>
        <time>2021-04-25T10:41:19Z</time>
      </trkpt>
      <trkpt lat="47.26013" lon="6.00898">
        <ele>331.6</ele>
        <time>2021-04-25T10:41:20Z</time>
      </trkpt>
      <trkpt lat="47.26016" lon="6.00901">
        <ele>331.4</ele>
        <time>2021-04-25T10:41:21Z</time>
      </trkpt>
      <trkpt lat="47.26019" lon="6.00905">
        <ele>331.2</ele>
        <time>2021-04-25T10:41:22Z</time>
      </trkpt>
      <trkpt lat="47.26029" lon="6.00917">
        <ele>331</ele>
        <time>2021-04-25T10:41:25Z</time>
      </trkpt>
      <trkpt lat="47.26031" lon="6.0092">
        <ele>331</ele>
        <time>2021-04-25T10:41:26Z</time>
      </trkpt>
      <trkpt lat="47.26034" lon="6.00924">
        <ele>331</ele>
        <time>2021-04-25T10:41:27Z</time>
      </trkpt>
      <trkpt lat="47.26038" lon="6.00928">
        <ele>331</ele>
        <time>2021-04-25T10:41:28Z</time>
      </trkpt>
      <trkpt lat="47.2604" lon="6.00931">
        <ele>331</ele>
        <time>2021-04-25T10:41:29Z</time>
      </trkpt>
      <trkpt lat="47.26044" lon="6.00935">
        <ele>331</ele>
        <time>2021-04-25T10:41:30Z</time>
      </trkpt>
      <trkpt lat="47.26046" lon="6.00938">
        <ele>331</ele>
        <time>2021-04-25T10:41:31Z</time>
      </trkpt>
      <trkpt lat="47.26049" lon="6.00941">
        <ele>331</ele>
        <time>2021-04-25T10:41:32Z</time>
      </trkpt>
      <trkpt lat="47.26052" lon="6.00944">
        <ele>331.2</ele>
        <time>2021-04-25T10:41:33Z</time>
      </trkpt>
      <trkpt lat="47.26054" lon="6.00948">
        <ele>331.4</ele>
        <time>2021-04-25T10:41:34Z</time>
      </trkpt>
      <trkpt lat="47.26057" lon="6.00951">
        <ele>331.4</ele>
        <time>2021-04-25T10:41:35Z</time>
      </trkpt>
      <trkpt lat="47.2606" lon="6.00954">
        <ele>331.4</ele>
        <time>2021-04-25T10:41:36Z</time>
      </trkpt>
      <trkpt lat="47.26062" lon="6.00957">
        <ele>331.4</ele>
        <time>2021-04-25T10:41:37Z</time>
      </trkpt>
      <trkpt lat="47.26065" lon="6.00961">
        <ele>331.6</ele>
        <time>2021-04-25T10:41:38Z</time>
      </trkpt>
      <trkpt lat="47.26067" lon="6.00964">
        <ele>331.6</ele>
        <time>2021-04-25T10:41:39Z</time>
      </trkpt>
      <trkpt lat="47.26085" lon="6.00983">
        <ele>331.8</ele>
        <time>2021-04-25T10:41:45Z</time>
      </trkpt>
      <trkpt lat="47.26104" lon="6.01007">
        <ele>332.2</ele>
        <time>2021-04-25T10:41:52Z</time>
      </trkpt>
      <trkpt lat="47.26107" lon="6.01015">
        <ele>332.4</ele>
        <time>2021-04-25T10:41:54Z</time>
      </trkpt>
      <trkpt lat="47.26109" lon="6.01018">
        <ele>332.4</ele>
        <time>2021-04-25T10:41:55Z</time>
      </trkpt>
      <trkpt lat="47.2611" lon="6.01022">
        <ele>332.4</ele>
        <time>2021-04-25T10:41:56Z</time>
      </trkpt>
      <trkpt lat="47.26111" lon="6.01025">
        <ele>332.4</ele>
        <time>2021-04-25T10:41:57Z</time>
      </trkpt>
      <trkpt lat="47.26113" lon="6.01029">
        <ele>332.6</ele>
        <time>2021-04-25T10:41:58Z</time>
      </trkpt>
      <trkpt lat="47.26116" lon="6.01042">
        <ele>333.2</ele>
        <time>2021-04-25T10:42:02Z</time>
      </trkpt>
      <trkpt lat="47.26116" lon="6.01045">
        <ele>333.4</ele>
        <time>2021-04-25T10:42:03Z</time>
      </trkpt>
      <trkpt lat="47.26116" lon="6.01049">
        <ele>333.6</ele>
        <time>2021-04-25T10:42:04Z</time>
      </trkpt>
      <trkpt lat="47.26116" lon="6.01053">
        <ele>333.8</ele>
        <time>2021-04-25T10:42:05Z</time>
      </trkpt>
      <trkpt lat="47.26116" lon="6.01056">
        <ele>334.2</ele>
        <time>2021-04-25T10:42:06Z</time>
      </trkpt>
      <trkpt lat="47.26116" lon="6.01059">
        <ele>334.4</ele>
        <time>2021-04-25T10:42:07Z</time>
      </trkpt>
      <trkpt lat="47.26117" lon="6.01062">
        <ele>334.6</ele>
        <time>2021-04-25T10:42:08Z</time>
      </trkpt>
      <trkpt lat="47.26117" lon="6.01067">
        <ele>335</ele>
        <time>2021-04-25T10:42:10Z</time>
      </trkpt>
      <trkpt lat="47.26117" lon="6.0107">
        <ele>335.2</ele>
        <time>2021-04-25T10:42:11Z</time>
      </trkpt>
      <trkpt lat="47.26116" lon="6.01073">
        <ele>335.4</ele>
        <time>2021-04-25T10:42:12Z</time>
      </trkpt>
      <trkpt lat="47.26116" lon="6.01076">
        <ele>335.6</ele>
        <time>2021-04-25T10:42:13Z</time>
      </trkpt>
      <trkpt lat="47.26115" lon="6.01079">
        <ele>335.8</ele>
        <time>2021-04-25T10:42:14Z</time>
      </trkpt>
      <trkpt lat="47.26114" lon="6.01082">
        <ele>335.8</ele>
        <time>2021-04-25T10:42:15Z</time>
      </trkpt>
      <trkpt lat="47.26114" lon="6.01084">
        <ele>336</ele>
        <time>2021-04-25T10:42:16Z</time>
      </trkpt>
      <trkpt lat="47.26113" lon="6.01087">
        <ele>336</ele>
        <time>2021-04-25T10:42:17Z</time>
      </trkpt>
      <trkpt lat="47.26113" lon="6.0109">
        <ele>336.4</ele>
        <time>2021-04-25T10:42:18Z</time>
      </trkpt>
      <trkpt lat="47.26112" lon="6.01093">
        <ele>336.8</ele>
        <time>2021-04-25T10:42:19Z</time>
      </trkpt>
      <trkpt lat="47.26111" lon="6.01096">
        <ele>336.8</ele>
        <time>2021-04-25T10:42:20Z</time>
      </trkpt>
      <trkpt lat="47.2611" lon="6.01098">
        <ele>337</ele>
        <time>2021-04-25T10:42:21Z</time>
      </trkpt>
      <trkpt lat="47.26109" lon="6.01101">
        <ele>337.2</ele>
        <time>2021-04-25T10:42:22Z</time>
      </trkpt>
      <trkpt lat="47.26108" lon="6.01104">
        <ele>337.2</ele>
        <time>2021-04-25T10:42:23Z</time>
      </trkpt>
      <trkpt lat="47.26107" lon="6.01106">
        <ele>337.6</ele>
        <time>2021-04-25T10:42:24Z</time>
      </trkpt>
      <trkpt lat="47.26105" lon="6.01109">
        <ele>337.6</ele>
        <time>2021-04-25T10:42:25Z</time>
      </trkpt>
      <trkpt lat="47.26104" lon="6.01111">
        <ele>337.8</ele>
        <time>2021-04-25T10:42:26Z</time>
      </trkpt>
      <trkpt lat="47.26103" lon="6.01113">
        <ele>338</ele>
        <time>2021-04-25T10:42:27Z</time>
      </trkpt>
      <trkpt lat="47.26102" lon="6.01116">
        <ele>338.2</ele>
        <time>2021-04-25T10:42:28Z</time>
      </trkpt>
      <trkpt lat="47.26101" lon="6.01118">
        <ele>338.4</ele>
        <time>2021-04-25T10:42:29Z</time>
      </trkpt>
      <trkpt lat="47.26099" lon="6.0112">
        <ele>338.6</ele>
        <time>2021-04-25T10:42:30Z</time>
      </trkpt>
      <trkpt lat="47.26098" lon="6.01122">
        <ele>338.8</ele>
        <time>2021-04-25T10:42:31Z</time>
      </trkpt>
      <trkpt lat="47.26097" lon="6.01124">
        <ele>338.8</ele>
        <time>2021-04-25T10:42:32Z</time>
      </trkpt>
      <trkpt lat="47.26095" lon="6.01125">
        <ele>339</ele>
        <time>2021-04-25T10:42:33Z</time>
      </trkpt>
      <trkpt lat="47.26094" lon="6.01126">
        <ele>339</ele>
        <time>2021-04-25T10:42:34Z</time>
      </trkpt>
      <trkpt lat="47.26092" lon="6.01128">
        <ele>339</ele>
        <time>2021-04-25T10:42:35Z</time>
      </trkpt>
      <trkpt lat="47.2609" lon="6.01129">
        <ele>339</ele>
        <time>2021-04-25T10:42:36Z</time>
      </trkpt>
      <trkpt lat="47.26089" lon="6.01131">
        <ele>339.2</ele>
        <time>2021-04-25T10:42:37Z</time>
      </trkpt>
      <trkpt lat="47.26087" lon="6.01134">
        <ele>339.2</ele>
        <time>2021-04-25T10:42:38Z</time>
      </trkpt>
      <trkpt lat="47.26085" lon="6.01136">
        <ele>339.2</ele>
        <time>2021-04-25T10:42:39Z</time>
      </trkpt>
      <trkpt lat="47.26083" lon="6.01138">
        <ele>339.4</ele>
        <time>2021-04-25T10:42:40Z</time>
      </trkpt>
      <trkpt lat="47.26081" lon="6.0114">
        <ele>339.4</ele>
        <time>2021-04-25T10:42:41Z</time>
      </trkpt>
      <trkpt lat="47.2608" lon="6.01142">
        <ele>339.4</ele>
        <time>2021-04-25T10:42:42Z</time>
      </trkpt>
      <trkpt lat="47.26078" lon="6.01144">
        <ele>339.4</ele>
        <time>2021-04-25T10:42:43Z</time>
      </trkpt>
      <trkpt lat="47.26076" lon="6.01146">
        <ele>339.4</ele>
        <time>2021-04-25T10:42:44Z</time>
      </trkpt>
      <trkpt lat="47.26074" lon="6.01147">
        <ele>339.6</ele>
        <time>2021-04-25T10:42:45Z</time>
      </trkpt>
      <trkpt lat="47.26072" lon="6.01149">
        <ele>339.6</ele>
        <time>2021-04-25T10:42:46Z</time>
      </trkpt>
      <trkpt lat="47.2607" lon="6.01151">
        <ele>339.6</ele>
        <time>2021-04-25T10:42:47Z</time>
      </trkpt>
      <trkpt lat="47.26069" lon="6.01154">
        <ele>339.6</ele>
        <time>2021-04-25T10:42:48Z</time>
      </trkpt>
      <trkpt lat="47.26068" lon="6.01158">
        <ele>339.6</ele>
        <time>2021-04-25T10:42:49Z</time>
      </trkpt>
      <trkpt lat="47.26067" lon="6.01161">
        <ele>339.4</ele>
        <time>2021-04-25T10:42:50Z</time>
      </trkpt>
      <trkpt lat="47.26068" lon="6.01168">
        <ele>339.6</ele>
        <time>2021-04-25T10:42:52Z</time>
      </trkpt>
      <trkpt lat="47.26067" lon="6.01172">
        <ele>339.6</ele>
        <time>2021-04-25T10:42:53Z</time>
      </trkpt>
      <trkpt lat="47.26071" lon="6.01189">
        <ele>339.6</ele>
        <time>2021-04-25T10:42:57Z</time>
      </trkpt>
      <trkpt lat="47.26074" lon="6.01193">
        <ele>339.6</ele>
        <time>2021-04-25T10:42:58Z</time>
      </trkpt>
      <trkpt lat="47.26076" lon="6.01197">
        <ele>339.6</ele>
        <time>2021-04-25T10:42:59Z</time>
      </trkpt>
      <trkpt lat="47.26081" lon="6.01212">
        <ele>339.6</ele>
        <time>2021-04-25T10:43:02Z</time>
      </trkpt>
      <trkpt lat="47.26083" lon="6.01225">
        <ele>339.2</ele>
        <time>2021-04-25T10:43:04Z</time>
      </trkpt>
      <trkpt lat="47.26083" lon="6.01231">
        <ele>339.2</ele>
        <time>2021-04-25T10:43:05Z</time>
      </trkpt>
      <trkpt lat="47.26084" lon="6.01252">
        <ele>338.8</ele>
        <time>2021-04-25T10:43:08Z</time>
      </trkpt>
      <trkpt lat="47.26089" lon="6.0129">
        <ele>338.2</ele>
        <time>2021-04-25T10:43:14Z</time>
      </trkpt>
      <trkpt lat="47.2609" lon="6.01295">
        <ele>338</ele>
        <time>2021-04-25T10:43:15Z</time>
      </trkpt>
      <trkpt lat="47.2609" lon="6.01299">
        <ele>338</ele>
        <time>2021-04-25T10:43:16Z</time>
      </trkpt>
      <trkpt lat="47.26091" lon="6.01303">
        <ele>338.4</ele>
        <time>2021-04-25T10:43:17Z</time>
      </trkpt>
      <trkpt lat="47.26091" lon="6.01307">
        <ele>338.4</ele>
        <time>2021-04-25T10:43:18Z</time>
      </trkpt>
      <trkpt lat="47.26092" lon="6.01311">
        <ele>338.4</ele>
        <time>2021-04-25T10:43:19Z</time>
      </trkpt>
      <trkpt lat="47.26093" lon="6.01321">
        <ele>338.6</ele>
        <time>2021-04-25T10:43:21Z</time>
      </trkpt>
      <trkpt lat="47.26095" lon="6.01338">
        <ele>338.8</ele>
        <time>2021-04-25T10:43:25Z</time>
      </trkpt>
      <trkpt lat="47.26095" lon="6.01343">
        <ele>339</ele>
        <time>2021-04-25T10:43:26Z</time>
      </trkpt>
      <trkpt lat="47.26096" lon="6.01347">
        <ele>339.2</ele>
        <time>2021-04-25T10:43:27Z</time>
      </trkpt>
      <trkpt lat="47.26096" lon="6.01351">
        <ele>339.4</ele>
        <time>2021-04-25T10:43:28Z</time>
      </trkpt>
      <trkpt lat="47.26097" lon="6.01354">
        <ele>339.4</ele>
        <time>2021-04-25T10:43:29Z</time>
      </trkpt>
      <trkpt lat="47.26097" lon="6.01357">
        <ele>339.6</ele>
        <time>2021-04-25T10:43:30Z</time>
      </trkpt>
      <trkpt lat="47.26098" lon="6.0136">
        <ele>339.8</ele>
        <time>2021-04-25T10:43:31Z</time>
      </trkpt>
      <trkpt lat="47.26098" lon="6.01364">
        <ele>339.8</ele>
        <time>2021-04-25T10:43:32Z</time>
      </trkpt>
      <trkpt lat="47.26099" lon="6.01367">
        <ele>340</ele>
        <time>2021-04-25T10:43:33Z</time>
      </trkpt>
      <trkpt lat="47.26099" lon="6.01371">
        <ele>340.2</ele>
        <time>2021-04-25T10:43:34Z</time>
      </trkpt>
      <trkpt lat="47.261" lon="6.01374">
        <ele>340.2</ele>
        <time>2021-04-25T10:43:35Z</time>
      </trkpt>
      <trkpt lat="47.261" lon="6.01377">
        <ele>340.4</ele>
        <time>2021-04-25T10:43:36Z</time>
      </trkpt>
      <trkpt lat="47.26101" lon="6.01381">
        <ele>340.4</ele>
        <time>2021-04-25T10:43:37Z</time>
      </trkpt>
      <trkpt lat="47.26102" lon="6.01384">
        <ele>340.8</ele>
        <time>2021-04-25T10:43:38Z</time>
      </trkpt>
      <trkpt lat="47.26103" lon="6.01387">
        <ele>341</ele>
        <time>2021-04-25T10:43:39Z</time>
      </trkpt>
      <trkpt lat="47.26103" lon="6.0139">
        <ele>341.2</ele>
        <time>2021-04-25T10:43:40Z</time>
      </trkpt>
      <trkpt lat="47.26106" lon="6.01403">
        <ele>341.6</ele>
        <time>2021-04-25T10:43:44Z</time>
      </trkpt>
      <trkpt lat="47.26107" lon="6.01406">
        <ele>341.6</ele>
        <time>2021-04-25T10:43:45Z</time>
      </trkpt>
      <trkpt lat="47.26108" lon="6.01409">
        <ele>341.8</ele>
        <time>2021-04-25T10:43:46Z</time>
      </trkpt>
      <trkpt lat="47.2611" lon="6.01411">
        <ele>342</ele>
        <time>2021-04-25T10:43:47Z</time>
      </trkpt>
      <trkpt lat="47.26111" lon="6.01413">
        <ele>342</ele>
        <time>2021-04-25T10:43:48Z</time>
      </trkpt>
      <trkpt lat="47.26112" lon="6.01415">
        <ele>342.2</ele>
        <time>2021-04-25T10:43:49Z</time>
      </trkpt>
      <trkpt lat="47.26114" lon="6.01418">
        <ele>342.4</ele>
        <time>2021-04-25T10:43:50Z</time>
      </trkpt>
      <trkpt lat="47.26115" lon="6.0142">
        <ele>342.6</ele>
        <time>2021-04-25T10:43:51Z</time>
      </trkpt>
      <trkpt lat="47.26116" lon="6.01422">
        <ele>342.8</ele>
        <time>2021-04-25T10:43:52Z</time>
      </trkpt>
      <trkpt lat="47.26118" lon="6.01424">
        <ele>343</ele>
        <time>2021-04-25T10:43:53Z</time>
      </trkpt>
      <trkpt lat="47.2612" lon="6.01425">
        <ele>343.2</ele>
        <time>2021-04-25T10:43:54Z</time>
      </trkpt>
      <trkpt lat="47.26121" lon="6.01428">
        <ele>343.4</ele>
        <time>2021-04-25T10:43:55Z</time>
      </trkpt>
      <trkpt lat="47.26122" lon="6.0143">
        <ele>343.6</ele>
        <time>2021-04-25T10:43:56Z</time>
      </trkpt>
      <trkpt lat="47.26124" lon="6.01433">
        <ele>343.8</ele>
        <time>2021-04-25T10:43:57Z</time>
      </trkpt>
      <trkpt lat="47.26125" lon="6.01435">
        <ele>344</ele>
        <time>2021-04-25T10:43:58Z</time>
      </trkpt>
      <trkpt lat="47.26126" lon="6.01438">
        <ele>344.4</ele>
        <time>2021-04-25T10:43:59Z</time>
      </trkpt>
      <trkpt lat="47.26126" lon="6.01438">
        <ele>344.4</ele>
        <time>2021-04-25T10:44:00Z</time>
      </trkpt>
      <trkpt lat="47.26129" lon="6.01443">
        <ele>344.4</ele>
        <time>2021-04-25T10:44:01Z</time>
      </trkpt>
      <trkpt lat="47.26131" lon="6.01445">
        <ele>344.6</ele>
        <time>2021-04-25T10:44:02Z</time>
      </trkpt>
      <trkpt lat="47.26133" lon="6.01447">
        <ele>344.6</ele>
        <time>2021-04-25T10:44:03Z</time>
      </trkpt>
      <trkpt lat="47.26135" lon="6.01448">
        <ele>344.8</ele>
        <time>2021-04-25T10:44:04Z</time>
      </trkpt>
      <trkpt lat="47.26138" lon="6.01449">
        <ele>344.8</ele>
        <time>2021-04-25T10:44:05Z</time>
      </trkpt>
      <trkpt lat="47.26141" lon="6.0145">
        <ele>344.8</ele>
        <time>2021-04-25T10:44:06Z</time>
      </trkpt>
      <trkpt lat="47.26143" lon="6.01451">
        <ele>344.8</ele>
        <time>2021-04-25T10:44:07Z</time>
      </trkpt>
      <trkpt lat="47.26145" lon="6.01452">
        <ele>345.2</ele>
        <time>2021-04-25T10:44:08Z</time>
      </trkpt>
      <trkpt lat="47.26147" lon="6.01453">
        <ele>345.4</ele>
        <time>2021-04-25T10:44:09Z</time>
      </trkpt>
      <trkpt lat="47.26149" lon="6.01454">
        <ele>345.4</ele>
        <time>2021-04-25T10:44:10Z</time>
      </trkpt>
      <trkpt lat="47.26151" lon="6.01455">
        <ele>345.6</ele>
        <time>2021-04-25T10:44:11Z</time>
      </trkpt>
      <trkpt lat="47.26153" lon="6.01456">
        <ele>345.6</ele>
        <time>2021-04-25T10:44:12Z</time>
      </trkpt>
      <trkpt lat="47.26155" lon="6.01457">
        <ele>345.6</ele>
        <time>2021-04-25T10:44:13Z</time>
      </trkpt>
      <trkpt lat="47.26156" lon="6.01459">
        <ele>345.6</ele>
        <time>2021-04-25T10:44:14Z</time>
      </trkpt>
      <trkpt lat="47.26158" lon="6.0146">
        <ele>345.6</ele>
        <time>2021-04-25T10:44:15Z</time>
      </trkpt>
      <trkpt lat="47.2616" lon="6.01462">
        <ele>345.8</ele>
        <time>2021-04-25T10:44:16Z</time>
      </trkpt>
      <trkpt lat="47.26163" lon="6.01463">
        <ele>345.8</ele>
        <time>2021-04-25T10:44:17Z</time>
      </trkpt>
      <trkpt lat="47.26165" lon="6.01465">
        <ele>345.8</ele>
        <time>2021-04-25T10:44:18Z</time>
      </trkpt>
      <trkpt lat="47.26167" lon="6.01467">
        <ele>346</ele>
        <time>2021-04-25T10:44:19Z</time>
      </trkpt>
      <trkpt lat="47.26169" lon="6.01468">
        <ele>346</ele>
        <time>2021-04-25T10:44:20Z</time>
      </trkpt>
      <trkpt lat="47.26171" lon="6.0147">
        <ele>346.2</ele>
        <time>2021-04-25T10:44:21Z</time>
      </trkpt>
      <trkpt lat="47.26174" lon="6.01471">
        <ele>346.4</ele>
        <time>2021-04-25T10:44:22Z</time>
      </trkpt>
      <trkpt lat="47.26176" lon="6.01473">
        <ele>346.6</ele>
        <time>2021-04-25T10:44:23Z</time>
      </trkpt>
      <trkpt lat="47.26179" lon="6.01474">
        <ele>346.8</ele>
        <time>2021-04-25T10:44:24Z</time>
      </trkpt>
      <trkpt lat="47.26181" lon="6.01476">
        <ele>347</ele>
        <time>2021-04-25T10:44:25Z</time>
      </trkpt>
      <trkpt lat="47.26184" lon="6.01478">
        <ele>347.2</ele>
        <time>2021-04-25T10:44:26Z</time>
      </trkpt>
      <trkpt lat="47.26186" lon="6.01479">
        <ele>347.4</ele>
        <time>2021-04-25T10:44:27Z</time>
      </trkpt>
      <trkpt lat="47.26188" lon="6.01481">
        <ele>347.4</ele>
        <time>2021-04-25T10:44:28Z</time>
      </trkpt>
      <trkpt lat="47.26191" lon="6.01483">
        <ele>347.4</ele>
        <time>2021-04-25T10:44:29Z</time>
      </trkpt>
      <trkpt lat="47.26193" lon="6.01485">
        <ele>347.4</ele>
        <time>2021-04-25T10:44:30Z</time>
      </trkpt>
      <trkpt lat="47.26195" lon="6.01487">
        <ele>347.4</ele>
        <time>2021-04-25T10:44:31Z</time>
      </trkpt>
      <trkpt lat="47.26197" lon="6.01489">
        <ele>347.6</ele>
        <time>2021-04-25T10:44:32Z</time>
      </trkpt>
      <trkpt lat="47.26199" lon="6.0149">
        <ele>347.6</ele>
        <time>2021-04-25T10:44:33Z</time>
      </trkpt>
      <trkpt lat="47.26202" lon="6.01492">
        <ele>347.6</ele>
        <time>2021-04-25T10:44:34Z</time>
      </trkpt>
      <trkpt lat="47.26204" lon="6.01493">
        <ele>347.6</ele>
        <time>2021-04-25T10:44:35Z</time>
      </trkpt>
      <trkpt lat="47.26206" lon="6.01495">
        <ele>347.6</ele>
        <time>2021-04-25T10:44:36Z</time>
      </trkpt>
      <trkpt lat="47.26209" lon="6.01496">
        <ele>347.8</ele>
        <time>2021-04-25T10:44:37Z</time>
      </trkpt>
      <trkpt lat="47.26211" lon="6.01497">
        <ele>347.8</ele>
        <time>2021-04-25T10:44:38Z</time>
      </trkpt>
      <trkpt lat="47.26214" lon="6.01498">
        <ele>348</ele>
        <time>2021-04-25T10:44:39Z</time>
      </trkpt>
      <trkpt lat="47.26217" lon="6.015">
        <ele>348</ele>
        <time>2021-04-25T10:44:41Z</time>
      </trkpt>
      <trkpt lat="47.26219" lon="6.01501">
        <ele>348.2</ele>
        <time>2021-04-25T10:44:42Z</time>
      </trkpt>
      <trkpt lat="47.2622" lon="6.01503">
        <ele>348.2</ele>
        <time>2021-04-25T10:44:43Z</time>
      </trkpt>
      <trkpt lat="47.2623" lon="6.01509">
        <ele>348.8</ele>
        <time>2021-04-25T10:44:48Z</time>
      </trkpt>
      <trkpt lat="47.26235" lon="6.01512">
        <ele>349</ele>
        <time>2021-04-25T10:44:51Z</time>
      </trkpt>
      <trkpt lat="47.26236" lon="6.01512">
        <ele>349</ele>
        <time>2021-04-25T10:44:52Z</time>
      </trkpt>
      <trkpt lat="47.26237" lon="6.01513">
        <ele>349</ele>
        <time>2021-04-25T10:44:53Z</time>
      </trkpt>
      <trkpt lat="47.26238" lon="6.01514">
        <ele>349</ele>
        <time>2021-04-25T10:44:54Z</time>
      </trkpt>
      <trkpt lat="47.2624" lon="6.01515">
        <ele>349.2</ele>
        <time>2021-04-25T10:44:55Z</time>
      </trkpt>
      <trkpt lat="47.26255" lon="6.01524">
        <ele>349.8</ele>
        <time>2021-04-25T10:45:03Z</time>
      </trkpt>
      <trkpt lat="47.26271" lon="6.01533">
        <ele>350.4</ele>
        <time>2021-04-25T10:45:11Z</time>
      </trkpt>
      <trkpt lat="47.26281" lon="6.01539">
        <ele>350.8</ele>
        <time>2021-04-25T10:45:16Z</time>
      </trkpt>
      <trkpt lat="47.26291" lon="6.01545">
        <ele>351.2</ele>
        <time>2021-04-25T10:45:21Z</time>
      </trkpt>
      <trkpt lat="47.26304" lon="6.01557">
        <ele>351.8</ele>
        <time>2021-04-25T10:45:28Z</time>
      </trkpt>
      <trkpt lat="47.26306" lon="6.01559">
        <ele>352</ele>
        <time>2021-04-25T10:45:29Z</time>
      </trkpt>
      <trkpt lat="47.26322" lon="6.01577">
        <ele>352.8</ele>
        <time>2021-04-25T10:45:38Z</time>
      </trkpt>
      <trkpt lat="47.26323" lon="6.01579">
        <ele>353</ele>
        <time>2021-04-25T10:45:39Z</time>
      </trkpt>
      <trkpt lat="47.26336" lon="6.016">
        <ele>353.8</ele>
        <time>2021-04-25T10:45:48Z</time>
      </trkpt>
      <trkpt lat="47.26345" lon="6.01613">
        <ele>354</ele>
        <time>2021-04-25T10:45:54Z</time>
      </trkpt>
      <trkpt lat="47.26347" lon="6.01615">
        <ele>354</ele>
        <time>2021-04-25T10:45:55Z</time>
      </trkpt>
      <trkpt lat="47.26348" lon="6.01617">
        <ele>354.2</ele>
        <time>2021-04-25T10:45:56Z</time>
      </trkpt>
      <trkpt lat="47.2635" lon="6.01618">
        <ele>354.2</ele>
        <time>2021-04-25T10:45:57Z</time>
      </trkpt>
      <trkpt lat="47.26351" lon="6.0162">
        <ele>354.4</ele>
        <time>2021-04-25T10:45:58Z</time>
      </trkpt>
      <trkpt lat="47.26353" lon="6.01622">
        <ele>354.4</ele>
        <time>2021-04-25T10:45:59Z</time>
      </trkpt>
      <trkpt lat="47.26354" lon="6.01625">
        <ele>354.4</ele>
        <time>2021-04-25T10:46:00Z</time>
      </trkpt>
      <trkpt lat="47.26356" lon="6.01627">
        <ele>354.4</ele>
        <time>2021-04-25T10:46:01Z</time>
      </trkpt>
      <trkpt lat="47.26361" lon="6.01636">
        <ele>355.2</ele>
        <time>2021-04-25T10:46:05Z</time>
      </trkpt>
      <trkpt lat="47.26375" lon="6.01659">
        <ele>355.8</ele>
        <time>2021-04-25T10:46:14Z</time>
      </trkpt>
      <trkpt lat="47.2638" lon="6.01666">
        <ele>356</ele>
        <time>2021-04-25T10:46:17Z</time>
      </trkpt>
      <trkpt lat="47.26381" lon="6.01668">
        <ele>356.2</ele>
        <time>2021-04-25T10:46:18Z</time>
      </trkpt>
      <trkpt lat="47.26384" lon="6.01672">
        <ele>356.6</ele>
        <time>2021-04-25T10:46:20Z</time>
      </trkpt>
      <trkpt lat="47.26386" lon="6.01674">
        <ele>356.8</ele>
        <time>2021-04-25T10:46:21Z</time>
      </trkpt>
      <trkpt lat="47.26387" lon="6.01676">
        <ele>356.8</ele>
        <time>2021-04-25T10:46:22Z</time>
      </trkpt>
      <trkpt lat="47.26391" lon="6.01683">
        <ele>357.6</ele>
        <time>2021-04-25T10:46:25Z</time>
      </trkpt>
      <trkpt lat="47.26393" lon="6.01685">
        <ele>357.6</ele>
        <time>2021-04-25T10:46:26Z</time>
      </trkpt>
      <trkpt lat="47.26394" lon="6.01687">
        <ele>357.8</ele>
        <time>2021-04-25T10:46:27Z</time>
      </trkpt>
      <trkpt lat="47.26396" lon="6.0169">
        <ele>358</ele>
        <time>2021-04-25T10:46:28Z</time>
      </trkpt>
      <trkpt lat="47.26397" lon="6.01692">
        <ele>358</ele>
        <time>2021-04-25T10:46:29Z</time>
      </trkpt>
      <trkpt lat="47.26399" lon="6.01694">
        <ele>358.2</ele>
        <time>2021-04-25T10:46:30Z</time>
      </trkpt>
      <trkpt lat="47.264" lon="6.01696">
        <ele>358.2</ele>
        <time>2021-04-25T10:46:31Z</time>
      </trkpt>
      <trkpt lat="47.26401" lon="6.01697">
        <ele>358.4</ele>
        <time>2021-04-25T10:46:32Z</time>
      </trkpt>
      <trkpt lat="47.26402" lon="6.01699">
        <ele>358.4</ele>
        <time>2021-04-25T10:46:33Z</time>
      </trkpt>
      <trkpt lat="47.26404" lon="6.01701">
        <ele>358.4</ele>
        <time>2021-04-25T10:46:34Z</time>
      </trkpt>
      <trkpt lat="47.26405" lon="6.01703">
        <ele>358.6</ele>
        <time>2021-04-25T10:46:35Z</time>
      </trkpt>
      <trkpt lat="47.26406" lon="6.01705">
        <ele>358.6</ele>
        <time>2021-04-25T10:46:36Z</time>
      </trkpt>
      <trkpt lat="47.26408" lon="6.01707">
        <ele>358.8</ele>
        <time>2021-04-25T10:46:37Z</time>
      </trkpt>
      <trkpt lat="47.2641" lon="6.0171">
        <ele>359</ele>
        <time>2021-04-25T10:46:38Z</time>
      </trkpt>
      <trkpt lat="47.26412" lon="6.01712">
        <ele>359.2</ele>
        <time>2021-04-25T10:46:39Z</time>
      </trkpt>
      <trkpt lat="47.26413" lon="6.01714">
        <ele>359.4</ele>
        <time>2021-04-25T10:46:40Z</time>
      </trkpt>
      <trkpt lat="47.26415" lon="6.01716">
        <ele>359.4</ele>
        <time>2021-04-25T10:46:41Z</time>
      </trkpt>
      <trkpt lat="47.26416" lon="6.01719">
        <ele>359.4</ele>
        <time>2021-04-25T10:46:42Z</time>
      </trkpt>
      <trkpt lat="47.26417" lon="6.01721">
        <ele>359.6</ele>
        <time>2021-04-25T10:46:43Z</time>
      </trkpt>
      <trkpt lat="47.26419" lon="6.01724">
        <ele>359.6</ele>
        <time>2021-04-25T10:46:44Z</time>
      </trkpt>
      <trkpt lat="47.2642" lon="6.01726">
        <ele>359.6</ele>
        <time>2021-04-25T10:46:45Z</time>
      </trkpt>
      <trkpt lat="47.26421" lon="6.01729">
        <ele>359.6</ele>
        <time>2021-04-25T10:46:46Z</time>
      </trkpt>
      <trkpt lat="47.26423" lon="6.01731">
        <ele>359.8</ele>
        <time>2021-04-25T10:46:47Z</time>
      </trkpt>
      <trkpt lat="47.26425" lon="6.01733">
        <ele>359.8</ele>
        <time>2021-04-25T10:46:48Z</time>
      </trkpt>
      <trkpt lat="47.26427" lon="6.01734">
        <ele>360</ele>
        <time>2021-04-25T10:46:49Z</time>
      </trkpt>
      <trkpt lat="47.26429" lon="6.01736">
        <ele>360</ele>
        <time>2021-04-25T10:46:50Z</time>
      </trkpt>
      <trkpt lat="47.26431" lon="6.01739">
        <ele>360.2</ele>
        <time>2021-04-25T10:46:51Z</time>
      </trkpt>
      <trkpt lat="47.26432" lon="6.01741">
        <ele>360.2</ele>
        <time>2021-04-25T10:46:52Z</time>
      </trkpt>
      <trkpt lat="47.26434" lon="6.01744">
        <ele>360.4</ele>
        <time>2021-04-25T10:46:53Z</time>
      </trkpt>
      <trkpt lat="47.26435" lon="6.01747">
        <ele>360.4</ele>
        <time>2021-04-25T10:46:54Z</time>
      </trkpt>
      <trkpt lat="47.26437" lon="6.01749">
        <ele>360.6</ele>
        <time>2021-04-25T10:46:55Z</time>
      </trkpt>
      <trkpt lat="47.26438" lon="6.01752">
        <ele>360.6</ele>
        <time>2021-04-25T10:46:56Z</time>
      </trkpt>
      <trkpt lat="47.2644" lon="6.01754">
        <ele>360.8</ele>
        <time>2021-04-25T10:46:57Z</time>
      </trkpt>
      <trkpt lat="47.26441" lon="6.01756">
        <ele>360.8</ele>
        <time>2021-04-25T10:46:58Z</time>
      </trkpt>
      <trkpt lat="47.26443" lon="6.01758">
        <ele>360.8</ele>
        <time>2021-04-25T10:46:59Z</time>
      </trkpt>
      <trkpt lat="47.26444" lon="6.01761">
        <ele>360.8</ele>
        <time>2021-04-25T10:47:00Z</time>
      </trkpt>
      <trkpt lat="47.26445" lon="6.01763">
        <ele>361</ele>
        <time>2021-04-25T10:47:01Z</time>
      </trkpt>
      <trkpt lat="47.26446" lon="6.01765">
        <ele>361</ele>
        <time>2021-04-25T10:47:02Z</time>
      </trkpt>
      <trkpt lat="47.26446" lon="6.01767">
        <ele>361.2</ele>
        <time>2021-04-25T10:47:03Z</time>
      </trkpt>
      <trkpt lat="47.26447" lon="6.01768">
        <ele>361.2</ele>
        <time>2021-04-25T10:47:04Z</time>
      </trkpt>
      <trkpt lat="47.26455" lon="6.0178">
        <ele>361.8</ele>
        <time>2021-04-25T10:47:09Z</time>
      </trkpt>
      <trkpt lat="47.26457" lon="6.01782">
        <ele>361.8</ele>
        <time>2021-04-25T10:47:10Z</time>
      </trkpt>
      <trkpt lat="47.2647" lon="6.01803">
        <ele>362.4</ele>
        <time>2021-04-25T10:47:19Z</time>
      </trkpt>
      <trkpt lat="47.26475" lon="6.01812">
        <ele>362.8</ele>
        <time>2021-04-25T10:47:22Z</time>
      </trkpt>
      <trkpt lat="47.26485" lon="6.01828">
        <ele>363</ele>
        <time>2021-04-25T10:47:28Z</time>
      </trkpt>
      <trkpt lat="47.26499" lon="6.01851">
        <ele>363.4</ele>
        <time>2021-04-25T10:47:37Z</time>
      </trkpt>
      <trkpt lat="47.26518" lon="6.01881">
        <ele>363.8</ele>
        <time>2021-04-25T10:47:47Z</time>
      </trkpt>
      <trkpt lat="47.26522" lon="6.01887">
        <ele>364</ele>
        <time>2021-04-25T10:47:49Z</time>
      </trkpt>
      <trkpt lat="47.2653" lon="6.01902">
        <ele>364.2</ele>
        <time>2021-04-25T10:47:54Z</time>
      </trkpt>
      <trkpt lat="47.26532" lon="6.01905">
        <ele>364.2</ele>
        <time>2021-04-25T10:47:55Z</time>
      </trkpt>
      <trkpt lat="47.26534" lon="6.01908">
        <ele>364.2</ele>
        <time>2021-04-25T10:47:56Z</time>
      </trkpt>
      <trkpt lat="47.26536" lon="6.01911">
        <ele>364.2</ele>
        <time>2021-04-25T10:47:57Z</time>
      </trkpt>
      <trkpt lat="47.26543" lon="6.01923">
        <ele>364.4</ele>
        <time>2021-04-25T10:48:01Z</time>
      </trkpt>
      <trkpt lat="47.26545" lon="6.01926">
        <ele>364.4</ele>
        <time>2021-04-25T10:48:02Z</time>
      </trkpt>
      <trkpt lat="47.26547" lon="6.01929">
        <ele>364.6</ele>
        <time>2021-04-25T10:48:03Z</time>
      </trkpt>
      <trkpt lat="47.26549" lon="6.01931">
        <ele>364.6</ele>
        <time>2021-04-25T10:48:04Z</time>
      </trkpt>
      <trkpt lat="47.2655" lon="6.01934">
        <ele>364.6</ele>
        <time>2021-04-25T10:48:05Z</time>
      </trkpt>
      <trkpt lat="47.26552" lon="6.01936">
        <ele>364.6</ele>
        <time>2021-04-25T10:48:06Z</time>
      </trkpt>
      <trkpt lat="47.26553" lon="6.01939">
        <ele>364.6</ele>
        <time>2021-04-25T10:48:07Z</time>
      </trkpt>
      <trkpt lat="47.26554" lon="6.01942">
        <ele>364.8</ele>
        <time>2021-04-25T10:48:08Z</time>
      </trkpt>
      <trkpt lat="47.26553" lon="6.01943">
        <ele>364.8</ele>
        <time>2021-04-25T10:48:09Z</time>
      </trkpt>
      <trkpt lat="47.26553" lon="6.01943">
        <ele>364.8</ele>
        <time>2021-04-25T10:48:10Z</time>
      </trkpt>
      <trkpt lat="47.26553" lon="6.01943">
        <ele>364.8</ele>
        <time>2021-04-25T10:48:11Z</time>
      </trkpt>
      <trkpt lat="47.26552" lon="6.01943">
        <ele>365</ele>
        <time>2021-04-25T10:48:12Z</time>
      </trkpt>
      <trkpt lat="47.26552" lon="6.01942">
        <ele>365</ele>
        <time>2021-04-25T10:48:13Z</time>
      </trkpt>
      <trkpt lat="47.26553" lon="6.01941">
        <ele>365</ele>
        <time>2021-04-25T10:48:19Z</time>
      </trkpt>
      <trkpt lat="47.26553" lon="6.01938">
        <ele>365</ele>
        <time>2021-04-25T10:48:25Z</time>
      </trkpt>
      <trkpt lat="47.26554" lon="6.01929">
        <ele>364.8</ele>
        <time>2021-04-25T10:48:27Z</time>
      </trkpt>
      <trkpt lat="47.26555" lon="6.01926">
        <ele>364.8</ele>
        <time>2021-04-25T10:48:28Z</time>
      </trkpt>
      <trkpt lat="47.26557" lon="6.01923">
        <ele>364.8</ele>
        <time>2021-04-25T10:48:29Z</time>
      </trkpt>
      <trkpt lat="47.26559" lon="6.0192">
        <ele>364.8</ele>
        <time>2021-04-25T10:48:30Z</time>
      </trkpt>
      <trkpt lat="47.2656" lon="6.01917">
        <ele>365</ele>
        <time>2021-04-25T10:48:31Z</time>
      </trkpt>
      <trkpt lat="47.26562" lon="6.01914">
        <ele>365</ele>
        <time>2021-04-25T10:48:32Z</time>
      </trkpt>
      <trkpt lat="47.26571" lon="6.01896">
        <ele>365.8</ele>
        <time>2021-04-25T10:48:39Z</time>
      </trkpt>
      <trkpt lat="47.26572" lon="6.01893">
        <ele>366</ele>
        <time>2021-04-25T10:48:40Z</time>
      </trkpt>
      <trkpt lat="47.26574" lon="6.01892">
        <ele>366.2</ele>
        <time>2021-04-25T10:48:41Z</time>
      </trkpt>
      <trkpt lat="47.26576" lon="6.0189">
        <ele>366.4</ele>
        <time>2021-04-25T10:48:42Z</time>
      </trkpt>
      <trkpt lat="47.26577" lon="6.0189">
        <ele>366.6</ele>
        <time>2021-04-25T10:48:43Z</time>
      </trkpt>
      <trkpt lat="47.26578" lon="6.01889">
        <ele>366.6</ele>
        <time>2021-04-25T10:48:44Z</time>
      </trkpt>
      <trkpt lat="47.26579" lon="6.01889">
        <ele>366.8</ele>
        <time>2021-04-25T10:48:45Z</time>
      </trkpt>
      <trkpt lat="47.26579" lon="6.01889">
        <ele>367</ele>
        <time>2021-04-25T10:48:47Z</time>
      </trkpt>
      <trkpt lat="47.26579" lon="6.01888">
        <ele>367.2</ele>
        <time>2021-04-25T10:48:54Z</time>
      </trkpt>
      <trkpt lat="47.26579" lon="6.01888">
        <ele>366.8</ele>
        <time>2021-04-25T10:49:08Z</time>
      </trkpt>
      <trkpt lat="47.26579" lon="6.01888">
        <ele>366.6</ele>
        <time>2021-04-25T10:49:50Z</time>
      </trkpt>
      <trkpt lat="47.26579" lon="6.01888">
        <ele>366.8</ele>
        <time>2021-04-25T10:50:25Z</time>
      </trkpt>
      <trkpt lat="47.26579" lon="6.01888">
        <ele>366.8</ele>
        <time>2021-04-25T10:50:52Z</time>
      </trkpt>
      <trkpt lat="47.26579" lon="6.01888">
        <ele>366.8</ele>
        <time>2021-04-25T10:51:28Z</time>
      </trkpt>
      <trkpt lat="47.26579" lon="6.01888">
        <ele>367</ele>
        <time>2021-04-25T10:51:52Z</time>
      </trkpt>
      <trkpt lat="47.26579" lon="6.01888">
        <ele>367.2</ele>
        <time>2021-04-25T10:52:29Z</time>
      </trkpt>
      <trkpt lat="47.26579" lon="6.01888">
        <ele>367.4</ele>
        <time>2021-04-25T10:53:02Z</time>
      </trkpt>
      <trkpt lat="47.26579" lon="6.01888">
        <ele>367.6</ele>
        <time>2021-04-25T10:53:49Z</time>
      </trkpt>
      <trkpt lat="47.26579" lon="6.01888">
        <ele>367.8</ele>
        <time>2021-04-25T10:55:30Z</time>
      </trkpt>
      <trkpt lat="47.26579" lon="6.01888">
        <ele>368.4</ele>
        <time>2021-04-25T10:56:31Z</time>
      </trkpt>
      <trkpt lat="47.26579" lon="6.01888">
        <ele>368.2</ele>
        <time>2021-04-25T10:56:53Z</time>
      </trkpt>
      <trkpt lat="47.26579" lon="6.01888">
        <ele>367.6</ele>
        <time>2021-04-25T10:58:51Z</time>
      </trkpt>
      <trkpt lat="47.26579" lon="6.01888">
        <ele>367.6</ele>
        <time>2021-04-25T11:00:12Z</time>
      </trkpt>
      <trkpt lat="47.26579" lon="6.01888">
        <ele>368.2</ele>
        <time>2021-04-25T11:00:54Z</time>
      </trkpt>
      <trkpt lat="47.26579" lon="6.01888">
        <ele>368.2</ele>
        <time>2021-04-25T11:02:12Z</time>
      </trkpt>
      <trkpt lat="47.26579" lon="6.01888">
        <ele>368.2</ele>
        <time>2021-04-25T11:04:51Z</time>
      </trkpt>
      <trkpt lat="47.26579" lon="6.01888">
        <ele>369</ele>
        <time>2021-04-25T11:06:33Z</time>
      </trkpt>
      <trkpt lat="47.26579" lon="6.01888">
        <ele>369</ele>
        <time>2021-04-25T11:08:12Z</time>
      </trkpt>
      <trkpt lat="47.26579" lon="6.01888">
        <ele>370</ele>
        <time>2021-04-25T11:09:24Z</time>
      </trkpt>
      <trkpt lat="47.26579" lon="6.01888">
        <ele>369.2</ele>
        <time>2021-04-25T11:13:44Z</time>
      </trkpt>
      <trkpt lat="47.26579" lon="6.01888">
        <ele>370</ele>
        <time>2021-04-25T11:16:58Z</time>
      </trkpt>
      <trkpt lat="47.26578" lon="6.01888">
        <ele>370</ele>
        <time>2021-04-25T11:17:00Z</time>
      </trkpt>
      <trkpt lat="47.26578" lon="6.01888">
        <ele>370</ele>
        <time>2021-04-25T11:17:02Z</time>
      </trkpt>
      <trkpt lat="47.26577" lon="6.01889">
        <ele>370.4</ele>
        <time>2021-04-25T11:17:19Z</time>
      </trkpt>
      <trkpt lat="47.26576" lon="6.01891">
        <ele>370.4</ele>
        <time>2021-04-25T11:17:20Z</time>
      </trkpt>
      <trkpt lat="47.26574" lon="6.01892">
        <ele>370.2</ele>
        <time>2021-04-25T11:17:21Z</time>
      </trkpt>
      <trkpt lat="47.26573" lon="6.01894">
        <ele>370.2</ele>
        <time>2021-04-25T11:17:22Z</time>
      </trkpt>
      <trkpt lat="47.26572" lon="6.01896">
        <ele>370.2</ele>
        <time>2021-04-25T11:17:23Z</time>
      </trkpt>
      <trkpt lat="47.2656" lon="6.01913">
        <ele>370</ele>
        <time>2021-04-25T11:17:29Z</time>
      </trkpt>
      <trkpt lat="47.26554" lon="6.01923">
        <ele>369.8</ele>
        <time>2021-04-25T11:17:32Z</time>
      </trkpt>
      <trkpt lat="47.26553" lon="6.01924">
        <ele>369.8</ele>
        <time>2021-04-25T11:17:33Z</time>
      </trkpt>
      <trkpt lat="47.26551" lon="6.01926">
        <ele>369.6</ele>
        <time>2021-04-25T11:17:34Z</time>
      </trkpt>
      <trkpt lat="47.26549" lon="6.01926">
        <ele>369.6</ele>
        <time>2021-04-25T11:17:35Z</time>
      </trkpt>
      <trkpt lat="47.26546" lon="6.01923">
        <ele>369.2</ele>
        <time>2021-04-25T11:17:37Z</time>
      </trkpt>
      <trkpt lat="47.26544" lon="6.0192">
        <ele>369.2</ele>
        <time>2021-04-25T11:17:38Z</time>
      </trkpt>
      <trkpt lat="47.26543" lon="6.01918">
        <ele>369</ele>
        <time>2021-04-25T11:17:39Z</time>
      </trkpt>
      <trkpt lat="47.26542" lon="6.01915">
        <ele>369</ele>
        <time>2021-04-25T11:17:40Z</time>
      </trkpt>
      <trkpt lat="47.2654" lon="6.01912">
        <ele>368.8</ele>
        <time>2021-04-25T11:17:41Z</time>
      </trkpt>
      <trkpt lat="47.26539" lon="6.01909">
        <ele>368.4</ele>
        <time>2021-04-25T11:17:42Z</time>
      </trkpt>
      <trkpt lat="47.26536" lon="6.01904">
        <ele>368.2</ele>
        <time>2021-04-25T11:17:44Z</time>
      </trkpt>
      <trkpt lat="47.26524" lon="6.01884">
        <ele>367.8</ele>
        <time>2021-04-25T11:17:50Z</time>
      </trkpt>
      <trkpt lat="47.26519" lon="6.01877">
        <ele>367.6</ele>
        <time>2021-04-25T11:17:52Z</time>
      </trkpt>
      <trkpt lat="47.26509" lon="6.01861">
        <ele>367.6</ele>
        <time>2021-04-25T11:17:56Z</time>
      </trkpt>
      <trkpt lat="47.26499" lon="6.01846">
        <ele>367.4</ele>
        <time>2021-04-25T11:18:00Z</time>
      </trkpt>
      <trkpt lat="47.2649" lon="6.0183">
        <ele>367.2</ele>
        <time>2021-04-25T11:18:04Z</time>
      </trkpt>
      <trkpt lat="47.26475" lon="6.01805">
        <ele>367.2</ele>
        <time>2021-04-25T11:18:10Z</time>
      </trkpt>
      <trkpt lat="47.26457" lon="6.01774">
        <ele>366.8</ele>
        <time>2021-04-25T11:18:16Z</time>
      </trkpt>
      <trkpt lat="47.26451" lon="6.01761">
        <ele>366.6</ele>
        <time>2021-04-25T11:18:18Z</time>
      </trkpt>
      <trkpt lat="47.26446" lon="6.01747">
        <ele>366.2</ele>
        <time>2021-04-25T11:18:20Z</time>
      </trkpt>
      <trkpt lat="47.26443" lon="6.01739">
        <ele>366</ele>
        <time>2021-04-25T11:18:21Z</time>
      </trkpt>
      <trkpt lat="47.26434" lon="6.01715">
        <ele>365.4</ele>
        <time>2021-04-25T11:18:24Z</time>
      </trkpt>
      <trkpt lat="47.26425" lon="6.01702">
        <ele>365</ele>
        <time>2021-04-25T11:18:26Z</time>
      </trkpt>
      <trkpt lat="47.2642" lon="6.01698">
        <ele>364.8</ele>
        <time>2021-04-25T11:18:27Z</time>
      </trkpt>
      <trkpt lat="47.26415" lon="6.01695">
        <ele>364.4</ele>
        <time>2021-04-25T11:18:28Z</time>
      </trkpt>
      <trkpt lat="47.26407" lon="6.01688">
        <ele>364.2</ele>
        <time>2021-04-25T11:18:29Z</time>
      </trkpt>
      <trkpt lat="47.26402" lon="6.01682">
        <ele>363.8</ele>
        <time>2021-04-25T11:18:30Z</time>
      </trkpt>
      <trkpt lat="47.26396" lon="6.01675">
        <ele>363.8</ele>
        <time>2021-04-25T11:18:31Z</time>
      </trkpt>
      <trkpt lat="47.26373" lon="6.01643">
        <ele>362.8</ele>
        <time>2021-04-25T11:18:35Z</time>
      </trkpt>
      <trkpt lat="47.26355" lon="6.01616">
        <ele>361.4</ele>
        <time>2021-04-25T11:18:38Z</time>
      </trkpt>
      <trkpt lat="47.26349" lon="6.01607">
        <ele>361.2</ele>
        <time>2021-04-25T11:18:39Z</time>
      </trkpt>
      <trkpt lat="47.26329" lon="6.01579">
        <ele>360.2</ele>
        <time>2021-04-25T11:18:42Z</time>
      </trkpt>
      <trkpt lat="47.26316" lon="6.01563">
        <ele>359</ele>
        <time>2021-04-25T11:18:44Z</time>
      </trkpt>
      <trkpt lat="47.26309" lon="6.01556">
        <ele>358.4</ele>
        <time>2021-04-25T11:18:45Z</time>
      </trkpt>
      <trkpt lat="47.26277" lon="6.01532">
        <ele>357</ele>
        <time>2021-04-25T11:18:49Z</time>
      </trkpt>
      <trkpt lat="47.26253" lon="6.01518">
        <ele>356</ele>
        <time>2021-04-25T11:18:52Z</time>
      </trkpt>
      <trkpt lat="47.26212" lon="6.01491">
        <ele>354.6</ele>
        <time>2021-04-25T11:18:57Z</time>
      </trkpt>
      <trkpt lat="47.26204" lon="6.01486">
        <ele>354.4</ele>
        <time>2021-04-25T11:18:58Z</time>
      </trkpt>
      <trkpt lat="47.26187" lon="6.01475">
        <ele>353.6</ele>
        <time>2021-04-25T11:19:00Z</time>
      </trkpt>
      <trkpt lat="47.26179" lon="6.0147">
        <ele>353.6</ele>
        <time>2021-04-25T11:19:01Z</time>
      </trkpt>
      <trkpt lat="47.26172" lon="6.01465">
        <ele>353.2</ele>
        <time>2021-04-25T11:19:02Z</time>
      </trkpt>
      <trkpt lat="47.26166" lon="6.0146">
        <ele>353</ele>
        <time>2021-04-25T11:19:03Z</time>
      </trkpt>
      <trkpt lat="47.26161" lon="6.01456">
        <ele>352.4</ele>
        <time>2021-04-25T11:19:04Z</time>
      </trkpt>
      <trkpt lat="47.26156" lon="6.01452">
        <ele>351.8</ele>
        <time>2021-04-25T11:19:05Z</time>
      </trkpt>
      <trkpt lat="47.26151" lon="6.01449">
        <ele>351.8</ele>
        <time>2021-04-25T11:19:06Z</time>
      </trkpt>
      <trkpt lat="47.26147" lon="6.01444">
        <ele>351.4</ele>
        <time>2021-04-25T11:19:07Z</time>
      </trkpt>
      <trkpt lat="47.26143" lon="6.01439">
        <ele>351.4</ele>
        <time>2021-04-25T11:19:08Z</time>
      </trkpt>
      <trkpt lat="47.2614" lon="6.01433">
        <ele>351.2</ele>
        <time>2021-04-25T11:19:09Z</time>
      </trkpt>
      <trkpt lat="47.26136" lon="6.01429">
        <ele>351</ele>
        <time>2021-04-25T11:19:10Z</time>
      </trkpt>
      <trkpt lat="47.26131" lon="6.01429">
        <ele>350.6</ele>
        <time>2021-04-25T11:19:11Z</time>
      </trkpt>
      <trkpt lat="47.26127" lon="6.01431">
        <ele>350.4</ele>
        <time>2021-04-25T11:19:12Z</time>
      </trkpt>
      <trkpt lat="47.26123" lon="6.01434">
        <ele>350.2</ele>
        <time>2021-04-25T11:19:13Z</time>
      </trkpt>
      <trkpt lat="47.26119" lon="6.01438">
        <ele>350</ele>
        <time>2021-04-25T11:19:14Z</time>
      </trkpt>
      <trkpt lat="47.26115" lon="6.01442">
        <ele>350</ele>
        <time>2021-04-25T11:19:15Z</time>
      </trkpt>
      <trkpt lat="47.26111" lon="6.01447">
        <ele>349.8</ele>
        <time>2021-04-25T11:19:16Z</time>
      </trkpt>
      <trkpt lat="47.26107" lon="6.01451">
        <ele>349.6</ele>
        <time>2021-04-25T11:19:17Z</time>
      </trkpt>
      <trkpt lat="47.26103" lon="6.01454">
        <ele>349.4</ele>
        <time>2021-04-25T11:19:18Z</time>
      </trkpt>
      <trkpt lat="47.26097" lon="6.01457">
        <ele>349.2</ele>
        <time>2021-04-25T11:19:19Z</time>
      </trkpt>
      <trkpt lat="47.26092" lon="6.0146">
        <ele>349</ele>
        <time>2021-04-25T11:19:20Z</time>
      </trkpt>
      <trkpt lat="47.26076" lon="6.01472">
        <ele>348.8</ele>
        <time>2021-04-25T11:19:23Z</time>
      </trkpt>
      <trkpt lat="47.26071" lon="6.01476">
        <ele>348.6</ele>
        <time>2021-04-25T11:19:24Z</time>
      </trkpt>
      <trkpt lat="47.26066" lon="6.01479">
        <ele>348.4</ele>
        <time>2021-04-25T11:19:25Z</time>
      </trkpt>
      <trkpt lat="47.26064" lon="6.0148">
        <ele>348</ele>
        <time>2021-04-25T11:19:26Z</time>
      </trkpt>
      <trkpt lat="47.26062" lon="6.01482">
        <ele>347.6</ele>
        <time>2021-04-25T11:19:27Z</time>
      </trkpt>
      <trkpt lat="47.2606" lon="6.01483">
        <ele>347.2</ele>
        <time>2021-04-25T11:19:28Z</time>
      </trkpt>
      <trkpt lat="47.26058" lon="6.01485">
        <ele>347</ele>
        <time>2021-04-25T11:19:29Z</time>
      </trkpt>
      <trkpt lat="47.26055" lon="6.01487">
        <ele>346.8</ele>
        <time>2021-04-25T11:19:30Z</time>
      </trkpt>
      <trkpt lat="47.26045" lon="6.01493">
        <ele>346.4</ele>
        <time>2021-04-25T11:19:33Z</time>
      </trkpt>
      <trkpt lat="47.26032" lon="6.015">
        <ele>345.6</ele>
        <time>2021-04-25T11:19:36Z</time>
      </trkpt>
      <trkpt lat="47.26018" lon="6.01509">
        <ele>345</ele>
        <time>2021-04-25T11:19:39Z</time>
      </trkpt>
      <trkpt lat="47.26014" lon="6.01512">
        <ele>344.8</ele>
        <time>2021-04-25T11:19:40Z</time>
      </trkpt>
      <trkpt lat="47.26004" lon="6.01519">
        <ele>344.6</ele>
        <time>2021-04-25T11:19:42Z</time>
      </trkpt>
      <trkpt lat="47.25999" lon="6.01523">
        <ele>344.4</ele>
        <time>2021-04-25T11:19:43Z</time>
      </trkpt>
      <trkpt lat="47.25984" lon="6.01535">
        <ele>343.6</ele>
        <time>2021-04-25T11:19:46Z</time>
      </trkpt>
      <trkpt lat="47.25974" lon="6.01544">
        <ele>343.4</ele>
        <time>2021-04-25T11:19:48Z</time>
      </trkpt>
      <trkpt lat="47.25968" lon="6.01548">
        <ele>343.2</ele>
        <time>2021-04-25T11:19:49Z</time>
      </trkpt>
      <trkpt lat="47.25942" lon="6.0157">
        <ele>342.6</ele>
        <time>2021-04-25T11:19:54Z</time>
      </trkpt>
      <trkpt lat="47.25938" lon="6.01573">
        <ele>342.4</ele>
        <time>2021-04-25T11:19:55Z</time>
      </trkpt>
      <trkpt lat="47.25933" lon="6.01576">
        <ele>342.2</ele>
        <time>2021-04-25T11:19:56Z</time>
      </trkpt>
      <trkpt lat="47.25928" lon="6.01578">
        <ele>342</ele>
        <time>2021-04-25T11:19:57Z</time>
      </trkpt>
      <trkpt lat="47.25923" lon="6.0158">
        <ele>341.8</ele>
        <time>2021-04-25T11:19:58Z</time>
      </trkpt>
      <trkpt lat="47.25919" lon="6.01581">
        <ele>341.6</ele>
        <time>2021-04-25T11:19:59Z</time>
      </trkpt>
      <trkpt lat="47.25917" lon="6.01584">
        <ele>341.6</ele>
        <time>2021-04-25T11:20:00Z</time>
      </trkpt>
      <trkpt lat="47.25916" lon="6.01587">
        <ele>341.6</ele>
        <time>2021-04-25T11:20:01Z</time>
      </trkpt>
      <trkpt lat="47.25916" lon="6.01588">
        <ele>341.6</ele>
        <time>2021-04-25T11:20:02Z</time>
      </trkpt>
      <trkpt lat="47.25915" lon="6.01588">
        <ele>341.8</ele>
        <time>2021-04-25T11:20:04Z</time>
      </trkpt>
      <trkpt lat="47.25912" lon="6.01597">
        <ele>341.8</ele>
        <time>2021-04-25T11:20:08Z</time>
      </trkpt>
      <trkpt lat="47.25911" lon="6.01601">
        <ele>342</ele>
        <time>2021-04-25T11:20:09Z</time>
      </trkpt>
      <trkpt lat="47.25911" lon="6.01604">
        <ele>342</ele>
        <time>2021-04-25T11:20:10Z</time>
      </trkpt>
      <trkpt lat="47.25912" lon="6.01608">
        <ele>342</ele>
        <time>2021-04-25T11:20:11Z</time>
      </trkpt>
      <trkpt lat="47.25913" lon="6.01611">
        <ele>342</ele>
        <time>2021-04-25T11:20:12Z</time>
      </trkpt>
      <trkpt lat="47.25914" lon="6.01614">
        <ele>342</ele>
        <time>2021-04-25T11:20:13Z</time>
      </trkpt>
      <trkpt lat="47.25916" lon="6.01617">
        <ele>342</ele>
        <time>2021-04-25T11:20:14Z</time>
      </trkpt>
      <trkpt lat="47.25918" lon="6.01621">
        <ele>342</ele>
        <time>2021-04-25T11:20:15Z</time>
      </trkpt>
      <trkpt lat="47.25928" lon="6.01643">
        <ele>342</ele>
        <time>2021-04-25T11:20:20Z</time>
      </trkpt>
      <trkpt lat="47.25932" lon="6.01652">
        <ele>342</ele>
        <time>2021-04-25T11:20:22Z</time>
      </trkpt>
      <trkpt lat="47.25933" lon="6.01657">
        <ele>342</ele>
        <time>2021-04-25T11:20:23Z</time>
      </trkpt>
      <trkpt lat="47.25934" lon="6.01662">
        <ele>342.2</ele>
        <time>2021-04-25T11:20:24Z</time>
      </trkpt>
      <trkpt lat="47.25935" lon="6.01672">
        <ele>342.2</ele>
        <time>2021-04-25T11:20:26Z</time>
      </trkpt>
      <trkpt lat="47.25934" lon="6.01681">
        <ele>342.4</ele>
        <time>2021-04-25T11:20:28Z</time>
      </trkpt>
      <trkpt lat="47.25933" lon="6.01689">
        <ele>342.6</ele>
        <time>2021-04-25T11:20:30Z</time>
      </trkpt>
      <trkpt lat="47.25931" lon="6.01692">
        <ele>342.6</ele>
        <time>2021-04-25T11:20:31Z</time>
      </trkpt>
      <trkpt lat="47.2593" lon="6.01696">
        <ele>342.8</ele>
        <time>2021-04-25T11:20:32Z</time>
      </trkpt>
      <trkpt lat="47.25928" lon="6.01699">
        <ele>343</ele>
        <time>2021-04-25T11:20:33Z</time>
      </trkpt>
      <trkpt lat="47.25926" lon="6.01702">
        <ele>343.4</ele>
        <time>2021-04-25T11:20:34Z</time>
      </trkpt>
      <trkpt lat="47.25923" lon="6.01705">
        <ele>343.4</ele>
        <time>2021-04-25T11:20:35Z</time>
      </trkpt>
      <trkpt lat="47.25921" lon="6.01707">
        <ele>343.8</ele>
        <time>2021-04-25T11:20:36Z</time>
      </trkpt>
      <trkpt lat="47.25918" lon="6.0171">
        <ele>344</ele>
        <time>2021-04-25T11:20:37Z</time>
      </trkpt>
      <trkpt lat="47.25913" lon="6.01715">
        <ele>344.6</ele>
        <time>2021-04-25T11:20:39Z</time>
      </trkpt>
      <trkpt lat="47.25911" lon="6.01717">
        <ele>344.8</ele>
        <time>2021-04-25T11:20:40Z</time>
      </trkpt>
      <trkpt lat="47.25909" lon="6.0172">
        <ele>345</ele>
        <time>2021-04-25T11:20:41Z</time>
      </trkpt>
      <trkpt lat="47.25904" lon="6.01724">
        <ele>345.2</ele>
        <time>2021-04-25T11:20:43Z</time>
      </trkpt>
      <trkpt lat="47.25902" lon="6.01725">
        <ele>345.4</ele>
        <time>2021-04-25T11:20:44Z</time>
      </trkpt>
      <trkpt lat="47.25899" lon="6.01726">
        <ele>345.4</ele>
        <time>2021-04-25T11:20:45Z</time>
      </trkpt>
      <trkpt lat="47.25896" lon="6.01727">
        <ele>345.4</ele>
        <time>2021-04-25T11:20:46Z</time>
      </trkpt>
      <trkpt lat="47.25894" lon="6.01727">
        <ele>345.4</ele>
        <time>2021-04-25T11:20:47Z</time>
      </trkpt>
      <trkpt lat="47.2589" lon="6.01725">
        <ele>345.4</ele>
        <time>2021-04-25T11:20:48Z</time>
      </trkpt>
      <trkpt lat="47.25888" lon="6.01723">
        <ele>345.4</ele>
        <time>2021-04-25T11:20:49Z</time>
      </trkpt>
      <trkpt lat="47.25886" lon="6.01721">
        <ele>345.4</ele>
        <time>2021-04-25T11:20:50Z</time>
      </trkpt>
      <trkpt lat="47.25884" lon="6.01719">
        <ele>345.4</ele>
        <time>2021-04-25T11:20:51Z</time>
      </trkpt>
      <trkpt lat="47.25882" lon="6.01719">
        <ele>345.4</ele>
        <time>2021-04-25T11:20:52Z</time>
      </trkpt>
      <trkpt lat="47.2588" lon="6.01718">
        <ele>345.4</ele>
        <time>2021-04-25T11:20:53Z</time>
      </trkpt>
      <trkpt lat="47.25878" lon="6.01716">
        <ele>345.4</ele>
        <time>2021-04-25T11:20:54Z</time>
      </trkpt>
      <trkpt lat="47.25876" lon="6.01716">
        <ele>345</ele>
        <time>2021-04-25T11:20:55Z</time>
      </trkpt>
      <trkpt lat="47.25874" lon="6.01715">
        <ele>345</ele>
        <time>2021-04-25T11:20:56Z</time>
      </trkpt>
      <trkpt lat="47.25861" lon="6.01708">
        <ele>344.2</ele>
        <time>2021-04-25T11:21:01Z</time>
      </trkpt>
      <trkpt lat="47.25848" lon="6.01702">
        <ele>343.6</ele>
        <time>2021-04-25T11:21:05Z</time>
      </trkpt>
      <trkpt lat="47.25844" lon="6.017">
        <ele>343.6</ele>
        <time>2021-04-25T11:21:06Z</time>
      </trkpt>
      <trkpt lat="47.25841" lon="6.01698">
        <ele>343.2</ele>
        <time>2021-04-25T11:21:07Z</time>
      </trkpt>
      <trkpt lat="47.25839" lon="6.01696">
        <ele>343</ele>
        <time>2021-04-25T11:21:08Z</time>
      </trkpt>
      <trkpt lat="47.25836" lon="6.01697">
        <ele>342.8</ele>
        <time>2021-04-25T11:21:09Z</time>
      </trkpt>
      <trkpt lat="47.25834" lon="6.01698">
        <ele>342.6</ele>
        <time>2021-04-25T11:21:10Z</time>
      </trkpt>
      <trkpt lat="47.25831" lon="6.01701">
        <ele>342.4</ele>
        <time>2021-04-25T11:21:11Z</time>
      </trkpt>
      <trkpt lat="47.25829" lon="6.01704">
        <ele>342</ele>
        <time>2021-04-25T11:21:12Z</time>
      </trkpt>
      <trkpt lat="47.25825" lon="6.01707">
        <ele>341.8</ele>
        <time>2021-04-25T11:21:13Z</time>
      </trkpt>
      <trkpt lat="47.25813" lon="6.01713">
        <ele>341.4</ele>
        <time>2021-04-25T11:21:16Z</time>
      </trkpt>
      <trkpt lat="47.25805" lon="6.01718">
        <ele>340.8</ele>
        <time>2021-04-25T11:21:18Z</time>
      </trkpt>
      <trkpt lat="47.25796" lon="6.01723">
        <ele>340.2</ele>
        <time>2021-04-25T11:21:20Z</time>
      </trkpt>
      <trkpt lat="47.25792" lon="6.01725">
        <ele>340</ele>
        <time>2021-04-25T11:21:21Z</time>
      </trkpt>
      <trkpt lat="47.25788" lon="6.01728">
        <ele>339.6</ele>
        <time>2021-04-25T11:21:22Z</time>
      </trkpt>
      <trkpt lat="47.25784" lon="6.01729">
        <ele>339.4</ele>
        <time>2021-04-25T11:21:23Z</time>
      </trkpt>
      <trkpt lat="47.2578" lon="6.0173">
        <ele>339.4</ele>
        <time>2021-04-25T11:21:24Z</time>
      </trkpt>
      <trkpt lat="47.25778" lon="6.01734">
        <ele>339.4</ele>
        <time>2021-04-25T11:21:25Z</time>
      </trkpt>
      <trkpt lat="47.25777" lon="6.01738">
        <ele>339.2</ele>
        <time>2021-04-25T11:21:26Z</time>
      </trkpt>
      <trkpt lat="47.25775" lon="6.01743">
        <ele>339.2</ele>
        <time>2021-04-25T11:21:27Z</time>
      </trkpt>
      <trkpt lat="47.25773" lon="6.01747">
        <ele>339.2</ele>
        <time>2021-04-25T11:21:28Z</time>
      </trkpt>
      <trkpt lat="47.25769" lon="6.01756">
        <ele>339.2</ele>
        <time>2021-04-25T11:21:30Z</time>
      </trkpt>
      <trkpt lat="47.25767" lon="6.0176">
        <ele>339.6</ele>
        <time>2021-04-25T11:21:31Z</time>
      </trkpt>
      <trkpt lat="47.25765" lon="6.01764">
        <ele>339.8</ele>
        <time>2021-04-25T11:21:32Z</time>
      </trkpt>
      <trkpt lat="47.25763" lon="6.01767">
        <ele>339.8</ele>
        <time>2021-04-25T11:21:33Z</time>
      </trkpt>
      <trkpt lat="47.25761" lon="6.01771">
        <ele>340</ele>
        <time>2021-04-25T11:21:34Z</time>
      </trkpt>
      <trkpt lat="47.25759" lon="6.01775">
        <ele>340</ele>
        <time>2021-04-25T11:21:35Z</time>
      </trkpt>
      <trkpt lat="47.25753" lon="6.01785">
        <ele>340.6</ele>
        <time>2021-04-25T11:21:38Z</time>
      </trkpt>
      <trkpt lat="47.25751" lon="6.01788">
        <ele>340.8</ele>
        <time>2021-04-25T11:21:39Z</time>
      </trkpt>
      <trkpt lat="47.25748" lon="6.01791">
        <ele>341</ele>
        <time>2021-04-25T11:21:40Z</time>
      </trkpt>
      <trkpt lat="47.25746" lon="6.01794">
        <ele>341</ele>
        <time>2021-04-25T11:21:41Z</time>
      </trkpt>
      <trkpt lat="47.25744" lon="6.01797">
        <ele>341</ele>
        <time>2021-04-25T11:21:42Z</time>
      </trkpt>
      <trkpt lat="47.25742" lon="6.01799">
        <ele>341.2</ele>
        <time>2021-04-25T11:21:43Z</time>
      </trkpt>
      <trkpt lat="47.2574" lon="6.01802">
        <ele>341.4</ele>
        <time>2021-04-25T11:21:44Z</time>
      </trkpt>
      <trkpt lat="47.25738" lon="6.01804">
        <ele>341.4</ele>
        <time>2021-04-25T11:21:45Z</time>
      </trkpt>
      <trkpt lat="47.25736" lon="6.01807">
        <ele>341.6</ele>
        <time>2021-04-25T11:21:46Z</time>
      </trkpt>
      <trkpt lat="47.25733" lon="6.01811">
        <ele>341.6</ele>
        <time>2021-04-25T11:21:47Z</time>
      </trkpt>
      <trkpt lat="47.25731" lon="6.01815">
        <ele>341.8</ele>
        <time>2021-04-25T11:21:48Z</time>
      </trkpt>
      <trkpt lat="47.25728" lon="6.01817">
        <ele>341.8</ele>
        <time>2021-04-25T11:21:49Z</time>
      </trkpt>
      <trkpt lat="47.25727" lon="6.01818">
        <ele>341.8</ele>
        <time>2021-04-25T11:21:50Z</time>
      </trkpt>
      <trkpt lat="47.25725" lon="6.0182">
        <ele>341.8</ele>
        <time>2021-04-25T11:21:51Z</time>
      </trkpt>
      <trkpt lat="47.25723" lon="6.01823">
        <ele>341.6</ele>
        <time>2021-04-25T11:21:52Z</time>
      </trkpt>
      <trkpt lat="47.25718" lon="6.0183">
        <ele>341.6</ele>
        <time>2021-04-25T11:21:54Z</time>
      </trkpt>
      <trkpt lat="47.25701" lon="6.01855">
        <ele>340.8</ele>
        <time>2021-04-25T11:21:59Z</time>
      </trkpt>
      <trkpt lat="47.25694" lon="6.01863">
        <ele>340</ele>
        <time>2021-04-25T11:22:01Z</time>
      </trkpt>
      <trkpt lat="47.25692" lon="6.01866">
        <ele>339.8</ele>
        <time>2021-04-25T11:22:02Z</time>
      </trkpt>
      <trkpt lat="47.25689" lon="6.0187">
        <ele>339.2</ele>
        <time>2021-04-25T11:22:03Z</time>
      </trkpt>
      <trkpt lat="47.25687" lon="6.01873">
        <ele>339</ele>
        <time>2021-04-25T11:22:04Z</time>
      </trkpt>
      <trkpt lat="47.25685" lon="6.01875">
        <ele>338.6</ele>
        <time>2021-04-25T11:22:05Z</time>
      </trkpt>
      <trkpt lat="47.25683" lon="6.01877">
        <ele>338.4</ele>
        <time>2021-04-25T11:22:06Z</time>
      </trkpt>
      <trkpt lat="47.25682" lon="6.01878">
        <ele>338.2</ele>
        <time>2021-04-25T11:22:07Z</time>
      </trkpt>
      <trkpt lat="47.25681" lon="6.01879">
        <ele>338</ele>
        <time>2021-04-25T11:22:08Z</time>
      </trkpt>
      <trkpt lat="47.25678" lon="6.01884">
        <ele>337.4</ele>
        <time>2021-04-25T11:22:10Z</time>
      </trkpt>
      <trkpt lat="47.25677" lon="6.01887">
        <ele>337</ele>
        <time>2021-04-25T11:22:11Z</time>
      </trkpt>
      <trkpt lat="47.25676" lon="6.01891">
        <ele>336.6</ele>
        <time>2021-04-25T11:22:12Z</time>
      </trkpt>
      <trkpt lat="47.25674" lon="6.01895">
        <ele>336.4</ele>
        <time>2021-04-25T11:22:13Z</time>
      </trkpt>
      <trkpt lat="47.25669" lon="6.01906">
        <ele>335.8</ele>
        <time>2021-04-25T11:22:15Z</time>
      </trkpt>
      <trkpt lat="47.25659" lon="6.01921">
        <ele>335.4</ele>
        <time>2021-04-25T11:22:17Z</time>
      </trkpt>
      <trkpt lat="47.2564" lon="6.01948">
        <ele>334</ele>
        <time>2021-04-25T11:22:20Z</time>
      </trkpt>
      <trkpt lat="47.25633" lon="6.01958">
        <ele>333.6</ele>
        <time>2021-04-25T11:22:21Z</time>
      </trkpt>
      <trkpt lat="47.25627" lon="6.01968">
        <ele>332.8</ele>
        <time>2021-04-25T11:22:22Z</time>
      </trkpt>
      <trkpt lat="47.25618" lon="6.01986">
        <ele>331.2</ele>
        <time>2021-04-25T11:22:24Z</time>
      </trkpt>
      <trkpt lat="47.25615" lon="6.01993">
        <ele>330.8</ele>
        <time>2021-04-25T11:22:25Z</time>
      </trkpt>
      <trkpt lat="47.25612" lon="6.01997">
        <ele>329.6</ele>
        <time>2021-04-25T11:22:26Z</time>
      </trkpt>
      <trkpt lat="47.25611" lon="6.02">
        <ele>328.6</ele>
        <time>2021-04-25T11:22:27Z</time>
      </trkpt>
      <trkpt lat="47.2561" lon="6.02002">
        <ele>328.4</ele>
        <time>2021-04-25T11:22:28Z</time>
      </trkpt>
      <trkpt lat="47.25609" lon="6.02004">
        <ele>328</ele>
        <time>2021-04-25T11:22:29Z</time>
      </trkpt>
      <trkpt lat="47.25608" lon="6.02005">
        <ele>327.8</ele>
        <time>2021-04-25T11:22:30Z</time>
      </trkpt>
      <trkpt lat="47.25608" lon="6.02005">
        <ele>327.6</ele>
        <time>2021-04-25T11:22:32Z</time>
      </trkpt>
      <trkpt lat="47.25608" lon="6.02008">
        <ele>326.8</ele>
        <time>2021-04-25T11:22:43Z</time>
      </trkpt>
      <trkpt lat="47.25608" lon="6.02008">
        <ele>326.8</ele>
        <time>2021-04-25T11:22:44Z</time>
      </trkpt>
      <trkpt lat="47.25608" lon="6.02008">
        <ele>326.8</ele>
        <time>2021-04-25T11:22:45Z</time>
      </trkpt>
      <trkpt lat="47.25607" lon="6.02008">
        <ele>326.8</ele>
        <time>2021-04-25T11:22:46Z</time>
      </trkpt>
      <trkpt lat="47.25605" lon="6.02014">
        <ele>326.8</ele>
        <time>2021-04-25T11:22:49Z</time>
      </trkpt>
      <trkpt lat="47.25604" lon="6.02017">
        <ele>326.8</ele>
        <time>2021-04-25T11:22:51Z</time>
      </trkpt>
      <trkpt lat="47.25604" lon="6.02017">
        <ele>326.8</ele>
        <time>2021-04-25T11:22:52Z</time>
      </trkpt>
      <trkpt lat="47.25604" lon="6.02017">
        <ele>326.6</ele>
        <time>2021-04-25T11:22:55Z</time>
      </trkpt>
      <trkpt lat="47.25604" lon="6.02017">
        <ele>326.6</ele>
        <time>2021-04-25T11:23:00Z</time>
      </trkpt>
      <trkpt lat="47.25603" lon="6.02027">
        <ele>326.6</ele>
        <time>2021-04-25T11:23:03Z</time>
      </trkpt>
      <trkpt lat="47.256" lon="6.02049">
        <ele>326.6</ele>
        <time>2021-04-25T11:23:08Z</time>
      </trkpt>
      <trkpt lat="47.25598" lon="6.02055">
        <ele>326.4</ele>
        <time>2021-04-25T11:23:09Z</time>
      </trkpt>
      <trkpt lat="47.25588" lon="6.02082">
        <ele>326.2</ele>
        <time>2021-04-25T11:23:13Z</time>
      </trkpt>
      <trkpt lat="47.25583" lon="6.02097">
        <ele>326</ele>
        <time>2021-04-25T11:23:15Z</time>
      </trkpt>
      <trkpt lat="47.25575" lon="6.02119">
        <ele>325.6</ele>
        <time>2021-04-25T11:23:18Z</time>
      </trkpt>
      <trkpt lat="47.25572" lon="6.02127">
        <ele>325.4</ele>
        <time>2021-04-25T11:23:19Z</time>
      </trkpt>
      <trkpt lat="47.25564" lon="6.02149">
        <ele>324.2</ele>
        <time>2021-04-25T11:23:22Z</time>
      </trkpt>
      <trkpt lat="47.25563" lon="6.02156">
        <ele>324</ele>
        <time>2021-04-25T11:23:23Z</time>
      </trkpt>
      <trkpt lat="47.25561" lon="6.02161">
        <ele>323.6</ele>
        <time>2021-04-25T11:23:24Z</time>
      </trkpt>
      <trkpt lat="47.25559" lon="6.02166">
        <ele>323.6</ele>
        <time>2021-04-25T11:23:25Z</time>
      </trkpt>
      <trkpt lat="47.25557" lon="6.0217">
        <ele>323.4</ele>
        <time>2021-04-25T11:23:26Z</time>
      </trkpt>
      <trkpt lat="47.25556" lon="6.02176">
        <ele>323.4</ele>
        <time>2021-04-25T11:23:27Z</time>
      </trkpt>
      <trkpt lat="47.25554" lon="6.02182">
        <ele>323.2</ele>
        <time>2021-04-25T11:23:28Z</time>
      </trkpt>
      <trkpt lat="47.25553" lon="6.02189">
        <ele>323</ele>
        <time>2021-04-25T11:23:29Z</time>
      </trkpt>
      <trkpt lat="47.2554" lon="6.02228">
        <ele>321.8</ele>
        <time>2021-04-25T11:23:34Z</time>
      </trkpt>
      <trkpt lat="47.25534" lon="6.02248">
        <ele>320.8</ele>
        <time>2021-04-25T11:23:36Z</time>
      </trkpt>
      <trkpt lat="47.25525" lon="6.02281">
        <ele>319.8</ele>
        <time>2021-04-25T11:23:39Z</time>
      </trkpt>
      <trkpt lat="47.25519" lon="6.02302">
        <ele>318</ele>
        <time>2021-04-25T11:23:41Z</time>
      </trkpt>
      <trkpt lat="47.25516" lon="6.02313">
        <ele>317.6</ele>
        <time>2021-04-25T11:23:42Z</time>
      </trkpt>
      <trkpt lat="47.25507" lon="6.02343">
        <ele>316.8</ele>
        <time>2021-04-25T11:23:45Z</time>
      </trkpt>
      <trkpt lat="47.25504" lon="6.02352">
        <ele>316.4</ele>
        <time>2021-04-25T11:23:46Z</time>
      </trkpt>
      <trkpt lat="47.25501" lon="6.02361">
        <ele>316.2</ele>
        <time>2021-04-25T11:23:47Z</time>
      </trkpt>
      <trkpt lat="47.25497" lon="6.02368">
        <ele>315.8</ele>
        <time>2021-04-25T11:23:48Z</time>
      </trkpt>
      <trkpt lat="47.25493" lon="6.02376">
        <ele>315.8</ele>
        <time>2021-04-25T11:23:49Z</time>
      </trkpt>
      <trkpt lat="47.25488" lon="6.02383">
        <ele>315.6</ele>
        <time>2021-04-25T11:23:50Z</time>
      </trkpt>
      <trkpt lat="47.25471" lon="6.0241">
        <ele>315.2</ele>
        <time>2021-04-25T11:23:54Z</time>
      </trkpt>
      <trkpt lat="47.25466" lon="6.02416">
        <ele>314.8</ele>
        <time>2021-04-25T11:23:55Z</time>
      </trkpt>
      <trkpt lat="47.25461" lon="6.02423">
        <ele>314.8</ele>
        <time>2021-04-25T11:23:56Z</time>
      </trkpt>
      <trkpt lat="47.25457" lon="6.02429">
        <ele>314.6</ele>
        <time>2021-04-25T11:23:57Z</time>
      </trkpt>
      <trkpt lat="47.25453" lon="6.02436">
        <ele>314.6</ele>
        <time>2021-04-25T11:23:58Z</time>
      </trkpt>
      <trkpt lat="47.25448" lon="6.02442">
        <ele>314.4</ele>
        <time>2021-04-25T11:23:59Z</time>
      </trkpt>
      <trkpt lat="47.25434" lon="6.02463">
        <ele>313.8</ele>
        <time>2021-04-25T11:24:02Z</time>
      </trkpt>
      <trkpt lat="47.25425" lon="6.02476">
        <ele>313.6</ele>
        <time>2021-04-25T11:24:04Z</time>
      </trkpt>
      <trkpt lat="47.2542" lon="6.02482">
        <ele>313.4</ele>
        <time>2021-04-25T11:24:05Z</time>
      </trkpt>
      <trkpt lat="47.25403" lon="6.02496">
        <ele>313.2</ele>
        <time>2021-04-25T11:24:08Z</time>
      </trkpt>
      <trkpt lat="47.25392" lon="6.02505">
        <ele>312.8</ele>
        <time>2021-04-25T11:24:10Z</time>
      </trkpt>
      <trkpt lat="47.25386" lon="6.02509">
        <ele>312.6</ele>
        <time>2021-04-25T11:24:11Z</time>
      </trkpt>
      <trkpt lat="47.25381" lon="6.02513">
        <ele>312.4</ele>
        <time>2021-04-25T11:24:12Z</time>
      </trkpt>
      <trkpt lat="47.25376" lon="6.02518">
        <ele>312.2</ele>
        <time>2021-04-25T11:24:13Z</time>
      </trkpt>
      <trkpt lat="47.25372" lon="6.02522">
        <ele>311.8</ele>
        <time>2021-04-25T11:24:14Z</time>
      </trkpt>
      <trkpt lat="47.25368" lon="6.02526">
        <ele>311.8</ele>
        <time>2021-04-25T11:24:15Z</time>
      </trkpt>
      <trkpt lat="47.25364" lon="6.02528">
        <ele>311.6</ele>
        <time>2021-04-25T11:24:16Z</time>
      </trkpt>
      <trkpt lat="47.25362" lon="6.02531">
        <ele>311.2</ele>
        <time>2021-04-25T11:24:17Z</time>
      </trkpt>
      <trkpt lat="47.2536" lon="6.02532">
        <ele>311.2</ele>
        <time>2021-04-25T11:24:18Z</time>
      </trkpt>
      <trkpt lat="47.25359" lon="6.02533">
        <ele>310.8</ele>
        <time>2021-04-25T11:24:19Z</time>
      </trkpt>
      <trkpt lat="47.25359" lon="6.02533">
        <ele>310.8</ele>
        <time>2021-04-25T11:24:20Z</time>
      </trkpt>
      <trkpt lat="47.25359" lon="6.02533">
        <ele>310.4</ele>
        <time>2021-04-25T11:24:21Z</time>
      </trkpt>
      <trkpt lat="47.25359" lon="6.02533">
        <ele>310.2</ele>
        <time>2021-04-25T11:24:26Z</time>
      </trkpt>
      <trkpt lat="47.25359" lon="6.02533">
        <ele>310.2</ele>
        <time>2021-04-25T11:24:31Z</time>
      </trkpt>
      <trkpt lat="47.25359" lon="6.02533">
        <ele>309.4</ele>
        <time>2021-04-25T11:24:36Z</time>
      </trkpt>
      <trkpt lat="47.25359" lon="6.02534">
        <ele>309.2</ele>
        <time>2021-04-25T11:24:42Z</time>
      </trkpt>
      <trkpt lat="47.25357" lon="6.02536">
        <ele>309.2</ele>
        <time>2021-04-25T11:24:43Z</time>
      </trkpt>
      <trkpt lat="47.25355" lon="6.0254">
        <ele>309.2</ele>
        <time>2021-04-25T11:24:44Z</time>
      </trkpt>
      <trkpt lat="47.25353" lon="6.02544">
        <ele>309.2</ele>
        <time>2021-04-25T11:24:45Z</time>
      </trkpt>
      <trkpt lat="47.25351" lon="6.02548">
        <ele>309.2</ele>
        <time>2021-04-25T11:24:46Z</time>
      </trkpt>
      <trkpt lat="47.25333" lon="6.02574">
        <ele>309</ele>
        <time>2021-04-25T11:24:52Z</time>
      </trkpt>
      <trkpt lat="47.25329" lon="6.02578">
        <ele>309</ele>
        <time>2021-04-25T11:24:53Z</time>
      </trkpt>
      <trkpt lat="47.25317" lon="6.02588">
        <ele>308.6</ele>
        <time>2021-04-25T11:24:56Z</time>
      </trkpt>
      <trkpt lat="47.25312" lon="6.0259">
        <ele>308.4</ele>
        <time>2021-04-25T11:24:57Z</time>
      </trkpt>
      <trkpt lat="47.25289" lon="6.02598">
        <ele>307.4</ele>
        <time>2021-04-25T11:25:02Z</time>
      </trkpt>
      <trkpt lat="47.25284" lon="6.026">
        <ele>307.2</ele>
        <time>2021-04-25T11:25:03Z</time>
      </trkpt>
      <trkpt lat="47.25243" lon="6.02613">
        <ele>306.2</ele>
        <time>2021-04-25T11:25:11Z</time>
      </trkpt>
      <trkpt lat="47.25238" lon="6.02615">
        <ele>306.2</ele>
        <time>2021-04-25T11:25:12Z</time>
      </trkpt>
      <trkpt lat="47.25223" lon="6.02621">
        <ele>305.8</ele>
        <time>2021-04-25T11:25:15Z</time>
      </trkpt>
      <trkpt lat="47.25218" lon="6.02622">
        <ele>305.6</ele>
        <time>2021-04-25T11:25:16Z</time>
      </trkpt>
      <trkpt lat="47.25208" lon="6.02622">
        <ele>305</ele>
        <time>2021-04-25T11:25:18Z</time>
      </trkpt>
      <trkpt lat="47.25196" lon="6.02607">
        <ele>304.4</ele>
        <time>2021-04-25T11:25:21Z</time>
      </trkpt>
      <trkpt lat="47.25192" lon="6.026">
        <ele>304.2</ele>
        <time>2021-04-25T11:25:22Z</time>
      </trkpt>
      <trkpt lat="47.25189" lon="6.02592">
        <ele>304</ele>
        <time>2021-04-25T11:25:23Z</time>
      </trkpt>
      <trkpt lat="47.25185" lon="6.02584">
        <ele>303.8</ele>
        <time>2021-04-25T11:25:24Z</time>
      </trkpt>
      <trkpt lat="47.25181" lon="6.02577">
        <ele>303.6</ele>
        <time>2021-04-25T11:25:25Z</time>
      </trkpt>
      <trkpt lat="47.25169" lon="6.02566">
        <ele>303.2</ele>
        <time>2021-04-25T11:25:27Z</time>
      </trkpt>
      <trkpt lat="47.25162" lon="6.02563">
        <ele>302.8</ele>
        <time>2021-04-25T11:25:28Z</time>
      </trkpt>
      <trkpt lat="47.25154" lon="6.02562">
        <ele>302.8</ele>
        <time>2021-04-25T11:25:29Z</time>
      </trkpt>
      <trkpt lat="47.25146" lon="6.02561">
        <ele>302.4</ele>
        <time>2021-04-25T11:25:30Z</time>
      </trkpt>
      <trkpt lat="47.25129" lon="6.02559">
        <ele>301.8</ele>
        <time>2021-04-25T11:25:32Z</time>
      </trkpt>
      <trkpt lat="47.2512" lon="6.02559">
        <ele>301.2</ele>
        <time>2021-04-25T11:25:33Z</time>
      </trkpt>
      <trkpt lat="47.251" lon="6.02556">
        <ele>300</ele>
        <time>2021-04-25T11:25:35Z</time>
      </trkpt>
      <trkpt lat="47.25079" lon="6.02554">
        <ele>299</ele>
        <time>2021-04-25T11:25:37Z</time>
      </trkpt>
      <trkpt lat="47.2507" lon="6.02554">
        <ele>298.6</ele>
        <time>2021-04-25T11:25:38Z</time>
      </trkpt>
      <trkpt lat="47.25061" lon="6.02553">
        <ele>297.6</ele>
        <time>2021-04-25T11:25:39Z</time>
      </trkpt>
      <trkpt lat="47.25053" lon="6.02552">
        <ele>296</ele>
        <time>2021-04-25T11:25:40Z</time>
      </trkpt>
      <trkpt lat="47.25045" lon="6.02552">
        <ele>295.4</ele>
        <time>2021-04-25T11:25:41Z</time>
      </trkpt>
      <trkpt lat="47.25037" lon="6.02552">
        <ele>294</ele>
        <time>2021-04-25T11:25:42Z</time>
      </trkpt>
      <trkpt lat="47.25031" lon="6.02552">
        <ele>293.6</ele>
        <time>2021-04-25T11:25:43Z</time>
      </trkpt>
      <trkpt lat="47.25026" lon="6.02552">
        <ele>292.6</ele>
        <time>2021-04-25T11:25:44Z</time>
      </trkpt>
      <trkpt lat="47.25022" lon="6.02553">
        <ele>291.6</ele>
        <time>2021-04-25T11:25:45Z</time>
      </trkpt>
      <trkpt lat="47.25019" lon="6.02554">
        <ele>291.4</ele>
        <time>2021-04-25T11:25:46Z</time>
      </trkpt>
      <trkpt lat="47.25017" lon="6.02557">
        <ele>290.8</ele>
        <time>2021-04-25T11:25:47Z</time>
      </trkpt>
      <trkpt lat="47.25015" lon="6.0256">
        <ele>290.6</ele>
        <time>2021-04-25T11:25:48Z</time>
      </trkpt>
      <trkpt lat="47.25014" lon="6.02562">
        <ele>290.2</ele>
        <time>2021-04-25T11:25:49Z</time>
      </trkpt>
      <trkpt lat="47.25013" lon="6.02563">
        <ele>290</ele>
        <time>2021-04-25T11:25:50Z</time>
      </trkpt>
      <trkpt lat="47.25013" lon="6.02563">
        <ele>289.6</ele>
        <time>2021-04-25T11:25:51Z</time>
      </trkpt>
      <trkpt lat="47.25013" lon="6.02563">
        <ele>289.2</ele>
        <time>2021-04-25T11:25:52Z</time>
      </trkpt>
      <trkpt lat="47.25012" lon="6.02566">
        <ele>288.2</ele>
        <time>2021-04-25T11:25:58Z</time>
      </trkpt>
      <trkpt lat="47.25011" lon="6.02569">
        <ele>288.2</ele>
        <time>2021-04-25T11:25:59Z</time>
      </trkpt>
      <trkpt lat="47.25009" lon="6.02577">
        <ele>288</ele>
        <time>2021-04-25T11:26:01Z</time>
      </trkpt>
      <trkpt lat="47.2501" lon="6.02584">
        <ele>288</ele>
        <time>2021-04-25T11:26:02Z</time>
      </trkpt>
      <trkpt lat="47.25011" lon="6.02591">
        <ele>287.8</ele>
        <time>2021-04-25T11:26:03Z</time>
      </trkpt>
      <trkpt lat="47.25012" lon="6.02597">
        <ele>287.8</ele>
        <time>2021-04-25T11:26:04Z</time>
      </trkpt>
      <trkpt lat="47.25012" lon="6.02604">
        <ele>287.6</ele>
        <time>2021-04-25T11:26:05Z</time>
      </trkpt>
      <trkpt lat="47.25011" lon="6.02616">
        <ele>287.6</ele>
        <time>2021-04-25T11:26:07Z</time>
      </trkpt>
      <trkpt lat="47.25011" lon="6.02621">
        <ele>287.6</ele>
        <time>2021-04-25T11:26:08Z</time>
      </trkpt>
      <trkpt lat="47.25011" lon="6.02626">
        <ele>287.6</ele>
        <time>2021-04-25T11:26:09Z</time>
      </trkpt>
      <trkpt lat="47.2501" lon="6.02629">
        <ele>287.6</ele>
        <time>2021-04-25T11:26:10Z</time>
      </trkpt>
      <trkpt lat="47.25009" lon="6.02631">
        <ele>287.6</ele>
        <time>2021-04-25T11:26:11Z</time>
      </trkpt>
      <trkpt lat="47.25007" lon="6.02632">
        <ele>287.6</ele>
        <time>2021-04-25T11:26:12Z</time>
      </trkpt>
      <trkpt lat="47.25006" lon="6.02633">
        <ele>287.6</ele>
        <time>2021-04-25T11:26:13Z</time>
      </trkpt>
      <trkpt lat="47.25004" lon="6.02634">
        <ele>287.6</ele>
        <time>2021-04-25T11:26:14Z</time>
      </trkpt>
      <trkpt lat="47.24989" lon="6.0265">
        <ele>288.2</ele>
        <time>2021-04-25T11:26:18Z</time>
      </trkpt>
      <trkpt lat="47.24982" lon="6.02658">
        <ele>288.4</ele>
        <time>2021-04-25T11:26:20Z</time>
      </trkpt>
      <trkpt lat="47.24966" lon="6.02674">
        <ele>289</ele>
        <time>2021-04-25T11:26:25Z</time>
      </trkpt>
      <trkpt lat="47.24959" lon="6.02678">
        <ele>289.4</ele>
        <time>2021-04-25T11:26:27Z</time>
      </trkpt>
      <trkpt lat="47.24956" lon="6.0268">
        <ele>289.4</ele>
        <time>2021-04-25T11:26:28Z</time>
      </trkpt>
      <trkpt lat="47.24952" lon="6.02683">
        <ele>289.4</ele>
        <time>2021-04-25T11:26:29Z</time>
      </trkpt>
      <trkpt lat="47.24948" lon="6.02684">
        <ele>289.4</ele>
        <time>2021-04-25T11:26:30Z</time>
      </trkpt>
      <trkpt lat="47.24941" lon="6.02686">
        <ele>289.4</ele>
        <time>2021-04-25T11:26:32Z</time>
      </trkpt>
      <trkpt lat="47.24914" lon="6.02691">
        <ele>288.6</ele>
        <time>2021-04-25T11:26:39Z</time>
      </trkpt>
      <trkpt lat="47.24899" lon="6.02694">
        <ele>288.2</ele>
        <time>2021-04-25T11:26:43Z</time>
      </trkpt>
      <trkpt lat="47.24897" lon="6.02695">
        <ele>288.2</ele>
        <time>2021-04-25T11:26:44Z</time>
      </trkpt>
      <trkpt lat="47.24895" lon="6.02695">
        <ele>288.2</ele>
        <time>2021-04-25T11:26:45Z</time>
      </trkpt>
      <trkpt lat="47.24893" lon="6.02693">
        <ele>288</ele>
        <time>2021-04-25T11:26:46Z</time>
      </trkpt>
      <trkpt lat="47.24891" lon="6.02691">
        <ele>288</ele>
        <time>2021-04-25T11:26:47Z</time>
      </trkpt>
      <trkpt lat="47.24891" lon="6.02688">
        <ele>287.8</ele>
        <time>2021-04-25T11:26:48Z</time>
      </trkpt>
      <trkpt lat="47.24889" lon="6.0268">
        <ele>287.6</ele>
        <time>2021-04-25T11:26:50Z</time>
      </trkpt>
      <trkpt lat="47.24888" lon="6.02675">
        <ele>287.4</ele>
        <time>2021-04-25T11:26:51Z</time>
      </trkpt>
      <trkpt lat="47.24887" lon="6.0267">
        <ele>287.2</ele>
        <time>2021-04-25T11:26:52Z</time>
      </trkpt>
      <trkpt lat="47.24882" lon="6.02648">
        <ele>287</ele>
        <time>2021-04-25T11:26:56Z</time>
      </trkpt>
      <trkpt lat="47.24874" lon="6.02614">
        <ele>286.8</ele>
        <time>2021-04-25T11:27:01Z</time>
      </trkpt>
      <trkpt lat="47.2487" lon="6.02599">
        <ele>286.2</ele>
        <time>2021-04-25T11:27:03Z</time>
      </trkpt>
      <trkpt lat="47.24869" lon="6.02594">
        <ele>286.2</ele>
        <time>2021-04-25T11:27:04Z</time>
      </trkpt>
      <trkpt lat="47.24866" lon="6.02591">
        <ele>285.6</ele>
        <time>2021-04-25T11:27:05Z</time>
      </trkpt>
      <trkpt lat="47.24862" lon="6.02591">
        <ele>285.4</ele>
        <time>2021-04-25T11:27:06Z</time>
      </trkpt>
      <trkpt lat="47.24858" lon="6.02592">
        <ele>285.2</ele>
        <time>2021-04-25T11:27:07Z</time>
      </trkpt>
      <trkpt lat="47.24853" lon="6.02594">
        <ele>285</ele>
        <time>2021-04-25T11:27:08Z</time>
      </trkpt>
      <trkpt lat="47.24847" lon="6.02597">
        <ele>285</ele>
        <time>2021-04-25T11:27:09Z</time>
      </trkpt>
      <trkpt lat="47.24843" lon="6.02598">
        <ele>284.8</ele>
        <time>2021-04-25T11:27:10Z</time>
      </trkpt>
      <trkpt lat="47.24838" lon="6.026">
        <ele>284.6</ele>
        <time>2021-04-25T11:27:11Z</time>
      </trkpt>
      <trkpt lat="47.24833" lon="6.02601">
        <ele>284.4</ele>
        <time>2021-04-25T11:27:12Z</time>
      </trkpt>
      <trkpt lat="47.24831" lon="6.02601">
        <ele>284.2</ele>
        <time>2021-04-25T11:27:13Z</time>
      </trkpt>
      <trkpt lat="47.24829" lon="6.026">
        <ele>283.8</ele>
        <time>2021-04-25T11:27:14Z</time>
      </trkpt>
      <trkpt lat="47.24827" lon="6.02598">
        <ele>283.6</ele>
        <time>2021-04-25T11:27:15Z</time>
      </trkpt>
      <trkpt lat="47.24825" lon="6.02595">
        <ele>283.4</ele>
        <time>2021-04-25T11:27:16Z</time>
      </trkpt>
      <trkpt lat="47.24821" lon="6.02587">
        <ele>283.2</ele>
        <time>2021-04-25T11:27:18Z</time>
      </trkpt>
      <trkpt lat="47.2482" lon="6.02581">
        <ele>283.2</ele>
        <time>2021-04-25T11:27:19Z</time>
      </trkpt>
      <trkpt lat="47.24819" lon="6.02575">
        <ele>283</ele>
        <time>2021-04-25T11:27:20Z</time>
      </trkpt>
      <trkpt lat="47.24816" lon="6.02564">
        <ele>283</ele>
        <time>2021-04-25T11:27:22Z</time>
      </trkpt>
      <trkpt lat="47.24814" lon="6.02558">
        <ele>283</ele>
        <time>2021-04-25T11:27:23Z</time>
      </trkpt>
      <trkpt lat="47.24802" lon="6.02528">
        <ele>283</ele>
        <time>2021-04-25T11:27:29Z</time>
      </trkpt>
      <trkpt lat="47.24799" lon="6.02519">
        <ele>283.4</ele>
        <time>2021-04-25T11:27:31Z</time>
      </trkpt>
      <trkpt lat="47.24798" lon="6.02515">
        <ele>283.4</ele>
        <time>2021-04-25T11:27:32Z</time>
      </trkpt>
      <trkpt lat="47.24797" lon="6.02512">
        <ele>283.4</ele>
        <time>2021-04-25T11:27:33Z</time>
      </trkpt>
      <trkpt lat="47.24795" lon="6.02509">
        <ele>283.6</ele>
        <time>2021-04-25T11:27:34Z</time>
      </trkpt>
      <trkpt lat="47.24793" lon="6.02506">
        <ele>283.8</ele>
        <time>2021-04-25T11:27:35Z</time>
      </trkpt>
      <trkpt lat="47.2479" lon="6.02505">
        <ele>284</ele>
        <time>2021-04-25T11:27:36Z</time>
      </trkpt>
      <trkpt lat="47.24784" lon="6.02506">
        <ele>284.2</ele>
        <time>2021-04-25T11:27:38Z</time>
      </trkpt>
      <trkpt lat="47.24778" lon="6.02511">
        <ele>284.4</ele>
        <time>2021-04-25T11:27:40Z</time>
      </trkpt>
      <trkpt lat="47.24774" lon="6.02514">
        <ele>284.4</ele>
        <time>2021-04-25T11:27:41Z</time>
      </trkpt>
      <trkpt lat="47.2477" lon="6.02518">
        <ele>284.4</ele>
        <time>2021-04-25T11:27:42Z</time>
      </trkpt>
      <trkpt lat="47.24763" lon="6.02525">
        <ele>284.4</ele>
        <time>2021-04-25T11:27:44Z</time>
      </trkpt>
      <trkpt lat="47.24755" lon="6.02532">
        <ele>284.4</ele>
        <time>2021-04-25T11:27:46Z</time>
      </trkpt>
      <trkpt lat="47.24752" lon="6.02534">
        <ele>284.2</ele>
        <time>2021-04-25T11:27:47Z</time>
      </trkpt>
      <trkpt lat="47.24749" lon="6.02535">
        <ele>284</ele>
        <time>2021-04-25T11:27:48Z</time>
      </trkpt>
      <trkpt lat="47.24747" lon="6.02533">
        <ele>284</ele>
        <time>2021-04-25T11:27:49Z</time>
      </trkpt>
      <trkpt lat="47.2474" lon="6.02523">
        <ele>284</ele>
        <time>2021-04-25T11:27:52Z</time>
      </trkpt>
      <trkpt lat="47.24738" lon="6.02519">
        <ele>284</ele>
        <time>2021-04-25T11:27:53Z</time>
      </trkpt>
      <trkpt lat="47.2473" lon="6.02505">
        <ele>284.2</ele>
        <time>2021-04-25T11:27:57Z</time>
      </trkpt>
      <trkpt lat="47.24727" lon="6.02502">
        <ele>284.2</ele>
        <time>2021-04-25T11:27:58Z</time>
      </trkpt>
      <trkpt lat="47.24723" lon="6.02496">
        <ele>284.4</ele>
        <time>2021-04-25T11:28:00Z</time>
      </trkpt>
      <trkpt lat="47.24721" lon="6.02493">
        <ele>284.6</ele>
        <time>2021-04-25T11:28:01Z</time>
      </trkpt>
      <trkpt lat="47.24719" lon="6.02492">
        <ele>284.6</ele>
        <time>2021-04-25T11:28:02Z</time>
      </trkpt>
      <trkpt lat="47.24717" lon="6.02491">
        <ele>284.6</ele>
        <time>2021-04-25T11:28:03Z</time>
      </trkpt>
      <trkpt lat="47.24715" lon="6.02492">
        <ele>284.8</ele>
        <time>2021-04-25T11:28:04Z</time>
      </trkpt>
      <trkpt lat="47.24707" lon="6.02499">
        <ele>284.8</ele>
        <time>2021-04-25T11:28:07Z</time>
      </trkpt>
      <trkpt lat="47.24705" lon="6.02502">
        <ele>284.6</ele>
        <time>2021-04-25T11:28:08Z</time>
      </trkpt>
      <trkpt lat="47.24698" lon="6.02509">
        <ele>284.2</ele>
        <time>2021-04-25T11:28:11Z</time>
      </trkpt>
      <trkpt lat="47.24697" lon="6.02511">
        <ele>284</ele>
        <time>2021-04-25T11:28:12Z</time>
      </trkpt>
      <trkpt lat="47.24695" lon="6.02513">
        <ele>283.8</ele>
        <time>2021-04-25T11:28:13Z</time>
      </trkpt>
      <trkpt lat="47.24693" lon="6.02513">
        <ele>283.6</ele>
        <time>2021-04-25T11:28:14Z</time>
      </trkpt>
      <trkpt lat="47.2469" lon="6.02512">
        <ele>283.4</ele>
        <time>2021-04-25T11:28:15Z</time>
      </trkpt>
      <trkpt lat="47.2469" lon="6.02512">
        <ele>283.2</ele>
        <time>2021-04-25T11:28:16Z</time>
      </trkpt>
      <trkpt lat="47.2469" lon="6.02512">
        <ele>282.8</ele>
        <time>2021-04-25T11:28:18Z</time>
      </trkpt>
      <trkpt lat="47.2469" lon="6.02512">
        <ele>282.4</ele>
        <time>2021-04-25T11:28:20Z</time>
      </trkpt>
      <trkpt lat="47.2469" lon="6.02512">
        <ele>282.2</ele>
        <time>2021-04-25T11:28:23Z</time>
      </trkpt>
    </trkseg>
  </trk>
</gpx>